<?xml version="1.0" encoding="UTF-8" standalone="no" ?>
<gpx xmlns="http://www.topografix.com/GPX/1/1" xmlns:xsi="http://www.w3.org/2001/XMLSchema-instance" xsi:schemaLocation="http://www.topografix.com/GPX/1/1 http://www.topografix.com/GPX/1/1/gpx.xsd" version="1.1" creator="VisuGPX - https://www.visugpx.com">
  <metadata>
    <name>Val Stura</name>
  </metadata>
  <trk>
    <name><![CDATA[J2]]></name>
    <extensions>
      <line xmlns="http://www.topografix.com/GPX/gpx_style/0/2">
        <color>FF00FF</color>
        <opacity>1</opacity>
        <width>4</width>
      </line>
    </extensions>
    <trkseg>
      <trkpt lat="44.44992" lon="6.9997">
        <ele>1485.4000244141</ele>
        <time>2024-09-13T06:53:18.000Z</time>
      </trkpt>
      <trkpt lat="44.44993" lon="6.99963">
        <ele>1485.5999755859</ele>
        <time>2024-09-13T06:53:22.000Z</time>
      </trkpt>
      <trkpt lat="44.44993" lon="6.99956">
        <ele>1485.5999755859</ele>
        <time>2024-09-13T06:53:26.000Z</time>
      </trkpt>
      <trkpt lat="44.44993" lon="6.99954">
        <ele>1485.8000488281</ele>
        <time>2024-09-13T06:53:27.000Z</time>
      </trkpt>
      <trkpt lat="44.44993" lon="6.99953">
        <ele>1485.8000488281</ele>
        <time>2024-09-13T06:53:28.000Z</time>
      </trkpt>
      <trkpt lat="44.44993" lon="6.99953">
        <ele>1485.8000488281</ele>
        <time>2024-09-13T06:53:29.000Z</time>
      </trkpt>
      <trkpt lat="44.44993" lon="6.99948">
        <ele>1486.4000244141</ele>
        <time>2024-09-13T06:53:32.000Z</time>
      </trkpt>
      <trkpt lat="44.44993" lon="6.99946">
        <ele>1486.5999755859</ele>
        <time>2024-09-13T06:53:33.000Z</time>
      </trkpt>
      <trkpt lat="44.44993" lon="6.99944">
        <ele>1486.8000488281</ele>
        <time>2024-09-13T06:53:34.000Z</time>
      </trkpt>
      <trkpt lat="44.44993" lon="6.99943">
        <ele>1487</ele>
        <time>2024-09-13T06:53:35.000Z</time>
      </trkpt>
      <trkpt lat="44.44993" lon="6.99941">
        <ele>1487.4000244141</ele>
        <time>2024-09-13T06:53:36.000Z</time>
      </trkpt>
      <trkpt lat="44.44993" lon="6.9994">
        <ele>1487.5999755859</ele>
        <time>2024-09-13T06:53:37.000Z</time>
      </trkpt>
      <trkpt lat="44.44996" lon="6.99936">
        <ele>1488.1999511719</ele>
        <time>2024-09-13T06:53:39.000Z</time>
      </trkpt>
      <trkpt lat="44.44998" lon="6.99933">
        <ele>1488.8000488281</ele>
        <time>2024-09-13T06:53:42.000Z</time>
      </trkpt>
      <trkpt lat="44.44999" lon="6.99932">
        <ele>1489</ele>
        <time>2024-09-13T06:53:43.000Z</time>
      </trkpt>
      <trkpt lat="44.44999" lon="6.99931">
        <ele>1489.1999511719</ele>
        <time>2024-09-13T06:53:44.000Z</time>
      </trkpt>
      <trkpt lat="44.44999" lon="6.9993">
        <ele>1489.4000244141</ele>
        <time>2024-09-13T06:53:45.000Z</time>
      </trkpt>
      <trkpt lat="44.45" lon="6.99929">
        <ele>1489.5999755859</ele>
        <time>2024-09-13T06:53:46.000Z</time>
      </trkpt>
      <trkpt lat="44.45001" lon="6.99928">
        <ele>1489.8000488281</ele>
        <time>2024-09-13T06:53:47.000Z</time>
      </trkpt>
      <trkpt lat="44.45001" lon="6.99926">
        <ele>1490</ele>
        <time>2024-09-13T06:53:48.000Z</time>
      </trkpt>
      <trkpt lat="44.45002" lon="6.99925">
        <ele>1490.1999511719</ele>
        <time>2024-09-13T06:53:49.000Z</time>
      </trkpt>
      <trkpt lat="44.45002" lon="6.99924">
        <ele>1490.5999755859</ele>
        <time>2024-09-13T06:53:50.000Z</time>
      </trkpt>
      <trkpt lat="44.45003" lon="6.99922">
        <ele>1490.8000488281</ele>
        <time>2024-09-13T06:53:51.000Z</time>
      </trkpt>
      <trkpt lat="44.45004" lon="6.99921">
        <ele>1491</ele>
        <time>2024-09-13T06:53:52.000Z</time>
      </trkpt>
      <trkpt lat="44.45004" lon="6.99919">
        <ele>1491</ele>
        <time>2024-09-13T06:53:53.000Z</time>
      </trkpt>
      <trkpt lat="44.45004" lon="6.99918">
        <ele>1491</ele>
        <time>2024-09-13T06:53:54.000Z</time>
      </trkpt>
      <trkpt lat="44.45004" lon="6.99917">
        <ele>1491.4000244141</ele>
        <time>2024-09-13T06:53:55.000Z</time>
      </trkpt>
      <trkpt lat="44.45004" lon="6.99916">
        <ele>1491.8000488281</ele>
        <time>2024-09-13T06:53:56.000Z</time>
      </trkpt>
      <trkpt lat="44.45004" lon="6.99914">
        <ele>1491.8000488281</ele>
        <time>2024-09-13T06:53:57.000Z</time>
      </trkpt>
      <trkpt lat="44.45003" lon="6.99913">
        <ele>1492</ele>
        <time>2024-09-13T06:53:58.000Z</time>
      </trkpt>
      <trkpt lat="44.45002" lon="6.99913">
        <ele>1492</ele>
        <time>2024-09-13T06:53:59.000Z</time>
      </trkpt>
      <trkpt lat="44.45001" lon="6.99913">
        <ele>1492.1999511719</ele>
        <time>2024-09-13T06:54:00.000Z</time>
      </trkpt>
      <trkpt lat="44.45" lon="6.99912">
        <ele>1492.4000244141</ele>
        <time>2024-09-13T06:54:01.000Z</time>
      </trkpt>
      <trkpt lat="44.44998" lon="6.99912">
        <ele>1492.5999755859</ele>
        <time>2024-09-13T06:54:02.000Z</time>
      </trkpt>
      <trkpt lat="44.44997" lon="6.99912">
        <ele>1492.8000488281</ele>
        <time>2024-09-13T06:54:03.000Z</time>
      </trkpt>
      <trkpt lat="44.44996" lon="6.99912">
        <ele>1493</ele>
        <time>2024-09-13T06:54:04.000Z</time>
      </trkpt>
      <trkpt lat="44.44996" lon="6.99912">
        <ele>1493.1999511719</ele>
        <time>2024-09-13T06:54:05.000Z</time>
      </trkpt>
      <trkpt lat="44.44995" lon="6.99912">
        <ele>1493.4000244141</ele>
        <time>2024-09-13T06:54:06.000Z</time>
      </trkpt>
      <trkpt lat="44.44994" lon="6.99912">
        <ele>1493.5999755859</ele>
        <time>2024-09-13T06:54:07.000Z</time>
      </trkpt>
      <trkpt lat="44.44993" lon="6.99912">
        <ele>1493.8000488281</ele>
        <time>2024-09-13T06:54:08.000Z</time>
      </trkpt>
      <trkpt lat="44.44992" lon="6.99912">
        <ele>1493.8000488281</ele>
        <time>2024-09-13T06:54:09.000Z</time>
      </trkpt>
      <trkpt lat="44.44991" lon="6.99912">
        <ele>1494</ele>
        <time>2024-09-13T06:54:10.000Z</time>
      </trkpt>
      <trkpt lat="44.44991" lon="6.99912">
        <ele>1494.1999511719</ele>
        <time>2024-09-13T06:54:11.000Z</time>
      </trkpt>
      <trkpt lat="44.4499" lon="6.99912">
        <ele>1494.4000244141</ele>
        <time>2024-09-13T06:54:12.000Z</time>
      </trkpt>
      <trkpt lat="44.44989" lon="6.99912">
        <ele>1494.4000244141</ele>
        <time>2024-09-13T06:54:13.000Z</time>
      </trkpt>
      <trkpt lat="44.44988" lon="6.99913">
        <ele>1494.5999755859</ele>
        <time>2024-09-13T06:54:14.000Z</time>
      </trkpt>
      <trkpt lat="44.44987" lon="6.99913">
        <ele>1494.8000488281</ele>
        <time>2024-09-13T06:54:15.000Z</time>
      </trkpt>
      <trkpt lat="44.44986" lon="6.99914">
        <ele>1495.1999511719</ele>
        <time>2024-09-13T06:54:16.000Z</time>
      </trkpt>
      <trkpt lat="44.44985" lon="6.99914">
        <ele>1495.5999755859</ele>
        <time>2024-09-13T06:54:17.000Z</time>
      </trkpt>
      <trkpt lat="44.44985" lon="6.99914">
        <ele>1495.8000488281</ele>
        <time>2024-09-13T06:54:18.000Z</time>
      </trkpt>
      <trkpt lat="44.44984" lon="6.99915">
        <ele>1496</ele>
        <time>2024-09-13T06:54:19.000Z</time>
      </trkpt>
      <trkpt lat="44.44983" lon="6.99915">
        <ele>1496.1999511719</ele>
        <time>2024-09-13T06:54:20.000Z</time>
      </trkpt>
      <trkpt lat="44.44982" lon="6.99916">
        <ele>1496.4000244141</ele>
        <time>2024-09-13T06:54:21.000Z</time>
      </trkpt>
      <trkpt lat="44.4498" lon="6.99916">
        <ele>1496.5999755859</ele>
        <time>2024-09-13T06:54:22.000Z</time>
      </trkpt>
      <trkpt lat="44.4498" lon="6.99917">
        <ele>1496.5999755859</ele>
        <time>2024-09-13T06:54:23.000Z</time>
      </trkpt>
      <trkpt lat="44.44978" lon="6.99918">
        <ele>1496.5999755859</ele>
        <time>2024-09-13T06:54:24.000Z</time>
      </trkpt>
      <trkpt lat="44.44978" lon="6.99919">
        <ele>1496.5999755859</ele>
        <time>2024-09-13T06:54:25.000Z</time>
      </trkpt>
      <trkpt lat="44.44977" lon="6.9992">
        <ele>1496.8000488281</ele>
        <time>2024-09-13T06:54:26.000Z</time>
      </trkpt>
      <trkpt lat="44.44976" lon="6.99921">
        <ele>1496.8000488281</ele>
        <time>2024-09-13T06:54:27.000Z</time>
      </trkpt>
      <trkpt lat="44.44975" lon="6.99923">
        <ele>1496.5999755859</ele>
        <time>2024-09-13T06:54:28.000Z</time>
      </trkpt>
      <trkpt lat="44.44974" lon="6.99924">
        <ele>1496.5999755859</ele>
        <time>2024-09-13T06:54:29.000Z</time>
      </trkpt>
      <trkpt lat="44.44973" lon="6.99925">
        <ele>1496.5999755859</ele>
        <time>2024-09-13T06:54:30.000Z</time>
      </trkpt>
      <trkpt lat="44.44972" lon="6.99925">
        <ele>1496.5999755859</ele>
        <time>2024-09-13T06:54:31.000Z</time>
      </trkpt>
      <trkpt lat="44.44972" lon="6.99926">
        <ele>1496.5999755859</ele>
        <time>2024-09-13T06:54:32.000Z</time>
      </trkpt>
      <trkpt lat="44.44971" lon="6.99928">
        <ele>1496.5999755859</ele>
        <time>2024-09-13T06:54:33.000Z</time>
      </trkpt>
      <trkpt lat="44.4497" lon="6.99929">
        <ele>1496.5999755859</ele>
        <time>2024-09-13T06:54:34.000Z</time>
      </trkpt>
      <trkpt lat="44.4497" lon="6.99929">
        <ele>1496.5999755859</ele>
        <time>2024-09-13T06:54:35.000Z</time>
      </trkpt>
      <trkpt lat="44.44969" lon="6.9993">
        <ele>1496.5999755859</ele>
        <time>2024-09-13T06:54:36.000Z</time>
      </trkpt>
      <trkpt lat="44.44968" lon="6.99931">
        <ele>1496.5999755859</ele>
        <time>2024-09-13T06:54:37.000Z</time>
      </trkpt>
      <trkpt lat="44.44967" lon="6.99932">
        <ele>1496.8000488281</ele>
        <time>2024-09-13T06:54:38.000Z</time>
      </trkpt>
      <trkpt lat="44.44967" lon="6.99932">
        <ele>1496.8000488281</ele>
        <time>2024-09-13T06:54:39.000Z</time>
      </trkpt>
      <trkpt lat="44.44966" lon="6.99933">
        <ele>1496.8000488281</ele>
        <time>2024-09-13T06:54:40.000Z</time>
      </trkpt>
      <trkpt lat="44.44966" lon="6.99933">
        <ele>1496.8000488281</ele>
        <time>2024-09-13T06:54:41.000Z</time>
      </trkpt>
      <trkpt lat="44.44965" lon="6.99935">
        <ele>1496.8000488281</ele>
        <time>2024-09-13T06:54:43.000Z</time>
      </trkpt>
      <trkpt lat="44.44963" lon="6.99935">
        <ele>1496.8000488281</ele>
        <time>2024-09-13T06:54:45.000Z</time>
      </trkpt>
      <trkpt lat="44.44961" lon="6.99936">
        <ele>1496.8000488281</ele>
        <time>2024-09-13T06:54:46.000Z</time>
      </trkpt>
      <trkpt lat="44.44961" lon="6.99936">
        <ele>1497</ele>
        <time>2024-09-13T06:54:47.000Z</time>
      </trkpt>
      <trkpt lat="44.44959" lon="6.99937">
        <ele>1497</ele>
        <time>2024-09-13T06:54:49.000Z</time>
      </trkpt>
      <trkpt lat="44.44958" lon="6.99937">
        <ele>1497.1999511719</ele>
        <time>2024-09-13T06:54:50.000Z</time>
      </trkpt>
      <trkpt lat="44.44957" lon="6.99938">
        <ele>1497.4000244141</ele>
        <time>2024-09-13T06:54:51.000Z</time>
      </trkpt>
      <trkpt lat="44.44953" lon="6.99939">
        <ele>1497.5999755859</ele>
        <time>2024-09-13T06:54:54.000Z</time>
      </trkpt>
      <trkpt lat="44.44952" lon="6.99939">
        <ele>1497.8000488281</ele>
        <time>2024-09-13T06:54:55.000Z</time>
      </trkpt>
      <trkpt lat="44.44951" lon="6.99939">
        <ele>1497.8000488281</ele>
        <time>2024-09-13T06:54:56.000Z</time>
      </trkpt>
      <trkpt lat="44.4495" lon="6.99939">
        <ele>1497.8000488281</ele>
        <time>2024-09-13T06:54:57.000Z</time>
      </trkpt>
      <trkpt lat="44.44949" lon="6.9994">
        <ele>1497.8000488281</ele>
        <time>2024-09-13T06:54:58.000Z</time>
      </trkpt>
      <trkpt lat="44.44947" lon="6.9994">
        <ele>1498.1999511719</ele>
        <time>2024-09-13T06:55:00.000Z</time>
      </trkpt>
      <trkpt lat="44.44946" lon="6.9994">
        <ele>1498.1999511719</ele>
        <time>2024-09-13T06:55:01.000Z</time>
      </trkpt>
      <trkpt lat="44.44943" lon="6.9994">
        <ele>1498.5999755859</ele>
        <time>2024-09-13T06:55:03.000Z</time>
      </trkpt>
      <trkpt lat="44.44941" lon="6.9994">
        <ele>1499</ele>
        <time>2024-09-13T06:55:05.000Z</time>
      </trkpt>
      <trkpt lat="44.4494" lon="6.9994">
        <ele>1499</ele>
        <time>2024-09-13T06:55:06.000Z</time>
      </trkpt>
      <trkpt lat="44.44939" lon="6.9994">
        <ele>1499.1999511719</ele>
        <time>2024-09-13T06:55:07.000Z</time>
      </trkpt>
      <trkpt lat="44.44937" lon="6.99939">
        <ele>1499.5999755859</ele>
        <time>2024-09-13T06:55:09.000Z</time>
      </trkpt>
      <trkpt lat="44.44936" lon="6.99939">
        <ele>1499.5999755859</ele>
        <time>2024-09-13T06:55:10.000Z</time>
      </trkpt>
      <trkpt lat="44.44935" lon="6.99939">
        <ele>1499.8000488281</ele>
        <time>2024-09-13T06:55:11.000Z</time>
      </trkpt>
      <trkpt lat="44.44933" lon="6.99938">
        <ele>1500</ele>
        <time>2024-09-13T06:55:13.000Z</time>
      </trkpt>
      <trkpt lat="44.44932" lon="6.99938">
        <ele>1500</ele>
        <time>2024-09-13T06:55:14.000Z</time>
      </trkpt>
      <trkpt lat="44.4493" lon="6.99937">
        <ele>1500</ele>
        <time>2024-09-13T06:55:15.000Z</time>
      </trkpt>
      <trkpt lat="44.44929" lon="6.99937">
        <ele>1500</ele>
        <time>2024-09-13T06:55:16.000Z</time>
      </trkpt>
      <trkpt lat="44.44927" lon="6.99937">
        <ele>1500</ele>
        <time>2024-09-13T06:55:17.000Z</time>
      </trkpt>
      <trkpt lat="44.44925" lon="6.99938">
        <ele>1500</ele>
        <time>2024-09-13T06:55:18.000Z</time>
      </trkpt>
      <trkpt lat="44.44923" lon="6.99938">
        <ele>1499.8000488281</ele>
        <time>2024-09-13T06:55:19.000Z</time>
      </trkpt>
      <trkpt lat="44.44922" lon="6.99939">
        <ele>1499.8000488281</ele>
        <time>2024-09-13T06:55:20.000Z</time>
      </trkpt>
      <trkpt lat="44.44922" lon="6.99939">
        <ele>1499.8000488281</ele>
        <time>2024-09-13T06:55:21.000Z</time>
      </trkpt>
      <trkpt lat="44.44919" lon="6.99939">
        <ele>1499.8000488281</ele>
        <time>2024-09-13T06:55:22.000Z</time>
      </trkpt>
      <trkpt lat="44.44918" lon="6.99939">
        <ele>1499.8000488281</ele>
        <time>2024-09-13T06:55:23.000Z</time>
      </trkpt>
      <trkpt lat="44.44917" lon="6.99939">
        <ele>1500</ele>
        <time>2024-09-13T06:55:24.000Z</time>
      </trkpt>
      <trkpt lat="44.44915" lon="6.99938">
        <ele>1500</ele>
        <time>2024-09-13T06:55:25.000Z</time>
      </trkpt>
      <trkpt lat="44.44911" lon="6.99938">
        <ele>1500.5999755859</ele>
        <time>2024-09-13T06:55:29.000Z</time>
      </trkpt>
      <trkpt lat="44.4491" lon="6.99938">
        <ele>1500.5999755859</ele>
        <time>2024-09-13T06:55:30.000Z</time>
      </trkpt>
      <trkpt lat="44.4491" lon="6.99937">
        <ele>1500.4000244141</ele>
        <time>2024-09-13T06:55:31.000Z</time>
      </trkpt>
      <trkpt lat="44.4491" lon="6.99937">
        <ele>1500.4000244141</ele>
        <time>2024-09-13T06:55:32.000Z</time>
      </trkpt>
      <trkpt lat="44.4491" lon="6.99936">
        <ele>1500.4000244141</ele>
        <time>2024-09-13T06:55:44.000Z</time>
      </trkpt>
      <trkpt lat="44.4491" lon="6.99935">
        <ele>1500.4000244141</ele>
        <time>2024-09-13T06:55:45.000Z</time>
      </trkpt>
      <trkpt lat="44.4491" lon="6.99935">
        <ele>1500.1999511719</ele>
        <time>2024-09-13T06:55:46.000Z</time>
      </trkpt>
      <trkpt lat="44.4491" lon="6.99935">
        <ele>1500.1999511719</ele>
        <time>2024-09-13T06:55:47.000Z</time>
      </trkpt>
      <trkpt lat="44.4491" lon="6.99935">
        <ele>1500.1999511719</ele>
        <time>2024-09-13T06:55:49.000Z</time>
      </trkpt>
      <trkpt lat="44.44908" lon="6.99933">
        <ele>1500</ele>
        <time>2024-09-13T06:55:52.000Z</time>
      </trkpt>
      <trkpt lat="44.44908" lon="6.99933">
        <ele>1500</ele>
        <time>2024-09-13T06:55:53.000Z</time>
      </trkpt>
      <trkpt lat="44.44909" lon="6.99933">
        <ele>1500.1999511719</ele>
        <time>2024-09-13T06:55:58.000Z</time>
      </trkpt>
      <trkpt lat="44.44909" lon="6.99933">
        <ele>1500</ele>
        <time>2024-09-13T06:56:10.000Z</time>
      </trkpt>
      <trkpt lat="44.4491" lon="6.99936">
        <ele>1500</ele>
        <time>2024-09-13T06:56:12.000Z</time>
      </trkpt>
      <trkpt lat="44.4491" lon="6.99935">
        <ele>1500</ele>
        <time>2024-09-13T06:56:15.000Z</time>
      </trkpt>
      <trkpt lat="44.4491" lon="6.99935">
        <ele>1500.1999511719</ele>
        <time>2024-09-13T06:56:22.000Z</time>
      </trkpt>
      <trkpt lat="44.4491" lon="6.99935">
        <ele>1500.1999511719</ele>
        <time>2024-09-13T06:56:24.000Z</time>
      </trkpt>
      <trkpt lat="44.4491" lon="6.99936">
        <ele>1500.5999755859</ele>
        <time>2024-09-13T06:56:33.000Z</time>
      </trkpt>
      <trkpt lat="44.4491" lon="6.99935">
        <ele>1500.8000488281</ele>
        <time>2024-09-13T06:56:35.000Z</time>
      </trkpt>
      <trkpt lat="44.44909" lon="6.99935">
        <ele>1500.8000488281</ele>
        <time>2024-09-13T06:56:45.000Z</time>
      </trkpt>
      <trkpt lat="44.44909" lon="6.99935">
        <ele>1501.1999511719</ele>
        <time>2024-09-13T06:56:54.000Z</time>
      </trkpt>
      <trkpt lat="44.44911" lon="6.99933">
        <ele>1501.1999511719</ele>
        <time>2024-09-13T06:57:04.000Z</time>
      </trkpt>
      <trkpt lat="44.44911" lon="6.99934">
        <ele>1501.1999511719</ele>
        <time>2024-09-13T06:57:09.000Z</time>
      </trkpt>
      <trkpt lat="44.44911" lon="6.99936">
        <ele>1501.1999511719</ele>
        <time>2024-09-13T06:57:11.000Z</time>
      </trkpt>
      <trkpt lat="44.44913" lon="6.99937">
        <ele>1501.1999511719</ele>
        <time>2024-09-13T06:57:16.000Z</time>
      </trkpt>
      <trkpt lat="44.44915" lon="6.99937">
        <ele>1501.4000244141</ele>
        <time>2024-09-13T06:57:17.000Z</time>
      </trkpt>
      <trkpt lat="44.4492" lon="6.99937">
        <ele>1501.1999511719</ele>
        <time>2024-09-13T06:57:19.000Z</time>
      </trkpt>
      <trkpt lat="44.44923" lon="6.99936">
        <ele>1501.1999511719</ele>
        <time>2024-09-13T06:57:20.000Z</time>
      </trkpt>
      <trkpt lat="44.44937" lon="6.99938">
        <ele>1500.4000244141</ele>
        <time>2024-09-13T06:57:24.000Z</time>
      </trkpt>
      <trkpt lat="44.44958" lon="6.99936">
        <ele>1499.4000244141</ele>
        <time>2024-09-13T06:57:29.000Z</time>
      </trkpt>
      <trkpt lat="44.44962" lon="6.99934">
        <ele>1498.8000488281</ele>
        <time>2024-09-13T06:57:30.000Z</time>
      </trkpt>
      <trkpt lat="44.44966" lon="6.99932">
        <ele>1498.1999511719</ele>
        <time>2024-09-13T06:57:31.000Z</time>
      </trkpt>
      <trkpt lat="44.4497" lon="6.99929">
        <ele>1498</ele>
        <time>2024-09-13T06:57:32.000Z</time>
      </trkpt>
      <trkpt lat="44.44973" lon="6.99924">
        <ele>1497.5999755859</ele>
        <time>2024-09-13T06:57:33.000Z</time>
      </trkpt>
      <trkpt lat="44.44975" lon="6.9992">
        <ele>1497.1999511719</ele>
        <time>2024-09-13T06:57:34.000Z</time>
      </trkpt>
      <trkpt lat="44.44978" lon="6.99915">
        <ele>1496</ele>
        <time>2024-09-13T06:57:35.000Z</time>
      </trkpt>
      <trkpt lat="44.44981" lon="6.99911">
        <ele>1495.8000488281</ele>
        <time>2024-09-13T06:57:36.000Z</time>
      </trkpt>
      <trkpt lat="44.44984" lon="6.99906">
        <ele>1495.8000488281</ele>
        <time>2024-09-13T06:57:37.000Z</time>
      </trkpt>
      <trkpt lat="44.44987" lon="6.99903">
        <ele>1495.8000488281</ele>
        <time>2024-09-13T06:57:38.000Z</time>
      </trkpt>
      <trkpt lat="44.44991" lon="6.99901">
        <ele>1495.8000488281</ele>
        <time>2024-09-13T06:57:39.000Z</time>
      </trkpt>
      <trkpt lat="44.44995" lon="6.99899">
        <ele>1495.8000488281</ele>
        <time>2024-09-13T06:57:40.000Z</time>
      </trkpt>
      <trkpt lat="44.44998" lon="6.99896">
        <ele>1496.1999511719</ele>
        <time>2024-09-13T06:57:41.000Z</time>
      </trkpt>
      <trkpt lat="44.45002" lon="6.99893">
        <ele>1496.4000244141</ele>
        <time>2024-09-13T06:57:42.000Z</time>
      </trkpt>
      <trkpt lat="44.45005" lon="6.99891">
        <ele>1496.4000244141</ele>
        <time>2024-09-13T06:57:43.000Z</time>
      </trkpt>
      <trkpt lat="44.45008" lon="6.99888">
        <ele>1496.4000244141</ele>
        <time>2024-09-13T06:57:44.000Z</time>
      </trkpt>
      <trkpt lat="44.45012" lon="6.99886">
        <ele>1496.4000244141</ele>
        <time>2024-09-13T06:57:45.000Z</time>
      </trkpt>
      <trkpt lat="44.45015" lon="6.99882">
        <ele>1496.1999511719</ele>
        <time>2024-09-13T06:57:46.000Z</time>
      </trkpt>
      <trkpt lat="44.45032" lon="6.99864">
        <ele>1495.4000244141</ele>
        <time>2024-09-13T06:57:51.000Z</time>
      </trkpt>
      <trkpt lat="44.45053" lon="6.9983">
        <ele>1495.1999511719</ele>
        <time>2024-09-13T06:57:59.000Z</time>
      </trkpt>
      <trkpt lat="44.45055" lon="6.99825">
        <ele>1495.1999511719</ele>
        <time>2024-09-13T06:58:00.000Z</time>
      </trkpt>
      <trkpt lat="44.45058" lon="6.99821">
        <ele>1495.1999511719</ele>
        <time>2024-09-13T06:58:01.000Z</time>
      </trkpt>
      <trkpt lat="44.4506" lon="6.99818">
        <ele>1495.1999511719</ele>
        <time>2024-09-13T06:58:02.000Z</time>
      </trkpt>
      <trkpt lat="44.45063" lon="6.99814">
        <ele>1495.5999755859</ele>
        <time>2024-09-13T06:58:03.000Z</time>
      </trkpt>
      <trkpt lat="44.45069" lon="6.99806">
        <ele>1495.8000488281</ele>
        <time>2024-09-13T06:58:05.000Z</time>
      </trkpt>
      <trkpt lat="44.45072" lon="6.99804">
        <ele>1496</ele>
        <time>2024-09-13T06:58:06.000Z</time>
      </trkpt>
      <trkpt lat="44.45076" lon="6.99802">
        <ele>1496.1999511719</ele>
        <time>2024-09-13T06:58:07.000Z</time>
      </trkpt>
      <trkpt lat="44.45079" lon="6.99801">
        <ele>1496.4000244141</ele>
        <time>2024-09-13T06:58:08.000Z</time>
      </trkpt>
      <trkpt lat="44.45083" lon="6.998">
        <ele>1496.8000488281</ele>
        <time>2024-09-13T06:58:09.000Z</time>
      </trkpt>
      <trkpt lat="44.45087" lon="6.99801">
        <ele>1496.8000488281</ele>
        <time>2024-09-13T06:58:10.000Z</time>
      </trkpt>
      <trkpt lat="44.45091" lon="6.99801">
        <ele>1496.8000488281</ele>
        <time>2024-09-13T06:58:11.000Z</time>
      </trkpt>
      <trkpt lat="44.45094" lon="6.998">
        <ele>1497</ele>
        <time>2024-09-13T06:58:12.000Z</time>
      </trkpt>
      <trkpt lat="44.45098" lon="6.998">
        <ele>1497.4000244141</ele>
        <time>2024-09-13T06:58:13.000Z</time>
      </trkpt>
      <trkpt lat="44.45105" lon="6.99799">
        <ele>1497.8000488281</ele>
        <time>2024-09-13T06:58:15.000Z</time>
      </trkpt>
      <trkpt lat="44.45113" lon="6.998">
        <ele>1498</ele>
        <time>2024-09-13T06:58:17.000Z</time>
      </trkpt>
      <trkpt lat="44.45117" lon="6.99801">
        <ele>1498.1999511719</ele>
        <time>2024-09-13T06:58:18.000Z</time>
      </trkpt>
      <trkpt lat="44.4512" lon="6.998">
        <ele>1498.5999755859</ele>
        <time>2024-09-13T06:58:19.000Z</time>
      </trkpt>
      <trkpt lat="44.45124" lon="6.998">
        <ele>1499</ele>
        <time>2024-09-13T06:58:20.000Z</time>
      </trkpt>
      <trkpt lat="44.45127" lon="6.998">
        <ele>1499.1999511719</ele>
        <time>2024-09-13T06:58:21.000Z</time>
      </trkpt>
      <trkpt lat="44.45131" lon="6.998">
        <ele>1499.4000244141</ele>
        <time>2024-09-13T06:58:22.000Z</time>
      </trkpt>
      <trkpt lat="44.45135" lon="6.998">
        <ele>1499.4000244141</ele>
        <time>2024-09-13T06:58:23.000Z</time>
      </trkpt>
      <trkpt lat="44.45138" lon="6.99799">
        <ele>1499.5999755859</ele>
        <time>2024-09-13T06:58:24.000Z</time>
      </trkpt>
      <trkpt lat="44.45142" lon="6.99799">
        <ele>1499.5999755859</ele>
        <time>2024-09-13T06:58:25.000Z</time>
      </trkpt>
      <trkpt lat="44.45146" lon="6.99798">
        <ele>1499.5999755859</ele>
        <time>2024-09-13T06:58:26.000Z</time>
      </trkpt>
      <trkpt lat="44.45149" lon="6.99798">
        <ele>1499.8000488281</ele>
        <time>2024-09-13T06:58:27.000Z</time>
      </trkpt>
      <trkpt lat="44.45153" lon="6.99798">
        <ele>1499.8000488281</ele>
        <time>2024-09-13T06:58:28.000Z</time>
      </trkpt>
      <trkpt lat="44.45157" lon="6.99798">
        <ele>1500</ele>
        <time>2024-09-13T06:58:29.000Z</time>
      </trkpt>
      <trkpt lat="44.45161" lon="6.99797">
        <ele>1500</ele>
        <time>2024-09-13T06:58:30.000Z</time>
      </trkpt>
      <trkpt lat="44.45164" lon="6.99797">
        <ele>1500.1999511719</ele>
        <time>2024-09-13T06:58:31.000Z</time>
      </trkpt>
      <trkpt lat="44.45167" lon="6.99796">
        <ele>1500.4000244141</ele>
        <time>2024-09-13T06:58:32.000Z</time>
      </trkpt>
      <trkpt lat="44.4517" lon="6.99796">
        <ele>1500.4000244141</ele>
        <time>2024-09-13T06:58:33.000Z</time>
      </trkpt>
      <trkpt lat="44.45172" lon="6.99796">
        <ele>1500.8000488281</ele>
        <time>2024-09-13T06:58:34.000Z</time>
      </trkpt>
      <trkpt lat="44.45175" lon="6.99795">
        <ele>1501.1999511719</ele>
        <time>2024-09-13T06:58:35.000Z</time>
      </trkpt>
      <trkpt lat="44.45177" lon="6.99794">
        <ele>1501.1999511719</ele>
        <time>2024-09-13T06:58:36.000Z</time>
      </trkpt>
      <trkpt lat="44.45179" lon="6.99793">
        <ele>1501.5999755859</ele>
        <time>2024-09-13T06:58:37.000Z</time>
      </trkpt>
      <trkpt lat="44.45179" lon="6.9979">
        <ele>1501.8000488281</ele>
        <time>2024-09-13T06:58:38.000Z</time>
      </trkpt>
      <trkpt lat="44.45179" lon="6.99788">
        <ele>1501.8000488281</ele>
        <time>2024-09-13T06:58:39.000Z</time>
      </trkpt>
      <trkpt lat="44.45177" lon="6.99786">
        <ele>1501.8000488281</ele>
        <time>2024-09-13T06:58:40.000Z</time>
      </trkpt>
      <trkpt lat="44.45175" lon="6.99786">
        <ele>1501.8000488281</ele>
        <time>2024-09-13T06:58:41.000Z</time>
      </trkpt>
      <trkpt lat="44.45173" lon="6.99786">
        <ele>1502</ele>
        <time>2024-09-13T06:58:42.000Z</time>
      </trkpt>
      <trkpt lat="44.45171" lon="6.99786">
        <ele>1502.1999511719</ele>
        <time>2024-09-13T06:58:43.000Z</time>
      </trkpt>
      <trkpt lat="44.45169" lon="6.99785">
        <ele>1502.4000244141</ele>
        <time>2024-09-13T06:58:44.000Z</time>
      </trkpt>
      <trkpt lat="44.45168" lon="6.99785">
        <ele>1502.5999755859</ele>
        <time>2024-09-13T06:58:45.000Z</time>
      </trkpt>
      <trkpt lat="44.45166" lon="6.99783">
        <ele>1502.8000488281</ele>
        <time>2024-09-13T06:58:46.000Z</time>
      </trkpt>
      <trkpt lat="44.45164" lon="6.99783">
        <ele>1503</ele>
        <time>2024-09-13T06:58:47.000Z</time>
      </trkpt>
      <trkpt lat="44.45162" lon="6.99782">
        <ele>1503</ele>
        <time>2024-09-13T06:58:48.000Z</time>
      </trkpt>
      <trkpt lat="44.4516" lon="6.99782">
        <ele>1503.4000244141</ele>
        <time>2024-09-13T06:58:49.000Z</time>
      </trkpt>
      <trkpt lat="44.45158" lon="6.99781">
        <ele>1504</ele>
        <time>2024-09-13T06:58:50.000Z</time>
      </trkpt>
      <trkpt lat="44.45156" lon="6.9978">
        <ele>1504.4000244141</ele>
        <time>2024-09-13T06:58:51.000Z</time>
      </trkpt>
      <trkpt lat="44.45155" lon="6.99779">
        <ele>1504.5999755859</ele>
        <time>2024-09-13T06:58:52.000Z</time>
      </trkpt>
      <trkpt lat="44.45153" lon="6.99778">
        <ele>1504.8000488281</ele>
        <time>2024-09-13T06:58:53.000Z</time>
      </trkpt>
      <trkpt lat="44.45152" lon="6.99777">
        <ele>1504.8000488281</ele>
        <time>2024-09-13T06:58:54.000Z</time>
      </trkpt>
      <trkpt lat="44.4515" lon="6.99777">
        <ele>1505</ele>
        <time>2024-09-13T06:58:55.000Z</time>
      </trkpt>
      <trkpt lat="44.45149" lon="6.99776">
        <ele>1505.1999511719</ele>
        <time>2024-09-13T06:58:56.000Z</time>
      </trkpt>
      <trkpt lat="44.45147" lon="6.99775">
        <ele>1505.1999511719</ele>
        <time>2024-09-13T06:58:57.000Z</time>
      </trkpt>
      <trkpt lat="44.45145" lon="6.99774">
        <ele>1505.4000244141</ele>
        <time>2024-09-13T06:58:58.000Z</time>
      </trkpt>
      <trkpt lat="44.45144" lon="6.99773">
        <ele>1505.8000488281</ele>
        <time>2024-09-13T06:58:59.000Z</time>
      </trkpt>
      <trkpt lat="44.45142" lon="6.99772">
        <ele>1506.1999511719</ele>
        <time>2024-09-13T06:59:00.000Z</time>
      </trkpt>
      <trkpt lat="44.4514" lon="6.99772">
        <ele>1506.1999511719</ele>
        <time>2024-09-13T06:59:01.000Z</time>
      </trkpt>
      <trkpt lat="44.45139" lon="6.99771">
        <ele>1506.5999755859</ele>
        <time>2024-09-13T06:59:02.000Z</time>
      </trkpt>
      <trkpt lat="44.45136" lon="6.99771">
        <ele>1506.8000488281</ele>
        <time>2024-09-13T06:59:03.000Z</time>
      </trkpt>
      <trkpt lat="44.45134" lon="6.9977">
        <ele>1507</ele>
        <time>2024-09-13T06:59:04.000Z</time>
      </trkpt>
      <trkpt lat="44.45133" lon="6.9977">
        <ele>1507.1999511719</ele>
        <time>2024-09-13T06:59:05.000Z</time>
      </trkpt>
      <trkpt lat="44.45131" lon="6.99769">
        <ele>1507.4000244141</ele>
        <time>2024-09-13T06:59:06.000Z</time>
      </trkpt>
      <trkpt lat="44.45129" lon="6.99768">
        <ele>1507.5999755859</ele>
        <time>2024-09-13T06:59:07.000Z</time>
      </trkpt>
      <trkpt lat="44.45127" lon="6.99767">
        <ele>1507.5999755859</ele>
        <time>2024-09-13T06:59:08.000Z</time>
      </trkpt>
      <trkpt lat="44.45125" lon="6.99767">
        <ele>1507.8000488281</ele>
        <time>2024-09-13T06:59:09.000Z</time>
      </trkpt>
      <trkpt lat="44.45124" lon="6.99766">
        <ele>1508</ele>
        <time>2024-09-13T06:59:10.000Z</time>
      </trkpt>
      <trkpt lat="44.45123" lon="6.99766">
        <ele>1508.1999511719</ele>
        <time>2024-09-13T06:59:11.000Z</time>
      </trkpt>
      <trkpt lat="44.45122" lon="6.99766">
        <ele>1508.4000244141</ele>
        <time>2024-09-13T06:59:12.000Z</time>
      </trkpt>
      <trkpt lat="44.4512" lon="6.99766">
        <ele>1508.5999755859</ele>
        <time>2024-09-13T06:59:13.000Z</time>
      </trkpt>
      <trkpt lat="44.4512" lon="6.99766">
        <ele>1508.8000488281</ele>
        <time>2024-09-13T06:59:14.000Z</time>
      </trkpt>
      <trkpt lat="44.45118" lon="6.99766">
        <ele>1509</ele>
        <time>2024-09-13T06:59:15.000Z</time>
      </trkpt>
      <trkpt lat="44.45117" lon="6.99766">
        <ele>1509.1999511719</ele>
        <time>2024-09-13T06:59:16.000Z</time>
      </trkpt>
      <trkpt lat="44.45116" lon="6.99766">
        <ele>1509.4000244141</ele>
        <time>2024-09-13T06:59:17.000Z</time>
      </trkpt>
      <trkpt lat="44.45115" lon="6.99766">
        <ele>1509.4000244141</ele>
        <time>2024-09-13T06:59:18.000Z</time>
      </trkpt>
      <trkpt lat="44.45114" lon="6.99766">
        <ele>1509.5999755859</ele>
        <time>2024-09-13T06:59:19.000Z</time>
      </trkpt>
      <trkpt lat="44.45113" lon="6.99766">
        <ele>1510</ele>
        <time>2024-09-13T06:59:20.000Z</time>
      </trkpt>
      <trkpt lat="44.45112" lon="6.99766">
        <ele>1510</ele>
        <time>2024-09-13T06:59:21.000Z</time>
      </trkpt>
      <trkpt lat="44.45111" lon="6.99766">
        <ele>1510.1999511719</ele>
        <time>2024-09-13T06:59:22.000Z</time>
      </trkpt>
      <trkpt lat="44.4511" lon="6.99766">
        <ele>1510.4000244141</ele>
        <time>2024-09-13T06:59:23.000Z</time>
      </trkpt>
      <trkpt lat="44.45109" lon="6.99766">
        <ele>1510.4000244141</ele>
        <time>2024-09-13T06:59:24.000Z</time>
      </trkpt>
      <trkpt lat="44.45107" lon="6.99767">
        <ele>1510.5999755859</ele>
        <time>2024-09-13T06:59:25.000Z</time>
      </trkpt>
      <trkpt lat="44.45106" lon="6.99767">
        <ele>1510.5999755859</ele>
        <time>2024-09-13T06:59:26.000Z</time>
      </trkpt>
      <trkpt lat="44.45105" lon="6.99768">
        <ele>1510.8000488281</ele>
        <time>2024-09-13T06:59:27.000Z</time>
      </trkpt>
      <trkpt lat="44.45103" lon="6.99768">
        <ele>1511.1999511719</ele>
        <time>2024-09-13T06:59:28.000Z</time>
      </trkpt>
      <trkpt lat="44.45102" lon="6.99768">
        <ele>1511.1999511719</ele>
        <time>2024-09-13T06:59:29.000Z</time>
      </trkpt>
      <trkpt lat="44.45101" lon="6.99767">
        <ele>1511.4000244141</ele>
        <time>2024-09-13T06:59:30.000Z</time>
      </trkpt>
      <trkpt lat="44.45099" lon="6.99767">
        <ele>1511.5999755859</ele>
        <time>2024-09-13T06:59:31.000Z</time>
      </trkpt>
      <trkpt lat="44.45097" lon="6.99767">
        <ele>1511.8000488281</ele>
        <time>2024-09-13T06:59:32.000Z</time>
      </trkpt>
      <trkpt lat="44.45096" lon="6.99767">
        <ele>1512</ele>
        <time>2024-09-13T06:59:33.000Z</time>
      </trkpt>
      <trkpt lat="44.45094" lon="6.99766">
        <ele>1512</ele>
        <time>2024-09-13T06:59:34.000Z</time>
      </trkpt>
      <trkpt lat="44.45093" lon="6.99766">
        <ele>1512</ele>
        <time>2024-09-13T06:59:35.000Z</time>
      </trkpt>
      <trkpt lat="44.45092" lon="6.99766">
        <ele>1512.1999511719</ele>
        <time>2024-09-13T06:59:36.000Z</time>
      </trkpt>
      <trkpt lat="44.4509" lon="6.99766">
        <ele>1512.4000244141</ele>
        <time>2024-09-13T06:59:37.000Z</time>
      </trkpt>
      <trkpt lat="44.45089" lon="6.99766">
        <ele>1512.5999755859</ele>
        <time>2024-09-13T06:59:38.000Z</time>
      </trkpt>
      <trkpt lat="44.45088" lon="6.99766">
        <ele>1512.5999755859</ele>
        <time>2024-09-13T06:59:39.000Z</time>
      </trkpt>
      <trkpt lat="44.45087" lon="6.99766">
        <ele>1513</ele>
        <time>2024-09-13T06:59:40.000Z</time>
      </trkpt>
      <trkpt lat="44.45086" lon="6.99767">
        <ele>1513</ele>
        <time>2024-09-13T06:59:41.000Z</time>
      </trkpt>
      <trkpt lat="44.45084" lon="6.99767">
        <ele>1513.1999511719</ele>
        <time>2024-09-13T06:59:42.000Z</time>
      </trkpt>
      <trkpt lat="44.45083" lon="6.99766">
        <ele>1513.4000244141</ele>
        <time>2024-09-13T06:59:43.000Z</time>
      </trkpt>
      <trkpt lat="44.45081" lon="6.99766">
        <ele>1513.4000244141</ele>
        <time>2024-09-13T06:59:44.000Z</time>
      </trkpt>
      <trkpt lat="44.4508" lon="6.99767">
        <ele>1513.4000244141</ele>
        <time>2024-09-13T06:59:45.000Z</time>
      </trkpt>
      <trkpt lat="44.45078" lon="6.99767">
        <ele>1513.5999755859</ele>
        <time>2024-09-13T06:59:46.000Z</time>
      </trkpt>
      <trkpt lat="44.45077" lon="6.99768">
        <ele>1513.8000488281</ele>
        <time>2024-09-13T06:59:47.000Z</time>
      </trkpt>
      <trkpt lat="44.45075" lon="6.99768">
        <ele>1514</ele>
        <time>2024-09-13T06:59:48.000Z</time>
      </trkpt>
      <trkpt lat="44.45074" lon="6.99769">
        <ele>1514.1999511719</ele>
        <time>2024-09-13T06:59:49.000Z</time>
      </trkpt>
      <trkpt lat="44.45073" lon="6.99769">
        <ele>1514.4000244141</ele>
        <time>2024-09-13T06:59:50.000Z</time>
      </trkpt>
      <trkpt lat="44.45071" lon="6.9977">
        <ele>1514.4000244141</ele>
        <time>2024-09-13T06:59:51.000Z</time>
      </trkpt>
      <trkpt lat="44.4507" lon="6.99771">
        <ele>1514.8000488281</ele>
        <time>2024-09-13T06:59:52.000Z</time>
      </trkpt>
      <trkpt lat="44.45069" lon="6.99771">
        <ele>1515</ele>
        <time>2024-09-13T06:59:53.000Z</time>
      </trkpt>
      <trkpt lat="44.45068" lon="6.99771">
        <ele>1515</ele>
        <time>2024-09-13T06:59:54.000Z</time>
      </trkpt>
      <trkpt lat="44.45067" lon="6.99772">
        <ele>1515.1999511719</ele>
        <time>2024-09-13T06:59:55.000Z</time>
      </trkpt>
      <trkpt lat="44.45066" lon="6.99773">
        <ele>1515.4000244141</ele>
        <time>2024-09-13T06:59:56.000Z</time>
      </trkpt>
      <trkpt lat="44.45065" lon="6.99773">
        <ele>1515.4000244141</ele>
        <time>2024-09-13T06:59:57.000Z</time>
      </trkpt>
      <trkpt lat="44.45063" lon="6.99774">
        <ele>1515.5999755859</ele>
        <time>2024-09-13T06:59:58.000Z</time>
      </trkpt>
      <trkpt lat="44.45062" lon="6.99775">
        <ele>1515.5999755859</ele>
        <time>2024-09-13T06:59:59.000Z</time>
      </trkpt>
      <trkpt lat="44.45061" lon="6.99776">
        <ele>1515.8000488281</ele>
        <time>2024-09-13T07:00:00.000Z</time>
      </trkpt>
      <trkpt lat="44.4506" lon="6.99776">
        <ele>1516</ele>
        <time>2024-09-13T07:00:01.000Z</time>
      </trkpt>
      <trkpt lat="44.45058" lon="6.99776">
        <ele>1516.1999511719</ele>
        <time>2024-09-13T07:00:02.000Z</time>
      </trkpt>
      <trkpt lat="44.45057" lon="6.99777">
        <ele>1516.1999511719</ele>
        <time>2024-09-13T07:00:03.000Z</time>
      </trkpt>
      <trkpt lat="44.45055" lon="6.99778">
        <ele>1516.4000244141</ele>
        <time>2024-09-13T07:00:04.000Z</time>
      </trkpt>
      <trkpt lat="44.45054" lon="6.99779">
        <ele>1516.8000488281</ele>
        <time>2024-09-13T07:00:05.000Z</time>
      </trkpt>
      <trkpt lat="44.45052" lon="6.99779">
        <ele>1516.8000488281</ele>
        <time>2024-09-13T07:00:06.000Z</time>
      </trkpt>
      <trkpt lat="44.45051" lon="6.9978">
        <ele>1517</ele>
        <time>2024-09-13T07:00:07.000Z</time>
      </trkpt>
      <trkpt lat="44.4505" lon="6.99781">
        <ele>1517.1999511719</ele>
        <time>2024-09-13T07:00:08.000Z</time>
      </trkpt>
      <trkpt lat="44.45049" lon="6.99781">
        <ele>1517.1999511719</ele>
        <time>2024-09-13T07:00:09.000Z</time>
      </trkpt>
      <trkpt lat="44.45048" lon="6.99782">
        <ele>1517.4000244141</ele>
        <time>2024-09-13T07:00:10.000Z</time>
      </trkpt>
      <trkpt lat="44.45046" lon="6.99782">
        <ele>1517.5999755859</ele>
        <time>2024-09-13T07:00:11.000Z</time>
      </trkpt>
      <trkpt lat="44.45045" lon="6.99783">
        <ele>1517.5999755859</ele>
        <time>2024-09-13T07:00:12.000Z</time>
      </trkpt>
      <trkpt lat="44.45044" lon="6.99783">
        <ele>1517.8000488281</ele>
        <time>2024-09-13T07:00:13.000Z</time>
      </trkpt>
      <trkpt lat="44.45043" lon="6.99784">
        <ele>1518</ele>
        <time>2024-09-13T07:00:14.000Z</time>
      </trkpt>
      <trkpt lat="44.45042" lon="6.99784">
        <ele>1518.1999511719</ele>
        <time>2024-09-13T07:00:15.000Z</time>
      </trkpt>
      <trkpt lat="44.4504" lon="6.99784">
        <ele>1518.1999511719</ele>
        <time>2024-09-13T07:00:16.000Z</time>
      </trkpt>
      <trkpt lat="44.45039" lon="6.99785">
        <ele>1518.4000244141</ele>
        <time>2024-09-13T07:00:17.000Z</time>
      </trkpt>
      <trkpt lat="44.45038" lon="6.99785">
        <ele>1518.8000488281</ele>
        <time>2024-09-13T07:00:18.000Z</time>
      </trkpt>
      <trkpt lat="44.45037" lon="6.99786">
        <ele>1519</ele>
        <time>2024-09-13T07:00:19.000Z</time>
      </trkpt>
      <trkpt lat="44.45036" lon="6.99786">
        <ele>1519</ele>
        <time>2024-09-13T07:00:20.000Z</time>
      </trkpt>
      <trkpt lat="44.45035" lon="6.99786">
        <ele>1519.1999511719</ele>
        <time>2024-09-13T07:00:21.000Z</time>
      </trkpt>
      <trkpt lat="44.45033" lon="6.99787">
        <ele>1519.4000244141</ele>
        <time>2024-09-13T07:00:22.000Z</time>
      </trkpt>
      <trkpt lat="44.45032" lon="6.99787">
        <ele>1519.8000488281</ele>
        <time>2024-09-13T07:00:23.000Z</time>
      </trkpt>
      <trkpt lat="44.45031" lon="6.99788">
        <ele>1520</ele>
        <time>2024-09-13T07:00:24.000Z</time>
      </trkpt>
      <trkpt lat="44.45029" lon="6.99788">
        <ele>1520</ele>
        <time>2024-09-13T07:00:25.000Z</time>
      </trkpt>
      <trkpt lat="44.45028" lon="6.99789">
        <ele>1520.1999511719</ele>
        <time>2024-09-13T07:00:26.000Z</time>
      </trkpt>
      <trkpt lat="44.45026" lon="6.99789">
        <ele>1520.1999511719</ele>
        <time>2024-09-13T07:00:27.000Z</time>
      </trkpt>
      <trkpt lat="44.45025" lon="6.99789">
        <ele>1520.4000244141</ele>
        <time>2024-09-13T07:00:28.000Z</time>
      </trkpt>
      <trkpt lat="44.45024" lon="6.9979">
        <ele>1520.5999755859</ele>
        <time>2024-09-13T07:00:29.000Z</time>
      </trkpt>
      <trkpt lat="44.45022" lon="6.9979">
        <ele>1520.5999755859</ele>
        <time>2024-09-13T07:00:30.000Z</time>
      </trkpt>
      <trkpt lat="44.45021" lon="6.9979">
        <ele>1520.8000488281</ele>
        <time>2024-09-13T07:00:31.000Z</time>
      </trkpt>
      <trkpt lat="44.45019" lon="6.99791">
        <ele>1521</ele>
        <time>2024-09-13T07:00:32.000Z</time>
      </trkpt>
      <trkpt lat="44.45018" lon="6.99791">
        <ele>1521</ele>
        <time>2024-09-13T07:00:33.000Z</time>
      </trkpt>
      <trkpt lat="44.45017" lon="6.99791">
        <ele>1521.1999511719</ele>
        <time>2024-09-13T07:00:34.000Z</time>
      </trkpt>
      <trkpt lat="44.45016" lon="6.99791">
        <ele>1521.4000244141</ele>
        <time>2024-09-13T07:00:35.000Z</time>
      </trkpt>
      <trkpt lat="44.45014" lon="6.99792">
        <ele>1521.5999755859</ele>
        <time>2024-09-13T07:00:36.000Z</time>
      </trkpt>
      <trkpt lat="44.45013" lon="6.99792">
        <ele>1521.5999755859</ele>
        <time>2024-09-13T07:00:37.000Z</time>
      </trkpt>
      <trkpt lat="44.45012" lon="6.99792">
        <ele>1521.8000488281</ele>
        <time>2024-09-13T07:00:38.000Z</time>
      </trkpt>
      <trkpt lat="44.45011" lon="6.99792">
        <ele>1522</ele>
        <time>2024-09-13T07:00:39.000Z</time>
      </trkpt>
      <trkpt lat="44.4501" lon="6.99793">
        <ele>1522.1999511719</ele>
        <time>2024-09-13T07:00:40.000Z</time>
      </trkpt>
      <trkpt lat="44.45009" lon="6.99794">
        <ele>1522.1999511719</ele>
        <time>2024-09-13T07:00:41.000Z</time>
      </trkpt>
      <trkpt lat="44.45008" lon="6.99794">
        <ele>1522.4000244141</ele>
        <time>2024-09-13T07:00:42.000Z</time>
      </trkpt>
      <trkpt lat="44.45007" lon="6.99795">
        <ele>1522.5999755859</ele>
        <time>2024-09-13T07:00:43.000Z</time>
      </trkpt>
      <trkpt lat="44.45006" lon="6.99795">
        <ele>1522.5999755859</ele>
        <time>2024-09-13T07:00:44.000Z</time>
      </trkpt>
      <trkpt lat="44.45005" lon="6.99795">
        <ele>1523</ele>
        <time>2024-09-13T07:00:45.000Z</time>
      </trkpt>
      <trkpt lat="44.45005" lon="6.99796">
        <ele>1523</ele>
        <time>2024-09-13T07:00:46.000Z</time>
      </trkpt>
      <trkpt lat="44.45004" lon="6.99797">
        <ele>1523</ele>
        <time>2024-09-13T07:00:47.000Z</time>
      </trkpt>
      <trkpt lat="44.45003" lon="6.99798">
        <ele>1523.4000244141</ele>
        <time>2024-09-13T07:00:48.000Z</time>
      </trkpt>
      <trkpt lat="44.45002" lon="6.99799">
        <ele>1523.5999755859</ele>
        <time>2024-09-13T07:00:49.000Z</time>
      </trkpt>
      <trkpt lat="44.45001" lon="6.998">
        <ele>1523.5999755859</ele>
        <time>2024-09-13T07:00:50.000Z</time>
      </trkpt>
      <trkpt lat="44.45" lon="6.99801">
        <ele>1524</ele>
        <time>2024-09-13T07:00:51.000Z</time>
      </trkpt>
      <trkpt lat="44.44999" lon="6.99803">
        <ele>1524</ele>
        <time>2024-09-13T07:00:52.000Z</time>
      </trkpt>
      <trkpt lat="44.44998" lon="6.99805">
        <ele>1524.1999511719</ele>
        <time>2024-09-13T07:00:53.000Z</time>
      </trkpt>
      <trkpt lat="44.44998" lon="6.99806">
        <ele>1524.4000244141</ele>
        <time>2024-09-13T07:00:54.000Z</time>
      </trkpt>
      <trkpt lat="44.44997" lon="6.99807">
        <ele>1524.4000244141</ele>
        <time>2024-09-13T07:00:55.000Z</time>
      </trkpt>
      <trkpt lat="44.44996" lon="6.99808">
        <ele>1524.5999755859</ele>
        <time>2024-09-13T07:00:56.000Z</time>
      </trkpt>
      <trkpt lat="44.44995" lon="6.9981">
        <ele>1524.5999755859</ele>
        <time>2024-09-13T07:00:57.000Z</time>
      </trkpt>
      <trkpt lat="44.44995" lon="6.99811">
        <ele>1524.5999755859</ele>
        <time>2024-09-13T07:00:58.000Z</time>
      </trkpt>
      <trkpt lat="44.44994" lon="6.99813">
        <ele>1525</ele>
        <time>2024-09-13T07:00:59.000Z</time>
      </trkpt>
      <trkpt lat="44.44993" lon="6.99814">
        <ele>1525</ele>
        <time>2024-09-13T07:01:00.000Z</time>
      </trkpt>
      <trkpt lat="44.44992" lon="6.99815">
        <ele>1525.1999511719</ele>
        <time>2024-09-13T07:01:01.000Z</time>
      </trkpt>
      <trkpt lat="44.44992" lon="6.99816">
        <ele>1525.4000244141</ele>
        <time>2024-09-13T07:01:02.000Z</time>
      </trkpt>
      <trkpt lat="44.44991" lon="6.99817">
        <ele>1525.4000244141</ele>
        <time>2024-09-13T07:01:03.000Z</time>
      </trkpt>
      <trkpt lat="44.4499" lon="6.99819">
        <ele>1525.5999755859</ele>
        <time>2024-09-13T07:01:04.000Z</time>
      </trkpt>
      <trkpt lat="44.44989" lon="6.9982">
        <ele>1525.8000488281</ele>
        <time>2024-09-13T07:01:05.000Z</time>
      </trkpt>
      <trkpt lat="44.44989" lon="6.99822">
        <ele>1525.8000488281</ele>
        <time>2024-09-13T07:01:06.000Z</time>
      </trkpt>
      <trkpt lat="44.44988" lon="6.99823">
        <ele>1526</ele>
        <time>2024-09-13T07:01:07.000Z</time>
      </trkpt>
      <trkpt lat="44.44987" lon="6.99825">
        <ele>1526.1999511719</ele>
        <time>2024-09-13T07:01:08.000Z</time>
      </trkpt>
      <trkpt lat="44.44987" lon="6.99826">
        <ele>1526.4000244141</ele>
        <time>2024-09-13T07:01:09.000Z</time>
      </trkpt>
      <trkpt lat="44.44986" lon="6.99828">
        <ele>1526.5999755859</ele>
        <time>2024-09-13T07:01:10.000Z</time>
      </trkpt>
      <trkpt lat="44.44985" lon="6.99829">
        <ele>1526.8000488281</ele>
        <time>2024-09-13T07:01:11.000Z</time>
      </trkpt>
      <trkpt lat="44.44984" lon="6.9983">
        <ele>1527</ele>
        <time>2024-09-13T07:01:12.000Z</time>
      </trkpt>
      <trkpt lat="44.44983" lon="6.99832">
        <ele>1527.1999511719</ele>
        <time>2024-09-13T07:01:13.000Z</time>
      </trkpt>
      <trkpt lat="44.44982" lon="6.99833">
        <ele>1527.1999511719</ele>
        <time>2024-09-13T07:01:14.000Z</time>
      </trkpt>
      <trkpt lat="44.4498" lon="6.99834">
        <ele>1527.4000244141</ele>
        <time>2024-09-13T07:01:15.000Z</time>
      </trkpt>
      <trkpt lat="44.44979" lon="6.99834">
        <ele>1527.8000488281</ele>
        <time>2024-09-13T07:01:16.000Z</time>
      </trkpt>
      <trkpt lat="44.44977" lon="6.99835">
        <ele>1528</ele>
        <time>2024-09-13T07:01:17.000Z</time>
      </trkpt>
      <trkpt lat="44.44976" lon="6.99836">
        <ele>1528</ele>
        <time>2024-09-13T07:01:18.000Z</time>
      </trkpt>
      <trkpt lat="44.44974" lon="6.99836">
        <ele>1528</ele>
        <time>2024-09-13T07:01:19.000Z</time>
      </trkpt>
      <trkpt lat="44.44973" lon="6.99837">
        <ele>1528</ele>
        <time>2024-09-13T07:01:20.000Z</time>
      </trkpt>
      <trkpt lat="44.44971" lon="6.99838">
        <ele>1528.1999511719</ele>
        <time>2024-09-13T07:01:21.000Z</time>
      </trkpt>
      <trkpt lat="44.44969" lon="6.99838">
        <ele>1528.4000244141</ele>
        <time>2024-09-13T07:01:22.000Z</time>
      </trkpt>
      <trkpt lat="44.44968" lon="6.99839">
        <ele>1528.4000244141</ele>
        <time>2024-09-13T07:01:23.000Z</time>
      </trkpt>
      <trkpt lat="44.44966" lon="6.99839">
        <ele>1528.4000244141</ele>
        <time>2024-09-13T07:01:24.000Z</time>
      </trkpt>
      <trkpt lat="44.44965" lon="6.9984">
        <ele>1528.4000244141</ele>
        <time>2024-09-13T07:01:25.000Z</time>
      </trkpt>
      <trkpt lat="44.44963" lon="6.9984">
        <ele>1528.4000244141</ele>
        <time>2024-09-13T07:01:26.000Z</time>
      </trkpt>
      <trkpt lat="44.44962" lon="6.9984">
        <ele>1528.8000488281</ele>
        <time>2024-09-13T07:01:27.000Z</time>
      </trkpt>
      <trkpt lat="44.4496" lon="6.9984">
        <ele>1528.8000488281</ele>
        <time>2024-09-13T07:01:28.000Z</time>
      </trkpt>
      <trkpt lat="44.44959" lon="6.9984">
        <ele>1529</ele>
        <time>2024-09-13T07:01:29.000Z</time>
      </trkpt>
      <trkpt lat="44.44957" lon="6.99841">
        <ele>1529</ele>
        <time>2024-09-13T07:01:30.000Z</time>
      </trkpt>
      <trkpt lat="44.44956" lon="6.99841">
        <ele>1529</ele>
        <time>2024-09-13T07:01:31.000Z</time>
      </trkpt>
      <trkpt lat="44.44954" lon="6.99841">
        <ele>1529.1999511719</ele>
        <time>2024-09-13T07:01:32.000Z</time>
      </trkpt>
      <trkpt lat="44.44953" lon="6.99841">
        <ele>1529.1999511719</ele>
        <time>2024-09-13T07:01:33.000Z</time>
      </trkpt>
      <trkpt lat="44.44951" lon="6.99841">
        <ele>1529.1999511719</ele>
        <time>2024-09-13T07:01:34.000Z</time>
      </trkpt>
      <trkpt lat="44.4495" lon="6.99841">
        <ele>1529.4000244141</ele>
        <time>2024-09-13T07:01:35.000Z</time>
      </trkpt>
      <trkpt lat="44.44948" lon="6.9984">
        <ele>1529.4000244141</ele>
        <time>2024-09-13T07:01:36.000Z</time>
      </trkpt>
      <trkpt lat="44.44947" lon="6.9984">
        <ele>1529.4000244141</ele>
        <time>2024-09-13T07:01:37.000Z</time>
      </trkpt>
      <trkpt lat="44.44945" lon="6.9984">
        <ele>1529.5999755859</ele>
        <time>2024-09-13T07:01:38.000Z</time>
      </trkpt>
      <trkpt lat="44.44944" lon="6.99839">
        <ele>1529.5999755859</ele>
        <time>2024-09-13T07:01:39.000Z</time>
      </trkpt>
      <trkpt lat="44.44943" lon="6.99839">
        <ele>1529.5999755859</ele>
        <time>2024-09-13T07:01:40.000Z</time>
      </trkpt>
      <trkpt lat="44.44941" lon="6.99838">
        <ele>1529.5999755859</ele>
        <time>2024-09-13T07:01:41.000Z</time>
      </trkpt>
      <trkpt lat="44.44938" lon="6.99837">
        <ele>1529.8000488281</ele>
        <time>2024-09-13T07:01:43.000Z</time>
      </trkpt>
      <trkpt lat="44.44937" lon="6.99836">
        <ele>1529.8000488281</ele>
        <time>2024-09-13T07:01:44.000Z</time>
      </trkpt>
      <trkpt lat="44.4493" lon="6.99831">
        <ele>1530</ele>
        <time>2024-09-13T07:01:49.000Z</time>
      </trkpt>
      <trkpt lat="44.44927" lon="6.9983">
        <ele>1530</ele>
        <time>2024-09-13T07:01:51.000Z</time>
      </trkpt>
      <trkpt lat="44.44923" lon="6.99829">
        <ele>1530</ele>
        <time>2024-09-13T07:01:53.000Z</time>
      </trkpt>
      <trkpt lat="44.44919" lon="6.99828">
        <ele>1530.4000244141</ele>
        <time>2024-09-13T07:01:55.000Z</time>
      </trkpt>
      <trkpt lat="44.44918" lon="6.99828">
        <ele>1530.4000244141</ele>
        <time>2024-09-13T07:01:56.000Z</time>
      </trkpt>
      <trkpt lat="44.44917" lon="6.99827">
        <ele>1530.4000244141</ele>
        <time>2024-09-13T07:01:57.000Z</time>
      </trkpt>
      <trkpt lat="44.44916" lon="6.99826">
        <ele>1530.5999755859</ele>
        <time>2024-09-13T07:01:58.000Z</time>
      </trkpt>
      <trkpt lat="44.44914" lon="6.99825">
        <ele>1530.5999755859</ele>
        <time>2024-09-13T07:01:59.000Z</time>
      </trkpt>
      <trkpt lat="44.44913" lon="6.99824">
        <ele>1530.5999755859</ele>
        <time>2024-09-13T07:02:00.000Z</time>
      </trkpt>
      <trkpt lat="44.44911" lon="6.99824">
        <ele>1530.5999755859</ele>
        <time>2024-09-13T07:02:01.000Z</time>
      </trkpt>
      <trkpt lat="44.44909" lon="6.99823">
        <ele>1531</ele>
        <time>2024-09-13T07:02:03.000Z</time>
      </trkpt>
      <trkpt lat="44.44908" lon="6.99823">
        <ele>1531</ele>
        <time>2024-09-13T07:02:04.000Z</time>
      </trkpt>
      <trkpt lat="44.44908" lon="6.99823">
        <ele>1531</ele>
        <time>2024-09-13T07:02:05.000Z</time>
      </trkpt>
      <trkpt lat="44.44907" lon="6.99823">
        <ele>1531</ele>
        <time>2024-09-13T07:02:06.000Z</time>
      </trkpt>
      <trkpt lat="44.44906" lon="6.99823">
        <ele>1531</ele>
        <time>2024-09-13T07:02:07.000Z</time>
      </trkpt>
      <trkpt lat="44.449" lon="6.99821">
        <ele>1531</ele>
        <time>2024-09-13T07:02:11.000Z</time>
      </trkpt>
      <trkpt lat="44.44898" lon="6.9982">
        <ele>1531</ele>
        <time>2024-09-13T07:02:12.000Z</time>
      </trkpt>
      <trkpt lat="44.44897" lon="6.99819">
        <ele>1531</ele>
        <time>2024-09-13T07:02:14.000Z</time>
      </trkpt>
      <trkpt lat="44.4489" lon="6.99815">
        <ele>1531.4000244141</ele>
        <time>2024-09-13T07:02:17.000Z</time>
      </trkpt>
      <trkpt lat="44.44889" lon="6.99814">
        <ele>1531.5999755859</ele>
        <time>2024-09-13T07:02:18.000Z</time>
      </trkpt>
      <trkpt lat="44.44887" lon="6.99813">
        <ele>1531.8000488281</ele>
        <time>2024-09-13T07:02:19.000Z</time>
      </trkpt>
      <trkpt lat="44.44885" lon="6.99812">
        <ele>1532</ele>
        <time>2024-09-13T07:02:20.000Z</time>
      </trkpt>
      <trkpt lat="44.44884" lon="6.99811">
        <ele>1532.1999511719</ele>
        <time>2024-09-13T07:02:21.000Z</time>
      </trkpt>
      <trkpt lat="44.44883" lon="6.9981">
        <ele>1532.4000244141</ele>
        <time>2024-09-13T07:02:22.000Z</time>
      </trkpt>
      <trkpt lat="44.44881" lon="6.99809">
        <ele>1532.4000244141</ele>
        <time>2024-09-13T07:02:23.000Z</time>
      </trkpt>
      <trkpt lat="44.4488" lon="6.99808">
        <ele>1532.5999755859</ele>
        <time>2024-09-13T07:02:24.000Z</time>
      </trkpt>
      <trkpt lat="44.44878" lon="6.99807">
        <ele>1532.8000488281</ele>
        <time>2024-09-13T07:02:25.000Z</time>
      </trkpt>
      <trkpt lat="44.44877" lon="6.99807">
        <ele>1533</ele>
        <time>2024-09-13T07:02:26.000Z</time>
      </trkpt>
      <trkpt lat="44.44874" lon="6.99805">
        <ele>1533.1999511719</ele>
        <time>2024-09-13T07:02:28.000Z</time>
      </trkpt>
      <trkpt lat="44.44869" lon="6.99803">
        <ele>1534</ele>
        <time>2024-09-13T07:02:31.000Z</time>
      </trkpt>
      <trkpt lat="44.44868" lon="6.99802">
        <ele>1534</ele>
        <time>2024-09-13T07:02:32.000Z</time>
      </trkpt>
      <trkpt lat="44.44866" lon="6.99801">
        <ele>1534.1999511719</ele>
        <time>2024-09-13T07:02:33.000Z</time>
      </trkpt>
      <trkpt lat="44.44865" lon="6.998">
        <ele>1534.1999511719</ele>
        <time>2024-09-13T07:02:34.000Z</time>
      </trkpt>
      <trkpt lat="44.44863" lon="6.99799">
        <ele>1534.4000244141</ele>
        <time>2024-09-13T07:02:35.000Z</time>
      </trkpt>
      <trkpt lat="44.44862" lon="6.99797">
        <ele>1534.4000244141</ele>
        <time>2024-09-13T07:02:36.000Z</time>
      </trkpt>
      <trkpt lat="44.4486" lon="6.99796">
        <ele>1534.5999755859</ele>
        <time>2024-09-13T07:02:37.000Z</time>
      </trkpt>
      <trkpt lat="44.44859" lon="6.99795">
        <ele>1534.8000488281</ele>
        <time>2024-09-13T07:02:38.000Z</time>
      </trkpt>
      <trkpt lat="44.44858" lon="6.99794">
        <ele>1535</ele>
        <time>2024-09-13T07:02:39.000Z</time>
      </trkpt>
      <trkpt lat="44.44856" lon="6.99793">
        <ele>1535.1999511719</ele>
        <time>2024-09-13T07:02:40.000Z</time>
      </trkpt>
      <trkpt lat="44.44855" lon="6.99792">
        <ele>1535.1999511719</ele>
        <time>2024-09-13T07:02:41.000Z</time>
      </trkpt>
      <trkpt lat="44.44854" lon="6.99791">
        <ele>1535.4000244141</ele>
        <time>2024-09-13T07:02:42.000Z</time>
      </trkpt>
      <trkpt lat="44.44853" lon="6.9979">
        <ele>1535.5999755859</ele>
        <time>2024-09-13T07:02:43.000Z</time>
      </trkpt>
      <trkpt lat="44.44852" lon="6.99789">
        <ele>1535.8000488281</ele>
        <time>2024-09-13T07:02:44.000Z</time>
      </trkpt>
      <trkpt lat="44.4485" lon="6.99788">
        <ele>1536</ele>
        <time>2024-09-13T07:02:45.000Z</time>
      </trkpt>
      <trkpt lat="44.44849" lon="6.99787">
        <ele>1536</ele>
        <time>2024-09-13T07:02:46.000Z</time>
      </trkpt>
      <trkpt lat="44.44848" lon="6.99786">
        <ele>1536.1999511719</ele>
        <time>2024-09-13T07:02:47.000Z</time>
      </trkpt>
      <trkpt lat="44.44846" lon="6.99785">
        <ele>1536.4000244141</ele>
        <time>2024-09-13T07:02:48.000Z</time>
      </trkpt>
      <trkpt lat="44.44845" lon="6.99785">
        <ele>1536.8000488281</ele>
        <time>2024-09-13T07:02:49.000Z</time>
      </trkpt>
      <trkpt lat="44.44844" lon="6.99783">
        <ele>1536.8000488281</ele>
        <time>2024-09-13T07:02:50.000Z</time>
      </trkpt>
      <trkpt lat="44.44842" lon="6.99782">
        <ele>1537</ele>
        <time>2024-09-13T07:02:51.000Z</time>
      </trkpt>
      <trkpt lat="44.44841" lon="6.99781">
        <ele>1537</ele>
        <time>2024-09-13T07:02:52.000Z</time>
      </trkpt>
      <trkpt lat="44.44839" lon="6.99779">
        <ele>1537</ele>
        <time>2024-09-13T07:02:53.000Z</time>
      </trkpt>
      <trkpt lat="44.44838" lon="6.99778">
        <ele>1537.4000244141</ele>
        <time>2024-09-13T07:02:54.000Z</time>
      </trkpt>
      <trkpt lat="44.44837" lon="6.99777">
        <ele>1537.4000244141</ele>
        <time>2024-09-13T07:02:55.000Z</time>
      </trkpt>
      <trkpt lat="44.44836" lon="6.99776">
        <ele>1537.5999755859</ele>
        <time>2024-09-13T07:02:56.000Z</time>
      </trkpt>
      <trkpt lat="44.44835" lon="6.99775">
        <ele>1537.8000488281</ele>
        <time>2024-09-13T07:02:57.000Z</time>
      </trkpt>
      <trkpt lat="44.44833" lon="6.99773">
        <ele>1538</ele>
        <time>2024-09-13T07:02:58.000Z</time>
      </trkpt>
      <trkpt lat="44.44833" lon="6.99772">
        <ele>1538.1999511719</ele>
        <time>2024-09-13T07:02:59.000Z</time>
      </trkpt>
      <trkpt lat="44.44832" lon="6.99771">
        <ele>1538.4000244141</ele>
        <time>2024-09-13T07:03:00.000Z</time>
      </trkpt>
      <trkpt lat="44.44831" lon="6.99769">
        <ele>1538.8000488281</ele>
        <time>2024-09-13T07:03:01.000Z</time>
      </trkpt>
      <trkpt lat="44.4483" lon="6.99768">
        <ele>1539</ele>
        <time>2024-09-13T07:03:02.000Z</time>
      </trkpt>
      <trkpt lat="44.44829" lon="6.99767">
        <ele>1539.1999511719</ele>
        <time>2024-09-13T07:03:03.000Z</time>
      </trkpt>
      <trkpt lat="44.44828" lon="6.99766">
        <ele>1539.1999511719</ele>
        <time>2024-09-13T07:03:04.000Z</time>
      </trkpt>
      <trkpt lat="44.44827" lon="6.99764">
        <ele>1539.1999511719</ele>
        <time>2024-09-13T07:03:05.000Z</time>
      </trkpt>
      <trkpt lat="44.44826" lon="6.99763">
        <ele>1539.4000244141</ele>
        <time>2024-09-13T07:03:06.000Z</time>
      </trkpt>
      <trkpt lat="44.44826" lon="6.99761">
        <ele>1539.5999755859</ele>
        <time>2024-09-13T07:03:07.000Z</time>
      </trkpt>
      <trkpt lat="44.44825" lon="6.9976">
        <ele>1539.5999755859</ele>
        <time>2024-09-13T07:03:08.000Z</time>
      </trkpt>
      <trkpt lat="44.44824" lon="6.99759">
        <ele>1540</ele>
        <time>2024-09-13T07:03:09.000Z</time>
      </trkpt>
      <trkpt lat="44.44823" lon="6.99757">
        <ele>1540.1999511719</ele>
        <time>2024-09-13T07:03:10.000Z</time>
      </trkpt>
      <trkpt lat="44.44822" lon="6.99755">
        <ele>1540.4000244141</ele>
        <time>2024-09-13T07:03:11.000Z</time>
      </trkpt>
      <trkpt lat="44.44822" lon="6.99753">
        <ele>1540.5999755859</ele>
        <time>2024-09-13T07:03:12.000Z</time>
      </trkpt>
      <trkpt lat="44.44821" lon="6.99752">
        <ele>1540.5999755859</ele>
        <time>2024-09-13T07:03:13.000Z</time>
      </trkpt>
      <trkpt lat="44.44821" lon="6.99751">
        <ele>1540.8000488281</ele>
        <time>2024-09-13T07:03:14.000Z</time>
      </trkpt>
      <trkpt lat="44.4482" lon="6.99749">
        <ele>1540.8000488281</ele>
        <time>2024-09-13T07:03:15.000Z</time>
      </trkpt>
      <trkpt lat="44.4482" lon="6.99747">
        <ele>1541</ele>
        <time>2024-09-13T07:03:16.000Z</time>
      </trkpt>
      <trkpt lat="44.44819" lon="6.99746">
        <ele>1541.1999511719</ele>
        <time>2024-09-13T07:03:17.000Z</time>
      </trkpt>
      <trkpt lat="44.44818" lon="6.99745">
        <ele>1541.1999511719</ele>
        <time>2024-09-13T07:03:18.000Z</time>
      </trkpt>
      <trkpt lat="44.44818" lon="6.99743">
        <ele>1541.4000244141</ele>
        <time>2024-09-13T07:03:19.000Z</time>
      </trkpt>
      <trkpt lat="44.44817" lon="6.99741">
        <ele>1541.5999755859</ele>
        <time>2024-09-13T07:03:20.000Z</time>
      </trkpt>
      <trkpt lat="44.44816" lon="6.99739">
        <ele>1541.5999755859</ele>
        <time>2024-09-13T07:03:21.000Z</time>
      </trkpt>
      <trkpt lat="44.44816" lon="6.99737">
        <ele>1541.5999755859</ele>
        <time>2024-09-13T07:03:22.000Z</time>
      </trkpt>
      <trkpt lat="44.44815" lon="6.99736">
        <ele>1541.8000488281</ele>
        <time>2024-09-13T07:03:23.000Z</time>
      </trkpt>
      <trkpt lat="44.44814" lon="6.99734">
        <ele>1541.8000488281</ele>
        <time>2024-09-13T07:03:24.000Z</time>
      </trkpt>
      <trkpt lat="44.44814" lon="6.99733">
        <ele>1542</ele>
        <time>2024-09-13T07:03:25.000Z</time>
      </trkpt>
      <trkpt lat="44.44814" lon="6.99731">
        <ele>1542.1999511719</ele>
        <time>2024-09-13T07:03:26.000Z</time>
      </trkpt>
      <trkpt lat="44.44813" lon="6.99729">
        <ele>1542.4000244141</ele>
        <time>2024-09-13T07:03:27.000Z</time>
      </trkpt>
      <trkpt lat="44.44812" lon="6.99727">
        <ele>1542.4000244141</ele>
        <time>2024-09-13T07:03:28.000Z</time>
      </trkpt>
      <trkpt lat="44.44812" lon="6.99725">
        <ele>1542.4000244141</ele>
        <time>2024-09-13T07:03:29.000Z</time>
      </trkpt>
      <trkpt lat="44.44811" lon="6.99724">
        <ele>1542.5999755859</ele>
        <time>2024-09-13T07:03:30.000Z</time>
      </trkpt>
      <trkpt lat="44.44811" lon="6.99722">
        <ele>1542.8000488281</ele>
        <time>2024-09-13T07:03:31.000Z</time>
      </trkpt>
      <trkpt lat="44.4481" lon="6.9972">
        <ele>1543.1999511719</ele>
        <time>2024-09-13T07:03:32.000Z</time>
      </trkpt>
      <trkpt lat="44.44809" lon="6.99718">
        <ele>1543.4000244141</ele>
        <time>2024-09-13T07:03:33.000Z</time>
      </trkpt>
      <trkpt lat="44.44808" lon="6.99716">
        <ele>1543.5999755859</ele>
        <time>2024-09-13T07:03:34.000Z</time>
      </trkpt>
      <trkpt lat="44.44808" lon="6.99715">
        <ele>1543.8000488281</ele>
        <time>2024-09-13T07:03:35.000Z</time>
      </trkpt>
      <trkpt lat="44.44807" lon="6.99713">
        <ele>1544</ele>
        <time>2024-09-13T07:03:36.000Z</time>
      </trkpt>
      <trkpt lat="44.44806" lon="6.99711">
        <ele>1544.1999511719</ele>
        <time>2024-09-13T07:03:37.000Z</time>
      </trkpt>
      <trkpt lat="44.44806" lon="6.99709">
        <ele>1544.1999511719</ele>
        <time>2024-09-13T07:03:38.000Z</time>
      </trkpt>
      <trkpt lat="44.44805" lon="6.99707">
        <ele>1544.5999755859</ele>
        <time>2024-09-13T07:03:39.000Z</time>
      </trkpt>
      <trkpt lat="44.44804" lon="6.99705">
        <ele>1544.5999755859</ele>
        <time>2024-09-13T07:03:40.000Z</time>
      </trkpt>
      <trkpt lat="44.44803" lon="6.99703">
        <ele>1545</ele>
        <time>2024-09-13T07:03:41.000Z</time>
      </trkpt>
      <trkpt lat="44.44803" lon="6.99702">
        <ele>1545</ele>
        <time>2024-09-13T07:03:42.000Z</time>
      </trkpt>
      <trkpt lat="44.44802" lon="6.997">
        <ele>1545</ele>
        <time>2024-09-13T07:03:43.000Z</time>
      </trkpt>
      <trkpt lat="44.44801" lon="6.99699">
        <ele>1545.1999511719</ele>
        <time>2024-09-13T07:03:44.000Z</time>
      </trkpt>
      <trkpt lat="44.448" lon="6.99697">
        <ele>1545.4000244141</ele>
        <time>2024-09-13T07:03:45.000Z</time>
      </trkpt>
      <trkpt lat="44.44799" lon="6.99695">
        <ele>1545.5999755859</ele>
        <time>2024-09-13T07:03:46.000Z</time>
      </trkpt>
      <trkpt lat="44.44799" lon="6.99693">
        <ele>1545.8000488281</ele>
        <time>2024-09-13T07:03:47.000Z</time>
      </trkpt>
      <trkpt lat="44.44798" lon="6.99691">
        <ele>1545.8000488281</ele>
        <time>2024-09-13T07:03:48.000Z</time>
      </trkpt>
      <trkpt lat="44.44798" lon="6.99689">
        <ele>1546</ele>
        <time>2024-09-13T07:03:49.000Z</time>
      </trkpt>
      <trkpt lat="44.44797" lon="6.99687">
        <ele>1546.1999511719</ele>
        <time>2024-09-13T07:03:50.000Z</time>
      </trkpt>
      <trkpt lat="44.44796" lon="6.99685">
        <ele>1546.4000244141</ele>
        <time>2024-09-13T07:03:51.000Z</time>
      </trkpt>
      <trkpt lat="44.44796" lon="6.99684">
        <ele>1546.5999755859</ele>
        <time>2024-09-13T07:03:52.000Z</time>
      </trkpt>
      <trkpt lat="44.44795" lon="6.99682">
        <ele>1546.8000488281</ele>
        <time>2024-09-13T07:03:53.000Z</time>
      </trkpt>
      <trkpt lat="44.44794" lon="6.9968">
        <ele>1547</ele>
        <time>2024-09-13T07:03:54.000Z</time>
      </trkpt>
      <trkpt lat="44.44793" lon="6.99679">
        <ele>1547.1999511719</ele>
        <time>2024-09-13T07:03:55.000Z</time>
      </trkpt>
      <trkpt lat="44.44793" lon="6.99677">
        <ele>1547.4000244141</ele>
        <time>2024-09-13T07:03:56.000Z</time>
      </trkpt>
      <trkpt lat="44.44792" lon="6.99676">
        <ele>1547.4000244141</ele>
        <time>2024-09-13T07:03:57.000Z</time>
      </trkpt>
      <trkpt lat="44.44791" lon="6.99674">
        <ele>1547.5999755859</ele>
        <time>2024-09-13T07:03:58.000Z</time>
      </trkpt>
      <trkpt lat="44.4479" lon="6.99672">
        <ele>1547.8000488281</ele>
        <time>2024-09-13T07:03:59.000Z</time>
      </trkpt>
      <trkpt lat="44.4479" lon="6.9967">
        <ele>1548</ele>
        <time>2024-09-13T07:04:00.000Z</time>
      </trkpt>
      <trkpt lat="44.44789" lon="6.99669">
        <ele>1548.1999511719</ele>
        <time>2024-09-13T07:04:01.000Z</time>
      </trkpt>
      <trkpt lat="44.44789" lon="6.99667">
        <ele>1548.4000244141</ele>
        <time>2024-09-13T07:04:02.000Z</time>
      </trkpt>
      <trkpt lat="44.44788" lon="6.99665">
        <ele>1548.5999755859</ele>
        <time>2024-09-13T07:04:03.000Z</time>
      </trkpt>
      <trkpt lat="44.44787" lon="6.99664">
        <ele>1548.8000488281</ele>
        <time>2024-09-13T07:04:04.000Z</time>
      </trkpt>
      <trkpt lat="44.44787" lon="6.99662">
        <ele>1549</ele>
        <time>2024-09-13T07:04:05.000Z</time>
      </trkpt>
      <trkpt lat="44.44786" lon="6.9966">
        <ele>1549.1999511719</ele>
        <time>2024-09-13T07:04:06.000Z</time>
      </trkpt>
      <trkpt lat="44.44785" lon="6.99658">
        <ele>1549.4000244141</ele>
        <time>2024-09-13T07:04:07.000Z</time>
      </trkpt>
      <trkpt lat="44.44785" lon="6.99657">
        <ele>1549.4000244141</ele>
        <time>2024-09-13T07:04:08.000Z</time>
      </trkpt>
      <trkpt lat="44.44784" lon="6.99655">
        <ele>1549.8000488281</ele>
        <time>2024-09-13T07:04:09.000Z</time>
      </trkpt>
      <trkpt lat="44.44783" lon="6.99653">
        <ele>1549.8000488281</ele>
        <time>2024-09-13T07:04:10.000Z</time>
      </trkpt>
      <trkpt lat="44.44783" lon="6.99651">
        <ele>1550.1999511719</ele>
        <time>2024-09-13T07:04:11.000Z</time>
      </trkpt>
      <trkpt lat="44.44782" lon="6.9965">
        <ele>1550.1999511719</ele>
        <time>2024-09-13T07:04:12.000Z</time>
      </trkpt>
      <trkpt lat="44.44781" lon="6.99648">
        <ele>1550.4000244141</ele>
        <time>2024-09-13T07:04:13.000Z</time>
      </trkpt>
      <trkpt lat="44.44781" lon="6.99646">
        <ele>1550.8000488281</ele>
        <time>2024-09-13T07:04:14.000Z</time>
      </trkpt>
      <trkpt lat="44.4478" lon="6.99644">
        <ele>1551</ele>
        <time>2024-09-13T07:04:15.000Z</time>
      </trkpt>
      <trkpt lat="44.4478" lon="6.99643">
        <ele>1551</ele>
        <time>2024-09-13T07:04:16.000Z</time>
      </trkpt>
      <trkpt lat="44.44779" lon="6.99642">
        <ele>1551.1999511719</ele>
        <time>2024-09-13T07:04:17.000Z</time>
      </trkpt>
      <trkpt lat="44.44779" lon="6.9964">
        <ele>1551.4000244141</ele>
        <time>2024-09-13T07:04:18.000Z</time>
      </trkpt>
      <trkpt lat="44.44778" lon="6.99638">
        <ele>1551.5999755859</ele>
        <time>2024-09-13T07:04:19.000Z</time>
      </trkpt>
      <trkpt lat="44.44777" lon="6.99637">
        <ele>1551.8000488281</ele>
        <time>2024-09-13T07:04:20.000Z</time>
      </trkpt>
      <trkpt lat="44.44776" lon="6.99635">
        <ele>1552</ele>
        <time>2024-09-13T07:04:21.000Z</time>
      </trkpt>
      <trkpt lat="44.44776" lon="6.99633">
        <ele>1552.4000244141</ele>
        <time>2024-09-13T07:04:22.000Z</time>
      </trkpt>
      <trkpt lat="44.44775" lon="6.99631">
        <ele>1552.4000244141</ele>
        <time>2024-09-13T07:04:23.000Z</time>
      </trkpt>
      <trkpt lat="44.44774" lon="6.99629">
        <ele>1552.5999755859</ele>
        <time>2024-09-13T07:04:24.000Z</time>
      </trkpt>
      <trkpt lat="44.44774" lon="6.99628">
        <ele>1553</ele>
        <time>2024-09-13T07:04:25.000Z</time>
      </trkpt>
      <trkpt lat="44.44773" lon="6.99626">
        <ele>1553</ele>
        <time>2024-09-13T07:04:26.000Z</time>
      </trkpt>
      <trkpt lat="44.44772" lon="6.99624">
        <ele>1553.1999511719</ele>
        <time>2024-09-13T07:04:27.000Z</time>
      </trkpt>
      <trkpt lat="44.44771" lon="6.99623">
        <ele>1553.4000244141</ele>
        <time>2024-09-13T07:04:28.000Z</time>
      </trkpt>
      <trkpt lat="44.4477" lon="6.99621">
        <ele>1553.5999755859</ele>
        <time>2024-09-13T07:04:29.000Z</time>
      </trkpt>
      <trkpt lat="44.4477" lon="6.99619">
        <ele>1553.8000488281</ele>
        <time>2024-09-13T07:04:30.000Z</time>
      </trkpt>
      <trkpt lat="44.44769" lon="6.99618">
        <ele>1554</ele>
        <time>2024-09-13T07:04:31.000Z</time>
      </trkpt>
      <trkpt lat="44.44768" lon="6.99616">
        <ele>1554</ele>
        <time>2024-09-13T07:04:32.000Z</time>
      </trkpt>
      <trkpt lat="44.44766" lon="6.99615">
        <ele>1554.4000244141</ele>
        <time>2024-09-13T07:04:33.000Z</time>
      </trkpt>
      <trkpt lat="44.44766" lon="6.99613">
        <ele>1554.4000244141</ele>
        <time>2024-09-13T07:04:34.000Z</time>
      </trkpt>
      <trkpt lat="44.44764" lon="6.99612">
        <ele>1554.8000488281</ele>
        <time>2024-09-13T07:04:35.000Z</time>
      </trkpt>
      <trkpt lat="44.44763" lon="6.9961">
        <ele>1554.8000488281</ele>
        <time>2024-09-13T07:04:36.000Z</time>
      </trkpt>
      <trkpt lat="44.44763" lon="6.99608">
        <ele>1555</ele>
        <time>2024-09-13T07:04:37.000Z</time>
      </trkpt>
      <trkpt lat="44.44762" lon="6.99606">
        <ele>1555.1999511719</ele>
        <time>2024-09-13T07:04:38.000Z</time>
      </trkpt>
      <trkpt lat="44.44761" lon="6.99605">
        <ele>1555.4000244141</ele>
        <time>2024-09-13T07:04:39.000Z</time>
      </trkpt>
      <trkpt lat="44.4476" lon="6.99603">
        <ele>1555.8000488281</ele>
        <time>2024-09-13T07:04:40.000Z</time>
      </trkpt>
      <trkpt lat="44.44759" lon="6.99601">
        <ele>1556</ele>
        <time>2024-09-13T07:04:41.000Z</time>
      </trkpt>
      <trkpt lat="44.44759" lon="6.99599">
        <ele>1556.1999511719</ele>
        <time>2024-09-13T07:04:42.000Z</time>
      </trkpt>
      <trkpt lat="44.44758" lon="6.99598">
        <ele>1556.4000244141</ele>
        <time>2024-09-13T07:04:43.000Z</time>
      </trkpt>
      <trkpt lat="44.44757" lon="6.99596">
        <ele>1556.5999755859</ele>
        <time>2024-09-13T07:04:44.000Z</time>
      </trkpt>
      <trkpt lat="44.44756" lon="6.99595">
        <ele>1556.8000488281</ele>
        <time>2024-09-13T07:04:45.000Z</time>
      </trkpt>
      <trkpt lat="44.44755" lon="6.99593">
        <ele>1557</ele>
        <time>2024-09-13T07:04:46.000Z</time>
      </trkpt>
      <trkpt lat="44.44754" lon="6.99591">
        <ele>1557</ele>
        <time>2024-09-13T07:04:47.000Z</time>
      </trkpt>
      <trkpt lat="44.44754" lon="6.9959">
        <ele>1557.4000244141</ele>
        <time>2024-09-13T07:04:48.000Z</time>
      </trkpt>
      <trkpt lat="44.44753" lon="6.99588">
        <ele>1557.5999755859</ele>
        <time>2024-09-13T07:04:49.000Z</time>
      </trkpt>
      <trkpt lat="44.44752" lon="6.99586">
        <ele>1557.5999755859</ele>
        <time>2024-09-13T07:04:50.000Z</time>
      </trkpt>
      <trkpt lat="44.44752" lon="6.99585">
        <ele>1557.8000488281</ele>
        <time>2024-09-13T07:04:51.000Z</time>
      </trkpt>
      <trkpt lat="44.44751" lon="6.99584">
        <ele>1557.8000488281</ele>
        <time>2024-09-13T07:04:52.000Z</time>
      </trkpt>
      <trkpt lat="44.4475" lon="6.99582">
        <ele>1558</ele>
        <time>2024-09-13T07:04:53.000Z</time>
      </trkpt>
      <trkpt lat="44.44749" lon="6.9958">
        <ele>1558.1999511719</ele>
        <time>2024-09-13T07:04:54.000Z</time>
      </trkpt>
      <trkpt lat="44.44748" lon="6.99579">
        <ele>1558.1999511719</ele>
        <time>2024-09-13T07:04:55.000Z</time>
      </trkpt>
      <trkpt lat="44.44747" lon="6.99577">
        <ele>1558.5999755859</ele>
        <time>2024-09-13T07:04:56.000Z</time>
      </trkpt>
      <trkpt lat="44.44747" lon="6.99576">
        <ele>1558.8000488281</ele>
        <time>2024-09-13T07:04:57.000Z</time>
      </trkpt>
      <trkpt lat="44.44746" lon="6.99575">
        <ele>1559</ele>
        <time>2024-09-13T07:04:58.000Z</time>
      </trkpt>
      <trkpt lat="44.44745" lon="6.99574">
        <ele>1559</ele>
        <time>2024-09-13T07:04:59.000Z</time>
      </trkpt>
      <trkpt lat="44.44744" lon="6.99572">
        <ele>1559.1999511719</ele>
        <time>2024-09-13T07:05:00.000Z</time>
      </trkpt>
      <trkpt lat="44.44743" lon="6.99571">
        <ele>1559.4000244141</ele>
        <time>2024-09-13T07:05:01.000Z</time>
      </trkpt>
      <trkpt lat="44.44743" lon="6.9957">
        <ele>1559.5999755859</ele>
        <time>2024-09-13T07:05:02.000Z</time>
      </trkpt>
      <trkpt lat="44.44742" lon="6.99569">
        <ele>1559.8000488281</ele>
        <time>2024-09-13T07:05:03.000Z</time>
      </trkpt>
      <trkpt lat="44.44741" lon="6.99568">
        <ele>1560</ele>
        <time>2024-09-13T07:05:04.000Z</time>
      </trkpt>
      <trkpt lat="44.4474" lon="6.99566">
        <ele>1560.1999511719</ele>
        <time>2024-09-13T07:05:05.000Z</time>
      </trkpt>
      <trkpt lat="44.44739" lon="6.99565">
        <ele>1560.4000244141</ele>
        <time>2024-09-13T07:05:06.000Z</time>
      </trkpt>
      <trkpt lat="44.44738" lon="6.99563">
        <ele>1560.4000244141</ele>
        <time>2024-09-13T07:05:07.000Z</time>
      </trkpt>
      <trkpt lat="44.44737" lon="6.99562">
        <ele>1560.4000244141</ele>
        <time>2024-09-13T07:05:08.000Z</time>
      </trkpt>
      <trkpt lat="44.44735" lon="6.9956">
        <ele>1560.5999755859</ele>
        <time>2024-09-13T07:05:09.000Z</time>
      </trkpt>
      <trkpt lat="44.44735" lon="6.99559">
        <ele>1560.8000488281</ele>
        <time>2024-09-13T07:05:10.000Z</time>
      </trkpt>
      <trkpt lat="44.44734" lon="6.99558">
        <ele>1560.8000488281</ele>
        <time>2024-09-13T07:05:11.000Z</time>
      </trkpt>
      <trkpt lat="44.44733" lon="6.99556">
        <ele>1561</ele>
        <time>2024-09-13T07:05:12.000Z</time>
      </trkpt>
      <trkpt lat="44.44732" lon="6.99555">
        <ele>1561</ele>
        <time>2024-09-13T07:05:13.000Z</time>
      </trkpt>
      <trkpt lat="44.44731" lon="6.99553">
        <ele>1561.1999511719</ele>
        <time>2024-09-13T07:05:14.000Z</time>
      </trkpt>
      <trkpt lat="44.4473" lon="6.99552">
        <ele>1561.4000244141</ele>
        <time>2024-09-13T07:05:15.000Z</time>
      </trkpt>
      <trkpt lat="44.44729" lon="6.99551">
        <ele>1561.5999755859</ele>
        <time>2024-09-13T07:05:16.000Z</time>
      </trkpt>
      <trkpt lat="44.44728" lon="6.9955">
        <ele>1561.5999755859</ele>
        <time>2024-09-13T07:05:17.000Z</time>
      </trkpt>
      <trkpt lat="44.44727" lon="6.99549">
        <ele>1561.8000488281</ele>
        <time>2024-09-13T07:05:18.000Z</time>
      </trkpt>
      <trkpt lat="44.44726" lon="6.99548">
        <ele>1562</ele>
        <time>2024-09-13T07:05:19.000Z</time>
      </trkpt>
      <trkpt lat="44.44725" lon="6.99546">
        <ele>1562</ele>
        <time>2024-09-13T07:05:20.000Z</time>
      </trkpt>
      <trkpt lat="44.44724" lon="6.99545">
        <ele>1562.1999511719</ele>
        <time>2024-09-13T07:05:21.000Z</time>
      </trkpt>
      <trkpt lat="44.44723" lon="6.99543">
        <ele>1562.4000244141</ele>
        <time>2024-09-13T07:05:22.000Z</time>
      </trkpt>
      <trkpt lat="44.44722" lon="6.99542">
        <ele>1562.4000244141</ele>
        <time>2024-09-13T07:05:23.000Z</time>
      </trkpt>
      <trkpt lat="44.44721" lon="6.99541">
        <ele>1562.5999755859</ele>
        <time>2024-09-13T07:05:24.000Z</time>
      </trkpt>
      <trkpt lat="44.4472" lon="6.99539">
        <ele>1562.5999755859</ele>
        <time>2024-09-13T07:05:25.000Z</time>
      </trkpt>
      <trkpt lat="44.44719" lon="6.99538">
        <ele>1562.8000488281</ele>
        <time>2024-09-13T07:05:26.000Z</time>
      </trkpt>
      <trkpt lat="44.44718" lon="6.99537">
        <ele>1563</ele>
        <time>2024-09-13T07:05:27.000Z</time>
      </trkpt>
      <trkpt lat="44.44717" lon="6.99536">
        <ele>1563.1999511719</ele>
        <time>2024-09-13T07:05:28.000Z</time>
      </trkpt>
      <trkpt lat="44.44716" lon="6.99535">
        <ele>1563.4000244141</ele>
        <time>2024-09-13T07:05:29.000Z</time>
      </trkpt>
      <trkpt lat="44.44715" lon="6.99533">
        <ele>1563.5999755859</ele>
        <time>2024-09-13T07:05:30.000Z</time>
      </trkpt>
      <trkpt lat="44.44714" lon="6.99532">
        <ele>1563.5999755859</ele>
        <time>2024-09-13T07:05:31.000Z</time>
      </trkpt>
      <trkpt lat="44.44713" lon="6.99531">
        <ele>1563.5999755859</ele>
        <time>2024-09-13T07:05:32.000Z</time>
      </trkpt>
      <trkpt lat="44.44713" lon="6.9953">
        <ele>1563.8000488281</ele>
        <time>2024-09-13T07:05:33.000Z</time>
      </trkpt>
      <trkpt lat="44.44712" lon="6.99528">
        <ele>1564</ele>
        <time>2024-09-13T07:05:34.000Z</time>
      </trkpt>
      <trkpt lat="44.44711" lon="6.99527">
        <ele>1564.1999511719</ele>
        <time>2024-09-13T07:05:35.000Z</time>
      </trkpt>
      <trkpt lat="44.4471" lon="6.99526">
        <ele>1564.1999511719</ele>
        <time>2024-09-13T07:05:36.000Z</time>
      </trkpt>
      <trkpt lat="44.44709" lon="6.99524">
        <ele>1564.4000244141</ele>
        <time>2024-09-13T07:05:37.000Z</time>
      </trkpt>
      <trkpt lat="44.44709" lon="6.99523">
        <ele>1564.5999755859</ele>
        <time>2024-09-13T07:05:38.000Z</time>
      </trkpt>
      <trkpt lat="44.44708" lon="6.99521">
        <ele>1564.8000488281</ele>
        <time>2024-09-13T07:05:39.000Z</time>
      </trkpt>
      <trkpt lat="44.44707" lon="6.9952">
        <ele>1565</ele>
        <time>2024-09-13T07:05:40.000Z</time>
      </trkpt>
      <trkpt lat="44.44706" lon="6.99519">
        <ele>1565</ele>
        <time>2024-09-13T07:05:41.000Z</time>
      </trkpt>
      <trkpt lat="44.44706" lon="6.99517">
        <ele>1565.1999511719</ele>
        <time>2024-09-13T07:05:42.000Z</time>
      </trkpt>
      <trkpt lat="44.44705" lon="6.99516">
        <ele>1565.4000244141</ele>
        <time>2024-09-13T07:05:43.000Z</time>
      </trkpt>
      <trkpt lat="44.44704" lon="6.99515">
        <ele>1565.5999755859</ele>
        <time>2024-09-13T07:05:44.000Z</time>
      </trkpt>
      <trkpt lat="44.44703" lon="6.99513">
        <ele>1565.5999755859</ele>
        <time>2024-09-13T07:05:45.000Z</time>
      </trkpt>
      <trkpt lat="44.44702" lon="6.99512">
        <ele>1565.8000488281</ele>
        <time>2024-09-13T07:05:46.000Z</time>
      </trkpt>
      <trkpt lat="44.44701" lon="6.9951">
        <ele>1566</ele>
        <time>2024-09-13T07:05:47.000Z</time>
      </trkpt>
      <trkpt lat="44.447" lon="6.99508">
        <ele>1566.1999511719</ele>
        <time>2024-09-13T07:05:48.000Z</time>
      </trkpt>
      <trkpt lat="44.447" lon="6.99507">
        <ele>1566.4000244141</ele>
        <time>2024-09-13T07:05:49.000Z</time>
      </trkpt>
      <trkpt lat="44.44699" lon="6.99505">
        <ele>1566.4000244141</ele>
        <time>2024-09-13T07:05:50.000Z</time>
      </trkpt>
      <trkpt lat="44.44698" lon="6.99504">
        <ele>1566.5999755859</ele>
        <time>2024-09-13T07:05:51.000Z</time>
      </trkpt>
      <trkpt lat="44.44697" lon="6.99502">
        <ele>1566.8000488281</ele>
        <time>2024-09-13T07:05:52.000Z</time>
      </trkpt>
      <trkpt lat="44.44696" lon="6.99501">
        <ele>1567</ele>
        <time>2024-09-13T07:05:53.000Z</time>
      </trkpt>
      <trkpt lat="44.44695" lon="6.99499">
        <ele>1567</ele>
        <time>2024-09-13T07:05:54.000Z</time>
      </trkpt>
      <trkpt lat="44.44694" lon="6.99497">
        <ele>1567.4000244141</ele>
        <time>2024-09-13T07:05:55.000Z</time>
      </trkpt>
      <trkpt lat="44.44694" lon="6.99495">
        <ele>1567.4000244141</ele>
        <time>2024-09-13T07:05:56.000Z</time>
      </trkpt>
      <trkpt lat="44.44693" lon="6.99493">
        <ele>1567.5999755859</ele>
        <time>2024-09-13T07:05:57.000Z</time>
      </trkpt>
      <trkpt lat="44.44692" lon="6.99492">
        <ele>1567.8000488281</ele>
        <time>2024-09-13T07:05:58.000Z</time>
      </trkpt>
      <trkpt lat="44.44692" lon="6.9949">
        <ele>1568</ele>
        <time>2024-09-13T07:05:59.000Z</time>
      </trkpt>
      <trkpt lat="44.44691" lon="6.99489">
        <ele>1568.1999511719</ele>
        <time>2024-09-13T07:06:00.000Z</time>
      </trkpt>
      <trkpt lat="44.4469" lon="6.99487">
        <ele>1568.1999511719</ele>
        <time>2024-09-13T07:06:01.000Z</time>
      </trkpt>
      <trkpt lat="44.44689" lon="6.99486">
        <ele>1568.5999755859</ele>
        <time>2024-09-13T07:06:02.000Z</time>
      </trkpt>
      <trkpt lat="44.44689" lon="6.99484">
        <ele>1568.5999755859</ele>
        <time>2024-09-13T07:06:03.000Z</time>
      </trkpt>
      <trkpt lat="44.44688" lon="6.99482">
        <ele>1568.8000488281</ele>
        <time>2024-09-13T07:06:04.000Z</time>
      </trkpt>
      <trkpt lat="44.44687" lon="6.9948">
        <ele>1569</ele>
        <time>2024-09-13T07:06:05.000Z</time>
      </trkpt>
      <trkpt lat="44.44687" lon="6.99478">
        <ele>1569.1999511719</ele>
        <time>2024-09-13T07:06:06.000Z</time>
      </trkpt>
      <trkpt lat="44.44686" lon="6.99477">
        <ele>1569.4000244141</ele>
        <time>2024-09-13T07:06:07.000Z</time>
      </trkpt>
      <trkpt lat="44.44685" lon="6.99475">
        <ele>1569.5999755859</ele>
        <time>2024-09-13T07:06:08.000Z</time>
      </trkpt>
      <trkpt lat="44.44685" lon="6.99473">
        <ele>1569.8000488281</ele>
        <time>2024-09-13T07:06:09.000Z</time>
      </trkpt>
      <trkpt lat="44.44684" lon="6.99472">
        <ele>1570</ele>
        <time>2024-09-13T07:06:10.000Z</time>
      </trkpt>
      <trkpt lat="44.44683" lon="6.9947">
        <ele>1570</ele>
        <time>2024-09-13T07:06:11.000Z</time>
      </trkpt>
      <trkpt lat="44.44683" lon="6.99469">
        <ele>1570.1999511719</ele>
        <time>2024-09-13T07:06:12.000Z</time>
      </trkpt>
      <trkpt lat="44.44682" lon="6.99467">
        <ele>1570.4000244141</ele>
        <time>2024-09-13T07:06:13.000Z</time>
      </trkpt>
      <trkpt lat="44.44681" lon="6.99466">
        <ele>1570.5999755859</ele>
        <time>2024-09-13T07:06:14.000Z</time>
      </trkpt>
      <trkpt lat="44.44681" lon="6.99464">
        <ele>1570.5999755859</ele>
        <time>2024-09-13T07:06:15.000Z</time>
      </trkpt>
      <trkpt lat="44.4468" lon="6.99463">
        <ele>1570.8000488281</ele>
        <time>2024-09-13T07:06:16.000Z</time>
      </trkpt>
      <trkpt lat="44.44679" lon="6.99462">
        <ele>1571</ele>
        <time>2024-09-13T07:06:17.000Z</time>
      </trkpt>
      <trkpt lat="44.44678" lon="6.9946">
        <ele>1571.1999511719</ele>
        <time>2024-09-13T07:06:18.000Z</time>
      </trkpt>
      <trkpt lat="44.44677" lon="6.99459">
        <ele>1571.4000244141</ele>
        <time>2024-09-13T07:06:19.000Z</time>
      </trkpt>
      <trkpt lat="44.44676" lon="6.99458">
        <ele>1571.5999755859</ele>
        <time>2024-09-13T07:06:20.000Z</time>
      </trkpt>
      <trkpt lat="44.44675" lon="6.99456">
        <ele>1571.8000488281</ele>
        <time>2024-09-13T07:06:21.000Z</time>
      </trkpt>
      <trkpt lat="44.44674" lon="6.99455">
        <ele>1572</ele>
        <time>2024-09-13T07:06:22.000Z</time>
      </trkpt>
      <trkpt lat="44.44673" lon="6.99454">
        <ele>1572.1999511719</ele>
        <time>2024-09-13T07:06:23.000Z</time>
      </trkpt>
      <trkpt lat="44.44672" lon="6.99453">
        <ele>1572.1999511719</ele>
        <time>2024-09-13T07:06:24.000Z</time>
      </trkpt>
      <trkpt lat="44.44671" lon="6.99451">
        <ele>1572.4000244141</ele>
        <time>2024-09-13T07:06:25.000Z</time>
      </trkpt>
      <trkpt lat="44.4467" lon="6.9945">
        <ele>1572.8000488281</ele>
        <time>2024-09-13T07:06:26.000Z</time>
      </trkpt>
      <trkpt lat="44.44669" lon="6.99449">
        <ele>1572.8000488281</ele>
        <time>2024-09-13T07:06:27.000Z</time>
      </trkpt>
      <trkpt lat="44.44668" lon="6.99448">
        <ele>1573</ele>
        <time>2024-09-13T07:06:28.000Z</time>
      </trkpt>
      <trkpt lat="44.44667" lon="6.99447">
        <ele>1573.1999511719</ele>
        <time>2024-09-13T07:06:29.000Z</time>
      </trkpt>
      <trkpt lat="44.44665" lon="6.99446">
        <ele>1573.5999755859</ele>
        <time>2024-09-13T07:06:30.000Z</time>
      </trkpt>
      <trkpt lat="44.44665" lon="6.99444">
        <ele>1573.8000488281</ele>
        <time>2024-09-13T07:06:31.000Z</time>
      </trkpt>
      <trkpt lat="44.44663" lon="6.99443">
        <ele>1574</ele>
        <time>2024-09-13T07:06:32.000Z</time>
      </trkpt>
      <trkpt lat="44.44662" lon="6.99441">
        <ele>1574</ele>
        <time>2024-09-13T07:06:33.000Z</time>
      </trkpt>
      <trkpt lat="44.44661" lon="6.9944">
        <ele>1574.1999511719</ele>
        <time>2024-09-13T07:06:34.000Z</time>
      </trkpt>
      <trkpt lat="44.4466" lon="6.99439">
        <ele>1574.5999755859</ele>
        <time>2024-09-13T07:06:35.000Z</time>
      </trkpt>
      <trkpt lat="44.44659" lon="6.99438">
        <ele>1574.5999755859</ele>
        <time>2024-09-13T07:06:36.000Z</time>
      </trkpt>
      <trkpt lat="44.44658" lon="6.99437">
        <ele>1574.8000488281</ele>
        <time>2024-09-13T07:06:37.000Z</time>
      </trkpt>
      <trkpt lat="44.44657" lon="6.99435">
        <ele>1575.1999511719</ele>
        <time>2024-09-13T07:06:38.000Z</time>
      </trkpt>
      <trkpt lat="44.44656" lon="6.99434">
        <ele>1575.1999511719</ele>
        <time>2024-09-13T07:06:39.000Z</time>
      </trkpt>
      <trkpt lat="44.44655" lon="6.99433">
        <ele>1575.4000244141</ele>
        <time>2024-09-13T07:06:40.000Z</time>
      </trkpt>
      <trkpt lat="44.44654" lon="6.99432">
        <ele>1575.5999755859</ele>
        <time>2024-09-13T07:06:41.000Z</time>
      </trkpt>
      <trkpt lat="44.44653" lon="6.99431">
        <ele>1575.8000488281</ele>
        <time>2024-09-13T07:06:42.000Z</time>
      </trkpt>
      <trkpt lat="44.44652" lon="6.99429">
        <ele>1575.8000488281</ele>
        <time>2024-09-13T07:06:43.000Z</time>
      </trkpt>
      <trkpt lat="44.4465" lon="6.99427">
        <ele>1576.1999511719</ele>
        <time>2024-09-13T07:06:44.000Z</time>
      </trkpt>
      <trkpt lat="44.44649" lon="6.99426">
        <ele>1576.1999511719</ele>
        <time>2024-09-13T07:06:45.000Z</time>
      </trkpt>
      <trkpt lat="44.44648" lon="6.99424">
        <ele>1576.4000244141</ele>
        <time>2024-09-13T07:06:46.000Z</time>
      </trkpt>
      <trkpt lat="44.44648" lon="6.99423">
        <ele>1576.4000244141</ele>
        <time>2024-09-13T07:06:47.000Z</time>
      </trkpt>
      <trkpt lat="44.44647" lon="6.99422">
        <ele>1576.4000244141</ele>
        <time>2024-09-13T07:06:48.000Z</time>
      </trkpt>
      <trkpt lat="44.44646" lon="6.99421">
        <ele>1576.8000488281</ele>
        <time>2024-09-13T07:06:49.000Z</time>
      </trkpt>
      <trkpt lat="44.44645" lon="6.99419">
        <ele>1577</ele>
        <time>2024-09-13T07:06:50.000Z</time>
      </trkpt>
      <trkpt lat="44.44644" lon="6.99417">
        <ele>1577.1999511719</ele>
        <time>2024-09-13T07:06:51.000Z</time>
      </trkpt>
      <trkpt lat="44.44643" lon="6.99416">
        <ele>1577.1999511719</ele>
        <time>2024-09-13T07:06:52.000Z</time>
      </trkpt>
      <trkpt lat="44.44642" lon="6.99415">
        <ele>1577.4000244141</ele>
        <time>2024-09-13T07:06:53.000Z</time>
      </trkpt>
      <trkpt lat="44.44641" lon="6.99414">
        <ele>1577.5999755859</ele>
        <time>2024-09-13T07:06:54.000Z</time>
      </trkpt>
      <trkpt lat="44.44639" lon="6.99412">
        <ele>1577.8000488281</ele>
        <time>2024-09-13T07:06:55.000Z</time>
      </trkpt>
      <trkpt lat="44.44639" lon="6.9941">
        <ele>1578</ele>
        <time>2024-09-13T07:06:56.000Z</time>
      </trkpt>
      <trkpt lat="44.44638" lon="6.99409">
        <ele>1578.1999511719</ele>
        <time>2024-09-13T07:06:57.000Z</time>
      </trkpt>
      <trkpt lat="44.44637" lon="6.99407">
        <ele>1578.1999511719</ele>
        <time>2024-09-13T07:06:58.000Z</time>
      </trkpt>
      <trkpt lat="44.44636" lon="6.99405">
        <ele>1578.4000244141</ele>
        <time>2024-09-13T07:06:59.000Z</time>
      </trkpt>
      <trkpt lat="44.44635" lon="6.99403">
        <ele>1578.5999755859</ele>
        <time>2024-09-13T07:07:00.000Z</time>
      </trkpt>
      <trkpt lat="44.44635" lon="6.99402">
        <ele>1578.8000488281</ele>
        <time>2024-09-13T07:07:01.000Z</time>
      </trkpt>
      <trkpt lat="44.44634" lon="6.994">
        <ele>1579</ele>
        <time>2024-09-13T07:07:02.000Z</time>
      </trkpt>
      <trkpt lat="44.44633" lon="6.99398">
        <ele>1579.1999511719</ele>
        <time>2024-09-13T07:07:03.000Z</time>
      </trkpt>
      <trkpt lat="44.44633" lon="6.99396">
        <ele>1579.4000244141</ele>
        <time>2024-09-13T07:07:04.000Z</time>
      </trkpt>
      <trkpt lat="44.44632" lon="6.99394">
        <ele>1579.4000244141</ele>
        <time>2024-09-13T07:07:05.000Z</time>
      </trkpt>
      <trkpt lat="44.44632" lon="6.99392">
        <ele>1579.5999755859</ele>
        <time>2024-09-13T07:07:06.000Z</time>
      </trkpt>
      <trkpt lat="44.44631" lon="6.9939">
        <ele>1579.8000488281</ele>
        <time>2024-09-13T07:07:07.000Z</time>
      </trkpt>
      <trkpt lat="44.44631" lon="6.99388">
        <ele>1580</ele>
        <time>2024-09-13T07:07:08.000Z</time>
      </trkpt>
      <trkpt lat="44.4463" lon="6.99387">
        <ele>1580.1999511719</ele>
        <time>2024-09-13T07:07:09.000Z</time>
      </trkpt>
      <trkpt lat="44.44629" lon="6.99385">
        <ele>1580.1999511719</ele>
        <time>2024-09-13T07:07:10.000Z</time>
      </trkpt>
      <trkpt lat="44.44628" lon="6.99383">
        <ele>1580.4000244141</ele>
        <time>2024-09-13T07:07:11.000Z</time>
      </trkpt>
      <trkpt lat="44.44628" lon="6.99382">
        <ele>1580.5999755859</ele>
        <time>2024-09-13T07:07:12.000Z</time>
      </trkpt>
      <trkpt lat="44.44627" lon="6.9938">
        <ele>1580.8000488281</ele>
        <time>2024-09-13T07:07:13.000Z</time>
      </trkpt>
      <trkpt lat="44.44626" lon="6.99378">
        <ele>1581</ele>
        <time>2024-09-13T07:07:14.000Z</time>
      </trkpt>
      <trkpt lat="44.44625" lon="6.99377">
        <ele>1581</ele>
        <time>2024-09-13T07:07:15.000Z</time>
      </trkpt>
      <trkpt lat="44.44624" lon="6.99375">
        <ele>1581.1999511719</ele>
        <time>2024-09-13T07:07:16.000Z</time>
      </trkpt>
      <trkpt lat="44.44624" lon="6.99373">
        <ele>1581.4000244141</ele>
        <time>2024-09-13T07:07:17.000Z</time>
      </trkpt>
      <trkpt lat="44.44623" lon="6.99371">
        <ele>1581.4000244141</ele>
        <time>2024-09-13T07:07:18.000Z</time>
      </trkpt>
      <trkpt lat="44.44622" lon="6.99369">
        <ele>1581.5999755859</ele>
        <time>2024-09-13T07:07:19.000Z</time>
      </trkpt>
      <trkpt lat="44.44621" lon="6.99367">
        <ele>1581.8000488281</ele>
        <time>2024-09-13T07:07:20.000Z</time>
      </trkpt>
      <trkpt lat="44.4462" lon="6.99365">
        <ele>1582</ele>
        <time>2024-09-13T07:07:21.000Z</time>
      </trkpt>
      <trkpt lat="44.44619" lon="6.99363">
        <ele>1582.1999511719</ele>
        <time>2024-09-13T07:07:22.000Z</time>
      </trkpt>
      <trkpt lat="44.44618" lon="6.99362">
        <ele>1582.4000244141</ele>
        <time>2024-09-13T07:07:23.000Z</time>
      </trkpt>
      <trkpt lat="44.44618" lon="6.9936">
        <ele>1582.4000244141</ele>
        <time>2024-09-13T07:07:24.000Z</time>
      </trkpt>
      <trkpt lat="44.44617" lon="6.99359">
        <ele>1582.5999755859</ele>
        <time>2024-09-13T07:07:25.000Z</time>
      </trkpt>
      <trkpt lat="44.44616" lon="6.99357">
        <ele>1582.8000488281</ele>
        <time>2024-09-13T07:07:26.000Z</time>
      </trkpt>
      <trkpt lat="44.44615" lon="6.99356">
        <ele>1582.8000488281</ele>
        <time>2024-09-13T07:07:27.000Z</time>
      </trkpt>
      <trkpt lat="44.44614" lon="6.99354">
        <ele>1583</ele>
        <time>2024-09-13T07:07:28.000Z</time>
      </trkpt>
      <trkpt lat="44.44613" lon="6.99352">
        <ele>1583</ele>
        <time>2024-09-13T07:07:29.000Z</time>
      </trkpt>
      <trkpt lat="44.44612" lon="6.99351">
        <ele>1583.1999511719</ele>
        <time>2024-09-13T07:07:30.000Z</time>
      </trkpt>
      <trkpt lat="44.44611" lon="6.9935">
        <ele>1583.1999511719</ele>
        <time>2024-09-13T07:07:31.000Z</time>
      </trkpt>
      <trkpt lat="44.44611" lon="6.99349">
        <ele>1583.4000244141</ele>
        <time>2024-09-13T07:07:32.000Z</time>
      </trkpt>
      <trkpt lat="44.4461" lon="6.99347">
        <ele>1583.4000244141</ele>
        <time>2024-09-13T07:07:33.000Z</time>
      </trkpt>
      <trkpt lat="44.44609" lon="6.99346">
        <ele>1583.5999755859</ele>
        <time>2024-09-13T07:07:34.000Z</time>
      </trkpt>
      <trkpt lat="44.44607" lon="6.99344">
        <ele>1583.8000488281</ele>
        <time>2024-09-13T07:07:35.000Z</time>
      </trkpt>
      <trkpt lat="44.44606" lon="6.99343">
        <ele>1584</ele>
        <time>2024-09-13T07:07:36.000Z</time>
      </trkpt>
      <trkpt lat="44.44605" lon="6.99342">
        <ele>1584.1999511719</ele>
        <time>2024-09-13T07:07:37.000Z</time>
      </trkpt>
      <trkpt lat="44.44604" lon="6.9934">
        <ele>1584.1999511719</ele>
        <time>2024-09-13T07:07:38.000Z</time>
      </trkpt>
      <trkpt lat="44.44603" lon="6.99339">
        <ele>1584.4000244141</ele>
        <time>2024-09-13T07:07:39.000Z</time>
      </trkpt>
      <trkpt lat="44.44602" lon="6.99337">
        <ele>1584.5999755859</ele>
        <time>2024-09-13T07:07:40.000Z</time>
      </trkpt>
      <trkpt lat="44.44601" lon="6.99336">
        <ele>1584.5999755859</ele>
        <time>2024-09-13T07:07:41.000Z</time>
      </trkpt>
      <trkpt lat="44.446" lon="6.99335">
        <ele>1584.8000488281</ele>
        <time>2024-09-13T07:07:42.000Z</time>
      </trkpt>
      <trkpt lat="44.44599" lon="6.99334">
        <ele>1585</ele>
        <time>2024-09-13T07:07:43.000Z</time>
      </trkpt>
      <trkpt lat="44.44598" lon="6.99333">
        <ele>1585.1999511719</ele>
        <time>2024-09-13T07:07:44.000Z</time>
      </trkpt>
      <trkpt lat="44.44597" lon="6.99332">
        <ele>1585.1999511719</ele>
        <time>2024-09-13T07:07:45.000Z</time>
      </trkpt>
      <trkpt lat="44.44595" lon="6.99331">
        <ele>1585.1999511719</ele>
        <time>2024-09-13T07:07:46.000Z</time>
      </trkpt>
      <trkpt lat="44.44594" lon="6.9933">
        <ele>1585.4000244141</ele>
        <time>2024-09-13T07:07:47.000Z</time>
      </trkpt>
      <trkpt lat="44.44593" lon="6.99329">
        <ele>1585.8000488281</ele>
        <time>2024-09-13T07:07:48.000Z</time>
      </trkpt>
      <trkpt lat="44.44592" lon="6.99328">
        <ele>1585.8000488281</ele>
        <time>2024-09-13T07:07:49.000Z</time>
      </trkpt>
      <trkpt lat="44.44591" lon="6.99327">
        <ele>1586</ele>
        <time>2024-09-13T07:07:50.000Z</time>
      </trkpt>
      <trkpt lat="44.4459" lon="6.99326">
        <ele>1586.1999511719</ele>
        <time>2024-09-13T07:07:51.000Z</time>
      </trkpt>
      <trkpt lat="44.44588" lon="6.99324">
        <ele>1586.1999511719</ele>
        <time>2024-09-13T07:07:52.000Z</time>
      </trkpt>
      <trkpt lat="44.44587" lon="6.99323">
        <ele>1586.4000244141</ele>
        <time>2024-09-13T07:07:53.000Z</time>
      </trkpt>
      <trkpt lat="44.44586" lon="6.99321">
        <ele>1586.5999755859</ele>
        <time>2024-09-13T07:07:54.000Z</time>
      </trkpt>
      <trkpt lat="44.44585" lon="6.9932">
        <ele>1586.5999755859</ele>
        <time>2024-09-13T07:07:55.000Z</time>
      </trkpt>
      <trkpt lat="44.44584" lon="6.99319">
        <ele>1586.8000488281</ele>
        <time>2024-09-13T07:07:56.000Z</time>
      </trkpt>
      <trkpt lat="44.44583" lon="6.99317">
        <ele>1587</ele>
        <time>2024-09-13T07:07:57.000Z</time>
      </trkpt>
      <trkpt lat="44.44582" lon="6.99316">
        <ele>1587.1999511719</ele>
        <time>2024-09-13T07:07:58.000Z</time>
      </trkpt>
      <trkpt lat="44.44581" lon="6.99314">
        <ele>1587.4000244141</ele>
        <time>2024-09-13T07:07:59.000Z</time>
      </trkpt>
      <trkpt lat="44.4458" lon="6.99313">
        <ele>1587.4000244141</ele>
        <time>2024-09-13T07:08:00.000Z</time>
      </trkpt>
      <trkpt lat="44.44579" lon="6.99312">
        <ele>1587.5999755859</ele>
        <time>2024-09-13T07:08:01.000Z</time>
      </trkpt>
      <trkpt lat="44.44577" lon="6.9931">
        <ele>1587.8000488281</ele>
        <time>2024-09-13T07:08:02.000Z</time>
      </trkpt>
      <trkpt lat="44.44577" lon="6.99308">
        <ele>1587.8000488281</ele>
        <time>2024-09-13T07:08:03.000Z</time>
      </trkpt>
      <trkpt lat="44.44576" lon="6.99307">
        <ele>1588</ele>
        <time>2024-09-13T07:08:04.000Z</time>
      </trkpt>
      <trkpt lat="44.44575" lon="6.99305">
        <ele>1588</ele>
        <time>2024-09-13T07:08:05.000Z</time>
      </trkpt>
      <trkpt lat="44.44574" lon="6.99303">
        <ele>1588.4000244141</ele>
        <time>2024-09-13T07:08:06.000Z</time>
      </trkpt>
      <trkpt lat="44.44573" lon="6.99302">
        <ele>1588.5999755859</ele>
        <time>2024-09-13T07:08:07.000Z</time>
      </trkpt>
      <trkpt lat="44.44572" lon="6.99301">
        <ele>1588.8000488281</ele>
        <time>2024-09-13T07:08:08.000Z</time>
      </trkpt>
      <trkpt lat="44.4457" lon="6.993">
        <ele>1589.1999511719</ele>
        <time>2024-09-13T07:08:09.000Z</time>
      </trkpt>
      <trkpt lat="44.44569" lon="6.99299">
        <ele>1589.1999511719</ele>
        <time>2024-09-13T07:08:10.000Z</time>
      </trkpt>
      <trkpt lat="44.44568" lon="6.99298">
        <ele>1589.1999511719</ele>
        <time>2024-09-13T07:08:11.000Z</time>
      </trkpt>
      <trkpt lat="44.44566" lon="6.99297">
        <ele>1589.4000244141</ele>
        <time>2024-09-13T07:08:12.000Z</time>
      </trkpt>
      <trkpt lat="44.44565" lon="6.99296">
        <ele>1589.8000488281</ele>
        <time>2024-09-13T07:08:13.000Z</time>
      </trkpt>
      <trkpt lat="44.44564" lon="6.99295">
        <ele>1589.8000488281</ele>
        <time>2024-09-13T07:08:14.000Z</time>
      </trkpt>
      <trkpt lat="44.44563" lon="6.99294">
        <ele>1590.1999511719</ele>
        <time>2024-09-13T07:08:15.000Z</time>
      </trkpt>
      <trkpt lat="44.44561" lon="6.99293">
        <ele>1590.4000244141</ele>
        <time>2024-09-13T07:08:16.000Z</time>
      </trkpt>
      <trkpt lat="44.4456" lon="6.99291">
        <ele>1590.5999755859</ele>
        <time>2024-09-13T07:08:17.000Z</time>
      </trkpt>
      <trkpt lat="44.44559" lon="6.9929">
        <ele>1590.5999755859</ele>
        <time>2024-09-13T07:08:18.000Z</time>
      </trkpt>
      <trkpt lat="44.44558" lon="6.99288">
        <ele>1590.8000488281</ele>
        <time>2024-09-13T07:08:19.000Z</time>
      </trkpt>
      <trkpt lat="44.44557" lon="6.99286">
        <ele>1590.8000488281</ele>
        <time>2024-09-13T07:08:20.000Z</time>
      </trkpt>
      <trkpt lat="44.44556" lon="6.99284">
        <ele>1591.1999511719</ele>
        <time>2024-09-13T07:08:21.000Z</time>
      </trkpt>
      <trkpt lat="44.44555" lon="6.99282">
        <ele>1591.4000244141</ele>
        <time>2024-09-13T07:08:22.000Z</time>
      </trkpt>
      <trkpt lat="44.44554" lon="6.99281">
        <ele>1591.5999755859</ele>
        <time>2024-09-13T07:08:23.000Z</time>
      </trkpt>
      <trkpt lat="44.44554" lon="6.99279">
        <ele>1591.8000488281</ele>
        <time>2024-09-13T07:08:24.000Z</time>
      </trkpt>
      <trkpt lat="44.44553" lon="6.99278">
        <ele>1591.8000488281</ele>
        <time>2024-09-13T07:08:25.000Z</time>
      </trkpt>
      <trkpt lat="44.44552" lon="6.99276">
        <ele>1592</ele>
        <time>2024-09-13T07:08:26.000Z</time>
      </trkpt>
      <trkpt lat="44.44551" lon="6.99275">
        <ele>1592.4000244141</ele>
        <time>2024-09-13T07:08:27.000Z</time>
      </trkpt>
      <trkpt lat="44.4455" lon="6.99273">
        <ele>1592.5999755859</ele>
        <time>2024-09-13T07:08:28.000Z</time>
      </trkpt>
      <trkpt lat="44.44549" lon="6.99271">
        <ele>1592.5999755859</ele>
        <time>2024-09-13T07:08:29.000Z</time>
      </trkpt>
      <trkpt lat="44.44548" lon="6.99269">
        <ele>1592.8000488281</ele>
        <time>2024-09-13T07:08:30.000Z</time>
      </trkpt>
      <trkpt lat="44.44547" lon="6.99268">
        <ele>1593</ele>
        <time>2024-09-13T07:08:31.000Z</time>
      </trkpt>
      <trkpt lat="44.44546" lon="6.99266">
        <ele>1593</ele>
        <time>2024-09-13T07:08:32.000Z</time>
      </trkpt>
      <trkpt lat="44.44545" lon="6.99265">
        <ele>1593.1999511719</ele>
        <time>2024-09-13T07:08:33.000Z</time>
      </trkpt>
      <trkpt lat="44.44544" lon="6.99263">
        <ele>1593.4000244141</ele>
        <time>2024-09-13T07:08:34.000Z</time>
      </trkpt>
      <trkpt lat="44.44544" lon="6.99262">
        <ele>1593.5999755859</ele>
        <time>2024-09-13T07:08:35.000Z</time>
      </trkpt>
      <trkpt lat="44.44543" lon="6.9926">
        <ele>1593.8000488281</ele>
        <time>2024-09-13T07:08:36.000Z</time>
      </trkpt>
      <trkpt lat="44.44542" lon="6.99258">
        <ele>1594</ele>
        <time>2024-09-13T07:08:37.000Z</time>
      </trkpt>
      <trkpt lat="44.44541" lon="6.99257">
        <ele>1594.1999511719</ele>
        <time>2024-09-13T07:08:38.000Z</time>
      </trkpt>
      <trkpt lat="44.4454" lon="6.99255">
        <ele>1594.4000244141</ele>
        <time>2024-09-13T07:08:39.000Z</time>
      </trkpt>
      <trkpt lat="44.44539" lon="6.99254">
        <ele>1594.5999755859</ele>
        <time>2024-09-13T07:08:40.000Z</time>
      </trkpt>
      <trkpt lat="44.44538" lon="6.99252">
        <ele>1594.8000488281</ele>
        <time>2024-09-13T07:08:41.000Z</time>
      </trkpt>
      <trkpt lat="44.44537" lon="6.99251">
        <ele>1595</ele>
        <time>2024-09-13T07:08:42.000Z</time>
      </trkpt>
      <trkpt lat="44.44536" lon="6.99249">
        <ele>1595</ele>
        <time>2024-09-13T07:08:43.000Z</time>
      </trkpt>
      <trkpt lat="44.44535" lon="6.99248">
        <ele>1595.1999511719</ele>
        <time>2024-09-13T07:08:44.000Z</time>
      </trkpt>
      <trkpt lat="44.44534" lon="6.99247">
        <ele>1595.1999511719</ele>
        <time>2024-09-13T07:08:45.000Z</time>
      </trkpt>
      <trkpt lat="44.44533" lon="6.99246">
        <ele>1595.4000244141</ele>
        <time>2024-09-13T07:08:46.000Z</time>
      </trkpt>
      <trkpt lat="44.44532" lon="6.99245">
        <ele>1595.5999755859</ele>
        <time>2024-09-13T07:08:47.000Z</time>
      </trkpt>
      <trkpt lat="44.44531" lon="6.99244">
        <ele>1595.8000488281</ele>
        <time>2024-09-13T07:08:48.000Z</time>
      </trkpt>
      <trkpt lat="44.4453" lon="6.99243">
        <ele>1595.8000488281</ele>
        <time>2024-09-13T07:08:49.000Z</time>
      </trkpt>
      <trkpt lat="44.44528" lon="6.99242">
        <ele>1596</ele>
        <time>2024-09-13T07:08:50.000Z</time>
      </trkpt>
      <trkpt lat="44.44527" lon="6.99242">
        <ele>1596</ele>
        <time>2024-09-13T07:08:51.000Z</time>
      </trkpt>
      <trkpt lat="44.44526" lon="6.99241">
        <ele>1596.1999511719</ele>
        <time>2024-09-13T07:08:52.000Z</time>
      </trkpt>
      <trkpt lat="44.44524" lon="6.9924">
        <ele>1596.4000244141</ele>
        <time>2024-09-13T07:08:53.000Z</time>
      </trkpt>
      <trkpt lat="44.44523" lon="6.99239">
        <ele>1596.4000244141</ele>
        <time>2024-09-13T07:08:54.000Z</time>
      </trkpt>
      <trkpt lat="44.44522" lon="6.99238">
        <ele>1596.4000244141</ele>
        <time>2024-09-13T07:08:55.000Z</time>
      </trkpt>
      <trkpt lat="44.4452" lon="6.99237">
        <ele>1596.8000488281</ele>
        <time>2024-09-13T07:08:56.000Z</time>
      </trkpt>
      <trkpt lat="44.44519" lon="6.99236">
        <ele>1597</ele>
        <time>2024-09-13T07:08:57.000Z</time>
      </trkpt>
      <trkpt lat="44.44518" lon="6.99236">
        <ele>1597.1999511719</ele>
        <time>2024-09-13T07:08:58.000Z</time>
      </trkpt>
      <trkpt lat="44.44517" lon="6.99235">
        <ele>1597.5999755859</ele>
        <time>2024-09-13T07:08:59.000Z</time>
      </trkpt>
      <trkpt lat="44.44515" lon="6.99234">
        <ele>1597.8000488281</ele>
        <time>2024-09-13T07:09:00.000Z</time>
      </trkpt>
      <trkpt lat="44.44514" lon="6.99233">
        <ele>1597.8000488281</ele>
        <time>2024-09-13T07:09:01.000Z</time>
      </trkpt>
      <trkpt lat="44.44513" lon="6.99232">
        <ele>1598</ele>
        <time>2024-09-13T07:09:02.000Z</time>
      </trkpt>
      <trkpt lat="44.44512" lon="6.99231">
        <ele>1598.1999511719</ele>
        <time>2024-09-13T07:09:03.000Z</time>
      </trkpt>
      <trkpt lat="44.44512" lon="6.9923">
        <ele>1598.4000244141</ele>
        <time>2024-09-13T07:09:04.000Z</time>
      </trkpt>
      <trkpt lat="44.4451" lon="6.99229">
        <ele>1598.5999755859</ele>
        <time>2024-09-13T07:09:05.000Z</time>
      </trkpt>
      <trkpt lat="44.44509" lon="6.99228">
        <ele>1598.5999755859</ele>
        <time>2024-09-13T07:09:06.000Z</time>
      </trkpt>
      <trkpt lat="44.44508" lon="6.99227">
        <ele>1598.8000488281</ele>
        <time>2024-09-13T07:09:07.000Z</time>
      </trkpt>
      <trkpt lat="44.44507" lon="6.99226">
        <ele>1599.1999511719</ele>
        <time>2024-09-13T07:09:08.000Z</time>
      </trkpt>
      <trkpt lat="44.44506" lon="6.99224">
        <ele>1599.4000244141</ele>
        <time>2024-09-13T07:09:09.000Z</time>
      </trkpt>
      <trkpt lat="44.44505" lon="6.99223">
        <ele>1599.5999755859</ele>
        <time>2024-09-13T07:09:10.000Z</time>
      </trkpt>
      <trkpt lat="44.44504" lon="6.99222">
        <ele>1599.8000488281</ele>
        <time>2024-09-13T07:09:11.000Z</time>
      </trkpt>
      <trkpt lat="44.44503" lon="6.99221">
        <ele>1600</ele>
        <time>2024-09-13T07:09:12.000Z</time>
      </trkpt>
      <trkpt lat="44.44502" lon="6.9922">
        <ele>1600.1999511719</ele>
        <time>2024-09-13T07:09:13.000Z</time>
      </trkpt>
      <trkpt lat="44.44501" lon="6.99219">
        <ele>1600.4000244141</ele>
        <time>2024-09-13T07:09:14.000Z</time>
      </trkpt>
      <trkpt lat="44.44499" lon="6.99217">
        <ele>1600.5999755859</ele>
        <time>2024-09-13T07:09:15.000Z</time>
      </trkpt>
      <trkpt lat="44.44498" lon="6.99216">
        <ele>1600.8000488281</ele>
        <time>2024-09-13T07:09:16.000Z</time>
      </trkpt>
      <trkpt lat="44.44497" lon="6.99214">
        <ele>1601</ele>
        <time>2024-09-13T07:09:17.000Z</time>
      </trkpt>
      <trkpt lat="44.44496" lon="6.99213">
        <ele>1601.1999511719</ele>
        <time>2024-09-13T07:09:18.000Z</time>
      </trkpt>
      <trkpt lat="44.44494" lon="6.99212">
        <ele>1601.4000244141</ele>
        <time>2024-09-13T07:09:19.000Z</time>
      </trkpt>
      <trkpt lat="44.44493" lon="6.99211">
        <ele>1601.5999755859</ele>
        <time>2024-09-13T07:09:20.000Z</time>
      </trkpt>
      <trkpt lat="44.44492" lon="6.9921">
        <ele>1601.8000488281</ele>
        <time>2024-09-13T07:09:21.000Z</time>
      </trkpt>
      <trkpt lat="44.4449" lon="6.99209">
        <ele>1602.1999511719</ele>
        <time>2024-09-13T07:09:22.000Z</time>
      </trkpt>
      <trkpt lat="44.44489" lon="6.99209">
        <ele>1602.1999511719</ele>
        <time>2024-09-13T07:09:23.000Z</time>
      </trkpt>
      <trkpt lat="44.44488" lon="6.99208">
        <ele>1602.4000244141</ele>
        <time>2024-09-13T07:09:24.000Z</time>
      </trkpt>
      <trkpt lat="44.44487" lon="6.99207">
        <ele>1602.5999755859</ele>
        <time>2024-09-13T07:09:25.000Z</time>
      </trkpt>
      <trkpt lat="44.44486" lon="6.99207">
        <ele>1602.8000488281</ele>
        <time>2024-09-13T07:09:26.000Z</time>
      </trkpt>
      <trkpt lat="44.44484" lon="6.99206">
        <ele>1603</ele>
        <time>2024-09-13T07:09:27.000Z</time>
      </trkpt>
      <trkpt lat="44.44483" lon="6.99205">
        <ele>1603.1999511719</ele>
        <time>2024-09-13T07:09:28.000Z</time>
      </trkpt>
      <trkpt lat="44.44482" lon="6.99204">
        <ele>1603.4000244141</ele>
        <time>2024-09-13T07:09:29.000Z</time>
      </trkpt>
      <trkpt lat="44.44481" lon="6.99203">
        <ele>1603.5999755859</ele>
        <time>2024-09-13T07:09:30.000Z</time>
      </trkpt>
      <trkpt lat="44.4448" lon="6.99201">
        <ele>1603.5999755859</ele>
        <time>2024-09-13T07:09:31.000Z</time>
      </trkpt>
      <trkpt lat="44.44478" lon="6.992">
        <ele>1603.8000488281</ele>
        <time>2024-09-13T07:09:32.000Z</time>
      </trkpt>
      <trkpt lat="44.44477" lon="6.99199">
        <ele>1604</ele>
        <time>2024-09-13T07:09:33.000Z</time>
      </trkpt>
      <trkpt lat="44.44476" lon="6.99197">
        <ele>1604.1999511719</ele>
        <time>2024-09-13T07:09:34.000Z</time>
      </trkpt>
      <trkpt lat="44.44475" lon="6.99196">
        <ele>1604.4000244141</ele>
        <time>2024-09-13T07:09:35.000Z</time>
      </trkpt>
      <trkpt lat="44.44473" lon="6.99195">
        <ele>1604.4000244141</ele>
        <time>2024-09-13T07:09:36.000Z</time>
      </trkpt>
      <trkpt lat="44.44473" lon="6.99193">
        <ele>1604.5999755859</ele>
        <time>2024-09-13T07:09:37.000Z</time>
      </trkpt>
      <trkpt lat="44.44471" lon="6.99192">
        <ele>1604.8000488281</ele>
        <time>2024-09-13T07:09:38.000Z</time>
      </trkpt>
      <trkpt lat="44.4447" lon="6.99191">
        <ele>1605</ele>
        <time>2024-09-13T07:09:39.000Z</time>
      </trkpt>
      <trkpt lat="44.44469" lon="6.9919">
        <ele>1605</ele>
        <time>2024-09-13T07:09:40.000Z</time>
      </trkpt>
      <trkpt lat="44.44469" lon="6.99188">
        <ele>1605.1999511719</ele>
        <time>2024-09-13T07:09:41.000Z</time>
      </trkpt>
      <trkpt lat="44.44467" lon="6.99187">
        <ele>1605.1999511719</ele>
        <time>2024-09-13T07:09:42.000Z</time>
      </trkpt>
      <trkpt lat="44.44466" lon="6.99186">
        <ele>1605.4000244141</ele>
        <time>2024-09-13T07:09:43.000Z</time>
      </trkpt>
      <trkpt lat="44.44465" lon="6.99185">
        <ele>1605.8000488281</ele>
        <time>2024-09-13T07:09:44.000Z</time>
      </trkpt>
      <trkpt lat="44.44465" lon="6.99184">
        <ele>1605.8000488281</ele>
        <time>2024-09-13T07:09:45.000Z</time>
      </trkpt>
      <trkpt lat="44.44463" lon="6.99182">
        <ele>1606</ele>
        <time>2024-09-13T07:09:46.000Z</time>
      </trkpt>
      <trkpt lat="44.44462" lon="6.99181">
        <ele>1606.1999511719</ele>
        <time>2024-09-13T07:09:47.000Z</time>
      </trkpt>
      <trkpt lat="44.44461" lon="6.9918">
        <ele>1606.4000244141</ele>
        <time>2024-09-13T07:09:48.000Z</time>
      </trkpt>
      <trkpt lat="44.4446" lon="6.99178">
        <ele>1606.5999755859</ele>
        <time>2024-09-13T07:09:49.000Z</time>
      </trkpt>
      <trkpt lat="44.44458" lon="6.99177">
        <ele>1606.8000488281</ele>
        <time>2024-09-13T07:09:50.000Z</time>
      </trkpt>
      <trkpt lat="44.44457" lon="6.99176">
        <ele>1606.8000488281</ele>
        <time>2024-09-13T07:09:51.000Z</time>
      </trkpt>
      <trkpt lat="44.44456" lon="6.99175">
        <ele>1607</ele>
        <time>2024-09-13T07:09:52.000Z</time>
      </trkpt>
      <trkpt lat="44.44454" lon="6.99174">
        <ele>1607.1999511719</ele>
        <time>2024-09-13T07:09:53.000Z</time>
      </trkpt>
      <trkpt lat="44.44453" lon="6.99174">
        <ele>1607.1999511719</ele>
        <time>2024-09-13T07:09:54.000Z</time>
      </trkpt>
      <trkpt lat="44.44452" lon="6.99172">
        <ele>1607.4000244141</ele>
        <time>2024-09-13T07:09:55.000Z</time>
      </trkpt>
      <trkpt lat="44.44451" lon="6.99171">
        <ele>1607.5999755859</ele>
        <time>2024-09-13T07:09:56.000Z</time>
      </trkpt>
      <trkpt lat="44.4445" lon="6.9917">
        <ele>1607.5999755859</ele>
        <time>2024-09-13T07:09:57.000Z</time>
      </trkpt>
      <trkpt lat="44.44449" lon="6.9917">
        <ele>1607.8000488281</ele>
        <time>2024-09-13T07:09:58.000Z</time>
      </trkpt>
      <trkpt lat="44.44448" lon="6.99169">
        <ele>1607.8000488281</ele>
        <time>2024-09-13T07:09:59.000Z</time>
      </trkpt>
      <trkpt lat="44.44446" lon="6.99168">
        <ele>1608</ele>
        <time>2024-09-13T07:10:00.000Z</time>
      </trkpt>
      <trkpt lat="44.44445" lon="6.99167">
        <ele>1608</ele>
        <time>2024-09-13T07:10:01.000Z</time>
      </trkpt>
      <trkpt lat="44.44444" lon="6.99166">
        <ele>1608.4000244141</ele>
        <time>2024-09-13T07:10:02.000Z</time>
      </trkpt>
      <trkpt lat="44.44442" lon="6.99164">
        <ele>1608.5999755859</ele>
        <time>2024-09-13T07:10:03.000Z</time>
      </trkpt>
      <trkpt lat="44.44441" lon="6.99164">
        <ele>1608.5999755859</ele>
        <time>2024-09-13T07:10:04.000Z</time>
      </trkpt>
      <trkpt lat="44.4444" lon="6.99163">
        <ele>1608.8000488281</ele>
        <time>2024-09-13T07:10:05.000Z</time>
      </trkpt>
      <trkpt lat="44.44438" lon="6.99161">
        <ele>1609</ele>
        <time>2024-09-13T07:10:06.000Z</time>
      </trkpt>
      <trkpt lat="44.44437" lon="6.9916">
        <ele>1609.1999511719</ele>
        <time>2024-09-13T07:10:07.000Z</time>
      </trkpt>
      <trkpt lat="44.44436" lon="6.99159">
        <ele>1609.4000244141</ele>
        <time>2024-09-13T07:10:08.000Z</time>
      </trkpt>
      <trkpt lat="44.44435" lon="6.99158">
        <ele>1609.5999755859</ele>
        <time>2024-09-13T07:10:09.000Z</time>
      </trkpt>
      <trkpt lat="44.44434" lon="6.99157">
        <ele>1609.5999755859</ele>
        <time>2024-09-13T07:10:10.000Z</time>
      </trkpt>
      <trkpt lat="44.44432" lon="6.99156">
        <ele>1610</ele>
        <time>2024-09-13T07:10:11.000Z</time>
      </trkpt>
      <trkpt lat="44.44431" lon="6.99154">
        <ele>1610.1999511719</ele>
        <time>2024-09-13T07:10:12.000Z</time>
      </trkpt>
      <trkpt lat="44.4443" lon="6.99153">
        <ele>1610.4000244141</ele>
        <time>2024-09-13T07:10:13.000Z</time>
      </trkpt>
      <trkpt lat="44.44429" lon="6.99152">
        <ele>1610.5999755859</ele>
        <time>2024-09-13T07:10:14.000Z</time>
      </trkpt>
      <trkpt lat="44.44428" lon="6.99151">
        <ele>1610.5999755859</ele>
        <time>2024-09-13T07:10:15.000Z</time>
      </trkpt>
      <trkpt lat="44.44427" lon="6.9915">
        <ele>1610.8000488281</ele>
        <time>2024-09-13T07:10:16.000Z</time>
      </trkpt>
      <trkpt lat="44.44426" lon="6.99149">
        <ele>1611</ele>
        <time>2024-09-13T07:10:17.000Z</time>
      </trkpt>
      <trkpt lat="44.44425" lon="6.99147">
        <ele>1611.1999511719</ele>
        <time>2024-09-13T07:10:18.000Z</time>
      </trkpt>
      <trkpt lat="44.44424" lon="6.99146">
        <ele>1611.4000244141</ele>
        <time>2024-09-13T07:10:19.000Z</time>
      </trkpt>
      <trkpt lat="44.44423" lon="6.99144">
        <ele>1611.5999755859</ele>
        <time>2024-09-13T07:10:20.000Z</time>
      </trkpt>
      <trkpt lat="44.44421" lon="6.99143">
        <ele>1611.8000488281</ele>
        <time>2024-09-13T07:10:21.000Z</time>
      </trkpt>
      <trkpt lat="44.4442" lon="6.99142">
        <ele>1612</ele>
        <time>2024-09-13T07:10:22.000Z</time>
      </trkpt>
      <trkpt lat="44.44418" lon="6.99141">
        <ele>1612.1999511719</ele>
        <time>2024-09-13T07:10:23.000Z</time>
      </trkpt>
      <trkpt lat="44.44417" lon="6.99139">
        <ele>1612.4000244141</ele>
        <time>2024-09-13T07:10:24.000Z</time>
      </trkpt>
      <trkpt lat="44.44416" lon="6.99138">
        <ele>1612.5999755859</ele>
        <time>2024-09-13T07:10:25.000Z</time>
      </trkpt>
      <trkpt lat="44.44415" lon="6.99136">
        <ele>1612.8000488281</ele>
        <time>2024-09-13T07:10:26.000Z</time>
      </trkpt>
      <trkpt lat="44.44414" lon="6.99134">
        <ele>1613</ele>
        <time>2024-09-13T07:10:27.000Z</time>
      </trkpt>
      <trkpt lat="44.44413" lon="6.99133">
        <ele>1613.1999511719</ele>
        <time>2024-09-13T07:10:28.000Z</time>
      </trkpt>
      <trkpt lat="44.44412" lon="6.99132">
        <ele>1613.4000244141</ele>
        <time>2024-09-13T07:10:29.000Z</time>
      </trkpt>
      <trkpt lat="44.44411" lon="6.9913">
        <ele>1613.5999755859</ele>
        <time>2024-09-13T07:10:30.000Z</time>
      </trkpt>
      <trkpt lat="44.44409" lon="6.99129">
        <ele>1613.8000488281</ele>
        <time>2024-09-13T07:10:31.000Z</time>
      </trkpt>
      <trkpt lat="44.44408" lon="6.99129">
        <ele>1613.8000488281</ele>
        <time>2024-09-13T07:10:32.000Z</time>
      </trkpt>
      <trkpt lat="44.44406" lon="6.99128">
        <ele>1614.1999511719</ele>
        <time>2024-09-13T07:10:33.000Z</time>
      </trkpt>
      <trkpt lat="44.44405" lon="6.99127">
        <ele>1614.4000244141</ele>
        <time>2024-09-13T07:10:34.000Z</time>
      </trkpt>
      <trkpt lat="44.44403" lon="6.99126">
        <ele>1614.5999755859</ele>
        <time>2024-09-13T07:10:35.000Z</time>
      </trkpt>
      <trkpt lat="44.44402" lon="6.99126">
        <ele>1614.5999755859</ele>
        <time>2024-09-13T07:10:36.000Z</time>
      </trkpt>
      <trkpt lat="44.444" lon="6.99125">
        <ele>1614.8000488281</ele>
        <time>2024-09-13T07:10:37.000Z</time>
      </trkpt>
      <trkpt lat="44.44398" lon="6.99125">
        <ele>1614.8000488281</ele>
        <time>2024-09-13T07:10:38.000Z</time>
      </trkpt>
      <trkpt lat="44.44397" lon="6.99126">
        <ele>1615</ele>
        <time>2024-09-13T07:10:39.000Z</time>
      </trkpt>
      <trkpt lat="44.44395" lon="6.99126">
        <ele>1615</ele>
        <time>2024-09-13T07:10:40.000Z</time>
      </trkpt>
      <trkpt lat="44.44394" lon="6.99127">
        <ele>1615.1999511719</ele>
        <time>2024-09-13T07:10:41.000Z</time>
      </trkpt>
      <trkpt lat="44.44392" lon="6.99128">
        <ele>1615.1999511719</ele>
        <time>2024-09-13T07:10:42.000Z</time>
      </trkpt>
      <trkpt lat="44.44391" lon="6.9913">
        <ele>1615.1999511719</ele>
        <time>2024-09-13T07:10:43.000Z</time>
      </trkpt>
      <trkpt lat="44.4439" lon="6.99132">
        <ele>1615.4000244141</ele>
        <time>2024-09-13T07:10:44.000Z</time>
      </trkpt>
      <trkpt lat="44.4439" lon="6.99134">
        <ele>1615.5999755859</ele>
        <time>2024-09-13T07:10:45.000Z</time>
      </trkpt>
      <trkpt lat="44.44389" lon="6.99136">
        <ele>1615.8000488281</ele>
        <time>2024-09-13T07:10:46.000Z</time>
      </trkpt>
      <trkpt lat="44.4439" lon="6.99138">
        <ele>1615.8000488281</ele>
        <time>2024-09-13T07:10:47.000Z</time>
      </trkpt>
      <trkpt lat="44.4439" lon="6.9914">
        <ele>1616</ele>
        <time>2024-09-13T07:10:48.000Z</time>
      </trkpt>
      <trkpt lat="44.4439" lon="6.99141">
        <ele>1616</ele>
        <time>2024-09-13T07:10:49.000Z</time>
      </trkpt>
      <trkpt lat="44.4439" lon="6.99143">
        <ele>1616</ele>
        <time>2024-09-13T07:10:50.000Z</time>
      </trkpt>
      <trkpt lat="44.4439" lon="6.99145">
        <ele>1616.1999511719</ele>
        <time>2024-09-13T07:10:51.000Z</time>
      </trkpt>
      <trkpt lat="44.44389" lon="6.99147">
        <ele>1616.1999511719</ele>
        <time>2024-09-13T07:10:52.000Z</time>
      </trkpt>
      <trkpt lat="44.44389" lon="6.99149">
        <ele>1616.4000244141</ele>
        <time>2024-09-13T07:10:53.000Z</time>
      </trkpt>
      <trkpt lat="44.44389" lon="6.99151">
        <ele>1616.4000244141</ele>
        <time>2024-09-13T07:10:54.000Z</time>
      </trkpt>
      <trkpt lat="44.44388" lon="6.99153">
        <ele>1616.5999755859</ele>
        <time>2024-09-13T07:10:55.000Z</time>
      </trkpt>
      <trkpt lat="44.44388" lon="6.99155">
        <ele>1616.8000488281</ele>
        <time>2024-09-13T07:10:56.000Z</time>
      </trkpt>
      <trkpt lat="44.44388" lon="6.99157">
        <ele>1617</ele>
        <time>2024-09-13T07:10:57.000Z</time>
      </trkpt>
      <trkpt lat="44.44388" lon="6.99159">
        <ele>1617</ele>
        <time>2024-09-13T07:10:58.000Z</time>
      </trkpt>
      <trkpt lat="44.44387" lon="6.99161">
        <ele>1617.1999511719</ele>
        <time>2024-09-13T07:10:59.000Z</time>
      </trkpt>
      <trkpt lat="44.44387" lon="6.99163">
        <ele>1617.5999755859</ele>
        <time>2024-09-13T07:11:00.000Z</time>
      </trkpt>
      <trkpt lat="44.44387" lon="6.99165">
        <ele>1617.5999755859</ele>
        <time>2024-09-13T07:11:01.000Z</time>
      </trkpt>
      <trkpt lat="44.44386" lon="6.99167">
        <ele>1617.8000488281</ele>
        <time>2024-09-13T07:11:02.000Z</time>
      </trkpt>
      <trkpt lat="44.44386" lon="6.99169">
        <ele>1618</ele>
        <time>2024-09-13T07:11:03.000Z</time>
      </trkpt>
      <trkpt lat="44.44386" lon="6.99171">
        <ele>1618.1999511719</ele>
        <time>2024-09-13T07:11:04.000Z</time>
      </trkpt>
      <trkpt lat="44.44385" lon="6.99173">
        <ele>1618.4000244141</ele>
        <time>2024-09-13T07:11:05.000Z</time>
      </trkpt>
      <trkpt lat="44.44384" lon="6.99175">
        <ele>1618.5999755859</ele>
        <time>2024-09-13T07:11:06.000Z</time>
      </trkpt>
      <trkpt lat="44.44383" lon="6.99176">
        <ele>1618.8000488281</ele>
        <time>2024-09-13T07:11:07.000Z</time>
      </trkpt>
      <trkpt lat="44.44383" lon="6.99178">
        <ele>1618.8000488281</ele>
        <time>2024-09-13T07:11:08.000Z</time>
      </trkpt>
      <trkpt lat="44.44382" lon="6.99179">
        <ele>1619</ele>
        <time>2024-09-13T07:11:09.000Z</time>
      </trkpt>
      <trkpt lat="44.44381" lon="6.9918">
        <ele>1619</ele>
        <time>2024-09-13T07:11:10.000Z</time>
      </trkpt>
      <trkpt lat="44.44379" lon="6.9918">
        <ele>1619.4000244141</ele>
        <time>2024-09-13T07:11:11.000Z</time>
      </trkpt>
      <trkpt lat="44.44378" lon="6.9918">
        <ele>1619.5999755859</ele>
        <time>2024-09-13T07:11:12.000Z</time>
      </trkpt>
      <trkpt lat="44.44377" lon="6.9918">
        <ele>1619.5999755859</ele>
        <time>2024-09-13T07:11:13.000Z</time>
      </trkpt>
      <trkpt lat="44.44375" lon="6.99181">
        <ele>1619.8000488281</ele>
        <time>2024-09-13T07:11:14.000Z</time>
      </trkpt>
      <trkpt lat="44.44374" lon="6.99181">
        <ele>1620</ele>
        <time>2024-09-13T07:11:15.000Z</time>
      </trkpt>
      <trkpt lat="44.44373" lon="6.99181">
        <ele>1620.1999511719</ele>
        <time>2024-09-13T07:11:16.000Z</time>
      </trkpt>
      <trkpt lat="44.44371" lon="6.99181">
        <ele>1620.4000244141</ele>
        <time>2024-09-13T07:11:17.000Z</time>
      </trkpt>
      <trkpt lat="44.44369" lon="6.99181">
        <ele>1620.5999755859</ele>
        <time>2024-09-13T07:11:18.000Z</time>
      </trkpt>
      <trkpt lat="44.44368" lon="6.99181">
        <ele>1620.8000488281</ele>
        <time>2024-09-13T07:11:19.000Z</time>
      </trkpt>
      <trkpt lat="44.44366" lon="6.99181">
        <ele>1621</ele>
        <time>2024-09-13T07:11:20.000Z</time>
      </trkpt>
      <trkpt lat="44.44365" lon="6.99181">
        <ele>1621.4000244141</ele>
        <time>2024-09-13T07:11:21.000Z</time>
      </trkpt>
      <trkpt lat="44.44363" lon="6.99182">
        <ele>1621.5999755859</ele>
        <time>2024-09-13T07:11:22.000Z</time>
      </trkpt>
      <trkpt lat="44.44362" lon="6.99181">
        <ele>1621.8000488281</ele>
        <time>2024-09-13T07:11:23.000Z</time>
      </trkpt>
      <trkpt lat="44.44361" lon="6.99181">
        <ele>1622</ele>
        <time>2024-09-13T07:11:24.000Z</time>
      </trkpt>
      <trkpt lat="44.44359" lon="6.99181">
        <ele>1622.1999511719</ele>
        <time>2024-09-13T07:11:25.000Z</time>
      </trkpt>
      <trkpt lat="44.44358" lon="6.99181">
        <ele>1622.4000244141</ele>
        <time>2024-09-13T07:11:26.000Z</time>
      </trkpt>
      <trkpt lat="44.44356" lon="6.99181">
        <ele>1622.5999755859</ele>
        <time>2024-09-13T07:11:27.000Z</time>
      </trkpt>
      <trkpt lat="44.44355" lon="6.99182">
        <ele>1622.5999755859</ele>
        <time>2024-09-13T07:11:28.000Z</time>
      </trkpt>
      <trkpt lat="44.44354" lon="6.99182">
        <ele>1622.8000488281</ele>
        <time>2024-09-13T07:11:29.000Z</time>
      </trkpt>
      <trkpt lat="44.44352" lon="6.99182">
        <ele>1623</ele>
        <time>2024-09-13T07:11:30.000Z</time>
      </trkpt>
      <trkpt lat="44.44351" lon="6.99182">
        <ele>1623.1999511719</ele>
        <time>2024-09-13T07:11:31.000Z</time>
      </trkpt>
      <trkpt lat="44.4435" lon="6.99183">
        <ele>1623.4000244141</ele>
        <time>2024-09-13T07:11:32.000Z</time>
      </trkpt>
      <trkpt lat="44.44348" lon="6.99183">
        <ele>1623.5999755859</ele>
        <time>2024-09-13T07:11:33.000Z</time>
      </trkpt>
      <trkpt lat="44.44347" lon="6.99183">
        <ele>1623.5999755859</ele>
        <time>2024-09-13T07:11:34.000Z</time>
      </trkpt>
      <trkpt lat="44.44345" lon="6.99182">
        <ele>1623.8000488281</ele>
        <time>2024-09-13T07:11:35.000Z</time>
      </trkpt>
      <trkpt lat="44.44344" lon="6.99182">
        <ele>1624.1999511719</ele>
        <time>2024-09-13T07:11:36.000Z</time>
      </trkpt>
      <trkpt lat="44.44343" lon="6.99182">
        <ele>1624.4000244141</ele>
        <time>2024-09-13T07:11:37.000Z</time>
      </trkpt>
      <trkpt lat="44.44341" lon="6.99182">
        <ele>1624.5999755859</ele>
        <time>2024-09-13T07:11:38.000Z</time>
      </trkpt>
      <trkpt lat="44.4434" lon="6.99183">
        <ele>1624.8000488281</ele>
        <time>2024-09-13T07:11:39.000Z</time>
      </trkpt>
      <trkpt lat="44.44338" lon="6.99183">
        <ele>1625</ele>
        <time>2024-09-13T07:11:40.000Z</time>
      </trkpt>
      <trkpt lat="44.44337" lon="6.99183">
        <ele>1625.1999511719</ele>
        <time>2024-09-13T07:11:41.000Z</time>
      </trkpt>
      <trkpt lat="44.44335" lon="6.99183">
        <ele>1625.4000244141</ele>
        <time>2024-09-13T07:11:42.000Z</time>
      </trkpt>
      <trkpt lat="44.44334" lon="6.99183">
        <ele>1625.5999755859</ele>
        <time>2024-09-13T07:11:43.000Z</time>
      </trkpt>
      <trkpt lat="44.44332" lon="6.99184">
        <ele>1625.8000488281</ele>
        <time>2024-09-13T07:11:44.000Z</time>
      </trkpt>
      <trkpt lat="44.44331" lon="6.99184">
        <ele>1626</ele>
        <time>2024-09-13T07:11:45.000Z</time>
      </trkpt>
      <trkpt lat="44.4433" lon="6.99185">
        <ele>1626.4000244141</ele>
        <time>2024-09-13T07:11:46.000Z</time>
      </trkpt>
      <trkpt lat="44.44328" lon="6.99185">
        <ele>1626.5999755859</ele>
        <time>2024-09-13T07:11:47.000Z</time>
      </trkpt>
      <trkpt lat="44.44327" lon="6.99186">
        <ele>1626.8000488281</ele>
        <time>2024-09-13T07:11:48.000Z</time>
      </trkpt>
      <trkpt lat="44.44326" lon="6.99186">
        <ele>1626.8000488281</ele>
        <time>2024-09-13T07:11:49.000Z</time>
      </trkpt>
      <trkpt lat="44.44324" lon="6.99187">
        <ele>1626.8000488281</ele>
        <time>2024-09-13T07:11:50.000Z</time>
      </trkpt>
      <trkpt lat="44.44323" lon="6.99187">
        <ele>1627.1999511719</ele>
        <time>2024-09-13T07:11:51.000Z</time>
      </trkpt>
      <trkpt lat="44.44321" lon="6.99188">
        <ele>1627.1999511719</ele>
        <time>2024-09-13T07:11:52.000Z</time>
      </trkpt>
      <trkpt lat="44.4432" lon="6.99188">
        <ele>1627.4000244141</ele>
        <time>2024-09-13T07:11:53.000Z</time>
      </trkpt>
      <trkpt lat="44.44318" lon="6.99189">
        <ele>1627.8000488281</ele>
        <time>2024-09-13T07:11:54.000Z</time>
      </trkpt>
      <trkpt lat="44.44317" lon="6.9919">
        <ele>1627.8000488281</ele>
        <time>2024-09-13T07:11:55.000Z</time>
      </trkpt>
      <trkpt lat="44.44316" lon="6.99191">
        <ele>1628.1999511719</ele>
        <time>2024-09-13T07:11:56.000Z</time>
      </trkpt>
      <trkpt lat="44.44315" lon="6.99193">
        <ele>1628.4000244141</ele>
        <time>2024-09-13T07:11:57.000Z</time>
      </trkpt>
      <trkpt lat="44.44315" lon="6.99194">
        <ele>1628.5999755859</ele>
        <time>2024-09-13T07:11:58.000Z</time>
      </trkpt>
      <trkpt lat="44.44314" lon="6.99196">
        <ele>1628.8000488281</ele>
        <time>2024-09-13T07:11:59.000Z</time>
      </trkpt>
      <trkpt lat="44.44313" lon="6.99197">
        <ele>1629</ele>
        <time>2024-09-13T07:12:00.000Z</time>
      </trkpt>
      <trkpt lat="44.44312" lon="6.99198">
        <ele>1629</ele>
        <time>2024-09-13T07:12:01.000Z</time>
      </trkpt>
      <trkpt lat="44.44312" lon="6.992">
        <ele>1629.1999511719</ele>
        <time>2024-09-13T07:12:02.000Z</time>
      </trkpt>
      <trkpt lat="44.44311" lon="6.99202">
        <ele>1629.4000244141</ele>
        <time>2024-09-13T07:12:03.000Z</time>
      </trkpt>
      <trkpt lat="44.4431" lon="6.99203">
        <ele>1629.5999755859</ele>
        <time>2024-09-13T07:12:04.000Z</time>
      </trkpt>
      <trkpt lat="44.44309" lon="6.99205">
        <ele>1629.8000488281</ele>
        <time>2024-09-13T07:12:05.000Z</time>
      </trkpt>
      <trkpt lat="44.44308" lon="6.99207">
        <ele>1630</ele>
        <time>2024-09-13T07:12:06.000Z</time>
      </trkpt>
      <trkpt lat="44.44307" lon="6.99208">
        <ele>1630</ele>
        <time>2024-09-13T07:12:07.000Z</time>
      </trkpt>
      <trkpt lat="44.44306" lon="6.9921">
        <ele>1630.1999511719</ele>
        <time>2024-09-13T07:12:08.000Z</time>
      </trkpt>
      <trkpt lat="44.44305" lon="6.99211">
        <ele>1630.4000244141</ele>
        <time>2024-09-13T07:12:09.000Z</time>
      </trkpt>
      <trkpt lat="44.44304" lon="6.99212">
        <ele>1630.4000244141</ele>
        <time>2024-09-13T07:12:10.000Z</time>
      </trkpt>
      <trkpt lat="44.44303" lon="6.99214">
        <ele>1630.4000244141</ele>
        <time>2024-09-13T07:12:11.000Z</time>
      </trkpt>
      <trkpt lat="44.44302" lon="6.99215">
        <ele>1630.8000488281</ele>
        <time>2024-09-13T07:12:12.000Z</time>
      </trkpt>
      <trkpt lat="44.44301" lon="6.99217">
        <ele>1631</ele>
        <time>2024-09-13T07:12:13.000Z</time>
      </trkpt>
      <trkpt lat="44.44299" lon="6.99218">
        <ele>1631.1999511719</ele>
        <time>2024-09-13T07:12:14.000Z</time>
      </trkpt>
      <trkpt lat="44.44298" lon="6.99219">
        <ele>1631.1999511719</ele>
        <time>2024-09-13T07:12:15.000Z</time>
      </trkpt>
      <trkpt lat="44.44297" lon="6.99219">
        <ele>1631.5999755859</ele>
        <time>2024-09-13T07:12:16.000Z</time>
      </trkpt>
      <trkpt lat="44.44296" lon="6.9922">
        <ele>1631.5999755859</ele>
        <time>2024-09-13T07:12:17.000Z</time>
      </trkpt>
      <trkpt lat="44.44294" lon="6.99221">
        <ele>1631.5999755859</ele>
        <time>2024-09-13T07:12:18.000Z</time>
      </trkpt>
      <trkpt lat="44.44293" lon="6.99222">
        <ele>1631.8000488281</ele>
        <time>2024-09-13T07:12:19.000Z</time>
      </trkpt>
      <trkpt lat="44.44291" lon="6.99223">
        <ele>1631.8000488281</ele>
        <time>2024-09-13T07:12:20.000Z</time>
      </trkpt>
      <trkpt lat="44.4429" lon="6.99224">
        <ele>1631.8000488281</ele>
        <time>2024-09-13T07:12:21.000Z</time>
      </trkpt>
      <trkpt lat="44.44288" lon="6.99224">
        <ele>1632</ele>
        <time>2024-09-13T07:12:22.000Z</time>
      </trkpt>
      <trkpt lat="44.44286" lon="6.99225">
        <ele>1632.1999511719</ele>
        <time>2024-09-13T07:12:23.000Z</time>
      </trkpt>
      <trkpt lat="44.44284" lon="6.99225">
        <ele>1632.4000244141</ele>
        <time>2024-09-13T07:12:24.000Z</time>
      </trkpt>
      <trkpt lat="44.44282" lon="6.99226">
        <ele>1632.5999755859</ele>
        <time>2024-09-13T07:12:25.000Z</time>
      </trkpt>
      <trkpt lat="44.4428" lon="6.99226">
        <ele>1632.5999755859</ele>
        <time>2024-09-13T07:12:26.000Z</time>
      </trkpt>
      <trkpt lat="44.44279" lon="6.99226">
        <ele>1632.5999755859</ele>
        <time>2024-09-13T07:12:27.000Z</time>
      </trkpt>
      <trkpt lat="44.44277" lon="6.99226">
        <ele>1632.8000488281</ele>
        <time>2024-09-13T07:12:28.000Z</time>
      </trkpt>
      <trkpt lat="44.44276" lon="6.99226">
        <ele>1632.8000488281</ele>
        <time>2024-09-13T07:12:29.000Z</time>
      </trkpt>
      <trkpt lat="44.44275" lon="6.99225">
        <ele>1633</ele>
        <time>2024-09-13T07:12:30.000Z</time>
      </trkpt>
      <trkpt lat="44.44273" lon="6.99225">
        <ele>1633</ele>
        <time>2024-09-13T07:12:31.000Z</time>
      </trkpt>
      <trkpt lat="44.44272" lon="6.99224">
        <ele>1633</ele>
        <time>2024-09-13T07:12:32.000Z</time>
      </trkpt>
      <trkpt lat="44.4427" lon="6.99224">
        <ele>1633.4000244141</ele>
        <time>2024-09-13T07:12:33.000Z</time>
      </trkpt>
      <trkpt lat="44.44269" lon="6.99224">
        <ele>1633.5999755859</ele>
        <time>2024-09-13T07:12:34.000Z</time>
      </trkpt>
      <trkpt lat="44.44267" lon="6.99223">
        <ele>1633.8000488281</ele>
        <time>2024-09-13T07:12:35.000Z</time>
      </trkpt>
      <trkpt lat="44.44266" lon="6.99222">
        <ele>1634</ele>
        <time>2024-09-13T07:12:36.000Z</time>
      </trkpt>
      <trkpt lat="44.44264" lon="6.99221">
        <ele>1634.1999511719</ele>
        <time>2024-09-13T07:12:37.000Z</time>
      </trkpt>
      <trkpt lat="44.44263" lon="6.99221">
        <ele>1634.1999511719</ele>
        <time>2024-09-13T07:12:38.000Z</time>
      </trkpt>
      <trkpt lat="44.44261" lon="6.9922">
        <ele>1634.5999755859</ele>
        <time>2024-09-13T07:12:39.000Z</time>
      </trkpt>
      <trkpt lat="44.4426" lon="6.99219">
        <ele>1634.5999755859</ele>
        <time>2024-09-13T07:12:40.000Z</time>
      </trkpt>
      <trkpt lat="44.44259" lon="6.99217">
        <ele>1635</ele>
        <time>2024-09-13T07:12:41.000Z</time>
      </trkpt>
      <trkpt lat="44.44258" lon="6.99216">
        <ele>1635</ele>
        <time>2024-09-13T07:12:42.000Z</time>
      </trkpt>
      <trkpt lat="44.44256" lon="6.99215">
        <ele>1635.1999511719</ele>
        <time>2024-09-13T07:12:43.000Z</time>
      </trkpt>
      <trkpt lat="44.44255" lon="6.99214">
        <ele>1635.4000244141</ele>
        <time>2024-09-13T07:12:44.000Z</time>
      </trkpt>
      <trkpt lat="44.44253" lon="6.99213">
        <ele>1635.5999755859</ele>
        <time>2024-09-13T07:12:45.000Z</time>
      </trkpt>
      <trkpt lat="44.44252" lon="6.99212">
        <ele>1635.5999755859</ele>
        <time>2024-09-13T07:12:46.000Z</time>
      </trkpt>
      <trkpt lat="44.4425" lon="6.99211">
        <ele>1635.8000488281</ele>
        <time>2024-09-13T07:12:47.000Z</time>
      </trkpt>
      <trkpt lat="44.44249" lon="6.9921">
        <ele>1635.8000488281</ele>
        <time>2024-09-13T07:12:48.000Z</time>
      </trkpt>
      <trkpt lat="44.44247" lon="6.99209">
        <ele>1635.8000488281</ele>
        <time>2024-09-13T07:12:49.000Z</time>
      </trkpt>
      <trkpt lat="44.44246" lon="6.99209">
        <ele>1636</ele>
        <time>2024-09-13T07:12:50.000Z</time>
      </trkpt>
      <trkpt lat="44.44244" lon="6.99208">
        <ele>1636.1999511719</ele>
        <time>2024-09-13T07:12:51.000Z</time>
      </trkpt>
      <trkpt lat="44.44242" lon="6.99208">
        <ele>1636.1999511719</ele>
        <time>2024-09-13T07:12:52.000Z</time>
      </trkpt>
      <trkpt lat="44.44241" lon="6.99207">
        <ele>1636.1999511719</ele>
        <time>2024-09-13T07:12:53.000Z</time>
      </trkpt>
      <trkpt lat="44.4424" lon="6.99206">
        <ele>1636.1999511719</ele>
        <time>2024-09-13T07:12:54.000Z</time>
      </trkpt>
      <trkpt lat="44.44238" lon="6.99206">
        <ele>1636.4000244141</ele>
        <time>2024-09-13T07:12:55.000Z</time>
      </trkpt>
      <trkpt lat="44.44236" lon="6.99206">
        <ele>1636.5999755859</ele>
        <time>2024-09-13T07:12:56.000Z</time>
      </trkpt>
      <trkpt lat="44.44235" lon="6.99206">
        <ele>1637</ele>
        <time>2024-09-13T07:12:57.000Z</time>
      </trkpt>
      <trkpt lat="44.44233" lon="6.99206">
        <ele>1637</ele>
        <time>2024-09-13T07:12:58.000Z</time>
      </trkpt>
      <trkpt lat="44.44231" lon="6.99206">
        <ele>1637.1999511719</ele>
        <time>2024-09-13T07:12:59.000Z</time>
      </trkpt>
      <trkpt lat="44.44229" lon="6.99205">
        <ele>1637.5999755859</ele>
        <time>2024-09-13T07:13:00.000Z</time>
      </trkpt>
      <trkpt lat="44.44227" lon="6.99205">
        <ele>1637.5999755859</ele>
        <time>2024-09-13T07:13:01.000Z</time>
      </trkpt>
      <trkpt lat="44.44226" lon="6.99205">
        <ele>1637.5999755859</ele>
        <time>2024-09-13T07:13:02.000Z</time>
      </trkpt>
      <trkpt lat="44.44224" lon="6.99204">
        <ele>1637.8000488281</ele>
        <time>2024-09-13T07:13:03.000Z</time>
      </trkpt>
      <trkpt lat="44.44222" lon="6.99204">
        <ele>1637.8000488281</ele>
        <time>2024-09-13T07:13:04.000Z</time>
      </trkpt>
      <trkpt lat="44.44221" lon="6.99204">
        <ele>1638</ele>
        <time>2024-09-13T07:13:05.000Z</time>
      </trkpt>
      <trkpt lat="44.44219" lon="6.99203">
        <ele>1638.1999511719</ele>
        <time>2024-09-13T07:13:06.000Z</time>
      </trkpt>
      <trkpt lat="44.44218" lon="6.99203">
        <ele>1638.4000244141</ele>
        <time>2024-09-13T07:13:07.000Z</time>
      </trkpt>
      <trkpt lat="44.44216" lon="6.99202">
        <ele>1638.4000244141</ele>
        <time>2024-09-13T07:13:08.000Z</time>
      </trkpt>
      <trkpt lat="44.44214" lon="6.99202">
        <ele>1638.5999755859</ele>
        <time>2024-09-13T07:13:09.000Z</time>
      </trkpt>
      <trkpt lat="44.44213" lon="6.99202">
        <ele>1638.5999755859</ele>
        <time>2024-09-13T07:13:10.000Z</time>
      </trkpt>
      <trkpt lat="44.44211" lon="6.99201">
        <ele>1638.8000488281</ele>
        <time>2024-09-13T07:13:11.000Z</time>
      </trkpt>
      <trkpt lat="44.4421" lon="6.992">
        <ele>1639</ele>
        <time>2024-09-13T07:13:12.000Z</time>
      </trkpt>
      <trkpt lat="44.44208" lon="6.99199">
        <ele>1639.1999511719</ele>
        <time>2024-09-13T07:13:13.000Z</time>
      </trkpt>
      <trkpt lat="44.44207" lon="6.99198">
        <ele>1639.1999511719</ele>
        <time>2024-09-13T07:13:14.000Z</time>
      </trkpt>
      <trkpt lat="44.44205" lon="6.99198">
        <ele>1639.4000244141</ele>
        <time>2024-09-13T07:13:15.000Z</time>
      </trkpt>
      <trkpt lat="44.44204" lon="6.99197">
        <ele>1639.5999755859</ele>
        <time>2024-09-13T07:13:16.000Z</time>
      </trkpt>
      <trkpt lat="44.44202" lon="6.99196">
        <ele>1639.5999755859</ele>
        <time>2024-09-13T07:13:17.000Z</time>
      </trkpt>
      <trkpt lat="44.44201" lon="6.99195">
        <ele>1639.5999755859</ele>
        <time>2024-09-13T07:13:18.000Z</time>
      </trkpt>
      <trkpt lat="44.44199" lon="6.99194">
        <ele>1640</ele>
        <time>2024-09-13T07:13:19.000Z</time>
      </trkpt>
      <trkpt lat="44.44197" lon="6.99194">
        <ele>1640</ele>
        <time>2024-09-13T07:13:20.000Z</time>
      </trkpt>
      <trkpt lat="44.44196" lon="6.99193">
        <ele>1640</ele>
        <time>2024-09-13T07:13:21.000Z</time>
      </trkpt>
      <trkpt lat="44.44194" lon="6.99192">
        <ele>1640.1999511719</ele>
        <time>2024-09-13T07:13:22.000Z</time>
      </trkpt>
      <trkpt lat="44.44193" lon="6.99191">
        <ele>1640.1999511719</ele>
        <time>2024-09-13T07:13:23.000Z</time>
      </trkpt>
      <trkpt lat="44.44191" lon="6.9919">
        <ele>1640.5999755859</ele>
        <time>2024-09-13T07:13:24.000Z</time>
      </trkpt>
      <trkpt lat="44.4419" lon="6.99189">
        <ele>1640.8000488281</ele>
        <time>2024-09-13T07:13:25.000Z</time>
      </trkpt>
      <trkpt lat="44.44188" lon="6.99188">
        <ele>1641.1999511719</ele>
        <time>2024-09-13T07:13:26.000Z</time>
      </trkpt>
      <trkpt lat="44.44187" lon="6.99188">
        <ele>1641.1999511719</ele>
        <time>2024-09-13T07:13:27.000Z</time>
      </trkpt>
      <trkpt lat="44.44185" lon="6.99187">
        <ele>1641.4000244141</ele>
        <time>2024-09-13T07:13:28.000Z</time>
      </trkpt>
      <trkpt lat="44.44184" lon="6.99187">
        <ele>1641.5999755859</ele>
        <time>2024-09-13T07:13:29.000Z</time>
      </trkpt>
      <trkpt lat="44.44182" lon="6.99186">
        <ele>1641.5999755859</ele>
        <time>2024-09-13T07:13:30.000Z</time>
      </trkpt>
      <trkpt lat="44.44181" lon="6.99185">
        <ele>1641.8000488281</ele>
        <time>2024-09-13T07:13:31.000Z</time>
      </trkpt>
      <trkpt lat="44.44179" lon="6.99184">
        <ele>1641.8000488281</ele>
        <time>2024-09-13T07:13:32.000Z</time>
      </trkpt>
      <trkpt lat="44.44178" lon="6.99183">
        <ele>1642</ele>
        <time>2024-09-13T07:13:33.000Z</time>
      </trkpt>
      <trkpt lat="44.44177" lon="6.99182">
        <ele>1642</ele>
        <time>2024-09-13T07:13:34.000Z</time>
      </trkpt>
      <trkpt lat="44.44175" lon="6.99181">
        <ele>1642.1999511719</ele>
        <time>2024-09-13T07:13:35.000Z</time>
      </trkpt>
      <trkpt lat="44.44174" lon="6.9918">
        <ele>1642.1999511719</ele>
        <time>2024-09-13T07:13:36.000Z</time>
      </trkpt>
      <trkpt lat="44.44172" lon="6.99179">
        <ele>1642.4000244141</ele>
        <time>2024-09-13T07:13:37.000Z</time>
      </trkpt>
      <trkpt lat="44.44171" lon="6.99177">
        <ele>1642.5999755859</ele>
        <time>2024-09-13T07:13:38.000Z</time>
      </trkpt>
      <trkpt lat="44.44169" lon="6.99176">
        <ele>1642.5999755859</ele>
        <time>2024-09-13T07:13:39.000Z</time>
      </trkpt>
      <trkpt lat="44.44168" lon="6.99175">
        <ele>1642.8000488281</ele>
        <time>2024-09-13T07:13:40.000Z</time>
      </trkpt>
      <trkpt lat="44.44166" lon="6.99174">
        <ele>1643</ele>
        <time>2024-09-13T07:13:41.000Z</time>
      </trkpt>
      <trkpt lat="44.44165" lon="6.99172">
        <ele>1643</ele>
        <time>2024-09-13T07:13:42.000Z</time>
      </trkpt>
      <trkpt lat="44.44164" lon="6.99171">
        <ele>1643.1999511719</ele>
        <time>2024-09-13T07:13:43.000Z</time>
      </trkpt>
      <trkpt lat="44.44162" lon="6.99169">
        <ele>1643.1999511719</ele>
        <time>2024-09-13T07:13:44.000Z</time>
      </trkpt>
      <trkpt lat="44.44161" lon="6.99168">
        <ele>1643.4000244141</ele>
        <time>2024-09-13T07:13:45.000Z</time>
      </trkpt>
      <trkpt lat="44.44159" lon="6.99167">
        <ele>1643.4000244141</ele>
        <time>2024-09-13T07:13:46.000Z</time>
      </trkpt>
      <trkpt lat="44.44158" lon="6.99166">
        <ele>1643.5999755859</ele>
        <time>2024-09-13T07:13:47.000Z</time>
      </trkpt>
      <trkpt lat="44.44157" lon="6.99165">
        <ele>1643.5999755859</ele>
        <time>2024-09-13T07:13:48.000Z</time>
      </trkpt>
      <trkpt lat="44.44156" lon="6.99164">
        <ele>1643.8000488281</ele>
        <time>2024-09-13T07:13:49.000Z</time>
      </trkpt>
      <trkpt lat="44.44155" lon="6.99162">
        <ele>1643.8000488281</ele>
        <time>2024-09-13T07:13:50.000Z</time>
      </trkpt>
      <trkpt lat="44.44154" lon="6.99161">
        <ele>1643.8000488281</ele>
        <time>2024-09-13T07:13:51.000Z</time>
      </trkpt>
      <trkpt lat="44.44152" lon="6.9916">
        <ele>1644</ele>
        <time>2024-09-13T07:13:52.000Z</time>
      </trkpt>
      <trkpt lat="44.44151" lon="6.99158">
        <ele>1644</ele>
        <time>2024-09-13T07:13:53.000Z</time>
      </trkpt>
      <trkpt lat="44.4415" lon="6.99157">
        <ele>1644.1999511719</ele>
        <time>2024-09-13T07:13:54.000Z</time>
      </trkpt>
      <trkpt lat="44.44149" lon="6.99155">
        <ele>1644.4000244141</ele>
        <time>2024-09-13T07:13:55.000Z</time>
      </trkpt>
      <trkpt lat="44.44148" lon="6.99154">
        <ele>1644.4000244141</ele>
        <time>2024-09-13T07:13:56.000Z</time>
      </trkpt>
      <trkpt lat="44.44146" lon="6.99152">
        <ele>1644.4000244141</ele>
        <time>2024-09-13T07:13:57.000Z</time>
      </trkpt>
      <trkpt lat="44.44145" lon="6.9915">
        <ele>1644.5999755859</ele>
        <time>2024-09-13T07:13:58.000Z</time>
      </trkpt>
      <trkpt lat="44.44144" lon="6.99148">
        <ele>1644.5999755859</ele>
        <time>2024-09-13T07:13:59.000Z</time>
      </trkpt>
      <trkpt lat="44.44143" lon="6.99147">
        <ele>1644.8000488281</ele>
        <time>2024-09-13T07:14:00.000Z</time>
      </trkpt>
      <trkpt lat="44.44142" lon="6.99145">
        <ele>1645</ele>
        <time>2024-09-13T07:14:01.000Z</time>
      </trkpt>
      <trkpt lat="44.44141" lon="6.99143">
        <ele>1645</ele>
        <time>2024-09-13T07:14:02.000Z</time>
      </trkpt>
      <trkpt lat="44.4414" lon="6.99141">
        <ele>1645</ele>
        <time>2024-09-13T07:14:03.000Z</time>
      </trkpt>
      <trkpt lat="44.44139" lon="6.9914">
        <ele>1645</ele>
        <time>2024-09-13T07:14:04.000Z</time>
      </trkpt>
      <trkpt lat="44.44138" lon="6.99138">
        <ele>1645.1999511719</ele>
        <time>2024-09-13T07:14:05.000Z</time>
      </trkpt>
      <trkpt lat="44.44137" lon="6.99136">
        <ele>1645.4000244141</ele>
        <time>2024-09-13T07:14:06.000Z</time>
      </trkpt>
      <trkpt lat="44.44137" lon="6.99134">
        <ele>1645.4000244141</ele>
        <time>2024-09-13T07:14:07.000Z</time>
      </trkpt>
      <trkpt lat="44.44136" lon="6.99132">
        <ele>1645.5999755859</ele>
        <time>2024-09-13T07:14:08.000Z</time>
      </trkpt>
      <trkpt lat="44.44135" lon="6.9913">
        <ele>1645.5999755859</ele>
        <time>2024-09-13T07:14:09.000Z</time>
      </trkpt>
      <trkpt lat="44.44135" lon="6.99128">
        <ele>1645.5999755859</ele>
        <time>2024-09-13T07:14:10.000Z</time>
      </trkpt>
      <trkpt lat="44.44134" lon="6.99126">
        <ele>1645.8000488281</ele>
        <time>2024-09-13T07:14:11.000Z</time>
      </trkpt>
      <trkpt lat="44.44131" lon="6.9912">
        <ele>1646.1999511719</ele>
        <time>2024-09-13T07:14:14.000Z</time>
      </trkpt>
      <trkpt lat="44.4413" lon="6.99118">
        <ele>1646.4000244141</ele>
        <time>2024-09-13T07:14:15.000Z</time>
      </trkpt>
      <trkpt lat="44.44129" lon="6.99116">
        <ele>1646.4000244141</ele>
        <time>2024-09-13T07:14:16.000Z</time>
      </trkpt>
      <trkpt lat="44.44128" lon="6.99114">
        <ele>1646.5999755859</ele>
        <time>2024-09-13T07:14:17.000Z</time>
      </trkpt>
      <trkpt lat="44.44127" lon="6.99112">
        <ele>1646.8000488281</ele>
        <time>2024-09-13T07:14:18.000Z</time>
      </trkpt>
      <trkpt lat="44.44125" lon="6.99111">
        <ele>1647</ele>
        <time>2024-09-13T07:14:19.000Z</time>
      </trkpt>
      <trkpt lat="44.44124" lon="6.99109">
        <ele>1647</ele>
        <time>2024-09-13T07:14:20.000Z</time>
      </trkpt>
      <trkpt lat="44.44123" lon="6.99108">
        <ele>1647.1999511719</ele>
        <time>2024-09-13T07:14:21.000Z</time>
      </trkpt>
      <trkpt lat="44.44122" lon="6.99106">
        <ele>1647.1999511719</ele>
        <time>2024-09-13T07:14:22.000Z</time>
      </trkpt>
      <trkpt lat="44.44121" lon="6.99105">
        <ele>1647.1999511719</ele>
        <time>2024-09-13T07:14:23.000Z</time>
      </trkpt>
      <trkpt lat="44.44119" lon="6.99103">
        <ele>1647.1999511719</ele>
        <time>2024-09-13T07:14:24.000Z</time>
      </trkpt>
      <trkpt lat="44.44118" lon="6.99102">
        <ele>1647.4000244141</ele>
        <time>2024-09-13T07:14:25.000Z</time>
      </trkpt>
      <trkpt lat="44.44117" lon="6.99101">
        <ele>1647.5999755859</ele>
        <time>2024-09-13T07:14:26.000Z</time>
      </trkpt>
      <trkpt lat="44.44116" lon="6.99099">
        <ele>1647.8000488281</ele>
        <time>2024-09-13T07:14:27.000Z</time>
      </trkpt>
      <trkpt lat="44.44115" lon="6.99098">
        <ele>1647.8000488281</ele>
        <time>2024-09-13T07:14:28.000Z</time>
      </trkpt>
      <trkpt lat="44.44114" lon="6.99096">
        <ele>1648</ele>
        <time>2024-09-13T07:14:29.000Z</time>
      </trkpt>
      <trkpt lat="44.44112" lon="6.99095">
        <ele>1648</ele>
        <time>2024-09-13T07:14:30.000Z</time>
      </trkpt>
      <trkpt lat="44.44111" lon="6.99093">
        <ele>1648.1999511719</ele>
        <time>2024-09-13T07:14:31.000Z</time>
      </trkpt>
      <trkpt lat="44.44109" lon="6.99092">
        <ele>1648.1999511719</ele>
        <time>2024-09-13T07:14:32.000Z</time>
      </trkpt>
      <trkpt lat="44.44108" lon="6.9909">
        <ele>1648.4000244141</ele>
        <time>2024-09-13T07:14:33.000Z</time>
      </trkpt>
      <trkpt lat="44.44106" lon="6.99089">
        <ele>1648.4000244141</ele>
        <time>2024-09-13T07:14:34.000Z</time>
      </trkpt>
      <trkpt lat="44.44105" lon="6.99088">
        <ele>1648.5999755859</ele>
        <time>2024-09-13T07:14:35.000Z</time>
      </trkpt>
      <trkpt lat="44.44105" lon="6.99086">
        <ele>1648.8000488281</ele>
        <time>2024-09-13T07:14:36.000Z</time>
      </trkpt>
      <trkpt lat="44.44104" lon="6.99085">
        <ele>1648.8000488281</ele>
        <time>2024-09-13T07:14:37.000Z</time>
      </trkpt>
      <trkpt lat="44.44103" lon="6.99083">
        <ele>1648.8000488281</ele>
        <time>2024-09-13T07:14:38.000Z</time>
      </trkpt>
      <trkpt lat="44.44101" lon="6.99081">
        <ele>1648.8000488281</ele>
        <time>2024-09-13T07:14:39.000Z</time>
      </trkpt>
      <trkpt lat="44.441" lon="6.99079">
        <ele>1649</ele>
        <time>2024-09-13T07:14:40.000Z</time>
      </trkpt>
      <trkpt lat="44.44099" lon="6.99077">
        <ele>1649</ele>
        <time>2024-09-13T07:14:41.000Z</time>
      </trkpt>
      <trkpt lat="44.44098" lon="6.99074">
        <ele>1649.1999511719</ele>
        <time>2024-09-13T07:14:42.000Z</time>
      </trkpt>
      <trkpt lat="44.44097" lon="6.99072">
        <ele>1649.1999511719</ele>
        <time>2024-09-13T07:14:43.000Z</time>
      </trkpt>
      <trkpt lat="44.44096" lon="6.99071">
        <ele>1649.4000244141</ele>
        <time>2024-09-13T07:14:44.000Z</time>
      </trkpt>
      <trkpt lat="44.44095" lon="6.99069">
        <ele>1649.5999755859</ele>
        <time>2024-09-13T07:14:45.000Z</time>
      </trkpt>
      <trkpt lat="44.44095" lon="6.99067">
        <ele>1649.5999755859</ele>
        <time>2024-09-13T07:14:46.000Z</time>
      </trkpt>
      <trkpt lat="44.44094" lon="6.99065">
        <ele>1649.8000488281</ele>
        <time>2024-09-13T07:14:47.000Z</time>
      </trkpt>
      <trkpt lat="44.44094" lon="6.99062">
        <ele>1649.8000488281</ele>
        <time>2024-09-13T07:14:48.000Z</time>
      </trkpt>
      <trkpt lat="44.44094" lon="6.9906">
        <ele>1649.8000488281</ele>
        <time>2024-09-13T07:14:49.000Z</time>
      </trkpt>
      <trkpt lat="44.44093" lon="6.99059">
        <ele>1650</ele>
        <time>2024-09-13T07:14:50.000Z</time>
      </trkpt>
      <trkpt lat="44.44093" lon="6.99056">
        <ele>1650.1999511719</ele>
        <time>2024-09-13T07:14:51.000Z</time>
      </trkpt>
      <trkpt lat="44.44093" lon="6.99055">
        <ele>1650.5999755859</ele>
        <time>2024-09-13T07:14:52.000Z</time>
      </trkpt>
      <trkpt lat="44.44093" lon="6.99053">
        <ele>1650.5999755859</ele>
        <time>2024-09-13T07:14:53.000Z</time>
      </trkpt>
      <trkpt lat="44.44093" lon="6.99051">
        <ele>1650.8000488281</ele>
        <time>2024-09-13T07:14:54.000Z</time>
      </trkpt>
      <trkpt lat="44.44093" lon="6.99049">
        <ele>1651</ele>
        <time>2024-09-13T07:14:55.000Z</time>
      </trkpt>
      <trkpt lat="44.44093" lon="6.99048">
        <ele>1651.1999511719</ele>
        <time>2024-09-13T07:14:56.000Z</time>
      </trkpt>
      <trkpt lat="44.44093" lon="6.99045">
        <ele>1651.4000244141</ele>
        <time>2024-09-13T07:14:57.000Z</time>
      </trkpt>
      <trkpt lat="44.44093" lon="6.99044">
        <ele>1651.5999755859</ele>
        <time>2024-09-13T07:14:58.000Z</time>
      </trkpt>
      <trkpt lat="44.44093" lon="6.99043">
        <ele>1651.8000488281</ele>
        <time>2024-09-13T07:14:59.000Z</time>
      </trkpt>
      <trkpt lat="44.44092" lon="6.99041">
        <ele>1652</ele>
        <time>2024-09-13T07:15:00.000Z</time>
      </trkpt>
      <trkpt lat="44.44092" lon="6.9904">
        <ele>1652.1999511719</ele>
        <time>2024-09-13T07:15:01.000Z</time>
      </trkpt>
      <trkpt lat="44.44091" lon="6.99038">
        <ele>1652.4000244141</ele>
        <time>2024-09-13T07:15:02.000Z</time>
      </trkpt>
      <trkpt lat="44.44091" lon="6.99036">
        <ele>1652.4000244141</ele>
        <time>2024-09-13T07:15:03.000Z</time>
      </trkpt>
      <trkpt lat="44.44091" lon="6.99034">
        <ele>1652.5999755859</ele>
        <time>2024-09-13T07:15:04.000Z</time>
      </trkpt>
      <trkpt lat="44.44091" lon="6.99032">
        <ele>1652.8000488281</ele>
        <time>2024-09-13T07:15:05.000Z</time>
      </trkpt>
      <trkpt lat="44.44091" lon="6.9903">
        <ele>1652.8000488281</ele>
        <time>2024-09-13T07:15:06.000Z</time>
      </trkpt>
      <trkpt lat="44.44091" lon="6.99028">
        <ele>1653.1999511719</ele>
        <time>2024-09-13T07:15:07.000Z</time>
      </trkpt>
      <trkpt lat="44.44091" lon="6.99026">
        <ele>1653.1999511719</ele>
        <time>2024-09-13T07:15:08.000Z</time>
      </trkpt>
      <trkpt lat="44.44091" lon="6.99024">
        <ele>1653.4000244141</ele>
        <time>2024-09-13T07:15:09.000Z</time>
      </trkpt>
      <trkpt lat="44.4409" lon="6.99022">
        <ele>1654</ele>
        <time>2024-09-13T07:15:10.000Z</time>
      </trkpt>
      <trkpt lat="44.4409" lon="6.9902">
        <ele>1654.1999511719</ele>
        <time>2024-09-13T07:15:11.000Z</time>
      </trkpt>
      <trkpt lat="44.4409" lon="6.99018">
        <ele>1654.4000244141</ele>
        <time>2024-09-13T07:15:12.000Z</time>
      </trkpt>
      <trkpt lat="44.4409" lon="6.99016">
        <ele>1654.4000244141</ele>
        <time>2024-09-13T07:15:13.000Z</time>
      </trkpt>
      <trkpt lat="44.44089" lon="6.99014">
        <ele>1654.5999755859</ele>
        <time>2024-09-13T07:15:14.000Z</time>
      </trkpt>
      <trkpt lat="44.4409" lon="6.99012">
        <ele>1654.8000488281</ele>
        <time>2024-09-13T07:15:15.000Z</time>
      </trkpt>
      <trkpt lat="44.44089" lon="6.9901">
        <ele>1654.8000488281</ele>
        <time>2024-09-13T07:15:16.000Z</time>
      </trkpt>
      <trkpt lat="44.44089" lon="6.99008">
        <ele>1655</ele>
        <time>2024-09-13T07:15:17.000Z</time>
      </trkpt>
      <trkpt lat="44.44089" lon="6.99007">
        <ele>1655.1999511719</ele>
        <time>2024-09-13T07:15:18.000Z</time>
      </trkpt>
      <trkpt lat="44.44089" lon="6.99005">
        <ele>1655.5999755859</ele>
        <time>2024-09-13T07:15:19.000Z</time>
      </trkpt>
      <trkpt lat="44.44089" lon="6.99003">
        <ele>1655.8000488281</ele>
        <time>2024-09-13T07:15:20.000Z</time>
      </trkpt>
      <trkpt lat="44.44089" lon="6.99002">
        <ele>1656</ele>
        <time>2024-09-13T07:15:21.000Z</time>
      </trkpt>
      <trkpt lat="44.44088" lon="6.99">
        <ele>1656.1999511719</ele>
        <time>2024-09-13T07:15:22.000Z</time>
      </trkpt>
      <trkpt lat="44.44088" lon="6.98998">
        <ele>1656.5999755859</ele>
        <time>2024-09-13T07:15:23.000Z</time>
      </trkpt>
      <trkpt lat="44.44088" lon="6.98996">
        <ele>1656.8000488281</ele>
        <time>2024-09-13T07:15:24.000Z</time>
      </trkpt>
      <trkpt lat="44.44088" lon="6.98994">
        <ele>1656.8000488281</ele>
        <time>2024-09-13T07:15:25.000Z</time>
      </trkpt>
      <trkpt lat="44.44088" lon="6.98993">
        <ele>1657</ele>
        <time>2024-09-13T07:15:26.000Z</time>
      </trkpt>
      <trkpt lat="44.44088" lon="6.98992">
        <ele>1657.4000244141</ele>
        <time>2024-09-13T07:15:27.000Z</time>
      </trkpt>
      <trkpt lat="44.44088" lon="6.9899">
        <ele>1657.4000244141</ele>
        <time>2024-09-13T07:15:28.000Z</time>
      </trkpt>
      <trkpt lat="44.44088" lon="6.98988">
        <ele>1657.5999755859</ele>
        <time>2024-09-13T07:15:29.000Z</time>
      </trkpt>
      <trkpt lat="44.44088" lon="6.98987">
        <ele>1658</ele>
        <time>2024-09-13T07:15:30.000Z</time>
      </trkpt>
      <trkpt lat="44.44088" lon="6.98985">
        <ele>1658</ele>
        <time>2024-09-13T07:15:31.000Z</time>
      </trkpt>
      <trkpt lat="44.44088" lon="6.98983">
        <ele>1658.1999511719</ele>
        <time>2024-09-13T07:15:32.000Z</time>
      </trkpt>
      <trkpt lat="44.44089" lon="6.98981">
        <ele>1658.4000244141</ele>
        <time>2024-09-13T07:15:33.000Z</time>
      </trkpt>
      <trkpt lat="44.44089" lon="6.9898">
        <ele>1658.5999755859</ele>
        <time>2024-09-13T07:15:34.000Z</time>
      </trkpt>
      <trkpt lat="44.44089" lon="6.98978">
        <ele>1658.8000488281</ele>
        <time>2024-09-13T07:15:35.000Z</time>
      </trkpt>
      <trkpt lat="44.44089" lon="6.98976">
        <ele>1658.8000488281</ele>
        <time>2024-09-13T07:15:36.000Z</time>
      </trkpt>
      <trkpt lat="44.44089" lon="6.98973">
        <ele>1659.1999511719</ele>
        <time>2024-09-13T07:15:37.000Z</time>
      </trkpt>
      <trkpt lat="44.44089" lon="6.98971">
        <ele>1659.4000244141</ele>
        <time>2024-09-13T07:15:38.000Z</time>
      </trkpt>
      <trkpt lat="44.44089" lon="6.98969">
        <ele>1659.8000488281</ele>
        <time>2024-09-13T07:15:39.000Z</time>
      </trkpt>
      <trkpt lat="44.44089" lon="6.98967">
        <ele>1660</ele>
        <time>2024-09-13T07:15:40.000Z</time>
      </trkpt>
      <trkpt lat="44.44089" lon="6.98965">
        <ele>1660.1999511719</ele>
        <time>2024-09-13T07:15:41.000Z</time>
      </trkpt>
      <trkpt lat="44.44089" lon="6.98963">
        <ele>1660.1999511719</ele>
        <time>2024-09-13T07:15:42.000Z</time>
      </trkpt>
      <trkpt lat="44.44089" lon="6.98962">
        <ele>1660.4000244141</ele>
        <time>2024-09-13T07:15:43.000Z</time>
      </trkpt>
      <trkpt lat="44.44089" lon="6.9896">
        <ele>1660.5999755859</ele>
        <time>2024-09-13T07:15:44.000Z</time>
      </trkpt>
      <trkpt lat="44.44089" lon="6.98958">
        <ele>1660.8000488281</ele>
        <time>2024-09-13T07:15:45.000Z</time>
      </trkpt>
      <trkpt lat="44.44089" lon="6.98957">
        <ele>1661</ele>
        <time>2024-09-13T07:15:46.000Z</time>
      </trkpt>
      <trkpt lat="44.44089" lon="6.98955">
        <ele>1661.1999511719</ele>
        <time>2024-09-13T07:15:47.000Z</time>
      </trkpt>
      <trkpt lat="44.44089" lon="6.98953">
        <ele>1661.4000244141</ele>
        <time>2024-09-13T07:15:48.000Z</time>
      </trkpt>
      <trkpt lat="44.4409" lon="6.98951">
        <ele>1661.4000244141</ele>
        <time>2024-09-13T07:15:49.000Z</time>
      </trkpt>
      <trkpt lat="44.4409" lon="6.9895">
        <ele>1661.8000488281</ele>
        <time>2024-09-13T07:15:50.000Z</time>
      </trkpt>
      <trkpt lat="44.4409" lon="6.98948">
        <ele>1662</ele>
        <time>2024-09-13T07:15:51.000Z</time>
      </trkpt>
      <trkpt lat="44.4409" lon="6.98946">
        <ele>1662.1999511719</ele>
        <time>2024-09-13T07:15:52.000Z</time>
      </trkpt>
      <trkpt lat="44.44091" lon="6.98944">
        <ele>1662.1999511719</ele>
        <time>2024-09-13T07:15:53.000Z</time>
      </trkpt>
      <trkpt lat="44.44091" lon="6.98943">
        <ele>1662.4000244141</ele>
        <time>2024-09-13T07:15:54.000Z</time>
      </trkpt>
      <trkpt lat="44.44091" lon="6.98941">
        <ele>1662.5999755859</ele>
        <time>2024-09-13T07:15:55.000Z</time>
      </trkpt>
      <trkpt lat="44.44092" lon="6.9894">
        <ele>1662.8000488281</ele>
        <time>2024-09-13T07:15:56.000Z</time>
      </trkpt>
      <trkpt lat="44.44092" lon="6.98938">
        <ele>1663</ele>
        <time>2024-09-13T07:15:57.000Z</time>
      </trkpt>
      <trkpt lat="44.44092" lon="6.98936">
        <ele>1663.1999511719</ele>
        <time>2024-09-13T07:15:58.000Z</time>
      </trkpt>
      <trkpt lat="44.44092" lon="6.98935">
        <ele>1663.4000244141</ele>
        <time>2024-09-13T07:15:59.000Z</time>
      </trkpt>
      <trkpt lat="44.44092" lon="6.98933">
        <ele>1663.5999755859</ele>
        <time>2024-09-13T07:16:00.000Z</time>
      </trkpt>
      <trkpt lat="44.44093" lon="6.98931">
        <ele>1663.8000488281</ele>
        <time>2024-09-13T07:16:01.000Z</time>
      </trkpt>
      <trkpt lat="44.44093" lon="6.9893">
        <ele>1664</ele>
        <time>2024-09-13T07:16:02.000Z</time>
      </trkpt>
      <trkpt lat="44.44094" lon="6.98928">
        <ele>1664</ele>
        <time>2024-09-13T07:16:03.000Z</time>
      </trkpt>
      <trkpt lat="44.44094" lon="6.98926">
        <ele>1664.4000244141</ele>
        <time>2024-09-13T07:16:04.000Z</time>
      </trkpt>
      <trkpt lat="44.44095" lon="6.98924">
        <ele>1664.4000244141</ele>
        <time>2024-09-13T07:16:05.000Z</time>
      </trkpt>
      <trkpt lat="44.44096" lon="6.98923">
        <ele>1664.4000244141</ele>
        <time>2024-09-13T07:16:06.000Z</time>
      </trkpt>
      <trkpt lat="44.44097" lon="6.98921">
        <ele>1664.5999755859</ele>
        <time>2024-09-13T07:16:07.000Z</time>
      </trkpt>
      <trkpt lat="44.44098" lon="6.9892">
        <ele>1665</ele>
        <time>2024-09-13T07:16:08.000Z</time>
      </trkpt>
      <trkpt lat="44.44098" lon="6.98918">
        <ele>1665</ele>
        <time>2024-09-13T07:16:09.000Z</time>
      </trkpt>
      <trkpt lat="44.44099" lon="6.98917">
        <ele>1665.1999511719</ele>
        <time>2024-09-13T07:16:10.000Z</time>
      </trkpt>
      <trkpt lat="44.44099" lon="6.98915">
        <ele>1665.4000244141</ele>
        <time>2024-09-13T07:16:11.000Z</time>
      </trkpt>
      <trkpt lat="44.441" lon="6.98914">
        <ele>1665.5999755859</ele>
        <time>2024-09-13T07:16:12.000Z</time>
      </trkpt>
      <trkpt lat="44.441" lon="6.98912">
        <ele>1665.5999755859</ele>
        <time>2024-09-13T07:16:13.000Z</time>
      </trkpt>
      <trkpt lat="44.44101" lon="6.9891">
        <ele>1665.5999755859</ele>
        <time>2024-09-13T07:16:14.000Z</time>
      </trkpt>
      <trkpt lat="44.44101" lon="6.98909">
        <ele>1665.8000488281</ele>
        <time>2024-09-13T07:16:15.000Z</time>
      </trkpt>
      <trkpt lat="44.44102" lon="6.98907">
        <ele>1666</ele>
        <time>2024-09-13T07:16:16.000Z</time>
      </trkpt>
      <trkpt lat="44.44102" lon="6.98906">
        <ele>1666.1999511719</ele>
        <time>2024-09-13T07:16:17.000Z</time>
      </trkpt>
      <trkpt lat="44.44103" lon="6.98904">
        <ele>1666.1999511719</ele>
        <time>2024-09-13T07:16:18.000Z</time>
      </trkpt>
      <trkpt lat="44.44103" lon="6.98903">
        <ele>1666.5999755859</ele>
        <time>2024-09-13T07:16:19.000Z</time>
      </trkpt>
      <trkpt lat="44.44103" lon="6.98901">
        <ele>1666.5999755859</ele>
        <time>2024-09-13T07:16:20.000Z</time>
      </trkpt>
      <trkpt lat="44.44103" lon="6.98899">
        <ele>1666.8000488281</ele>
        <time>2024-09-13T07:16:21.000Z</time>
      </trkpt>
      <trkpt lat="44.44103" lon="6.98897">
        <ele>1666.8000488281</ele>
        <time>2024-09-13T07:16:22.000Z</time>
      </trkpt>
      <trkpt lat="44.44104" lon="6.98895">
        <ele>1667</ele>
        <time>2024-09-13T07:16:23.000Z</time>
      </trkpt>
      <trkpt lat="44.44104" lon="6.98893">
        <ele>1667.1999511719</ele>
        <time>2024-09-13T07:16:24.000Z</time>
      </trkpt>
      <trkpt lat="44.44105" lon="6.98892">
        <ele>1667.4000244141</ele>
        <time>2024-09-13T07:16:25.000Z</time>
      </trkpt>
      <trkpt lat="44.44106" lon="6.9889">
        <ele>1667.4000244141</ele>
        <time>2024-09-13T07:16:26.000Z</time>
      </trkpt>
      <trkpt lat="44.44106" lon="6.98888">
        <ele>1667.4000244141</ele>
        <time>2024-09-13T07:16:27.000Z</time>
      </trkpt>
      <trkpt lat="44.44106" lon="6.98886">
        <ele>1667.8000488281</ele>
        <time>2024-09-13T07:16:28.000Z</time>
      </trkpt>
      <trkpt lat="44.44107" lon="6.98884">
        <ele>1667.8000488281</ele>
        <time>2024-09-13T07:16:29.000Z</time>
      </trkpt>
      <trkpt lat="44.44106" lon="6.98882">
        <ele>1668</ele>
        <time>2024-09-13T07:16:30.000Z</time>
      </trkpt>
      <trkpt lat="44.44106" lon="6.98879">
        <ele>1668.4000244141</ele>
        <time>2024-09-13T07:16:31.000Z</time>
      </trkpt>
      <trkpt lat="44.44106" lon="6.98877">
        <ele>1668.5999755859</ele>
        <time>2024-09-13T07:16:32.000Z</time>
      </trkpt>
      <trkpt lat="44.44106" lon="6.98875">
        <ele>1668.8000488281</ele>
        <time>2024-09-13T07:16:33.000Z</time>
      </trkpt>
      <trkpt lat="44.44105" lon="6.98873">
        <ele>1669</ele>
        <time>2024-09-13T07:16:34.000Z</time>
      </trkpt>
      <trkpt lat="44.44105" lon="6.98871">
        <ele>1669.1999511719</ele>
        <time>2024-09-13T07:16:35.000Z</time>
      </trkpt>
      <trkpt lat="44.44105" lon="6.9887">
        <ele>1669.4000244141</ele>
        <time>2024-09-13T07:16:36.000Z</time>
      </trkpt>
      <trkpt lat="44.44104" lon="6.98868">
        <ele>1669.5999755859</ele>
        <time>2024-09-13T07:16:37.000Z</time>
      </trkpt>
      <trkpt lat="44.44104" lon="6.98866">
        <ele>1669.8000488281</ele>
        <time>2024-09-13T07:16:38.000Z</time>
      </trkpt>
      <trkpt lat="44.44103" lon="6.98864">
        <ele>1670.1999511719</ele>
        <time>2024-09-13T07:16:39.000Z</time>
      </trkpt>
      <trkpt lat="44.44103" lon="6.98863">
        <ele>1670.4000244141</ele>
        <time>2024-09-13T07:16:40.000Z</time>
      </trkpt>
      <trkpt lat="44.44102" lon="6.98861">
        <ele>1670.5999755859</ele>
        <time>2024-09-13T07:16:41.000Z</time>
      </trkpt>
      <trkpt lat="44.44102" lon="6.98859">
        <ele>1670.5999755859</ele>
        <time>2024-09-13T07:16:42.000Z</time>
      </trkpt>
      <trkpt lat="44.44102" lon="6.98858">
        <ele>1670.8000488281</ele>
        <time>2024-09-13T07:16:43.000Z</time>
      </trkpt>
      <trkpt lat="44.44102" lon="6.98856">
        <ele>1671.1999511719</ele>
        <time>2024-09-13T07:16:44.000Z</time>
      </trkpt>
      <trkpt lat="44.44102" lon="6.98855">
        <ele>1671.1999511719</ele>
        <time>2024-09-13T07:16:45.000Z</time>
      </trkpt>
      <trkpt lat="44.44102" lon="6.98853">
        <ele>1671.1999511719</ele>
        <time>2024-09-13T07:16:46.000Z</time>
      </trkpt>
      <trkpt lat="44.44102" lon="6.98851">
        <ele>1671.4000244141</ele>
        <time>2024-09-13T07:16:47.000Z</time>
      </trkpt>
      <trkpt lat="44.44101" lon="6.98849">
        <ele>1671.5999755859</ele>
        <time>2024-09-13T07:16:48.000Z</time>
      </trkpt>
      <trkpt lat="44.44101" lon="6.98848">
        <ele>1672</ele>
        <time>2024-09-13T07:16:49.000Z</time>
      </trkpt>
      <trkpt lat="44.441" lon="6.98846">
        <ele>1672.1999511719</ele>
        <time>2024-09-13T07:16:50.000Z</time>
      </trkpt>
      <trkpt lat="44.441" lon="6.98844">
        <ele>1672.4000244141</ele>
        <time>2024-09-13T07:16:51.000Z</time>
      </trkpt>
      <trkpt lat="44.44099" lon="6.98843">
        <ele>1672.4000244141</ele>
        <time>2024-09-13T07:16:52.000Z</time>
      </trkpt>
      <trkpt lat="44.44099" lon="6.98842">
        <ele>1672.5999755859</ele>
        <time>2024-09-13T07:16:53.000Z</time>
      </trkpt>
      <trkpt lat="44.44098" lon="6.98841">
        <ele>1672.8000488281</ele>
        <time>2024-09-13T07:16:54.000Z</time>
      </trkpt>
      <trkpt lat="44.44097" lon="6.98839">
        <ele>1673</ele>
        <time>2024-09-13T07:16:55.000Z</time>
      </trkpt>
      <trkpt lat="44.44096" lon="6.98838">
        <ele>1673</ele>
        <time>2024-09-13T07:16:56.000Z</time>
      </trkpt>
      <trkpt lat="44.44095" lon="6.98836">
        <ele>1673.1999511719</ele>
        <time>2024-09-13T07:16:57.000Z</time>
      </trkpt>
      <trkpt lat="44.44094" lon="6.98835">
        <ele>1673.4000244141</ele>
        <time>2024-09-13T07:16:58.000Z</time>
      </trkpt>
      <trkpt lat="44.44092" lon="6.98834">
        <ele>1673.5999755859</ele>
        <time>2024-09-13T07:16:59.000Z</time>
      </trkpt>
      <trkpt lat="44.44091" lon="6.98833">
        <ele>1673.8000488281</ele>
        <time>2024-09-13T07:17:00.000Z</time>
      </trkpt>
      <trkpt lat="44.44089" lon="6.98833">
        <ele>1673.8000488281</ele>
        <time>2024-09-13T07:17:01.000Z</time>
      </trkpt>
      <trkpt lat="44.44088" lon="6.98833">
        <ele>1674</ele>
        <time>2024-09-13T07:17:02.000Z</time>
      </trkpt>
      <trkpt lat="44.44086" lon="6.98832">
        <ele>1674.1999511719</ele>
        <time>2024-09-13T07:17:03.000Z</time>
      </trkpt>
      <trkpt lat="44.44084" lon="6.98833">
        <ele>1674.4000244141</ele>
        <time>2024-09-13T07:17:04.000Z</time>
      </trkpt>
      <trkpt lat="44.44082" lon="6.98833">
        <ele>1674.5999755859</ele>
        <time>2024-09-13T07:17:05.000Z</time>
      </trkpt>
      <trkpt lat="44.44081" lon="6.98833">
        <ele>1674.5999755859</ele>
        <time>2024-09-13T07:17:06.000Z</time>
      </trkpt>
      <trkpt lat="44.44079" lon="6.98835">
        <ele>1674.5999755859</ele>
        <time>2024-09-13T07:17:07.000Z</time>
      </trkpt>
      <trkpt lat="44.44077" lon="6.98836">
        <ele>1674.8000488281</ele>
        <time>2024-09-13T07:17:08.000Z</time>
      </trkpt>
      <trkpt lat="44.44076" lon="6.98837">
        <ele>1675</ele>
        <time>2024-09-13T07:17:09.000Z</time>
      </trkpt>
      <trkpt lat="44.44075" lon="6.98838">
        <ele>1675.1999511719</ele>
        <time>2024-09-13T07:17:10.000Z</time>
      </trkpt>
      <trkpt lat="44.44073" lon="6.98839">
        <ele>1675.4000244141</ele>
        <time>2024-09-13T07:17:11.000Z</time>
      </trkpt>
      <trkpt lat="44.44072" lon="6.9884">
        <ele>1675.5999755859</ele>
        <time>2024-09-13T07:17:12.000Z</time>
      </trkpt>
      <trkpt lat="44.44071" lon="6.98841">
        <ele>1675.5999755859</ele>
        <time>2024-09-13T07:17:13.000Z</time>
      </trkpt>
      <trkpt lat="44.4407" lon="6.98843">
        <ele>1675.8000488281</ele>
        <time>2024-09-13T07:17:14.000Z</time>
      </trkpt>
      <trkpt lat="44.44069" lon="6.98844">
        <ele>1676</ele>
        <time>2024-09-13T07:17:15.000Z</time>
      </trkpt>
      <trkpt lat="44.44068" lon="6.98846">
        <ele>1676.1999511719</ele>
        <time>2024-09-13T07:17:16.000Z</time>
      </trkpt>
      <trkpt lat="44.44067" lon="6.98848">
        <ele>1676.4000244141</ele>
        <time>2024-09-13T07:17:17.000Z</time>
      </trkpt>
      <trkpt lat="44.44067" lon="6.98848">
        <ele>1676.5999755859</ele>
        <time>2024-09-13T07:17:18.000Z</time>
      </trkpt>
      <trkpt lat="44.44065" lon="6.9885">
        <ele>1676.8000488281</ele>
        <time>2024-09-13T07:17:19.000Z</time>
      </trkpt>
      <trkpt lat="44.44064" lon="6.98852">
        <ele>1676.8000488281</ele>
        <time>2024-09-13T07:17:20.000Z</time>
      </trkpt>
      <trkpt lat="44.44063" lon="6.98853">
        <ele>1677</ele>
        <time>2024-09-13T07:17:21.000Z</time>
      </trkpt>
      <trkpt lat="44.44062" lon="6.98854">
        <ele>1677</ele>
        <time>2024-09-13T07:17:22.000Z</time>
      </trkpt>
      <trkpt lat="44.44062" lon="6.98855">
        <ele>1677</ele>
        <time>2024-09-13T07:17:23.000Z</time>
      </trkpt>
      <trkpt lat="44.44063" lon="6.98856">
        <ele>1677</ele>
        <time>2024-09-13T07:17:24.000Z</time>
      </trkpt>
      <trkpt lat="44.44062" lon="6.98857">
        <ele>1677</ele>
        <time>2024-09-13T07:17:25.000Z</time>
      </trkpt>
      <trkpt lat="44.44062" lon="6.98857">
        <ele>1677.4000244141</ele>
        <time>2024-09-13T07:17:31.000Z</time>
      </trkpt>
      <trkpt lat="44.44062" lon="6.98857">
        <ele>1677.4000244141</ele>
        <time>2024-09-13T07:17:36.000Z</time>
      </trkpt>
      <trkpt lat="44.44062" lon="6.98857">
        <ele>1677.4000244141</ele>
        <time>2024-09-13T07:17:37.000Z</time>
      </trkpt>
      <trkpt lat="44.44061" lon="6.98859">
        <ele>1678.1999511719</ele>
        <time>2024-09-13T07:17:39.000Z</time>
      </trkpt>
      <trkpt lat="44.44061" lon="6.98859">
        <ele>1678.4000244141</ele>
        <time>2024-09-13T07:17:43.000Z</time>
      </trkpt>
      <trkpt lat="44.44061" lon="6.98859">
        <ele>1678.1999511719</ele>
        <time>2024-09-13T07:17:46.000Z</time>
      </trkpt>
      <trkpt lat="44.44061" lon="6.98858">
        <ele>1677.5999755859</ele>
        <time>2024-09-13T07:18:01.000Z</time>
      </trkpt>
      <trkpt lat="44.44061" lon="6.98857">
        <ele>1677.5999755859</ele>
        <time>2024-09-13T07:18:02.000Z</time>
      </trkpt>
      <trkpt lat="44.44061" lon="6.98856">
        <ele>1677.5999755859</ele>
        <time>2024-09-13T07:18:03.000Z</time>
      </trkpt>
      <trkpt lat="44.44061" lon="6.98856">
        <ele>1677.5999755859</ele>
        <time>2024-09-13T07:18:04.000Z</time>
      </trkpt>
      <trkpt lat="44.44061" lon="6.98856">
        <ele>1677.5999755859</ele>
        <time>2024-09-13T07:18:05.000Z</time>
      </trkpt>
      <trkpt lat="44.44059" lon="6.98855">
        <ele>1677</ele>
        <time>2024-09-13T07:18:06.000Z</time>
      </trkpt>
      <trkpt lat="44.44058" lon="6.98854">
        <ele>1677</ele>
        <time>2024-09-13T07:18:07.000Z</time>
      </trkpt>
      <trkpt lat="44.44054" lon="6.98851">
        <ele>1676.8000488281</ele>
        <time>2024-09-13T07:18:09.000Z</time>
      </trkpt>
      <trkpt lat="44.44052" lon="6.9885">
        <ele>1676.8000488281</ele>
        <time>2024-09-13T07:18:10.000Z</time>
      </trkpt>
      <trkpt lat="44.44048" lon="6.98848">
        <ele>1677</ele>
        <time>2024-09-13T07:18:12.000Z</time>
      </trkpt>
      <trkpt lat="44.44047" lon="6.98846">
        <ele>1677</ele>
        <time>2024-09-13T07:18:13.000Z</time>
      </trkpt>
      <trkpt lat="44.44045" lon="6.98844">
        <ele>1677.4000244141</ele>
        <time>2024-09-13T07:18:14.000Z</time>
      </trkpt>
      <trkpt lat="44.44043" lon="6.98843">
        <ele>1677.5999755859</ele>
        <time>2024-09-13T07:18:15.000Z</time>
      </trkpt>
      <trkpt lat="44.44042" lon="6.98842">
        <ele>1678</ele>
        <time>2024-09-13T07:18:16.000Z</time>
      </trkpt>
      <trkpt lat="44.44041" lon="6.9884">
        <ele>1678</ele>
        <time>2024-09-13T07:18:17.000Z</time>
      </trkpt>
      <trkpt lat="44.4404" lon="6.98839">
        <ele>1678.4000244141</ele>
        <time>2024-09-13T07:18:18.000Z</time>
      </trkpt>
      <trkpt lat="44.4404" lon="6.98837">
        <ele>1678.5999755859</ele>
        <time>2024-09-13T07:18:19.000Z</time>
      </trkpt>
      <trkpt lat="44.44039" lon="6.98836">
        <ele>1678.8000488281</ele>
        <time>2024-09-13T07:18:20.000Z</time>
      </trkpt>
      <trkpt lat="44.44038" lon="6.98834">
        <ele>1678.8000488281</ele>
        <time>2024-09-13T07:18:21.000Z</time>
      </trkpt>
      <trkpt lat="44.44037" lon="6.98832">
        <ele>1679.1999511719</ele>
        <time>2024-09-13T07:18:22.000Z</time>
      </trkpt>
      <trkpt lat="44.44037" lon="6.9883">
        <ele>1679.1999511719</ele>
        <time>2024-09-13T07:18:23.000Z</time>
      </trkpt>
      <trkpt lat="44.44035" lon="6.98827">
        <ele>1679.5999755859</ele>
        <time>2024-09-13T07:18:25.000Z</time>
      </trkpt>
      <trkpt lat="44.44034" lon="6.98823">
        <ele>1680</ele>
        <time>2024-09-13T07:18:27.000Z</time>
      </trkpt>
      <trkpt lat="44.44033" lon="6.98819">
        <ele>1680.1999511719</ele>
        <time>2024-09-13T07:18:29.000Z</time>
      </trkpt>
      <trkpt lat="44.44032" lon="6.98818">
        <ele>1680.4000244141</ele>
        <time>2024-09-13T07:18:30.000Z</time>
      </trkpt>
      <trkpt lat="44.44032" lon="6.98816">
        <ele>1680.8000488281</ele>
        <time>2024-09-13T07:18:31.000Z</time>
      </trkpt>
      <trkpt lat="44.44031" lon="6.98815">
        <ele>1681</ele>
        <time>2024-09-13T07:18:32.000Z</time>
      </trkpt>
      <trkpt lat="44.44031" lon="6.98813">
        <ele>1681</ele>
        <time>2024-09-13T07:18:33.000Z</time>
      </trkpt>
      <trkpt lat="44.4403" lon="6.98812">
        <ele>1681</ele>
        <time>2024-09-13T07:18:34.000Z</time>
      </trkpt>
      <trkpt lat="44.4403" lon="6.9881">
        <ele>1681.4000244141</ele>
        <time>2024-09-13T07:18:35.000Z</time>
      </trkpt>
      <trkpt lat="44.44029" lon="6.98809">
        <ele>1681.5999755859</ele>
        <time>2024-09-13T07:18:36.000Z</time>
      </trkpt>
      <trkpt lat="44.44029" lon="6.98807">
        <ele>1681.8000488281</ele>
        <time>2024-09-13T07:18:37.000Z</time>
      </trkpt>
      <trkpt lat="44.44028" lon="6.98805">
        <ele>1682</ele>
        <time>2024-09-13T07:18:38.000Z</time>
      </trkpt>
      <trkpt lat="44.44027" lon="6.98804">
        <ele>1682</ele>
        <time>2024-09-13T07:18:39.000Z</time>
      </trkpt>
      <trkpt lat="44.44027" lon="6.98803">
        <ele>1682.1999511719</ele>
        <time>2024-09-13T07:18:40.000Z</time>
      </trkpt>
      <trkpt lat="44.44026" lon="6.98802">
        <ele>1682.4000244141</ele>
        <time>2024-09-13T07:18:41.000Z</time>
      </trkpt>
      <trkpt lat="44.44025" lon="6.988">
        <ele>1682.5999755859</ele>
        <time>2024-09-13T07:18:42.000Z</time>
      </trkpt>
      <trkpt lat="44.44024" lon="6.98799">
        <ele>1682.8000488281</ele>
        <time>2024-09-13T07:18:43.000Z</time>
      </trkpt>
      <trkpt lat="44.44023" lon="6.98798">
        <ele>1683</ele>
        <time>2024-09-13T07:18:44.000Z</time>
      </trkpt>
      <trkpt lat="44.44022" lon="6.98797">
        <ele>1683.1999511719</ele>
        <time>2024-09-13T07:18:45.000Z</time>
      </trkpt>
      <trkpt lat="44.44021" lon="6.98796">
        <ele>1683.1999511719</ele>
        <time>2024-09-13T07:18:46.000Z</time>
      </trkpt>
      <trkpt lat="44.44021" lon="6.98795">
        <ele>1683.5999755859</ele>
        <time>2024-09-13T07:18:47.000Z</time>
      </trkpt>
      <trkpt lat="44.4402" lon="6.98794">
        <ele>1683.8000488281</ele>
        <time>2024-09-13T07:18:48.000Z</time>
      </trkpt>
      <trkpt lat="44.44019" lon="6.98793">
        <ele>1684</ele>
        <time>2024-09-13T07:18:49.000Z</time>
      </trkpt>
      <trkpt lat="44.44018" lon="6.98792">
        <ele>1684.1999511719</ele>
        <time>2024-09-13T07:18:50.000Z</time>
      </trkpt>
      <trkpt lat="44.44016" lon="6.98791">
        <ele>1684.1999511719</ele>
        <time>2024-09-13T07:18:51.000Z</time>
      </trkpt>
      <trkpt lat="44.44015" lon="6.98791">
        <ele>1684.4000244141</ele>
        <time>2024-09-13T07:18:52.000Z</time>
      </trkpt>
      <trkpt lat="44.44014" lon="6.9879">
        <ele>1684.5999755859</ele>
        <time>2024-09-13T07:18:53.000Z</time>
      </trkpt>
      <trkpt lat="44.44013" lon="6.98789">
        <ele>1684.5999755859</ele>
        <time>2024-09-13T07:18:54.000Z</time>
      </trkpt>
      <trkpt lat="44.44012" lon="6.98789">
        <ele>1684.8000488281</ele>
        <time>2024-09-13T07:18:55.000Z</time>
      </trkpt>
      <trkpt lat="44.44011" lon="6.98788">
        <ele>1685</ele>
        <time>2024-09-13T07:18:56.000Z</time>
      </trkpt>
      <trkpt lat="44.4401" lon="6.98788">
        <ele>1685</ele>
        <time>2024-09-13T07:18:57.000Z</time>
      </trkpt>
      <trkpt lat="44.44008" lon="6.98787">
        <ele>1685.1999511719</ele>
        <time>2024-09-13T07:18:58.000Z</time>
      </trkpt>
      <trkpt lat="44.44007" lon="6.98787">
        <ele>1685.1999511719</ele>
        <time>2024-09-13T07:18:59.000Z</time>
      </trkpt>
      <trkpt lat="44.44006" lon="6.98787">
        <ele>1685.4000244141</ele>
        <time>2024-09-13T07:19:00.000Z</time>
      </trkpt>
      <trkpt lat="44.44004" lon="6.98786">
        <ele>1685.5999755859</ele>
        <time>2024-09-13T07:19:01.000Z</time>
      </trkpt>
      <trkpt lat="44.44003" lon="6.98786">
        <ele>1685.8000488281</ele>
        <time>2024-09-13T07:19:02.000Z</time>
      </trkpt>
      <trkpt lat="44.44002" lon="6.98785">
        <ele>1686</ele>
        <time>2024-09-13T07:19:03.000Z</time>
      </trkpt>
      <trkpt lat="44.44001" lon="6.98785">
        <ele>1686.1999511719</ele>
        <time>2024-09-13T07:19:04.000Z</time>
      </trkpt>
      <trkpt lat="44.43999" lon="6.98785">
        <ele>1686.1999511719</ele>
        <time>2024-09-13T07:19:05.000Z</time>
      </trkpt>
      <trkpt lat="44.43998" lon="6.98784">
        <ele>1686.4000244141</ele>
        <time>2024-09-13T07:19:06.000Z</time>
      </trkpt>
      <trkpt lat="44.43997" lon="6.98784">
        <ele>1686.4000244141</ele>
        <time>2024-09-13T07:19:07.000Z</time>
      </trkpt>
      <trkpt lat="44.43996" lon="6.98783">
        <ele>1686.5999755859</ele>
        <time>2024-09-13T07:19:08.000Z</time>
      </trkpt>
      <trkpt lat="44.43995" lon="6.98782">
        <ele>1686.8000488281</ele>
        <time>2024-09-13T07:19:09.000Z</time>
      </trkpt>
      <trkpt lat="44.43995" lon="6.98782">
        <ele>1687</ele>
        <time>2024-09-13T07:19:10.000Z</time>
      </trkpt>
      <trkpt lat="44.43994" lon="6.98781">
        <ele>1687.1999511719</ele>
        <time>2024-09-13T07:19:11.000Z</time>
      </trkpt>
      <trkpt lat="44.43992" lon="6.98781">
        <ele>1687.1999511719</ele>
        <time>2024-09-13T07:19:12.000Z</time>
      </trkpt>
      <trkpt lat="44.43991" lon="6.98781">
        <ele>1687.1999511719</ele>
        <time>2024-09-13T07:19:13.000Z</time>
      </trkpt>
      <trkpt lat="44.43991" lon="6.9878">
        <ele>1687.4000244141</ele>
        <time>2024-09-13T07:19:14.000Z</time>
      </trkpt>
      <trkpt lat="44.4399" lon="6.9878">
        <ele>1687.5999755859</ele>
        <time>2024-09-13T07:19:15.000Z</time>
      </trkpt>
      <trkpt lat="44.43988" lon="6.98779">
        <ele>1687.8000488281</ele>
        <time>2024-09-13T07:19:16.000Z</time>
      </trkpt>
      <trkpt lat="44.43988" lon="6.98778">
        <ele>1688</ele>
        <time>2024-09-13T07:19:17.000Z</time>
      </trkpt>
      <trkpt lat="44.43986" lon="6.98778">
        <ele>1688</ele>
        <time>2024-09-13T07:19:18.000Z</time>
      </trkpt>
      <trkpt lat="44.43985" lon="6.98776">
        <ele>1688.1999511719</ele>
        <time>2024-09-13T07:19:19.000Z</time>
      </trkpt>
      <trkpt lat="44.43984" lon="6.98776">
        <ele>1688.1999511719</ele>
        <time>2024-09-13T07:19:20.000Z</time>
      </trkpt>
      <trkpt lat="44.43983" lon="6.98775">
        <ele>1688.4000244141</ele>
        <time>2024-09-13T07:19:21.000Z</time>
      </trkpt>
      <trkpt lat="44.43982" lon="6.98775">
        <ele>1688.5999755859</ele>
        <time>2024-09-13T07:19:22.000Z</time>
      </trkpt>
      <trkpt lat="44.43981" lon="6.98774">
        <ele>1688.5999755859</ele>
        <time>2024-09-13T07:19:23.000Z</time>
      </trkpt>
      <trkpt lat="44.4398" lon="6.98773">
        <ele>1688.8000488281</ele>
        <time>2024-09-13T07:19:24.000Z</time>
      </trkpt>
      <trkpt lat="44.43979" lon="6.98772">
        <ele>1689</ele>
        <time>2024-09-13T07:19:25.000Z</time>
      </trkpt>
      <trkpt lat="44.43978" lon="6.98771">
        <ele>1689.1999511719</ele>
        <time>2024-09-13T07:19:26.000Z</time>
      </trkpt>
      <trkpt lat="44.43977" lon="6.9877">
        <ele>1689.4000244141</ele>
        <time>2024-09-13T07:19:27.000Z</time>
      </trkpt>
      <trkpt lat="44.43976" lon="6.9877">
        <ele>1689.4000244141</ele>
        <time>2024-09-13T07:19:28.000Z</time>
      </trkpt>
      <trkpt lat="44.43975" lon="6.98769">
        <ele>1689.5999755859</ele>
        <time>2024-09-13T07:19:29.000Z</time>
      </trkpt>
      <trkpt lat="44.43974" lon="6.98769">
        <ele>1689.8000488281</ele>
        <time>2024-09-13T07:19:30.000Z</time>
      </trkpt>
      <trkpt lat="44.43973" lon="6.98767">
        <ele>1690</ele>
        <time>2024-09-13T07:19:31.000Z</time>
      </trkpt>
      <trkpt lat="44.43973" lon="6.98767">
        <ele>1690</ele>
        <time>2024-09-13T07:19:32.000Z</time>
      </trkpt>
      <trkpt lat="44.43972" lon="6.98766">
        <ele>1690.1999511719</ele>
        <time>2024-09-13T07:19:33.000Z</time>
      </trkpt>
      <trkpt lat="44.43971" lon="6.98765">
        <ele>1690.1999511719</ele>
        <time>2024-09-13T07:19:34.000Z</time>
      </trkpt>
      <trkpt lat="44.4397" lon="6.98764">
        <ele>1690.4000244141</ele>
        <time>2024-09-13T07:19:35.000Z</time>
      </trkpt>
      <trkpt lat="44.43969" lon="6.98764">
        <ele>1690.5999755859</ele>
        <time>2024-09-13T07:19:36.000Z</time>
      </trkpt>
      <trkpt lat="44.43968" lon="6.98763">
        <ele>1690.8000488281</ele>
        <time>2024-09-13T07:19:37.000Z</time>
      </trkpt>
      <trkpt lat="44.43967" lon="6.98762">
        <ele>1690.8000488281</ele>
        <time>2024-09-13T07:19:38.000Z</time>
      </trkpt>
      <trkpt lat="44.43966" lon="6.98761">
        <ele>1691</ele>
        <time>2024-09-13T07:19:39.000Z</time>
      </trkpt>
      <trkpt lat="44.43965" lon="6.9876">
        <ele>1691.1999511719</ele>
        <time>2024-09-13T07:19:40.000Z</time>
      </trkpt>
      <trkpt lat="44.43964" lon="6.98759">
        <ele>1691.1999511719</ele>
        <time>2024-09-13T07:19:41.000Z</time>
      </trkpt>
      <trkpt lat="44.43963" lon="6.98758">
        <ele>1691.5999755859</ele>
        <time>2024-09-13T07:19:42.000Z</time>
      </trkpt>
      <trkpt lat="44.43962" lon="6.98757">
        <ele>1691.5999755859</ele>
        <time>2024-09-13T07:19:43.000Z</time>
      </trkpt>
      <trkpt lat="44.43961" lon="6.98757">
        <ele>1691.8000488281</ele>
        <time>2024-09-13T07:19:44.000Z</time>
      </trkpt>
      <trkpt lat="44.4396" lon="6.98756">
        <ele>1691.8000488281</ele>
        <time>2024-09-13T07:19:45.000Z</time>
      </trkpt>
      <trkpt lat="44.4396" lon="6.98755">
        <ele>1692</ele>
        <time>2024-09-13T07:19:46.000Z</time>
      </trkpt>
      <trkpt lat="44.43959" lon="6.98754">
        <ele>1692</ele>
        <time>2024-09-13T07:19:47.000Z</time>
      </trkpt>
      <trkpt lat="44.43958" lon="6.98752">
        <ele>1692.1999511719</ele>
        <time>2024-09-13T07:19:48.000Z</time>
      </trkpt>
      <trkpt lat="44.43957" lon="6.98751">
        <ele>1692.4000244141</ele>
        <time>2024-09-13T07:19:49.000Z</time>
      </trkpt>
      <trkpt lat="44.43956" lon="6.9875">
        <ele>1692.5999755859</ele>
        <time>2024-09-13T07:19:50.000Z</time>
      </trkpt>
      <trkpt lat="44.43955" lon="6.98749">
        <ele>1692.8000488281</ele>
        <time>2024-09-13T07:19:51.000Z</time>
      </trkpt>
      <trkpt lat="44.43954" lon="6.98748">
        <ele>1693</ele>
        <time>2024-09-13T07:19:52.000Z</time>
      </trkpt>
      <trkpt lat="44.43953" lon="6.98747">
        <ele>1693</ele>
        <time>2024-09-13T07:19:53.000Z</time>
      </trkpt>
      <trkpt lat="44.43952" lon="6.98746">
        <ele>1693.1999511719</ele>
        <time>2024-09-13T07:19:54.000Z</time>
      </trkpt>
      <trkpt lat="44.43952" lon="6.98745">
        <ele>1693.4000244141</ele>
        <time>2024-09-13T07:19:55.000Z</time>
      </trkpt>
      <trkpt lat="44.43951" lon="6.98744">
        <ele>1693.4000244141</ele>
        <time>2024-09-13T07:19:56.000Z</time>
      </trkpt>
      <trkpt lat="44.4395" lon="6.98743">
        <ele>1693.5999755859</ele>
        <time>2024-09-13T07:19:57.000Z</time>
      </trkpt>
      <trkpt lat="44.43949" lon="6.98743">
        <ele>1693.8000488281</ele>
        <time>2024-09-13T07:19:58.000Z</time>
      </trkpt>
      <trkpt lat="44.43948" lon="6.98741">
        <ele>1694</ele>
        <time>2024-09-13T07:19:59.000Z</time>
      </trkpt>
      <trkpt lat="44.43947" lon="6.98741">
        <ele>1694.1999511719</ele>
        <time>2024-09-13T07:20:00.000Z</time>
      </trkpt>
      <trkpt lat="44.43946" lon="6.9874">
        <ele>1694.4000244141</ele>
        <time>2024-09-13T07:20:01.000Z</time>
      </trkpt>
      <trkpt lat="44.43945" lon="6.98738">
        <ele>1694.4000244141</ele>
        <time>2024-09-13T07:20:02.000Z</time>
      </trkpt>
      <trkpt lat="44.43944" lon="6.98737">
        <ele>1694.5999755859</ele>
        <time>2024-09-13T07:20:03.000Z</time>
      </trkpt>
      <trkpt lat="44.43943" lon="6.98736">
        <ele>1694.5999755859</ele>
        <time>2024-09-13T07:20:04.000Z</time>
      </trkpt>
      <trkpt lat="44.43942" lon="6.98735">
        <ele>1695</ele>
        <time>2024-09-13T07:20:05.000Z</time>
      </trkpt>
      <trkpt lat="44.43941" lon="6.98734">
        <ele>1695</ele>
        <time>2024-09-13T07:20:06.000Z</time>
      </trkpt>
      <trkpt lat="44.4394" lon="6.98733">
        <ele>1695.1999511719</ele>
        <time>2024-09-13T07:20:07.000Z</time>
      </trkpt>
      <trkpt lat="44.43939" lon="6.98732">
        <ele>1695.4000244141</ele>
        <time>2024-09-13T07:20:08.000Z</time>
      </trkpt>
      <trkpt lat="44.43938" lon="6.98731">
        <ele>1695.5999755859</ele>
        <time>2024-09-13T07:20:09.000Z</time>
      </trkpt>
      <trkpt lat="44.43937" lon="6.9873">
        <ele>1695.8000488281</ele>
        <time>2024-09-13T07:20:10.000Z</time>
      </trkpt>
      <trkpt lat="44.43936" lon="6.98729">
        <ele>1695.8000488281</ele>
        <time>2024-09-13T07:20:11.000Z</time>
      </trkpt>
      <trkpt lat="44.43935" lon="6.98728">
        <ele>1696</ele>
        <time>2024-09-13T07:20:12.000Z</time>
      </trkpt>
      <trkpt lat="44.43934" lon="6.98727">
        <ele>1696</ele>
        <time>2024-09-13T07:20:13.000Z</time>
      </trkpt>
      <trkpt lat="44.43933" lon="6.98726">
        <ele>1696.1999511719</ele>
        <time>2024-09-13T07:20:14.000Z</time>
      </trkpt>
      <trkpt lat="44.43932" lon="6.98725">
        <ele>1696.4000244141</ele>
        <time>2024-09-13T07:20:15.000Z</time>
      </trkpt>
      <trkpt lat="44.43932" lon="6.98724">
        <ele>1696.5999755859</ele>
        <time>2024-09-13T07:20:16.000Z</time>
      </trkpt>
      <trkpt lat="44.43931" lon="6.98723">
        <ele>1696.8000488281</ele>
        <time>2024-09-13T07:20:17.000Z</time>
      </trkpt>
      <trkpt lat="44.4393" lon="6.98721">
        <ele>1697</ele>
        <time>2024-09-13T07:20:18.000Z</time>
      </trkpt>
      <trkpt lat="44.43929" lon="6.9872">
        <ele>1697</ele>
        <time>2024-09-13T07:20:19.000Z</time>
      </trkpt>
      <trkpt lat="44.43928" lon="6.98719">
        <ele>1697.1999511719</ele>
        <time>2024-09-13T07:20:20.000Z</time>
      </trkpt>
      <trkpt lat="44.43927" lon="6.98718">
        <ele>1697.1999511719</ele>
        <time>2024-09-13T07:20:21.000Z</time>
      </trkpt>
      <trkpt lat="44.43926" lon="6.98717">
        <ele>1697.4000244141</ele>
        <time>2024-09-13T07:20:22.000Z</time>
      </trkpt>
      <trkpt lat="44.43925" lon="6.98716">
        <ele>1697.4000244141</ele>
        <time>2024-09-13T07:20:23.000Z</time>
      </trkpt>
      <trkpt lat="44.43924" lon="6.98714">
        <ele>1697.5999755859</ele>
        <time>2024-09-13T07:20:24.000Z</time>
      </trkpt>
      <trkpt lat="44.43923" lon="6.98713">
        <ele>1697.5999755859</ele>
        <time>2024-09-13T07:20:25.000Z</time>
      </trkpt>
      <trkpt lat="44.43922" lon="6.98712">
        <ele>1697.8000488281</ele>
        <time>2024-09-13T07:20:26.000Z</time>
      </trkpt>
      <trkpt lat="44.43921" lon="6.98711">
        <ele>1698</ele>
        <time>2024-09-13T07:20:27.000Z</time>
      </trkpt>
      <trkpt lat="44.43921" lon="6.9871">
        <ele>1698.1999511719</ele>
        <time>2024-09-13T07:20:28.000Z</time>
      </trkpt>
      <trkpt lat="44.4392" lon="6.98709">
        <ele>1698.4000244141</ele>
        <time>2024-09-13T07:20:29.000Z</time>
      </trkpt>
      <trkpt lat="44.43919" lon="6.98708">
        <ele>1698.4000244141</ele>
        <time>2024-09-13T07:20:30.000Z</time>
      </trkpt>
      <trkpt lat="44.43918" lon="6.98707">
        <ele>1698.5999755859</ele>
        <time>2024-09-13T07:20:31.000Z</time>
      </trkpt>
      <trkpt lat="44.43917" lon="6.98706">
        <ele>1698.8000488281</ele>
        <time>2024-09-13T07:20:32.000Z</time>
      </trkpt>
      <trkpt lat="44.43917" lon="6.98705">
        <ele>1698.8000488281</ele>
        <time>2024-09-13T07:20:33.000Z</time>
      </trkpt>
      <trkpt lat="44.43916" lon="6.98704">
        <ele>1699</ele>
        <time>2024-09-13T07:20:34.000Z</time>
      </trkpt>
      <trkpt lat="44.43915" lon="6.98703">
        <ele>1699</ele>
        <time>2024-09-13T07:20:35.000Z</time>
      </trkpt>
      <trkpt lat="44.43915" lon="6.98701">
        <ele>1699.1999511719</ele>
        <time>2024-09-13T07:20:36.000Z</time>
      </trkpt>
      <trkpt lat="44.43914" lon="6.987">
        <ele>1699.4000244141</ele>
        <time>2024-09-13T07:20:37.000Z</time>
      </trkpt>
      <trkpt lat="44.43913" lon="6.98698">
        <ele>1699.5999755859</ele>
        <time>2024-09-13T07:20:38.000Z</time>
      </trkpt>
      <trkpt lat="44.43912" lon="6.98697">
        <ele>1699.5999755859</ele>
        <time>2024-09-13T07:20:39.000Z</time>
      </trkpt>
      <trkpt lat="44.43911" lon="6.98695">
        <ele>1700</ele>
        <time>2024-09-13T07:20:40.000Z</time>
      </trkpt>
      <trkpt lat="44.43911" lon="6.98694">
        <ele>1700.1999511719</ele>
        <time>2024-09-13T07:20:41.000Z</time>
      </trkpt>
      <trkpt lat="44.4391" lon="6.98693">
        <ele>1700.4000244141</ele>
        <time>2024-09-13T07:20:42.000Z</time>
      </trkpt>
      <trkpt lat="44.43909" lon="6.98691">
        <ele>1700.5999755859</ele>
        <time>2024-09-13T07:20:43.000Z</time>
      </trkpt>
      <trkpt lat="44.43908" lon="6.9869">
        <ele>1700.8000488281</ele>
        <time>2024-09-13T07:20:44.000Z</time>
      </trkpt>
      <trkpt lat="44.43907" lon="6.98689">
        <ele>1700.8000488281</ele>
        <time>2024-09-13T07:20:45.000Z</time>
      </trkpt>
      <trkpt lat="44.43906" lon="6.98687">
        <ele>1701</ele>
        <time>2024-09-13T07:20:46.000Z</time>
      </trkpt>
      <trkpt lat="44.43905" lon="6.98686">
        <ele>1701.1999511719</ele>
        <time>2024-09-13T07:20:47.000Z</time>
      </trkpt>
      <trkpt lat="44.43905" lon="6.98685">
        <ele>1701.4000244141</ele>
        <time>2024-09-13T07:20:48.000Z</time>
      </trkpt>
      <trkpt lat="44.43904" lon="6.98683">
        <ele>1701.5999755859</ele>
        <time>2024-09-13T07:20:49.000Z</time>
      </trkpt>
      <trkpt lat="44.43903" lon="6.98682">
        <ele>1701.8000488281</ele>
        <time>2024-09-13T07:20:50.000Z</time>
      </trkpt>
      <trkpt lat="44.43902" lon="6.98681">
        <ele>1702</ele>
        <time>2024-09-13T07:20:51.000Z</time>
      </trkpt>
      <trkpt lat="44.43901" lon="6.98679">
        <ele>1702.1999511719</ele>
        <time>2024-09-13T07:20:52.000Z</time>
      </trkpt>
      <trkpt lat="44.43901" lon="6.98678">
        <ele>1702.4000244141</ele>
        <time>2024-09-13T07:20:53.000Z</time>
      </trkpt>
      <trkpt lat="44.439" lon="6.98676">
        <ele>1702.5999755859</ele>
        <time>2024-09-13T07:20:54.000Z</time>
      </trkpt>
      <trkpt lat="44.43899" lon="6.98675">
        <ele>1702.8000488281</ele>
        <time>2024-09-13T07:20:55.000Z</time>
      </trkpt>
      <trkpt lat="44.43898" lon="6.98674">
        <ele>1703</ele>
        <time>2024-09-13T07:20:56.000Z</time>
      </trkpt>
      <trkpt lat="44.43897" lon="6.98672">
        <ele>1703.1999511719</ele>
        <time>2024-09-13T07:20:57.000Z</time>
      </trkpt>
      <trkpt lat="44.43897" lon="6.98671">
        <ele>1703.4000244141</ele>
        <time>2024-09-13T07:20:58.000Z</time>
      </trkpt>
      <trkpt lat="44.43896" lon="6.98669">
        <ele>1703.5999755859</ele>
        <time>2024-09-13T07:20:59.000Z</time>
      </trkpt>
      <trkpt lat="44.43895" lon="6.98668">
        <ele>1703.5999755859</ele>
        <time>2024-09-13T07:21:00.000Z</time>
      </trkpt>
      <trkpt lat="44.43894" lon="6.98667">
        <ele>1703.8000488281</ele>
        <time>2024-09-13T07:21:01.000Z</time>
      </trkpt>
      <trkpt lat="44.43893" lon="6.98665">
        <ele>1704</ele>
        <time>2024-09-13T07:21:02.000Z</time>
      </trkpt>
      <trkpt lat="44.43892" lon="6.98664">
        <ele>1704.1999511719</ele>
        <time>2024-09-13T07:21:03.000Z</time>
      </trkpt>
      <trkpt lat="44.43892" lon="6.98662">
        <ele>1704.4000244141</ele>
        <time>2024-09-13T07:21:04.000Z</time>
      </trkpt>
      <trkpt lat="44.43891" lon="6.98661">
        <ele>1704.4000244141</ele>
        <time>2024-09-13T07:21:05.000Z</time>
      </trkpt>
      <trkpt lat="44.4389" lon="6.98659">
        <ele>1704.5999755859</ele>
        <time>2024-09-13T07:21:06.000Z</time>
      </trkpt>
      <trkpt lat="44.43889" lon="6.98658">
        <ele>1704.8000488281</ele>
        <time>2024-09-13T07:21:07.000Z</time>
      </trkpt>
      <trkpt lat="44.43889" lon="6.98657">
        <ele>1705</ele>
        <time>2024-09-13T07:21:08.000Z</time>
      </trkpt>
      <trkpt lat="44.43888" lon="6.98655">
        <ele>1705.1999511719</ele>
        <time>2024-09-13T07:21:09.000Z</time>
      </trkpt>
      <trkpt lat="44.43887" lon="6.98654">
        <ele>1705.4000244141</ele>
        <time>2024-09-13T07:21:10.000Z</time>
      </trkpt>
      <trkpt lat="44.43886" lon="6.98652">
        <ele>1705.5999755859</ele>
        <time>2024-09-13T07:21:11.000Z</time>
      </trkpt>
      <trkpt lat="44.43886" lon="6.98651">
        <ele>1705.8000488281</ele>
        <time>2024-09-13T07:21:12.000Z</time>
      </trkpt>
      <trkpt lat="44.43885" lon="6.98649">
        <ele>1705.8000488281</ele>
        <time>2024-09-13T07:21:13.000Z</time>
      </trkpt>
      <trkpt lat="44.43885" lon="6.98648">
        <ele>1706</ele>
        <time>2024-09-13T07:21:14.000Z</time>
      </trkpt>
      <trkpt lat="44.43884" lon="6.98646">
        <ele>1706.1999511719</ele>
        <time>2024-09-13T07:21:15.000Z</time>
      </trkpt>
      <trkpt lat="44.43883" lon="6.98645">
        <ele>1706.4000244141</ele>
        <time>2024-09-13T07:21:16.000Z</time>
      </trkpt>
      <trkpt lat="44.43883" lon="6.98644">
        <ele>1706.5999755859</ele>
        <time>2024-09-13T07:21:17.000Z</time>
      </trkpt>
      <trkpt lat="44.43882" lon="6.98643">
        <ele>1706.8000488281</ele>
        <time>2024-09-13T07:21:18.000Z</time>
      </trkpt>
      <trkpt lat="44.43881" lon="6.98641">
        <ele>1706.8000488281</ele>
        <time>2024-09-13T07:21:19.000Z</time>
      </trkpt>
      <trkpt lat="44.43881" lon="6.9864">
        <ele>1707</ele>
        <time>2024-09-13T07:21:20.000Z</time>
      </trkpt>
      <trkpt lat="44.4388" lon="6.98638">
        <ele>1707.1999511719</ele>
        <time>2024-09-13T07:21:21.000Z</time>
      </trkpt>
      <trkpt lat="44.43879" lon="6.98637">
        <ele>1707.4000244141</ele>
        <time>2024-09-13T07:21:22.000Z</time>
      </trkpt>
      <trkpt lat="44.43878" lon="6.98636">
        <ele>1707.5999755859</ele>
        <time>2024-09-13T07:21:23.000Z</time>
      </trkpt>
      <trkpt lat="44.43878" lon="6.98634">
        <ele>1707.5999755859</ele>
        <time>2024-09-13T07:21:24.000Z</time>
      </trkpt>
      <trkpt lat="44.43877" lon="6.98633">
        <ele>1707.8000488281</ele>
        <time>2024-09-13T07:21:25.000Z</time>
      </trkpt>
      <trkpt lat="44.43876" lon="6.98632">
        <ele>1708</ele>
        <time>2024-09-13T07:21:26.000Z</time>
      </trkpt>
      <trkpt lat="44.43876" lon="6.9863">
        <ele>1708</ele>
        <time>2024-09-13T07:21:27.000Z</time>
      </trkpt>
      <trkpt lat="44.43875" lon="6.98629">
        <ele>1708.1999511719</ele>
        <time>2024-09-13T07:21:28.000Z</time>
      </trkpt>
      <trkpt lat="44.43874" lon="6.98628">
        <ele>1708.4000244141</ele>
        <time>2024-09-13T07:21:29.000Z</time>
      </trkpt>
      <trkpt lat="44.43874" lon="6.98626">
        <ele>1708.5999755859</ele>
        <time>2024-09-13T07:21:30.000Z</time>
      </trkpt>
      <trkpt lat="44.43873" lon="6.98624">
        <ele>1708.8000488281</ele>
        <time>2024-09-13T07:21:31.000Z</time>
      </trkpt>
      <trkpt lat="44.43873" lon="6.98623">
        <ele>1709</ele>
        <time>2024-09-13T07:21:32.000Z</time>
      </trkpt>
      <trkpt lat="44.43873" lon="6.98621">
        <ele>1709</ele>
        <time>2024-09-13T07:21:33.000Z</time>
      </trkpt>
      <trkpt lat="44.43872" lon="6.9862">
        <ele>1709.4000244141</ele>
        <time>2024-09-13T07:21:34.000Z</time>
      </trkpt>
      <trkpt lat="44.43872" lon="6.98618">
        <ele>1709.4000244141</ele>
        <time>2024-09-13T07:21:35.000Z</time>
      </trkpt>
      <trkpt lat="44.43871" lon="6.98617">
        <ele>1709.4000244141</ele>
        <time>2024-09-13T07:21:36.000Z</time>
      </trkpt>
      <trkpt lat="44.43871" lon="6.98615">
        <ele>1709.5999755859</ele>
        <time>2024-09-13T07:21:37.000Z</time>
      </trkpt>
      <trkpt lat="44.4387" lon="6.98614">
        <ele>1709.8000488281</ele>
        <time>2024-09-13T07:21:38.000Z</time>
      </trkpt>
      <trkpt lat="44.4387" lon="6.98612">
        <ele>1709.8000488281</ele>
        <time>2024-09-13T07:21:39.000Z</time>
      </trkpt>
      <trkpt lat="44.43869" lon="6.98611">
        <ele>1710.1999511719</ele>
        <time>2024-09-13T07:21:40.000Z</time>
      </trkpt>
      <trkpt lat="44.43869" lon="6.9861">
        <ele>1710.1999511719</ele>
        <time>2024-09-13T07:21:41.000Z</time>
      </trkpt>
      <trkpt lat="44.43868" lon="6.98609">
        <ele>1710.4000244141</ele>
        <time>2024-09-13T07:21:42.000Z</time>
      </trkpt>
      <trkpt lat="44.43868" lon="6.98608">
        <ele>1710.5999755859</ele>
        <time>2024-09-13T07:21:43.000Z</time>
      </trkpt>
      <trkpt lat="44.43867" lon="6.98606">
        <ele>1710.5999755859</ele>
        <time>2024-09-13T07:21:44.000Z</time>
      </trkpt>
      <trkpt lat="44.43867" lon="6.98604">
        <ele>1710.8000488281</ele>
        <time>2024-09-13T07:21:45.000Z</time>
      </trkpt>
      <trkpt lat="44.43867" lon="6.98603">
        <ele>1711.1999511719</ele>
        <time>2024-09-13T07:21:46.000Z</time>
      </trkpt>
      <trkpt lat="44.43866" lon="6.98602">
        <ele>1711.1999511719</ele>
        <time>2024-09-13T07:21:47.000Z</time>
      </trkpt>
      <trkpt lat="44.43866" lon="6.98601">
        <ele>1711.4000244141</ele>
        <time>2024-09-13T07:21:48.000Z</time>
      </trkpt>
      <trkpt lat="44.43865" lon="6.986">
        <ele>1711.4000244141</ele>
        <time>2024-09-13T07:21:49.000Z</time>
      </trkpt>
      <trkpt lat="44.43865" lon="6.98598">
        <ele>1711.5999755859</ele>
        <time>2024-09-13T07:21:50.000Z</time>
      </trkpt>
      <trkpt lat="44.43864" lon="6.98597">
        <ele>1711.5999755859</ele>
        <time>2024-09-13T07:21:51.000Z</time>
      </trkpt>
      <trkpt lat="44.43864" lon="6.98595">
        <ele>1712</ele>
        <time>2024-09-13T07:21:52.000Z</time>
      </trkpt>
      <trkpt lat="44.43863" lon="6.98594">
        <ele>1712</ele>
        <time>2024-09-13T07:21:53.000Z</time>
      </trkpt>
      <trkpt lat="44.43863" lon="6.98593">
        <ele>1712.1999511719</ele>
        <time>2024-09-13T07:21:54.000Z</time>
      </trkpt>
      <trkpt lat="44.43862" lon="6.98591">
        <ele>1712.4000244141</ele>
        <time>2024-09-13T07:21:55.000Z</time>
      </trkpt>
      <trkpt lat="44.43861" lon="6.98589">
        <ele>1712.5999755859</ele>
        <time>2024-09-13T07:21:56.000Z</time>
      </trkpt>
      <trkpt lat="44.43861" lon="6.98588">
        <ele>1712.5999755859</ele>
        <time>2024-09-13T07:21:57.000Z</time>
      </trkpt>
      <trkpt lat="44.4386" lon="6.98586">
        <ele>1712.8000488281</ele>
        <time>2024-09-13T07:21:58.000Z</time>
      </trkpt>
      <trkpt lat="44.4386" lon="6.98584">
        <ele>1713</ele>
        <time>2024-09-13T07:21:59.000Z</time>
      </trkpt>
      <trkpt lat="44.43859" lon="6.98583">
        <ele>1713</ele>
        <time>2024-09-13T07:22:00.000Z</time>
      </trkpt>
      <trkpt lat="44.43859" lon="6.98582">
        <ele>1713.4000244141</ele>
        <time>2024-09-13T07:22:01.000Z</time>
      </trkpt>
      <trkpt lat="44.43858" lon="6.98581">
        <ele>1713.5999755859</ele>
        <time>2024-09-13T07:22:02.000Z</time>
      </trkpt>
      <trkpt lat="44.43857" lon="6.98579">
        <ele>1713.8000488281</ele>
        <time>2024-09-13T07:22:03.000Z</time>
      </trkpt>
      <trkpt lat="44.43855" lon="6.98578">
        <ele>1713.8000488281</ele>
        <time>2024-09-13T07:22:04.000Z</time>
      </trkpt>
      <trkpt lat="44.43854" lon="6.98577">
        <ele>1714</ele>
        <time>2024-09-13T07:22:05.000Z</time>
      </trkpt>
      <trkpt lat="44.43853" lon="6.98576">
        <ele>1714.1999511719</ele>
        <time>2024-09-13T07:22:06.000Z</time>
      </trkpt>
      <trkpt lat="44.43853" lon="6.98574">
        <ele>1714.4000244141</ele>
        <time>2024-09-13T07:22:07.000Z</time>
      </trkpt>
      <trkpt lat="44.43852" lon="6.98573">
        <ele>1714.5999755859</ele>
        <time>2024-09-13T07:22:08.000Z</time>
      </trkpt>
      <trkpt lat="44.43851" lon="6.98572">
        <ele>1714.8000488281</ele>
        <time>2024-09-13T07:22:09.000Z</time>
      </trkpt>
      <trkpt lat="44.4385" lon="6.98571">
        <ele>1715</ele>
        <time>2024-09-13T07:22:10.000Z</time>
      </trkpt>
      <trkpt lat="44.43849" lon="6.9857">
        <ele>1715.1999511719</ele>
        <time>2024-09-13T07:22:11.000Z</time>
      </trkpt>
      <trkpt lat="44.43848" lon="6.98569">
        <ele>1715.4000244141</ele>
        <time>2024-09-13T07:22:12.000Z</time>
      </trkpt>
      <trkpt lat="44.43848" lon="6.98567">
        <ele>1715.5999755859</ele>
        <time>2024-09-13T07:22:13.000Z</time>
      </trkpt>
      <trkpt lat="44.43847" lon="6.98567">
        <ele>1715.5999755859</ele>
        <time>2024-09-13T07:22:14.000Z</time>
      </trkpt>
      <trkpt lat="44.43846" lon="6.98566">
        <ele>1715.8000488281</ele>
        <time>2024-09-13T07:22:15.000Z</time>
      </trkpt>
      <trkpt lat="44.43845" lon="6.98565">
        <ele>1716</ele>
        <time>2024-09-13T07:22:16.000Z</time>
      </trkpt>
      <trkpt lat="44.43844" lon="6.98564">
        <ele>1716.4000244141</ele>
        <time>2024-09-13T07:22:17.000Z</time>
      </trkpt>
      <trkpt lat="44.43843" lon="6.98563">
        <ele>1716.4000244141</ele>
        <time>2024-09-13T07:22:18.000Z</time>
      </trkpt>
      <trkpt lat="44.43842" lon="6.98562">
        <ele>1716.4000244141</ele>
        <time>2024-09-13T07:22:19.000Z</time>
      </trkpt>
      <trkpt lat="44.43842" lon="6.98561">
        <ele>1716.8000488281</ele>
        <time>2024-09-13T07:22:20.000Z</time>
      </trkpt>
      <trkpt lat="44.43841" lon="6.9856">
        <ele>1717</ele>
        <time>2024-09-13T07:22:21.000Z</time>
      </trkpt>
      <trkpt lat="44.43839" lon="6.98559">
        <ele>1717.1999511719</ele>
        <time>2024-09-13T07:22:22.000Z</time>
      </trkpt>
      <trkpt lat="44.43838" lon="6.98558">
        <ele>1717.4000244141</ele>
        <time>2024-09-13T07:22:23.000Z</time>
      </trkpt>
      <trkpt lat="44.43838" lon="6.98557">
        <ele>1717.5999755859</ele>
        <time>2024-09-13T07:22:24.000Z</time>
      </trkpt>
      <trkpt lat="44.43837" lon="6.98556">
        <ele>1717.8000488281</ele>
        <time>2024-09-13T07:22:25.000Z</time>
      </trkpt>
      <trkpt lat="44.43836" lon="6.98555">
        <ele>1717.8000488281</ele>
        <time>2024-09-13T07:22:26.000Z</time>
      </trkpt>
      <trkpt lat="44.43835" lon="6.98553">
        <ele>1718</ele>
        <time>2024-09-13T07:22:27.000Z</time>
      </trkpt>
      <trkpt lat="44.43834" lon="6.98552">
        <ele>1718.4000244141</ele>
        <time>2024-09-13T07:22:28.000Z</time>
      </trkpt>
      <trkpt lat="44.43833" lon="6.98551">
        <ele>1718.5999755859</ele>
        <time>2024-09-13T07:22:29.000Z</time>
      </trkpt>
      <trkpt lat="44.43832" lon="6.9855">
        <ele>1718.5999755859</ele>
        <time>2024-09-13T07:22:30.000Z</time>
      </trkpt>
      <trkpt lat="44.43831" lon="6.9855">
        <ele>1718.8000488281</ele>
        <time>2024-09-13T07:22:31.000Z</time>
      </trkpt>
      <trkpt lat="44.4383" lon="6.98549">
        <ele>1719.1999511719</ele>
        <time>2024-09-13T07:22:32.000Z</time>
      </trkpt>
      <trkpt lat="44.43829" lon="6.98548">
        <ele>1719.1999511719</ele>
        <time>2024-09-13T07:22:33.000Z</time>
      </trkpt>
      <trkpt lat="44.43828" lon="6.98547">
        <ele>1719.4000244141</ele>
        <time>2024-09-13T07:22:34.000Z</time>
      </trkpt>
      <trkpt lat="44.43827" lon="6.98546">
        <ele>1719.5999755859</ele>
        <time>2024-09-13T07:22:35.000Z</time>
      </trkpt>
      <trkpt lat="44.43826" lon="6.98545">
        <ele>1719.8000488281</ele>
        <time>2024-09-13T07:22:36.000Z</time>
      </trkpt>
      <trkpt lat="44.43826" lon="6.98544">
        <ele>1720</ele>
        <time>2024-09-13T07:22:37.000Z</time>
      </trkpt>
      <trkpt lat="44.43825" lon="6.98543">
        <ele>1720</ele>
        <time>2024-09-13T07:22:38.000Z</time>
      </trkpt>
      <trkpt lat="44.43824" lon="6.98543">
        <ele>1720.1999511719</ele>
        <time>2024-09-13T07:22:39.000Z</time>
      </trkpt>
      <trkpt lat="44.43823" lon="6.98542">
        <ele>1720.4000244141</ele>
        <time>2024-09-13T07:22:40.000Z</time>
      </trkpt>
      <trkpt lat="44.43821" lon="6.98541">
        <ele>1720.4000244141</ele>
        <time>2024-09-13T07:22:41.000Z</time>
      </trkpt>
      <trkpt lat="44.4382" lon="6.9854">
        <ele>1720.8000488281</ele>
        <time>2024-09-13T07:22:42.000Z</time>
      </trkpt>
      <trkpt lat="44.43819" lon="6.98539">
        <ele>1720.8000488281</ele>
        <time>2024-09-13T07:22:43.000Z</time>
      </trkpt>
      <trkpt lat="44.43819" lon="6.98539">
        <ele>1721</ele>
        <time>2024-09-13T07:22:44.000Z</time>
      </trkpt>
      <trkpt lat="44.43818" lon="6.98538">
        <ele>1721.1999511719</ele>
        <time>2024-09-13T07:22:45.000Z</time>
      </trkpt>
      <trkpt lat="44.43817" lon="6.98537">
        <ele>1721.4000244141</ele>
        <time>2024-09-13T07:22:46.000Z</time>
      </trkpt>
      <trkpt lat="44.43816" lon="6.98536">
        <ele>1721.5999755859</ele>
        <time>2024-09-13T07:22:47.000Z</time>
      </trkpt>
      <trkpt lat="44.43815" lon="6.98535">
        <ele>1721.8000488281</ele>
        <time>2024-09-13T07:22:48.000Z</time>
      </trkpt>
      <trkpt lat="44.43814" lon="6.98534">
        <ele>1721.8000488281</ele>
        <time>2024-09-13T07:22:49.000Z</time>
      </trkpt>
      <trkpt lat="44.43813" lon="6.98533">
        <ele>1722.1999511719</ele>
        <time>2024-09-13T07:22:50.000Z</time>
      </trkpt>
      <trkpt lat="44.43812" lon="6.98532">
        <ele>1722.4000244141</ele>
        <time>2024-09-13T07:22:51.000Z</time>
      </trkpt>
      <trkpt lat="44.43811" lon="6.98531">
        <ele>1722.4000244141</ele>
        <time>2024-09-13T07:22:52.000Z</time>
      </trkpt>
      <trkpt lat="44.43809" lon="6.9853">
        <ele>1722.5999755859</ele>
        <time>2024-09-13T07:22:53.000Z</time>
      </trkpt>
      <trkpt lat="44.43808" lon="6.98529">
        <ele>1722.8000488281</ele>
        <time>2024-09-13T07:22:54.000Z</time>
      </trkpt>
      <trkpt lat="44.43807" lon="6.98528">
        <ele>1723.1999511719</ele>
        <time>2024-09-13T07:22:55.000Z</time>
      </trkpt>
      <trkpt lat="44.43806" lon="6.98527">
        <ele>1723.1999511719</ele>
        <time>2024-09-13T07:22:56.000Z</time>
      </trkpt>
      <trkpt lat="44.43805" lon="6.98526">
        <ele>1723.4000244141</ele>
        <time>2024-09-13T07:22:57.000Z</time>
      </trkpt>
      <trkpt lat="44.43804" lon="6.98525">
        <ele>1723.5999755859</ele>
        <time>2024-09-13T07:22:58.000Z</time>
      </trkpt>
      <trkpt lat="44.43803" lon="6.98524">
        <ele>1723.8000488281</ele>
        <time>2024-09-13T07:22:59.000Z</time>
      </trkpt>
      <trkpt lat="44.43802" lon="6.98524">
        <ele>1724</ele>
        <time>2024-09-13T07:23:00.000Z</time>
      </trkpt>
      <trkpt lat="44.43801" lon="6.98523">
        <ele>1724.1999511719</ele>
        <time>2024-09-13T07:23:01.000Z</time>
      </trkpt>
      <trkpt lat="44.438" lon="6.98522">
        <ele>1724.1999511719</ele>
        <time>2024-09-13T07:23:02.000Z</time>
      </trkpt>
      <trkpt lat="44.43799" lon="6.98521">
        <ele>1724.4000244141</ele>
        <time>2024-09-13T07:23:03.000Z</time>
      </trkpt>
      <trkpt lat="44.43798" lon="6.9852">
        <ele>1724.5999755859</ele>
        <time>2024-09-13T07:23:04.000Z</time>
      </trkpt>
      <trkpt lat="44.43797" lon="6.9852">
        <ele>1724.8000488281</ele>
        <time>2024-09-13T07:23:05.000Z</time>
      </trkpt>
      <trkpt lat="44.43796" lon="6.98519">
        <ele>1725</ele>
        <time>2024-09-13T07:23:06.000Z</time>
      </trkpt>
      <trkpt lat="44.43795" lon="6.98519">
        <ele>1725</ele>
        <time>2024-09-13T07:23:07.000Z</time>
      </trkpt>
      <trkpt lat="44.43794" lon="6.98518">
        <ele>1725.4000244141</ele>
        <time>2024-09-13T07:23:08.000Z</time>
      </trkpt>
      <trkpt lat="44.43793" lon="6.98517">
        <ele>1725.5999755859</ele>
        <time>2024-09-13T07:23:09.000Z</time>
      </trkpt>
      <trkpt lat="44.43792" lon="6.98516">
        <ele>1725.5999755859</ele>
        <time>2024-09-13T07:23:10.000Z</time>
      </trkpt>
      <trkpt lat="44.43791" lon="6.98515">
        <ele>1725.8000488281</ele>
        <time>2024-09-13T07:23:11.000Z</time>
      </trkpt>
      <trkpt lat="44.4379" lon="6.98513">
        <ele>1726</ele>
        <time>2024-09-13T07:23:12.000Z</time>
      </trkpt>
      <trkpt lat="44.43788" lon="6.98513">
        <ele>1726</ele>
        <time>2024-09-13T07:23:13.000Z</time>
      </trkpt>
      <trkpt lat="44.43787" lon="6.98512">
        <ele>1726.4000244141</ele>
        <time>2024-09-13T07:23:14.000Z</time>
      </trkpt>
      <trkpt lat="44.43786" lon="6.98511">
        <ele>1726.4000244141</ele>
        <time>2024-09-13T07:23:15.000Z</time>
      </trkpt>
      <trkpt lat="44.43785" lon="6.9851">
        <ele>1726.5999755859</ele>
        <time>2024-09-13T07:23:16.000Z</time>
      </trkpt>
      <trkpt lat="44.43784" lon="6.9851">
        <ele>1726.8000488281</ele>
        <time>2024-09-13T07:23:17.000Z</time>
      </trkpt>
      <trkpt lat="44.43783" lon="6.98509">
        <ele>1727</ele>
        <time>2024-09-13T07:23:18.000Z</time>
      </trkpt>
      <trkpt lat="44.43782" lon="6.98508">
        <ele>1727.1999511719</ele>
        <time>2024-09-13T07:23:19.000Z</time>
      </trkpt>
      <trkpt lat="44.43781" lon="6.98507">
        <ele>1727.4000244141</ele>
        <time>2024-09-13T07:23:20.000Z</time>
      </trkpt>
      <trkpt lat="44.43781" lon="6.98506">
        <ele>1727.5999755859</ele>
        <time>2024-09-13T07:23:21.000Z</time>
      </trkpt>
      <trkpt lat="44.4378" lon="6.98505">
        <ele>1727.5999755859</ele>
        <time>2024-09-13T07:23:22.000Z</time>
      </trkpt>
      <trkpt lat="44.43779" lon="6.98504">
        <ele>1727.8000488281</ele>
        <time>2024-09-13T07:23:23.000Z</time>
      </trkpt>
      <trkpt lat="44.43778" lon="6.98503">
        <ele>1728</ele>
        <time>2024-09-13T07:23:24.000Z</time>
      </trkpt>
      <trkpt lat="44.43777" lon="6.98502">
        <ele>1728.1999511719</ele>
        <time>2024-09-13T07:23:25.000Z</time>
      </trkpt>
      <trkpt lat="44.43776" lon="6.98501">
        <ele>1728.1999511719</ele>
        <time>2024-09-13T07:23:26.000Z</time>
      </trkpt>
      <trkpt lat="44.43775" lon="6.985">
        <ele>1728.4000244141</ele>
        <time>2024-09-13T07:23:27.000Z</time>
      </trkpt>
      <trkpt lat="44.43774" lon="6.98499">
        <ele>1728.5999755859</ele>
        <time>2024-09-13T07:23:28.000Z</time>
      </trkpt>
      <trkpt lat="44.43773" lon="6.98498">
        <ele>1728.5999755859</ele>
        <time>2024-09-13T07:23:29.000Z</time>
      </trkpt>
      <trkpt lat="44.43772" lon="6.98497">
        <ele>1728.8000488281</ele>
        <time>2024-09-13T07:23:30.000Z</time>
      </trkpt>
      <trkpt lat="44.4377" lon="6.98497">
        <ele>1728.8000488281</ele>
        <time>2024-09-13T07:23:31.000Z</time>
      </trkpt>
      <trkpt lat="44.43769" lon="6.98496">
        <ele>1729</ele>
        <time>2024-09-13T07:23:32.000Z</time>
      </trkpt>
      <trkpt lat="44.43768" lon="6.98495">
        <ele>1729.1999511719</ele>
        <time>2024-09-13T07:23:33.000Z</time>
      </trkpt>
      <trkpt lat="44.43767" lon="6.98494">
        <ele>1729.4000244141</ele>
        <time>2024-09-13T07:23:34.000Z</time>
      </trkpt>
      <trkpt lat="44.43766" lon="6.98494">
        <ele>1729.5999755859</ele>
        <time>2024-09-13T07:23:35.000Z</time>
      </trkpt>
      <trkpt lat="44.43764" lon="6.98493">
        <ele>1729.8000488281</ele>
        <time>2024-09-13T07:23:36.000Z</time>
      </trkpt>
      <trkpt lat="44.43763" lon="6.98493">
        <ele>1730</ele>
        <time>2024-09-13T07:23:37.000Z</time>
      </trkpt>
      <trkpt lat="44.43761" lon="6.98492">
        <ele>1730.1999511719</ele>
        <time>2024-09-13T07:23:38.000Z</time>
      </trkpt>
      <trkpt lat="44.4376" lon="6.98491">
        <ele>1730.4000244141</ele>
        <time>2024-09-13T07:23:39.000Z</time>
      </trkpt>
      <trkpt lat="44.43759" lon="6.9849">
        <ele>1730.4000244141</ele>
        <time>2024-09-13T07:23:40.000Z</time>
      </trkpt>
      <trkpt lat="44.43758" lon="6.98489">
        <ele>1730.5999755859</ele>
        <time>2024-09-13T07:23:41.000Z</time>
      </trkpt>
      <trkpt lat="44.43757" lon="6.98488">
        <ele>1730.8000488281</ele>
        <time>2024-09-13T07:23:42.000Z</time>
      </trkpt>
      <trkpt lat="44.43756" lon="6.98488">
        <ele>1731</ele>
        <time>2024-09-13T07:23:43.000Z</time>
      </trkpt>
      <trkpt lat="44.43754" lon="6.98487">
        <ele>1731</ele>
        <time>2024-09-13T07:23:44.000Z</time>
      </trkpt>
      <trkpt lat="44.43753" lon="6.98486">
        <ele>1731.1999511719</ele>
        <time>2024-09-13T07:23:45.000Z</time>
      </trkpt>
      <trkpt lat="44.43753" lon="6.98485">
        <ele>1731.4000244141</ele>
        <time>2024-09-13T07:23:46.000Z</time>
      </trkpt>
      <trkpt lat="44.43752" lon="6.98485">
        <ele>1731.5999755859</ele>
        <time>2024-09-13T07:23:47.000Z</time>
      </trkpt>
      <trkpt lat="44.43751" lon="6.98484">
        <ele>1731.8000488281</ele>
        <time>2024-09-13T07:23:48.000Z</time>
      </trkpt>
      <trkpt lat="44.4375" lon="6.98483">
        <ele>1732</ele>
        <time>2024-09-13T07:23:49.000Z</time>
      </trkpt>
      <trkpt lat="44.43748" lon="6.98482">
        <ele>1732.1999511719</ele>
        <time>2024-09-13T07:23:50.000Z</time>
      </trkpt>
      <trkpt lat="44.43748" lon="6.98482">
        <ele>1732.4000244141</ele>
        <time>2024-09-13T07:23:51.000Z</time>
      </trkpt>
      <trkpt lat="44.43746" lon="6.98481">
        <ele>1732.5999755859</ele>
        <time>2024-09-13T07:23:52.000Z</time>
      </trkpt>
      <trkpt lat="44.43745" lon="6.9848">
        <ele>1732.8000488281</ele>
        <time>2024-09-13T07:23:53.000Z</time>
      </trkpt>
      <trkpt lat="44.43744" lon="6.9848">
        <ele>1733.1999511719</ele>
        <time>2024-09-13T07:23:54.000Z</time>
      </trkpt>
      <trkpt lat="44.43743" lon="6.98479">
        <ele>1733.4000244141</ele>
        <time>2024-09-13T07:23:55.000Z</time>
      </trkpt>
      <trkpt lat="44.43742" lon="6.98478">
        <ele>1733.4000244141</ele>
        <time>2024-09-13T07:23:56.000Z</time>
      </trkpt>
      <trkpt lat="44.43741" lon="6.98477">
        <ele>1733.5999755859</ele>
        <time>2024-09-13T07:23:57.000Z</time>
      </trkpt>
      <trkpt lat="44.4374" lon="6.98476">
        <ele>1733.8000488281</ele>
        <time>2024-09-13T07:23:58.000Z</time>
      </trkpt>
      <trkpt lat="44.43739" lon="6.98475">
        <ele>1734</ele>
        <time>2024-09-13T07:23:59.000Z</time>
      </trkpt>
      <trkpt lat="44.43737" lon="6.98475">
        <ele>1734</ele>
        <time>2024-09-13T07:24:00.000Z</time>
      </trkpt>
      <trkpt lat="44.43736" lon="6.98474">
        <ele>1734.1999511719</ele>
        <time>2024-09-13T07:24:01.000Z</time>
      </trkpt>
      <trkpt lat="44.43735" lon="6.98473">
        <ele>1734.4000244141</ele>
        <time>2024-09-13T07:24:02.000Z</time>
      </trkpt>
      <trkpt lat="44.43734" lon="6.98472">
        <ele>1734.8000488281</ele>
        <time>2024-09-13T07:24:03.000Z</time>
      </trkpt>
      <trkpt lat="44.43733" lon="6.98472">
        <ele>1735</ele>
        <time>2024-09-13T07:24:04.000Z</time>
      </trkpt>
      <trkpt lat="44.43732" lon="6.98471">
        <ele>1735.1999511719</ele>
        <time>2024-09-13T07:24:05.000Z</time>
      </trkpt>
      <trkpt lat="44.43731" lon="6.9847">
        <ele>1735.1999511719</ele>
        <time>2024-09-13T07:24:06.000Z</time>
      </trkpt>
      <trkpt lat="44.4373" lon="6.98469">
        <ele>1735.1999511719</ele>
        <time>2024-09-13T07:24:07.000Z</time>
      </trkpt>
      <trkpt lat="44.43729" lon="6.98468">
        <ele>1735.4000244141</ele>
        <time>2024-09-13T07:24:08.000Z</time>
      </trkpt>
      <trkpt lat="44.43728" lon="6.98467">
        <ele>1735.4000244141</ele>
        <time>2024-09-13T07:24:09.000Z</time>
      </trkpt>
      <trkpt lat="44.43727" lon="6.98467">
        <ele>1735.5999755859</ele>
        <time>2024-09-13T07:24:10.000Z</time>
      </trkpt>
      <trkpt lat="44.43726" lon="6.98465">
        <ele>1735.5999755859</ele>
        <time>2024-09-13T07:24:11.000Z</time>
      </trkpt>
      <trkpt lat="44.43725" lon="6.98464">
        <ele>1735.8000488281</ele>
        <time>2024-09-13T07:24:12.000Z</time>
      </trkpt>
      <trkpt lat="44.43724" lon="6.98463">
        <ele>1736</ele>
        <time>2024-09-13T07:24:13.000Z</time>
      </trkpt>
      <trkpt lat="44.43723" lon="6.98462">
        <ele>1736.4000244141</ele>
        <time>2024-09-13T07:24:14.000Z</time>
      </trkpt>
      <trkpt lat="44.43722" lon="6.98461">
        <ele>1736.5999755859</ele>
        <time>2024-09-13T07:24:15.000Z</time>
      </trkpt>
      <trkpt lat="44.43722" lon="6.9846">
        <ele>1737</ele>
        <time>2024-09-13T07:24:16.000Z</time>
      </trkpt>
      <trkpt lat="44.43721" lon="6.98459">
        <ele>1737.1999511719</ele>
        <time>2024-09-13T07:24:17.000Z</time>
      </trkpt>
      <trkpt lat="44.4372" lon="6.98458">
        <ele>1737.1999511719</ele>
        <time>2024-09-13T07:24:18.000Z</time>
      </trkpt>
      <trkpt lat="44.43719" lon="6.98457">
        <ele>1737.4000244141</ele>
        <time>2024-09-13T07:24:19.000Z</time>
      </trkpt>
      <trkpt lat="44.43718" lon="6.98456">
        <ele>1737.5999755859</ele>
        <time>2024-09-13T07:24:20.000Z</time>
      </trkpt>
      <trkpt lat="44.43717" lon="6.98455">
        <ele>1737.8000488281</ele>
        <time>2024-09-13T07:24:21.000Z</time>
      </trkpt>
      <trkpt lat="44.43716" lon="6.98454">
        <ele>1738</ele>
        <time>2024-09-13T07:24:22.000Z</time>
      </trkpt>
      <trkpt lat="44.43716" lon="6.98453">
        <ele>1738.1999511719</ele>
        <time>2024-09-13T07:24:23.000Z</time>
      </trkpt>
      <trkpt lat="44.43715" lon="6.98452">
        <ele>1738.4000244141</ele>
        <time>2024-09-13T07:24:24.000Z</time>
      </trkpt>
      <trkpt lat="44.43714" lon="6.9845">
        <ele>1738.5999755859</ele>
        <time>2024-09-13T07:24:25.000Z</time>
      </trkpt>
      <trkpt lat="44.43713" lon="6.98449">
        <ele>1738.8000488281</ele>
        <time>2024-09-13T07:24:26.000Z</time>
      </trkpt>
      <trkpt lat="44.43712" lon="6.98448">
        <ele>1739</ele>
        <time>2024-09-13T07:24:27.000Z</time>
      </trkpt>
      <trkpt lat="44.43711" lon="6.98447">
        <ele>1739</ele>
        <time>2024-09-13T07:24:28.000Z</time>
      </trkpt>
      <trkpt lat="44.4371" lon="6.98446">
        <ele>1739.1999511719</ele>
        <time>2024-09-13T07:24:29.000Z</time>
      </trkpt>
      <trkpt lat="44.4371" lon="6.98445">
        <ele>1739.4000244141</ele>
        <time>2024-09-13T07:24:30.000Z</time>
      </trkpt>
      <trkpt lat="44.43709" lon="6.98443">
        <ele>1739.5999755859</ele>
        <time>2024-09-13T07:24:31.000Z</time>
      </trkpt>
      <trkpt lat="44.43708" lon="6.98442">
        <ele>1740</ele>
        <time>2024-09-13T07:24:32.000Z</time>
      </trkpt>
      <trkpt lat="44.43707" lon="6.98442">
        <ele>1740.1999511719</ele>
        <time>2024-09-13T07:24:33.000Z</time>
      </trkpt>
      <trkpt lat="44.43706" lon="6.98441">
        <ele>1740.4000244141</ele>
        <time>2024-09-13T07:24:34.000Z</time>
      </trkpt>
      <trkpt lat="44.43705" lon="6.98439">
        <ele>1740.5999755859</ele>
        <time>2024-09-13T07:24:35.000Z</time>
      </trkpt>
      <trkpt lat="44.43704" lon="6.98438">
        <ele>1740.8000488281</ele>
        <time>2024-09-13T07:24:36.000Z</time>
      </trkpt>
      <trkpt lat="44.43704" lon="6.98437">
        <ele>1741</ele>
        <time>2024-09-13T07:24:37.000Z</time>
      </trkpt>
      <trkpt lat="44.43703" lon="6.98436">
        <ele>1741.1999511719</ele>
        <time>2024-09-13T07:24:38.000Z</time>
      </trkpt>
      <trkpt lat="44.43702" lon="6.98434">
        <ele>1741.4000244141</ele>
        <time>2024-09-13T07:24:39.000Z</time>
      </trkpt>
      <trkpt lat="44.43701" lon="6.98433">
        <ele>1741.5999755859</ele>
        <time>2024-09-13T07:24:40.000Z</time>
      </trkpt>
      <trkpt lat="44.437" lon="6.98431">
        <ele>1741.8000488281</ele>
        <time>2024-09-13T07:24:41.000Z</time>
      </trkpt>
      <trkpt lat="44.43699" lon="6.9843">
        <ele>1741.8000488281</ele>
        <time>2024-09-13T07:24:42.000Z</time>
      </trkpt>
      <trkpt lat="44.43698" lon="6.98428">
        <ele>1742</ele>
        <time>2024-09-13T07:24:43.000Z</time>
      </trkpt>
      <trkpt lat="44.43698" lon="6.98427">
        <ele>1742</ele>
        <time>2024-09-13T07:24:44.000Z</time>
      </trkpt>
      <trkpt lat="44.43697" lon="6.98426">
        <ele>1742</ele>
        <time>2024-09-13T07:24:45.000Z</time>
      </trkpt>
      <trkpt lat="44.43696" lon="6.98426">
        <ele>1742.1999511719</ele>
        <time>2024-09-13T07:24:46.000Z</time>
      </trkpt>
      <trkpt lat="44.43694" lon="6.98426">
        <ele>1742.1999511719</ele>
        <time>2024-09-13T07:24:47.000Z</time>
      </trkpt>
      <trkpt lat="44.43693" lon="6.98425">
        <ele>1742.1999511719</ele>
        <time>2024-09-13T07:24:48.000Z</time>
      </trkpt>
      <trkpt lat="44.43692" lon="6.98424">
        <ele>1742.4000244141</ele>
        <time>2024-09-13T07:24:49.000Z</time>
      </trkpt>
      <trkpt lat="44.43691" lon="6.98423">
        <ele>1742.5999755859</ele>
        <time>2024-09-13T07:24:50.000Z</time>
      </trkpt>
      <trkpt lat="44.43691" lon="6.98421">
        <ele>1742.8000488281</ele>
        <time>2024-09-13T07:24:51.000Z</time>
      </trkpt>
      <trkpt lat="44.4369" lon="6.9842">
        <ele>1743</ele>
        <time>2024-09-13T07:24:52.000Z</time>
      </trkpt>
      <trkpt lat="44.43689" lon="6.98419">
        <ele>1743</ele>
        <time>2024-09-13T07:24:53.000Z</time>
      </trkpt>
      <trkpt lat="44.43688" lon="6.98418">
        <ele>1743.1999511719</ele>
        <time>2024-09-13T07:24:54.000Z</time>
      </trkpt>
      <trkpt lat="44.43687" lon="6.98417">
        <ele>1743.1999511719</ele>
        <time>2024-09-13T07:24:55.000Z</time>
      </trkpt>
      <trkpt lat="44.43686" lon="6.98416">
        <ele>1743.4000244141</ele>
        <time>2024-09-13T07:24:56.000Z</time>
      </trkpt>
      <trkpt lat="44.43685" lon="6.98415">
        <ele>1743.5999755859</ele>
        <time>2024-09-13T07:24:57.000Z</time>
      </trkpt>
      <trkpt lat="44.43684" lon="6.98414">
        <ele>1743.8000488281</ele>
        <time>2024-09-13T07:24:58.000Z</time>
      </trkpt>
      <trkpt lat="44.43683" lon="6.98413">
        <ele>1743.8000488281</ele>
        <time>2024-09-13T07:24:59.000Z</time>
      </trkpt>
      <trkpt lat="44.43683" lon="6.98412">
        <ele>1744</ele>
        <time>2024-09-13T07:25:00.000Z</time>
      </trkpt>
      <trkpt lat="44.43681" lon="6.98411">
        <ele>1744.1999511719</ele>
        <time>2024-09-13T07:25:01.000Z</time>
      </trkpt>
      <trkpt lat="44.43681" lon="6.9841">
        <ele>1744.4000244141</ele>
        <time>2024-09-13T07:25:02.000Z</time>
      </trkpt>
      <trkpt lat="44.4368" lon="6.9841">
        <ele>1744.5999755859</ele>
        <time>2024-09-13T07:25:03.000Z</time>
      </trkpt>
      <trkpt lat="44.4368" lon="6.98409">
        <ele>1744.8000488281</ele>
        <time>2024-09-13T07:25:04.000Z</time>
      </trkpt>
      <trkpt lat="44.43679" lon="6.98408">
        <ele>1745</ele>
        <time>2024-09-13T07:25:05.000Z</time>
      </trkpt>
      <trkpt lat="44.43678" lon="6.98407">
        <ele>1745.1999511719</ele>
        <time>2024-09-13T07:25:06.000Z</time>
      </trkpt>
      <trkpt lat="44.43677" lon="6.98406">
        <ele>1745.1999511719</ele>
        <time>2024-09-13T07:25:07.000Z</time>
      </trkpt>
      <trkpt lat="44.43677" lon="6.98406">
        <ele>1745.4000244141</ele>
        <time>2024-09-13T07:25:08.000Z</time>
      </trkpt>
      <trkpt lat="44.43676" lon="6.98405">
        <ele>1745.5999755859</ele>
        <time>2024-09-13T07:25:09.000Z</time>
      </trkpt>
      <trkpt lat="44.43675" lon="6.98404">
        <ele>1745.8000488281</ele>
        <time>2024-09-13T07:25:10.000Z</time>
      </trkpt>
      <trkpt lat="44.43674" lon="6.98403">
        <ele>1745.8000488281</ele>
        <time>2024-09-13T07:25:11.000Z</time>
      </trkpt>
      <trkpt lat="44.43673" lon="6.98402">
        <ele>1746</ele>
        <time>2024-09-13T07:25:12.000Z</time>
      </trkpt>
      <trkpt lat="44.43672" lon="6.98401">
        <ele>1746.1999511719</ele>
        <time>2024-09-13T07:25:13.000Z</time>
      </trkpt>
      <trkpt lat="44.43671" lon="6.98401">
        <ele>1746.4000244141</ele>
        <time>2024-09-13T07:25:14.000Z</time>
      </trkpt>
      <trkpt lat="44.4367" lon="6.984">
        <ele>1746.5999755859</ele>
        <time>2024-09-13T07:25:15.000Z</time>
      </trkpt>
      <trkpt lat="44.43669" lon="6.98399">
        <ele>1746.8000488281</ele>
        <time>2024-09-13T07:25:16.000Z</time>
      </trkpt>
      <trkpt lat="44.43668" lon="6.98399">
        <ele>1747.1999511719</ele>
        <time>2024-09-13T07:25:17.000Z</time>
      </trkpt>
      <trkpt lat="44.43667" lon="6.98398">
        <ele>1747.4000244141</ele>
        <time>2024-09-13T07:25:18.000Z</time>
      </trkpt>
      <trkpt lat="44.43666" lon="6.98397">
        <ele>1747.5999755859</ele>
        <time>2024-09-13T07:25:19.000Z</time>
      </trkpt>
      <trkpt lat="44.43666" lon="6.98396">
        <ele>1747.5999755859</ele>
        <time>2024-09-13T07:25:20.000Z</time>
      </trkpt>
      <trkpt lat="44.43665" lon="6.98395">
        <ele>1747.8000488281</ele>
        <time>2024-09-13T07:25:21.000Z</time>
      </trkpt>
      <trkpt lat="44.43664" lon="6.98394">
        <ele>1748</ele>
        <time>2024-09-13T07:25:22.000Z</time>
      </trkpt>
      <trkpt lat="44.43663" lon="6.98393">
        <ele>1748</ele>
        <time>2024-09-13T07:25:23.000Z</time>
      </trkpt>
      <trkpt lat="44.43662" lon="6.98392">
        <ele>1748</ele>
        <time>2024-09-13T07:25:24.000Z</time>
      </trkpt>
      <trkpt lat="44.43662" lon="6.98391">
        <ele>1748.4000244141</ele>
        <time>2024-09-13T07:25:25.000Z</time>
      </trkpt>
      <trkpt lat="44.43661" lon="6.9839">
        <ele>1748.5999755859</ele>
        <time>2024-09-13T07:25:26.000Z</time>
      </trkpt>
      <trkpt lat="44.43659" lon="6.98389">
        <ele>1748.8000488281</ele>
        <time>2024-09-13T07:25:27.000Z</time>
      </trkpt>
      <trkpt lat="44.43659" lon="6.98388">
        <ele>1749.1999511719</ele>
        <time>2024-09-13T07:25:28.000Z</time>
      </trkpt>
      <trkpt lat="44.43658" lon="6.98386">
        <ele>1749.1999511719</ele>
        <time>2024-09-13T07:25:29.000Z</time>
      </trkpt>
      <trkpt lat="44.43657" lon="6.98386">
        <ele>1749.4000244141</ele>
        <time>2024-09-13T07:25:30.000Z</time>
      </trkpt>
      <trkpt lat="44.43656" lon="6.98385">
        <ele>1749.5999755859</ele>
        <time>2024-09-13T07:25:31.000Z</time>
      </trkpt>
      <trkpt lat="44.43655" lon="6.98384">
        <ele>1749.8000488281</ele>
        <time>2024-09-13T07:25:32.000Z</time>
      </trkpt>
      <trkpt lat="44.43654" lon="6.98383">
        <ele>1749.8000488281</ele>
        <time>2024-09-13T07:25:33.000Z</time>
      </trkpt>
      <trkpt lat="44.43653" lon="6.98383">
        <ele>1750</ele>
        <time>2024-09-13T07:25:34.000Z</time>
      </trkpt>
      <trkpt lat="44.43652" lon="6.98382">
        <ele>1750.1999511719</ele>
        <time>2024-09-13T07:25:35.000Z</time>
      </trkpt>
      <trkpt lat="44.43651" lon="6.98381">
        <ele>1750.4000244141</ele>
        <time>2024-09-13T07:25:36.000Z</time>
      </trkpt>
      <trkpt lat="44.43651" lon="6.9838">
        <ele>1750.8000488281</ele>
        <time>2024-09-13T07:25:37.000Z</time>
      </trkpt>
      <trkpt lat="44.4365" lon="6.98379">
        <ele>1750.8000488281</ele>
        <time>2024-09-13T07:25:38.000Z</time>
      </trkpt>
      <trkpt lat="44.43649" lon="6.98378">
        <ele>1751</ele>
        <time>2024-09-13T07:25:39.000Z</time>
      </trkpt>
      <trkpt lat="44.43648" lon="6.98377">
        <ele>1751.1999511719</ele>
        <time>2024-09-13T07:25:40.000Z</time>
      </trkpt>
      <trkpt lat="44.43648" lon="6.98376">
        <ele>1751.1999511719</ele>
        <time>2024-09-13T07:25:41.000Z</time>
      </trkpt>
      <trkpt lat="44.43647" lon="6.98374">
        <ele>1751.4000244141</ele>
        <time>2024-09-13T07:25:42.000Z</time>
      </trkpt>
      <trkpt lat="44.43646" lon="6.98373">
        <ele>1751.5999755859</ele>
        <time>2024-09-13T07:25:43.000Z</time>
      </trkpt>
      <trkpt lat="44.43645" lon="6.98372">
        <ele>1751.5999755859</ele>
        <time>2024-09-13T07:25:44.000Z</time>
      </trkpt>
      <trkpt lat="44.43644" lon="6.98371">
        <ele>1751.8000488281</ele>
        <time>2024-09-13T07:25:45.000Z</time>
      </trkpt>
      <trkpt lat="44.43643" lon="6.9837">
        <ele>1752</ele>
        <time>2024-09-13T07:25:46.000Z</time>
      </trkpt>
      <trkpt lat="44.43642" lon="6.98369">
        <ele>1752.1999511719</ele>
        <time>2024-09-13T07:25:47.000Z</time>
      </trkpt>
      <trkpt lat="44.43641" lon="6.98368">
        <ele>1752.1999511719</ele>
        <time>2024-09-13T07:25:48.000Z</time>
      </trkpt>
      <trkpt lat="44.4364" lon="6.98367">
        <ele>1752.5999755859</ele>
        <time>2024-09-13T07:25:49.000Z</time>
      </trkpt>
      <trkpt lat="44.4364" lon="6.98366">
        <ele>1752.8000488281</ele>
        <time>2024-09-13T07:25:50.000Z</time>
      </trkpt>
      <trkpt lat="44.43638" lon="6.98365">
        <ele>1753</ele>
        <time>2024-09-13T07:25:51.000Z</time>
      </trkpt>
      <trkpt lat="44.43637" lon="6.98364">
        <ele>1753</ele>
        <time>2024-09-13T07:25:52.000Z</time>
      </trkpt>
      <trkpt lat="44.43636" lon="6.98363">
        <ele>1753.1999511719</ele>
        <time>2024-09-13T07:25:53.000Z</time>
      </trkpt>
      <trkpt lat="44.43635" lon="6.98362">
        <ele>1753.4000244141</ele>
        <time>2024-09-13T07:25:54.000Z</time>
      </trkpt>
      <trkpt lat="44.43634" lon="6.98361">
        <ele>1753.4000244141</ele>
        <time>2024-09-13T07:25:55.000Z</time>
      </trkpt>
      <trkpt lat="44.43633" lon="6.9836">
        <ele>1753.5999755859</ele>
        <time>2024-09-13T07:25:56.000Z</time>
      </trkpt>
      <trkpt lat="44.43632" lon="6.98359">
        <ele>1753.5999755859</ele>
        <time>2024-09-13T07:25:57.000Z</time>
      </trkpt>
      <trkpt lat="44.43631" lon="6.98358">
        <ele>1753.8000488281</ele>
        <time>2024-09-13T07:25:58.000Z</time>
      </trkpt>
      <trkpt lat="44.4363" lon="6.98357">
        <ele>1753.8000488281</ele>
        <time>2024-09-13T07:25:59.000Z</time>
      </trkpt>
      <trkpt lat="44.43629" lon="6.98356">
        <ele>1754</ele>
        <time>2024-09-13T07:26:00.000Z</time>
      </trkpt>
      <trkpt lat="44.43629" lon="6.98356">
        <ele>1754.1999511719</ele>
        <time>2024-09-13T07:26:01.000Z</time>
      </trkpt>
      <trkpt lat="44.43628" lon="6.98355">
        <ele>1754.5999755859</ele>
        <time>2024-09-13T07:26:02.000Z</time>
      </trkpt>
      <trkpt lat="44.43627" lon="6.98354">
        <ele>1754.8000488281</ele>
        <time>2024-09-13T07:26:03.000Z</time>
      </trkpt>
      <trkpt lat="44.43626" lon="6.98353">
        <ele>1754.8000488281</ele>
        <time>2024-09-13T07:26:04.000Z</time>
      </trkpt>
      <trkpt lat="44.43625" lon="6.98352">
        <ele>1754.8000488281</ele>
        <time>2024-09-13T07:26:05.000Z</time>
      </trkpt>
      <trkpt lat="44.43624" lon="6.98351">
        <ele>1755</ele>
        <time>2024-09-13T07:26:06.000Z</time>
      </trkpt>
      <trkpt lat="44.43624" lon="6.9835">
        <ele>1755.1999511719</ele>
        <time>2024-09-13T07:26:07.000Z</time>
      </trkpt>
      <trkpt lat="44.43623" lon="6.98348">
        <ele>1755.1999511719</ele>
        <time>2024-09-13T07:26:08.000Z</time>
      </trkpt>
      <trkpt lat="44.43622" lon="6.98347">
        <ele>1755.1999511719</ele>
        <time>2024-09-13T07:26:09.000Z</time>
      </trkpt>
      <trkpt lat="44.43621" lon="6.98346">
        <ele>1755.4000244141</ele>
        <time>2024-09-13T07:26:10.000Z</time>
      </trkpt>
      <trkpt lat="44.4362" lon="6.98345">
        <ele>1755.8000488281</ele>
        <time>2024-09-13T07:26:11.000Z</time>
      </trkpt>
      <trkpt lat="44.4362" lon="6.98344">
        <ele>1755.8000488281</ele>
        <time>2024-09-13T07:26:12.000Z</time>
      </trkpt>
      <trkpt lat="44.43619" lon="6.98343">
        <ele>1756</ele>
        <time>2024-09-13T07:26:13.000Z</time>
      </trkpt>
      <trkpt lat="44.43618" lon="6.98342">
        <ele>1756.1999511719</ele>
        <time>2024-09-13T07:26:14.000Z</time>
      </trkpt>
      <trkpt lat="44.43617" lon="6.98341">
        <ele>1756.1999511719</ele>
        <time>2024-09-13T07:26:15.000Z</time>
      </trkpt>
      <trkpt lat="44.43616" lon="6.9834">
        <ele>1756.5999755859</ele>
        <time>2024-09-13T07:26:16.000Z</time>
      </trkpt>
      <trkpt lat="44.43615" lon="6.98338">
        <ele>1756.5999755859</ele>
        <time>2024-09-13T07:26:17.000Z</time>
      </trkpt>
      <trkpt lat="44.43615" lon="6.98337">
        <ele>1756.8000488281</ele>
        <time>2024-09-13T07:26:18.000Z</time>
      </trkpt>
      <trkpt lat="44.43614" lon="6.98336">
        <ele>1756.8000488281</ele>
        <time>2024-09-13T07:26:19.000Z</time>
      </trkpt>
      <trkpt lat="44.43613" lon="6.98336">
        <ele>1757</ele>
        <time>2024-09-13T07:26:20.000Z</time>
      </trkpt>
      <trkpt lat="44.43612" lon="6.98335">
        <ele>1757.4000244141</ele>
        <time>2024-09-13T07:26:21.000Z</time>
      </trkpt>
      <trkpt lat="44.43611" lon="6.98334">
        <ele>1757.4000244141</ele>
        <time>2024-09-13T07:26:22.000Z</time>
      </trkpt>
      <trkpt lat="44.4361" lon="6.98334">
        <ele>1757.5999755859</ele>
        <time>2024-09-13T07:26:23.000Z</time>
      </trkpt>
      <trkpt lat="44.43609" lon="6.98332">
        <ele>1757.8000488281</ele>
        <time>2024-09-13T07:26:24.000Z</time>
      </trkpt>
      <trkpt lat="44.43609" lon="6.98332">
        <ele>1757.8000488281</ele>
        <time>2024-09-13T07:26:25.000Z</time>
      </trkpt>
      <trkpt lat="44.43608" lon="6.98331">
        <ele>1758</ele>
        <time>2024-09-13T07:26:26.000Z</time>
      </trkpt>
      <trkpt lat="44.43607" lon="6.9833">
        <ele>1758.1999511719</ele>
        <time>2024-09-13T07:26:27.000Z</time>
      </trkpt>
      <trkpt lat="44.43606" lon="6.9833">
        <ele>1758.1999511719</ele>
        <time>2024-09-13T07:26:28.000Z</time>
      </trkpt>
      <trkpt lat="44.43605" lon="6.98329">
        <ele>1758.4000244141</ele>
        <time>2024-09-13T07:26:29.000Z</time>
      </trkpt>
      <trkpt lat="44.43604" lon="6.98328">
        <ele>1758.4000244141</ele>
        <time>2024-09-13T07:26:30.000Z</time>
      </trkpt>
      <trkpt lat="44.43603" lon="6.98327">
        <ele>1758.4000244141</ele>
        <time>2024-09-13T07:26:31.000Z</time>
      </trkpt>
      <trkpt lat="44.43602" lon="6.98326">
        <ele>1758.5999755859</ele>
        <time>2024-09-13T07:26:32.000Z</time>
      </trkpt>
      <trkpt lat="44.43601" lon="6.98326">
        <ele>1759</ele>
        <time>2024-09-13T07:26:33.000Z</time>
      </trkpt>
      <trkpt lat="44.436" lon="6.98325">
        <ele>1759</ele>
        <time>2024-09-13T07:26:34.000Z</time>
      </trkpt>
      <trkpt lat="44.43599" lon="6.98324">
        <ele>1759.1999511719</ele>
        <time>2024-09-13T07:26:35.000Z</time>
      </trkpt>
      <trkpt lat="44.43598" lon="6.98323">
        <ele>1759.1999511719</ele>
        <time>2024-09-13T07:26:36.000Z</time>
      </trkpt>
      <trkpt lat="44.43597" lon="6.98322">
        <ele>1759.4000244141</ele>
        <time>2024-09-13T07:26:37.000Z</time>
      </trkpt>
      <trkpt lat="44.43596" lon="6.98322">
        <ele>1759.4000244141</ele>
        <time>2024-09-13T07:26:38.000Z</time>
      </trkpt>
      <trkpt lat="44.43595" lon="6.98321">
        <ele>1759.5999755859</ele>
        <time>2024-09-13T07:26:39.000Z</time>
      </trkpt>
      <trkpt lat="44.43594" lon="6.9832">
        <ele>1759.5999755859</ele>
        <time>2024-09-13T07:26:40.000Z</time>
      </trkpt>
      <trkpt lat="44.43593" lon="6.98319">
        <ele>1760</ele>
        <time>2024-09-13T07:26:41.000Z</time>
      </trkpt>
      <trkpt lat="44.43592" lon="6.98318">
        <ele>1760</ele>
        <time>2024-09-13T07:26:42.000Z</time>
      </trkpt>
      <trkpt lat="44.43591" lon="6.98318">
        <ele>1760.1999511719</ele>
        <time>2024-09-13T07:26:43.000Z</time>
      </trkpt>
      <trkpt lat="44.4359" lon="6.98317">
        <ele>1760.4000244141</ele>
        <time>2024-09-13T07:26:44.000Z</time>
      </trkpt>
      <trkpt lat="44.43589" lon="6.98316">
        <ele>1760.4000244141</ele>
        <time>2024-09-13T07:26:45.000Z</time>
      </trkpt>
      <trkpt lat="44.43588" lon="6.98316">
        <ele>1760.5999755859</ele>
        <time>2024-09-13T07:26:46.000Z</time>
      </trkpt>
      <trkpt lat="44.43587" lon="6.98315">
        <ele>1760.8000488281</ele>
        <time>2024-09-13T07:26:47.000Z</time>
      </trkpt>
      <trkpt lat="44.43586" lon="6.98314">
        <ele>1760.8000488281</ele>
        <time>2024-09-13T07:26:48.000Z</time>
      </trkpt>
      <trkpt lat="44.43585" lon="6.98314">
        <ele>1761</ele>
        <time>2024-09-13T07:26:49.000Z</time>
      </trkpt>
      <trkpt lat="44.43584" lon="6.98314">
        <ele>1761</ele>
        <time>2024-09-13T07:26:50.000Z</time>
      </trkpt>
      <trkpt lat="44.43583" lon="6.98313">
        <ele>1761.1999511719</ele>
        <time>2024-09-13T07:26:51.000Z</time>
      </trkpt>
      <trkpt lat="44.43582" lon="6.98312">
        <ele>1761.5999755859</ele>
        <time>2024-09-13T07:26:52.000Z</time>
      </trkpt>
      <trkpt lat="44.43581" lon="6.98312">
        <ele>1761.5999755859</ele>
        <time>2024-09-13T07:26:53.000Z</time>
      </trkpt>
      <trkpt lat="44.4358" lon="6.98311">
        <ele>1761.8000488281</ele>
        <time>2024-09-13T07:26:54.000Z</time>
      </trkpt>
      <trkpt lat="44.4358" lon="6.9831">
        <ele>1761.8000488281</ele>
        <time>2024-09-13T07:26:55.000Z</time>
      </trkpt>
      <trkpt lat="44.43579" lon="6.98309">
        <ele>1762</ele>
        <time>2024-09-13T07:26:56.000Z</time>
      </trkpt>
      <trkpt lat="44.43578" lon="6.98308">
        <ele>1762</ele>
        <time>2024-09-13T07:26:57.000Z</time>
      </trkpt>
      <trkpt lat="44.43577" lon="6.98308">
        <ele>1762.1999511719</ele>
        <time>2024-09-13T07:26:58.000Z</time>
      </trkpt>
      <trkpt lat="44.43576" lon="6.98307">
        <ele>1762.4000244141</ele>
        <time>2024-09-13T07:26:59.000Z</time>
      </trkpt>
      <trkpt lat="44.43575" lon="6.98306">
        <ele>1762.5999755859</ele>
        <time>2024-09-13T07:27:00.000Z</time>
      </trkpt>
      <trkpt lat="44.43574" lon="6.98305">
        <ele>1762.5999755859</ele>
        <time>2024-09-13T07:27:01.000Z</time>
      </trkpt>
      <trkpt lat="44.43573" lon="6.98304">
        <ele>1762.8000488281</ele>
        <time>2024-09-13T07:27:02.000Z</time>
      </trkpt>
      <trkpt lat="44.43572" lon="6.98303">
        <ele>1762.8000488281</ele>
        <time>2024-09-13T07:27:03.000Z</time>
      </trkpt>
      <trkpt lat="44.43571" lon="6.98302">
        <ele>1763</ele>
        <time>2024-09-13T07:27:04.000Z</time>
      </trkpt>
      <trkpt lat="44.4357" lon="6.98302">
        <ele>1763</ele>
        <time>2024-09-13T07:27:05.000Z</time>
      </trkpt>
      <trkpt lat="44.43569" lon="6.98301">
        <ele>1763</ele>
        <time>2024-09-13T07:27:06.000Z</time>
      </trkpt>
      <trkpt lat="44.43568" lon="6.983">
        <ele>1763.1999511719</ele>
        <time>2024-09-13T07:27:07.000Z</time>
      </trkpt>
      <trkpt lat="44.43568" lon="6.98299">
        <ele>1763.4000244141</ele>
        <time>2024-09-13T07:27:08.000Z</time>
      </trkpt>
      <trkpt lat="44.43567" lon="6.98299">
        <ele>1763.5999755859</ele>
        <time>2024-09-13T07:27:09.000Z</time>
      </trkpt>
      <trkpt lat="44.43566" lon="6.98298">
        <ele>1763.8000488281</ele>
        <time>2024-09-13T07:27:10.000Z</time>
      </trkpt>
      <trkpt lat="44.43565" lon="6.98297">
        <ele>1764</ele>
        <time>2024-09-13T07:27:11.000Z</time>
      </trkpt>
      <trkpt lat="44.43564" lon="6.98296">
        <ele>1764</ele>
        <time>2024-09-13T07:27:12.000Z</time>
      </trkpt>
      <trkpt lat="44.43563" lon="6.98295">
        <ele>1764.1999511719</ele>
        <time>2024-09-13T07:27:13.000Z</time>
      </trkpt>
      <trkpt lat="44.43562" lon="6.98294">
        <ele>1764.1999511719</ele>
        <time>2024-09-13T07:27:14.000Z</time>
      </trkpt>
      <trkpt lat="44.43562" lon="6.98293">
        <ele>1764.4000244141</ele>
        <time>2024-09-13T07:27:15.000Z</time>
      </trkpt>
      <trkpt lat="44.43561" lon="6.98292">
        <ele>1764.4000244141</ele>
        <time>2024-09-13T07:27:16.000Z</time>
      </trkpt>
      <trkpt lat="44.4356" lon="6.98292">
        <ele>1764.5999755859</ele>
        <time>2024-09-13T07:27:17.000Z</time>
      </trkpt>
      <trkpt lat="44.43559" lon="6.9829">
        <ele>1764.8000488281</ele>
        <time>2024-09-13T07:27:18.000Z</time>
      </trkpt>
      <trkpt lat="44.43558" lon="6.98289">
        <ele>1764.8000488281</ele>
        <time>2024-09-13T07:27:19.000Z</time>
      </trkpt>
      <trkpt lat="44.43557" lon="6.98288">
        <ele>1765.1999511719</ele>
        <time>2024-09-13T07:27:20.000Z</time>
      </trkpt>
      <trkpt lat="44.43556" lon="6.98287">
        <ele>1765.1999511719</ele>
        <time>2024-09-13T07:27:21.000Z</time>
      </trkpt>
      <trkpt lat="44.43556" lon="6.98285">
        <ele>1765.4000244141</ele>
        <time>2024-09-13T07:27:22.000Z</time>
      </trkpt>
      <trkpt lat="44.43555" lon="6.98284">
        <ele>1765.4000244141</ele>
        <time>2024-09-13T07:27:23.000Z</time>
      </trkpt>
      <trkpt lat="44.43554" lon="6.98282">
        <ele>1765.5999755859</ele>
        <time>2024-09-13T07:27:24.000Z</time>
      </trkpt>
      <trkpt lat="44.43553" lon="6.98281">
        <ele>1765.8000488281</ele>
        <time>2024-09-13T07:27:25.000Z</time>
      </trkpt>
      <trkpt lat="44.43552" lon="6.9828">
        <ele>1765.8000488281</ele>
        <time>2024-09-13T07:27:26.000Z</time>
      </trkpt>
      <trkpt lat="44.43551" lon="6.98279">
        <ele>1766</ele>
        <time>2024-09-13T07:27:27.000Z</time>
      </trkpt>
      <trkpt lat="44.43551" lon="6.98278">
        <ele>1766.1999511719</ele>
        <time>2024-09-13T07:27:28.000Z</time>
      </trkpt>
      <trkpt lat="44.4355" lon="6.98277">
        <ele>1766.1999511719</ele>
        <time>2024-09-13T07:27:29.000Z</time>
      </trkpt>
      <trkpt lat="44.43549" lon="6.98276">
        <ele>1766.5999755859</ele>
        <time>2024-09-13T07:27:30.000Z</time>
      </trkpt>
      <trkpt lat="44.43548" lon="6.98275">
        <ele>1766.5999755859</ele>
        <time>2024-09-13T07:27:31.000Z</time>
      </trkpt>
      <trkpt lat="44.43547" lon="6.98274">
        <ele>1766.8000488281</ele>
        <time>2024-09-13T07:27:32.000Z</time>
      </trkpt>
      <trkpt lat="44.43546" lon="6.98273">
        <ele>1767.1999511719</ele>
        <time>2024-09-13T07:27:33.000Z</time>
      </trkpt>
      <trkpt lat="44.43545" lon="6.98272">
        <ele>1767.1999511719</ele>
        <time>2024-09-13T07:27:34.000Z</time>
      </trkpt>
      <trkpt lat="44.43544" lon="6.98271">
        <ele>1767.4000244141</ele>
        <time>2024-09-13T07:27:35.000Z</time>
      </trkpt>
      <trkpt lat="44.43543" lon="6.9827">
        <ele>1767.4000244141</ele>
        <time>2024-09-13T07:27:36.000Z</time>
      </trkpt>
      <trkpt lat="44.43542" lon="6.98269">
        <ele>1767.5999755859</ele>
        <time>2024-09-13T07:27:37.000Z</time>
      </trkpt>
      <trkpt lat="44.43541" lon="6.98268">
        <ele>1767.5999755859</ele>
        <time>2024-09-13T07:27:38.000Z</time>
      </trkpt>
      <trkpt lat="44.4354" lon="6.98267">
        <ele>1767.8000488281</ele>
        <time>2024-09-13T07:27:39.000Z</time>
      </trkpt>
      <trkpt lat="44.43539" lon="6.98266">
        <ele>1768</ele>
        <time>2024-09-13T07:27:40.000Z</time>
      </trkpt>
      <trkpt lat="44.43538" lon="6.98265">
        <ele>1768.1999511719</ele>
        <time>2024-09-13T07:27:41.000Z</time>
      </trkpt>
      <trkpt lat="44.43538" lon="6.98265">
        <ele>1768.5999755859</ele>
        <time>2024-09-13T07:27:42.000Z</time>
      </trkpt>
      <trkpt lat="44.43537" lon="6.98263">
        <ele>1768.5999755859</ele>
        <time>2024-09-13T07:27:43.000Z</time>
      </trkpt>
      <trkpt lat="44.43536" lon="6.98263">
        <ele>1768.5999755859</ele>
        <time>2024-09-13T07:27:44.000Z</time>
      </trkpt>
      <trkpt lat="44.43535" lon="6.98262">
        <ele>1768.8000488281</ele>
        <time>2024-09-13T07:27:45.000Z</time>
      </trkpt>
      <trkpt lat="44.43534" lon="6.98261">
        <ele>1769</ele>
        <time>2024-09-13T07:27:46.000Z</time>
      </trkpt>
      <trkpt lat="44.43533" lon="6.9826">
        <ele>1769</ele>
        <time>2024-09-13T07:27:47.000Z</time>
      </trkpt>
      <trkpt lat="44.43532" lon="6.98259">
        <ele>1769.1999511719</ele>
        <time>2024-09-13T07:27:48.000Z</time>
      </trkpt>
      <trkpt lat="44.43531" lon="6.98259">
        <ele>1769.5999755859</ele>
        <time>2024-09-13T07:27:49.000Z</time>
      </trkpt>
      <trkpt lat="44.4353" lon="6.98258">
        <ele>1769.8000488281</ele>
        <time>2024-09-13T07:27:50.000Z</time>
      </trkpt>
      <trkpt lat="44.43529" lon="6.98258">
        <ele>1769.8000488281</ele>
        <time>2024-09-13T07:27:51.000Z</time>
      </trkpt>
      <trkpt lat="44.43528" lon="6.98257">
        <ele>1770</ele>
        <time>2024-09-13T07:27:52.000Z</time>
      </trkpt>
      <trkpt lat="44.43527" lon="6.98256">
        <ele>1770.1999511719</ele>
        <time>2024-09-13T07:27:53.000Z</time>
      </trkpt>
      <trkpt lat="44.43526" lon="6.98255">
        <ele>1770.4000244141</ele>
        <time>2024-09-13T07:27:54.000Z</time>
      </trkpt>
      <trkpt lat="44.43525" lon="6.98254">
        <ele>1770.5999755859</ele>
        <time>2024-09-13T07:27:55.000Z</time>
      </trkpt>
      <trkpt lat="44.43524" lon="6.98253">
        <ele>1770.5999755859</ele>
        <time>2024-09-13T07:27:56.000Z</time>
      </trkpt>
      <trkpt lat="44.43523" lon="6.98252">
        <ele>1770.8000488281</ele>
        <time>2024-09-13T07:27:57.000Z</time>
      </trkpt>
      <trkpt lat="44.43522" lon="6.98251">
        <ele>1771</ele>
        <time>2024-09-13T07:27:58.000Z</time>
      </trkpt>
      <trkpt lat="44.43521" lon="6.9825">
        <ele>1771.1999511719</ele>
        <time>2024-09-13T07:27:59.000Z</time>
      </trkpt>
      <trkpt lat="44.4352" lon="6.98249">
        <ele>1771.1999511719</ele>
        <time>2024-09-13T07:28:00.000Z</time>
      </trkpt>
      <trkpt lat="44.43519" lon="6.98249">
        <ele>1771.4000244141</ele>
        <time>2024-09-13T07:28:01.000Z</time>
      </trkpt>
      <trkpt lat="44.43518" lon="6.98248">
        <ele>1771.5999755859</ele>
        <time>2024-09-13T07:28:02.000Z</time>
      </trkpt>
      <trkpt lat="44.43517" lon="6.98247">
        <ele>1772</ele>
        <time>2024-09-13T07:28:03.000Z</time>
      </trkpt>
      <trkpt lat="44.43516" lon="6.98247">
        <ele>1772</ele>
        <time>2024-09-13T07:28:04.000Z</time>
      </trkpt>
      <trkpt lat="44.43515" lon="6.98246">
        <ele>1772.1999511719</ele>
        <time>2024-09-13T07:28:05.000Z</time>
      </trkpt>
      <trkpt lat="44.43514" lon="6.98245">
        <ele>1772.4000244141</ele>
        <time>2024-09-13T07:28:06.000Z</time>
      </trkpt>
      <trkpt lat="44.43514" lon="6.98245">
        <ele>1772.4000244141</ele>
        <time>2024-09-13T07:28:07.000Z</time>
      </trkpt>
      <trkpt lat="44.43513" lon="6.98244">
        <ele>1772.5999755859</ele>
        <time>2024-09-13T07:28:08.000Z</time>
      </trkpt>
      <trkpt lat="44.43512" lon="6.98243">
        <ele>1772.8000488281</ele>
        <time>2024-09-13T07:28:09.000Z</time>
      </trkpt>
      <trkpt lat="44.4351" lon="6.98242">
        <ele>1773</ele>
        <time>2024-09-13T07:28:10.000Z</time>
      </trkpt>
      <trkpt lat="44.43509" lon="6.98241">
        <ele>1773.1999511719</ele>
        <time>2024-09-13T07:28:11.000Z</time>
      </trkpt>
      <trkpt lat="44.43508" lon="6.9824">
        <ele>1773.5999755859</ele>
        <time>2024-09-13T07:28:12.000Z</time>
      </trkpt>
      <trkpt lat="44.43507" lon="6.98239">
        <ele>1773.5999755859</ele>
        <time>2024-09-13T07:28:13.000Z</time>
      </trkpt>
      <trkpt lat="44.43506" lon="6.98238">
        <ele>1773.8000488281</ele>
        <time>2024-09-13T07:28:14.000Z</time>
      </trkpt>
      <trkpt lat="44.43506" lon="6.98237">
        <ele>1773.8000488281</ele>
        <time>2024-09-13T07:28:15.000Z</time>
      </trkpt>
      <trkpt lat="44.43505" lon="6.98236">
        <ele>1774.1999511719</ele>
        <time>2024-09-13T07:28:16.000Z</time>
      </trkpt>
      <trkpt lat="44.43504" lon="6.98235">
        <ele>1774.4000244141</ele>
        <time>2024-09-13T07:28:17.000Z</time>
      </trkpt>
      <trkpt lat="44.43503" lon="6.98234">
        <ele>1774.4000244141</ele>
        <time>2024-09-13T07:28:18.000Z</time>
      </trkpt>
      <trkpt lat="44.43502" lon="6.98233">
        <ele>1774.5999755859</ele>
        <time>2024-09-13T07:28:19.000Z</time>
      </trkpt>
      <trkpt lat="44.43501" lon="6.98233">
        <ele>1775</ele>
        <time>2024-09-13T07:28:20.000Z</time>
      </trkpt>
      <trkpt lat="44.435" lon="6.98232">
        <ele>1775.1999511719</ele>
        <time>2024-09-13T07:28:21.000Z</time>
      </trkpt>
      <trkpt lat="44.435" lon="6.98231">
        <ele>1775.4000244141</ele>
        <time>2024-09-13T07:28:22.000Z</time>
      </trkpt>
      <trkpt lat="44.43499" lon="6.98231">
        <ele>1775.5999755859</ele>
        <time>2024-09-13T07:28:23.000Z</time>
      </trkpt>
      <trkpt lat="44.43498" lon="6.9823">
        <ele>1775.8000488281</ele>
        <time>2024-09-13T07:28:24.000Z</time>
      </trkpt>
      <trkpt lat="44.43497" lon="6.98229">
        <ele>1776</ele>
        <time>2024-09-13T07:28:25.000Z</time>
      </trkpt>
      <trkpt lat="44.43496" lon="6.98228">
        <ele>1776.1999511719</ele>
        <time>2024-09-13T07:28:26.000Z</time>
      </trkpt>
      <trkpt lat="44.43495" lon="6.98227">
        <ele>1776.1999511719</ele>
        <time>2024-09-13T07:28:27.000Z</time>
      </trkpt>
      <trkpt lat="44.43494" lon="6.98226">
        <ele>1776.4000244141</ele>
        <time>2024-09-13T07:28:28.000Z</time>
      </trkpt>
      <trkpt lat="44.43493" lon="6.98226">
        <ele>1776.4000244141</ele>
        <time>2024-09-13T07:28:29.000Z</time>
      </trkpt>
      <trkpt lat="44.43492" lon="6.98225">
        <ele>1776.5999755859</ele>
        <time>2024-09-13T07:28:30.000Z</time>
      </trkpt>
      <trkpt lat="44.43491" lon="6.98224">
        <ele>1776.8000488281</ele>
        <time>2024-09-13T07:28:31.000Z</time>
      </trkpt>
      <trkpt lat="44.4349" lon="6.98223">
        <ele>1777</ele>
        <time>2024-09-13T07:28:32.000Z</time>
      </trkpt>
      <trkpt lat="44.43489" lon="6.98222">
        <ele>1777.1999511719</ele>
        <time>2024-09-13T07:28:33.000Z</time>
      </trkpt>
      <trkpt lat="44.43489" lon="6.98221">
        <ele>1777.4000244141</ele>
        <time>2024-09-13T07:28:34.000Z</time>
      </trkpt>
      <trkpt lat="44.43488" lon="6.9822">
        <ele>1777.4000244141</ele>
        <time>2024-09-13T07:28:35.000Z</time>
      </trkpt>
      <trkpt lat="44.43486" lon="6.9822">
        <ele>1777.5999755859</ele>
        <time>2024-09-13T07:28:36.000Z</time>
      </trkpt>
      <trkpt lat="44.43486" lon="6.98219">
        <ele>1777.8000488281</ele>
        <time>2024-09-13T07:28:37.000Z</time>
      </trkpt>
      <trkpt lat="44.43484" lon="6.98218">
        <ele>1778.1999511719</ele>
        <time>2024-09-13T07:28:38.000Z</time>
      </trkpt>
      <trkpt lat="44.43483" lon="6.98217">
        <ele>1778.1999511719</ele>
        <time>2024-09-13T07:28:39.000Z</time>
      </trkpt>
      <trkpt lat="44.43482" lon="6.98216">
        <ele>1778.4000244141</ele>
        <time>2024-09-13T07:28:40.000Z</time>
      </trkpt>
      <trkpt lat="44.43481" lon="6.98216">
        <ele>1778.5999755859</ele>
        <time>2024-09-13T07:28:41.000Z</time>
      </trkpt>
      <trkpt lat="44.4348" lon="6.98216">
        <ele>1778.8000488281</ele>
        <time>2024-09-13T07:28:42.000Z</time>
      </trkpt>
      <trkpt lat="44.43479" lon="6.98215">
        <ele>1779</ele>
        <time>2024-09-13T07:28:43.000Z</time>
      </trkpt>
      <trkpt lat="44.43478" lon="6.98215">
        <ele>1779</ele>
        <time>2024-09-13T07:28:44.000Z</time>
      </trkpt>
      <trkpt lat="44.43477" lon="6.98214">
        <ele>1779.1999511719</ele>
        <time>2024-09-13T07:28:45.000Z</time>
      </trkpt>
      <trkpt lat="44.43476" lon="6.98213">
        <ele>1779.1999511719</ele>
        <time>2024-09-13T07:28:46.000Z</time>
      </trkpt>
      <trkpt lat="44.43475" lon="6.98213">
        <ele>1779.4000244141</ele>
        <time>2024-09-13T07:28:47.000Z</time>
      </trkpt>
      <trkpt lat="44.43474" lon="6.98212">
        <ele>1779.5999755859</ele>
        <time>2024-09-13T07:28:48.000Z</time>
      </trkpt>
      <trkpt lat="44.43473" lon="6.98212">
        <ele>1780</ele>
        <time>2024-09-13T07:28:49.000Z</time>
      </trkpt>
      <trkpt lat="44.43472" lon="6.98212">
        <ele>1780.1999511719</ele>
        <time>2024-09-13T07:28:50.000Z</time>
      </trkpt>
      <trkpt lat="44.43471" lon="6.98211">
        <ele>1780.1999511719</ele>
        <time>2024-09-13T07:28:51.000Z</time>
      </trkpt>
      <trkpt lat="44.4347" lon="6.98211">
        <ele>1780.4000244141</ele>
        <time>2024-09-13T07:28:52.000Z</time>
      </trkpt>
      <trkpt lat="44.43469" lon="6.9821">
        <ele>1780.5999755859</ele>
        <time>2024-09-13T07:28:53.000Z</time>
      </trkpt>
      <trkpt lat="44.43468" lon="6.98209">
        <ele>1780.5999755859</ele>
        <time>2024-09-13T07:28:54.000Z</time>
      </trkpt>
      <trkpt lat="44.43467" lon="6.98209">
        <ele>1781</ele>
        <time>2024-09-13T07:28:55.000Z</time>
      </trkpt>
      <trkpt lat="44.43467" lon="6.98208">
        <ele>1781</ele>
        <time>2024-09-13T07:28:56.000Z</time>
      </trkpt>
      <trkpt lat="44.43466" lon="6.98207">
        <ele>1781.1999511719</ele>
        <time>2024-09-13T07:28:57.000Z</time>
      </trkpt>
      <trkpt lat="44.43465" lon="6.98207">
        <ele>1781.4000244141</ele>
        <time>2024-09-13T07:28:58.000Z</time>
      </trkpt>
      <trkpt lat="44.43465" lon="6.98206">
        <ele>1781.5999755859</ele>
        <time>2024-09-13T07:28:59.000Z</time>
      </trkpt>
      <trkpt lat="44.43464" lon="6.98206">
        <ele>1781.5999755859</ele>
        <time>2024-09-13T07:29:00.000Z</time>
      </trkpt>
      <trkpt lat="44.43462" lon="6.98205">
        <ele>1781.8000488281</ele>
        <time>2024-09-13T07:29:01.000Z</time>
      </trkpt>
      <trkpt lat="44.43461" lon="6.98205">
        <ele>1782</ele>
        <time>2024-09-13T07:29:02.000Z</time>
      </trkpt>
      <trkpt lat="44.4346" lon="6.98204">
        <ele>1782.1999511719</ele>
        <time>2024-09-13T07:29:03.000Z</time>
      </trkpt>
      <trkpt lat="44.43459" lon="6.98203">
        <ele>1782.4000244141</ele>
        <time>2024-09-13T07:29:04.000Z</time>
      </trkpt>
      <trkpt lat="44.43458" lon="6.98203">
        <ele>1782.5999755859</ele>
        <time>2024-09-13T07:29:05.000Z</time>
      </trkpt>
      <trkpt lat="44.43457" lon="6.98203">
        <ele>1782.8000488281</ele>
        <time>2024-09-13T07:29:06.000Z</time>
      </trkpt>
      <trkpt lat="44.43456" lon="6.98203">
        <ele>1783</ele>
        <time>2024-09-13T07:29:07.000Z</time>
      </trkpt>
      <trkpt lat="44.43455" lon="6.98203">
        <ele>1783</ele>
        <time>2024-09-13T07:29:08.000Z</time>
      </trkpt>
      <trkpt lat="44.43454" lon="6.98203">
        <ele>1783.4000244141</ele>
        <time>2024-09-13T07:29:09.000Z</time>
      </trkpt>
      <trkpt lat="44.43453" lon="6.98204">
        <ele>1783.4000244141</ele>
        <time>2024-09-13T07:29:10.000Z</time>
      </trkpt>
      <trkpt lat="44.43452" lon="6.98204">
        <ele>1783.4000244141</ele>
        <time>2024-09-13T07:29:11.000Z</time>
      </trkpt>
      <trkpt lat="44.43451" lon="6.98204">
        <ele>1783.8000488281</ele>
        <time>2024-09-13T07:29:12.000Z</time>
      </trkpt>
      <trkpt lat="44.4345" lon="6.98205">
        <ele>1784</ele>
        <time>2024-09-13T07:29:13.000Z</time>
      </trkpt>
      <trkpt lat="44.43449" lon="6.98206">
        <ele>1784</ele>
        <time>2024-09-13T07:29:14.000Z</time>
      </trkpt>
      <trkpt lat="44.43449" lon="6.98207">
        <ele>1784.1999511719</ele>
        <time>2024-09-13T07:29:15.000Z</time>
      </trkpt>
      <trkpt lat="44.43448" lon="6.98207">
        <ele>1784.4000244141</ele>
        <time>2024-09-13T07:29:16.000Z</time>
      </trkpt>
      <trkpt lat="44.43447" lon="6.98208">
        <ele>1784.4000244141</ele>
        <time>2024-09-13T07:29:17.000Z</time>
      </trkpt>
      <trkpt lat="44.43446" lon="6.98208">
        <ele>1784.8000488281</ele>
        <time>2024-09-13T07:29:18.000Z</time>
      </trkpt>
      <trkpt lat="44.43445" lon="6.98208">
        <ele>1784.8000488281</ele>
        <time>2024-09-13T07:29:19.000Z</time>
      </trkpt>
      <trkpt lat="44.43444" lon="6.98209">
        <ele>1785</ele>
        <time>2024-09-13T07:29:20.000Z</time>
      </trkpt>
      <trkpt lat="44.43443" lon="6.9821">
        <ele>1785.1999511719</ele>
        <time>2024-09-13T07:29:21.000Z</time>
      </trkpt>
      <trkpt lat="44.43442" lon="6.9821">
        <ele>1785.4000244141</ele>
        <time>2024-09-13T07:29:22.000Z</time>
      </trkpt>
      <trkpt lat="44.43441" lon="6.98211">
        <ele>1785.4000244141</ele>
        <time>2024-09-13T07:29:23.000Z</time>
      </trkpt>
      <trkpt lat="44.43441" lon="6.98211">
        <ele>1785.5999755859</ele>
        <time>2024-09-13T07:29:24.000Z</time>
      </trkpt>
      <trkpt lat="44.43439" lon="6.98212">
        <ele>1785.8000488281</ele>
        <time>2024-09-13T07:29:25.000Z</time>
      </trkpt>
      <trkpt lat="44.43438" lon="6.98213">
        <ele>1786</ele>
        <time>2024-09-13T07:29:26.000Z</time>
      </trkpt>
      <trkpt lat="44.43437" lon="6.98214">
        <ele>1786.1999511719</ele>
        <time>2024-09-13T07:29:27.000Z</time>
      </trkpt>
      <trkpt lat="44.43436" lon="6.98215">
        <ele>1786.4000244141</ele>
        <time>2024-09-13T07:29:28.000Z</time>
      </trkpt>
      <trkpt lat="44.43435" lon="6.98216">
        <ele>1786.5999755859</ele>
        <time>2024-09-13T07:29:29.000Z</time>
      </trkpt>
      <trkpt lat="44.43434" lon="6.98217">
        <ele>1786.8000488281</ele>
        <time>2024-09-13T07:29:30.000Z</time>
      </trkpt>
      <trkpt lat="44.43433" lon="6.98218">
        <ele>1787</ele>
        <time>2024-09-13T07:29:31.000Z</time>
      </trkpt>
      <trkpt lat="44.43432" lon="6.98219">
        <ele>1787.1999511719</ele>
        <time>2024-09-13T07:29:32.000Z</time>
      </trkpt>
      <trkpt lat="44.43431" lon="6.9822">
        <ele>1787.1999511719</ele>
        <time>2024-09-13T07:29:33.000Z</time>
      </trkpt>
      <trkpt lat="44.4343" lon="6.98221">
        <ele>1787.4000244141</ele>
        <time>2024-09-13T07:29:34.000Z</time>
      </trkpt>
      <trkpt lat="44.43429" lon="6.98221">
        <ele>1787.5999755859</ele>
        <time>2024-09-13T07:29:35.000Z</time>
      </trkpt>
      <trkpt lat="44.43428" lon="6.98222">
        <ele>1787.8000488281</ele>
        <time>2024-09-13T07:29:36.000Z</time>
      </trkpt>
      <trkpt lat="44.43427" lon="6.98223">
        <ele>1788.1999511719</ele>
        <time>2024-09-13T07:29:37.000Z</time>
      </trkpt>
      <trkpt lat="44.43426" lon="6.98223">
        <ele>1788.1999511719</ele>
        <time>2024-09-13T07:29:38.000Z</time>
      </trkpt>
      <trkpt lat="44.43425" lon="6.98224">
        <ele>1788.1999511719</ele>
        <time>2024-09-13T07:29:39.000Z</time>
      </trkpt>
      <trkpt lat="44.43424" lon="6.98224">
        <ele>1788.4000244141</ele>
        <time>2024-09-13T07:29:40.000Z</time>
      </trkpt>
      <trkpt lat="44.43423" lon="6.98225">
        <ele>1788.4000244141</ele>
        <time>2024-09-13T07:29:41.000Z</time>
      </trkpt>
      <trkpt lat="44.43422" lon="6.98225">
        <ele>1788.5999755859</ele>
        <time>2024-09-13T07:29:42.000Z</time>
      </trkpt>
      <trkpt lat="44.43421" lon="6.98225">
        <ele>1788.5999755859</ele>
        <time>2024-09-13T07:29:43.000Z</time>
      </trkpt>
      <trkpt lat="44.4342" lon="6.98226">
        <ele>1789</ele>
        <time>2024-09-13T07:29:44.000Z</time>
      </trkpt>
      <trkpt lat="44.43419" lon="6.98226">
        <ele>1789.1999511719</ele>
        <time>2024-09-13T07:29:45.000Z</time>
      </trkpt>
      <trkpt lat="44.43418" lon="6.98225">
        <ele>1789.1999511719</ele>
        <time>2024-09-13T07:29:46.000Z</time>
      </trkpt>
      <trkpt lat="44.43417" lon="6.98225">
        <ele>1789.5999755859</ele>
        <time>2024-09-13T07:29:47.000Z</time>
      </trkpt>
      <trkpt lat="44.43416" lon="6.98225">
        <ele>1789.5999755859</ele>
        <time>2024-09-13T07:29:48.000Z</time>
      </trkpt>
      <trkpt lat="44.43415" lon="6.98225">
        <ele>1789.5999755859</ele>
        <time>2024-09-13T07:29:49.000Z</time>
      </trkpt>
      <trkpt lat="44.43414" lon="6.98225">
        <ele>1790</ele>
        <time>2024-09-13T07:29:50.000Z</time>
      </trkpt>
      <trkpt lat="44.43413" lon="6.98225">
        <ele>1790.1999511719</ele>
        <time>2024-09-13T07:29:51.000Z</time>
      </trkpt>
      <trkpt lat="44.43411" lon="6.98225">
        <ele>1790.1999511719</ele>
        <time>2024-09-13T07:29:52.000Z</time>
      </trkpt>
      <trkpt lat="44.4341" lon="6.98226">
        <ele>1790.4000244141</ele>
        <time>2024-09-13T07:29:53.000Z</time>
      </trkpt>
      <trkpt lat="44.43409" lon="6.98225">
        <ele>1790.4000244141</ele>
        <time>2024-09-13T07:29:54.000Z</time>
      </trkpt>
      <trkpt lat="44.43407" lon="6.98225">
        <ele>1790.5999755859</ele>
        <time>2024-09-13T07:29:55.000Z</time>
      </trkpt>
      <trkpt lat="44.43406" lon="6.98224">
        <ele>1791</ele>
        <time>2024-09-13T07:29:56.000Z</time>
      </trkpt>
      <trkpt lat="44.43405" lon="6.98224">
        <ele>1791</ele>
        <time>2024-09-13T07:29:57.000Z</time>
      </trkpt>
      <trkpt lat="44.43404" lon="6.98225">
        <ele>1791.1999511719</ele>
        <time>2024-09-13T07:29:58.000Z</time>
      </trkpt>
      <trkpt lat="44.43402" lon="6.98225">
        <ele>1791.4000244141</ele>
        <time>2024-09-13T07:29:59.000Z</time>
      </trkpt>
      <trkpt lat="44.43402" lon="6.98225">
        <ele>1791.5999755859</ele>
        <time>2024-09-13T07:30:00.000Z</time>
      </trkpt>
      <trkpt lat="44.434" lon="6.98225">
        <ele>1791.8000488281</ele>
        <time>2024-09-13T07:30:01.000Z</time>
      </trkpt>
      <trkpt lat="44.43399" lon="6.98225">
        <ele>1792</ele>
        <time>2024-09-13T07:30:02.000Z</time>
      </trkpt>
      <trkpt lat="44.43398" lon="6.98226">
        <ele>1792.1999511719</ele>
        <time>2024-09-13T07:30:03.000Z</time>
      </trkpt>
      <trkpt lat="44.43397" lon="6.98226">
        <ele>1792.1999511719</ele>
        <time>2024-09-13T07:30:04.000Z</time>
      </trkpt>
      <trkpt lat="44.43396" lon="6.98226">
        <ele>1792.4000244141</ele>
        <time>2024-09-13T07:30:05.000Z</time>
      </trkpt>
      <trkpt lat="44.43395" lon="6.98226">
        <ele>1792.5999755859</ele>
        <time>2024-09-13T07:30:06.000Z</time>
      </trkpt>
      <trkpt lat="44.43395" lon="6.98226">
        <ele>1792.5999755859</ele>
        <time>2024-09-13T07:30:07.000Z</time>
      </trkpt>
      <trkpt lat="44.43394" lon="6.98225">
        <ele>1792.8000488281</ele>
        <time>2024-09-13T07:30:08.000Z</time>
      </trkpt>
      <trkpt lat="44.43393" lon="6.98225">
        <ele>1793</ele>
        <time>2024-09-13T07:30:09.000Z</time>
      </trkpt>
      <trkpt lat="44.43392" lon="6.98225">
        <ele>1793.1999511719</ele>
        <time>2024-09-13T07:30:10.000Z</time>
      </trkpt>
      <trkpt lat="44.43391" lon="6.98225">
        <ele>1793.4000244141</ele>
        <time>2024-09-13T07:30:11.000Z</time>
      </trkpt>
      <trkpt lat="44.43391" lon="6.98226">
        <ele>1793.4000244141</ele>
        <time>2024-09-13T07:30:12.000Z</time>
      </trkpt>
      <trkpt lat="44.43389" lon="6.98226">
        <ele>1793.5999755859</ele>
        <time>2024-09-13T07:30:13.000Z</time>
      </trkpt>
      <trkpt lat="44.43388" lon="6.98226">
        <ele>1794</ele>
        <time>2024-09-13T07:30:14.000Z</time>
      </trkpt>
      <trkpt lat="44.43387" lon="6.98227">
        <ele>1794</ele>
        <time>2024-09-13T07:30:15.000Z</time>
      </trkpt>
      <trkpt lat="44.43386" lon="6.98227">
        <ele>1794.1999511719</ele>
        <time>2024-09-13T07:30:16.000Z</time>
      </trkpt>
      <trkpt lat="44.43385" lon="6.98227">
        <ele>1794.1999511719</ele>
        <time>2024-09-13T07:30:17.000Z</time>
      </trkpt>
      <trkpt lat="44.43384" lon="6.98227">
        <ele>1794.4000244141</ele>
        <time>2024-09-13T07:30:18.000Z</time>
      </trkpt>
      <trkpt lat="44.43383" lon="6.98228">
        <ele>1794.5999755859</ele>
        <time>2024-09-13T07:30:19.000Z</time>
      </trkpt>
      <trkpt lat="44.43382" lon="6.98228">
        <ele>1794.8000488281</ele>
        <time>2024-09-13T07:30:20.000Z</time>
      </trkpt>
      <trkpt lat="44.43381" lon="6.98229">
        <ele>1795</ele>
        <time>2024-09-13T07:30:21.000Z</time>
      </trkpt>
      <trkpt lat="44.4338" lon="6.98229">
        <ele>1795</ele>
        <time>2024-09-13T07:30:22.000Z</time>
      </trkpt>
      <trkpt lat="44.43379" lon="6.98229">
        <ele>1795.1999511719</ele>
        <time>2024-09-13T07:30:23.000Z</time>
      </trkpt>
      <trkpt lat="44.43378" lon="6.9823">
        <ele>1795.4000244141</ele>
        <time>2024-09-13T07:30:24.000Z</time>
      </trkpt>
      <trkpt lat="44.43377" lon="6.9823">
        <ele>1795.5999755859</ele>
        <time>2024-09-13T07:30:25.000Z</time>
      </trkpt>
      <trkpt lat="44.43376" lon="6.98231">
        <ele>1795.5999755859</ele>
        <time>2024-09-13T07:30:26.000Z</time>
      </trkpt>
      <trkpt lat="44.43375" lon="6.98231">
        <ele>1795.8000488281</ele>
        <time>2024-09-13T07:30:27.000Z</time>
      </trkpt>
      <trkpt lat="44.43374" lon="6.98232">
        <ele>1796</ele>
        <time>2024-09-13T07:30:28.000Z</time>
      </trkpt>
      <trkpt lat="44.43373" lon="6.98233">
        <ele>1796.1999511719</ele>
        <time>2024-09-13T07:30:29.000Z</time>
      </trkpt>
      <trkpt lat="44.43372" lon="6.98233">
        <ele>1796.4000244141</ele>
        <time>2024-09-13T07:30:30.000Z</time>
      </trkpt>
      <trkpt lat="44.43371" lon="6.98233">
        <ele>1796.5999755859</ele>
        <time>2024-09-13T07:30:31.000Z</time>
      </trkpt>
      <trkpt lat="44.4337" lon="6.98234">
        <ele>1796.5999755859</ele>
        <time>2024-09-13T07:30:32.000Z</time>
      </trkpt>
      <trkpt lat="44.43369" lon="6.98234">
        <ele>1796.8000488281</ele>
        <time>2024-09-13T07:30:33.000Z</time>
      </trkpt>
      <trkpt lat="44.43368" lon="6.98235">
        <ele>1797</ele>
        <time>2024-09-13T07:30:34.000Z</time>
      </trkpt>
      <trkpt lat="44.43367" lon="6.98236">
        <ele>1797.1999511719</ele>
        <time>2024-09-13T07:30:35.000Z</time>
      </trkpt>
      <trkpt lat="44.43366" lon="6.98237">
        <ele>1797.1999511719</ele>
        <time>2024-09-13T07:30:36.000Z</time>
      </trkpt>
      <trkpt lat="44.43365" lon="6.98238">
        <ele>1797.4000244141</ele>
        <time>2024-09-13T07:30:37.000Z</time>
      </trkpt>
      <trkpt lat="44.43364" lon="6.98238">
        <ele>1797.5999755859</ele>
        <time>2024-09-13T07:30:38.000Z</time>
      </trkpt>
      <trkpt lat="44.43363" lon="6.98238">
        <ele>1797.8000488281</ele>
        <time>2024-09-13T07:30:39.000Z</time>
      </trkpt>
      <trkpt lat="44.43363" lon="6.98239">
        <ele>1798</ele>
        <time>2024-09-13T07:30:40.000Z</time>
      </trkpt>
      <trkpt lat="44.43362" lon="6.98239">
        <ele>1798</ele>
        <time>2024-09-13T07:30:41.000Z</time>
      </trkpt>
      <trkpt lat="44.43361" lon="6.9824">
        <ele>1798.1999511719</ele>
        <time>2024-09-13T07:30:42.000Z</time>
      </trkpt>
      <trkpt lat="44.4336" lon="6.98241">
        <ele>1798.1999511719</ele>
        <time>2024-09-13T07:30:43.000Z</time>
      </trkpt>
      <trkpt lat="44.43359" lon="6.98242">
        <ele>1798.5999755859</ele>
        <time>2024-09-13T07:30:44.000Z</time>
      </trkpt>
      <trkpt lat="44.43357" lon="6.98242">
        <ele>1798.8000488281</ele>
        <time>2024-09-13T07:30:45.000Z</time>
      </trkpt>
      <trkpt lat="44.43356" lon="6.98244">
        <ele>1798.8000488281</ele>
        <time>2024-09-13T07:30:46.000Z</time>
      </trkpt>
      <trkpt lat="44.43355" lon="6.98244">
        <ele>1799</ele>
        <time>2024-09-13T07:30:47.000Z</time>
      </trkpt>
      <trkpt lat="44.43354" lon="6.98245">
        <ele>1799.1999511719</ele>
        <time>2024-09-13T07:30:48.000Z</time>
      </trkpt>
      <trkpt lat="44.43353" lon="6.98245">
        <ele>1799.4000244141</ele>
        <time>2024-09-13T07:30:49.000Z</time>
      </trkpt>
      <trkpt lat="44.43352" lon="6.98246">
        <ele>1799.4000244141</ele>
        <time>2024-09-13T07:30:50.000Z</time>
      </trkpt>
      <trkpt lat="44.43351" lon="6.98247">
        <ele>1799.4000244141</ele>
        <time>2024-09-13T07:30:51.000Z</time>
      </trkpt>
      <trkpt lat="44.4335" lon="6.98247">
        <ele>1799.5999755859</ele>
        <time>2024-09-13T07:30:52.000Z</time>
      </trkpt>
      <trkpt lat="44.43349" lon="6.98248">
        <ele>1799.8000488281</ele>
        <time>2024-09-13T07:30:53.000Z</time>
      </trkpt>
      <trkpt lat="44.43348" lon="6.98248">
        <ele>1800</ele>
        <time>2024-09-13T07:30:54.000Z</time>
      </trkpt>
      <trkpt lat="44.43347" lon="6.98249">
        <ele>1800.1999511719</ele>
        <time>2024-09-13T07:30:55.000Z</time>
      </trkpt>
      <trkpt lat="44.43346" lon="6.98249">
        <ele>1800.4000244141</ele>
        <time>2024-09-13T07:30:56.000Z</time>
      </trkpt>
      <trkpt lat="44.43345" lon="6.98249">
        <ele>1800.5999755859</ele>
        <time>2024-09-13T07:30:57.000Z</time>
      </trkpt>
      <trkpt lat="44.43343" lon="6.9825">
        <ele>1800.5999755859</ele>
        <time>2024-09-13T07:30:58.000Z</time>
      </trkpt>
      <trkpt lat="44.43342" lon="6.9825">
        <ele>1800.8000488281</ele>
        <time>2024-09-13T07:30:59.000Z</time>
      </trkpt>
      <trkpt lat="44.43341" lon="6.98251">
        <ele>1801</ele>
        <time>2024-09-13T07:31:00.000Z</time>
      </trkpt>
      <trkpt lat="44.4334" lon="6.98251">
        <ele>1801.1999511719</ele>
        <time>2024-09-13T07:31:01.000Z</time>
      </trkpt>
      <trkpt lat="44.43339" lon="6.98251">
        <ele>1801.4000244141</ele>
        <time>2024-09-13T07:31:02.000Z</time>
      </trkpt>
      <trkpt lat="44.43338" lon="6.98251">
        <ele>1801.5999755859</ele>
        <time>2024-09-13T07:31:03.000Z</time>
      </trkpt>
      <trkpt lat="44.43338" lon="6.98251">
        <ele>1801.5999755859</ele>
        <time>2024-09-13T07:31:04.000Z</time>
      </trkpt>
      <trkpt lat="44.43336" lon="6.98251">
        <ele>1801.8000488281</ele>
        <time>2024-09-13T07:31:05.000Z</time>
      </trkpt>
      <trkpt lat="44.43335" lon="6.98251">
        <ele>1801.8000488281</ele>
        <time>2024-09-13T07:31:06.000Z</time>
      </trkpt>
      <trkpt lat="44.43334" lon="6.98251">
        <ele>1802</ele>
        <time>2024-09-13T07:31:07.000Z</time>
      </trkpt>
      <trkpt lat="44.43333" lon="6.98251">
        <ele>1802.1999511719</ele>
        <time>2024-09-13T07:31:08.000Z</time>
      </trkpt>
      <trkpt lat="44.43332" lon="6.98251">
        <ele>1802.1999511719</ele>
        <time>2024-09-13T07:31:09.000Z</time>
      </trkpt>
      <trkpt lat="44.43331" lon="6.98251">
        <ele>1802.4000244141</ele>
        <time>2024-09-13T07:31:10.000Z</time>
      </trkpt>
      <trkpt lat="44.4333" lon="6.98251">
        <ele>1802.5999755859</ele>
        <time>2024-09-13T07:31:11.000Z</time>
      </trkpt>
      <trkpt lat="44.43329" lon="6.9825">
        <ele>1802.8000488281</ele>
        <time>2024-09-13T07:31:12.000Z</time>
      </trkpt>
      <trkpt lat="44.43328" lon="6.9825">
        <ele>1803</ele>
        <time>2024-09-13T07:31:13.000Z</time>
      </trkpt>
      <trkpt lat="44.43327" lon="6.98249">
        <ele>1803.1999511719</ele>
        <time>2024-09-13T07:31:14.000Z</time>
      </trkpt>
      <trkpt lat="44.43326" lon="6.98248">
        <ele>1803.1999511719</ele>
        <time>2024-09-13T07:31:15.000Z</time>
      </trkpt>
      <trkpt lat="44.43325" lon="6.98247">
        <ele>1803.4000244141</ele>
        <time>2024-09-13T07:31:16.000Z</time>
      </trkpt>
      <trkpt lat="44.43324" lon="6.98246">
        <ele>1803.5999755859</ele>
        <time>2024-09-13T07:31:17.000Z</time>
      </trkpt>
      <trkpt lat="44.43323" lon="6.98245">
        <ele>1803.5999755859</ele>
        <time>2024-09-13T07:31:18.000Z</time>
      </trkpt>
      <trkpt lat="44.43322" lon="6.98244">
        <ele>1803.8000488281</ele>
        <time>2024-09-13T07:31:19.000Z</time>
      </trkpt>
      <trkpt lat="44.43321" lon="6.98243">
        <ele>1804</ele>
        <time>2024-09-13T07:31:20.000Z</time>
      </trkpt>
      <trkpt lat="44.4332" lon="6.98242">
        <ele>1804</ele>
        <time>2024-09-13T07:31:21.000Z</time>
      </trkpt>
      <trkpt lat="44.4332" lon="6.9824">
        <ele>1804.1999511719</ele>
        <time>2024-09-13T07:31:22.000Z</time>
      </trkpt>
      <trkpt lat="44.43319" lon="6.98239">
        <ele>1804.4000244141</ele>
        <time>2024-09-13T07:31:23.000Z</time>
      </trkpt>
      <trkpt lat="44.43318" lon="6.98237">
        <ele>1804.5999755859</ele>
        <time>2024-09-13T07:31:24.000Z</time>
      </trkpt>
      <trkpt lat="44.43317" lon="6.98236">
        <ele>1804.5999755859</ele>
        <time>2024-09-13T07:31:25.000Z</time>
      </trkpt>
      <trkpt lat="44.43317" lon="6.98235">
        <ele>1804.8000488281</ele>
        <time>2024-09-13T07:31:26.000Z</time>
      </trkpt>
      <trkpt lat="44.43316" lon="6.98234">
        <ele>1805</ele>
        <time>2024-09-13T07:31:27.000Z</time>
      </trkpt>
      <trkpt lat="44.43316" lon="6.98233">
        <ele>1805.1999511719</ele>
        <time>2024-09-13T07:31:28.000Z</time>
      </trkpt>
      <trkpt lat="44.43316" lon="6.98231">
        <ele>1805.4000244141</ele>
        <time>2024-09-13T07:31:29.000Z</time>
      </trkpt>
      <trkpt lat="44.43316" lon="6.9823">
        <ele>1805.4000244141</ele>
        <time>2024-09-13T07:31:30.000Z</time>
      </trkpt>
      <trkpt lat="44.43316" lon="6.98228">
        <ele>1805.5999755859</ele>
        <time>2024-09-13T07:31:31.000Z</time>
      </trkpt>
      <trkpt lat="44.43316" lon="6.98227">
        <ele>1805.8000488281</ele>
        <time>2024-09-13T07:31:32.000Z</time>
      </trkpt>
      <trkpt lat="44.43316" lon="6.98225">
        <ele>1806</ele>
        <time>2024-09-13T07:31:33.000Z</time>
      </trkpt>
      <trkpt lat="44.43316" lon="6.98223">
        <ele>1806.1999511719</ele>
        <time>2024-09-13T07:31:34.000Z</time>
      </trkpt>
      <trkpt lat="44.43317" lon="6.98221">
        <ele>1806.1999511719</ele>
        <time>2024-09-13T07:31:35.000Z</time>
      </trkpt>
      <trkpt lat="44.43317" lon="6.98219">
        <ele>1806.4000244141</ele>
        <time>2024-09-13T07:31:36.000Z</time>
      </trkpt>
      <trkpt lat="44.43317" lon="6.98217">
        <ele>1806.5999755859</ele>
        <time>2024-09-13T07:31:37.000Z</time>
      </trkpt>
      <trkpt lat="44.43318" lon="6.98215">
        <ele>1806.8000488281</ele>
        <time>2024-09-13T07:31:38.000Z</time>
      </trkpt>
      <trkpt lat="44.43317" lon="6.98213">
        <ele>1806.8000488281</ele>
        <time>2024-09-13T07:31:39.000Z</time>
      </trkpt>
      <trkpt lat="44.43318" lon="6.98212">
        <ele>1807</ele>
        <time>2024-09-13T07:31:40.000Z</time>
      </trkpt>
      <trkpt lat="44.43319" lon="6.9821">
        <ele>1807.4000244141</ele>
        <time>2024-09-13T07:31:41.000Z</time>
      </trkpt>
      <trkpt lat="44.43319" lon="6.98208">
        <ele>1807.5999755859</ele>
        <time>2024-09-13T07:31:42.000Z</time>
      </trkpt>
      <trkpt lat="44.4332" lon="6.98208">
        <ele>1807.8000488281</ele>
        <time>2024-09-13T07:31:43.000Z</time>
      </trkpt>
      <trkpt lat="44.43321" lon="6.98207">
        <ele>1807.8000488281</ele>
        <time>2024-09-13T07:31:44.000Z</time>
      </trkpt>
      <trkpt lat="44.43322" lon="6.98207">
        <ele>1808</ele>
        <time>2024-09-13T07:31:45.000Z</time>
      </trkpt>
      <trkpt lat="44.43323" lon="6.98206">
        <ele>1808.1999511719</ele>
        <time>2024-09-13T07:31:46.000Z</time>
      </trkpt>
      <trkpt lat="44.43323" lon="6.98205">
        <ele>1808.1999511719</ele>
        <time>2024-09-13T07:31:47.000Z</time>
      </trkpt>
      <trkpt lat="44.43324" lon="6.98204">
        <ele>1808.4000244141</ele>
        <time>2024-09-13T07:31:48.000Z</time>
      </trkpt>
      <trkpt lat="44.43325" lon="6.98203">
        <ele>1808.5999755859</ele>
        <time>2024-09-13T07:31:49.000Z</time>
      </trkpt>
      <trkpt lat="44.43326" lon="6.98202">
        <ele>1808.5999755859</ele>
        <time>2024-09-13T07:31:50.000Z</time>
      </trkpt>
      <trkpt lat="44.43326" lon="6.98201">
        <ele>1808.8000488281</ele>
        <time>2024-09-13T07:31:51.000Z</time>
      </trkpt>
      <trkpt lat="44.43327" lon="6.98201">
        <ele>1808.8000488281</ele>
        <time>2024-09-13T07:31:52.000Z</time>
      </trkpt>
      <trkpt lat="44.43329" lon="6.982">
        <ele>1809.1999511719</ele>
        <time>2024-09-13T07:31:53.000Z</time>
      </trkpt>
      <trkpt lat="44.4333" lon="6.982">
        <ele>1809.1999511719</ele>
        <time>2024-09-13T07:31:54.000Z</time>
      </trkpt>
      <trkpt lat="44.43331" lon="6.98199">
        <ele>1809.4000244141</ele>
        <time>2024-09-13T07:31:55.000Z</time>
      </trkpt>
      <trkpt lat="44.43331" lon="6.98198">
        <ele>1809.5999755859</ele>
        <time>2024-09-13T07:31:56.000Z</time>
      </trkpt>
      <trkpt lat="44.43332" lon="6.98197">
        <ele>1809.8000488281</ele>
        <time>2024-09-13T07:31:57.000Z</time>
      </trkpt>
      <trkpt lat="44.43332" lon="6.98197">
        <ele>1810</ele>
        <time>2024-09-13T07:31:58.000Z</time>
      </trkpt>
      <trkpt lat="44.43333" lon="6.98196">
        <ele>1810.1999511719</ele>
        <time>2024-09-13T07:31:59.000Z</time>
      </trkpt>
      <trkpt lat="44.43334" lon="6.98195">
        <ele>1810.4000244141</ele>
        <time>2024-09-13T07:32:00.000Z</time>
      </trkpt>
      <trkpt lat="44.43335" lon="6.98195">
        <ele>1810.5999755859</ele>
        <time>2024-09-13T07:32:01.000Z</time>
      </trkpt>
      <trkpt lat="44.43335" lon="6.98194">
        <ele>1810.5999755859</ele>
        <time>2024-09-13T07:32:02.000Z</time>
      </trkpt>
      <trkpt lat="44.43336" lon="6.98193">
        <ele>1810.8000488281</ele>
        <time>2024-09-13T07:32:03.000Z</time>
      </trkpt>
      <trkpt lat="44.43337" lon="6.98192">
        <ele>1810.8000488281</ele>
        <time>2024-09-13T07:32:04.000Z</time>
      </trkpt>
      <trkpt lat="44.43338" lon="6.98191">
        <ele>1811</ele>
        <time>2024-09-13T07:32:05.000Z</time>
      </trkpt>
      <trkpt lat="44.43339" lon="6.9819">
        <ele>1811.1999511719</ele>
        <time>2024-09-13T07:32:06.000Z</time>
      </trkpt>
      <trkpt lat="44.43341" lon="6.98189">
        <ele>1811.4000244141</ele>
        <time>2024-09-13T07:32:07.000Z</time>
      </trkpt>
      <trkpt lat="44.43342" lon="6.98189">
        <ele>1811.5999755859</ele>
        <time>2024-09-13T07:32:08.000Z</time>
      </trkpt>
      <trkpt lat="44.43343" lon="6.98188">
        <ele>1811.5999755859</ele>
        <time>2024-09-13T07:32:09.000Z</time>
      </trkpt>
      <trkpt lat="44.43344" lon="6.98188">
        <ele>1812</ele>
        <time>2024-09-13T07:32:10.000Z</time>
      </trkpt>
      <trkpt lat="44.43345" lon="6.98187">
        <ele>1812.1999511719</ele>
        <time>2024-09-13T07:32:11.000Z</time>
      </trkpt>
      <trkpt lat="44.43345" lon="6.98186">
        <ele>1812.1999511719</ele>
        <time>2024-09-13T07:32:12.000Z</time>
      </trkpt>
      <trkpt lat="44.43346" lon="6.98184">
        <ele>1812.4000244141</ele>
        <time>2024-09-13T07:32:13.000Z</time>
      </trkpt>
      <trkpt lat="44.43346" lon="6.98183">
        <ele>1812.5999755859</ele>
        <time>2024-09-13T07:32:14.000Z</time>
      </trkpt>
      <trkpt lat="44.43346" lon="6.98181">
        <ele>1812.8000488281</ele>
        <time>2024-09-13T07:32:15.000Z</time>
      </trkpt>
      <trkpt lat="44.43347" lon="6.9818">
        <ele>1813</ele>
        <time>2024-09-13T07:32:16.000Z</time>
      </trkpt>
      <trkpt lat="44.43347" lon="6.98179">
        <ele>1813.1999511719</ele>
        <time>2024-09-13T07:32:17.000Z</time>
      </trkpt>
      <trkpt lat="44.43348" lon="6.98178">
        <ele>1813.4000244141</ele>
        <time>2024-09-13T07:32:18.000Z</time>
      </trkpt>
      <trkpt lat="44.43349" lon="6.98177">
        <ele>1813.5999755859</ele>
        <time>2024-09-13T07:32:19.000Z</time>
      </trkpt>
      <trkpt lat="44.4335" lon="6.98176">
        <ele>1813.5999755859</ele>
        <time>2024-09-13T07:32:20.000Z</time>
      </trkpt>
      <trkpt lat="44.43351" lon="6.98175">
        <ele>1813.5999755859</ele>
        <time>2024-09-13T07:32:21.000Z</time>
      </trkpt>
      <trkpt lat="44.43352" lon="6.98174">
        <ele>1813.5999755859</ele>
        <time>2024-09-13T07:32:22.000Z</time>
      </trkpt>
      <trkpt lat="44.43353" lon="6.98173">
        <ele>1814</ele>
        <time>2024-09-13T07:32:23.000Z</time>
      </trkpt>
      <trkpt lat="44.43354" lon="6.98171">
        <ele>1814</ele>
        <time>2024-09-13T07:32:24.000Z</time>
      </trkpt>
      <trkpt lat="44.43355" lon="6.9817">
        <ele>1814</ele>
        <time>2024-09-13T07:32:25.000Z</time>
      </trkpt>
      <trkpt lat="44.43356" lon="6.98169">
        <ele>1814.1999511719</ele>
        <time>2024-09-13T07:32:26.000Z</time>
      </trkpt>
      <trkpt lat="44.43357" lon="6.98167">
        <ele>1814.4000244141</ele>
        <time>2024-09-13T07:32:27.000Z</time>
      </trkpt>
      <trkpt lat="44.43358" lon="6.98166">
        <ele>1814.5999755859</ele>
        <time>2024-09-13T07:32:28.000Z</time>
      </trkpt>
      <trkpt lat="44.43358" lon="6.98165">
        <ele>1814.8000488281</ele>
        <time>2024-09-13T07:32:29.000Z</time>
      </trkpt>
      <trkpt lat="44.43359" lon="6.98164">
        <ele>1814.8000488281</ele>
        <time>2024-09-13T07:32:30.000Z</time>
      </trkpt>
      <trkpt lat="44.4336" lon="6.98163">
        <ele>1815.1999511719</ele>
        <time>2024-09-13T07:32:31.000Z</time>
      </trkpt>
      <trkpt lat="44.43361" lon="6.98162">
        <ele>1815.1999511719</ele>
        <time>2024-09-13T07:32:32.000Z</time>
      </trkpt>
      <trkpt lat="44.43362" lon="6.98161">
        <ele>1815.5999755859</ele>
        <time>2024-09-13T07:32:33.000Z</time>
      </trkpt>
      <trkpt lat="44.43363" lon="6.9816">
        <ele>1815.8000488281</ele>
        <time>2024-09-13T07:32:34.000Z</time>
      </trkpt>
      <trkpt lat="44.43364" lon="6.98159">
        <ele>1816</ele>
        <time>2024-09-13T07:32:35.000Z</time>
      </trkpt>
      <trkpt lat="44.43365" lon="6.98158">
        <ele>1816.1999511719</ele>
        <time>2024-09-13T07:32:36.000Z</time>
      </trkpt>
      <trkpt lat="44.43366" lon="6.98157">
        <ele>1816.5999755859</ele>
        <time>2024-09-13T07:32:37.000Z</time>
      </trkpt>
      <trkpt lat="44.43367" lon="6.98155">
        <ele>1816.8000488281</ele>
        <time>2024-09-13T07:32:38.000Z</time>
      </trkpt>
      <trkpt lat="44.43368" lon="6.98154">
        <ele>1817.1999511719</ele>
        <time>2024-09-13T07:32:39.000Z</time>
      </trkpt>
      <trkpt lat="44.43368" lon="6.98153">
        <ele>1817.4000244141</ele>
        <time>2024-09-13T07:32:40.000Z</time>
      </trkpt>
      <trkpt lat="44.4337" lon="6.98151">
        <ele>1817.4000244141</ele>
        <time>2024-09-13T07:32:41.000Z</time>
      </trkpt>
      <trkpt lat="44.4337" lon="6.9815">
        <ele>1817.4000244141</ele>
        <time>2024-09-13T07:32:42.000Z</time>
      </trkpt>
      <trkpt lat="44.43371" lon="6.98149">
        <ele>1817.5999755859</ele>
        <time>2024-09-13T07:32:43.000Z</time>
      </trkpt>
      <trkpt lat="44.43372" lon="6.98148">
        <ele>1817.8000488281</ele>
        <time>2024-09-13T07:32:44.000Z</time>
      </trkpt>
      <trkpt lat="44.43373" lon="6.98147">
        <ele>1817.8000488281</ele>
        <time>2024-09-13T07:32:45.000Z</time>
      </trkpt>
      <trkpt lat="44.43374" lon="6.98146">
        <ele>1818</ele>
        <time>2024-09-13T07:32:46.000Z</time>
      </trkpt>
      <trkpt lat="44.43374" lon="6.98145">
        <ele>1818.1999511719</ele>
        <time>2024-09-13T07:32:47.000Z</time>
      </trkpt>
      <trkpt lat="44.43375" lon="6.98144">
        <ele>1818.4000244141</ele>
        <time>2024-09-13T07:32:48.000Z</time>
      </trkpt>
      <trkpt lat="44.43375" lon="6.98143">
        <ele>1818.5999755859</ele>
        <time>2024-09-13T07:32:49.000Z</time>
      </trkpt>
      <trkpt lat="44.43376" lon="6.98142">
        <ele>1818.5999755859</ele>
        <time>2024-09-13T07:32:50.000Z</time>
      </trkpt>
      <trkpt lat="44.43377" lon="6.98141">
        <ele>1818.8000488281</ele>
        <time>2024-09-13T07:32:51.000Z</time>
      </trkpt>
      <trkpt lat="44.43378" lon="6.9814">
        <ele>1819</ele>
        <time>2024-09-13T07:32:52.000Z</time>
      </trkpt>
      <trkpt lat="44.43379" lon="6.98138">
        <ele>1819</ele>
        <time>2024-09-13T07:32:53.000Z</time>
      </trkpt>
      <trkpt lat="44.43379" lon="6.98137">
        <ele>1819.4000244141</ele>
        <time>2024-09-13T07:32:54.000Z</time>
      </trkpt>
      <trkpt lat="44.4338" lon="6.98137">
        <ele>1819.5999755859</ele>
        <time>2024-09-13T07:32:55.000Z</time>
      </trkpt>
      <trkpt lat="44.43381" lon="6.98135">
        <ele>1819.5999755859</ele>
        <time>2024-09-13T07:32:56.000Z</time>
      </trkpt>
      <trkpt lat="44.43382" lon="6.98135">
        <ele>1820</ele>
        <time>2024-09-13T07:32:57.000Z</time>
      </trkpt>
      <trkpt lat="44.43382" lon="6.98134">
        <ele>1820</ele>
        <time>2024-09-13T07:32:58.000Z</time>
      </trkpt>
      <trkpt lat="44.43383" lon="6.98133">
        <ele>1820.1999511719</ele>
        <time>2024-09-13T07:32:59.000Z</time>
      </trkpt>
      <trkpt lat="44.43384" lon="6.98132">
        <ele>1820.4000244141</ele>
        <time>2024-09-13T07:33:00.000Z</time>
      </trkpt>
      <trkpt lat="44.43385" lon="6.98131">
        <ele>1820.5999755859</ele>
        <time>2024-09-13T07:33:01.000Z</time>
      </trkpt>
      <trkpt lat="44.43385" lon="6.9813">
        <ele>1821</ele>
        <time>2024-09-13T07:33:02.000Z</time>
      </trkpt>
      <trkpt lat="44.43386" lon="6.98129">
        <ele>1821</ele>
        <time>2024-09-13T07:33:03.000Z</time>
      </trkpt>
      <trkpt lat="44.43387" lon="6.98127">
        <ele>1821.1999511719</ele>
        <time>2024-09-13T07:33:04.000Z</time>
      </trkpt>
      <trkpt lat="44.43388" lon="6.98126">
        <ele>1821.4000244141</ele>
        <time>2024-09-13T07:33:05.000Z</time>
      </trkpt>
      <trkpt lat="44.43389" lon="6.98125">
        <ele>1821.5999755859</ele>
        <time>2024-09-13T07:33:06.000Z</time>
      </trkpt>
      <trkpt lat="44.4339" lon="6.98123">
        <ele>1821.8000488281</ele>
        <time>2024-09-13T07:33:07.000Z</time>
      </trkpt>
      <trkpt lat="44.43391" lon="6.98122">
        <ele>1822</ele>
        <time>2024-09-13T07:33:08.000Z</time>
      </trkpt>
      <trkpt lat="44.43392" lon="6.98121">
        <ele>1822</ele>
        <time>2024-09-13T07:33:09.000Z</time>
      </trkpt>
      <trkpt lat="44.43393" lon="6.9812">
        <ele>1822.1999511719</ele>
        <time>2024-09-13T07:33:10.000Z</time>
      </trkpt>
      <trkpt lat="44.43394" lon="6.98119">
        <ele>1822.1999511719</ele>
        <time>2024-09-13T07:33:11.000Z</time>
      </trkpt>
      <trkpt lat="44.43395" lon="6.98119">
        <ele>1822.4000244141</ele>
        <time>2024-09-13T07:33:12.000Z</time>
      </trkpt>
      <trkpt lat="44.43395" lon="6.98118">
        <ele>1822.5999755859</ele>
        <time>2024-09-13T07:33:13.000Z</time>
      </trkpt>
      <trkpt lat="44.43396" lon="6.98117">
        <ele>1822.8000488281</ele>
        <time>2024-09-13T07:33:14.000Z</time>
      </trkpt>
      <trkpt lat="44.43397" lon="6.98116">
        <ele>1823</ele>
        <time>2024-09-13T07:33:15.000Z</time>
      </trkpt>
      <trkpt lat="44.43398" lon="6.98114">
        <ele>1823.1999511719</ele>
        <time>2024-09-13T07:33:16.000Z</time>
      </trkpt>
      <trkpt lat="44.43399" lon="6.98113">
        <ele>1823.1999511719</ele>
        <time>2024-09-13T07:33:17.000Z</time>
      </trkpt>
      <trkpt lat="44.434" lon="6.98112">
        <ele>1823.4000244141</ele>
        <time>2024-09-13T07:33:18.000Z</time>
      </trkpt>
      <trkpt lat="44.43401" lon="6.9811">
        <ele>1823.4000244141</ele>
        <time>2024-09-13T07:33:19.000Z</time>
      </trkpt>
      <trkpt lat="44.43402" lon="6.9811">
        <ele>1823.4000244141</ele>
        <time>2024-09-13T07:33:20.000Z</time>
      </trkpt>
      <trkpt lat="44.43403" lon="6.98108">
        <ele>1823.8000488281</ele>
        <time>2024-09-13T07:33:21.000Z</time>
      </trkpt>
      <trkpt lat="44.43403" lon="6.98107">
        <ele>1823.8000488281</ele>
        <time>2024-09-13T07:33:22.000Z</time>
      </trkpt>
      <trkpt lat="44.43404" lon="6.98106">
        <ele>1823.8000488281</ele>
        <time>2024-09-13T07:33:23.000Z</time>
      </trkpt>
      <trkpt lat="44.43404" lon="6.98105">
        <ele>1824</ele>
        <time>2024-09-13T07:33:24.000Z</time>
      </trkpt>
      <trkpt lat="44.43404" lon="6.98103">
        <ele>1824</ele>
        <time>2024-09-13T07:33:25.000Z</time>
      </trkpt>
      <trkpt lat="44.43404" lon="6.98101">
        <ele>1824</ele>
        <time>2024-09-13T07:33:26.000Z</time>
      </trkpt>
      <trkpt lat="44.43403" lon="6.981">
        <ele>1824.1999511719</ele>
        <time>2024-09-13T07:33:27.000Z</time>
      </trkpt>
      <trkpt lat="44.43403" lon="6.98099">
        <ele>1824.1999511719</ele>
        <time>2024-09-13T07:33:28.000Z</time>
      </trkpt>
      <trkpt lat="44.43402" lon="6.98099">
        <ele>1824.4000244141</ele>
        <time>2024-09-13T07:33:29.000Z</time>
      </trkpt>
      <trkpt lat="44.43401" lon="6.98098">
        <ele>1824.4000244141</ele>
        <time>2024-09-13T07:33:30.000Z</time>
      </trkpt>
      <trkpt lat="44.43401" lon="6.98098">
        <ele>1824.5999755859</ele>
        <time>2024-09-13T07:33:31.000Z</time>
      </trkpt>
      <trkpt lat="44.434" lon="6.98097">
        <ele>1824.5999755859</ele>
        <time>2024-09-13T07:33:32.000Z</time>
      </trkpt>
      <trkpt lat="44.434" lon="6.98097">
        <ele>1824.5999755859</ele>
        <time>2024-09-13T07:33:33.000Z</time>
      </trkpt>
      <trkpt lat="44.43399" lon="6.98097">
        <ele>1824.5999755859</ele>
        <time>2024-09-13T07:33:34.000Z</time>
      </trkpt>
      <trkpt lat="44.43398" lon="6.98097">
        <ele>1824.5999755859</ele>
        <time>2024-09-13T07:33:35.000Z</time>
      </trkpt>
      <trkpt lat="44.43398" lon="6.98097">
        <ele>1824.8000488281</ele>
        <time>2024-09-13T07:33:36.000Z</time>
      </trkpt>
      <trkpt lat="44.43397" lon="6.98097">
        <ele>1824.8000488281</ele>
        <time>2024-09-13T07:33:37.000Z</time>
      </trkpt>
      <trkpt lat="44.43397" lon="6.98097">
        <ele>1825</ele>
        <time>2024-09-13T07:33:38.000Z</time>
      </trkpt>
      <trkpt lat="44.43397" lon="6.98096">
        <ele>1825</ele>
        <time>2024-09-13T07:33:39.000Z</time>
      </trkpt>
      <trkpt lat="44.43397" lon="6.98096">
        <ele>1825</ele>
        <time>2024-09-13T07:33:40.000Z</time>
      </trkpt>
      <trkpt lat="44.43397" lon="6.98096">
        <ele>1825</ele>
        <time>2024-09-13T07:33:41.000Z</time>
      </trkpt>
      <trkpt lat="44.43397" lon="6.98097">
        <ele>1825</ele>
        <time>2024-09-13T07:33:44.000Z</time>
      </trkpt>
      <trkpt lat="44.43397" lon="6.98096">
        <ele>1825</ele>
        <time>2024-09-13T07:33:45.000Z</time>
      </trkpt>
      <trkpt lat="44.43397" lon="6.98096">
        <ele>1824.8000488281</ele>
        <time>2024-09-13T07:33:50.000Z</time>
      </trkpt>
      <trkpt lat="44.43397" lon="6.98096">
        <ele>1824.8000488281</ele>
        <time>2024-09-13T07:33:51.000Z</time>
      </trkpt>
      <trkpt lat="44.43397" lon="6.98096">
        <ele>1824.8000488281</ele>
        <time>2024-09-13T07:33:52.000Z</time>
      </trkpt>
      <trkpt lat="44.43397" lon="6.98094">
        <ele>1824.8000488281</ele>
        <time>2024-09-13T07:33:58.000Z</time>
      </trkpt>
      <trkpt lat="44.43399" lon="6.98093">
        <ele>1824.8000488281</ele>
        <time>2024-09-13T07:34:00.000Z</time>
      </trkpt>
      <trkpt lat="44.43399" lon="6.98093">
        <ele>1824.8000488281</ele>
        <time>2024-09-13T07:34:04.000Z</time>
      </trkpt>
      <trkpt lat="44.43398" lon="6.98093">
        <ele>1824.8000488281</ele>
        <time>2024-09-13T07:34:09.000Z</time>
      </trkpt>
      <trkpt lat="44.43398" lon="6.98093">
        <ele>1824.5999755859</ele>
        <time>2024-09-13T07:34:12.000Z</time>
      </trkpt>
      <trkpt lat="44.43398" lon="6.98093">
        <ele>1824.5999755859</ele>
        <time>2024-09-13T07:34:14.000Z</time>
      </trkpt>
      <trkpt lat="44.43399" lon="6.98093">
        <ele>1824.5999755859</ele>
        <time>2024-09-13T07:34:16.000Z</time>
      </trkpt>
      <trkpt lat="44.43399" lon="6.98093">
        <ele>1824.5999755859</ele>
        <time>2024-09-13T07:34:17.000Z</time>
      </trkpt>
      <trkpt lat="44.43399" lon="6.98093">
        <ele>1824.5999755859</ele>
        <time>2024-09-13T07:34:19.000Z</time>
      </trkpt>
      <trkpt lat="44.43397" lon="6.98093">
        <ele>1824.5999755859</ele>
        <time>2024-09-13T07:34:20.000Z</time>
      </trkpt>
      <trkpt lat="44.43396" lon="6.98094">
        <ele>1824.5999755859</ele>
        <time>2024-09-13T07:34:22.000Z</time>
      </trkpt>
      <trkpt lat="44.43398" lon="6.98095">
        <ele>1824.4000244141</ele>
        <time>2024-09-13T07:34:28.000Z</time>
      </trkpt>
      <trkpt lat="44.43398" lon="6.98095">
        <ele>1824.4000244141</ele>
        <time>2024-09-13T07:34:29.000Z</time>
      </trkpt>
      <trkpt lat="44.43398" lon="6.98095">
        <ele>1824.4000244141</ele>
        <time>2024-09-13T07:34:39.000Z</time>
      </trkpt>
      <trkpt lat="44.43398" lon="6.98094">
        <ele>1824.5999755859</ele>
        <time>2024-09-13T07:34:47.000Z</time>
      </trkpt>
      <trkpt lat="44.43398" lon="6.98094">
        <ele>1824.5999755859</ele>
        <time>2024-09-13T07:34:52.000Z</time>
      </trkpt>
      <trkpt lat="44.43398" lon="6.98094">
        <ele>1824.5999755859</ele>
        <time>2024-09-13T07:34:53.000Z</time>
      </trkpt>
      <trkpt lat="44.43397" lon="6.98098">
        <ele>1824.5999755859</ele>
        <time>2024-09-13T07:34:58.000Z</time>
      </trkpt>
      <trkpt lat="44.43397" lon="6.98098">
        <ele>1824.5999755859</ele>
        <time>2024-09-13T07:34:59.000Z</time>
      </trkpt>
      <trkpt lat="44.43394" lon="6.98101">
        <ele>1824.5999755859</ele>
        <time>2024-09-13T07:35:02.000Z</time>
      </trkpt>
      <trkpt lat="44.43391" lon="6.98103">
        <ele>1824.5999755859</ele>
        <time>2024-09-13T07:35:04.000Z</time>
      </trkpt>
      <trkpt lat="44.43391" lon="6.98103">
        <ele>1824.1999511719</ele>
        <time>2024-09-13T07:35:05.000Z</time>
      </trkpt>
      <trkpt lat="44.43391" lon="6.98103">
        <ele>1824.1999511719</ele>
        <time>2024-09-13T07:35:06.000Z</time>
      </trkpt>
      <trkpt lat="44.43389" lon="6.98104">
        <ele>1824.4000244141</ele>
        <time>2024-09-13T07:35:07.000Z</time>
      </trkpt>
      <trkpt lat="44.4339" lon="6.98104">
        <ele>1824.5999755859</ele>
        <time>2024-09-13T07:35:08.000Z</time>
      </trkpt>
      <trkpt lat="44.4339" lon="6.98104">
        <ele>1824.5999755859</ele>
        <time>2024-09-13T07:35:09.000Z</time>
      </trkpt>
      <trkpt lat="44.4339" lon="6.98104">
        <ele>1824.5999755859</ele>
        <time>2024-09-13T07:35:10.000Z</time>
      </trkpt>
      <trkpt lat="44.4339" lon="6.98104">
        <ele>1825</ele>
        <time>2024-09-13T07:35:29.000Z</time>
      </trkpt>
      <trkpt lat="44.4339" lon="6.98104">
        <ele>1825.1999511719</ele>
        <time>2024-09-13T07:35:32.000Z</time>
      </trkpt>
      <trkpt lat="44.43392" lon="6.98098">
        <ele>1825.1999511719</ele>
        <time>2024-09-13T07:35:50.000Z</time>
      </trkpt>
      <trkpt lat="44.43392" lon="6.98098">
        <ele>1825.4000244141</ele>
        <time>2024-09-13T07:35:52.000Z</time>
      </trkpt>
      <trkpt lat="44.43392" lon="6.98096">
        <ele>1825.1999511719</ele>
        <time>2024-09-13T07:35:56.000Z</time>
      </trkpt>
      <trkpt lat="44.43393" lon="6.98095">
        <ele>1825.1999511719</ele>
        <time>2024-09-13T07:35:58.000Z</time>
      </trkpt>
      <trkpt lat="44.43393" lon="6.98095">
        <ele>1825.1999511719</ele>
        <time>2024-09-13T07:35:59.000Z</time>
      </trkpt>
      <trkpt lat="44.43394" lon="6.98096">
        <ele>1825.1999511719</ele>
        <time>2024-09-13T07:36:03.000Z</time>
      </trkpt>
      <trkpt lat="44.43394" lon="6.98096">
        <ele>1825</ele>
        <time>2024-09-13T07:36:05.000Z</time>
      </trkpt>
      <trkpt lat="44.43397" lon="6.98095">
        <ele>1825</ele>
        <time>2024-09-13T07:36:10.000Z</time>
      </trkpt>
      <trkpt lat="44.43397" lon="6.98095">
        <ele>1825</ele>
        <time>2024-09-13T07:36:11.000Z</time>
      </trkpt>
      <trkpt lat="44.43397" lon="6.98095">
        <ele>1825.1999511719</ele>
        <time>2024-09-13T07:36:12.000Z</time>
      </trkpt>
      <trkpt lat="44.43398" lon="6.98095">
        <ele>1825.1999511719</ele>
        <time>2024-09-13T07:36:13.000Z</time>
      </trkpt>
      <trkpt lat="44.43399" lon="6.98094">
        <ele>1825.1999511719</ele>
        <time>2024-09-13T07:36:14.000Z</time>
      </trkpt>
      <trkpt lat="44.43399" lon="6.98094">
        <ele>1825.1999511719</ele>
        <time>2024-09-13T07:36:15.000Z</time>
      </trkpt>
      <trkpt lat="44.434" lon="6.98094">
        <ele>1825.1999511719</ele>
        <time>2024-09-13T07:36:16.000Z</time>
      </trkpt>
      <trkpt lat="44.434" lon="6.98094">
        <ele>1825.1999511719</ele>
        <time>2024-09-13T07:36:17.000Z</time>
      </trkpt>
      <trkpt lat="44.434" lon="6.98093">
        <ele>1825.1999511719</ele>
        <time>2024-09-13T07:36:19.000Z</time>
      </trkpt>
      <trkpt lat="44.434" lon="6.98093">
        <ele>1825.1999511719</ele>
        <time>2024-09-13T07:36:20.000Z</time>
      </trkpt>
      <trkpt lat="44.434" lon="6.98094">
        <ele>1825.1999511719</ele>
        <time>2024-09-13T07:36:21.000Z</time>
      </trkpt>
      <trkpt lat="44.434" lon="6.98094">
        <ele>1825.1999511719</ele>
        <time>2024-09-13T07:36:22.000Z</time>
      </trkpt>
      <trkpt lat="44.434" lon="6.98094">
        <ele>1825.1999511719</ele>
        <time>2024-09-13T07:36:23.000Z</time>
      </trkpt>
      <trkpt lat="44.43401" lon="6.98094">
        <ele>1825.1999511719</ele>
        <time>2024-09-13T07:36:26.000Z</time>
      </trkpt>
      <trkpt lat="44.434" lon="6.98094">
        <ele>1825.1999511719</ele>
        <time>2024-09-13T07:36:27.000Z</time>
      </trkpt>
      <trkpt lat="44.434" lon="6.98094">
        <ele>1825.1999511719</ele>
        <time>2024-09-13T07:36:28.000Z</time>
      </trkpt>
      <trkpt lat="44.434" lon="6.98094">
        <ele>1825.1999511719</ele>
        <time>2024-09-13T07:36:29.000Z</time>
      </trkpt>
      <trkpt lat="44.43398" lon="6.98094">
        <ele>1825.1999511719</ele>
        <time>2024-09-13T07:36:33.000Z</time>
      </trkpt>
      <trkpt lat="44.43398" lon="6.98094">
        <ele>1825.1999511719</ele>
        <time>2024-09-13T07:36:34.000Z</time>
      </trkpt>
      <trkpt lat="44.43398" lon="6.98094">
        <ele>1825.1999511719</ele>
        <time>2024-09-13T07:36:35.000Z</time>
      </trkpt>
      <trkpt lat="44.43398" lon="6.98094">
        <ele>1825.1999511719</ele>
        <time>2024-09-13T07:36:37.000Z</time>
      </trkpt>
      <trkpt lat="44.43399" lon="6.98094">
        <ele>1825.1999511719</ele>
        <time>2024-09-13T07:36:41.000Z</time>
      </trkpt>
      <trkpt lat="44.43399" lon="6.98095">
        <ele>1825.1999511719</ele>
        <time>2024-09-13T07:36:42.000Z</time>
      </trkpt>
      <trkpt lat="44.43398" lon="6.98096">
        <ele>1825.1999511719</ele>
        <time>2024-09-13T07:36:44.000Z</time>
      </trkpt>
      <trkpt lat="44.43398" lon="6.98096">
        <ele>1825.1999511719</ele>
        <time>2024-09-13T07:36:45.000Z</time>
      </trkpt>
      <trkpt lat="44.43398" lon="6.98096">
        <ele>1825.1999511719</ele>
        <time>2024-09-13T07:36:48.000Z</time>
      </trkpt>
      <trkpt lat="44.43398" lon="6.98096">
        <ele>1825.1999511719</ele>
        <time>2024-09-13T07:36:49.000Z</time>
      </trkpt>
      <trkpt lat="44.43398" lon="6.98095">
        <ele>1825.1999511719</ele>
        <time>2024-09-13T07:36:53.000Z</time>
      </trkpt>
      <trkpt lat="44.43398" lon="6.98095">
        <ele>1825.1999511719</ele>
        <time>2024-09-13T07:36:54.000Z</time>
      </trkpt>
      <trkpt lat="44.43398" lon="6.98095">
        <ele>1825.1999511719</ele>
        <time>2024-09-13T07:37:00.000Z</time>
      </trkpt>
      <trkpt lat="44.43397" lon="6.98096">
        <ele>1825.1999511719</ele>
        <time>2024-09-13T07:37:02.000Z</time>
      </trkpt>
      <trkpt lat="44.43398" lon="6.98098">
        <ele>1825.1999511719</ele>
        <time>2024-09-13T07:37:06.000Z</time>
      </trkpt>
      <trkpt lat="44.43398" lon="6.98098">
        <ele>1825.1999511719</ele>
        <time>2024-09-13T07:37:09.000Z</time>
      </trkpt>
      <trkpt lat="44.43397" lon="6.981">
        <ele>1825.1999511719</ele>
        <time>2024-09-13T07:37:12.000Z</time>
      </trkpt>
      <trkpt lat="44.43397" lon="6.981">
        <ele>1825.1999511719</ele>
        <time>2024-09-13T07:37:15.000Z</time>
      </trkpt>
      <trkpt lat="44.43397" lon="6.98099">
        <ele>1825.1999511719</ele>
        <time>2024-09-13T07:37:16.000Z</time>
      </trkpt>
      <trkpt lat="44.43397" lon="6.98099">
        <ele>1825.1999511719</ele>
        <time>2024-09-13T07:37:18.000Z</time>
      </trkpt>
      <trkpt lat="44.43397" lon="6.98098">
        <ele>1825.1999511719</ele>
        <time>2024-09-13T07:37:20.000Z</time>
      </trkpt>
      <trkpt lat="44.43398" lon="6.98099">
        <ele>1825.1999511719</ele>
        <time>2024-09-13T07:37:26.000Z</time>
      </trkpt>
      <trkpt lat="44.43398" lon="6.98099">
        <ele>1825.1999511719</ele>
        <time>2024-09-13T07:37:27.000Z</time>
      </trkpt>
      <trkpt lat="44.43399" lon="6.98099">
        <ele>1825.1999511719</ele>
        <time>2024-09-13T07:37:28.000Z</time>
      </trkpt>
      <trkpt lat="44.434" lon="6.98099">
        <ele>1825.1999511719</ele>
        <time>2024-09-13T07:37:30.000Z</time>
      </trkpt>
      <trkpt lat="44.43401" lon="6.98099">
        <ele>1825.1999511719</ele>
        <time>2024-09-13T07:37:31.000Z</time>
      </trkpt>
      <trkpt lat="44.43402" lon="6.98099">
        <ele>1825.1999511719</ele>
        <time>2024-09-13T07:37:32.000Z</time>
      </trkpt>
      <trkpt lat="44.43402" lon="6.98099">
        <ele>1825.1999511719</ele>
        <time>2024-09-13T07:37:33.000Z</time>
      </trkpt>
      <trkpt lat="44.43403" lon="6.98099">
        <ele>1825.1999511719</ele>
        <time>2024-09-13T07:37:34.000Z</time>
      </trkpt>
      <trkpt lat="44.43403" lon="6.98099">
        <ele>1825.1999511719</ele>
        <time>2024-09-13T07:37:35.000Z</time>
      </trkpt>
      <trkpt lat="44.43403" lon="6.98099">
        <ele>1825.1999511719</ele>
        <time>2024-09-13T07:37:36.000Z</time>
      </trkpt>
      <trkpt lat="44.43405" lon="6.98101">
        <ele>1825.1999511719</ele>
        <time>2024-09-13T07:37:38.000Z</time>
      </trkpt>
      <trkpt lat="44.43405" lon="6.98101">
        <ele>1825.1999511719</ele>
        <time>2024-09-13T07:37:39.000Z</time>
      </trkpt>
      <trkpt lat="44.43405" lon="6.98101">
        <ele>1825.1999511719</ele>
        <time>2024-09-13T07:37:40.000Z</time>
      </trkpt>
      <trkpt lat="44.43405" lon="6.98101">
        <ele>1825.1999511719</ele>
        <time>2024-09-13T07:37:42.000Z</time>
      </trkpt>
      <trkpt lat="44.43406" lon="6.98104">
        <ele>1825.1999511719</ele>
        <time>2024-09-13T07:37:47.000Z</time>
      </trkpt>
      <trkpt lat="44.43406" lon="6.98104">
        <ele>1825.1999511719</ele>
        <time>2024-09-13T07:37:48.000Z</time>
      </trkpt>
      <trkpt lat="44.43406" lon="6.98104">
        <ele>1825.1999511719</ele>
        <time>2024-09-13T07:37:49.000Z</time>
      </trkpt>
      <trkpt lat="44.43406" lon="6.98104">
        <ele>1823.4000244141</ele>
        <time>2024-09-13T07:37:51.000Z</time>
      </trkpt>
      <trkpt lat="44.43405" lon="6.98102">
        <ele>1823.4000244141</ele>
        <time>2024-09-13T07:37:52.000Z</time>
      </trkpt>
      <trkpt lat="44.43404" lon="6.98101">
        <ele>1822.4000244141</ele>
        <time>2024-09-13T07:37:59.000Z</time>
      </trkpt>
      <trkpt lat="44.43404" lon="6.98101">
        <ele>1822.4000244141</ele>
        <time>2024-09-13T07:38:00.000Z</time>
      </trkpt>
      <trkpt lat="44.43402" lon="6.981">
        <ele>1822.4000244141</ele>
        <time>2024-09-13T07:38:09.000Z</time>
      </trkpt>
      <trkpt lat="44.43401" lon="6.981">
        <ele>1822.4000244141</ele>
        <time>2024-09-13T07:38:10.000Z</time>
      </trkpt>
      <trkpt lat="44.43401" lon="6.98099">
        <ele>1822.8000488281</ele>
        <time>2024-09-13T07:38:12.000Z</time>
      </trkpt>
      <trkpt lat="44.43401" lon="6.98099">
        <ele>1823</ele>
        <time>2024-09-13T07:38:13.000Z</time>
      </trkpt>
      <trkpt lat="44.43403" lon="6.98099">
        <ele>1823.1999511719</ele>
        <time>2024-09-13T07:38:18.000Z</time>
      </trkpt>
      <trkpt lat="44.43403" lon="6.98097">
        <ele>1823</ele>
        <time>2024-09-13T07:38:21.000Z</time>
      </trkpt>
      <trkpt lat="44.43403" lon="6.98098">
        <ele>1823</ele>
        <time>2024-09-13T07:38:23.000Z</time>
      </trkpt>
      <trkpt lat="44.43402" lon="6.98098">
        <ele>1822.8000488281</ele>
        <time>2024-09-13T07:38:26.000Z</time>
      </trkpt>
      <trkpt lat="44.43402" lon="6.98098">
        <ele>1822.8000488281</ele>
        <time>2024-09-13T07:38:27.000Z</time>
      </trkpt>
      <trkpt lat="44.43403" lon="6.981">
        <ele>1823.1999511719</ele>
        <time>2024-09-13T07:38:31.000Z</time>
      </trkpt>
      <trkpt lat="44.43405" lon="6.98101">
        <ele>1823.1999511719</ele>
        <time>2024-09-13T07:38:32.000Z</time>
      </trkpt>
      <trkpt lat="44.43405" lon="6.98102">
        <ele>1823</ele>
        <time>2024-09-13T07:38:34.000Z</time>
      </trkpt>
      <trkpt lat="44.43405" lon="6.98102">
        <ele>1823</ele>
        <time>2024-09-13T07:38:35.000Z</time>
      </trkpt>
      <trkpt lat="44.43405" lon="6.98102">
        <ele>1823</ele>
        <time>2024-09-13T07:38:36.000Z</time>
      </trkpt>
      <trkpt lat="44.43405" lon="6.98102">
        <ele>1823</ele>
        <time>2024-09-13T07:38:37.000Z</time>
      </trkpt>
      <trkpt lat="44.43405" lon="6.98102">
        <ele>1823</ele>
        <time>2024-09-13T07:38:38.000Z</time>
      </trkpt>
      <trkpt lat="44.43405" lon="6.981">
        <ele>1822.8000488281</ele>
        <time>2024-09-13T07:38:45.000Z</time>
      </trkpt>
      <trkpt lat="44.43405" lon="6.98101">
        <ele>1822.8000488281</ele>
        <time>2024-09-13T07:38:54.000Z</time>
      </trkpt>
      <trkpt lat="44.43403" lon="6.98099">
        <ele>1822.8000488281</ele>
        <time>2024-09-13T07:38:58.000Z</time>
      </trkpt>
      <trkpt lat="44.43403" lon="6.98099">
        <ele>1822.8000488281</ele>
        <time>2024-09-13T07:38:59.000Z</time>
      </trkpt>
      <trkpt lat="44.43402" lon="6.98098">
        <ele>1822.8000488281</ele>
        <time>2024-09-13T07:39:01.000Z</time>
      </trkpt>
      <trkpt lat="44.43401" lon="6.98098">
        <ele>1822.8000488281</ele>
        <time>2024-09-13T07:39:03.000Z</time>
      </trkpt>
      <trkpt lat="44.43401" lon="6.98097">
        <ele>1822.8000488281</ele>
        <time>2024-09-13T07:39:04.000Z</time>
      </trkpt>
      <trkpt lat="44.434" lon="6.98097">
        <ele>1822.8000488281</ele>
        <time>2024-09-13T07:39:05.000Z</time>
      </trkpt>
      <trkpt lat="44.43399" lon="6.98096">
        <ele>1822.8000488281</ele>
        <time>2024-09-13T07:39:07.000Z</time>
      </trkpt>
      <trkpt lat="44.43398" lon="6.98096">
        <ele>1822.8000488281</ele>
        <time>2024-09-13T07:39:09.000Z</time>
      </trkpt>
      <trkpt lat="44.43398" lon="6.98096">
        <ele>1822.8000488281</ele>
        <time>2024-09-13T07:39:10.000Z</time>
      </trkpt>
      <trkpt lat="44.43398" lon="6.98096">
        <ele>1822.8000488281</ele>
        <time>2024-09-13T07:39:11.000Z</time>
      </trkpt>
      <trkpt lat="44.43398" lon="6.98095">
        <ele>1822.8000488281</ele>
        <time>2024-09-13T07:39:18.000Z</time>
      </trkpt>
      <trkpt lat="44.43397" lon="6.98095">
        <ele>1822.8000488281</ele>
        <time>2024-09-13T07:39:20.000Z</time>
      </trkpt>
      <trkpt lat="44.43397" lon="6.98095">
        <ele>1822.8000488281</ele>
        <time>2024-09-13T07:39:26.000Z</time>
      </trkpt>
      <trkpt lat="44.43395" lon="6.98096">
        <ele>1822.8000488281</ele>
        <time>2024-09-13T07:39:30.000Z</time>
      </trkpt>
      <trkpt lat="44.43395" lon="6.98096">
        <ele>1822.8000488281</ele>
        <time>2024-09-13T07:39:31.000Z</time>
      </trkpt>
      <trkpt lat="44.43395" lon="6.98096">
        <ele>1822.8000488281</ele>
        <time>2024-09-13T07:39:32.000Z</time>
      </trkpt>
      <trkpt lat="44.43394" lon="6.98096">
        <ele>1822.8000488281</ele>
        <time>2024-09-13T07:39:34.000Z</time>
      </trkpt>
      <trkpt lat="44.43395" lon="6.98097">
        <ele>1822.8000488281</ele>
        <time>2024-09-13T07:39:38.000Z</time>
      </trkpt>
      <trkpt lat="44.43396" lon="6.98096">
        <ele>1822.8000488281</ele>
        <time>2024-09-13T07:39:44.000Z</time>
      </trkpt>
      <trkpt lat="44.43396" lon="6.98096">
        <ele>1822.8000488281</ele>
        <time>2024-09-13T07:39:45.000Z</time>
      </trkpt>
      <trkpt lat="44.43397" lon="6.98095">
        <ele>1822.8000488281</ele>
        <time>2024-09-13T07:39:53.000Z</time>
      </trkpt>
      <trkpt lat="44.43397" lon="6.98095">
        <ele>1822.8000488281</ele>
        <time>2024-09-13T07:40:01.000Z</time>
      </trkpt>
      <trkpt lat="44.43397" lon="6.98095">
        <ele>1822.8000488281</ele>
        <time>2024-09-13T07:40:07.000Z</time>
      </trkpt>
      <trkpt lat="44.43397" lon="6.98095">
        <ele>1822.8000488281</ele>
        <time>2024-09-13T07:40:18.000Z</time>
      </trkpt>
      <trkpt lat="44.43397" lon="6.98095">
        <ele>1822.8000488281</ele>
        <time>2024-09-13T07:40:21.000Z</time>
      </trkpt>
      <trkpt lat="44.43397" lon="6.98095">
        <ele>1822.8000488281</ele>
        <time>2024-09-13T07:40:32.000Z</time>
      </trkpt>
      <trkpt lat="44.43397" lon="6.98095">
        <ele>1822.8000488281</ele>
        <time>2024-09-13T07:40:37.000Z</time>
      </trkpt>
      <trkpt lat="44.43397" lon="6.98095">
        <ele>1822.8000488281</ele>
        <time>2024-09-13T07:40:42.000Z</time>
      </trkpt>
      <trkpt lat="44.43397" lon="6.98095">
        <ele>1822.8000488281</ele>
        <time>2024-09-13T07:40:48.000Z</time>
      </trkpt>
      <trkpt lat="44.43398" lon="6.98093">
        <ele>1822.8000488281</ele>
        <time>2024-09-13T07:41:02.000Z</time>
      </trkpt>
      <trkpt lat="44.43398" lon="6.98093">
        <ele>1822.8000488281</ele>
        <time>2024-09-13T07:41:10.000Z</time>
      </trkpt>
      <trkpt lat="44.43397" lon="6.98095">
        <ele>1822.8000488281</ele>
        <time>2024-09-13T07:41:18.000Z</time>
      </trkpt>
      <trkpt lat="44.43397" lon="6.98095">
        <ele>1822.8000488281</ele>
        <time>2024-09-13T07:41:23.000Z</time>
      </trkpt>
      <trkpt lat="44.43398" lon="6.98097">
        <ele>1822.8000488281</ele>
        <time>2024-09-13T07:41:24.000Z</time>
      </trkpt>
      <trkpt lat="44.43398" lon="6.98097">
        <ele>1822.8000488281</ele>
        <time>2024-09-13T07:41:25.000Z</time>
      </trkpt>
      <trkpt lat="44.43398" lon="6.98097">
        <ele>1822.8000488281</ele>
        <time>2024-09-13T07:41:27.000Z</time>
      </trkpt>
      <trkpt lat="44.43398" lon="6.98097">
        <ele>1822.8000488281</ele>
        <time>2024-09-13T07:41:28.000Z</time>
      </trkpt>
      <trkpt lat="44.43397" lon="6.98097">
        <ele>1822.8000488281</ele>
        <time>2024-09-13T07:41:29.000Z</time>
      </trkpt>
      <trkpt lat="44.43397" lon="6.98097">
        <ele>1822.8000488281</ele>
        <time>2024-09-13T07:41:42.000Z</time>
      </trkpt>
      <trkpt lat="44.43397" lon="6.98097">
        <ele>1822.8000488281</ele>
        <time>2024-09-13T07:41:43.000Z</time>
      </trkpt>
      <trkpt lat="44.43403" lon="6.98098">
        <ele>1822.8000488281</ele>
        <time>2024-09-13T07:41:49.000Z</time>
      </trkpt>
      <trkpt lat="44.43404" lon="6.98099">
        <ele>1822.8000488281</ele>
        <time>2024-09-13T07:41:50.000Z</time>
      </trkpt>
      <trkpt lat="44.43405" lon="6.981">
        <ele>1822.8000488281</ele>
        <time>2024-09-13T07:41:51.000Z</time>
      </trkpt>
      <trkpt lat="44.43405" lon="6.98101">
        <ele>1822.8000488281</ele>
        <time>2024-09-13T07:41:52.000Z</time>
      </trkpt>
      <trkpt lat="44.43406" lon="6.98101">
        <ele>1822.8000488281</ele>
        <time>2024-09-13T07:41:53.000Z</time>
      </trkpt>
      <trkpt lat="44.43406" lon="6.98101">
        <ele>1822.8000488281</ele>
        <time>2024-09-13T07:41:54.000Z</time>
      </trkpt>
      <trkpt lat="44.43404" lon="6.98101">
        <ele>1822.8000488281</ele>
        <time>2024-09-13T07:41:56.000Z</time>
      </trkpt>
      <trkpt lat="44.43403" lon="6.981">
        <ele>1822.8000488281</ele>
        <time>2024-09-13T07:41:58.000Z</time>
      </trkpt>
      <trkpt lat="44.434" lon="6.98099">
        <ele>1822.8000488281</ele>
        <time>2024-09-13T07:42:00.000Z</time>
      </trkpt>
      <trkpt lat="44.434" lon="6.98099">
        <ele>1822</ele>
        <time>2024-09-13T07:42:01.000Z</time>
      </trkpt>
      <trkpt lat="44.43399" lon="6.98098">
        <ele>1822.4000244141</ele>
        <time>2024-09-13T07:42:02.000Z</time>
      </trkpt>
      <trkpt lat="44.43398" lon="6.98098">
        <ele>1822.5999755859</ele>
        <time>2024-09-13T07:42:03.000Z</time>
      </trkpt>
      <trkpt lat="44.43398" lon="6.98098">
        <ele>1822.8000488281</ele>
        <time>2024-09-13T07:42:04.000Z</time>
      </trkpt>
      <trkpt lat="44.43398" lon="6.98098">
        <ele>1822.8000488281</ele>
        <time>2024-09-13T07:42:05.000Z</time>
      </trkpt>
      <trkpt lat="44.43398" lon="6.98098">
        <ele>1823.4000244141</ele>
        <time>2024-09-13T07:42:13.000Z</time>
      </trkpt>
      <trkpt lat="44.43397" lon="6.98097">
        <ele>1823.4000244141</ele>
        <time>2024-09-13T07:42:19.000Z</time>
      </trkpt>
      <trkpt lat="44.43397" lon="6.98097">
        <ele>1823.4000244141</ele>
        <time>2024-09-13T07:42:26.000Z</time>
      </trkpt>
      <trkpt lat="44.43397" lon="6.98097">
        <ele>1823.4000244141</ele>
        <time>2024-09-13T07:42:29.000Z</time>
      </trkpt>
      <trkpt lat="44.43397" lon="6.98097">
        <ele>1823.4000244141</ele>
        <time>2024-09-13T07:42:31.000Z</time>
      </trkpt>
      <trkpt lat="44.43397" lon="6.98097">
        <ele>1823.1999511719</ele>
        <time>2024-09-13T07:42:40.000Z</time>
      </trkpt>
      <trkpt lat="44.43397" lon="6.98097">
        <ele>1823</ele>
        <time>2024-09-13T07:42:53.000Z</time>
      </trkpt>
      <trkpt lat="44.43397" lon="6.98097">
        <ele>1822.5999755859</ele>
        <time>2024-09-13T07:43:12.000Z</time>
      </trkpt>
      <trkpt lat="44.43397" lon="6.98097">
        <ele>1822.5999755859</ele>
        <time>2024-09-13T07:43:13.000Z</time>
      </trkpt>
      <trkpt lat="44.43397" lon="6.98097">
        <ele>1822.5999755859</ele>
        <time>2024-09-13T07:43:14.000Z</time>
      </trkpt>
      <trkpt lat="44.43397" lon="6.98097">
        <ele>1822.5999755859</ele>
        <time>2024-09-13T07:43:15.000Z</time>
      </trkpt>
      <trkpt lat="44.43397" lon="6.98097">
        <ele>1822.5999755859</ele>
        <time>2024-09-13T07:43:16.000Z</time>
      </trkpt>
      <trkpt lat="44.43398" lon="6.98095">
        <ele>1822.4000244141</ele>
        <time>2024-09-13T07:43:20.000Z</time>
      </trkpt>
      <trkpt lat="44.43398" lon="6.98095">
        <ele>1822.4000244141</ele>
        <time>2024-09-13T07:43:21.000Z</time>
      </trkpt>
      <trkpt lat="44.43398" lon="6.98095">
        <ele>1822.4000244141</ele>
        <time>2024-09-13T07:43:22.000Z</time>
      </trkpt>
      <trkpt lat="44.43398" lon="6.98095">
        <ele>1822.4000244141</ele>
        <time>2024-09-13T07:43:23.000Z</time>
      </trkpt>
      <trkpt lat="44.43398" lon="6.98095">
        <ele>1822.5999755859</ele>
        <time>2024-09-13T07:43:29.000Z</time>
      </trkpt>
      <trkpt lat="44.43398" lon="6.98095">
        <ele>1822.8000488281</ele>
        <time>2024-09-13T07:43:43.000Z</time>
      </trkpt>
      <trkpt lat="44.43398" lon="6.98095">
        <ele>1822.8000488281</ele>
        <time>2024-09-13T07:43:46.000Z</time>
      </trkpt>
      <trkpt lat="44.43398" lon="6.98095">
        <ele>1822.8000488281</ele>
        <time>2024-09-13T07:43:48.000Z</time>
      </trkpt>
      <trkpt lat="44.43398" lon="6.98095">
        <ele>1823</ele>
        <time>2024-09-13T07:43:56.000Z</time>
      </trkpt>
      <trkpt lat="44.43398" lon="6.98095">
        <ele>1823</ele>
        <time>2024-09-13T07:43:57.000Z</time>
      </trkpt>
      <trkpt lat="44.43396" lon="6.98097">
        <ele>1823.1999511719</ele>
        <time>2024-09-13T07:44:03.000Z</time>
      </trkpt>
      <trkpt lat="44.43396" lon="6.98097">
        <ele>1823.4000244141</ele>
        <time>2024-09-13T07:44:11.000Z</time>
      </trkpt>
      <trkpt lat="44.43396" lon="6.98097">
        <ele>1823.8000488281</ele>
        <time>2024-09-13T07:44:15.000Z</time>
      </trkpt>
      <trkpt lat="44.43396" lon="6.98097">
        <ele>1824</ele>
        <time>2024-09-13T07:44:18.000Z</time>
      </trkpt>
      <trkpt lat="44.43396" lon="6.98097">
        <ele>1824</ele>
        <time>2024-09-13T07:44:19.000Z</time>
      </trkpt>
      <trkpt lat="44.43396" lon="6.98097">
        <ele>1824</ele>
        <time>2024-09-13T07:44:21.000Z</time>
      </trkpt>
      <trkpt lat="44.43396" lon="6.98098">
        <ele>1823.8000488281</ele>
        <time>2024-09-13T07:44:24.000Z</time>
      </trkpt>
      <trkpt lat="44.43396" lon="6.98098">
        <ele>1823.8000488281</ele>
        <time>2024-09-13T07:44:26.000Z</time>
      </trkpt>
      <trkpt lat="44.43396" lon="6.98097">
        <ele>1823.8000488281</ele>
        <time>2024-09-13T07:44:37.000Z</time>
      </trkpt>
      <trkpt lat="44.43396" lon="6.98097">
        <ele>1823.5999755859</ele>
        <time>2024-09-13T07:44:38.000Z</time>
      </trkpt>
      <trkpt lat="44.43396" lon="6.98097">
        <ele>1823.5999755859</ele>
        <time>2024-09-13T07:44:39.000Z</time>
      </trkpt>
      <trkpt lat="44.43396" lon="6.98097">
        <ele>1823.5999755859</ele>
        <time>2024-09-13T07:44:43.000Z</time>
      </trkpt>
      <trkpt lat="44.43396" lon="6.98097">
        <ele>1823.1999511719</ele>
        <time>2024-09-13T07:44:55.000Z</time>
      </trkpt>
      <trkpt lat="44.43396" lon="6.98097">
        <ele>1823</ele>
        <time>2024-09-13T07:45:00.000Z</time>
      </trkpt>
      <trkpt lat="44.43396" lon="6.98097">
        <ele>1822.8000488281</ele>
        <time>2024-09-13T07:45:05.000Z</time>
      </trkpt>
      <trkpt lat="44.43396" lon="6.98096">
        <ele>1822.8000488281</ele>
        <time>2024-09-13T07:45:08.000Z</time>
      </trkpt>
      <trkpt lat="44.43396" lon="6.98096">
        <ele>1822.5999755859</ele>
        <time>2024-09-13T07:45:12.000Z</time>
      </trkpt>
      <trkpt lat="44.43396" lon="6.98096">
        <ele>1822.5999755859</ele>
        <time>2024-09-13T07:45:19.000Z</time>
      </trkpt>
      <trkpt lat="44.43396" lon="6.98097">
        <ele>1822.5999755859</ele>
        <time>2024-09-13T07:45:20.000Z</time>
      </trkpt>
      <trkpt lat="44.43396" lon="6.98095">
        <ele>1822.5999755859</ele>
        <time>2024-09-13T07:45:24.000Z</time>
      </trkpt>
      <trkpt lat="44.43397" lon="6.98093">
        <ele>1822.5999755859</ele>
        <time>2024-09-13T07:45:28.000Z</time>
      </trkpt>
      <trkpt lat="44.43397" lon="6.98093">
        <ele>1822.5999755859</ele>
        <time>2024-09-13T07:45:29.000Z</time>
      </trkpt>
      <trkpt lat="44.43397" lon="6.98094">
        <ele>1822.5999755859</ele>
        <time>2024-09-13T07:45:30.000Z</time>
      </trkpt>
      <trkpt lat="44.43397" lon="6.98094">
        <ele>1822.5999755859</ele>
        <time>2024-09-13T07:45:33.000Z</time>
      </trkpt>
      <trkpt lat="44.43397" lon="6.98093">
        <ele>1822.5999755859</ele>
        <time>2024-09-13T07:45:39.000Z</time>
      </trkpt>
      <trkpt lat="44.43396" lon="6.98092">
        <ele>1822.5999755859</ele>
        <time>2024-09-13T07:45:40.000Z</time>
      </trkpt>
      <trkpt lat="44.43395" lon="6.98094">
        <ele>1822.5999755859</ele>
        <time>2024-09-13T07:45:44.000Z</time>
      </trkpt>
      <trkpt lat="44.43393" lon="6.98098">
        <ele>1822.5999755859</ele>
        <time>2024-09-13T07:45:50.000Z</time>
      </trkpt>
      <trkpt lat="44.43388" lon="6.98106">
        <ele>1822.5999755859</ele>
        <time>2024-09-13T07:45:55.000Z</time>
      </trkpt>
      <trkpt lat="44.43385" lon="6.98108">
        <ele>1823</ele>
        <time>2024-09-13T07:45:57.000Z</time>
      </trkpt>
      <trkpt lat="44.43384" lon="6.9811">
        <ele>1823.4000244141</ele>
        <time>2024-09-13T07:45:58.000Z</time>
      </trkpt>
      <trkpt lat="44.43383" lon="6.98111">
        <ele>1823.4000244141</ele>
        <time>2024-09-13T07:45:59.000Z</time>
      </trkpt>
      <trkpt lat="44.4338" lon="6.98114">
        <ele>1824</ele>
        <time>2024-09-13T07:46:02.000Z</time>
      </trkpt>
      <trkpt lat="44.43378" lon="6.98116">
        <ele>1824.4000244141</ele>
        <time>2024-09-13T07:46:04.000Z</time>
      </trkpt>
      <trkpt lat="44.43377" lon="6.98118">
        <ele>1824.5999755859</ele>
        <time>2024-09-13T07:46:05.000Z</time>
      </trkpt>
      <trkpt lat="44.43375" lon="6.98119">
        <ele>1824.8000488281</ele>
        <time>2024-09-13T07:46:07.000Z</time>
      </trkpt>
      <trkpt lat="44.43374" lon="6.9812">
        <ele>1825</ele>
        <time>2024-09-13T07:46:08.000Z</time>
      </trkpt>
      <trkpt lat="44.43373" lon="6.98121">
        <ele>1825.1999511719</ele>
        <time>2024-09-13T07:46:09.000Z</time>
      </trkpt>
      <trkpt lat="44.43369" lon="6.98123">
        <ele>1825.8000488281</ele>
        <time>2024-09-13T07:46:12.000Z</time>
      </trkpt>
      <trkpt lat="44.43368" lon="6.98124">
        <ele>1826</ele>
        <time>2024-09-13T07:46:13.000Z</time>
      </trkpt>
      <trkpt lat="44.43367" lon="6.98125">
        <ele>1826.1999511719</ele>
        <time>2024-09-13T07:46:14.000Z</time>
      </trkpt>
      <trkpt lat="44.43365" lon="6.98126">
        <ele>1826.1999511719</ele>
        <time>2024-09-13T07:46:15.000Z</time>
      </trkpt>
      <trkpt lat="44.43364" lon="6.98126">
        <ele>1826.4000244141</ele>
        <time>2024-09-13T07:46:16.000Z</time>
      </trkpt>
      <trkpt lat="44.43363" lon="6.98127">
        <ele>1826.5999755859</ele>
        <time>2024-09-13T07:46:17.000Z</time>
      </trkpt>
      <trkpt lat="44.43362" lon="6.98127">
        <ele>1826.8000488281</ele>
        <time>2024-09-13T07:46:18.000Z</time>
      </trkpt>
      <trkpt lat="44.43361" lon="6.98128">
        <ele>1827</ele>
        <time>2024-09-13T07:46:19.000Z</time>
      </trkpt>
      <trkpt lat="44.4336" lon="6.98128">
        <ele>1827.1999511719</ele>
        <time>2024-09-13T07:46:20.000Z</time>
      </trkpt>
      <trkpt lat="44.43358" lon="6.98129">
        <ele>1827.4000244141</ele>
        <time>2024-09-13T07:46:21.000Z</time>
      </trkpt>
      <trkpt lat="44.43357" lon="6.98129">
        <ele>1827.5999755859</ele>
        <time>2024-09-13T07:46:22.000Z</time>
      </trkpt>
      <trkpt lat="44.43356" lon="6.98129">
        <ele>1827.5999755859</ele>
        <time>2024-09-13T07:46:23.000Z</time>
      </trkpt>
      <trkpt lat="44.43355" lon="6.98129">
        <ele>1827.8000488281</ele>
        <time>2024-09-13T07:46:24.000Z</time>
      </trkpt>
      <trkpt lat="44.43353" lon="6.98129">
        <ele>1828</ele>
        <time>2024-09-13T07:46:25.000Z</time>
      </trkpt>
      <trkpt lat="44.43352" lon="6.9813">
        <ele>1828.1999511719</ele>
        <time>2024-09-13T07:46:26.000Z</time>
      </trkpt>
      <trkpt lat="44.43351" lon="6.98129">
        <ele>1828.1999511719</ele>
        <time>2024-09-13T07:46:27.000Z</time>
      </trkpt>
      <trkpt lat="44.4335" lon="6.9813">
        <ele>1828.4000244141</ele>
        <time>2024-09-13T07:46:28.000Z</time>
      </trkpt>
      <trkpt lat="44.43349" lon="6.9813">
        <ele>1828.4000244141</ele>
        <time>2024-09-13T07:46:29.000Z</time>
      </trkpt>
      <trkpt lat="44.43347" lon="6.98131">
        <ele>1828.8000488281</ele>
        <time>2024-09-13T07:46:30.000Z</time>
      </trkpt>
      <trkpt lat="44.43346" lon="6.98131">
        <ele>1829</ele>
        <time>2024-09-13T07:46:31.000Z</time>
      </trkpt>
      <trkpt lat="44.43344" lon="6.98132">
        <ele>1829</ele>
        <time>2024-09-13T07:46:32.000Z</time>
      </trkpt>
      <trkpt lat="44.43343" lon="6.98133">
        <ele>1829.4000244141</ele>
        <time>2024-09-13T07:46:33.000Z</time>
      </trkpt>
      <trkpt lat="44.43342" lon="6.98132">
        <ele>1829.4000244141</ele>
        <time>2024-09-13T07:46:34.000Z</time>
      </trkpt>
      <trkpt lat="44.43341" lon="6.98132">
        <ele>1829.5999755859</ele>
        <time>2024-09-13T07:46:35.000Z</time>
      </trkpt>
      <trkpt lat="44.4334" lon="6.98132">
        <ele>1829.5999755859</ele>
        <time>2024-09-13T07:46:36.000Z</time>
      </trkpt>
      <trkpt lat="44.43338" lon="6.98132">
        <ele>1829.8000488281</ele>
        <time>2024-09-13T07:46:37.000Z</time>
      </trkpt>
      <trkpt lat="44.43337" lon="6.98133">
        <ele>1830</ele>
        <time>2024-09-13T07:46:38.000Z</time>
      </trkpt>
      <trkpt lat="44.43336" lon="6.98133">
        <ele>1830.4000244141</ele>
        <time>2024-09-13T07:46:39.000Z</time>
      </trkpt>
      <trkpt lat="44.43334" lon="6.98134">
        <ele>1830.4000244141</ele>
        <time>2024-09-13T07:46:40.000Z</time>
      </trkpt>
      <trkpt lat="44.43333" lon="6.98134">
        <ele>1830.5999755859</ele>
        <time>2024-09-13T07:46:41.000Z</time>
      </trkpt>
      <trkpt lat="44.43332" lon="6.98134">
        <ele>1830.8000488281</ele>
        <time>2024-09-13T07:46:42.000Z</time>
      </trkpt>
      <trkpt lat="44.4333" lon="6.98135">
        <ele>1831</ele>
        <time>2024-09-13T07:46:43.000Z</time>
      </trkpt>
      <trkpt lat="44.43329" lon="6.98135">
        <ele>1831</ele>
        <time>2024-09-13T07:46:44.000Z</time>
      </trkpt>
      <trkpt lat="44.43328" lon="6.98135">
        <ele>1831.1999511719</ele>
        <time>2024-09-13T07:46:45.000Z</time>
      </trkpt>
      <trkpt lat="44.43326" lon="6.98136">
        <ele>1831.4000244141</ele>
        <time>2024-09-13T07:46:46.000Z</time>
      </trkpt>
      <trkpt lat="44.43325" lon="6.98136">
        <ele>1831.4000244141</ele>
        <time>2024-09-13T07:46:47.000Z</time>
      </trkpt>
      <trkpt lat="44.43323" lon="6.98136">
        <ele>1831.8000488281</ele>
        <time>2024-09-13T07:46:48.000Z</time>
      </trkpt>
      <trkpt lat="44.43322" lon="6.98136">
        <ele>1832</ele>
        <time>2024-09-13T07:46:49.000Z</time>
      </trkpt>
      <trkpt lat="44.43321" lon="6.98135">
        <ele>1832.4000244141</ele>
        <time>2024-09-13T07:46:50.000Z</time>
      </trkpt>
      <trkpt lat="44.43319" lon="6.98136">
        <ele>1832.4000244141</ele>
        <time>2024-09-13T07:46:51.000Z</time>
      </trkpt>
      <trkpt lat="44.43318" lon="6.98136">
        <ele>1832.5999755859</ele>
        <time>2024-09-13T07:46:52.000Z</time>
      </trkpt>
      <trkpt lat="44.43317" lon="6.98136">
        <ele>1832.8000488281</ele>
        <time>2024-09-13T07:46:53.000Z</time>
      </trkpt>
      <trkpt lat="44.43316" lon="6.98136">
        <ele>1833</ele>
        <time>2024-09-13T07:46:54.000Z</time>
      </trkpt>
      <trkpt lat="44.43314" lon="6.98136">
        <ele>1833.1999511719</ele>
        <time>2024-09-13T07:46:55.000Z</time>
      </trkpt>
      <trkpt lat="44.43313" lon="6.98136">
        <ele>1833.4000244141</ele>
        <time>2024-09-13T07:46:56.000Z</time>
      </trkpt>
      <trkpt lat="44.43312" lon="6.98136">
        <ele>1833.5999755859</ele>
        <time>2024-09-13T07:46:57.000Z</time>
      </trkpt>
      <trkpt lat="44.43311" lon="6.98136">
        <ele>1834</ele>
        <time>2024-09-13T07:46:58.000Z</time>
      </trkpt>
      <trkpt lat="44.43309" lon="6.98137">
        <ele>1834.1999511719</ele>
        <time>2024-09-13T07:46:59.000Z</time>
      </trkpt>
      <trkpt lat="44.43308" lon="6.98136">
        <ele>1834.4000244141</ele>
        <time>2024-09-13T07:47:00.000Z</time>
      </trkpt>
      <trkpt lat="44.43306" lon="6.98136">
        <ele>1834.5999755859</ele>
        <time>2024-09-13T07:47:01.000Z</time>
      </trkpt>
      <trkpt lat="44.43305" lon="6.98136">
        <ele>1834.8000488281</ele>
        <time>2024-09-13T07:47:02.000Z</time>
      </trkpt>
      <trkpt lat="44.43304" lon="6.98137">
        <ele>1835</ele>
        <time>2024-09-13T07:47:03.000Z</time>
      </trkpt>
      <trkpt lat="44.43303" lon="6.98137">
        <ele>1835.4000244141</ele>
        <time>2024-09-13T07:47:04.000Z</time>
      </trkpt>
      <trkpt lat="44.43301" lon="6.98137">
        <ele>1835.5999755859</ele>
        <time>2024-09-13T07:47:05.000Z</time>
      </trkpt>
      <trkpt lat="44.433" lon="6.98138">
        <ele>1835.8000488281</ele>
        <time>2024-09-13T07:47:06.000Z</time>
      </trkpt>
      <trkpt lat="44.43298" lon="6.98138">
        <ele>1835.8000488281</ele>
        <time>2024-09-13T07:47:07.000Z</time>
      </trkpt>
      <trkpt lat="44.43297" lon="6.98138">
        <ele>1836</ele>
        <time>2024-09-13T07:47:08.000Z</time>
      </trkpt>
      <trkpt lat="44.43296" lon="6.98139">
        <ele>1836.1999511719</ele>
        <time>2024-09-13T07:47:09.000Z</time>
      </trkpt>
      <trkpt lat="44.43295" lon="6.9814">
        <ele>1836.4000244141</ele>
        <time>2024-09-13T07:47:10.000Z</time>
      </trkpt>
      <trkpt lat="44.43294" lon="6.9814">
        <ele>1836.5999755859</ele>
        <time>2024-09-13T07:47:11.000Z</time>
      </trkpt>
      <trkpt lat="44.43293" lon="6.98142">
        <ele>1836.8000488281</ele>
        <time>2024-09-13T07:47:12.000Z</time>
      </trkpt>
      <trkpt lat="44.43292" lon="6.98143">
        <ele>1836.8000488281</ele>
        <time>2024-09-13T07:47:13.000Z</time>
      </trkpt>
      <trkpt lat="44.4329" lon="6.98144">
        <ele>1837</ele>
        <time>2024-09-13T07:47:14.000Z</time>
      </trkpt>
      <trkpt lat="44.43289" lon="6.98144">
        <ele>1837.1999511719</ele>
        <time>2024-09-13T07:47:15.000Z</time>
      </trkpt>
      <trkpt lat="44.43288" lon="6.98145">
        <ele>1837.4000244141</ele>
        <time>2024-09-13T07:47:16.000Z</time>
      </trkpt>
      <trkpt lat="44.43287" lon="6.98146">
        <ele>1837.8000488281</ele>
        <time>2024-09-13T07:47:17.000Z</time>
      </trkpt>
      <trkpt lat="44.43286" lon="6.98147">
        <ele>1837.8000488281</ele>
        <time>2024-09-13T07:47:18.000Z</time>
      </trkpt>
      <trkpt lat="44.43285" lon="6.98148">
        <ele>1838</ele>
        <time>2024-09-13T07:47:19.000Z</time>
      </trkpt>
      <trkpt lat="44.43284" lon="6.98149">
        <ele>1838.4000244141</ele>
        <time>2024-09-13T07:47:20.000Z</time>
      </trkpt>
      <trkpt lat="44.43283" lon="6.98151">
        <ele>1838.5999755859</ele>
        <time>2024-09-13T07:47:21.000Z</time>
      </trkpt>
      <trkpt lat="44.43282" lon="6.98152">
        <ele>1838.5999755859</ele>
        <time>2024-09-13T07:47:22.000Z</time>
      </trkpt>
      <trkpt lat="44.43281" lon="6.98153">
        <ele>1838.8000488281</ele>
        <time>2024-09-13T07:47:23.000Z</time>
      </trkpt>
      <trkpt lat="44.43281" lon="6.98155">
        <ele>1839.1999511719</ele>
        <time>2024-09-13T07:47:24.000Z</time>
      </trkpt>
      <trkpt lat="44.4328" lon="6.98156">
        <ele>1839.4000244141</ele>
        <time>2024-09-13T07:47:25.000Z</time>
      </trkpt>
      <trkpt lat="44.43279" lon="6.98157">
        <ele>1839.5999755859</ele>
        <time>2024-09-13T07:47:26.000Z</time>
      </trkpt>
      <trkpt lat="44.43278" lon="6.98158">
        <ele>1839.8000488281</ele>
        <time>2024-09-13T07:47:27.000Z</time>
      </trkpt>
      <trkpt lat="44.43277" lon="6.98159">
        <ele>1840.1999511719</ele>
        <time>2024-09-13T07:47:28.000Z</time>
      </trkpt>
      <trkpt lat="44.43276" lon="6.9816">
        <ele>1840.5999755859</ele>
        <time>2024-09-13T07:47:29.000Z</time>
      </trkpt>
      <trkpt lat="44.43275" lon="6.98161">
        <ele>1840.8000488281</ele>
        <time>2024-09-13T07:47:30.000Z</time>
      </trkpt>
      <trkpt lat="44.43274" lon="6.98162">
        <ele>1840.8000488281</ele>
        <time>2024-09-13T07:47:31.000Z</time>
      </trkpt>
      <trkpt lat="44.43272" lon="6.98163">
        <ele>1841</ele>
        <time>2024-09-13T07:47:32.000Z</time>
      </trkpt>
      <trkpt lat="44.43271" lon="6.98164">
        <ele>1841</ele>
        <time>2024-09-13T07:47:33.000Z</time>
      </trkpt>
      <trkpt lat="44.4327" lon="6.98165">
        <ele>1841.4000244141</ele>
        <time>2024-09-13T07:47:34.000Z</time>
      </trkpt>
      <trkpt lat="44.43268" lon="6.98165">
        <ele>1841.8000488281</ele>
        <time>2024-09-13T07:47:35.000Z</time>
      </trkpt>
      <trkpt lat="44.43267" lon="6.98165">
        <ele>1841.8000488281</ele>
        <time>2024-09-13T07:47:36.000Z</time>
      </trkpt>
      <trkpt lat="44.43266" lon="6.98166">
        <ele>1841.8000488281</ele>
        <time>2024-09-13T07:47:37.000Z</time>
      </trkpt>
      <trkpt lat="44.43265" lon="6.98166">
        <ele>1842</ele>
        <time>2024-09-13T07:47:38.000Z</time>
      </trkpt>
      <trkpt lat="44.43264" lon="6.98167">
        <ele>1842.1999511719</ele>
        <time>2024-09-13T07:47:39.000Z</time>
      </trkpt>
      <trkpt lat="44.43263" lon="6.98167">
        <ele>1842.4000244141</ele>
        <time>2024-09-13T07:47:40.000Z</time>
      </trkpt>
      <trkpt lat="44.43262" lon="6.98168">
        <ele>1842.5999755859</ele>
        <time>2024-09-13T07:47:41.000Z</time>
      </trkpt>
      <trkpt lat="44.43261" lon="6.98168">
        <ele>1842.5999755859</ele>
        <time>2024-09-13T07:47:42.000Z</time>
      </trkpt>
      <trkpt lat="44.4326" lon="6.98168">
        <ele>1842.8000488281</ele>
        <time>2024-09-13T07:47:43.000Z</time>
      </trkpt>
      <trkpt lat="44.43259" lon="6.98168">
        <ele>1842.8000488281</ele>
        <time>2024-09-13T07:47:44.000Z</time>
      </trkpt>
      <trkpt lat="44.43258" lon="6.98168">
        <ele>1843</ele>
        <time>2024-09-13T07:47:45.000Z</time>
      </trkpt>
      <trkpt lat="44.43257" lon="6.98168">
        <ele>1843.1999511719</ele>
        <time>2024-09-13T07:47:46.000Z</time>
      </trkpt>
      <trkpt lat="44.43256" lon="6.98168">
        <ele>1843.4000244141</ele>
        <time>2024-09-13T07:47:47.000Z</time>
      </trkpt>
      <trkpt lat="44.43255" lon="6.98168">
        <ele>1843.5999755859</ele>
        <time>2024-09-13T07:47:48.000Z</time>
      </trkpt>
      <trkpt lat="44.43253" lon="6.98168">
        <ele>1843.8000488281</ele>
        <time>2024-09-13T07:47:49.000Z</time>
      </trkpt>
      <trkpt lat="44.43252" lon="6.98168">
        <ele>1843.8000488281</ele>
        <time>2024-09-13T07:47:50.000Z</time>
      </trkpt>
      <trkpt lat="44.43251" lon="6.98168">
        <ele>1844</ele>
        <time>2024-09-13T07:47:51.000Z</time>
      </trkpt>
      <trkpt lat="44.4325" lon="6.98167">
        <ele>1844.1999511719</ele>
        <time>2024-09-13T07:47:52.000Z</time>
      </trkpt>
      <trkpt lat="44.43249" lon="6.98166">
        <ele>1844.1999511719</ele>
        <time>2024-09-13T07:47:53.000Z</time>
      </trkpt>
      <trkpt lat="44.43248" lon="6.98166">
        <ele>1844.1999511719</ele>
        <time>2024-09-13T07:47:54.000Z</time>
      </trkpt>
      <trkpt lat="44.43246" lon="6.98166">
        <ele>1844.4000244141</ele>
        <time>2024-09-13T07:47:55.000Z</time>
      </trkpt>
      <trkpt lat="44.43245" lon="6.98166">
        <ele>1844.4000244141</ele>
        <time>2024-09-13T07:47:56.000Z</time>
      </trkpt>
      <trkpt lat="44.43244" lon="6.98165">
        <ele>1844.5999755859</ele>
        <time>2024-09-13T07:47:57.000Z</time>
      </trkpt>
      <trkpt lat="44.43243" lon="6.98165">
        <ele>1844.5999755859</ele>
        <time>2024-09-13T07:47:58.000Z</time>
      </trkpt>
      <trkpt lat="44.43241" lon="6.98164">
        <ele>1845</ele>
        <time>2024-09-13T07:47:59.000Z</time>
      </trkpt>
      <trkpt lat="44.4324" lon="6.98164">
        <ele>1845</ele>
        <time>2024-09-13T07:48:00.000Z</time>
      </trkpt>
      <trkpt lat="44.43239" lon="6.98163">
        <ele>1845.1999511719</ele>
        <time>2024-09-13T07:48:01.000Z</time>
      </trkpt>
      <trkpt lat="44.43238" lon="6.98163">
        <ele>1845.4000244141</ele>
        <time>2024-09-13T07:48:02.000Z</time>
      </trkpt>
      <trkpt lat="44.43237" lon="6.98163">
        <ele>1845.4000244141</ele>
        <time>2024-09-13T07:48:03.000Z</time>
      </trkpt>
      <trkpt lat="44.43236" lon="6.98162">
        <ele>1845.4000244141</ele>
        <time>2024-09-13T07:48:04.000Z</time>
      </trkpt>
      <trkpt lat="44.43235" lon="6.98162">
        <ele>1845.4000244141</ele>
        <time>2024-09-13T07:48:05.000Z</time>
      </trkpt>
      <trkpt lat="44.43233" lon="6.98161">
        <ele>1845.5999755859</ele>
        <time>2024-09-13T07:48:06.000Z</time>
      </trkpt>
      <trkpt lat="44.43233" lon="6.9816">
        <ele>1845.8000488281</ele>
        <time>2024-09-13T07:48:07.000Z</time>
      </trkpt>
      <trkpt lat="44.43231" lon="6.9816">
        <ele>1845.8000488281</ele>
        <time>2024-09-13T07:48:08.000Z</time>
      </trkpt>
      <trkpt lat="44.4323" lon="6.9816">
        <ele>1846</ele>
        <time>2024-09-13T07:48:09.000Z</time>
      </trkpt>
      <trkpt lat="44.43229" lon="6.98159">
        <ele>1846</ele>
        <time>2024-09-13T07:48:10.000Z</time>
      </trkpt>
      <trkpt lat="44.43228" lon="6.98159">
        <ele>1846.1999511719</ele>
        <time>2024-09-13T07:48:11.000Z</time>
      </trkpt>
      <trkpt lat="44.43226" lon="6.98158">
        <ele>1846.1999511719</ele>
        <time>2024-09-13T07:48:12.000Z</time>
      </trkpt>
      <trkpt lat="44.43225" lon="6.98158">
        <ele>1846.4000244141</ele>
        <time>2024-09-13T07:48:13.000Z</time>
      </trkpt>
      <trkpt lat="44.43224" lon="6.98157">
        <ele>1846.8000488281</ele>
        <time>2024-09-13T07:48:14.000Z</time>
      </trkpt>
      <trkpt lat="44.43223" lon="6.98156">
        <ele>1847</ele>
        <time>2024-09-13T07:48:15.000Z</time>
      </trkpt>
      <trkpt lat="44.43222" lon="6.98156">
        <ele>1847</ele>
        <time>2024-09-13T07:48:16.000Z</time>
      </trkpt>
      <trkpt lat="44.43221" lon="6.98155">
        <ele>1847</ele>
        <time>2024-09-13T07:48:17.000Z</time>
      </trkpt>
      <trkpt lat="44.4322" lon="6.98154">
        <ele>1847</ele>
        <time>2024-09-13T07:48:18.000Z</time>
      </trkpt>
      <trkpt lat="44.43219" lon="6.98154">
        <ele>1847.1999511719</ele>
        <time>2024-09-13T07:48:19.000Z</time>
      </trkpt>
      <trkpt lat="44.43218" lon="6.98153">
        <ele>1847.4000244141</ele>
        <time>2024-09-13T07:48:20.000Z</time>
      </trkpt>
      <trkpt lat="44.43217" lon="6.98152">
        <ele>1847.4000244141</ele>
        <time>2024-09-13T07:48:21.000Z</time>
      </trkpt>
      <trkpt lat="44.43216" lon="6.98151">
        <ele>1847.5999755859</ele>
        <time>2024-09-13T07:48:22.000Z</time>
      </trkpt>
      <trkpt lat="44.43216" lon="6.9815">
        <ele>1848</ele>
        <time>2024-09-13T07:48:23.000Z</time>
      </trkpt>
      <trkpt lat="44.43216" lon="6.98149">
        <ele>1848</ele>
        <time>2024-09-13T07:48:24.000Z</time>
      </trkpt>
      <trkpt lat="44.43216" lon="6.98148">
        <ele>1848.1999511719</ele>
        <time>2024-09-13T07:48:25.000Z</time>
      </trkpt>
      <trkpt lat="44.43215" lon="6.98147">
        <ele>1848.1999511719</ele>
        <time>2024-09-13T07:48:26.000Z</time>
      </trkpt>
      <trkpt lat="44.43214" lon="6.98146">
        <ele>1848.4000244141</ele>
        <time>2024-09-13T07:48:27.000Z</time>
      </trkpt>
      <trkpt lat="44.43213" lon="6.98145">
        <ele>1848.4000244141</ele>
        <time>2024-09-13T07:48:28.000Z</time>
      </trkpt>
      <trkpt lat="44.43212" lon="6.98144">
        <ele>1848.4000244141</ele>
        <time>2024-09-13T07:48:29.000Z</time>
      </trkpt>
      <trkpt lat="44.43212" lon="6.98143">
        <ele>1848.4000244141</ele>
        <time>2024-09-13T07:48:30.000Z</time>
      </trkpt>
      <trkpt lat="44.43211" lon="6.98142">
        <ele>1848.5999755859</ele>
        <time>2024-09-13T07:48:31.000Z</time>
      </trkpt>
      <trkpt lat="44.43211" lon="6.98141">
        <ele>1848.5999755859</ele>
        <time>2024-09-13T07:48:32.000Z</time>
      </trkpt>
      <trkpt lat="44.4321" lon="6.9814">
        <ele>1848.8000488281</ele>
        <time>2024-09-13T07:48:33.000Z</time>
      </trkpt>
      <trkpt lat="44.43209" lon="6.98139">
        <ele>1849</ele>
        <time>2024-09-13T07:48:34.000Z</time>
      </trkpt>
      <trkpt lat="44.43208" lon="6.98137">
        <ele>1849.4000244141</ele>
        <time>2024-09-13T07:48:35.000Z</time>
      </trkpt>
      <trkpt lat="44.43207" lon="6.98135">
        <ele>1849.5999755859</ele>
        <time>2024-09-13T07:48:36.000Z</time>
      </trkpt>
      <trkpt lat="44.43207" lon="6.98134">
        <ele>1849.5999755859</ele>
        <time>2024-09-13T07:48:37.000Z</time>
      </trkpt>
      <trkpt lat="44.43206" lon="6.98132">
        <ele>1850</ele>
        <time>2024-09-13T07:48:38.000Z</time>
      </trkpt>
      <trkpt lat="44.43206" lon="6.9813">
        <ele>1850.1999511719</ele>
        <time>2024-09-13T07:48:39.000Z</time>
      </trkpt>
      <trkpt lat="44.43206" lon="6.98128">
        <ele>1850.4000244141</ele>
        <time>2024-09-13T07:48:40.000Z</time>
      </trkpt>
      <trkpt lat="44.43205" lon="6.98127">
        <ele>1850.5999755859</ele>
        <time>2024-09-13T07:48:41.000Z</time>
      </trkpt>
      <trkpt lat="44.43205" lon="6.98125">
        <ele>1850.8000488281</ele>
        <time>2024-09-13T07:48:42.000Z</time>
      </trkpt>
      <trkpt lat="44.43206" lon="6.98124">
        <ele>1850.8000488281</ele>
        <time>2024-09-13T07:48:43.000Z</time>
      </trkpt>
      <trkpt lat="44.43206" lon="6.98122">
        <ele>1851.1999511719</ele>
        <time>2024-09-13T07:48:44.000Z</time>
      </trkpt>
      <trkpt lat="44.43206" lon="6.98121">
        <ele>1851.4000244141</ele>
        <time>2024-09-13T07:48:45.000Z</time>
      </trkpt>
      <trkpt lat="44.43206" lon="6.98121">
        <ele>1851.8000488281</ele>
        <time>2024-09-13T07:48:46.000Z</time>
      </trkpt>
      <trkpt lat="44.43206" lon="6.98119">
        <ele>1852.1999511719</ele>
        <time>2024-09-13T07:48:47.000Z</time>
      </trkpt>
      <trkpt lat="44.43206" lon="6.98117">
        <ele>1852.4000244141</ele>
        <time>2024-09-13T07:48:48.000Z</time>
      </trkpt>
      <trkpt lat="44.43206" lon="6.98117">
        <ele>1852.5999755859</ele>
        <time>2024-09-13T07:48:49.000Z</time>
      </trkpt>
      <trkpt lat="44.43206" lon="6.98115">
        <ele>1852.5999755859</ele>
        <time>2024-09-13T07:48:50.000Z</time>
      </trkpt>
      <trkpt lat="44.43206" lon="6.98114">
        <ele>1852.8000488281</ele>
        <time>2024-09-13T07:48:51.000Z</time>
      </trkpt>
      <trkpt lat="44.43206" lon="6.98113">
        <ele>1852.8000488281</ele>
        <time>2024-09-13T07:48:52.000Z</time>
      </trkpt>
      <trkpt lat="44.43206" lon="6.98112">
        <ele>1853.1999511719</ele>
        <time>2024-09-13T07:48:53.000Z</time>
      </trkpt>
      <trkpt lat="44.43206" lon="6.98112">
        <ele>1853.1999511719</ele>
        <time>2024-09-13T07:48:54.000Z</time>
      </trkpt>
      <trkpt lat="44.43206" lon="6.98111">
        <ele>1853.1999511719</ele>
        <time>2024-09-13T07:48:55.000Z</time>
      </trkpt>
      <trkpt lat="44.43206" lon="6.9811">
        <ele>1853.4000244141</ele>
        <time>2024-09-13T07:48:56.000Z</time>
      </trkpt>
      <trkpt lat="44.43206" lon="6.9811">
        <ele>1853.1999511719</ele>
        <time>2024-09-13T07:49:01.000Z</time>
      </trkpt>
      <trkpt lat="44.43206" lon="6.9811">
        <ele>1853.1999511719</ele>
        <time>2024-09-13T07:49:04.000Z</time>
      </trkpt>
      <trkpt lat="44.43206" lon="6.98108">
        <ele>1853.1999511719</ele>
        <time>2024-09-13T07:49:05.000Z</time>
      </trkpt>
      <trkpt lat="44.43206" lon="6.98106">
        <ele>1853.1999511719</ele>
        <time>2024-09-13T07:49:06.000Z</time>
      </trkpt>
      <trkpt lat="44.43206" lon="6.98106">
        <ele>1853.1999511719</ele>
        <time>2024-09-13T07:49:07.000Z</time>
      </trkpt>
      <trkpt lat="44.43205" lon="6.98105">
        <ele>1853.4000244141</ele>
        <time>2024-09-13T07:49:08.000Z</time>
      </trkpt>
      <trkpt lat="44.43205" lon="6.98103">
        <ele>1853.4000244141</ele>
        <time>2024-09-13T07:49:09.000Z</time>
      </trkpt>
      <trkpt lat="44.43204" lon="6.98102">
        <ele>1853.5999755859</ele>
        <time>2024-09-13T07:49:11.000Z</time>
      </trkpt>
      <trkpt lat="44.43203" lon="6.98101">
        <ele>1853.5999755859</ele>
        <time>2024-09-13T07:49:12.000Z</time>
      </trkpt>
      <trkpt lat="44.43203" lon="6.98099">
        <ele>1853.8000488281</ele>
        <time>2024-09-13T07:49:13.000Z</time>
      </trkpt>
      <trkpt lat="44.43203" lon="6.98097">
        <ele>1853.8000488281</ele>
        <time>2024-09-13T07:49:14.000Z</time>
      </trkpt>
      <trkpt lat="44.43203" lon="6.98096">
        <ele>1854</ele>
        <time>2024-09-13T07:49:15.000Z</time>
      </trkpt>
      <trkpt lat="44.43203" lon="6.98094">
        <ele>1854</ele>
        <time>2024-09-13T07:49:16.000Z</time>
      </trkpt>
      <trkpt lat="44.43203" lon="6.98093">
        <ele>1854.1999511719</ele>
        <time>2024-09-13T07:49:17.000Z</time>
      </trkpt>
      <trkpt lat="44.43203" lon="6.98091">
        <ele>1854.4000244141</ele>
        <time>2024-09-13T07:49:18.000Z</time>
      </trkpt>
      <trkpt lat="44.43202" lon="6.9809">
        <ele>1854.5999755859</ele>
        <time>2024-09-13T07:49:19.000Z</time>
      </trkpt>
      <trkpt lat="44.43202" lon="6.98085">
        <ele>1855</ele>
        <time>2024-09-13T07:49:22.000Z</time>
      </trkpt>
      <trkpt lat="44.43202" lon="6.98084">
        <ele>1855.1999511719</ele>
        <time>2024-09-13T07:49:23.000Z</time>
      </trkpt>
      <trkpt lat="44.43201" lon="6.98081">
        <ele>1855.8000488281</ele>
        <time>2024-09-13T07:49:25.000Z</time>
      </trkpt>
      <trkpt lat="44.432" lon="6.9808">
        <ele>1855.8000488281</ele>
        <time>2024-09-13T07:49:26.000Z</time>
      </trkpt>
      <trkpt lat="44.43199" lon="6.98078">
        <ele>1856</ele>
        <time>2024-09-13T07:49:27.000Z</time>
      </trkpt>
      <trkpt lat="44.43198" lon="6.98077">
        <ele>1856.1999511719</ele>
        <time>2024-09-13T07:49:28.000Z</time>
      </trkpt>
      <trkpt lat="44.43197" lon="6.98076">
        <ele>1856.5999755859</ele>
        <time>2024-09-13T07:49:29.000Z</time>
      </trkpt>
      <trkpt lat="44.43196" lon="6.98074">
        <ele>1856.5999755859</ele>
        <time>2024-09-13T07:49:30.000Z</time>
      </trkpt>
      <trkpt lat="44.43196" lon="6.98073">
        <ele>1856.8000488281</ele>
        <time>2024-09-13T07:49:31.000Z</time>
      </trkpt>
      <trkpt lat="44.43195" lon="6.98072">
        <ele>1857</ele>
        <time>2024-09-13T07:49:32.000Z</time>
      </trkpt>
      <trkpt lat="44.43195" lon="6.9807">
        <ele>1857</ele>
        <time>2024-09-13T07:49:33.000Z</time>
      </trkpt>
      <trkpt lat="44.43194" lon="6.98069">
        <ele>1857</ele>
        <time>2024-09-13T07:49:34.000Z</time>
      </trkpt>
      <trkpt lat="44.43193" lon="6.98069">
        <ele>1857.4000244141</ele>
        <time>2024-09-13T07:49:35.000Z</time>
      </trkpt>
      <trkpt lat="44.43192" lon="6.98067">
        <ele>1857.8000488281</ele>
        <time>2024-09-13T07:49:36.000Z</time>
      </trkpt>
      <trkpt lat="44.43191" lon="6.98067">
        <ele>1857.8000488281</ele>
        <time>2024-09-13T07:49:37.000Z</time>
      </trkpt>
      <trkpt lat="44.4319" lon="6.98066">
        <ele>1858.1999511719</ele>
        <time>2024-09-13T07:49:38.000Z</time>
      </trkpt>
      <trkpt lat="44.43189" lon="6.98065">
        <ele>1858.4000244141</ele>
        <time>2024-09-13T07:49:39.000Z</time>
      </trkpt>
      <trkpt lat="44.43188" lon="6.98063">
        <ele>1858.5999755859</ele>
        <time>2024-09-13T07:49:40.000Z</time>
      </trkpt>
      <trkpt lat="44.43187" lon="6.98062">
        <ele>1858.5999755859</ele>
        <time>2024-09-13T07:49:41.000Z</time>
      </trkpt>
      <trkpt lat="44.43186" lon="6.98062">
        <ele>1858.8000488281</ele>
        <time>2024-09-13T07:49:42.000Z</time>
      </trkpt>
      <trkpt lat="44.43185" lon="6.98061">
        <ele>1858.8000488281</ele>
        <time>2024-09-13T07:49:43.000Z</time>
      </trkpt>
      <trkpt lat="44.43184" lon="6.98059">
        <ele>1859.1999511719</ele>
        <time>2024-09-13T07:49:44.000Z</time>
      </trkpt>
      <trkpt lat="44.43183" lon="6.98058">
        <ele>1859.4000244141</ele>
        <time>2024-09-13T07:49:45.000Z</time>
      </trkpt>
      <trkpt lat="44.43182" lon="6.98057">
        <ele>1859.4000244141</ele>
        <time>2024-09-13T07:49:46.000Z</time>
      </trkpt>
      <trkpt lat="44.43182" lon="6.98056">
        <ele>1859.4000244141</ele>
        <time>2024-09-13T07:49:47.000Z</time>
      </trkpt>
      <trkpt lat="44.43181" lon="6.98055">
        <ele>1859.8000488281</ele>
        <time>2024-09-13T07:49:48.000Z</time>
      </trkpt>
      <trkpt lat="44.4318" lon="6.98054">
        <ele>1859.8000488281</ele>
        <time>2024-09-13T07:49:49.000Z</time>
      </trkpt>
      <trkpt lat="44.43179" lon="6.98053">
        <ele>1860</ele>
        <time>2024-09-13T07:49:50.000Z</time>
      </trkpt>
      <trkpt lat="44.43179" lon="6.98052">
        <ele>1860.1999511719</ele>
        <time>2024-09-13T07:49:51.000Z</time>
      </trkpt>
      <trkpt lat="44.43178" lon="6.98051">
        <ele>1860.1999511719</ele>
        <time>2024-09-13T07:49:52.000Z</time>
      </trkpt>
      <trkpt lat="44.43177" lon="6.9805">
        <ele>1860.4000244141</ele>
        <time>2024-09-13T07:49:53.000Z</time>
      </trkpt>
      <trkpt lat="44.43176" lon="6.9805">
        <ele>1860.5999755859</ele>
        <time>2024-09-13T07:49:54.000Z</time>
      </trkpt>
      <trkpt lat="44.43175" lon="6.98048">
        <ele>1860.8000488281</ele>
        <time>2024-09-13T07:49:55.000Z</time>
      </trkpt>
      <trkpt lat="44.43174" lon="6.98048">
        <ele>1861</ele>
        <time>2024-09-13T07:49:56.000Z</time>
      </trkpt>
      <trkpt lat="44.43172" lon="6.98047">
        <ele>1861.1999511719</ele>
        <time>2024-09-13T07:49:57.000Z</time>
      </trkpt>
      <trkpt lat="44.43171" lon="6.98047">
        <ele>1861.4000244141</ele>
        <time>2024-09-13T07:49:58.000Z</time>
      </trkpt>
      <trkpt lat="44.4317" lon="6.98046">
        <ele>1861.5999755859</ele>
        <time>2024-09-13T07:49:59.000Z</time>
      </trkpt>
      <trkpt lat="44.43169" lon="6.98046">
        <ele>1861.8000488281</ele>
        <time>2024-09-13T07:50:00.000Z</time>
      </trkpt>
      <trkpt lat="44.43168" lon="6.98047">
        <ele>1862.1999511719</ele>
        <time>2024-09-13T07:50:01.000Z</time>
      </trkpt>
      <trkpt lat="44.43168" lon="6.98047">
        <ele>1862.4000244141</ele>
        <time>2024-09-13T07:50:02.000Z</time>
      </trkpt>
      <trkpt lat="44.43166" lon="6.98047">
        <ele>1862.8000488281</ele>
        <time>2024-09-13T07:50:03.000Z</time>
      </trkpt>
      <trkpt lat="44.43165" lon="6.98047">
        <ele>1862.8000488281</ele>
        <time>2024-09-13T07:50:04.000Z</time>
      </trkpt>
      <trkpt lat="44.43164" lon="6.98047">
        <ele>1863</ele>
        <time>2024-09-13T07:50:05.000Z</time>
      </trkpt>
      <trkpt lat="44.43163" lon="6.98046">
        <ele>1863.1999511719</ele>
        <time>2024-09-13T07:50:06.000Z</time>
      </trkpt>
      <trkpt lat="44.43161" lon="6.98046">
        <ele>1863.4000244141</ele>
        <time>2024-09-13T07:50:07.000Z</time>
      </trkpt>
      <trkpt lat="44.4316" lon="6.98046">
        <ele>1863.5999755859</ele>
        <time>2024-09-13T07:50:08.000Z</time>
      </trkpt>
      <trkpt lat="44.43159" lon="6.98045">
        <ele>1863.8000488281</ele>
        <time>2024-09-13T07:50:09.000Z</time>
      </trkpt>
      <trkpt lat="44.43158" lon="6.98045">
        <ele>1863.8000488281</ele>
        <time>2024-09-13T07:50:10.000Z</time>
      </trkpt>
      <trkpt lat="44.43156" lon="6.98046">
        <ele>1864</ele>
        <time>2024-09-13T07:50:11.000Z</time>
      </trkpt>
      <trkpt lat="44.43155" lon="6.98046">
        <ele>1864.1999511719</ele>
        <time>2024-09-13T07:50:12.000Z</time>
      </trkpt>
      <trkpt lat="44.43153" lon="6.98046">
        <ele>1864.5999755859</ele>
        <time>2024-09-13T07:50:13.000Z</time>
      </trkpt>
      <trkpt lat="44.43152" lon="6.98046">
        <ele>1864.8000488281</ele>
        <time>2024-09-13T07:50:14.000Z</time>
      </trkpt>
      <trkpt lat="44.43151" lon="6.98046">
        <ele>1864.8000488281</ele>
        <time>2024-09-13T07:50:15.000Z</time>
      </trkpt>
      <trkpt lat="44.4315" lon="6.98046">
        <ele>1865</ele>
        <time>2024-09-13T07:50:16.000Z</time>
      </trkpt>
      <trkpt lat="44.43149" lon="6.98046">
        <ele>1865</ele>
        <time>2024-09-13T07:50:17.000Z</time>
      </trkpt>
      <trkpt lat="44.43148" lon="6.98046">
        <ele>1865.1999511719</ele>
        <time>2024-09-13T07:50:18.000Z</time>
      </trkpt>
      <trkpt lat="44.43147" lon="6.98046">
        <ele>1865.4000244141</ele>
        <time>2024-09-13T07:50:19.000Z</time>
      </trkpt>
      <trkpt lat="44.43146" lon="6.98045">
        <ele>1865.5999755859</ele>
        <time>2024-09-13T07:50:20.000Z</time>
      </trkpt>
      <trkpt lat="44.43145" lon="6.98045">
        <ele>1865.8000488281</ele>
        <time>2024-09-13T07:50:21.000Z</time>
      </trkpt>
      <trkpt lat="44.43143" lon="6.98045">
        <ele>1865.8000488281</ele>
        <time>2024-09-13T07:50:22.000Z</time>
      </trkpt>
      <trkpt lat="44.43142" lon="6.98045">
        <ele>1866</ele>
        <time>2024-09-13T07:50:23.000Z</time>
      </trkpt>
      <trkpt lat="44.43141" lon="6.98044">
        <ele>1866.1999511719</ele>
        <time>2024-09-13T07:50:24.000Z</time>
      </trkpt>
      <trkpt lat="44.4314" lon="6.98044">
        <ele>1866.4000244141</ele>
        <time>2024-09-13T07:50:25.000Z</time>
      </trkpt>
      <trkpt lat="44.43139" lon="6.98044">
        <ele>1866.5999755859</ele>
        <time>2024-09-13T07:50:26.000Z</time>
      </trkpt>
      <trkpt lat="44.43138" lon="6.98044">
        <ele>1866.8000488281</ele>
        <time>2024-09-13T07:50:27.000Z</time>
      </trkpt>
      <trkpt lat="44.43137" lon="6.98044">
        <ele>1866.8000488281</ele>
        <time>2024-09-13T07:50:28.000Z</time>
      </trkpt>
      <trkpt lat="44.43136" lon="6.98044">
        <ele>1867</ele>
        <time>2024-09-13T07:50:29.000Z</time>
      </trkpt>
      <trkpt lat="44.43135" lon="6.98043">
        <ele>1867</ele>
        <time>2024-09-13T07:50:30.000Z</time>
      </trkpt>
      <trkpt lat="44.43134" lon="6.98043">
        <ele>1867.1999511719</ele>
        <time>2024-09-13T07:50:31.000Z</time>
      </trkpt>
      <trkpt lat="44.43132" lon="6.98042">
        <ele>1867.1999511719</ele>
        <time>2024-09-13T07:50:32.000Z</time>
      </trkpt>
      <trkpt lat="44.43131" lon="6.98042">
        <ele>1867.5999755859</ele>
        <time>2024-09-13T07:50:33.000Z</time>
      </trkpt>
      <trkpt lat="44.4313" lon="6.98041">
        <ele>1867.5999755859</ele>
        <time>2024-09-13T07:50:34.000Z</time>
      </trkpt>
      <trkpt lat="44.43129" lon="6.9804">
        <ele>1867.8000488281</ele>
        <time>2024-09-13T07:50:35.000Z</time>
      </trkpt>
      <trkpt lat="44.43128" lon="6.98039">
        <ele>1868</ele>
        <time>2024-09-13T07:50:36.000Z</time>
      </trkpt>
      <trkpt lat="44.43127" lon="6.98038">
        <ele>1868</ele>
        <time>2024-09-13T07:50:37.000Z</time>
      </trkpt>
      <trkpt lat="44.43126" lon="6.98037">
        <ele>1868</ele>
        <time>2024-09-13T07:50:38.000Z</time>
      </trkpt>
      <trkpt lat="44.43125" lon="6.98036">
        <ele>1868.1999511719</ele>
        <time>2024-09-13T07:50:39.000Z</time>
      </trkpt>
      <trkpt lat="44.43125" lon="6.98035">
        <ele>1868.1999511719</ele>
        <time>2024-09-13T07:50:40.000Z</time>
      </trkpt>
      <trkpt lat="44.43124" lon="6.98034">
        <ele>1868.4000244141</ele>
        <time>2024-09-13T07:50:41.000Z</time>
      </trkpt>
      <trkpt lat="44.43123" lon="6.98033">
        <ele>1868.5999755859</ele>
        <time>2024-09-13T07:50:42.000Z</time>
      </trkpt>
      <trkpt lat="44.43122" lon="6.98032">
        <ele>1868.5999755859</ele>
        <time>2024-09-13T07:50:43.000Z</time>
      </trkpt>
      <trkpt lat="44.43122" lon="6.98031">
        <ele>1869</ele>
        <time>2024-09-13T07:50:44.000Z</time>
      </trkpt>
      <trkpt lat="44.43121" lon="6.9803">
        <ele>1869.1999511719</ele>
        <time>2024-09-13T07:50:45.000Z</time>
      </trkpt>
      <trkpt lat="44.4312" lon="6.98029">
        <ele>1869.5999755859</ele>
        <time>2024-09-13T07:50:46.000Z</time>
      </trkpt>
      <trkpt lat="44.43119" lon="6.98028">
        <ele>1869.5999755859</ele>
        <time>2024-09-13T07:50:47.000Z</time>
      </trkpt>
      <trkpt lat="44.43118" lon="6.98026">
        <ele>1869.8000488281</ele>
        <time>2024-09-13T07:50:48.000Z</time>
      </trkpt>
      <trkpt lat="44.43117" lon="6.98025">
        <ele>1870</ele>
        <time>2024-09-13T07:50:49.000Z</time>
      </trkpt>
      <trkpt lat="44.43116" lon="6.98024">
        <ele>1870</ele>
        <time>2024-09-13T07:50:50.000Z</time>
      </trkpt>
      <trkpt lat="44.43115" lon="6.98024">
        <ele>1870.4000244141</ele>
        <time>2024-09-13T07:50:51.000Z</time>
      </trkpt>
      <trkpt lat="44.43114" lon="6.98023">
        <ele>1870.5999755859</ele>
        <time>2024-09-13T07:50:52.000Z</time>
      </trkpt>
      <trkpt lat="44.43113" lon="6.98022">
        <ele>1870.8000488281</ele>
        <time>2024-09-13T07:50:53.000Z</time>
      </trkpt>
      <trkpt lat="44.43112" lon="6.98021">
        <ele>1870.8000488281</ele>
        <time>2024-09-13T07:50:54.000Z</time>
      </trkpt>
      <trkpt lat="44.43111" lon="6.98019">
        <ele>1871</ele>
        <time>2024-09-13T07:50:55.000Z</time>
      </trkpt>
      <trkpt lat="44.4311" lon="6.98018">
        <ele>1871.1999511719</ele>
        <time>2024-09-13T07:50:56.000Z</time>
      </trkpt>
      <trkpt lat="44.4311" lon="6.98016">
        <ele>1871.4000244141</ele>
        <time>2024-09-13T07:50:57.000Z</time>
      </trkpt>
      <trkpt lat="44.43109" lon="6.98015">
        <ele>1871.8000488281</ele>
        <time>2024-09-13T07:50:58.000Z</time>
      </trkpt>
      <trkpt lat="44.43108" lon="6.98013">
        <ele>1871.8000488281</ele>
        <time>2024-09-13T07:50:59.000Z</time>
      </trkpt>
      <trkpt lat="44.43107" lon="6.98012">
        <ele>1872</ele>
        <time>2024-09-13T07:51:00.000Z</time>
      </trkpt>
      <trkpt lat="44.43106" lon="6.9801">
        <ele>1872</ele>
        <time>2024-09-13T07:51:01.000Z</time>
      </trkpt>
      <trkpt lat="44.43106" lon="6.98008">
        <ele>1872.1999511719</ele>
        <time>2024-09-13T07:51:02.000Z</time>
      </trkpt>
      <trkpt lat="44.43105" lon="6.98006">
        <ele>1872.1999511719</ele>
        <time>2024-09-13T07:51:03.000Z</time>
      </trkpt>
      <trkpt lat="44.43104" lon="6.98005">
        <ele>1872.4000244141</ele>
        <time>2024-09-13T07:51:04.000Z</time>
      </trkpt>
      <trkpt lat="44.43103" lon="6.98003">
        <ele>1872.5999755859</ele>
        <time>2024-09-13T07:51:05.000Z</time>
      </trkpt>
      <trkpt lat="44.43102" lon="6.98002">
        <ele>1872.8000488281</ele>
        <time>2024-09-13T07:51:06.000Z</time>
      </trkpt>
      <trkpt lat="44.43101" lon="6.98001">
        <ele>1872.8000488281</ele>
        <time>2024-09-13T07:51:07.000Z</time>
      </trkpt>
      <trkpt lat="44.431" lon="6.98">
        <ele>1873</ele>
        <time>2024-09-13T07:51:08.000Z</time>
      </trkpt>
      <trkpt lat="44.431" lon="6.98">
        <ele>1873</ele>
        <time>2024-09-13T07:51:09.000Z</time>
      </trkpt>
      <trkpt lat="44.43099" lon="6.97999">
        <ele>1873.1999511719</ele>
        <time>2024-09-13T07:51:10.000Z</time>
      </trkpt>
      <trkpt lat="44.43097" lon="6.97998">
        <ele>1873.4000244141</ele>
        <time>2024-09-13T07:51:11.000Z</time>
      </trkpt>
      <trkpt lat="44.43096" lon="6.97997">
        <ele>1873.4000244141</ele>
        <time>2024-09-13T07:51:12.000Z</time>
      </trkpt>
      <trkpt lat="44.43096" lon="6.97995">
        <ele>1873.5999755859</ele>
        <time>2024-09-13T07:51:13.000Z</time>
      </trkpt>
      <trkpt lat="44.43095" lon="6.97994">
        <ele>1873.5999755859</ele>
        <time>2024-09-13T07:51:14.000Z</time>
      </trkpt>
      <trkpt lat="44.43094" lon="6.97993">
        <ele>1873.8000488281</ele>
        <time>2024-09-13T07:51:15.000Z</time>
      </trkpt>
      <trkpt lat="44.43093" lon="6.97992">
        <ele>1874</ele>
        <time>2024-09-13T07:51:16.000Z</time>
      </trkpt>
      <trkpt lat="44.43091" lon="6.97991">
        <ele>1874.1999511719</ele>
        <time>2024-09-13T07:51:17.000Z</time>
      </trkpt>
      <trkpt lat="44.4309" lon="6.9799">
        <ele>1874.1999511719</ele>
        <time>2024-09-13T07:51:18.000Z</time>
      </trkpt>
      <trkpt lat="44.43089" lon="6.97989">
        <ele>1874.4000244141</ele>
        <time>2024-09-13T07:51:19.000Z</time>
      </trkpt>
      <trkpt lat="44.43088" lon="6.9799">
        <ele>1874.5999755859</ele>
        <time>2024-09-13T07:51:20.000Z</time>
      </trkpt>
      <trkpt lat="44.43087" lon="6.97989">
        <ele>1874.8000488281</ele>
        <time>2024-09-13T07:51:21.000Z</time>
      </trkpt>
      <trkpt lat="44.43086" lon="6.97988">
        <ele>1874.8000488281</ele>
        <time>2024-09-13T07:51:22.000Z</time>
      </trkpt>
      <trkpt lat="44.43085" lon="6.97988">
        <ele>1875</ele>
        <time>2024-09-13T07:51:23.000Z</time>
      </trkpt>
      <trkpt lat="44.43083" lon="6.97988">
        <ele>1875.1999511719</ele>
        <time>2024-09-13T07:51:24.000Z</time>
      </trkpt>
      <trkpt lat="44.43082" lon="6.97988">
        <ele>1875.1999511719</ele>
        <time>2024-09-13T07:51:25.000Z</time>
      </trkpt>
      <trkpt lat="44.43081" lon="6.97988">
        <ele>1875.4000244141</ele>
        <time>2024-09-13T07:51:26.000Z</time>
      </trkpt>
      <trkpt lat="44.4308" lon="6.97988">
        <ele>1875.4000244141</ele>
        <time>2024-09-13T07:51:27.000Z</time>
      </trkpt>
      <trkpt lat="44.43079" lon="6.97988">
        <ele>1875.4000244141</ele>
        <time>2024-09-13T07:51:28.000Z</time>
      </trkpt>
      <trkpt lat="44.43078" lon="6.97987">
        <ele>1875.8000488281</ele>
        <time>2024-09-13T07:51:29.000Z</time>
      </trkpt>
      <trkpt lat="44.43076" lon="6.97986">
        <ele>1875.8000488281</ele>
        <time>2024-09-13T07:51:30.000Z</time>
      </trkpt>
      <trkpt lat="44.43076" lon="6.97986">
        <ele>1875.8000488281</ele>
        <time>2024-09-13T07:51:31.000Z</time>
      </trkpt>
      <trkpt lat="44.43074" lon="6.97985">
        <ele>1876</ele>
        <time>2024-09-13T07:51:32.000Z</time>
      </trkpt>
      <trkpt lat="44.43073" lon="6.97984">
        <ele>1876.1999511719</ele>
        <time>2024-09-13T07:51:33.000Z</time>
      </trkpt>
      <trkpt lat="44.43072" lon="6.97984">
        <ele>1876.1999511719</ele>
        <time>2024-09-13T07:51:34.000Z</time>
      </trkpt>
      <trkpt lat="44.4307" lon="6.97983">
        <ele>1876.4000244141</ele>
        <time>2024-09-13T07:51:35.000Z</time>
      </trkpt>
      <trkpt lat="44.43069" lon="6.97982">
        <ele>1876.5999755859</ele>
        <time>2024-09-13T07:51:36.000Z</time>
      </trkpt>
      <trkpt lat="44.43068" lon="6.97981">
        <ele>1876.5999755859</ele>
        <time>2024-09-13T07:51:37.000Z</time>
      </trkpt>
      <trkpt lat="44.43067" lon="6.9798">
        <ele>1876.8000488281</ele>
        <time>2024-09-13T07:51:38.000Z</time>
      </trkpt>
      <trkpt lat="44.43066" lon="6.9798">
        <ele>1877</ele>
        <time>2024-09-13T07:51:39.000Z</time>
      </trkpt>
      <trkpt lat="44.43065" lon="6.97978">
        <ele>1877</ele>
        <time>2024-09-13T07:51:40.000Z</time>
      </trkpt>
      <trkpt lat="44.43064" lon="6.97977">
        <ele>1877.1999511719</ele>
        <time>2024-09-13T07:51:41.000Z</time>
      </trkpt>
      <trkpt lat="44.43063" lon="6.97977">
        <ele>1877.4000244141</ele>
        <time>2024-09-13T07:51:42.000Z</time>
      </trkpt>
      <trkpt lat="44.43062" lon="6.97975">
        <ele>1877.8000488281</ele>
        <time>2024-09-13T07:51:43.000Z</time>
      </trkpt>
      <trkpt lat="44.43061" lon="6.97974">
        <ele>1878</ele>
        <time>2024-09-13T07:51:44.000Z</time>
      </trkpt>
      <trkpt lat="44.4306" lon="6.97973">
        <ele>1878.1999511719</ele>
        <time>2024-09-13T07:51:45.000Z</time>
      </trkpt>
      <trkpt lat="44.43059" lon="6.97971">
        <ele>1878.1999511719</ele>
        <time>2024-09-13T07:51:46.000Z</time>
      </trkpt>
      <trkpt lat="44.43058" lon="6.9797">
        <ele>1878.1999511719</ele>
        <time>2024-09-13T07:51:47.000Z</time>
      </trkpt>
      <trkpt lat="44.43058" lon="6.97968">
        <ele>1878.1999511719</ele>
        <time>2024-09-13T07:51:48.000Z</time>
      </trkpt>
      <trkpt lat="44.43057" lon="6.97967">
        <ele>1878.4000244141</ele>
        <time>2024-09-13T07:51:49.000Z</time>
      </trkpt>
      <trkpt lat="44.43057" lon="6.97965">
        <ele>1878.4000244141</ele>
        <time>2024-09-13T07:51:50.000Z</time>
      </trkpt>
      <trkpt lat="44.43056" lon="6.97964">
        <ele>1878.5999755859</ele>
        <time>2024-09-13T07:51:51.000Z</time>
      </trkpt>
      <trkpt lat="44.43056" lon="6.97962">
        <ele>1878.8000488281</ele>
        <time>2024-09-13T07:51:52.000Z</time>
      </trkpt>
      <trkpt lat="44.43055" lon="6.97961">
        <ele>1878.8000488281</ele>
        <time>2024-09-13T07:51:53.000Z</time>
      </trkpt>
      <trkpt lat="44.43054" lon="6.97959">
        <ele>1879</ele>
        <time>2024-09-13T07:51:54.000Z</time>
      </trkpt>
      <trkpt lat="44.43053" lon="6.97958">
        <ele>1879.1999511719</ele>
        <time>2024-09-13T07:51:55.000Z</time>
      </trkpt>
      <trkpt lat="44.43052" lon="6.97957">
        <ele>1879.1999511719</ele>
        <time>2024-09-13T07:51:56.000Z</time>
      </trkpt>
      <trkpt lat="44.43051" lon="6.97955">
        <ele>1879.4000244141</ele>
        <time>2024-09-13T07:51:57.000Z</time>
      </trkpt>
      <trkpt lat="44.43051" lon="6.97953">
        <ele>1879.4000244141</ele>
        <time>2024-09-13T07:51:58.000Z</time>
      </trkpt>
      <trkpt lat="44.43051" lon="6.97951">
        <ele>1879.4000244141</ele>
        <time>2024-09-13T07:51:59.000Z</time>
      </trkpt>
      <trkpt lat="44.43051" lon="6.97949">
        <ele>1879.8000488281</ele>
        <time>2024-09-13T07:52:00.000Z</time>
      </trkpt>
      <trkpt lat="44.43051" lon="6.97947">
        <ele>1880</ele>
        <time>2024-09-13T07:52:01.000Z</time>
      </trkpt>
      <trkpt lat="44.4305" lon="6.97945">
        <ele>1880</ele>
        <time>2024-09-13T07:52:02.000Z</time>
      </trkpt>
      <trkpt lat="44.4305" lon="6.97942">
        <ele>1880</ele>
        <time>2024-09-13T07:52:03.000Z</time>
      </trkpt>
      <trkpt lat="44.43049" lon="6.9794">
        <ele>1880.1999511719</ele>
        <time>2024-09-13T07:52:04.000Z</time>
      </trkpt>
      <trkpt lat="44.43048" lon="6.97939">
        <ele>1880.4000244141</ele>
        <time>2024-09-13T07:52:05.000Z</time>
      </trkpt>
      <trkpt lat="44.43047" lon="6.97937">
        <ele>1880.4000244141</ele>
        <time>2024-09-13T07:52:06.000Z</time>
      </trkpt>
      <trkpt lat="44.43046" lon="6.97935">
        <ele>1880.8000488281</ele>
        <time>2024-09-13T07:52:07.000Z</time>
      </trkpt>
      <trkpt lat="44.43045" lon="6.97932">
        <ele>1881</ele>
        <time>2024-09-13T07:52:08.000Z</time>
      </trkpt>
      <trkpt lat="44.43045" lon="6.97929">
        <ele>1881.1999511719</ele>
        <time>2024-09-13T07:52:09.000Z</time>
      </trkpt>
      <trkpt lat="44.43044" lon="6.97926">
        <ele>1881.5999755859</ele>
        <time>2024-09-13T07:52:10.000Z</time>
      </trkpt>
      <trkpt lat="44.43044" lon="6.97923">
        <ele>1881.8000488281</ele>
        <time>2024-09-13T07:52:11.000Z</time>
      </trkpt>
      <trkpt lat="44.43043" lon="6.9792">
        <ele>1882</ele>
        <time>2024-09-13T07:52:12.000Z</time>
      </trkpt>
      <trkpt lat="44.43043" lon="6.97917">
        <ele>1882.4000244141</ele>
        <time>2024-09-13T07:52:13.000Z</time>
      </trkpt>
      <trkpt lat="44.43042" lon="6.97914">
        <ele>1882.5999755859</ele>
        <time>2024-09-13T07:52:14.000Z</time>
      </trkpt>
      <trkpt lat="44.43042" lon="6.97911">
        <ele>1883</ele>
        <time>2024-09-13T07:52:15.000Z</time>
      </trkpt>
      <trkpt lat="44.43041" lon="6.97907">
        <ele>1883.5999755859</ele>
        <time>2024-09-13T07:52:16.000Z</time>
      </trkpt>
      <trkpt lat="44.43041" lon="6.97904">
        <ele>1883.8000488281</ele>
        <time>2024-09-13T07:52:17.000Z</time>
      </trkpt>
      <trkpt lat="44.4304" lon="6.979">
        <ele>1884</ele>
        <time>2024-09-13T07:52:18.000Z</time>
      </trkpt>
      <trkpt lat="44.4304" lon="6.97896">
        <ele>1884</ele>
        <time>2024-09-13T07:52:19.000Z</time>
      </trkpt>
      <trkpt lat="44.4304" lon="6.97892">
        <ele>1884.5999755859</ele>
        <time>2024-09-13T07:52:20.000Z</time>
      </trkpt>
      <trkpt lat="44.43038" lon="6.97887">
        <ele>1884.8000488281</ele>
        <time>2024-09-13T07:52:21.000Z</time>
      </trkpt>
      <trkpt lat="44.43038" lon="6.97886">
        <ele>1885</ele>
        <time>2024-09-13T07:52:22.000Z</time>
      </trkpt>
      <trkpt lat="44.43037" lon="6.97883">
        <ele>1885.1999511719</ele>
        <time>2024-09-13T07:52:23.000Z</time>
      </trkpt>
      <trkpt lat="44.43036" lon="6.97881">
        <ele>1885.5999755859</ele>
        <time>2024-09-13T07:52:24.000Z</time>
      </trkpt>
      <trkpt lat="44.43035" lon="6.97879">
        <ele>1885.5999755859</ele>
        <time>2024-09-13T07:52:25.000Z</time>
      </trkpt>
      <trkpt lat="44.43034" lon="6.97877">
        <ele>1885.8000488281</ele>
        <time>2024-09-13T07:52:26.000Z</time>
      </trkpt>
      <trkpt lat="44.43034" lon="6.97874">
        <ele>1886</ele>
        <time>2024-09-13T07:52:27.000Z</time>
      </trkpt>
      <trkpt lat="44.43033" lon="6.97872">
        <ele>1886</ele>
        <time>2024-09-13T07:52:28.000Z</time>
      </trkpt>
      <trkpt lat="44.43033" lon="6.9787">
        <ele>1886.4000244141</ele>
        <time>2024-09-13T07:52:29.000Z</time>
      </trkpt>
      <trkpt lat="44.43032" lon="6.97868">
        <ele>1886.4000244141</ele>
        <time>2024-09-13T07:52:30.000Z</time>
      </trkpt>
      <trkpt lat="44.43032" lon="6.97866">
        <ele>1886.5999755859</ele>
        <time>2024-09-13T07:52:31.000Z</time>
      </trkpt>
      <trkpt lat="44.43031" lon="6.97864">
        <ele>1887</ele>
        <time>2024-09-13T07:52:32.000Z</time>
      </trkpt>
      <trkpt lat="44.4303" lon="6.97861">
        <ele>1887</ele>
        <time>2024-09-13T07:52:33.000Z</time>
      </trkpt>
      <trkpt lat="44.4303" lon="6.9786">
        <ele>1887</ele>
        <time>2024-09-13T07:52:34.000Z</time>
      </trkpt>
      <trkpt lat="44.43029" lon="6.97858">
        <ele>1887.1999511719</ele>
        <time>2024-09-13T07:52:35.000Z</time>
      </trkpt>
      <trkpt lat="44.43028" lon="6.97857">
        <ele>1887.1999511719</ele>
        <time>2024-09-13T07:52:36.000Z</time>
      </trkpt>
      <trkpt lat="44.43028" lon="6.97856">
        <ele>1887.4000244141</ele>
        <time>2024-09-13T07:52:37.000Z</time>
      </trkpt>
      <trkpt lat="44.43027" lon="6.97855">
        <ele>1887.4000244141</ele>
        <time>2024-09-13T07:52:38.000Z</time>
      </trkpt>
      <trkpt lat="44.43027" lon="6.97854">
        <ele>1887.4000244141</ele>
        <time>2024-09-13T07:52:39.000Z</time>
      </trkpt>
      <trkpt lat="44.43026" lon="6.97853">
        <ele>1887.4000244141</ele>
        <time>2024-09-13T07:52:40.000Z</time>
      </trkpt>
      <trkpt lat="44.43026" lon="6.97852">
        <ele>1887.4000244141</ele>
        <time>2024-09-13T07:52:41.000Z</time>
      </trkpt>
      <trkpt lat="44.43025" lon="6.97852">
        <ele>1887.4000244141</ele>
        <time>2024-09-13T07:52:42.000Z</time>
      </trkpt>
      <trkpt lat="44.43025" lon="6.97851">
        <ele>1887.4000244141</ele>
        <time>2024-09-13T07:52:43.000Z</time>
      </trkpt>
      <trkpt lat="44.43025" lon="6.97851">
        <ele>1887.4000244141</ele>
        <time>2024-09-13T07:52:44.000Z</time>
      </trkpt>
      <trkpt lat="44.43025" lon="6.97851">
        <ele>1887.4000244141</ele>
        <time>2024-09-13T07:52:45.000Z</time>
      </trkpt>
      <trkpt lat="44.43024" lon="6.9785">
        <ele>1887.4000244141</ele>
        <time>2024-09-13T07:52:46.000Z</time>
      </trkpt>
      <trkpt lat="44.43024" lon="6.9785">
        <ele>1887.4000244141</ele>
        <time>2024-09-13T07:52:47.000Z</time>
      </trkpt>
      <trkpt lat="44.43023" lon="6.9785">
        <ele>1887.4000244141</ele>
        <time>2024-09-13T07:52:48.000Z</time>
      </trkpt>
      <trkpt lat="44.43023" lon="6.97849">
        <ele>1887.4000244141</ele>
        <time>2024-09-13T07:52:49.000Z</time>
      </trkpt>
      <trkpt lat="44.43022" lon="6.9785">
        <ele>1887.4000244141</ele>
        <time>2024-09-13T07:52:51.000Z</time>
      </trkpt>
      <trkpt lat="44.43022" lon="6.9785">
        <ele>1887.4000244141</ele>
        <time>2024-09-13T07:52:52.000Z</time>
      </trkpt>
      <trkpt lat="44.43021" lon="6.9785">
        <ele>1887.4000244141</ele>
        <time>2024-09-13T07:52:53.000Z</time>
      </trkpt>
      <trkpt lat="44.43021" lon="6.9785">
        <ele>1887.1999511719</ele>
        <time>2024-09-13T07:52:55.000Z</time>
      </trkpt>
      <trkpt lat="44.43021" lon="6.9785">
        <ele>1887.1999511719</ele>
        <time>2024-09-13T07:52:56.000Z</time>
      </trkpt>
      <trkpt lat="44.4302" lon="6.97849">
        <ele>1887.1999511719</ele>
        <time>2024-09-13T07:52:59.000Z</time>
      </trkpt>
      <trkpt lat="44.43019" lon="6.97849">
        <ele>1887.4000244141</ele>
        <time>2024-09-13T07:53:00.000Z</time>
      </trkpt>
      <trkpt lat="44.43017" lon="6.97847">
        <ele>1887.4000244141</ele>
        <time>2024-09-13T07:53:03.000Z</time>
      </trkpt>
      <trkpt lat="44.43017" lon="6.97846">
        <ele>1887.4000244141</ele>
        <time>2024-09-13T07:53:04.000Z</time>
      </trkpt>
      <trkpt lat="44.43016" lon="6.97847">
        <ele>1887.4000244141</ele>
        <time>2024-09-13T07:53:05.000Z</time>
      </trkpt>
      <trkpt lat="44.43016" lon="6.97847">
        <ele>1887.5999755859</ele>
        <time>2024-09-13T07:53:06.000Z</time>
      </trkpt>
      <trkpt lat="44.43013" lon="6.97848">
        <ele>1887.5999755859</ele>
        <time>2024-09-13T07:53:14.000Z</time>
      </trkpt>
      <trkpt lat="44.4301" lon="6.9785">
        <ele>1887.5999755859</ele>
        <time>2024-09-13T07:53:17.000Z</time>
      </trkpt>
      <trkpt lat="44.43009" lon="6.9785">
        <ele>1887.5999755859</ele>
        <time>2024-09-13T07:53:18.000Z</time>
      </trkpt>
      <trkpt lat="44.43008" lon="6.9785">
        <ele>1887.8000488281</ele>
        <time>2024-09-13T07:53:19.000Z</time>
      </trkpt>
      <trkpt lat="44.43006" lon="6.9785">
        <ele>1887.8000488281</ele>
        <time>2024-09-13T07:53:20.000Z</time>
      </trkpt>
      <trkpt lat="44.43006" lon="6.97851">
        <ele>1887.8000488281</ele>
        <time>2024-09-13T07:53:21.000Z</time>
      </trkpt>
      <trkpt lat="44.43005" lon="6.97852">
        <ele>1887.8000488281</ele>
        <time>2024-09-13T07:53:22.000Z</time>
      </trkpt>
      <trkpt lat="44.43004" lon="6.97852">
        <ele>1888</ele>
        <time>2024-09-13T07:53:23.000Z</time>
      </trkpt>
      <trkpt lat="44.43002" lon="6.97852">
        <ele>1888</ele>
        <time>2024-09-13T07:53:24.000Z</time>
      </trkpt>
      <trkpt lat="44.43" lon="6.97853">
        <ele>1888</ele>
        <time>2024-09-13T07:53:26.000Z</time>
      </trkpt>
      <trkpt lat="44.42998" lon="6.97854">
        <ele>1888.1999511719</ele>
        <time>2024-09-13T07:53:27.000Z</time>
      </trkpt>
      <trkpt lat="44.42989" lon="6.97858">
        <ele>1889.1999511719</ele>
        <time>2024-09-13T07:53:33.000Z</time>
      </trkpt>
      <trkpt lat="44.42979" lon="6.97863">
        <ele>1890.1999511719</ele>
        <time>2024-09-13T07:53:39.000Z</time>
      </trkpt>
      <trkpt lat="44.42978" lon="6.97864">
        <ele>1890.4000244141</ele>
        <time>2024-09-13T07:53:40.000Z</time>
      </trkpt>
      <trkpt lat="44.42976" lon="6.97865">
        <ele>1890.5999755859</ele>
        <time>2024-09-13T07:53:41.000Z</time>
      </trkpt>
      <trkpt lat="44.42975" lon="6.97865">
        <ele>1890.5999755859</ele>
        <time>2024-09-13T07:53:42.000Z</time>
      </trkpt>
      <trkpt lat="44.42973" lon="6.97865">
        <ele>1890.5999755859</ele>
        <time>2024-09-13T07:53:43.000Z</time>
      </trkpt>
      <trkpt lat="44.42972" lon="6.97866">
        <ele>1890.5999755859</ele>
        <time>2024-09-13T07:53:44.000Z</time>
      </trkpt>
      <trkpt lat="44.4297" lon="6.97867">
        <ele>1890.8000488281</ele>
        <time>2024-09-13T07:53:45.000Z</time>
      </trkpt>
      <trkpt lat="44.42969" lon="6.97868">
        <ele>1891</ele>
        <time>2024-09-13T07:53:46.000Z</time>
      </trkpt>
      <trkpt lat="44.42967" lon="6.97868">
        <ele>1891.1999511719</ele>
        <time>2024-09-13T07:53:47.000Z</time>
      </trkpt>
      <trkpt lat="44.42965" lon="6.97869">
        <ele>1891.1999511719</ele>
        <time>2024-09-13T07:53:48.000Z</time>
      </trkpt>
      <trkpt lat="44.42964" lon="6.9787">
        <ele>1891.1999511719</ele>
        <time>2024-09-13T07:53:49.000Z</time>
      </trkpt>
      <trkpt lat="44.42962" lon="6.97871">
        <ele>1891.1999511719</ele>
        <time>2024-09-13T07:53:50.000Z</time>
      </trkpt>
      <trkpt lat="44.42961" lon="6.97872">
        <ele>1891.4000244141</ele>
        <time>2024-09-13T07:53:51.000Z</time>
      </trkpt>
      <trkpt lat="44.42959" lon="6.97873">
        <ele>1891.5999755859</ele>
        <time>2024-09-13T07:53:52.000Z</time>
      </trkpt>
      <trkpt lat="44.42958" lon="6.97874">
        <ele>1891.8000488281</ele>
        <time>2024-09-13T07:53:53.000Z</time>
      </trkpt>
      <trkpt lat="44.42956" lon="6.97875">
        <ele>1892</ele>
        <time>2024-09-13T07:53:54.000Z</time>
      </trkpt>
      <trkpt lat="44.42955" lon="6.97876">
        <ele>1892.1999511719</ele>
        <time>2024-09-13T07:53:55.000Z</time>
      </trkpt>
      <trkpt lat="44.42953" lon="6.97877">
        <ele>1892.1999511719</ele>
        <time>2024-09-13T07:53:56.000Z</time>
      </trkpt>
      <trkpt lat="44.42952" lon="6.97877">
        <ele>1892.8000488281</ele>
        <time>2024-09-13T07:53:57.000Z</time>
      </trkpt>
      <trkpt lat="44.4295" lon="6.97878">
        <ele>1893.1999511719</ele>
        <time>2024-09-13T07:53:58.000Z</time>
      </trkpt>
      <trkpt lat="44.42949" lon="6.97879">
        <ele>1893.1999511719</ele>
        <time>2024-09-13T07:53:59.000Z</time>
      </trkpt>
      <trkpt lat="44.42947" lon="6.9788">
        <ele>1893.4000244141</ele>
        <time>2024-09-13T07:54:00.000Z</time>
      </trkpt>
      <trkpt lat="44.42946" lon="6.97881">
        <ele>1893.5999755859</ele>
        <time>2024-09-13T07:54:01.000Z</time>
      </trkpt>
      <trkpt lat="44.42944" lon="6.97882">
        <ele>1893.5999755859</ele>
        <time>2024-09-13T07:54:02.000Z</time>
      </trkpt>
      <trkpt lat="44.42943" lon="6.97883">
        <ele>1894</ele>
        <time>2024-09-13T07:54:03.000Z</time>
      </trkpt>
      <trkpt lat="44.42941" lon="6.97884">
        <ele>1894.1999511719</ele>
        <time>2024-09-13T07:54:04.000Z</time>
      </trkpt>
      <trkpt lat="44.4294" lon="6.97885">
        <ele>1894.1999511719</ele>
        <time>2024-09-13T07:54:05.000Z</time>
      </trkpt>
      <trkpt lat="44.42938" lon="6.97886">
        <ele>1894.4000244141</ele>
        <time>2024-09-13T07:54:06.000Z</time>
      </trkpt>
      <trkpt lat="44.42937" lon="6.97887">
        <ele>1894.5999755859</ele>
        <time>2024-09-13T07:54:07.000Z</time>
      </trkpt>
      <trkpt lat="44.42936" lon="6.97888">
        <ele>1894.8000488281</ele>
        <time>2024-09-13T07:54:08.000Z</time>
      </trkpt>
      <trkpt lat="44.42934" lon="6.97889">
        <ele>1895</ele>
        <time>2024-09-13T07:54:09.000Z</time>
      </trkpt>
      <trkpt lat="44.42933" lon="6.97891">
        <ele>1895.1999511719</ele>
        <time>2024-09-13T07:54:10.000Z</time>
      </trkpt>
      <trkpt lat="44.42931" lon="6.97892">
        <ele>1895.4000244141</ele>
        <time>2024-09-13T07:54:11.000Z</time>
      </trkpt>
      <trkpt lat="44.4293" lon="6.97893">
        <ele>1895.4000244141</ele>
        <time>2024-09-13T07:54:12.000Z</time>
      </trkpt>
      <trkpt lat="44.42929" lon="6.97894">
        <ele>1895.4000244141</ele>
        <time>2024-09-13T07:54:13.000Z</time>
      </trkpt>
      <trkpt lat="44.42927" lon="6.97894">
        <ele>1895.5999755859</ele>
        <time>2024-09-13T07:54:14.000Z</time>
      </trkpt>
      <trkpt lat="44.42926" lon="6.97895">
        <ele>1896</ele>
        <time>2024-09-13T07:54:15.000Z</time>
      </trkpt>
      <trkpt lat="44.42924" lon="6.97895">
        <ele>1896.1999511719</ele>
        <time>2024-09-13T07:54:16.000Z</time>
      </trkpt>
      <trkpt lat="44.42922" lon="6.97896">
        <ele>1896.1999511719</ele>
        <time>2024-09-13T07:54:17.000Z</time>
      </trkpt>
      <trkpt lat="44.42921" lon="6.97897">
        <ele>1896.1999511719</ele>
        <time>2024-09-13T07:54:18.000Z</time>
      </trkpt>
      <trkpt lat="44.42919" lon="6.97897">
        <ele>1896.4000244141</ele>
        <time>2024-09-13T07:54:19.000Z</time>
      </trkpt>
      <trkpt lat="44.42918" lon="6.97897">
        <ele>1896.4000244141</ele>
        <time>2024-09-13T07:54:20.000Z</time>
      </trkpt>
      <trkpt lat="44.42916" lon="6.97898">
        <ele>1896.4000244141</ele>
        <time>2024-09-13T07:54:21.000Z</time>
      </trkpt>
      <trkpt lat="44.42914" lon="6.97898">
        <ele>1896.5999755859</ele>
        <time>2024-09-13T07:54:22.000Z</time>
      </trkpt>
      <trkpt lat="44.42912" lon="6.97899">
        <ele>1896.8000488281</ele>
        <time>2024-09-13T07:54:23.000Z</time>
      </trkpt>
      <trkpt lat="44.4291" lon="6.97899">
        <ele>1897</ele>
        <time>2024-09-13T07:54:24.000Z</time>
      </trkpt>
      <trkpt lat="44.42909" lon="6.97899">
        <ele>1897.1999511719</ele>
        <time>2024-09-13T07:54:25.000Z</time>
      </trkpt>
      <trkpt lat="44.42908" lon="6.97898">
        <ele>1897.5999755859</ele>
        <time>2024-09-13T07:54:26.000Z</time>
      </trkpt>
      <trkpt lat="44.42906" lon="6.97898">
        <ele>1898</ele>
        <time>2024-09-13T07:54:27.000Z</time>
      </trkpt>
      <trkpt lat="44.42905" lon="6.97897">
        <ele>1898.1999511719</ele>
        <time>2024-09-13T07:54:28.000Z</time>
      </trkpt>
      <trkpt lat="44.42904" lon="6.97896">
        <ele>1898.1999511719</ele>
        <time>2024-09-13T07:54:29.000Z</time>
      </trkpt>
      <trkpt lat="44.42903" lon="6.97896">
        <ele>1898.1999511719</ele>
        <time>2024-09-13T07:54:30.000Z</time>
      </trkpt>
      <trkpt lat="44.42901" lon="6.97896">
        <ele>1898.4000244141</ele>
        <time>2024-09-13T07:54:31.000Z</time>
      </trkpt>
      <trkpt lat="44.429" lon="6.97895">
        <ele>1898.4000244141</ele>
        <time>2024-09-13T07:54:32.000Z</time>
      </trkpt>
      <trkpt lat="44.42899" lon="6.97895">
        <ele>1898.5999755859</ele>
        <time>2024-09-13T07:54:33.000Z</time>
      </trkpt>
      <trkpt lat="44.42897" lon="6.97895">
        <ele>1898.8000488281</ele>
        <time>2024-09-13T07:54:34.000Z</time>
      </trkpt>
      <trkpt lat="44.42895" lon="6.97895">
        <ele>1898.8000488281</ele>
        <time>2024-09-13T07:54:35.000Z</time>
      </trkpt>
      <trkpt lat="44.42894" lon="6.97895">
        <ele>1899</ele>
        <time>2024-09-13T07:54:36.000Z</time>
      </trkpt>
      <trkpt lat="44.42892" lon="6.97895">
        <ele>1899.1999511719</ele>
        <time>2024-09-13T07:54:37.000Z</time>
      </trkpt>
      <trkpt lat="44.42891" lon="6.97896">
        <ele>1899.4000244141</ele>
        <time>2024-09-13T07:54:38.000Z</time>
      </trkpt>
      <trkpt lat="44.4289" lon="6.97897">
        <ele>1899.4000244141</ele>
        <time>2024-09-13T07:54:39.000Z</time>
      </trkpt>
      <trkpt lat="44.42888" lon="6.97898">
        <ele>1899.5999755859</ele>
        <time>2024-09-13T07:54:40.000Z</time>
      </trkpt>
      <trkpt lat="44.42887" lon="6.97899">
        <ele>1899.5999755859</ele>
        <time>2024-09-13T07:54:41.000Z</time>
      </trkpt>
      <trkpt lat="44.42886" lon="6.97901">
        <ele>1899.8000488281</ele>
        <time>2024-09-13T07:54:42.000Z</time>
      </trkpt>
      <trkpt lat="44.42884" lon="6.97903">
        <ele>1899.8000488281</ele>
        <time>2024-09-13T07:54:43.000Z</time>
      </trkpt>
      <trkpt lat="44.42883" lon="6.97904">
        <ele>1900</ele>
        <time>2024-09-13T07:54:44.000Z</time>
      </trkpt>
      <trkpt lat="44.42882" lon="6.97905">
        <ele>1900.1999511719</ele>
        <time>2024-09-13T07:54:45.000Z</time>
      </trkpt>
      <trkpt lat="44.42881" lon="6.97907">
        <ele>1900.1999511719</ele>
        <time>2024-09-13T07:54:46.000Z</time>
      </trkpt>
      <trkpt lat="44.4288" lon="6.97909">
        <ele>1900.4000244141</ele>
        <time>2024-09-13T07:54:47.000Z</time>
      </trkpt>
      <trkpt lat="44.42879" lon="6.9791">
        <ele>1900.5999755859</ele>
        <time>2024-09-13T07:54:48.000Z</time>
      </trkpt>
      <trkpt lat="44.42878" lon="6.97911">
        <ele>1900.5999755859</ele>
        <time>2024-09-13T07:54:49.000Z</time>
      </trkpt>
      <trkpt lat="44.42877" lon="6.97913">
        <ele>1900.8000488281</ele>
        <time>2024-09-13T07:54:50.000Z</time>
      </trkpt>
      <trkpt lat="44.42876" lon="6.97914">
        <ele>1901</ele>
        <time>2024-09-13T07:54:51.000Z</time>
      </trkpt>
      <trkpt lat="44.42875" lon="6.97916">
        <ele>1901.1999511719</ele>
        <time>2024-09-13T07:54:52.000Z</time>
      </trkpt>
      <trkpt lat="44.42874" lon="6.97918">
        <ele>1901.4000244141</ele>
        <time>2024-09-13T07:54:53.000Z</time>
      </trkpt>
      <trkpt lat="44.42873" lon="6.97919">
        <ele>1901.4000244141</ele>
        <time>2024-09-13T07:54:54.000Z</time>
      </trkpt>
      <trkpt lat="44.42872" lon="6.97921">
        <ele>1901.5999755859</ele>
        <time>2024-09-13T07:54:55.000Z</time>
      </trkpt>
      <trkpt lat="44.42871" lon="6.97923">
        <ele>1901.8000488281</ele>
        <time>2024-09-13T07:54:56.000Z</time>
      </trkpt>
      <trkpt lat="44.4287" lon="6.97924">
        <ele>1901.8000488281</ele>
        <time>2024-09-13T07:54:57.000Z</time>
      </trkpt>
      <trkpt lat="44.4287" lon="6.97925">
        <ele>1902</ele>
        <time>2024-09-13T07:54:58.000Z</time>
      </trkpt>
      <trkpt lat="44.42869" lon="6.97927">
        <ele>1902.1999511719</ele>
        <time>2024-09-13T07:54:59.000Z</time>
      </trkpt>
      <trkpt lat="44.42868" lon="6.97929">
        <ele>1902.4000244141</ele>
        <time>2024-09-13T07:55:00.000Z</time>
      </trkpt>
      <trkpt lat="44.42867" lon="6.97931">
        <ele>1902.5999755859</ele>
        <time>2024-09-13T07:55:01.000Z</time>
      </trkpt>
      <trkpt lat="44.42866" lon="6.97932">
        <ele>1902.8000488281</ele>
        <time>2024-09-13T07:55:02.000Z</time>
      </trkpt>
      <trkpt lat="44.42864" lon="6.97933">
        <ele>1903</ele>
        <time>2024-09-13T07:55:03.000Z</time>
      </trkpt>
      <trkpt lat="44.42863" lon="6.97935">
        <ele>1903</ele>
        <time>2024-09-13T07:55:04.000Z</time>
      </trkpt>
      <trkpt lat="44.42862" lon="6.97937">
        <ele>1903.4000244141</ele>
        <time>2024-09-13T07:55:05.000Z</time>
      </trkpt>
      <trkpt lat="44.42861" lon="6.97938">
        <ele>1903.5999755859</ele>
        <time>2024-09-13T07:55:06.000Z</time>
      </trkpt>
      <trkpt lat="44.4286" lon="6.9794">
        <ele>1903.8000488281</ele>
        <time>2024-09-13T07:55:07.000Z</time>
      </trkpt>
      <trkpt lat="44.42859" lon="6.97941">
        <ele>1903.8000488281</ele>
        <time>2024-09-13T07:55:08.000Z</time>
      </trkpt>
      <trkpt lat="44.42858" lon="6.97943">
        <ele>1903.8000488281</ele>
        <time>2024-09-13T07:55:09.000Z</time>
      </trkpt>
      <trkpt lat="44.42858" lon="6.97944">
        <ele>1903.8000488281</ele>
        <time>2024-09-13T07:55:10.000Z</time>
      </trkpt>
      <trkpt lat="44.42857" lon="6.97946">
        <ele>1904</ele>
        <time>2024-09-13T07:55:11.000Z</time>
      </trkpt>
      <trkpt lat="44.42855" lon="6.97948">
        <ele>1904</ele>
        <time>2024-09-13T07:55:12.000Z</time>
      </trkpt>
      <trkpt lat="44.42854" lon="6.9795">
        <ele>1904.1999511719</ele>
        <time>2024-09-13T07:55:13.000Z</time>
      </trkpt>
      <trkpt lat="44.42853" lon="6.97951">
        <ele>1904.4000244141</ele>
        <time>2024-09-13T07:55:14.000Z</time>
      </trkpt>
      <trkpt lat="44.42852" lon="6.97953">
        <ele>1904.4000244141</ele>
        <time>2024-09-13T07:55:15.000Z</time>
      </trkpt>
      <trkpt lat="44.42851" lon="6.97954">
        <ele>1904.5999755859</ele>
        <time>2024-09-13T07:55:16.000Z</time>
      </trkpt>
      <trkpt lat="44.42851" lon="6.97956">
        <ele>1904.5999755859</ele>
        <time>2024-09-13T07:55:17.000Z</time>
      </trkpt>
      <trkpt lat="44.4285" lon="6.97957">
        <ele>1904.8000488281</ele>
        <time>2024-09-13T07:55:18.000Z</time>
      </trkpt>
      <trkpt lat="44.42849" lon="6.97959">
        <ele>1904.8000488281</ele>
        <time>2024-09-13T07:55:19.000Z</time>
      </trkpt>
      <trkpt lat="44.42849" lon="6.9796">
        <ele>1905</ele>
        <time>2024-09-13T07:55:20.000Z</time>
      </trkpt>
      <trkpt lat="44.42848" lon="6.97962">
        <ele>1905</ele>
        <time>2024-09-13T07:55:21.000Z</time>
      </trkpt>
      <trkpt lat="44.42847" lon="6.97964">
        <ele>1905.4000244141</ele>
        <time>2024-09-13T07:55:22.000Z</time>
      </trkpt>
      <trkpt lat="44.42846" lon="6.97966">
        <ele>1905.4000244141</ele>
        <time>2024-09-13T07:55:23.000Z</time>
      </trkpt>
      <trkpt lat="44.42845" lon="6.97967">
        <ele>1905.8000488281</ele>
        <time>2024-09-13T07:55:24.000Z</time>
      </trkpt>
      <trkpt lat="44.42844" lon="6.97969">
        <ele>1905.8000488281</ele>
        <time>2024-09-13T07:55:25.000Z</time>
      </trkpt>
      <trkpt lat="44.42843" lon="6.9797">
        <ele>1906</ele>
        <time>2024-09-13T07:55:26.000Z</time>
      </trkpt>
      <trkpt lat="44.42842" lon="6.97972">
        <ele>1906.1999511719</ele>
        <time>2024-09-13T07:55:27.000Z</time>
      </trkpt>
      <trkpt lat="44.42841" lon="6.97973">
        <ele>1906.1999511719</ele>
        <time>2024-09-13T07:55:28.000Z</time>
      </trkpt>
      <trkpt lat="44.4284" lon="6.97975">
        <ele>1906.4000244141</ele>
        <time>2024-09-13T07:55:29.000Z</time>
      </trkpt>
      <trkpt lat="44.42839" lon="6.97976">
        <ele>1906.5999755859</ele>
        <time>2024-09-13T07:55:30.000Z</time>
      </trkpt>
      <trkpt lat="44.42838" lon="6.97977">
        <ele>1906.8000488281</ele>
        <time>2024-09-13T07:55:31.000Z</time>
      </trkpt>
      <trkpt lat="44.42837" lon="6.97979">
        <ele>1907</ele>
        <time>2024-09-13T07:55:32.000Z</time>
      </trkpt>
      <trkpt lat="44.42836" lon="6.9798">
        <ele>1907.1999511719</ele>
        <time>2024-09-13T07:55:33.000Z</time>
      </trkpt>
      <trkpt lat="44.42835" lon="6.97981">
        <ele>1907.1999511719</ele>
        <time>2024-09-13T07:55:34.000Z</time>
      </trkpt>
      <trkpt lat="44.42833" lon="6.97982">
        <ele>1907.4000244141</ele>
        <time>2024-09-13T07:55:35.000Z</time>
      </trkpt>
      <trkpt lat="44.42831" lon="6.97983">
        <ele>1907.5999755859</ele>
        <time>2024-09-13T07:55:36.000Z</time>
      </trkpt>
      <trkpt lat="44.4283" lon="6.97984">
        <ele>1907.8000488281</ele>
        <time>2024-09-13T07:55:37.000Z</time>
      </trkpt>
      <trkpt lat="44.42829" lon="6.97985">
        <ele>1908.1999511719</ele>
        <time>2024-09-13T07:55:38.000Z</time>
      </trkpt>
      <trkpt lat="44.42828" lon="6.97986">
        <ele>1908.1999511719</ele>
        <time>2024-09-13T07:55:39.000Z</time>
      </trkpt>
      <trkpt lat="44.42826" lon="6.97986">
        <ele>1908.1999511719</ele>
        <time>2024-09-13T07:55:40.000Z</time>
      </trkpt>
      <trkpt lat="44.42825" lon="6.97987">
        <ele>1908.4000244141</ele>
        <time>2024-09-13T07:55:41.000Z</time>
      </trkpt>
      <trkpt lat="44.42824" lon="6.97987">
        <ele>1908.5999755859</ele>
        <time>2024-09-13T07:55:42.000Z</time>
      </trkpt>
      <trkpt lat="44.42823" lon="6.97988">
        <ele>1908.8000488281</ele>
        <time>2024-09-13T07:55:43.000Z</time>
      </trkpt>
      <trkpt lat="44.42822" lon="6.97988">
        <ele>1908.8000488281</ele>
        <time>2024-09-13T07:55:44.000Z</time>
      </trkpt>
      <trkpt lat="44.42821" lon="6.97989">
        <ele>1909</ele>
        <time>2024-09-13T07:55:45.000Z</time>
      </trkpt>
      <trkpt lat="44.42819" lon="6.97989">
        <ele>1909</ele>
        <time>2024-09-13T07:55:46.000Z</time>
      </trkpt>
      <trkpt lat="44.42818" lon="6.9799">
        <ele>1909.1999511719</ele>
        <time>2024-09-13T07:55:47.000Z</time>
      </trkpt>
      <trkpt lat="44.42816" lon="6.9799">
        <ele>1909.4000244141</ele>
        <time>2024-09-13T07:55:48.000Z</time>
      </trkpt>
      <trkpt lat="44.42815" lon="6.9799">
        <ele>1909.5999755859</ele>
        <time>2024-09-13T07:55:49.000Z</time>
      </trkpt>
      <trkpt lat="44.42814" lon="6.9799">
        <ele>1909.8000488281</ele>
        <time>2024-09-13T07:55:50.000Z</time>
      </trkpt>
      <trkpt lat="44.42813" lon="6.9799">
        <ele>1909.8000488281</ele>
        <time>2024-09-13T07:55:51.000Z</time>
      </trkpt>
      <trkpt lat="44.42812" lon="6.9799">
        <ele>1910</ele>
        <time>2024-09-13T07:55:52.000Z</time>
      </trkpt>
      <trkpt lat="44.42811" lon="6.97991">
        <ele>1910.1999511719</ele>
        <time>2024-09-13T07:55:53.000Z</time>
      </trkpt>
      <trkpt lat="44.42809" lon="6.97991">
        <ele>1910.4000244141</ele>
        <time>2024-09-13T07:55:54.000Z</time>
      </trkpt>
      <trkpt lat="44.42808" lon="6.97992">
        <ele>1910.4000244141</ele>
        <time>2024-09-13T07:55:55.000Z</time>
      </trkpt>
      <trkpt lat="44.42807" lon="6.97992">
        <ele>1910.5999755859</ele>
        <time>2024-09-13T07:55:56.000Z</time>
      </trkpt>
      <trkpt lat="44.42805" lon="6.97992">
        <ele>1910.8000488281</ele>
        <time>2024-09-13T07:55:57.000Z</time>
      </trkpt>
      <trkpt lat="44.42804" lon="6.97992">
        <ele>1910.8000488281</ele>
        <time>2024-09-13T07:55:58.000Z</time>
      </trkpt>
      <trkpt lat="44.42803" lon="6.97993">
        <ele>1911</ele>
        <time>2024-09-13T07:55:59.000Z</time>
      </trkpt>
      <trkpt lat="44.42801" lon="6.97992">
        <ele>1911.1999511719</ele>
        <time>2024-09-13T07:56:00.000Z</time>
      </trkpt>
      <trkpt lat="44.428" lon="6.97993">
        <ele>1911.4000244141</ele>
        <time>2024-09-13T07:56:01.000Z</time>
      </trkpt>
      <trkpt lat="44.42798" lon="6.97993">
        <ele>1911.5999755859</ele>
        <time>2024-09-13T07:56:02.000Z</time>
      </trkpt>
      <trkpt lat="44.42796" lon="6.97993">
        <ele>1911.8000488281</ele>
        <time>2024-09-13T07:56:03.000Z</time>
      </trkpt>
      <trkpt lat="44.42795" lon="6.97992">
        <ele>1912</ele>
        <time>2024-09-13T07:56:04.000Z</time>
      </trkpt>
      <trkpt lat="44.42793" lon="6.97992">
        <ele>1912.1999511719</ele>
        <time>2024-09-13T07:56:05.000Z</time>
      </trkpt>
      <trkpt lat="44.42792" lon="6.97992">
        <ele>1912.4000244141</ele>
        <time>2024-09-13T07:56:06.000Z</time>
      </trkpt>
      <trkpt lat="44.4279" lon="6.97993">
        <ele>1912.5999755859</ele>
        <time>2024-09-13T07:56:07.000Z</time>
      </trkpt>
      <trkpt lat="44.42789" lon="6.97994">
        <ele>1912.5999755859</ele>
        <time>2024-09-13T07:56:08.000Z</time>
      </trkpt>
      <trkpt lat="44.42788" lon="6.97995">
        <ele>1912.8000488281</ele>
        <time>2024-09-13T07:56:09.000Z</time>
      </trkpt>
      <trkpt lat="44.42787" lon="6.97995">
        <ele>1912.8000488281</ele>
        <time>2024-09-13T07:56:10.000Z</time>
      </trkpt>
      <trkpt lat="44.42786" lon="6.97996">
        <ele>1912.8000488281</ele>
        <time>2024-09-13T07:56:11.000Z</time>
      </trkpt>
      <trkpt lat="44.42785" lon="6.97996">
        <ele>1913</ele>
        <time>2024-09-13T07:56:12.000Z</time>
      </trkpt>
      <trkpt lat="44.42783" lon="6.97997">
        <ele>1913</ele>
        <time>2024-09-13T07:56:13.000Z</time>
      </trkpt>
      <trkpt lat="44.42781" lon="6.97997">
        <ele>1913.1999511719</ele>
        <time>2024-09-13T07:56:14.000Z</time>
      </trkpt>
      <trkpt lat="44.42779" lon="6.97998">
        <ele>1913.1999511719</ele>
        <time>2024-09-13T07:56:15.000Z</time>
      </trkpt>
      <trkpt lat="44.42778" lon="6.97999">
        <ele>1913.1999511719</ele>
        <time>2024-09-13T07:56:16.000Z</time>
      </trkpt>
      <trkpt lat="44.42777" lon="6.97999">
        <ele>1913.4000244141</ele>
        <time>2024-09-13T07:56:17.000Z</time>
      </trkpt>
      <trkpt lat="44.42775" lon="6.98">
        <ele>1913.5999755859</ele>
        <time>2024-09-13T07:56:18.000Z</time>
      </trkpt>
      <trkpt lat="44.42774" lon="6.98">
        <ele>1913.8000488281</ele>
        <time>2024-09-13T07:56:19.000Z</time>
      </trkpt>
      <trkpt lat="44.42773" lon="6.98001">
        <ele>1913.8000488281</ele>
        <time>2024-09-13T07:56:20.000Z</time>
      </trkpt>
      <trkpt lat="44.42772" lon="6.98001">
        <ele>1914</ele>
        <time>2024-09-13T07:56:21.000Z</time>
      </trkpt>
      <trkpt lat="44.4277" lon="6.98001">
        <ele>1914.1999511719</ele>
        <time>2024-09-13T07:56:22.000Z</time>
      </trkpt>
      <trkpt lat="44.42769" lon="6.98001">
        <ele>1914.5999755859</ele>
        <time>2024-09-13T07:56:23.000Z</time>
      </trkpt>
      <trkpt lat="44.42767" lon="6.98002">
        <ele>1914.8000488281</ele>
        <time>2024-09-13T07:56:24.000Z</time>
      </trkpt>
      <trkpt lat="44.42766" lon="6.98003">
        <ele>1915</ele>
        <time>2024-09-13T07:56:25.000Z</time>
      </trkpt>
      <trkpt lat="44.42765" lon="6.98003">
        <ele>1915.1999511719</ele>
        <time>2024-09-13T07:56:26.000Z</time>
      </trkpt>
      <trkpt lat="44.42763" lon="6.98004">
        <ele>1915.1999511719</ele>
        <time>2024-09-13T07:56:27.000Z</time>
      </trkpt>
      <trkpt lat="44.42762" lon="6.98005">
        <ele>1915.4000244141</ele>
        <time>2024-09-13T07:56:28.000Z</time>
      </trkpt>
      <trkpt lat="44.4276" lon="6.98006">
        <ele>1915.5999755859</ele>
        <time>2024-09-13T07:56:29.000Z</time>
      </trkpt>
      <trkpt lat="44.42759" lon="6.98006">
        <ele>1915.5999755859</ele>
        <time>2024-09-13T07:56:30.000Z</time>
      </trkpt>
      <trkpt lat="44.42758" lon="6.98006">
        <ele>1915.8000488281</ele>
        <time>2024-09-13T07:56:31.000Z</time>
      </trkpt>
      <trkpt lat="44.42756" lon="6.98006">
        <ele>1916</ele>
        <time>2024-09-13T07:56:32.000Z</time>
      </trkpt>
      <trkpt lat="44.42755" lon="6.98007">
        <ele>1916.1999511719</ele>
        <time>2024-09-13T07:56:33.000Z</time>
      </trkpt>
      <trkpt lat="44.42754" lon="6.98007">
        <ele>1916.4000244141</ele>
        <time>2024-09-13T07:56:34.000Z</time>
      </trkpt>
      <trkpt lat="44.42752" lon="6.98007">
        <ele>1916.4000244141</ele>
        <time>2024-09-13T07:56:35.000Z</time>
      </trkpt>
      <trkpt lat="44.42751" lon="6.98008">
        <ele>1916.5999755859</ele>
        <time>2024-09-13T07:56:36.000Z</time>
      </trkpt>
      <trkpt lat="44.4275" lon="6.98009">
        <ele>1916.8000488281</ele>
        <time>2024-09-13T07:56:37.000Z</time>
      </trkpt>
      <trkpt lat="44.42748" lon="6.9801">
        <ele>1917.1999511719</ele>
        <time>2024-09-13T07:56:38.000Z</time>
      </trkpt>
      <trkpt lat="44.42747" lon="6.98011">
        <ele>1917.4000244141</ele>
        <time>2024-09-13T07:56:39.000Z</time>
      </trkpt>
      <trkpt lat="44.42745" lon="6.98012">
        <ele>1917.5999755859</ele>
        <time>2024-09-13T07:56:40.000Z</time>
      </trkpt>
      <trkpt lat="44.42744" lon="6.98013">
        <ele>1917.8000488281</ele>
        <time>2024-09-13T07:56:41.000Z</time>
      </trkpt>
      <trkpt lat="44.42743" lon="6.98014">
        <ele>1917.8000488281</ele>
        <time>2024-09-13T07:56:42.000Z</time>
      </trkpt>
      <trkpt lat="44.42742" lon="6.98015">
        <ele>1918</ele>
        <time>2024-09-13T07:56:43.000Z</time>
      </trkpt>
      <trkpt lat="44.4274" lon="6.98016">
        <ele>1918.1999511719</ele>
        <time>2024-09-13T07:56:44.000Z</time>
      </trkpt>
      <trkpt lat="44.42739" lon="6.98016">
        <ele>1918.4000244141</ele>
        <time>2024-09-13T07:56:45.000Z</time>
      </trkpt>
      <trkpt lat="44.42738" lon="6.98016">
        <ele>1918.5999755859</ele>
        <time>2024-09-13T07:56:46.000Z</time>
      </trkpt>
      <trkpt lat="44.42736" lon="6.98016">
        <ele>1918.5999755859</ele>
        <time>2024-09-13T07:56:47.000Z</time>
      </trkpt>
      <trkpt lat="44.42735" lon="6.98017">
        <ele>1919</ele>
        <time>2024-09-13T07:56:48.000Z</time>
      </trkpt>
      <trkpt lat="44.42734" lon="6.98017">
        <ele>1919</ele>
        <time>2024-09-13T07:56:49.000Z</time>
      </trkpt>
      <trkpt lat="44.42733" lon="6.98018">
        <ele>1919.4000244141</ele>
        <time>2024-09-13T07:56:50.000Z</time>
      </trkpt>
      <trkpt lat="44.42731" lon="6.98018">
        <ele>1919.5999755859</ele>
        <time>2024-09-13T07:56:51.000Z</time>
      </trkpt>
      <trkpt lat="44.4273" lon="6.98018">
        <ele>1919.8000488281</ele>
        <time>2024-09-13T07:56:52.000Z</time>
      </trkpt>
      <trkpt lat="44.42728" lon="6.98019">
        <ele>1920</ele>
        <time>2024-09-13T07:56:53.000Z</time>
      </trkpt>
      <trkpt lat="44.42727" lon="6.98019">
        <ele>1920.1999511719</ele>
        <time>2024-09-13T07:56:54.000Z</time>
      </trkpt>
      <trkpt lat="44.42726" lon="6.98019">
        <ele>1920.4000244141</ele>
        <time>2024-09-13T07:56:55.000Z</time>
      </trkpt>
      <trkpt lat="44.42725" lon="6.98019">
        <ele>1920.5999755859</ele>
        <time>2024-09-13T07:56:56.000Z</time>
      </trkpt>
      <trkpt lat="44.42724" lon="6.9802">
        <ele>1920.8000488281</ele>
        <time>2024-09-13T07:56:57.000Z</time>
      </trkpt>
      <trkpt lat="44.42722" lon="6.98021">
        <ele>1921</ele>
        <time>2024-09-13T07:56:58.000Z</time>
      </trkpt>
      <trkpt lat="44.42721" lon="6.98022">
        <ele>1921.1999511719</ele>
        <time>2024-09-13T07:56:59.000Z</time>
      </trkpt>
      <trkpt lat="44.4272" lon="6.98023">
        <ele>1921.4000244141</ele>
        <time>2024-09-13T07:57:00.000Z</time>
      </trkpt>
      <trkpt lat="44.42718" lon="6.98023">
        <ele>1921.4000244141</ele>
        <time>2024-09-13T07:57:01.000Z</time>
      </trkpt>
      <trkpt lat="44.42717" lon="6.98024">
        <ele>1921.5999755859</ele>
        <time>2024-09-13T07:57:02.000Z</time>
      </trkpt>
      <trkpt lat="44.42716" lon="6.98025">
        <ele>1921.8000488281</ele>
        <time>2024-09-13T07:57:03.000Z</time>
      </trkpt>
      <trkpt lat="44.42714" lon="6.98025">
        <ele>1922</ele>
        <time>2024-09-13T07:57:04.000Z</time>
      </trkpt>
      <trkpt lat="44.42713" lon="6.98026">
        <ele>1922.1999511719</ele>
        <time>2024-09-13T07:57:05.000Z</time>
      </trkpt>
      <trkpt lat="44.42712" lon="6.98026">
        <ele>1922.4000244141</ele>
        <time>2024-09-13T07:57:06.000Z</time>
      </trkpt>
      <trkpt lat="44.42711" lon="6.98027">
        <ele>1922.4000244141</ele>
        <time>2024-09-13T07:57:07.000Z</time>
      </trkpt>
      <trkpt lat="44.4271" lon="6.98027">
        <ele>1922.5999755859</ele>
        <time>2024-09-13T07:57:08.000Z</time>
      </trkpt>
      <trkpt lat="44.42709" lon="6.98028">
        <ele>1923</ele>
        <time>2024-09-13T07:57:09.000Z</time>
      </trkpt>
      <trkpt lat="44.42708" lon="6.98029">
        <ele>1923.1999511719</ele>
        <time>2024-09-13T07:57:10.000Z</time>
      </trkpt>
      <trkpt lat="44.42706" lon="6.98029">
        <ele>1923.1999511719</ele>
        <time>2024-09-13T07:57:11.000Z</time>
      </trkpt>
      <trkpt lat="44.42705" lon="6.9803">
        <ele>1923.4000244141</ele>
        <time>2024-09-13T07:57:12.000Z</time>
      </trkpt>
      <trkpt lat="44.42703" lon="6.9803">
        <ele>1923.5999755859</ele>
        <time>2024-09-13T07:57:13.000Z</time>
      </trkpt>
      <trkpt lat="44.42702" lon="6.98031">
        <ele>1923.8000488281</ele>
        <time>2024-09-13T07:57:14.000Z</time>
      </trkpt>
      <trkpt lat="44.42701" lon="6.98031">
        <ele>1923.8000488281</ele>
        <time>2024-09-13T07:57:15.000Z</time>
      </trkpt>
      <trkpt lat="44.42699" lon="6.98031">
        <ele>1924</ele>
        <time>2024-09-13T07:57:16.000Z</time>
      </trkpt>
      <trkpt lat="44.42698" lon="6.98031">
        <ele>1924.1999511719</ele>
        <time>2024-09-13T07:57:17.000Z</time>
      </trkpt>
      <trkpt lat="44.42696" lon="6.98032">
        <ele>1924.1999511719</ele>
        <time>2024-09-13T07:57:18.000Z</time>
      </trkpt>
      <trkpt lat="44.42695" lon="6.98031">
        <ele>1924.4000244141</ele>
        <time>2024-09-13T07:57:19.000Z</time>
      </trkpt>
      <trkpt lat="44.42693" lon="6.98032">
        <ele>1924.5999755859</ele>
        <time>2024-09-13T07:57:20.000Z</time>
      </trkpt>
      <trkpt lat="44.42692" lon="6.98032">
        <ele>1924.5999755859</ele>
        <time>2024-09-13T07:57:21.000Z</time>
      </trkpt>
      <trkpt lat="44.4269" lon="6.98032">
        <ele>1924.8000488281</ele>
        <time>2024-09-13T07:57:22.000Z</time>
      </trkpt>
      <trkpt lat="44.42689" lon="6.98031">
        <ele>1925</ele>
        <time>2024-09-13T07:57:23.000Z</time>
      </trkpt>
      <trkpt lat="44.42687" lon="6.98031">
        <ele>1925</ele>
        <time>2024-09-13T07:57:24.000Z</time>
      </trkpt>
      <trkpt lat="44.42686" lon="6.98031">
        <ele>1925</ele>
        <time>2024-09-13T07:57:25.000Z</time>
      </trkpt>
      <trkpt lat="44.42685" lon="6.9803">
        <ele>1925.4000244141</ele>
        <time>2024-09-13T07:57:26.000Z</time>
      </trkpt>
      <trkpt lat="44.42684" lon="6.9803">
        <ele>1925.4000244141</ele>
        <time>2024-09-13T07:57:27.000Z</time>
      </trkpt>
      <trkpt lat="44.42683" lon="6.9803">
        <ele>1925.5999755859</ele>
        <time>2024-09-13T07:57:28.000Z</time>
      </trkpt>
      <trkpt lat="44.42681" lon="6.98029">
        <ele>1925.8000488281</ele>
        <time>2024-09-13T07:57:29.000Z</time>
      </trkpt>
      <trkpt lat="44.4268" lon="6.98029">
        <ele>1926</ele>
        <time>2024-09-13T07:57:30.000Z</time>
      </trkpt>
      <trkpt lat="44.42679" lon="6.98027">
        <ele>1926</ele>
        <time>2024-09-13T07:57:31.000Z</time>
      </trkpt>
      <trkpt lat="44.42678" lon="6.98027">
        <ele>1926.1999511719</ele>
        <time>2024-09-13T07:57:32.000Z</time>
      </trkpt>
      <trkpt lat="44.42676" lon="6.98026">
        <ele>1926.4000244141</ele>
        <time>2024-09-13T07:57:33.000Z</time>
      </trkpt>
      <trkpt lat="44.42675" lon="6.98026">
        <ele>1926.5999755859</ele>
        <time>2024-09-13T07:57:34.000Z</time>
      </trkpt>
      <trkpt lat="44.42673" lon="6.98025">
        <ele>1926.8000488281</ele>
        <time>2024-09-13T07:57:35.000Z</time>
      </trkpt>
      <trkpt lat="44.42672" lon="6.98025">
        <ele>1926.8000488281</ele>
        <time>2024-09-13T07:57:36.000Z</time>
      </trkpt>
      <trkpt lat="44.4267" lon="6.98024">
        <ele>1927</ele>
        <time>2024-09-13T07:57:37.000Z</time>
      </trkpt>
      <trkpt lat="44.42669" lon="6.98024">
        <ele>1927</ele>
        <time>2024-09-13T07:57:38.000Z</time>
      </trkpt>
      <trkpt lat="44.42667" lon="6.98023">
        <ele>1927</ele>
        <time>2024-09-13T07:57:39.000Z</time>
      </trkpt>
      <trkpt lat="44.42665" lon="6.98022">
        <ele>1927.1999511719</ele>
        <time>2024-09-13T07:57:40.000Z</time>
      </trkpt>
      <trkpt lat="44.42664" lon="6.98022">
        <ele>1927.1999511719</ele>
        <time>2024-09-13T07:57:41.000Z</time>
      </trkpt>
      <trkpt lat="44.42662" lon="6.98021">
        <ele>1927.1999511719</ele>
        <time>2024-09-13T07:57:42.000Z</time>
      </trkpt>
      <trkpt lat="44.4266" lon="6.9802">
        <ele>1927.4000244141</ele>
        <time>2024-09-13T07:57:43.000Z</time>
      </trkpt>
      <trkpt lat="44.42658" lon="6.98019">
        <ele>1927.5999755859</ele>
        <time>2024-09-13T07:57:44.000Z</time>
      </trkpt>
      <trkpt lat="44.42657" lon="6.98018">
        <ele>1927.5999755859</ele>
        <time>2024-09-13T07:57:45.000Z</time>
      </trkpt>
      <trkpt lat="44.42655" lon="6.98018">
        <ele>1928</ele>
        <time>2024-09-13T07:57:46.000Z</time>
      </trkpt>
      <trkpt lat="44.42654" lon="6.98017">
        <ele>1928.4000244141</ele>
        <time>2024-09-13T07:57:47.000Z</time>
      </trkpt>
      <trkpt lat="44.42652" lon="6.98017">
        <ele>1928.4000244141</ele>
        <time>2024-09-13T07:57:48.000Z</time>
      </trkpt>
      <trkpt lat="44.4265" lon="6.98017">
        <ele>1928.5999755859</ele>
        <time>2024-09-13T07:57:49.000Z</time>
      </trkpt>
      <trkpt lat="44.42649" lon="6.98017">
        <ele>1928.8000488281</ele>
        <time>2024-09-13T07:57:50.000Z</time>
      </trkpt>
      <trkpt lat="44.42647" lon="6.98016">
        <ele>1928.8000488281</ele>
        <time>2024-09-13T07:57:51.000Z</time>
      </trkpt>
      <trkpt lat="44.42646" lon="6.98016">
        <ele>1929</ele>
        <time>2024-09-13T07:57:52.000Z</time>
      </trkpt>
      <trkpt lat="44.42645" lon="6.98016">
        <ele>1929.1999511719</ele>
        <time>2024-09-13T07:57:53.000Z</time>
      </trkpt>
      <trkpt lat="44.42644" lon="6.98016">
        <ele>1929.4000244141</ele>
        <time>2024-09-13T07:57:54.000Z</time>
      </trkpt>
      <trkpt lat="44.42642" lon="6.98016">
        <ele>1929.4000244141</ele>
        <time>2024-09-13T07:57:55.000Z</time>
      </trkpt>
      <trkpt lat="44.42641" lon="6.98016">
        <ele>1929.5999755859</ele>
        <time>2024-09-13T07:57:56.000Z</time>
      </trkpt>
      <trkpt lat="44.4264" lon="6.98017">
        <ele>1929.8000488281</ele>
        <time>2024-09-13T07:57:57.000Z</time>
      </trkpt>
      <trkpt lat="44.42638" lon="6.98017">
        <ele>1930.1999511719</ele>
        <time>2024-09-13T07:57:58.000Z</time>
      </trkpt>
      <trkpt lat="44.42637" lon="6.98018">
        <ele>1930.4000244141</ele>
        <time>2024-09-13T07:57:59.000Z</time>
      </trkpt>
      <trkpt lat="44.42636" lon="6.98018">
        <ele>1930.4000244141</ele>
        <time>2024-09-13T07:58:00.000Z</time>
      </trkpt>
      <trkpt lat="44.42635" lon="6.98018">
        <ele>1930.5999755859</ele>
        <time>2024-09-13T07:58:01.000Z</time>
      </trkpt>
      <trkpt lat="44.42633" lon="6.98019">
        <ele>1930.5999755859</ele>
        <time>2024-09-13T07:58:02.000Z</time>
      </trkpt>
      <trkpt lat="44.42631" lon="6.98019">
        <ele>1930.8000488281</ele>
        <time>2024-09-13T07:58:03.000Z</time>
      </trkpt>
      <trkpt lat="44.4263" lon="6.98019">
        <ele>1930.8000488281</ele>
        <time>2024-09-13T07:58:04.000Z</time>
      </trkpt>
      <trkpt lat="44.42628" lon="6.9802">
        <ele>1931.1999511719</ele>
        <time>2024-09-13T07:58:05.000Z</time>
      </trkpt>
      <trkpt lat="44.42627" lon="6.9802">
        <ele>1931.1999511719</ele>
        <time>2024-09-13T07:58:06.000Z</time>
      </trkpt>
      <trkpt lat="44.42625" lon="6.9802">
        <ele>1931.4000244141</ele>
        <time>2024-09-13T07:58:07.000Z</time>
      </trkpt>
      <trkpt lat="44.42623" lon="6.9802">
        <ele>1931.5999755859</ele>
        <time>2024-09-13T07:58:08.000Z</time>
      </trkpt>
      <trkpt lat="44.42622" lon="6.98021">
        <ele>1931.8000488281</ele>
        <time>2024-09-13T07:58:09.000Z</time>
      </trkpt>
      <trkpt lat="44.42621" lon="6.98021">
        <ele>1931.8000488281</ele>
        <time>2024-09-13T07:58:10.000Z</time>
      </trkpt>
      <trkpt lat="44.4262" lon="6.98022">
        <ele>1931.8000488281</ele>
        <time>2024-09-13T07:58:11.000Z</time>
      </trkpt>
      <trkpt lat="44.42618" lon="6.98022">
        <ele>1932</ele>
        <time>2024-09-13T07:58:12.000Z</time>
      </trkpt>
      <trkpt lat="44.42617" lon="6.98023">
        <ele>1932.1999511719</ele>
        <time>2024-09-13T07:58:13.000Z</time>
      </trkpt>
      <trkpt lat="44.42615" lon="6.98022">
        <ele>1932.4000244141</ele>
        <time>2024-09-13T07:58:14.000Z</time>
      </trkpt>
      <trkpt lat="44.42613" lon="6.98022">
        <ele>1932.4000244141</ele>
        <time>2024-09-13T07:58:15.000Z</time>
      </trkpt>
      <trkpt lat="44.42611" lon="6.98022">
        <ele>1932.5999755859</ele>
        <time>2024-09-13T07:58:16.000Z</time>
      </trkpt>
      <trkpt lat="44.4261" lon="6.98023">
        <ele>1932.5999755859</ele>
        <time>2024-09-13T07:58:17.000Z</time>
      </trkpt>
      <trkpt lat="44.42608" lon="6.98024">
        <ele>1933</ele>
        <time>2024-09-13T07:58:18.000Z</time>
      </trkpt>
      <trkpt lat="44.42606" lon="6.98025">
        <ele>1933</ele>
        <time>2024-09-13T07:58:19.000Z</time>
      </trkpt>
      <trkpt lat="44.42605" lon="6.98025">
        <ele>1933</ele>
        <time>2024-09-13T07:58:20.000Z</time>
      </trkpt>
      <trkpt lat="44.42604" lon="6.98025">
        <ele>1933.1999511719</ele>
        <time>2024-09-13T07:58:21.000Z</time>
      </trkpt>
      <trkpt lat="44.42602" lon="6.98026">
        <ele>1933.4000244141</ele>
        <time>2024-09-13T07:58:22.000Z</time>
      </trkpt>
      <trkpt lat="44.42601" lon="6.98027">
        <ele>1933.8000488281</ele>
        <time>2024-09-13T07:58:23.000Z</time>
      </trkpt>
      <trkpt lat="44.42599" lon="6.98027">
        <ele>1933.8000488281</ele>
        <time>2024-09-13T07:58:24.000Z</time>
      </trkpt>
      <trkpt lat="44.42597" lon="6.98028">
        <ele>1934</ele>
        <time>2024-09-13T07:58:25.000Z</time>
      </trkpt>
      <trkpt lat="44.42596" lon="6.98029">
        <ele>1934</ele>
        <time>2024-09-13T07:58:26.000Z</time>
      </trkpt>
      <trkpt lat="44.42594" lon="6.98029">
        <ele>1934</ele>
        <time>2024-09-13T07:58:27.000Z</time>
      </trkpt>
      <trkpt lat="44.42593" lon="6.9803">
        <ele>1934.1999511719</ele>
        <time>2024-09-13T07:58:28.000Z</time>
      </trkpt>
      <trkpt lat="44.42591" lon="6.98031">
        <ele>1934.1999511719</ele>
        <time>2024-09-13T07:58:29.000Z</time>
      </trkpt>
      <trkpt lat="44.4259" lon="6.98032">
        <ele>1934.4000244141</ele>
        <time>2024-09-13T07:58:30.000Z</time>
      </trkpt>
      <trkpt lat="44.42588" lon="6.98032">
        <ele>1934.8000488281</ele>
        <time>2024-09-13T07:58:31.000Z</time>
      </trkpt>
      <trkpt lat="44.42587" lon="6.98033">
        <ele>1934.8000488281</ele>
        <time>2024-09-13T07:58:32.000Z</time>
      </trkpt>
      <trkpt lat="44.42586" lon="6.98034">
        <ele>1935</ele>
        <time>2024-09-13T07:58:33.000Z</time>
      </trkpt>
      <trkpt lat="44.42584" lon="6.98036">
        <ele>1935.1999511719</ele>
        <time>2024-09-13T07:58:34.000Z</time>
      </trkpt>
      <trkpt lat="44.42582" lon="6.98037">
        <ele>1935.5999755859</ele>
        <time>2024-09-13T07:58:35.000Z</time>
      </trkpt>
      <trkpt lat="44.42581" lon="6.98038">
        <ele>1935.8000488281</ele>
        <time>2024-09-13T07:58:36.000Z</time>
      </trkpt>
      <trkpt lat="44.42579" lon="6.98038">
        <ele>1935.8000488281</ele>
        <time>2024-09-13T07:58:37.000Z</time>
      </trkpt>
      <trkpt lat="44.42578" lon="6.98039">
        <ele>1936</ele>
        <time>2024-09-13T07:58:38.000Z</time>
      </trkpt>
      <trkpt lat="44.42576" lon="6.98039">
        <ele>1936.4000244141</ele>
        <time>2024-09-13T07:58:39.000Z</time>
      </trkpt>
      <trkpt lat="44.42575" lon="6.9804">
        <ele>1936.4000244141</ele>
        <time>2024-09-13T07:58:40.000Z</time>
      </trkpt>
      <trkpt lat="44.42573" lon="6.98041">
        <ele>1936.5999755859</ele>
        <time>2024-09-13T07:58:41.000Z</time>
      </trkpt>
      <trkpt lat="44.42571" lon="6.98042">
        <ele>1936.8000488281</ele>
        <time>2024-09-13T07:58:42.000Z</time>
      </trkpt>
      <trkpt lat="44.4257" lon="6.98042">
        <ele>1936.8000488281</ele>
        <time>2024-09-13T07:58:43.000Z</time>
      </trkpt>
      <trkpt lat="44.42568" lon="6.98043">
        <ele>1936.8000488281</ele>
        <time>2024-09-13T07:58:44.000Z</time>
      </trkpt>
      <trkpt lat="44.42566" lon="6.98044">
        <ele>1937.1999511719</ele>
        <time>2024-09-13T07:58:45.000Z</time>
      </trkpt>
      <trkpt lat="44.42565" lon="6.98044">
        <ele>1937.4000244141</ele>
        <time>2024-09-13T07:58:46.000Z</time>
      </trkpt>
      <trkpt lat="44.42563" lon="6.98045">
        <ele>1937.4000244141</ele>
        <time>2024-09-13T07:58:47.000Z</time>
      </trkpt>
      <trkpt lat="44.42562" lon="6.98045">
        <ele>1937.5999755859</ele>
        <time>2024-09-13T07:58:48.000Z</time>
      </trkpt>
      <trkpt lat="44.42561" lon="6.98045">
        <ele>1937.8000488281</ele>
        <time>2024-09-13T07:58:49.000Z</time>
      </trkpt>
      <trkpt lat="44.42559" lon="6.98045">
        <ele>1937.8000488281</ele>
        <time>2024-09-13T07:58:50.000Z</time>
      </trkpt>
      <trkpt lat="44.42557" lon="6.98046">
        <ele>1938</ele>
        <time>2024-09-13T07:58:51.000Z</time>
      </trkpt>
      <trkpt lat="44.42556" lon="6.98045">
        <ele>1938.1999511719</ele>
        <time>2024-09-13T07:58:52.000Z</time>
      </trkpt>
      <trkpt lat="44.42554" lon="6.98045">
        <ele>1938.4000244141</ele>
        <time>2024-09-13T07:58:53.000Z</time>
      </trkpt>
      <trkpt lat="44.42553" lon="6.98044">
        <ele>1938.4000244141</ele>
        <time>2024-09-13T07:58:54.000Z</time>
      </trkpt>
      <trkpt lat="44.42551" lon="6.98043">
        <ele>1938.4000244141</ele>
        <time>2024-09-13T07:58:55.000Z</time>
      </trkpt>
      <trkpt lat="44.4255" lon="6.98043">
        <ele>1938.5999755859</ele>
        <time>2024-09-13T07:58:56.000Z</time>
      </trkpt>
      <trkpt lat="44.42548" lon="6.98042">
        <ele>1938.8000488281</ele>
        <time>2024-09-13T07:58:57.000Z</time>
      </trkpt>
      <trkpt lat="44.42547" lon="6.98041">
        <ele>1939</ele>
        <time>2024-09-13T07:58:58.000Z</time>
      </trkpt>
      <trkpt lat="44.42546" lon="6.9804">
        <ele>1939.1999511719</ele>
        <time>2024-09-13T07:58:59.000Z</time>
      </trkpt>
      <trkpt lat="44.42544" lon="6.98039">
        <ele>1939.4000244141</ele>
        <time>2024-09-13T07:59:00.000Z</time>
      </trkpt>
      <trkpt lat="44.42543" lon="6.98039">
        <ele>1939.5999755859</ele>
        <time>2024-09-13T07:59:01.000Z</time>
      </trkpt>
      <trkpt lat="44.42542" lon="6.98038">
        <ele>1939.5999755859</ele>
        <time>2024-09-13T07:59:02.000Z</time>
      </trkpt>
      <trkpt lat="44.42542" lon="6.98037">
        <ele>1940</ele>
        <time>2024-09-13T07:59:03.000Z</time>
      </trkpt>
      <trkpt lat="44.4254" lon="6.98036">
        <ele>1940.4000244141</ele>
        <time>2024-09-13T07:59:04.000Z</time>
      </trkpt>
      <trkpt lat="44.42539" lon="6.98035">
        <ele>1940.4000244141</ele>
        <time>2024-09-13T07:59:05.000Z</time>
      </trkpt>
      <trkpt lat="44.42538" lon="6.98035">
        <ele>1940.5999755859</ele>
        <time>2024-09-13T07:59:06.000Z</time>
      </trkpt>
      <trkpt lat="44.42537" lon="6.98034">
        <ele>1940.8000488281</ele>
        <time>2024-09-13T07:59:07.000Z</time>
      </trkpt>
      <trkpt lat="44.42535" lon="6.98033">
        <ele>1940.8000488281</ele>
        <time>2024-09-13T07:59:08.000Z</time>
      </trkpt>
      <trkpt lat="44.42534" lon="6.98032">
        <ele>1941</ele>
        <time>2024-09-13T07:59:09.000Z</time>
      </trkpt>
      <trkpt lat="44.42533" lon="6.98031">
        <ele>1941.1999511719</ele>
        <time>2024-09-13T07:59:10.000Z</time>
      </trkpt>
      <trkpt lat="44.42532" lon="6.9803">
        <ele>1941.4000244141</ele>
        <time>2024-09-13T07:59:11.000Z</time>
      </trkpt>
      <trkpt lat="44.42531" lon="6.98028">
        <ele>1941.5999755859</ele>
        <time>2024-09-13T07:59:12.000Z</time>
      </trkpt>
      <trkpt lat="44.4253" lon="6.98027">
        <ele>1941.5999755859</ele>
        <time>2024-09-13T07:59:13.000Z</time>
      </trkpt>
      <trkpt lat="44.42529" lon="6.98026">
        <ele>1942.1999511719</ele>
        <time>2024-09-13T07:59:14.000Z</time>
      </trkpt>
      <trkpt lat="44.42528" lon="6.98024">
        <ele>1942.1999511719</ele>
        <time>2024-09-13T07:59:15.000Z</time>
      </trkpt>
      <trkpt lat="44.42528" lon="6.98022">
        <ele>1942.4000244141</ele>
        <time>2024-09-13T07:59:16.000Z</time>
      </trkpt>
      <trkpt lat="44.42527" lon="6.98021">
        <ele>1942.5999755859</ele>
        <time>2024-09-13T07:59:17.000Z</time>
      </trkpt>
      <trkpt lat="44.42526" lon="6.9802">
        <ele>1942.8000488281</ele>
        <time>2024-09-13T07:59:18.000Z</time>
      </trkpt>
      <trkpt lat="44.42525" lon="6.98019">
        <ele>1943</ele>
        <time>2024-09-13T07:59:19.000Z</time>
      </trkpt>
      <trkpt lat="44.42524" lon="6.98017">
        <ele>1943.1999511719</ele>
        <time>2024-09-13T07:59:20.000Z</time>
      </trkpt>
      <trkpt lat="44.42523" lon="6.98015">
        <ele>1943.1999511719</ele>
        <time>2024-09-13T07:59:21.000Z</time>
      </trkpt>
      <trkpt lat="44.42523" lon="6.98014">
        <ele>1943.4000244141</ele>
        <time>2024-09-13T07:59:22.000Z</time>
      </trkpt>
      <trkpt lat="44.42522" lon="6.98012">
        <ele>1943.4000244141</ele>
        <time>2024-09-13T07:59:23.000Z</time>
      </trkpt>
      <trkpt lat="44.42522" lon="6.9801">
        <ele>1943.8000488281</ele>
        <time>2024-09-13T07:59:24.000Z</time>
      </trkpt>
      <trkpt lat="44.42522" lon="6.98007">
        <ele>1943.8000488281</ele>
        <time>2024-09-13T07:59:25.000Z</time>
      </trkpt>
      <trkpt lat="44.42522" lon="6.98005">
        <ele>1944</ele>
        <time>2024-09-13T07:59:26.000Z</time>
      </trkpt>
      <trkpt lat="44.42521" lon="6.98003">
        <ele>1944</ele>
        <time>2024-09-13T07:59:27.000Z</time>
      </trkpt>
      <trkpt lat="44.4252" lon="6.98002">
        <ele>1944.1999511719</ele>
        <time>2024-09-13T07:59:28.000Z</time>
      </trkpt>
      <trkpt lat="44.4252" lon="6.98">
        <ele>1944.1999511719</ele>
        <time>2024-09-13T07:59:29.000Z</time>
      </trkpt>
      <trkpt lat="44.42519" lon="6.97997">
        <ele>1944.4000244141</ele>
        <time>2024-09-13T07:59:30.000Z</time>
      </trkpt>
      <trkpt lat="44.42519" lon="6.97995">
        <ele>1944.5999755859</ele>
        <time>2024-09-13T07:59:31.000Z</time>
      </trkpt>
      <trkpt lat="44.42518" lon="6.97994">
        <ele>1944.8000488281</ele>
        <time>2024-09-13T07:59:32.000Z</time>
      </trkpt>
      <trkpt lat="44.42518" lon="6.97992">
        <ele>1945</ele>
        <time>2024-09-13T07:59:33.000Z</time>
      </trkpt>
      <trkpt lat="44.42518" lon="6.9799">
        <ele>1945.1999511719</ele>
        <time>2024-09-13T07:59:34.000Z</time>
      </trkpt>
      <trkpt lat="44.42518" lon="6.97988">
        <ele>1945.1999511719</ele>
        <time>2024-09-13T07:59:35.000Z</time>
      </trkpt>
      <trkpt lat="44.42518" lon="6.97986">
        <ele>1945.1999511719</ele>
        <time>2024-09-13T07:59:36.000Z</time>
      </trkpt>
      <trkpt lat="44.42519" lon="6.97984">
        <ele>1945.1999511719</ele>
        <time>2024-09-13T07:59:37.000Z</time>
      </trkpt>
      <trkpt lat="44.42519" lon="6.97982">
        <ele>1945.1999511719</ele>
        <time>2024-09-13T07:59:38.000Z</time>
      </trkpt>
      <trkpt lat="44.4252" lon="6.97981">
        <ele>1945.1999511719</ele>
        <time>2024-09-13T07:59:39.000Z</time>
      </trkpt>
      <trkpt lat="44.4252" lon="6.97979">
        <ele>1945.4000244141</ele>
        <time>2024-09-13T07:59:40.000Z</time>
      </trkpt>
      <trkpt lat="44.42521" lon="6.97977">
        <ele>1945.4000244141</ele>
        <time>2024-09-13T07:59:41.000Z</time>
      </trkpt>
      <trkpt lat="44.42522" lon="6.97975">
        <ele>1945.5999755859</ele>
        <time>2024-09-13T07:59:42.000Z</time>
      </trkpt>
      <trkpt lat="44.42522" lon="6.97974">
        <ele>1945.5999755859</ele>
        <time>2024-09-13T07:59:43.000Z</time>
      </trkpt>
      <trkpt lat="44.42523" lon="6.97972">
        <ele>1945.8000488281</ele>
        <time>2024-09-13T07:59:44.000Z</time>
      </trkpt>
      <trkpt lat="44.42524" lon="6.9797">
        <ele>1946.1999511719</ele>
        <time>2024-09-13T07:59:45.000Z</time>
      </trkpt>
      <trkpt lat="44.42524" lon="6.97969">
        <ele>1946.1999511719</ele>
        <time>2024-09-13T07:59:46.000Z</time>
      </trkpt>
      <trkpt lat="44.42525" lon="6.97967">
        <ele>1946.1999511719</ele>
        <time>2024-09-13T07:59:47.000Z</time>
      </trkpt>
      <trkpt lat="44.42526" lon="6.97966">
        <ele>1946.4000244141</ele>
        <time>2024-09-13T07:59:48.000Z</time>
      </trkpt>
      <trkpt lat="44.42526" lon="6.97965">
        <ele>1946.4000244141</ele>
        <time>2024-09-13T07:59:49.000Z</time>
      </trkpt>
      <trkpt lat="44.42527" lon="6.97964">
        <ele>1946.8000488281</ele>
        <time>2024-09-13T07:59:50.000Z</time>
      </trkpt>
      <trkpt lat="44.42528" lon="6.97962">
        <ele>1946.8000488281</ele>
        <time>2024-09-13T07:59:51.000Z</time>
      </trkpt>
      <trkpt lat="44.42529" lon="6.9796">
        <ele>1947</ele>
        <time>2024-09-13T07:59:52.000Z</time>
      </trkpt>
      <trkpt lat="44.4253" lon="6.97958">
        <ele>1947.1999511719</ele>
        <time>2024-09-13T07:59:53.000Z</time>
      </trkpt>
      <trkpt lat="44.42531" lon="6.97957">
        <ele>1947.4000244141</ele>
        <time>2024-09-13T07:59:54.000Z</time>
      </trkpt>
      <trkpt lat="44.42532" lon="6.97955">
        <ele>1947.4000244141</ele>
        <time>2024-09-13T07:59:55.000Z</time>
      </trkpt>
      <trkpt lat="44.42532" lon="6.97953">
        <ele>1947.4000244141</ele>
        <time>2024-09-13T07:59:56.000Z</time>
      </trkpt>
      <trkpt lat="44.42533" lon="6.97951">
        <ele>1947.4000244141</ele>
        <time>2024-09-13T07:59:57.000Z</time>
      </trkpt>
      <trkpt lat="44.42534" lon="6.97949">
        <ele>1947.4000244141</ele>
        <time>2024-09-13T07:59:58.000Z</time>
      </trkpt>
      <trkpt lat="44.42534" lon="6.97948">
        <ele>1947.4000244141</ele>
        <time>2024-09-13T07:59:59.000Z</time>
      </trkpt>
      <trkpt lat="44.42535" lon="6.97946">
        <ele>1947.5999755859</ele>
        <time>2024-09-13T08:00:00.000Z</time>
      </trkpt>
      <trkpt lat="44.42536" lon="6.97944">
        <ele>1947.8000488281</ele>
        <time>2024-09-13T08:00:01.000Z</time>
      </trkpt>
      <trkpt lat="44.42538" lon="6.97942">
        <ele>1948</ele>
        <time>2024-09-13T08:00:02.000Z</time>
      </trkpt>
      <trkpt lat="44.42538" lon="6.9794">
        <ele>1948.1999511719</ele>
        <time>2024-09-13T08:00:03.000Z</time>
      </trkpt>
      <trkpt lat="44.42539" lon="6.97938">
        <ele>1948.1999511719</ele>
        <time>2024-09-13T08:00:04.000Z</time>
      </trkpt>
      <trkpt lat="44.42539" lon="6.97937">
        <ele>1948.1999511719</ele>
        <time>2024-09-13T08:00:05.000Z</time>
      </trkpt>
      <trkpt lat="44.42539" lon="6.97935">
        <ele>1948.4000244141</ele>
        <time>2024-09-13T08:00:06.000Z</time>
      </trkpt>
      <trkpt lat="44.42539" lon="6.97933">
        <ele>1948.5999755859</ele>
        <time>2024-09-13T08:00:07.000Z</time>
      </trkpt>
      <trkpt lat="44.42539" lon="6.97932">
        <ele>1948.8000488281</ele>
        <time>2024-09-13T08:00:08.000Z</time>
      </trkpt>
      <trkpt lat="44.4254" lon="6.9793">
        <ele>1949</ele>
        <time>2024-09-13T08:00:09.000Z</time>
      </trkpt>
      <trkpt lat="44.4254" lon="6.97927">
        <ele>1949</ele>
        <time>2024-09-13T08:00:10.000Z</time>
      </trkpt>
      <trkpt lat="44.4254" lon="6.97925">
        <ele>1949.1999511719</ele>
        <time>2024-09-13T08:00:11.000Z</time>
      </trkpt>
      <trkpt lat="44.42539" lon="6.97922">
        <ele>1949.1999511719</ele>
        <time>2024-09-13T08:00:12.000Z</time>
      </trkpt>
      <trkpt lat="44.42538" lon="6.9792">
        <ele>1949.4000244141</ele>
        <time>2024-09-13T08:00:13.000Z</time>
      </trkpt>
      <trkpt lat="44.42537" lon="6.97919">
        <ele>1949.4000244141</ele>
        <time>2024-09-13T08:00:14.000Z</time>
      </trkpt>
      <trkpt lat="44.42537" lon="6.97917">
        <ele>1949.4000244141</ele>
        <time>2024-09-13T08:00:15.000Z</time>
      </trkpt>
      <trkpt lat="44.42536" lon="6.97916">
        <ele>1949.4000244141</ele>
        <time>2024-09-13T08:00:16.000Z</time>
      </trkpt>
      <trkpt lat="44.42535" lon="6.97914">
        <ele>1949.4000244141</ele>
        <time>2024-09-13T08:00:17.000Z</time>
      </trkpt>
      <trkpt lat="44.42534" lon="6.97913">
        <ele>1949.5999755859</ele>
        <time>2024-09-13T08:00:18.000Z</time>
      </trkpt>
      <trkpt lat="44.42533" lon="6.97913">
        <ele>1949.5999755859</ele>
        <time>2024-09-13T08:00:19.000Z</time>
      </trkpt>
      <trkpt lat="44.42531" lon="6.97912">
        <ele>1949.5999755859</ele>
        <time>2024-09-13T08:00:20.000Z</time>
      </trkpt>
      <trkpt lat="44.4253" lon="6.97912">
        <ele>1949.5999755859</ele>
        <time>2024-09-13T08:00:21.000Z</time>
      </trkpt>
      <trkpt lat="44.42529" lon="6.97912">
        <ele>1949.8000488281</ele>
        <time>2024-09-13T08:00:22.000Z</time>
      </trkpt>
      <trkpt lat="44.42527" lon="6.97911">
        <ele>1949.8000488281</ele>
        <time>2024-09-13T08:00:23.000Z</time>
      </trkpt>
      <trkpt lat="44.42526" lon="6.97912">
        <ele>1949.8000488281</ele>
        <time>2024-09-13T08:00:24.000Z</time>
      </trkpt>
      <trkpt lat="44.42522" lon="6.97912">
        <ele>1949.5999755859</ele>
        <time>2024-09-13T08:00:27.000Z</time>
      </trkpt>
      <trkpt lat="44.42519" lon="6.97913">
        <ele>1949.5999755859</ele>
        <time>2024-09-13T08:00:29.000Z</time>
      </trkpt>
      <trkpt lat="44.42517" lon="6.97914">
        <ele>1949.4000244141</ele>
        <time>2024-09-13T08:00:30.000Z</time>
      </trkpt>
      <trkpt lat="44.42513" lon="6.97917">
        <ele>1949.1999511719</ele>
        <time>2024-09-13T08:00:33.000Z</time>
      </trkpt>
      <trkpt lat="44.42512" lon="6.97918">
        <ele>1949.1999511719</ele>
        <time>2024-09-13T08:00:34.000Z</time>
      </trkpt>
      <trkpt lat="44.4251" lon="6.9792">
        <ele>1949.1999511719</ele>
        <time>2024-09-13T08:00:35.000Z</time>
      </trkpt>
      <trkpt lat="44.42509" lon="6.97921">
        <ele>1949.1999511719</ele>
        <time>2024-09-13T08:00:36.000Z</time>
      </trkpt>
      <trkpt lat="44.42508" lon="6.97923">
        <ele>1949.1999511719</ele>
        <time>2024-09-13T08:00:37.000Z</time>
      </trkpt>
      <trkpt lat="44.42507" lon="6.97924">
        <ele>1949.1999511719</ele>
        <time>2024-09-13T08:00:38.000Z</time>
      </trkpt>
      <trkpt lat="44.42503" lon="6.97929">
        <ele>1949</ele>
        <time>2024-09-13T08:00:41.000Z</time>
      </trkpt>
      <trkpt lat="44.42502" lon="6.9793">
        <ele>1949</ele>
        <time>2024-09-13T08:00:42.000Z</time>
      </trkpt>
      <trkpt lat="44.42498" lon="6.97935">
        <ele>1949</ele>
        <time>2024-09-13T08:00:46.000Z</time>
      </trkpt>
      <trkpt lat="44.42496" lon="6.97936">
        <ele>1949</ele>
        <time>2024-09-13T08:00:47.000Z</time>
      </trkpt>
      <trkpt lat="44.42494" lon="6.97939">
        <ele>1949</ele>
        <time>2024-09-13T08:00:49.000Z</time>
      </trkpt>
      <trkpt lat="44.42493" lon="6.97942">
        <ele>1949</ele>
        <time>2024-09-13T08:00:51.000Z</time>
      </trkpt>
      <trkpt lat="44.42492" lon="6.97944">
        <ele>1949</ele>
        <time>2024-09-13T08:00:52.000Z</time>
      </trkpt>
      <trkpt lat="44.42492" lon="6.97945">
        <ele>1949.1999511719</ele>
        <time>2024-09-13T08:00:53.000Z</time>
      </trkpt>
      <trkpt lat="44.42491" lon="6.97946">
        <ele>1949.1999511719</ele>
        <time>2024-09-13T08:00:54.000Z</time>
      </trkpt>
      <trkpt lat="44.4249" lon="6.97947">
        <ele>1949</ele>
        <time>2024-09-13T08:00:55.000Z</time>
      </trkpt>
      <trkpt lat="44.42489" lon="6.97948">
        <ele>1949</ele>
        <time>2024-09-13T08:00:56.000Z</time>
      </trkpt>
      <trkpt lat="44.42488" lon="6.97949">
        <ele>1949</ele>
        <time>2024-09-13T08:00:57.000Z</time>
      </trkpt>
      <trkpt lat="44.42487" lon="6.9795">
        <ele>1949</ele>
        <time>2024-09-13T08:00:58.000Z</time>
      </trkpt>
      <trkpt lat="44.42484" lon="6.97952">
        <ele>1949</ele>
        <time>2024-09-13T08:01:01.000Z</time>
      </trkpt>
      <trkpt lat="44.42484" lon="6.97954">
        <ele>1949</ele>
        <time>2024-09-13T08:01:02.000Z</time>
      </trkpt>
      <trkpt lat="44.42482" lon="6.97955">
        <ele>1949.1999511719</ele>
        <time>2024-09-13T08:01:03.000Z</time>
      </trkpt>
      <trkpt lat="44.42482" lon="6.97957">
        <ele>1949.1999511719</ele>
        <time>2024-09-13T08:01:04.000Z</time>
      </trkpt>
      <trkpt lat="44.42481" lon="6.97958">
        <ele>1949.4000244141</ele>
        <time>2024-09-13T08:01:05.000Z</time>
      </trkpt>
      <trkpt lat="44.42481" lon="6.97959">
        <ele>1949.4000244141</ele>
        <time>2024-09-13T08:01:06.000Z</time>
      </trkpt>
      <trkpt lat="44.42481" lon="6.9796">
        <ele>1949.5999755859</ele>
        <time>2024-09-13T08:01:07.000Z</time>
      </trkpt>
      <trkpt lat="44.42482" lon="6.97961">
        <ele>1949.5999755859</ele>
        <time>2024-09-13T08:01:08.000Z</time>
      </trkpt>
      <trkpt lat="44.42482" lon="6.97963">
        <ele>1949.5999755859</ele>
        <time>2024-09-13T08:01:09.000Z</time>
      </trkpt>
      <trkpt lat="44.42484" lon="6.97966">
        <ele>1949.5999755859</ele>
        <time>2024-09-13T08:01:11.000Z</time>
      </trkpt>
      <trkpt lat="44.42485" lon="6.97968">
        <ele>1949.5999755859</ele>
        <time>2024-09-13T08:01:12.000Z</time>
      </trkpt>
      <trkpt lat="44.42488" lon="6.97976">
        <ele>1949.4000244141</ele>
        <time>2024-09-13T08:01:16.000Z</time>
      </trkpt>
      <trkpt lat="44.42489" lon="6.97979">
        <ele>1949.1999511719</ele>
        <time>2024-09-13T08:01:18.000Z</time>
      </trkpt>
      <trkpt lat="44.42488" lon="6.97981">
        <ele>1949.4000244141</ele>
        <time>2024-09-13T08:01:19.000Z</time>
      </trkpt>
      <trkpt lat="44.42488" lon="6.97983">
        <ele>1949.4000244141</ele>
        <time>2024-09-13T08:01:20.000Z</time>
      </trkpt>
      <trkpt lat="44.42488" lon="6.97985">
        <ele>1949.4000244141</ele>
        <time>2024-09-13T08:01:21.000Z</time>
      </trkpt>
      <trkpt lat="44.42487" lon="6.97988">
        <ele>1949.5999755859</ele>
        <time>2024-09-13T08:01:23.000Z</time>
      </trkpt>
      <trkpt lat="44.42486" lon="6.97991">
        <ele>1949.8000488281</ele>
        <time>2024-09-13T08:01:24.000Z</time>
      </trkpt>
      <trkpt lat="44.42486" lon="6.97993">
        <ele>1949.8000488281</ele>
        <time>2024-09-13T08:01:25.000Z</time>
      </trkpt>
      <trkpt lat="44.42486" lon="6.97998">
        <ele>1950</ele>
        <time>2024-09-13T08:01:27.000Z</time>
      </trkpt>
      <trkpt lat="44.42485" lon="6.97999">
        <ele>1950</ele>
        <time>2024-09-13T08:01:28.000Z</time>
      </trkpt>
      <trkpt lat="44.42485" lon="6.98">
        <ele>1950.1999511719</ele>
        <time>2024-09-13T08:01:29.000Z</time>
      </trkpt>
      <trkpt lat="44.42484" lon="6.98">
        <ele>1950.4000244141</ele>
        <time>2024-09-13T08:01:30.000Z</time>
      </trkpt>
      <trkpt lat="44.42483" lon="6.98001">
        <ele>1950.5999755859</ele>
        <time>2024-09-13T08:01:31.000Z</time>
      </trkpt>
      <trkpt lat="44.42483" lon="6.98002">
        <ele>1950.8000488281</ele>
        <time>2024-09-13T08:01:32.000Z</time>
      </trkpt>
      <trkpt lat="44.42483" lon="6.98003">
        <ele>1951</ele>
        <time>2024-09-13T08:01:33.000Z</time>
      </trkpt>
      <trkpt lat="44.42483" lon="6.98004">
        <ele>1951</ele>
        <time>2024-09-13T08:01:34.000Z</time>
      </trkpt>
      <trkpt lat="44.42482" lon="6.98004">
        <ele>1951</ele>
        <time>2024-09-13T08:01:35.000Z</time>
      </trkpt>
      <trkpt lat="44.42482" lon="6.98004">
        <ele>1950.5999755859</ele>
        <time>2024-09-13T08:01:41.000Z</time>
      </trkpt>
      <trkpt lat="44.42483" lon="6.98004">
        <ele>1950.5999755859</ele>
        <time>2024-09-13T08:01:43.000Z</time>
      </trkpt>
      <trkpt lat="44.42482" lon="6.98004">
        <ele>1950.8000488281</ele>
        <time>2024-09-13T08:01:48.000Z</time>
      </trkpt>
      <trkpt lat="44.42484" lon="6.98003">
        <ele>1951</ele>
        <time>2024-09-13T08:01:55.000Z</time>
      </trkpt>
      <trkpt lat="44.42486" lon="6.98002">
        <ele>1950.8000488281</ele>
        <time>2024-09-13T08:01:58.000Z</time>
      </trkpt>
      <trkpt lat="44.42487" lon="6.98002">
        <ele>1950.8000488281</ele>
        <time>2024-09-13T08:01:59.000Z</time>
      </trkpt>
      <trkpt lat="44.42488" lon="6.98003">
        <ele>1950.8000488281</ele>
        <time>2024-09-13T08:02:00.000Z</time>
      </trkpt>
      <trkpt lat="44.4249" lon="6.98002">
        <ele>1951.4000244141</ele>
        <time>2024-09-13T08:02:02.000Z</time>
      </trkpt>
      <trkpt lat="44.42491" lon="6.98002">
        <ele>1951.5999755859</ele>
        <time>2024-09-13T08:02:03.000Z</time>
      </trkpt>
      <trkpt lat="44.42492" lon="6.98001">
        <ele>1951.8000488281</ele>
        <time>2024-09-13T08:02:05.000Z</time>
      </trkpt>
      <trkpt lat="44.42493" lon="6.98001">
        <ele>1951.8000488281</ele>
        <time>2024-09-13T08:02:06.000Z</time>
      </trkpt>
      <trkpt lat="44.42493" lon="6.98001">
        <ele>1951.8000488281</ele>
        <time>2024-09-13T08:02:07.000Z</time>
      </trkpt>
      <trkpt lat="44.42493" lon="6.98001">
        <ele>1951.8000488281</ele>
        <time>2024-09-13T08:02:08.000Z</time>
      </trkpt>
      <trkpt lat="44.42494" lon="6.98">
        <ele>1951.4000244141</ele>
        <time>2024-09-13T08:02:13.000Z</time>
      </trkpt>
      <trkpt lat="44.42495" lon="6.98">
        <ele>1950.8000488281</ele>
        <time>2024-09-13T08:02:18.000Z</time>
      </trkpt>
      <trkpt lat="44.42496" lon="6.98">
        <ele>1950.1999511719</ele>
        <time>2024-09-13T08:02:19.000Z</time>
      </trkpt>
      <trkpt lat="44.42499" lon="6.97999">
        <ele>1949.4000244141</ele>
        <time>2024-09-13T08:02:22.000Z</time>
      </trkpt>
      <trkpt lat="44.42499" lon="6.97999">
        <ele>1949</ele>
        <time>2024-09-13T08:02:23.000Z</time>
      </trkpt>
      <trkpt lat="44.42499" lon="6.97998">
        <ele>1948.8000488281</ele>
        <time>2024-09-13T08:02:24.000Z</time>
      </trkpt>
      <trkpt lat="44.42499" lon="6.97998">
        <ele>1948.5999755859</ele>
        <time>2024-09-13T08:02:25.000Z</time>
      </trkpt>
      <trkpt lat="44.42502" lon="6.98">
        <ele>1948.1999511719</ele>
        <time>2024-09-13T08:02:28.000Z</time>
      </trkpt>
      <trkpt lat="44.42502" lon="6.98">
        <ele>1947.8000488281</ele>
        <time>2024-09-13T08:02:29.000Z</time>
      </trkpt>
      <trkpt lat="44.42504" lon="6.98001">
        <ele>1947.4000244141</ele>
        <time>2024-09-13T08:02:30.000Z</time>
      </trkpt>
      <trkpt lat="44.42504" lon="6.98002">
        <ele>1947.1999511719</ele>
        <time>2024-09-13T08:02:31.000Z</time>
      </trkpt>
      <trkpt lat="44.42504" lon="6.98002">
        <ele>1947</ele>
        <time>2024-09-13T08:02:32.000Z</time>
      </trkpt>
      <trkpt lat="44.42505" lon="6.98005">
        <ele>1946.8000488281</ele>
        <time>2024-09-13T08:02:33.000Z</time>
      </trkpt>
      <trkpt lat="44.42506" lon="6.98006">
        <ele>1946.4000244141</ele>
        <time>2024-09-13T08:02:34.000Z</time>
      </trkpt>
      <trkpt lat="44.42506" lon="6.98006">
        <ele>1946</ele>
        <time>2024-09-13T08:02:35.000Z</time>
      </trkpt>
      <trkpt lat="44.42506" lon="6.98008">
        <ele>1945.8000488281</ele>
        <time>2024-09-13T08:02:36.000Z</time>
      </trkpt>
      <trkpt lat="44.42505" lon="6.98008">
        <ele>1945.8000488281</ele>
        <time>2024-09-13T08:02:37.000Z</time>
      </trkpt>
      <trkpt lat="44.42505" lon="6.98008">
        <ele>1946</ele>
        <time>2024-09-13T08:02:41.000Z</time>
      </trkpt>
      <trkpt lat="44.42505" lon="6.98008">
        <ele>1945.8000488281</ele>
        <time>2024-09-13T08:02:46.000Z</time>
      </trkpt>
      <trkpt lat="44.42505" lon="6.98008">
        <ele>1945.4000244141</ele>
        <time>2024-09-13T08:02:54.000Z</time>
      </trkpt>
      <trkpt lat="44.42505" lon="6.98008">
        <ele>1945.4000244141</ele>
        <time>2024-09-13T08:02:56.000Z</time>
      </trkpt>
      <trkpt lat="44.42505" lon="6.98008">
        <ele>1945.4000244141</ele>
        <time>2024-09-13T08:02:58.000Z</time>
      </trkpt>
      <trkpt lat="44.42505" lon="6.98008">
        <ele>1945.4000244141</ele>
        <time>2024-09-13T08:03:09.000Z</time>
      </trkpt>
      <trkpt lat="44.42505" lon="6.98009">
        <ele>1945.1999511719</ele>
        <time>2024-09-13T08:03:20.000Z</time>
      </trkpt>
      <trkpt lat="44.42504" lon="6.98012">
        <ele>1945</ele>
        <time>2024-09-13T08:03:23.000Z</time>
      </trkpt>
      <trkpt lat="44.42502" lon="6.98014">
        <ele>1945.1999511719</ele>
        <time>2024-09-13T08:03:26.000Z</time>
      </trkpt>
      <trkpt lat="44.42502" lon="6.98015">
        <ele>1945.4000244141</ele>
        <time>2024-09-13T08:03:27.000Z</time>
      </trkpt>
      <trkpt lat="44.425" lon="6.98019">
        <ele>1946</ele>
        <time>2024-09-13T08:03:31.000Z</time>
      </trkpt>
      <trkpt lat="44.425" lon="6.98022">
        <ele>1946.5999755859</ele>
        <time>2024-09-13T08:03:34.000Z</time>
      </trkpt>
      <trkpt lat="44.42499" lon="6.98023">
        <ele>1946.8000488281</ele>
        <time>2024-09-13T08:03:35.000Z</time>
      </trkpt>
      <trkpt lat="44.42499" lon="6.98025">
        <ele>1947.1999511719</ele>
        <time>2024-09-13T08:03:37.000Z</time>
      </trkpt>
      <trkpt lat="44.42499" lon="6.98026">
        <ele>1947.1999511719</ele>
        <time>2024-09-13T08:03:38.000Z</time>
      </trkpt>
      <trkpt lat="44.42499" lon="6.98027">
        <ele>1947.4000244141</ele>
        <time>2024-09-13T08:03:39.000Z</time>
      </trkpt>
      <trkpt lat="44.42498" lon="6.98027">
        <ele>1947.5999755859</ele>
        <time>2024-09-13T08:03:40.000Z</time>
      </trkpt>
      <trkpt lat="44.42498" lon="6.98029">
        <ele>1947.8000488281</ele>
        <time>2024-09-13T08:03:41.000Z</time>
      </trkpt>
      <trkpt lat="44.42498" lon="6.98031">
        <ele>1947.8000488281</ele>
        <time>2024-09-13T08:03:42.000Z</time>
      </trkpt>
      <trkpt lat="44.42497" lon="6.98032">
        <ele>1947.8000488281</ele>
        <time>2024-09-13T08:03:43.000Z</time>
      </trkpt>
      <trkpt lat="44.42497" lon="6.98033">
        <ele>1948</ele>
        <time>2024-09-13T08:03:44.000Z</time>
      </trkpt>
      <trkpt lat="44.42496" lon="6.98035">
        <ele>1948.1999511719</ele>
        <time>2024-09-13T08:03:45.000Z</time>
      </trkpt>
      <trkpt lat="44.42496" lon="6.98036">
        <ele>1948.4000244141</ele>
        <time>2024-09-13T08:03:46.000Z</time>
      </trkpt>
      <trkpt lat="44.42495" lon="6.98037">
        <ele>1948.5999755859</ele>
        <time>2024-09-13T08:03:47.000Z</time>
      </trkpt>
      <trkpt lat="44.42495" lon="6.98038">
        <ele>1948.8000488281</ele>
        <time>2024-09-13T08:03:48.000Z</time>
      </trkpt>
      <trkpt lat="44.42494" lon="6.9804">
        <ele>1949</ele>
        <time>2024-09-13T08:03:49.000Z</time>
      </trkpt>
      <trkpt lat="44.42494" lon="6.9804">
        <ele>1949.1999511719</ele>
        <time>2024-09-13T08:03:50.000Z</time>
      </trkpt>
      <trkpt lat="44.42494" lon="6.98041">
        <ele>1949.1999511719</ele>
        <time>2024-09-13T08:03:51.000Z</time>
      </trkpt>
      <trkpt lat="44.42493" lon="6.98043">
        <ele>1949.4000244141</ele>
        <time>2024-09-13T08:03:52.000Z</time>
      </trkpt>
      <trkpt lat="44.42493" lon="6.98044">
        <ele>1949.5999755859</ele>
        <time>2024-09-13T08:03:53.000Z</time>
      </trkpt>
      <trkpt lat="44.42492" lon="6.98045">
        <ele>1949.8000488281</ele>
        <time>2024-09-13T08:03:54.000Z</time>
      </trkpt>
      <trkpt lat="44.42491" lon="6.98045">
        <ele>1950</ele>
        <time>2024-09-13T08:03:55.000Z</time>
      </trkpt>
      <trkpt lat="44.42491" lon="6.98046">
        <ele>1950.4000244141</ele>
        <time>2024-09-13T08:03:56.000Z</time>
      </trkpt>
      <trkpt lat="44.4249" lon="6.98047">
        <ele>1950.5999755859</ele>
        <time>2024-09-13T08:03:57.000Z</time>
      </trkpt>
      <trkpt lat="44.4249" lon="6.98048">
        <ele>1950.8000488281</ele>
        <time>2024-09-13T08:03:58.000Z</time>
      </trkpt>
      <trkpt lat="44.4249" lon="6.98049">
        <ele>1951</ele>
        <time>2024-09-13T08:03:59.000Z</time>
      </trkpt>
      <trkpt lat="44.4249" lon="6.98049">
        <ele>1951.4000244141</ele>
        <time>2024-09-13T08:04:00.000Z</time>
      </trkpt>
      <trkpt lat="44.4249" lon="6.98048">
        <ele>1951.5999755859</ele>
        <time>2024-09-13T08:04:01.000Z</time>
      </trkpt>
      <trkpt lat="44.42489" lon="6.98049">
        <ele>1951.8000488281</ele>
        <time>2024-09-13T08:04:02.000Z</time>
      </trkpt>
      <trkpt lat="44.42489" lon="6.9805">
        <ele>1952.1999511719</ele>
        <time>2024-09-13T08:04:03.000Z</time>
      </trkpt>
      <trkpt lat="44.42489" lon="6.98051">
        <ele>1952.4000244141</ele>
        <time>2024-09-13T08:04:04.000Z</time>
      </trkpt>
      <trkpt lat="44.42489" lon="6.98052">
        <ele>1952.5999755859</ele>
        <time>2024-09-13T08:04:05.000Z</time>
      </trkpt>
      <trkpt lat="44.42489" lon="6.98054">
        <ele>1953</ele>
        <time>2024-09-13T08:04:06.000Z</time>
      </trkpt>
      <trkpt lat="44.42489" lon="6.98055">
        <ele>1953</ele>
        <time>2024-09-13T08:04:07.000Z</time>
      </trkpt>
      <trkpt lat="44.42489" lon="6.98057">
        <ele>1953.1999511719</ele>
        <time>2024-09-13T08:04:08.000Z</time>
      </trkpt>
      <trkpt lat="44.42489" lon="6.98059">
        <ele>1953.4000244141</ele>
        <time>2024-09-13T08:04:09.000Z</time>
      </trkpt>
      <trkpt lat="44.42489" lon="6.9806">
        <ele>1953.5999755859</ele>
        <time>2024-09-13T08:04:10.000Z</time>
      </trkpt>
      <trkpt lat="44.42489" lon="6.98061">
        <ele>1953.8000488281</ele>
        <time>2024-09-13T08:04:11.000Z</time>
      </trkpt>
      <trkpt lat="44.42489" lon="6.98062">
        <ele>1954.1999511719</ele>
        <time>2024-09-13T08:04:12.000Z</time>
      </trkpt>
      <trkpt lat="44.42489" lon="6.98063">
        <ele>1954.1999511719</ele>
        <time>2024-09-13T08:04:13.000Z</time>
      </trkpt>
      <trkpt lat="44.42489" lon="6.98064">
        <ele>1954.5999755859</ele>
        <time>2024-09-13T08:04:14.000Z</time>
      </trkpt>
      <trkpt lat="44.42489" lon="6.98064">
        <ele>1954.5999755859</ele>
        <time>2024-09-13T08:04:15.000Z</time>
      </trkpt>
      <trkpt lat="44.42489" lon="6.98065">
        <ele>1954.8000488281</ele>
        <time>2024-09-13T08:04:16.000Z</time>
      </trkpt>
      <trkpt lat="44.42489" lon="6.98066">
        <ele>1955</ele>
        <time>2024-09-13T08:04:17.000Z</time>
      </trkpt>
      <trkpt lat="44.42488" lon="6.98067">
        <ele>1955.1999511719</ele>
        <time>2024-09-13T08:04:18.000Z</time>
      </trkpt>
      <trkpt lat="44.42488" lon="6.98069">
        <ele>1955.1999511719</ele>
        <time>2024-09-13T08:04:19.000Z</time>
      </trkpt>
      <trkpt lat="44.42487" lon="6.9807">
        <ele>1955.5999755859</ele>
        <time>2024-09-13T08:04:20.000Z</time>
      </trkpt>
      <trkpt lat="44.42487" lon="6.98071">
        <ele>1955.8000488281</ele>
        <time>2024-09-13T08:04:21.000Z</time>
      </trkpt>
      <trkpt lat="44.42487" lon="6.98072">
        <ele>1956.1999511719</ele>
        <time>2024-09-13T08:04:22.000Z</time>
      </trkpt>
      <trkpt lat="44.42487" lon="6.98073">
        <ele>1956.4000244141</ele>
        <time>2024-09-13T08:04:23.000Z</time>
      </trkpt>
      <trkpt lat="44.42486" lon="6.98075">
        <ele>1956.5999755859</ele>
        <time>2024-09-13T08:04:24.000Z</time>
      </trkpt>
      <trkpt lat="44.42486" lon="6.98076">
        <ele>1957</ele>
        <time>2024-09-13T08:04:25.000Z</time>
      </trkpt>
      <trkpt lat="44.42485" lon="6.98077">
        <ele>1957.4000244141</ele>
        <time>2024-09-13T08:04:26.000Z</time>
      </trkpt>
      <trkpt lat="44.42484" lon="6.98077">
        <ele>1957.8000488281</ele>
        <time>2024-09-13T08:04:27.000Z</time>
      </trkpt>
      <trkpt lat="44.42484" lon="6.98077">
        <ele>1958</ele>
        <time>2024-09-13T08:04:28.000Z</time>
      </trkpt>
      <trkpt lat="44.42483" lon="6.98077">
        <ele>1958.1999511719</ele>
        <time>2024-09-13T08:04:29.000Z</time>
      </trkpt>
      <trkpt lat="44.42482" lon="6.98076">
        <ele>1958.4000244141</ele>
        <time>2024-09-13T08:04:30.000Z</time>
      </trkpt>
      <trkpt lat="44.42482" lon="6.98075">
        <ele>1958.8000488281</ele>
        <time>2024-09-13T08:04:31.000Z</time>
      </trkpt>
      <trkpt lat="44.42481" lon="6.98075">
        <ele>1959</ele>
        <time>2024-09-13T08:04:32.000Z</time>
      </trkpt>
      <trkpt lat="44.42481" lon="6.98074">
        <ele>1959.4000244141</ele>
        <time>2024-09-13T08:04:33.000Z</time>
      </trkpt>
      <trkpt lat="44.4248" lon="6.98074">
        <ele>1959.5999755859</ele>
        <time>2024-09-13T08:04:34.000Z</time>
      </trkpt>
      <trkpt lat="44.42479" lon="6.98073">
        <ele>1959.8000488281</ele>
        <time>2024-09-13T08:04:35.000Z</time>
      </trkpt>
      <trkpt lat="44.42479" lon="6.98072">
        <ele>1960.1999511719</ele>
        <time>2024-09-13T08:04:36.000Z</time>
      </trkpt>
      <trkpt lat="44.42478" lon="6.98071">
        <ele>1960.4000244141</ele>
        <time>2024-09-13T08:04:37.000Z</time>
      </trkpt>
      <trkpt lat="44.42477" lon="6.9807">
        <ele>1960.5999755859</ele>
        <time>2024-09-13T08:04:38.000Z</time>
      </trkpt>
      <trkpt lat="44.42477" lon="6.9807">
        <ele>1961</ele>
        <time>2024-09-13T08:04:39.000Z</time>
      </trkpt>
      <trkpt lat="44.42476" lon="6.98069">
        <ele>1961.1999511719</ele>
        <time>2024-09-13T08:04:40.000Z</time>
      </trkpt>
      <trkpt lat="44.42475" lon="6.98068">
        <ele>1961.4000244141</ele>
        <time>2024-09-13T08:04:41.000Z</time>
      </trkpt>
      <trkpt lat="44.42475" lon="6.98068">
        <ele>1961.5999755859</ele>
        <time>2024-09-13T08:04:42.000Z</time>
      </trkpt>
      <trkpt lat="44.42475" lon="6.98068">
        <ele>1961.8000488281</ele>
        <time>2024-09-13T08:04:43.000Z</time>
      </trkpt>
      <trkpt lat="44.42474" lon="6.98069">
        <ele>1961.8000488281</ele>
        <time>2024-09-13T08:04:44.000Z</time>
      </trkpt>
      <trkpt lat="44.42474" lon="6.9807">
        <ele>1961.8000488281</ele>
        <time>2024-09-13T08:04:45.000Z</time>
      </trkpt>
      <trkpt lat="44.42474" lon="6.98071">
        <ele>1962</ele>
        <time>2024-09-13T08:04:46.000Z</time>
      </trkpt>
      <trkpt lat="44.42473" lon="6.98072">
        <ele>1962.1999511719</ele>
        <time>2024-09-13T08:04:47.000Z</time>
      </trkpt>
      <trkpt lat="44.42473" lon="6.98074">
        <ele>1962.1999511719</ele>
        <time>2024-09-13T08:04:48.000Z</time>
      </trkpt>
      <trkpt lat="44.42474" lon="6.98075">
        <ele>1962.5999755859</ele>
        <time>2024-09-13T08:04:49.000Z</time>
      </trkpt>
      <trkpt lat="44.42474" lon="6.98076">
        <ele>1962.5999755859</ele>
        <time>2024-09-13T08:04:50.000Z</time>
      </trkpt>
      <trkpt lat="44.42474" lon="6.98077">
        <ele>1962.8000488281</ele>
        <time>2024-09-13T08:04:51.000Z</time>
      </trkpt>
      <trkpt lat="44.42474" lon="6.98078">
        <ele>1962.8000488281</ele>
        <time>2024-09-13T08:04:52.000Z</time>
      </trkpt>
      <trkpt lat="44.42474" lon="6.9808">
        <ele>1962.8000488281</ele>
        <time>2024-09-13T08:04:53.000Z</time>
      </trkpt>
      <trkpt lat="44.42474" lon="6.98081">
        <ele>1963</ele>
        <time>2024-09-13T08:04:54.000Z</time>
      </trkpt>
      <trkpt lat="44.42474" lon="6.98082">
        <ele>1963.1999511719</ele>
        <time>2024-09-13T08:04:55.000Z</time>
      </trkpt>
      <trkpt lat="44.42474" lon="6.98082">
        <ele>1963.1999511719</ele>
        <time>2024-09-13T08:04:56.000Z</time>
      </trkpt>
      <trkpt lat="44.42474" lon="6.98084">
        <ele>1963.4000244141</ele>
        <time>2024-09-13T08:04:57.000Z</time>
      </trkpt>
      <trkpt lat="44.42473" lon="6.98085">
        <ele>1963.8000488281</ele>
        <time>2024-09-13T08:04:58.000Z</time>
      </trkpt>
      <trkpt lat="44.42474" lon="6.98085">
        <ele>1963.8000488281</ele>
        <time>2024-09-13T08:04:59.000Z</time>
      </trkpt>
      <trkpt lat="44.42474" lon="6.98086">
        <ele>1964</ele>
        <time>2024-09-13T08:05:00.000Z</time>
      </trkpt>
      <trkpt lat="44.42475" lon="6.98087">
        <ele>1964.1999511719</ele>
        <time>2024-09-13T08:05:01.000Z</time>
      </trkpt>
      <trkpt lat="44.42475" lon="6.98088">
        <ele>1964.4000244141</ele>
        <time>2024-09-13T08:05:02.000Z</time>
      </trkpt>
      <trkpt lat="44.42476" lon="6.9809">
        <ele>1964.4000244141</ele>
        <time>2024-09-13T08:05:03.000Z</time>
      </trkpt>
      <trkpt lat="44.42476" lon="6.98091">
        <ele>1964.4000244141</ele>
        <time>2024-09-13T08:05:04.000Z</time>
      </trkpt>
      <trkpt lat="44.42477" lon="6.98091">
        <ele>1964.5999755859</ele>
        <time>2024-09-13T08:05:05.000Z</time>
      </trkpt>
      <trkpt lat="44.42477" lon="6.98092">
        <ele>1965</ele>
        <time>2024-09-13T08:05:06.000Z</time>
      </trkpt>
      <trkpt lat="44.42478" lon="6.98093">
        <ele>1965</ele>
        <time>2024-09-13T08:05:07.000Z</time>
      </trkpt>
      <trkpt lat="44.42478" lon="6.98095">
        <ele>1965.1999511719</ele>
        <time>2024-09-13T08:05:08.000Z</time>
      </trkpt>
      <trkpt lat="44.42479" lon="6.98096">
        <ele>1965.5999755859</ele>
        <time>2024-09-13T08:05:09.000Z</time>
      </trkpt>
      <trkpt lat="44.42479" lon="6.98096">
        <ele>1965.8000488281</ele>
        <time>2024-09-13T08:05:10.000Z</time>
      </trkpt>
      <trkpt lat="44.4248" lon="6.98097">
        <ele>1965.8000488281</ele>
        <time>2024-09-13T08:05:11.000Z</time>
      </trkpt>
      <trkpt lat="44.4248" lon="6.98098">
        <ele>1966.1999511719</ele>
        <time>2024-09-13T08:05:12.000Z</time>
      </trkpt>
      <trkpt lat="44.42481" lon="6.98099">
        <ele>1966.4000244141</ele>
        <time>2024-09-13T08:05:13.000Z</time>
      </trkpt>
      <trkpt lat="44.42481" lon="6.981">
        <ele>1966.4000244141</ele>
        <time>2024-09-13T08:05:14.000Z</time>
      </trkpt>
      <trkpt lat="44.42481" lon="6.981">
        <ele>1966.5999755859</ele>
        <time>2024-09-13T08:05:15.000Z</time>
      </trkpt>
      <trkpt lat="44.42481" lon="6.98101">
        <ele>1967</ele>
        <time>2024-09-13T08:05:16.000Z</time>
      </trkpt>
      <trkpt lat="44.42482" lon="6.98102">
        <ele>1967.1999511719</ele>
        <time>2024-09-13T08:05:17.000Z</time>
      </trkpt>
      <trkpt lat="44.42482" lon="6.98103">
        <ele>1967.4000244141</ele>
        <time>2024-09-13T08:05:18.000Z</time>
      </trkpt>
      <trkpt lat="44.42483" lon="6.98104">
        <ele>1967.5999755859</ele>
        <time>2024-09-13T08:05:19.000Z</time>
      </trkpt>
      <trkpt lat="44.42483" lon="6.98104">
        <ele>1967.8000488281</ele>
        <time>2024-09-13T08:05:20.000Z</time>
      </trkpt>
      <trkpt lat="44.42483" lon="6.98106">
        <ele>1968</ele>
        <time>2024-09-13T08:05:21.000Z</time>
      </trkpt>
      <trkpt lat="44.42484" lon="6.98106">
        <ele>1968.1999511719</ele>
        <time>2024-09-13T08:05:22.000Z</time>
      </trkpt>
      <trkpt lat="44.42484" lon="6.98107">
        <ele>1968.4000244141</ele>
        <time>2024-09-13T08:05:23.000Z</time>
      </trkpt>
      <trkpt lat="44.42485" lon="6.98109">
        <ele>1968.5999755859</ele>
        <time>2024-09-13T08:05:24.000Z</time>
      </trkpt>
      <trkpt lat="44.42485" lon="6.9811">
        <ele>1968.8000488281</ele>
        <time>2024-09-13T08:05:25.000Z</time>
      </trkpt>
      <trkpt lat="44.42485" lon="6.98112">
        <ele>1969</ele>
        <time>2024-09-13T08:05:26.000Z</time>
      </trkpt>
      <trkpt lat="44.42485" lon="6.98113">
        <ele>1969.1999511719</ele>
        <time>2024-09-13T08:05:27.000Z</time>
      </trkpt>
      <trkpt lat="44.42486" lon="6.98113">
        <ele>1969.4000244141</ele>
        <time>2024-09-13T08:05:28.000Z</time>
      </trkpt>
      <trkpt lat="44.42486" lon="6.98114">
        <ele>1969.4000244141</ele>
        <time>2024-09-13T08:05:29.000Z</time>
      </trkpt>
      <trkpt lat="44.42486" lon="6.98115">
        <ele>1969.5999755859</ele>
        <time>2024-09-13T08:05:30.000Z</time>
      </trkpt>
      <trkpt lat="44.42486" lon="6.98116">
        <ele>1969.8000488281</ele>
        <time>2024-09-13T08:05:31.000Z</time>
      </trkpt>
      <trkpt lat="44.42487" lon="6.98117">
        <ele>1970</ele>
        <time>2024-09-13T08:05:32.000Z</time>
      </trkpt>
      <trkpt lat="44.42488" lon="6.98117">
        <ele>1970.1999511719</ele>
        <time>2024-09-13T08:05:33.000Z</time>
      </trkpt>
      <trkpt lat="44.42489" lon="6.98118">
        <ele>1970.4000244141</ele>
        <time>2024-09-13T08:05:34.000Z</time>
      </trkpt>
      <trkpt lat="44.42489" lon="6.98118">
        <ele>1970.8000488281</ele>
        <time>2024-09-13T08:05:35.000Z</time>
      </trkpt>
      <trkpt lat="44.4249" lon="6.98119">
        <ele>1971</ele>
        <time>2024-09-13T08:05:36.000Z</time>
      </trkpt>
      <trkpt lat="44.4249" lon="6.98119">
        <ele>1971.1999511719</ele>
        <time>2024-09-13T08:05:37.000Z</time>
      </trkpt>
      <trkpt lat="44.4249" lon="6.9812">
        <ele>1971.1999511719</ele>
        <time>2024-09-13T08:05:38.000Z</time>
      </trkpt>
      <trkpt lat="44.42489" lon="6.98119">
        <ele>1971.4000244141</ele>
        <time>2024-09-13T08:05:39.000Z</time>
      </trkpt>
      <trkpt lat="44.4249" lon="6.9812">
        <ele>1971.5999755859</ele>
        <time>2024-09-13T08:05:40.000Z</time>
      </trkpt>
      <trkpt lat="44.4249" lon="6.98122">
        <ele>1971.8000488281</ele>
        <time>2024-09-13T08:05:41.000Z</time>
      </trkpt>
      <trkpt lat="44.42491" lon="6.98122">
        <ele>1972.1999511719</ele>
        <time>2024-09-13T08:05:42.000Z</time>
      </trkpt>
      <trkpt lat="44.42491" lon="6.98123">
        <ele>1972.4000244141</ele>
        <time>2024-09-13T08:05:43.000Z</time>
      </trkpt>
      <trkpt lat="44.42491" lon="6.98124">
        <ele>1972.8000488281</ele>
        <time>2024-09-13T08:05:44.000Z</time>
      </trkpt>
      <trkpt lat="44.42491" lon="6.98126">
        <ele>1972.8000488281</ele>
        <time>2024-09-13T08:05:45.000Z</time>
      </trkpt>
      <trkpt lat="44.42491" lon="6.98127">
        <ele>1973</ele>
        <time>2024-09-13T08:05:46.000Z</time>
      </trkpt>
      <trkpt lat="44.42491" lon="6.98129">
        <ele>1973</ele>
        <time>2024-09-13T08:05:47.000Z</time>
      </trkpt>
      <trkpt lat="44.42491" lon="6.9813">
        <ele>1973.1999511719</ele>
        <time>2024-09-13T08:05:48.000Z</time>
      </trkpt>
      <trkpt lat="44.42491" lon="6.98131">
        <ele>1973.1999511719</ele>
        <time>2024-09-13T08:05:49.000Z</time>
      </trkpt>
      <trkpt lat="44.42491" lon="6.98132">
        <ele>1973.4000244141</ele>
        <time>2024-09-13T08:05:50.000Z</time>
      </trkpt>
      <trkpt lat="44.4249" lon="6.98132">
        <ele>1973.4000244141</ele>
        <time>2024-09-13T08:05:51.000Z</time>
      </trkpt>
      <trkpt lat="44.42491" lon="6.98134">
        <ele>1973.5999755859</ele>
        <time>2024-09-13T08:05:52.000Z</time>
      </trkpt>
      <trkpt lat="44.42491" lon="6.98135">
        <ele>1973.8000488281</ele>
        <time>2024-09-13T08:05:53.000Z</time>
      </trkpt>
      <trkpt lat="44.42491" lon="6.98136">
        <ele>1974</ele>
        <time>2024-09-13T08:05:54.000Z</time>
      </trkpt>
      <trkpt lat="44.42492" lon="6.98138">
        <ele>1974.1999511719</ele>
        <time>2024-09-13T08:05:55.000Z</time>
      </trkpt>
      <trkpt lat="44.42492" lon="6.98139">
        <ele>1974.1999511719</ele>
        <time>2024-09-13T08:05:56.000Z</time>
      </trkpt>
      <trkpt lat="44.42493" lon="6.9814">
        <ele>1974.5999755859</ele>
        <time>2024-09-13T08:05:57.000Z</time>
      </trkpt>
      <trkpt lat="44.42493" lon="6.98142">
        <ele>1974.8000488281</ele>
        <time>2024-09-13T08:05:58.000Z</time>
      </trkpt>
      <trkpt lat="44.42493" lon="6.98143">
        <ele>1974.8000488281</ele>
        <time>2024-09-13T08:05:59.000Z</time>
      </trkpt>
      <trkpt lat="44.42493" lon="6.98143">
        <ele>1975</ele>
        <time>2024-09-13T08:06:00.000Z</time>
      </trkpt>
      <trkpt lat="44.42494" lon="6.98144">
        <ele>1975.1999511719</ele>
        <time>2024-09-13T08:06:01.000Z</time>
      </trkpt>
      <trkpt lat="44.42495" lon="6.98145">
        <ele>1975.5999755859</ele>
        <time>2024-09-13T08:06:02.000Z</time>
      </trkpt>
      <trkpt lat="44.42495" lon="6.98146">
        <ele>1975.8000488281</ele>
        <time>2024-09-13T08:06:03.000Z</time>
      </trkpt>
      <trkpt lat="44.42496" lon="6.98147">
        <ele>1976</ele>
        <time>2024-09-13T08:06:04.000Z</time>
      </trkpt>
      <trkpt lat="44.42497" lon="6.98149">
        <ele>1976.4000244141</ele>
        <time>2024-09-13T08:06:05.000Z</time>
      </trkpt>
      <trkpt lat="44.42497" lon="6.98149">
        <ele>1976.5999755859</ele>
        <time>2024-09-13T08:06:06.000Z</time>
      </trkpt>
      <trkpt lat="44.42497" lon="6.9815">
        <ele>1976.8000488281</ele>
        <time>2024-09-13T08:06:07.000Z</time>
      </trkpt>
      <trkpt lat="44.42497" lon="6.98151">
        <ele>1977</ele>
        <time>2024-09-13T08:06:08.000Z</time>
      </trkpt>
      <trkpt lat="44.42497" lon="6.98151">
        <ele>1977.4000244141</ele>
        <time>2024-09-13T08:06:09.000Z</time>
      </trkpt>
      <trkpt lat="44.42497" lon="6.98152">
        <ele>1977.5999755859</ele>
        <time>2024-09-13T08:06:10.000Z</time>
      </trkpt>
      <trkpt lat="44.42497" lon="6.98152">
        <ele>1977.8000488281</ele>
        <time>2024-09-13T08:06:11.000Z</time>
      </trkpt>
      <trkpt lat="44.42497" lon="6.98153">
        <ele>1978</ele>
        <time>2024-09-13T08:06:12.000Z</time>
      </trkpt>
      <trkpt lat="44.42497" lon="6.98155">
        <ele>1978</ele>
        <time>2024-09-13T08:06:13.000Z</time>
      </trkpt>
      <trkpt lat="44.42497" lon="6.98156">
        <ele>1978.4000244141</ele>
        <time>2024-09-13T08:06:14.000Z</time>
      </trkpt>
      <trkpt lat="44.42497" lon="6.98158">
        <ele>1978.4000244141</ele>
        <time>2024-09-13T08:06:15.000Z</time>
      </trkpt>
      <trkpt lat="44.42497" lon="6.98159">
        <ele>1978.5999755859</ele>
        <time>2024-09-13T08:06:16.000Z</time>
      </trkpt>
      <trkpt lat="44.42497" lon="6.9816">
        <ele>1978.5999755859</ele>
        <time>2024-09-13T08:06:17.000Z</time>
      </trkpt>
      <trkpt lat="44.42497" lon="6.98161">
        <ele>1978.8000488281</ele>
        <time>2024-09-13T08:06:18.000Z</time>
      </trkpt>
      <trkpt lat="44.42497" lon="6.98162">
        <ele>1979</ele>
        <time>2024-09-13T08:06:19.000Z</time>
      </trkpt>
      <trkpt lat="44.42497" lon="6.98163">
        <ele>1979</ele>
        <time>2024-09-13T08:06:20.000Z</time>
      </trkpt>
      <trkpt lat="44.42497" lon="6.98164">
        <ele>1979.1999511719</ele>
        <time>2024-09-13T08:06:21.000Z</time>
      </trkpt>
      <trkpt lat="44.42498" lon="6.98165">
        <ele>1979.1999511719</ele>
        <time>2024-09-13T08:06:22.000Z</time>
      </trkpt>
      <trkpt lat="44.42498" lon="6.98166">
        <ele>1979.5999755859</ele>
        <time>2024-09-13T08:06:23.000Z</time>
      </trkpt>
      <trkpt lat="44.42498" lon="6.98168">
        <ele>1979.8000488281</ele>
        <time>2024-09-13T08:06:24.000Z</time>
      </trkpt>
      <trkpt lat="44.42498" lon="6.98169">
        <ele>1980</ele>
        <time>2024-09-13T08:06:25.000Z</time>
      </trkpt>
      <trkpt lat="44.42497" lon="6.9817">
        <ele>1980.4000244141</ele>
        <time>2024-09-13T08:06:26.000Z</time>
      </trkpt>
      <trkpt lat="44.42497" lon="6.98171">
        <ele>1980.5999755859</ele>
        <time>2024-09-13T08:06:27.000Z</time>
      </trkpt>
      <trkpt lat="44.42497" lon="6.98172">
        <ele>1980.8000488281</ele>
        <time>2024-09-13T08:06:28.000Z</time>
      </trkpt>
      <trkpt lat="44.42497" lon="6.98173">
        <ele>1981</ele>
        <time>2024-09-13T08:06:29.000Z</time>
      </trkpt>
      <trkpt lat="44.42497" lon="6.98173">
        <ele>1981.4000244141</ele>
        <time>2024-09-13T08:06:30.000Z</time>
      </trkpt>
      <trkpt lat="44.42497" lon="6.98174">
        <ele>1981.4000244141</ele>
        <time>2024-09-13T08:06:31.000Z</time>
      </trkpt>
      <trkpt lat="44.42497" lon="6.98174">
        <ele>1981.8000488281</ele>
        <time>2024-09-13T08:06:32.000Z</time>
      </trkpt>
      <trkpt lat="44.42498" lon="6.98175">
        <ele>1982</ele>
        <time>2024-09-13T08:06:33.000Z</time>
      </trkpt>
      <trkpt lat="44.42498" lon="6.98176">
        <ele>1982.1999511719</ele>
        <time>2024-09-13T08:06:34.000Z</time>
      </trkpt>
      <trkpt lat="44.42498" lon="6.98177">
        <ele>1982.4000244141</ele>
        <time>2024-09-13T08:06:35.000Z</time>
      </trkpt>
      <trkpt lat="44.42498" lon="6.98177">
        <ele>1982.5999755859</ele>
        <time>2024-09-13T08:06:36.000Z</time>
      </trkpt>
      <trkpt lat="44.42497" lon="6.98177">
        <ele>1982.5999755859</ele>
        <time>2024-09-13T08:06:37.000Z</time>
      </trkpt>
      <trkpt lat="44.42497" lon="6.98178">
        <ele>1983</ele>
        <time>2024-09-13T08:06:38.000Z</time>
      </trkpt>
      <trkpt lat="44.42497" lon="6.98179">
        <ele>1983.4000244141</ele>
        <time>2024-09-13T08:06:39.000Z</time>
      </trkpt>
      <trkpt lat="44.42497" lon="6.9818">
        <ele>1983.4000244141</ele>
        <time>2024-09-13T08:06:40.000Z</time>
      </trkpt>
      <trkpt lat="44.42497" lon="6.9818">
        <ele>1983.4000244141</ele>
        <time>2024-09-13T08:06:41.000Z</time>
      </trkpt>
      <trkpt lat="44.42497" lon="6.98181">
        <ele>1983.8000488281</ele>
        <time>2024-09-13T08:06:42.000Z</time>
      </trkpt>
      <trkpt lat="44.42497" lon="6.98182">
        <ele>1983.8000488281</ele>
        <time>2024-09-13T08:06:43.000Z</time>
      </trkpt>
      <trkpt lat="44.42497" lon="6.98183">
        <ele>1984</ele>
        <time>2024-09-13T08:06:44.000Z</time>
      </trkpt>
      <trkpt lat="44.42497" lon="6.98184">
        <ele>1984</ele>
        <time>2024-09-13T08:06:45.000Z</time>
      </trkpt>
      <trkpt lat="44.42497" lon="6.98186">
        <ele>1984.1999511719</ele>
        <time>2024-09-13T08:06:46.000Z</time>
      </trkpt>
      <trkpt lat="44.42497" lon="6.98187">
        <ele>1984.4000244141</ele>
        <time>2024-09-13T08:06:47.000Z</time>
      </trkpt>
      <trkpt lat="44.42497" lon="6.98188">
        <ele>1984.5999755859</ele>
        <time>2024-09-13T08:06:48.000Z</time>
      </trkpt>
      <trkpt lat="44.42497" lon="6.98189">
        <ele>1984.8000488281</ele>
        <time>2024-09-13T08:06:49.000Z</time>
      </trkpt>
      <trkpt lat="44.42497" lon="6.98189">
        <ele>1985</ele>
        <time>2024-09-13T08:06:50.000Z</time>
      </trkpt>
      <trkpt lat="44.42498" lon="6.9819">
        <ele>1985</ele>
        <time>2024-09-13T08:06:51.000Z</time>
      </trkpt>
      <trkpt lat="44.42498" lon="6.98191">
        <ele>1985.1999511719</ele>
        <time>2024-09-13T08:06:52.000Z</time>
      </trkpt>
      <trkpt lat="44.42497" lon="6.98192">
        <ele>1985.4000244141</ele>
        <time>2024-09-13T08:06:53.000Z</time>
      </trkpt>
      <trkpt lat="44.42497" lon="6.98192">
        <ele>1985.5999755859</ele>
        <time>2024-09-13T08:06:54.000Z</time>
      </trkpt>
      <trkpt lat="44.42496" lon="6.98192">
        <ele>1985.8000488281</ele>
        <time>2024-09-13T08:06:55.000Z</time>
      </trkpt>
      <trkpt lat="44.42495" lon="6.98192">
        <ele>1986</ele>
        <time>2024-09-13T08:06:56.000Z</time>
      </trkpt>
      <trkpt lat="44.42494" lon="6.98194">
        <ele>1986.1999511719</ele>
        <time>2024-09-13T08:06:57.000Z</time>
      </trkpt>
      <trkpt lat="44.42494" lon="6.98194">
        <ele>1986.4000244141</ele>
        <time>2024-09-13T08:06:58.000Z</time>
      </trkpt>
      <trkpt lat="44.42493" lon="6.98195">
        <ele>1986.5999755859</ele>
        <time>2024-09-13T08:06:59.000Z</time>
      </trkpt>
      <trkpt lat="44.42493" lon="6.98196">
        <ele>1986.8000488281</ele>
        <time>2024-09-13T08:07:00.000Z</time>
      </trkpt>
      <trkpt lat="44.42493" lon="6.98196">
        <ele>1987.1999511719</ele>
        <time>2024-09-13T08:07:01.000Z</time>
      </trkpt>
      <trkpt lat="44.42492" lon="6.98197">
        <ele>1987.1999511719</ele>
        <time>2024-09-13T08:07:02.000Z</time>
      </trkpt>
      <trkpt lat="44.42492" lon="6.98197">
        <ele>1987.4000244141</ele>
        <time>2024-09-13T08:07:03.000Z</time>
      </trkpt>
      <trkpt lat="44.42491" lon="6.98197">
        <ele>1987.5999755859</ele>
        <time>2024-09-13T08:07:04.000Z</time>
      </trkpt>
      <trkpt lat="44.42491" lon="6.98197">
        <ele>1988</ele>
        <time>2024-09-13T08:07:05.000Z</time>
      </trkpt>
      <trkpt lat="44.42491" lon="6.98198">
        <ele>1988.1999511719</ele>
        <time>2024-09-13T08:07:06.000Z</time>
      </trkpt>
      <trkpt lat="44.42491" lon="6.98199">
        <ele>1988.4000244141</ele>
        <time>2024-09-13T08:07:07.000Z</time>
      </trkpt>
      <trkpt lat="44.42491" lon="6.98199">
        <ele>1988.5999755859</ele>
        <time>2024-09-13T08:07:08.000Z</time>
      </trkpt>
      <trkpt lat="44.42491" lon="6.982">
        <ele>1988.8000488281</ele>
        <time>2024-09-13T08:07:09.000Z</time>
      </trkpt>
      <trkpt lat="44.42491" lon="6.98201">
        <ele>1989</ele>
        <time>2024-09-13T08:07:10.000Z</time>
      </trkpt>
      <trkpt lat="44.42491" lon="6.98202">
        <ele>1989.1999511719</ele>
        <time>2024-09-13T08:07:11.000Z</time>
      </trkpt>
      <trkpt lat="44.42491" lon="6.98204">
        <ele>1989.4000244141</ele>
        <time>2024-09-13T08:07:12.000Z</time>
      </trkpt>
      <trkpt lat="44.4249" lon="6.98205">
        <ele>1989.8000488281</ele>
        <time>2024-09-13T08:07:13.000Z</time>
      </trkpt>
      <trkpt lat="44.4249" lon="6.98206">
        <ele>1990</ele>
        <time>2024-09-13T08:07:14.000Z</time>
      </trkpt>
      <trkpt lat="44.42489" lon="6.98207">
        <ele>1990.1999511719</ele>
        <time>2024-09-13T08:07:15.000Z</time>
      </trkpt>
      <trkpt lat="44.42489" lon="6.98208">
        <ele>1990.5999755859</ele>
        <time>2024-09-13T08:07:16.000Z</time>
      </trkpt>
      <trkpt lat="44.42488" lon="6.98209">
        <ele>1990.8000488281</ele>
        <time>2024-09-13T08:07:17.000Z</time>
      </trkpt>
      <trkpt lat="44.42488" lon="6.98209">
        <ele>1991</ele>
        <time>2024-09-13T08:07:18.000Z</time>
      </trkpt>
      <trkpt lat="44.42488" lon="6.9821">
        <ele>1991.1999511719</ele>
        <time>2024-09-13T08:07:19.000Z</time>
      </trkpt>
      <trkpt lat="44.42488" lon="6.98211">
        <ele>1991.5999755859</ele>
        <time>2024-09-13T08:07:20.000Z</time>
      </trkpt>
      <trkpt lat="44.42487" lon="6.98213">
        <ele>1991.5999755859</ele>
        <time>2024-09-13T08:07:21.000Z</time>
      </trkpt>
      <trkpt lat="44.42487" lon="6.98214">
        <ele>1991.8000488281</ele>
        <time>2024-09-13T08:07:22.000Z</time>
      </trkpt>
      <trkpt lat="44.42487" lon="6.98214">
        <ele>1992.1999511719</ele>
        <time>2024-09-13T08:07:23.000Z</time>
      </trkpt>
      <trkpt lat="44.42487" lon="6.98214">
        <ele>1992.1999511719</ele>
        <time>2024-09-13T08:07:24.000Z</time>
      </trkpt>
      <trkpt lat="44.42487" lon="6.98214">
        <ele>1992.4000244141</ele>
        <time>2024-09-13T08:07:25.000Z</time>
      </trkpt>
      <trkpt lat="44.42487" lon="6.98215">
        <ele>1992.5999755859</ele>
        <time>2024-09-13T08:07:26.000Z</time>
      </trkpt>
      <trkpt lat="44.42487" lon="6.98216">
        <ele>1992.8000488281</ele>
        <time>2024-09-13T08:07:27.000Z</time>
      </trkpt>
      <trkpt lat="44.42486" lon="6.98217">
        <ele>1993</ele>
        <time>2024-09-13T08:07:28.000Z</time>
      </trkpt>
      <trkpt lat="44.42486" lon="6.98219">
        <ele>1993.1999511719</ele>
        <time>2024-09-13T08:07:29.000Z</time>
      </trkpt>
      <trkpt lat="44.42486" lon="6.9822">
        <ele>1993.4000244141</ele>
        <time>2024-09-13T08:07:30.000Z</time>
      </trkpt>
      <trkpt lat="44.42486" lon="6.9822">
        <ele>1993.8000488281</ele>
        <time>2024-09-13T08:07:31.000Z</time>
      </trkpt>
      <trkpt lat="44.42485" lon="6.9822">
        <ele>1993.8000488281</ele>
        <time>2024-09-13T08:07:32.000Z</time>
      </trkpt>
      <trkpt lat="44.42485" lon="6.98221">
        <ele>1994</ele>
        <time>2024-09-13T08:07:33.000Z</time>
      </trkpt>
      <trkpt lat="44.42485" lon="6.98222">
        <ele>1994</ele>
        <time>2024-09-13T08:07:34.000Z</time>
      </trkpt>
      <trkpt lat="44.42485" lon="6.98222">
        <ele>1994.1999511719</ele>
        <time>2024-09-13T08:07:35.000Z</time>
      </trkpt>
      <trkpt lat="44.42486" lon="6.98222">
        <ele>1994.4000244141</ele>
        <time>2024-09-13T08:07:36.000Z</time>
      </trkpt>
      <trkpt lat="44.42486" lon="6.98223">
        <ele>1994.5999755859</ele>
        <time>2024-09-13T08:07:37.000Z</time>
      </trkpt>
      <trkpt lat="44.42486" lon="6.98224">
        <ele>1994.8000488281</ele>
        <time>2024-09-13T08:07:38.000Z</time>
      </trkpt>
      <trkpt lat="44.42486" lon="6.98226">
        <ele>1995</ele>
        <time>2024-09-13T08:07:39.000Z</time>
      </trkpt>
      <trkpt lat="44.42486" lon="6.98226">
        <ele>1995</ele>
        <time>2024-09-13T08:07:40.000Z</time>
      </trkpt>
      <trkpt lat="44.42485" lon="6.98227">
        <ele>1995.1999511719</ele>
        <time>2024-09-13T08:07:41.000Z</time>
      </trkpt>
      <trkpt lat="44.42485" lon="6.98227">
        <ele>1995.4000244141</ele>
        <time>2024-09-13T08:07:42.000Z</time>
      </trkpt>
      <trkpt lat="44.42485" lon="6.98228">
        <ele>1995.5999755859</ele>
        <time>2024-09-13T08:07:43.000Z</time>
      </trkpt>
      <trkpt lat="44.42485" lon="6.98228">
        <ele>1995.8000488281</ele>
        <time>2024-09-13T08:07:44.000Z</time>
      </trkpt>
      <trkpt lat="44.42485" lon="6.98229">
        <ele>1995.8000488281</ele>
        <time>2024-09-13T08:07:45.000Z</time>
      </trkpt>
      <trkpt lat="44.42485" lon="6.9823">
        <ele>1996.1999511719</ele>
        <time>2024-09-13T08:07:46.000Z</time>
      </trkpt>
      <trkpt lat="44.42485" lon="6.98231">
        <ele>1996.1999511719</ele>
        <time>2024-09-13T08:07:47.000Z</time>
      </trkpt>
      <trkpt lat="44.42486" lon="6.98232">
        <ele>1996.4000244141</ele>
        <time>2024-09-13T08:07:48.000Z</time>
      </trkpt>
      <trkpt lat="44.42486" lon="6.98233">
        <ele>1996.4000244141</ele>
        <time>2024-09-13T08:07:49.000Z</time>
      </trkpt>
      <trkpt lat="44.42486" lon="6.98234">
        <ele>1996.5999755859</ele>
        <time>2024-09-13T08:07:50.000Z</time>
      </trkpt>
      <trkpt lat="44.42486" lon="6.98235">
        <ele>1996.8000488281</ele>
        <time>2024-09-13T08:07:51.000Z</time>
      </trkpt>
      <trkpt lat="44.42486" lon="6.98236">
        <ele>1997</ele>
        <time>2024-09-13T08:07:52.000Z</time>
      </trkpt>
      <trkpt lat="44.42486" lon="6.98237">
        <ele>1997.1999511719</ele>
        <time>2024-09-13T08:07:53.000Z</time>
      </trkpt>
      <trkpt lat="44.42486" lon="6.98238">
        <ele>1997.1999511719</ele>
        <time>2024-09-13T08:07:54.000Z</time>
      </trkpt>
      <trkpt lat="44.42485" lon="6.98239">
        <ele>1997.5999755859</ele>
        <time>2024-09-13T08:07:55.000Z</time>
      </trkpt>
      <trkpt lat="44.42485" lon="6.9824">
        <ele>1997.8000488281</ele>
        <time>2024-09-13T08:07:56.000Z</time>
      </trkpt>
      <trkpt lat="44.42484" lon="6.98241">
        <ele>1997.8000488281</ele>
        <time>2024-09-13T08:07:57.000Z</time>
      </trkpt>
      <trkpt lat="44.42484" lon="6.98241">
        <ele>1997.8000488281</ele>
        <time>2024-09-13T08:07:58.000Z</time>
      </trkpt>
      <trkpt lat="44.42483" lon="6.98242">
        <ele>1998</ele>
        <time>2024-09-13T08:07:59.000Z</time>
      </trkpt>
      <trkpt lat="44.42483" lon="6.98243">
        <ele>1998.1999511719</ele>
        <time>2024-09-13T08:08:00.000Z</time>
      </trkpt>
      <trkpt lat="44.42483" lon="6.98244">
        <ele>1998.4000244141</ele>
        <time>2024-09-13T08:08:01.000Z</time>
      </trkpt>
      <trkpt lat="44.42483" lon="6.98245">
        <ele>1998.5999755859</ele>
        <time>2024-09-13T08:08:02.000Z</time>
      </trkpt>
      <trkpt lat="44.42483" lon="6.98247">
        <ele>1998.8000488281</ele>
        <time>2024-09-13T08:08:03.000Z</time>
      </trkpt>
      <trkpt lat="44.42483" lon="6.98248">
        <ele>1999</ele>
        <time>2024-09-13T08:08:04.000Z</time>
      </trkpt>
      <trkpt lat="44.42482" lon="6.98249">
        <ele>1999.1999511719</ele>
        <time>2024-09-13T08:08:05.000Z</time>
      </trkpt>
      <trkpt lat="44.42483" lon="6.9825">
        <ele>1999.4000244141</ele>
        <time>2024-09-13T08:08:06.000Z</time>
      </trkpt>
      <trkpt lat="44.42483" lon="6.98252">
        <ele>1999.4000244141</ele>
        <time>2024-09-13T08:08:07.000Z</time>
      </trkpt>
      <trkpt lat="44.42483" lon="6.98253">
        <ele>1999.8000488281</ele>
        <time>2024-09-13T08:08:08.000Z</time>
      </trkpt>
      <trkpt lat="44.42483" lon="6.98254">
        <ele>2000</ele>
        <time>2024-09-13T08:08:09.000Z</time>
      </trkpt>
      <trkpt lat="44.42483" lon="6.98255">
        <ele>2000.1999511719</ele>
        <time>2024-09-13T08:08:10.000Z</time>
      </trkpt>
      <trkpt lat="44.42482" lon="6.98256">
        <ele>2000.4000244141</ele>
        <time>2024-09-13T08:08:11.000Z</time>
      </trkpt>
      <trkpt lat="44.42482" lon="6.98256">
        <ele>2000.5999755859</ele>
        <time>2024-09-13T08:08:12.000Z</time>
      </trkpt>
      <trkpt lat="44.42481" lon="6.98257">
        <ele>2000.5999755859</ele>
        <time>2024-09-13T08:08:13.000Z</time>
      </trkpt>
      <trkpt lat="44.42481" lon="6.98259">
        <ele>2001</ele>
        <time>2024-09-13T08:08:14.000Z</time>
      </trkpt>
      <trkpt lat="44.4248" lon="6.9826">
        <ele>2001.1999511719</ele>
        <time>2024-09-13T08:08:15.000Z</time>
      </trkpt>
      <trkpt lat="44.42479" lon="6.98261">
        <ele>2001.1999511719</ele>
        <time>2024-09-13T08:08:16.000Z</time>
      </trkpt>
      <trkpt lat="44.42479" lon="6.98261">
        <ele>2001.4000244141</ele>
        <time>2024-09-13T08:08:17.000Z</time>
      </trkpt>
      <trkpt lat="44.42478" lon="6.98263">
        <ele>2001.5999755859</ele>
        <time>2024-09-13T08:08:18.000Z</time>
      </trkpt>
      <trkpt lat="44.42477" lon="6.98264">
        <ele>2001.8000488281</ele>
        <time>2024-09-13T08:08:19.000Z</time>
      </trkpt>
      <trkpt lat="44.42476" lon="6.98265">
        <ele>2002</ele>
        <time>2024-09-13T08:08:20.000Z</time>
      </trkpt>
      <trkpt lat="44.42475" lon="6.98265">
        <ele>2002</ele>
        <time>2024-09-13T08:08:21.000Z</time>
      </trkpt>
      <trkpt lat="44.42474" lon="6.98266">
        <ele>2002</ele>
        <time>2024-09-13T08:08:22.000Z</time>
      </trkpt>
      <trkpt lat="44.42473" lon="6.98267">
        <ele>2002.1999511719</ele>
        <time>2024-09-13T08:08:23.000Z</time>
      </trkpt>
      <trkpt lat="44.42473" lon="6.98268">
        <ele>2002.1999511719</ele>
        <time>2024-09-13T08:08:24.000Z</time>
      </trkpt>
      <trkpt lat="44.42472" lon="6.98268">
        <ele>2002.4000244141</ele>
        <time>2024-09-13T08:08:25.000Z</time>
      </trkpt>
      <trkpt lat="44.42471" lon="6.98269">
        <ele>2002.4000244141</ele>
        <time>2024-09-13T08:08:26.000Z</time>
      </trkpt>
      <trkpt lat="44.42471" lon="6.98269">
        <ele>2002.4000244141</ele>
        <time>2024-09-13T08:08:27.000Z</time>
      </trkpt>
      <trkpt lat="44.42469" lon="6.9827">
        <ele>2002.5999755859</ele>
        <time>2024-09-13T08:08:28.000Z</time>
      </trkpt>
      <trkpt lat="44.42469" lon="6.98271">
        <ele>2002.8000488281</ele>
        <time>2024-09-13T08:08:29.000Z</time>
      </trkpt>
      <trkpt lat="44.42468" lon="6.98271">
        <ele>2002.8000488281</ele>
        <time>2024-09-13T08:08:30.000Z</time>
      </trkpt>
      <trkpt lat="44.42467" lon="6.98272">
        <ele>2002.8000488281</ele>
        <time>2024-09-13T08:08:31.000Z</time>
      </trkpt>
      <trkpt lat="44.42466" lon="6.98273">
        <ele>2003</ele>
        <time>2024-09-13T08:08:32.000Z</time>
      </trkpt>
      <trkpt lat="44.42466" lon="6.98273">
        <ele>2003.1999511719</ele>
        <time>2024-09-13T08:08:33.000Z</time>
      </trkpt>
      <trkpt lat="44.42465" lon="6.98274">
        <ele>2003.4000244141</ele>
        <time>2024-09-13T08:08:34.000Z</time>
      </trkpt>
      <trkpt lat="44.42465" lon="6.98275">
        <ele>2003.4000244141</ele>
        <time>2024-09-13T08:08:35.000Z</time>
      </trkpt>
      <trkpt lat="44.42464" lon="6.98276">
        <ele>2003.5999755859</ele>
        <time>2024-09-13T08:08:36.000Z</time>
      </trkpt>
      <trkpt lat="44.42464" lon="6.98277">
        <ele>2003.8000488281</ele>
        <time>2024-09-13T08:08:37.000Z</time>
      </trkpt>
      <trkpt lat="44.42463" lon="6.98278">
        <ele>2003.8000488281</ele>
        <time>2024-09-13T08:08:38.000Z</time>
      </trkpt>
      <trkpt lat="44.42463" lon="6.98279">
        <ele>2004</ele>
        <time>2024-09-13T08:08:39.000Z</time>
      </trkpt>
      <trkpt lat="44.42462" lon="6.98279">
        <ele>2004.1999511719</ele>
        <time>2024-09-13T08:08:40.000Z</time>
      </trkpt>
      <trkpt lat="44.42461" lon="6.9828">
        <ele>2004.1999511719</ele>
        <time>2024-09-13T08:08:41.000Z</time>
      </trkpt>
      <trkpt lat="44.4246" lon="6.9828">
        <ele>2004.4000244141</ele>
        <time>2024-09-13T08:08:42.000Z</time>
      </trkpt>
      <trkpt lat="44.42458" lon="6.9828">
        <ele>2004.4000244141</ele>
        <time>2024-09-13T08:08:43.000Z</time>
      </trkpt>
      <trkpt lat="44.42457" lon="6.9828">
        <ele>2004.5999755859</ele>
        <time>2024-09-13T08:08:44.000Z</time>
      </trkpt>
      <trkpt lat="44.42456" lon="6.98281">
        <ele>2004.5999755859</ele>
        <time>2024-09-13T08:08:45.000Z</time>
      </trkpt>
      <trkpt lat="44.42455" lon="6.98281">
        <ele>2004.8000488281</ele>
        <time>2024-09-13T08:08:46.000Z</time>
      </trkpt>
      <trkpt lat="44.42454" lon="6.98282">
        <ele>2005.1999511719</ele>
        <time>2024-09-13T08:08:47.000Z</time>
      </trkpt>
      <trkpt lat="44.42453" lon="6.98282">
        <ele>2005.4000244141</ele>
        <time>2024-09-13T08:08:48.000Z</time>
      </trkpt>
      <trkpt lat="44.42452" lon="6.98282">
        <ele>2005.5999755859</ele>
        <time>2024-09-13T08:08:49.000Z</time>
      </trkpt>
      <trkpt lat="44.42451" lon="6.98283">
        <ele>2005.5999755859</ele>
        <time>2024-09-13T08:08:50.000Z</time>
      </trkpt>
      <trkpt lat="44.4245" lon="6.98283">
        <ele>2005.8000488281</ele>
        <time>2024-09-13T08:08:51.000Z</time>
      </trkpt>
      <trkpt lat="44.42448" lon="6.98283">
        <ele>2006</ele>
        <time>2024-09-13T08:08:52.000Z</time>
      </trkpt>
      <trkpt lat="44.42447" lon="6.98283">
        <ele>2006.1999511719</ele>
        <time>2024-09-13T08:08:53.000Z</time>
      </trkpt>
      <trkpt lat="44.42447" lon="6.98284">
        <ele>2006.4000244141</ele>
        <time>2024-09-13T08:08:54.000Z</time>
      </trkpt>
      <trkpt lat="44.42446" lon="6.98284">
        <ele>2006.4000244141</ele>
        <time>2024-09-13T08:08:55.000Z</time>
      </trkpt>
      <trkpt lat="44.42445" lon="6.98284">
        <ele>2006.8000488281</ele>
        <time>2024-09-13T08:08:56.000Z</time>
      </trkpt>
      <trkpt lat="44.42444" lon="6.98284">
        <ele>2007</ele>
        <time>2024-09-13T08:08:57.000Z</time>
      </trkpt>
      <trkpt lat="44.42443" lon="6.98284">
        <ele>2007.1999511719</ele>
        <time>2024-09-13T08:08:58.000Z</time>
      </trkpt>
      <trkpt lat="44.42443" lon="6.98284">
        <ele>2007.4000244141</ele>
        <time>2024-09-13T08:08:59.000Z</time>
      </trkpt>
      <trkpt lat="44.42442" lon="6.98284">
        <ele>2007.8000488281</ele>
        <time>2024-09-13T08:09:00.000Z</time>
      </trkpt>
      <trkpt lat="44.42442" lon="6.98285">
        <ele>2008</ele>
        <time>2024-09-13T08:09:01.000Z</time>
      </trkpt>
      <trkpt lat="44.42441" lon="6.98284">
        <ele>2008.1999511719</ele>
        <time>2024-09-13T08:09:02.000Z</time>
      </trkpt>
      <trkpt lat="44.4244" lon="6.98284">
        <ele>2008.4000244141</ele>
        <time>2024-09-13T08:09:03.000Z</time>
      </trkpt>
      <trkpt lat="44.42439" lon="6.98285">
        <ele>2008.4000244141</ele>
        <time>2024-09-13T08:09:04.000Z</time>
      </trkpt>
      <trkpt lat="44.42438" lon="6.98284">
        <ele>2008.5999755859</ele>
        <time>2024-09-13T08:09:05.000Z</time>
      </trkpt>
      <trkpt lat="44.42437" lon="6.98284">
        <ele>2009</ele>
        <time>2024-09-13T08:09:06.000Z</time>
      </trkpt>
      <trkpt lat="44.42437" lon="6.98284">
        <ele>2009.1999511719</ele>
        <time>2024-09-13T08:09:07.000Z</time>
      </trkpt>
      <trkpt lat="44.42436" lon="6.98284">
        <ele>2009.5999755859</ele>
        <time>2024-09-13T08:09:08.000Z</time>
      </trkpt>
      <trkpt lat="44.42435" lon="6.98284">
        <ele>2009.5999755859</ele>
        <time>2024-09-13T08:09:09.000Z</time>
      </trkpt>
      <trkpt lat="44.42434" lon="6.98284">
        <ele>2009.8000488281</ele>
        <time>2024-09-13T08:09:10.000Z</time>
      </trkpt>
      <trkpt lat="44.42434" lon="6.98284">
        <ele>2010.1999511719</ele>
        <time>2024-09-13T08:09:11.000Z</time>
      </trkpt>
      <trkpt lat="44.42433" lon="6.98284">
        <ele>2010.1999511719</ele>
        <time>2024-09-13T08:09:12.000Z</time>
      </trkpt>
      <trkpt lat="44.42432" lon="6.98284">
        <ele>2010.1999511719</ele>
        <time>2024-09-13T08:09:13.000Z</time>
      </trkpt>
      <trkpt lat="44.42432" lon="6.98283">
        <ele>2010.4000244141</ele>
        <time>2024-09-13T08:09:14.000Z</time>
      </trkpt>
      <trkpt lat="44.42431" lon="6.98283">
        <ele>2010.5999755859</ele>
        <time>2024-09-13T08:09:15.000Z</time>
      </trkpt>
      <trkpt lat="44.42431" lon="6.98283">
        <ele>2010.5999755859</ele>
        <time>2024-09-13T08:09:16.000Z</time>
      </trkpt>
      <trkpt lat="44.4243" lon="6.98283">
        <ele>2010.8000488281</ele>
        <time>2024-09-13T08:09:17.000Z</time>
      </trkpt>
      <trkpt lat="44.4243" lon="6.98284">
        <ele>2010.8000488281</ele>
        <time>2024-09-13T08:09:18.000Z</time>
      </trkpt>
      <trkpt lat="44.42429" lon="6.98285">
        <ele>2011</ele>
        <time>2024-09-13T08:09:19.000Z</time>
      </trkpt>
      <trkpt lat="44.42429" lon="6.98285">
        <ele>2011.1999511719</ele>
        <time>2024-09-13T08:09:20.000Z</time>
      </trkpt>
      <trkpt lat="44.42428" lon="6.98286">
        <ele>2011.4000244141</ele>
        <time>2024-09-13T08:09:21.000Z</time>
      </trkpt>
      <trkpt lat="44.42428" lon="6.98285">
        <ele>2011.4000244141</ele>
        <time>2024-09-13T08:09:22.000Z</time>
      </trkpt>
      <trkpt lat="44.42427" lon="6.98285">
        <ele>2011.5999755859</ele>
        <time>2024-09-13T08:09:23.000Z</time>
      </trkpt>
      <trkpt lat="44.42426" lon="6.98285">
        <ele>2011.8000488281</ele>
        <time>2024-09-13T08:09:24.000Z</time>
      </trkpt>
      <trkpt lat="44.42426" lon="6.98286">
        <ele>2011.8000488281</ele>
        <time>2024-09-13T08:09:25.000Z</time>
      </trkpt>
      <trkpt lat="44.42425" lon="6.98286">
        <ele>2011.8000488281</ele>
        <time>2024-09-13T08:09:27.000Z</time>
      </trkpt>
      <trkpt lat="44.42425" lon="6.98287">
        <ele>2011.5999755859</ele>
        <time>2024-09-13T08:09:28.000Z</time>
      </trkpt>
      <trkpt lat="44.42424" lon="6.98288">
        <ele>2011.5999755859</ele>
        <time>2024-09-13T08:09:29.000Z</time>
      </trkpt>
      <trkpt lat="44.42425" lon="6.98289">
        <ele>2011.5999755859</ele>
        <time>2024-09-13T08:09:32.000Z</time>
      </trkpt>
      <trkpt lat="44.42425" lon="6.98289">
        <ele>2011.5999755859</ele>
        <time>2024-09-13T08:09:33.000Z</time>
      </trkpt>
      <trkpt lat="44.42425" lon="6.98289">
        <ele>2011.5999755859</ele>
        <time>2024-09-13T08:09:34.000Z</time>
      </trkpt>
      <trkpt lat="44.42425" lon="6.98288">
        <ele>2011.5999755859</ele>
        <time>2024-09-13T08:09:36.000Z</time>
      </trkpt>
      <trkpt lat="44.42423" lon="6.98289">
        <ele>2011.5999755859</ele>
        <time>2024-09-13T08:09:38.000Z</time>
      </trkpt>
      <trkpt lat="44.42421" lon="6.98291">
        <ele>2011.5999755859</ele>
        <time>2024-09-13T08:09:40.000Z</time>
      </trkpt>
      <trkpt lat="44.4242" lon="6.98292">
        <ele>2011.4000244141</ele>
        <time>2024-09-13T08:09:41.000Z</time>
      </trkpt>
      <trkpt lat="44.42419" lon="6.98293">
        <ele>2011.4000244141</ele>
        <time>2024-09-13T08:09:42.000Z</time>
      </trkpt>
      <trkpt lat="44.42418" lon="6.98293">
        <ele>2011.4000244141</ele>
        <time>2024-09-13T08:09:43.000Z</time>
      </trkpt>
      <trkpt lat="44.42417" lon="6.98294">
        <ele>2011.4000244141</ele>
        <time>2024-09-13T08:09:44.000Z</time>
      </trkpt>
      <trkpt lat="44.42416" lon="6.98294">
        <ele>2011.4000244141</ele>
        <time>2024-09-13T08:09:45.000Z</time>
      </trkpt>
      <trkpt lat="44.42415" lon="6.98295">
        <ele>2011.4000244141</ele>
        <time>2024-09-13T08:09:46.000Z</time>
      </trkpt>
      <trkpt lat="44.42412" lon="6.98297">
        <ele>2011.4000244141</ele>
        <time>2024-09-13T08:09:48.000Z</time>
      </trkpt>
      <trkpt lat="44.42411" lon="6.98297">
        <ele>2011.5999755859</ele>
        <time>2024-09-13T08:09:49.000Z</time>
      </trkpt>
      <trkpt lat="44.42409" lon="6.983">
        <ele>2011.5999755859</ele>
        <time>2024-09-13T08:09:52.000Z</time>
      </trkpt>
      <trkpt lat="44.42408" lon="6.98302">
        <ele>2011.8000488281</ele>
        <time>2024-09-13T08:09:53.000Z</time>
      </trkpt>
      <trkpt lat="44.42407" lon="6.98303">
        <ele>2012</ele>
        <time>2024-09-13T08:09:54.000Z</time>
      </trkpt>
      <trkpt lat="44.42406" lon="6.98305">
        <ele>2012</ele>
        <time>2024-09-13T08:09:55.000Z</time>
      </trkpt>
      <trkpt lat="44.42406" lon="6.98306">
        <ele>2012.1999511719</ele>
        <time>2024-09-13T08:09:56.000Z</time>
      </trkpt>
      <trkpt lat="44.42404" lon="6.98307">
        <ele>2012.1999511719</ele>
        <time>2024-09-13T08:09:57.000Z</time>
      </trkpt>
      <trkpt lat="44.42403" lon="6.98307">
        <ele>2012.4000244141</ele>
        <time>2024-09-13T08:09:58.000Z</time>
      </trkpt>
      <trkpt lat="44.42402" lon="6.98308">
        <ele>2012.5999755859</ele>
        <time>2024-09-13T08:09:59.000Z</time>
      </trkpt>
      <trkpt lat="44.42401" lon="6.98309">
        <ele>2012.8000488281</ele>
        <time>2024-09-13T08:10:00.000Z</time>
      </trkpt>
      <trkpt lat="44.424" lon="6.9831">
        <ele>2013</ele>
        <time>2024-09-13T08:10:01.000Z</time>
      </trkpt>
      <trkpt lat="44.42399" lon="6.98311">
        <ele>2013.4000244141</ele>
        <time>2024-09-13T08:10:02.000Z</time>
      </trkpt>
      <trkpt lat="44.42398" lon="6.98312">
        <ele>2013.4000244141</ele>
        <time>2024-09-13T08:10:03.000Z</time>
      </trkpt>
      <trkpt lat="44.42398" lon="6.98313">
        <ele>2013.5999755859</ele>
        <time>2024-09-13T08:10:04.000Z</time>
      </trkpt>
      <trkpt lat="44.42397" lon="6.98313">
        <ele>2013.8000488281</ele>
        <time>2024-09-13T08:10:05.000Z</time>
      </trkpt>
      <trkpt lat="44.42396" lon="6.98314">
        <ele>2014</ele>
        <time>2024-09-13T08:10:06.000Z</time>
      </trkpt>
      <trkpt lat="44.42392" lon="6.98319">
        <ele>2014.4000244141</ele>
        <time>2024-09-13T08:10:09.000Z</time>
      </trkpt>
      <trkpt lat="44.42391" lon="6.98322">
        <ele>2014.4000244141</ele>
        <time>2024-09-13T08:10:10.000Z</time>
      </trkpt>
      <trkpt lat="44.4239" lon="6.98323">
        <ele>2014.4000244141</ele>
        <time>2024-09-13T08:10:11.000Z</time>
      </trkpt>
      <trkpt lat="44.42389" lon="6.98325">
        <ele>2014.1999511719</ele>
        <time>2024-09-13T08:10:12.000Z</time>
      </trkpt>
      <trkpt lat="44.42388" lon="6.98326">
        <ele>2014.1999511719</ele>
        <time>2024-09-13T08:10:13.000Z</time>
      </trkpt>
      <trkpt lat="44.42388" lon="6.98327">
        <ele>2014.1999511719</ele>
        <time>2024-09-13T08:10:14.000Z</time>
      </trkpt>
      <trkpt lat="44.42387" lon="6.98329">
        <ele>2014.1999511719</ele>
        <time>2024-09-13T08:10:15.000Z</time>
      </trkpt>
      <trkpt lat="44.42386" lon="6.98331">
        <ele>2014.1999511719</ele>
        <time>2024-09-13T08:10:16.000Z</time>
      </trkpt>
      <trkpt lat="44.42385" lon="6.98332">
        <ele>2014.1999511719</ele>
        <time>2024-09-13T08:10:17.000Z</time>
      </trkpt>
      <trkpt lat="44.42384" lon="6.98334">
        <ele>2014.1999511719</ele>
        <time>2024-09-13T08:10:19.000Z</time>
      </trkpt>
      <trkpt lat="44.42381" lon="6.98336">
        <ele>2015</ele>
        <time>2024-09-13T08:10:22.000Z</time>
      </trkpt>
      <trkpt lat="44.4238" lon="6.98336">
        <ele>2015.1999511719</ele>
        <time>2024-09-13T08:10:23.000Z</time>
      </trkpt>
      <trkpt lat="44.42379" lon="6.98337">
        <ele>2015.4000244141</ele>
        <time>2024-09-13T08:10:24.000Z</time>
      </trkpt>
      <trkpt lat="44.42379" lon="6.98338">
        <ele>2015.5999755859</ele>
        <time>2024-09-13T08:10:25.000Z</time>
      </trkpt>
      <trkpt lat="44.42376" lon="6.9834">
        <ele>2016</ele>
        <time>2024-09-13T08:10:27.000Z</time>
      </trkpt>
      <trkpt lat="44.42375" lon="6.98341">
        <ele>2016.1999511719</ele>
        <time>2024-09-13T08:10:28.000Z</time>
      </trkpt>
      <trkpt lat="44.42374" lon="6.98342">
        <ele>2016.1999511719</ele>
        <time>2024-09-13T08:10:29.000Z</time>
      </trkpt>
      <trkpt lat="44.42373" lon="6.98342">
        <ele>2016.4000244141</ele>
        <time>2024-09-13T08:10:30.000Z</time>
      </trkpt>
      <trkpt lat="44.42373" lon="6.98344">
        <ele>2016.5999755859</ele>
        <time>2024-09-13T08:10:31.000Z</time>
      </trkpt>
      <trkpt lat="44.42372" lon="6.98345">
        <ele>2016.8000488281</ele>
        <time>2024-09-13T08:10:32.000Z</time>
      </trkpt>
      <trkpt lat="44.42371" lon="6.98346">
        <ele>2016.8000488281</ele>
        <time>2024-09-13T08:10:33.000Z</time>
      </trkpt>
      <trkpt lat="44.4237" lon="6.98347">
        <ele>2017</ele>
        <time>2024-09-13T08:10:34.000Z</time>
      </trkpt>
      <trkpt lat="44.42369" lon="6.98348">
        <ele>2017.1999511719</ele>
        <time>2024-09-13T08:10:35.000Z</time>
      </trkpt>
      <trkpt lat="44.42368" lon="6.98349">
        <ele>2017.4000244141</ele>
        <time>2024-09-13T08:10:36.000Z</time>
      </trkpt>
      <trkpt lat="44.42368" lon="6.98349">
        <ele>2017.4000244141</ele>
        <time>2024-09-13T08:10:37.000Z</time>
      </trkpt>
      <trkpt lat="44.42367" lon="6.98351">
        <ele>2017.5999755859</ele>
        <time>2024-09-13T08:10:38.000Z</time>
      </trkpt>
      <trkpt lat="44.42366" lon="6.98352">
        <ele>2017.5999755859</ele>
        <time>2024-09-13T08:10:39.000Z</time>
      </trkpt>
      <trkpt lat="44.42365" lon="6.98353">
        <ele>2017.5999755859</ele>
        <time>2024-09-13T08:10:40.000Z</time>
      </trkpt>
      <trkpt lat="44.42364" lon="6.98354">
        <ele>2017.8000488281</ele>
        <time>2024-09-13T08:10:41.000Z</time>
      </trkpt>
      <trkpt lat="44.42363" lon="6.98355">
        <ele>2018</ele>
        <time>2024-09-13T08:10:42.000Z</time>
      </trkpt>
      <trkpt lat="44.42363" lon="6.98356">
        <ele>2018.1999511719</ele>
        <time>2024-09-13T08:10:43.000Z</time>
      </trkpt>
      <trkpt lat="44.42362" lon="6.98357">
        <ele>2018.5999755859</ele>
        <time>2024-09-13T08:10:44.000Z</time>
      </trkpt>
      <trkpt lat="44.42361" lon="6.98358">
        <ele>2018.5999755859</ele>
        <time>2024-09-13T08:10:45.000Z</time>
      </trkpt>
      <trkpt lat="44.42361" lon="6.9836">
        <ele>2019.1999511719</ele>
        <time>2024-09-13T08:10:46.000Z</time>
      </trkpt>
      <trkpt lat="44.4236" lon="6.98361">
        <ele>2019.1999511719</ele>
        <time>2024-09-13T08:10:47.000Z</time>
      </trkpt>
      <trkpt lat="44.42358" lon="6.9836">
        <ele>2019.4000244141</ele>
        <time>2024-09-13T08:10:48.000Z</time>
      </trkpt>
      <trkpt lat="44.42358" lon="6.9836">
        <ele>2019.5999755859</ele>
        <time>2024-09-13T08:10:49.000Z</time>
      </trkpt>
      <trkpt lat="44.42356" lon="6.98361">
        <ele>2019.8000488281</ele>
        <time>2024-09-13T08:10:50.000Z</time>
      </trkpt>
      <trkpt lat="44.42355" lon="6.98361">
        <ele>2019.8000488281</ele>
        <time>2024-09-13T08:10:51.000Z</time>
      </trkpt>
      <trkpt lat="44.42354" lon="6.98362">
        <ele>2020</ele>
        <time>2024-09-13T08:10:52.000Z</time>
      </trkpt>
      <trkpt lat="44.42354" lon="6.98363">
        <ele>2020.1999511719</ele>
        <time>2024-09-13T08:10:53.000Z</time>
      </trkpt>
      <trkpt lat="44.42354" lon="6.98364">
        <ele>2020.4000244141</ele>
        <time>2024-09-13T08:10:54.000Z</time>
      </trkpt>
      <trkpt lat="44.42353" lon="6.98365">
        <ele>2020.4000244141</ele>
        <time>2024-09-13T08:10:55.000Z</time>
      </trkpt>
      <trkpt lat="44.42352" lon="6.98366">
        <ele>2020.5999755859</ele>
        <time>2024-09-13T08:10:56.000Z</time>
      </trkpt>
      <trkpt lat="44.42351" lon="6.98367">
        <ele>2021</ele>
        <time>2024-09-13T08:10:57.000Z</time>
      </trkpt>
      <trkpt lat="44.4235" lon="6.98367">
        <ele>2021.1999511719</ele>
        <time>2024-09-13T08:10:58.000Z</time>
      </trkpt>
      <trkpt lat="44.42349" lon="6.98367">
        <ele>2021.5999755859</ele>
        <time>2024-09-13T08:10:59.000Z</time>
      </trkpt>
      <trkpt lat="44.42347" lon="6.98366">
        <ele>2021.8000488281</ele>
        <time>2024-09-13T08:11:00.000Z</time>
      </trkpt>
      <trkpt lat="44.42346" lon="6.98365">
        <ele>2022</ele>
        <time>2024-09-13T08:11:01.000Z</time>
      </trkpt>
      <trkpt lat="44.42345" lon="6.98365">
        <ele>2022.1999511719</ele>
        <time>2024-09-13T08:11:02.000Z</time>
      </trkpt>
      <trkpt lat="44.42345" lon="6.98365">
        <ele>2022.4000244141</ele>
        <time>2024-09-13T08:11:03.000Z</time>
      </trkpt>
      <trkpt lat="44.42344" lon="6.98365">
        <ele>2022.5999755859</ele>
        <time>2024-09-13T08:11:04.000Z</time>
      </trkpt>
      <trkpt lat="44.42342" lon="6.98365">
        <ele>2022.5999755859</ele>
        <time>2024-09-13T08:11:05.000Z</time>
      </trkpt>
      <trkpt lat="44.42342" lon="6.98366">
        <ele>2023</ele>
        <time>2024-09-13T08:11:06.000Z</time>
      </trkpt>
      <trkpt lat="44.42341" lon="6.98366">
        <ele>2023.1999511719</ele>
        <time>2024-09-13T08:11:07.000Z</time>
      </trkpt>
      <trkpt lat="44.4234" lon="6.98367">
        <ele>2023.5999755859</ele>
        <time>2024-09-13T08:11:08.000Z</time>
      </trkpt>
      <trkpt lat="44.42339" lon="6.98369">
        <ele>2023.8000488281</ele>
        <time>2024-09-13T08:11:09.000Z</time>
      </trkpt>
      <trkpt lat="44.42338" lon="6.98369">
        <ele>2023.8000488281</ele>
        <time>2024-09-13T08:11:10.000Z</time>
      </trkpt>
      <trkpt lat="44.42337" lon="6.9837">
        <ele>2024</ele>
        <time>2024-09-13T08:11:11.000Z</time>
      </trkpt>
      <trkpt lat="44.42336" lon="6.98371">
        <ele>2024.4000244141</ele>
        <time>2024-09-13T08:11:12.000Z</time>
      </trkpt>
      <trkpt lat="44.42335" lon="6.98372">
        <ele>2025</ele>
        <time>2024-09-13T08:11:13.000Z</time>
      </trkpt>
      <trkpt lat="44.42334" lon="6.98372">
        <ele>2025.5999755859</ele>
        <time>2024-09-13T08:11:14.000Z</time>
      </trkpt>
      <trkpt lat="44.42332" lon="6.98372">
        <ele>2025.8000488281</ele>
        <time>2024-09-13T08:11:15.000Z</time>
      </trkpt>
      <trkpt lat="44.42331" lon="6.98372">
        <ele>2026</ele>
        <time>2024-09-13T08:11:16.000Z</time>
      </trkpt>
      <trkpt lat="44.4233" lon="6.98373">
        <ele>2026.4000244141</ele>
        <time>2024-09-13T08:11:17.000Z</time>
      </trkpt>
      <trkpt lat="44.4233" lon="6.98373">
        <ele>2026.5999755859</ele>
        <time>2024-09-13T08:11:18.000Z</time>
      </trkpt>
      <trkpt lat="44.42329" lon="6.98375">
        <ele>2026.8000488281</ele>
        <time>2024-09-13T08:11:19.000Z</time>
      </trkpt>
      <trkpt lat="44.42328" lon="6.98376">
        <ele>2027</ele>
        <time>2024-09-13T08:11:20.000Z</time>
      </trkpt>
      <trkpt lat="44.42328" lon="6.98377">
        <ele>2027</ele>
        <time>2024-09-13T08:11:21.000Z</time>
      </trkpt>
      <trkpt lat="44.42327" lon="6.98378">
        <ele>2027.1999511719</ele>
        <time>2024-09-13T08:11:22.000Z</time>
      </trkpt>
      <trkpt lat="44.42327" lon="6.98379">
        <ele>2027.1999511719</ele>
        <time>2024-09-13T08:11:23.000Z</time>
      </trkpt>
      <trkpt lat="44.42327" lon="6.9838">
        <ele>2027.4000244141</ele>
        <time>2024-09-13T08:11:24.000Z</time>
      </trkpt>
      <trkpt lat="44.42326" lon="6.98381">
        <ele>2027.5999755859</ele>
        <time>2024-09-13T08:11:25.000Z</time>
      </trkpt>
      <trkpt lat="44.42325" lon="6.98382">
        <ele>2027.5999755859</ele>
        <time>2024-09-13T08:11:26.000Z</time>
      </trkpt>
      <trkpt lat="44.42325" lon="6.98383">
        <ele>2027.8000488281</ele>
        <time>2024-09-13T08:11:27.000Z</time>
      </trkpt>
      <trkpt lat="44.42324" lon="6.98385">
        <ele>2028</ele>
        <time>2024-09-13T08:11:28.000Z</time>
      </trkpt>
      <trkpt lat="44.42323" lon="6.98385">
        <ele>2028</ele>
        <time>2024-09-13T08:11:29.000Z</time>
      </trkpt>
      <trkpt lat="44.42322" lon="6.98386">
        <ele>2028.1999511719</ele>
        <time>2024-09-13T08:11:30.000Z</time>
      </trkpt>
      <trkpt lat="44.42322" lon="6.98386">
        <ele>2028.4000244141</ele>
        <time>2024-09-13T08:11:31.000Z</time>
      </trkpt>
      <trkpt lat="44.42321" lon="6.98387">
        <ele>2028.4000244141</ele>
        <time>2024-09-13T08:11:32.000Z</time>
      </trkpt>
      <trkpt lat="44.4232" lon="6.98388">
        <ele>2028.5999755859</ele>
        <time>2024-09-13T08:11:33.000Z</time>
      </trkpt>
      <trkpt lat="44.4232" lon="6.9839">
        <ele>2028.8000488281</ele>
        <time>2024-09-13T08:11:34.000Z</time>
      </trkpt>
      <trkpt lat="44.42319" lon="6.98391">
        <ele>2028.8000488281</ele>
        <time>2024-09-13T08:11:35.000Z</time>
      </trkpt>
      <trkpt lat="44.42318" lon="6.98392">
        <ele>2029</ele>
        <time>2024-09-13T08:11:36.000Z</time>
      </trkpt>
      <trkpt lat="44.42318" lon="6.98392">
        <ele>2029.1999511719</ele>
        <time>2024-09-13T08:11:37.000Z</time>
      </trkpt>
      <trkpt lat="44.42317" lon="6.98393">
        <ele>2029.5999755859</ele>
        <time>2024-09-13T08:11:38.000Z</time>
      </trkpt>
      <trkpt lat="44.42317" lon="6.98394">
        <ele>2029.5999755859</ele>
        <time>2024-09-13T08:11:39.000Z</time>
      </trkpt>
      <trkpt lat="44.42316" lon="6.98395">
        <ele>2029.8000488281</ele>
        <time>2024-09-13T08:11:40.000Z</time>
      </trkpt>
      <trkpt lat="44.42316" lon="6.98396">
        <ele>2030</ele>
        <time>2024-09-13T08:11:41.000Z</time>
      </trkpt>
      <trkpt lat="44.42315" lon="6.98398">
        <ele>2030.1999511719</ele>
        <time>2024-09-13T08:11:42.000Z</time>
      </trkpt>
      <trkpt lat="44.42315" lon="6.98399">
        <ele>2030.4000244141</ele>
        <time>2024-09-13T08:11:43.000Z</time>
      </trkpt>
      <trkpt lat="44.42314" lon="6.984">
        <ele>2030.5999755859</ele>
        <time>2024-09-13T08:11:44.000Z</time>
      </trkpt>
      <trkpt lat="44.42314" lon="6.98401">
        <ele>2030.8000488281</ele>
        <time>2024-09-13T08:11:45.000Z</time>
      </trkpt>
      <trkpt lat="44.42313" lon="6.98402">
        <ele>2031</ele>
        <time>2024-09-13T08:11:46.000Z</time>
      </trkpt>
      <trkpt lat="44.42312" lon="6.98403">
        <ele>2031</ele>
        <time>2024-09-13T08:11:47.000Z</time>
      </trkpt>
      <trkpt lat="44.42311" lon="6.98404">
        <ele>2031.1999511719</ele>
        <time>2024-09-13T08:11:48.000Z</time>
      </trkpt>
      <trkpt lat="44.4231" lon="6.98405">
        <ele>2031.5999755859</ele>
        <time>2024-09-13T08:11:49.000Z</time>
      </trkpt>
      <trkpt lat="44.42309" lon="6.98405">
        <ele>2031.5999755859</ele>
        <time>2024-09-13T08:11:50.000Z</time>
      </trkpt>
      <trkpt lat="44.42308" lon="6.98406">
        <ele>2031.8000488281</ele>
        <time>2024-09-13T08:11:51.000Z</time>
      </trkpt>
      <trkpt lat="44.42308" lon="6.98406">
        <ele>2032</ele>
        <time>2024-09-13T08:11:52.000Z</time>
      </trkpt>
      <trkpt lat="44.42307" lon="6.98407">
        <ele>2032.4000244141</ele>
        <time>2024-09-13T08:11:53.000Z</time>
      </trkpt>
      <trkpt lat="44.42306" lon="6.98407">
        <ele>2032.5999755859</ele>
        <time>2024-09-13T08:11:54.000Z</time>
      </trkpt>
      <trkpt lat="44.42305" lon="6.98408">
        <ele>2032.8000488281</ele>
        <time>2024-09-13T08:11:55.000Z</time>
      </trkpt>
      <trkpt lat="44.42304" lon="6.98409">
        <ele>2033.1999511719</ele>
        <time>2024-09-13T08:11:56.000Z</time>
      </trkpt>
      <trkpt lat="44.42303" lon="6.98409">
        <ele>2033.4000244141</ele>
        <time>2024-09-13T08:11:57.000Z</time>
      </trkpt>
      <trkpt lat="44.42301" lon="6.9841">
        <ele>2033.5999755859</ele>
        <time>2024-09-13T08:11:58.000Z</time>
      </trkpt>
      <trkpt lat="44.423" lon="6.98411">
        <ele>2033.5999755859</ele>
        <time>2024-09-13T08:11:59.000Z</time>
      </trkpt>
      <trkpt lat="44.42299" lon="6.98412">
        <ele>2033.8000488281</ele>
        <time>2024-09-13T08:12:00.000Z</time>
      </trkpt>
      <trkpt lat="44.42299" lon="6.98413">
        <ele>2034.1999511719</ele>
        <time>2024-09-13T08:12:01.000Z</time>
      </trkpt>
      <trkpt lat="44.42298" lon="6.98414">
        <ele>2034.8000488281</ele>
        <time>2024-09-13T08:12:02.000Z</time>
      </trkpt>
      <trkpt lat="44.42297" lon="6.98414">
        <ele>2035</ele>
        <time>2024-09-13T08:12:03.000Z</time>
      </trkpt>
      <trkpt lat="44.42295" lon="6.98414">
        <ele>2035</ele>
        <time>2024-09-13T08:12:04.000Z</time>
      </trkpt>
      <trkpt lat="44.42295" lon="6.98414">
        <ele>2035.4000244141</ele>
        <time>2024-09-13T08:12:05.000Z</time>
      </trkpt>
      <trkpt lat="44.42294" lon="6.98414">
        <ele>2035.8000488281</ele>
        <time>2024-09-13T08:12:06.000Z</time>
      </trkpt>
      <trkpt lat="44.42293" lon="6.98415">
        <ele>2036</ele>
        <time>2024-09-13T08:12:07.000Z</time>
      </trkpt>
      <trkpt lat="44.42292" lon="6.98416">
        <ele>2036</ele>
        <time>2024-09-13T08:12:08.000Z</time>
      </trkpt>
      <trkpt lat="44.42291" lon="6.98417">
        <ele>2036.1999511719</ele>
        <time>2024-09-13T08:12:09.000Z</time>
      </trkpt>
      <trkpt lat="44.4229" lon="6.98418">
        <ele>2036.1999511719</ele>
        <time>2024-09-13T08:12:10.000Z</time>
      </trkpt>
      <trkpt lat="44.4229" lon="6.98419">
        <ele>2036.5999755859</ele>
        <time>2024-09-13T08:12:11.000Z</time>
      </trkpt>
      <trkpt lat="44.42289" lon="6.98419">
        <ele>2036.8000488281</ele>
        <time>2024-09-13T08:12:12.000Z</time>
      </trkpt>
      <trkpt lat="44.42287" lon="6.9842">
        <ele>2037</ele>
        <time>2024-09-13T08:12:13.000Z</time>
      </trkpt>
      <trkpt lat="44.42287" lon="6.9842">
        <ele>2037.4000244141</ele>
        <time>2024-09-13T08:12:14.000Z</time>
      </trkpt>
      <trkpt lat="44.42286" lon="6.98421">
        <ele>2037.8000488281</ele>
        <time>2024-09-13T08:12:15.000Z</time>
      </trkpt>
      <trkpt lat="44.42285" lon="6.98422">
        <ele>2038</ele>
        <time>2024-09-13T08:12:16.000Z</time>
      </trkpt>
      <trkpt lat="44.42284" lon="6.98423">
        <ele>2038.1999511719</ele>
        <time>2024-09-13T08:12:17.000Z</time>
      </trkpt>
      <trkpt lat="44.42283" lon="6.98423">
        <ele>2038.4000244141</ele>
        <time>2024-09-13T08:12:18.000Z</time>
      </trkpt>
      <trkpt lat="44.42282" lon="6.98425">
        <ele>2038.5999755859</ele>
        <time>2024-09-13T08:12:19.000Z</time>
      </trkpt>
      <trkpt lat="44.42281" lon="6.98426">
        <ele>2039</ele>
        <time>2024-09-13T08:12:20.000Z</time>
      </trkpt>
      <trkpt lat="44.42281" lon="6.98428">
        <ele>2039.1999511719</ele>
        <time>2024-09-13T08:12:21.000Z</time>
      </trkpt>
      <trkpt lat="44.4228" lon="6.98429">
        <ele>2039.4000244141</ele>
        <time>2024-09-13T08:12:22.000Z</time>
      </trkpt>
      <trkpt lat="44.42279" lon="6.9843">
        <ele>2039.8000488281</ele>
        <time>2024-09-13T08:12:23.000Z</time>
      </trkpt>
      <trkpt lat="44.42278" lon="6.9843">
        <ele>2040</ele>
        <time>2024-09-13T08:12:24.000Z</time>
      </trkpt>
      <trkpt lat="44.42276" lon="6.98429">
        <ele>2040.4000244141</ele>
        <time>2024-09-13T08:12:25.000Z</time>
      </trkpt>
      <trkpt lat="44.42276" lon="6.98429">
        <ele>2040.5999755859</ele>
        <time>2024-09-13T08:12:26.000Z</time>
      </trkpt>
      <trkpt lat="44.42274" lon="6.9843">
        <ele>2040.8000488281</ele>
        <time>2024-09-13T08:12:27.000Z</time>
      </trkpt>
      <trkpt lat="44.42273" lon="6.98429">
        <ele>2041.1999511719</ele>
        <time>2024-09-13T08:12:28.000Z</time>
      </trkpt>
      <trkpt lat="44.42272" lon="6.98429">
        <ele>2041.1999511719</ele>
        <time>2024-09-13T08:12:29.000Z</time>
      </trkpt>
      <trkpt lat="44.4227" lon="6.98429">
        <ele>2041.5999755859</ele>
        <time>2024-09-13T08:12:30.000Z</time>
      </trkpt>
      <trkpt lat="44.42269" lon="6.98429">
        <ele>2041.5999755859</ele>
        <time>2024-09-13T08:12:31.000Z</time>
      </trkpt>
      <trkpt lat="44.42268" lon="6.98429">
        <ele>2041.8000488281</ele>
        <time>2024-09-13T08:12:32.000Z</time>
      </trkpt>
      <trkpt lat="44.42267" lon="6.98429">
        <ele>2042</ele>
        <time>2024-09-13T08:12:33.000Z</time>
      </trkpt>
      <trkpt lat="44.42266" lon="6.98429">
        <ele>2042.1999511719</ele>
        <time>2024-09-13T08:12:34.000Z</time>
      </trkpt>
      <trkpt lat="44.42265" lon="6.98429">
        <ele>2042.8000488281</ele>
        <time>2024-09-13T08:12:35.000Z</time>
      </trkpt>
      <trkpt lat="44.42264" lon="6.9843">
        <ele>2043</ele>
        <time>2024-09-13T08:12:36.000Z</time>
      </trkpt>
      <trkpt lat="44.42263" lon="6.9843">
        <ele>2043.1999511719</ele>
        <time>2024-09-13T08:12:37.000Z</time>
      </trkpt>
      <trkpt lat="44.42262" lon="6.98431">
        <ele>2043.4000244141</ele>
        <time>2024-09-13T08:12:38.000Z</time>
      </trkpt>
      <trkpt lat="44.42261" lon="6.98432">
        <ele>2043.8000488281</ele>
        <time>2024-09-13T08:12:39.000Z</time>
      </trkpt>
      <trkpt lat="44.42261" lon="6.98432">
        <ele>2044.1999511719</ele>
        <time>2024-09-13T08:12:40.000Z</time>
      </trkpt>
      <trkpt lat="44.4226" lon="6.98433">
        <ele>2044.4000244141</ele>
        <time>2024-09-13T08:12:41.000Z</time>
      </trkpt>
      <trkpt lat="44.42259" lon="6.98434">
        <ele>2044.5999755859</ele>
        <time>2024-09-13T08:12:42.000Z</time>
      </trkpt>
      <trkpt lat="44.42258" lon="6.98435">
        <ele>2044.8000488281</ele>
        <time>2024-09-13T08:12:43.000Z</time>
      </trkpt>
      <trkpt lat="44.42257" lon="6.98436">
        <ele>2045</ele>
        <time>2024-09-13T08:12:44.000Z</time>
      </trkpt>
      <trkpt lat="44.42257" lon="6.98436">
        <ele>2045.1999511719</ele>
        <time>2024-09-13T08:12:45.000Z</time>
      </trkpt>
      <trkpt lat="44.42256" lon="6.98438">
        <ele>2045.5999755859</ele>
        <time>2024-09-13T08:12:46.000Z</time>
      </trkpt>
      <trkpt lat="44.42256" lon="6.9844">
        <ele>2045.5999755859</ele>
        <time>2024-09-13T08:12:47.000Z</time>
      </trkpt>
      <trkpt lat="44.42256" lon="6.98442">
        <ele>2045.5999755859</ele>
        <time>2024-09-13T08:12:48.000Z</time>
      </trkpt>
      <trkpt lat="44.42256" lon="6.98443">
        <ele>2045.8000488281</ele>
        <time>2024-09-13T08:12:49.000Z</time>
      </trkpt>
      <trkpt lat="44.42255" lon="6.98445">
        <ele>2045.8000488281</ele>
        <time>2024-09-13T08:12:50.000Z</time>
      </trkpt>
      <trkpt lat="44.42255" lon="6.98447">
        <ele>2046</ele>
        <time>2024-09-13T08:12:51.000Z</time>
      </trkpt>
      <trkpt lat="44.42254" lon="6.98448">
        <ele>2046</ele>
        <time>2024-09-13T08:12:52.000Z</time>
      </trkpt>
      <trkpt lat="44.42253" lon="6.9845">
        <ele>2046.1999511719</ele>
        <time>2024-09-13T08:12:53.000Z</time>
      </trkpt>
      <trkpt lat="44.42253" lon="6.98451">
        <ele>2046.1999511719</ele>
        <time>2024-09-13T08:12:54.000Z</time>
      </trkpt>
      <trkpt lat="44.42252" lon="6.98452">
        <ele>2046.1999511719</ele>
        <time>2024-09-13T08:12:55.000Z</time>
      </trkpt>
      <trkpt lat="44.42252" lon="6.98453">
        <ele>2046.4000244141</ele>
        <time>2024-09-13T08:12:56.000Z</time>
      </trkpt>
      <trkpt lat="44.42251" lon="6.98454">
        <ele>2046.5999755859</ele>
        <time>2024-09-13T08:12:57.000Z</time>
      </trkpt>
      <trkpt lat="44.4225" lon="6.98454">
        <ele>2046.8000488281</ele>
        <time>2024-09-13T08:12:58.000Z</time>
      </trkpt>
      <trkpt lat="44.4225" lon="6.98455">
        <ele>2047</ele>
        <time>2024-09-13T08:12:59.000Z</time>
      </trkpt>
      <trkpt lat="44.42249" lon="6.98456">
        <ele>2047.4000244141</ele>
        <time>2024-09-13T08:13:00.000Z</time>
      </trkpt>
      <trkpt lat="44.42248" lon="6.98457">
        <ele>2047.5999755859</ele>
        <time>2024-09-13T08:13:01.000Z</time>
      </trkpt>
      <trkpt lat="44.42248" lon="6.98458">
        <ele>2047.8000488281</ele>
        <time>2024-09-13T08:13:02.000Z</time>
      </trkpt>
      <trkpt lat="44.42247" lon="6.98459">
        <ele>2048</ele>
        <time>2024-09-13T08:13:03.000Z</time>
      </trkpt>
      <trkpt lat="44.42246" lon="6.9846">
        <ele>2048.1999511719</ele>
        <time>2024-09-13T08:13:04.000Z</time>
      </trkpt>
      <trkpt lat="44.42245" lon="6.98461">
        <ele>2048.3999023438</ele>
        <time>2024-09-13T08:13:05.000Z</time>
      </trkpt>
      <trkpt lat="44.42245" lon="6.98462">
        <ele>2048.8000488281</ele>
        <time>2024-09-13T08:13:06.000Z</time>
      </trkpt>
      <trkpt lat="44.42244" lon="6.98463">
        <ele>2049</ele>
        <time>2024-09-13T08:13:07.000Z</time>
      </trkpt>
      <trkpt lat="44.42243" lon="6.98463">
        <ele>2049.1999511719</ele>
        <time>2024-09-13T08:13:08.000Z</time>
      </trkpt>
      <trkpt lat="44.42242" lon="6.98464">
        <ele>2049.6000976562</ele>
        <time>2024-09-13T08:13:09.000Z</time>
      </trkpt>
      <trkpt lat="44.42242" lon="6.98465">
        <ele>2049.8000488281</ele>
        <time>2024-09-13T08:13:10.000Z</time>
      </trkpt>
      <trkpt lat="44.42241" lon="6.98466">
        <ele>2050</ele>
        <time>2024-09-13T08:13:11.000Z</time>
      </trkpt>
      <trkpt lat="44.4224" lon="6.98467">
        <ele>2050.1999511719</ele>
        <time>2024-09-13T08:13:12.000Z</time>
      </trkpt>
      <trkpt lat="44.42239" lon="6.98467">
        <ele>2050.3999023438</ele>
        <time>2024-09-13T08:13:13.000Z</time>
      </trkpt>
      <trkpt lat="44.42238" lon="6.98468">
        <ele>2050.6000976562</ele>
        <time>2024-09-13T08:13:14.000Z</time>
      </trkpt>
      <trkpt lat="44.42238" lon="6.98469">
        <ele>2050.8000488281</ele>
        <time>2024-09-13T08:13:15.000Z</time>
      </trkpt>
      <trkpt lat="44.42237" lon="6.98471">
        <ele>2051</ele>
        <time>2024-09-13T08:13:16.000Z</time>
      </trkpt>
      <trkpt lat="44.42235" lon="6.98472">
        <ele>2051.1999511719</ele>
        <time>2024-09-13T08:13:17.000Z</time>
      </trkpt>
      <trkpt lat="44.42235" lon="6.98473">
        <ele>2051.6000976562</ele>
        <time>2024-09-13T08:13:18.000Z</time>
      </trkpt>
      <trkpt lat="44.42234" lon="6.98474">
        <ele>2051.8000488281</ele>
        <time>2024-09-13T08:13:19.000Z</time>
      </trkpt>
      <trkpt lat="44.42233" lon="6.98475">
        <ele>2052</ele>
        <time>2024-09-13T08:13:20.000Z</time>
      </trkpt>
      <trkpt lat="44.42232" lon="6.98475">
        <ele>2052.8000488281</ele>
        <time>2024-09-13T08:13:21.000Z</time>
      </trkpt>
      <trkpt lat="44.42232" lon="6.98477">
        <ele>2053.1999511719</ele>
        <time>2024-09-13T08:13:22.000Z</time>
      </trkpt>
      <trkpt lat="44.42231" lon="6.98478">
        <ele>2053.3999023438</ele>
        <time>2024-09-13T08:13:23.000Z</time>
      </trkpt>
      <trkpt lat="44.42231" lon="6.98479">
        <ele>2053.8000488281</ele>
        <time>2024-09-13T08:13:24.000Z</time>
      </trkpt>
      <trkpt lat="44.42231" lon="6.9848">
        <ele>2054</ele>
        <time>2024-09-13T08:13:25.000Z</time>
      </trkpt>
      <trkpt lat="44.4223" lon="6.98481">
        <ele>2054.1999511719</ele>
        <time>2024-09-13T08:13:26.000Z</time>
      </trkpt>
      <trkpt lat="44.4223" lon="6.98483">
        <ele>2054.3999023438</ele>
        <time>2024-09-13T08:13:27.000Z</time>
      </trkpt>
      <trkpt lat="44.42229" lon="6.98484">
        <ele>2055</ele>
        <time>2024-09-13T08:13:28.000Z</time>
      </trkpt>
      <trkpt lat="44.42228" lon="6.98485">
        <ele>2055.1999511719</ele>
        <time>2024-09-13T08:13:29.000Z</time>
      </trkpt>
      <trkpt lat="44.42227" lon="6.98486">
        <ele>2055.3999023438</ele>
        <time>2024-09-13T08:13:30.000Z</time>
      </trkpt>
      <trkpt lat="44.42226" lon="6.98487">
        <ele>2055.6000976562</ele>
        <time>2024-09-13T08:13:31.000Z</time>
      </trkpt>
      <trkpt lat="44.42226" lon="6.98489">
        <ele>2056</ele>
        <time>2024-09-13T08:13:32.000Z</time>
      </trkpt>
      <trkpt lat="44.42225" lon="6.9849">
        <ele>2056.1999511719</ele>
        <time>2024-09-13T08:13:33.000Z</time>
      </trkpt>
      <trkpt lat="44.42225" lon="6.98492">
        <ele>2056.3999023438</ele>
        <time>2024-09-13T08:13:34.000Z</time>
      </trkpt>
      <trkpt lat="44.42224" lon="6.98492">
        <ele>2057</ele>
        <time>2024-09-13T08:13:35.000Z</time>
      </trkpt>
      <trkpt lat="44.42223" lon="6.98492">
        <ele>2057.1999511719</ele>
        <time>2024-09-13T08:13:36.000Z</time>
      </trkpt>
      <trkpt lat="44.42223" lon="6.98493">
        <ele>2057.1999511719</ele>
        <time>2024-09-13T08:13:37.000Z</time>
      </trkpt>
      <trkpt lat="44.42222" lon="6.98493">
        <ele>2057.3999023438</ele>
        <time>2024-09-13T08:13:38.000Z</time>
      </trkpt>
      <trkpt lat="44.42222" lon="6.98494">
        <ele>2057.6000976562</ele>
        <time>2024-09-13T08:13:39.000Z</time>
      </trkpt>
      <trkpt lat="44.42221" lon="6.98495">
        <ele>2057.8000488281</ele>
        <time>2024-09-13T08:13:40.000Z</time>
      </trkpt>
      <trkpt lat="44.42221" lon="6.98496">
        <ele>2058</ele>
        <time>2024-09-13T08:13:41.000Z</time>
      </trkpt>
      <trkpt lat="44.42221" lon="6.98496">
        <ele>2058.1999511719</ele>
        <time>2024-09-13T08:13:42.000Z</time>
      </trkpt>
      <trkpt lat="44.42221" lon="6.98497">
        <ele>2058.1999511719</ele>
        <time>2024-09-13T08:13:43.000Z</time>
      </trkpt>
      <trkpt lat="44.4222" lon="6.98498">
        <ele>2058.3999023438</ele>
        <time>2024-09-13T08:13:44.000Z</time>
      </trkpt>
      <trkpt lat="44.42221" lon="6.98499">
        <ele>2058.3999023438</ele>
        <time>2024-09-13T08:13:45.000Z</time>
      </trkpt>
      <trkpt lat="44.4222" lon="6.98499">
        <ele>2058.3999023438</ele>
        <time>2024-09-13T08:13:46.000Z</time>
      </trkpt>
      <trkpt lat="44.4222" lon="6.985">
        <ele>2058.6000976562</ele>
        <time>2024-09-13T08:13:47.000Z</time>
      </trkpt>
      <trkpt lat="44.4222" lon="6.98501">
        <ele>2058.8000488281</ele>
        <time>2024-09-13T08:13:48.000Z</time>
      </trkpt>
      <trkpt lat="44.42219" lon="6.98502">
        <ele>2059</ele>
        <time>2024-09-13T08:13:49.000Z</time>
      </trkpt>
      <trkpt lat="44.42219" lon="6.98503">
        <ele>2059.1999511719</ele>
        <time>2024-09-13T08:13:50.000Z</time>
      </trkpt>
      <trkpt lat="44.42218" lon="6.98504">
        <ele>2059.3999023438</ele>
        <time>2024-09-13T08:13:51.000Z</time>
      </trkpt>
      <trkpt lat="44.42218" lon="6.98504">
        <ele>2059.6000976562</ele>
        <time>2024-09-13T08:13:52.000Z</time>
      </trkpt>
      <trkpt lat="44.42218" lon="6.98504">
        <ele>2059.8000488281</ele>
        <time>2024-09-13T08:13:53.000Z</time>
      </trkpt>
      <trkpt lat="44.42218" lon="6.98505">
        <ele>2060</ele>
        <time>2024-09-13T08:13:54.000Z</time>
      </trkpt>
      <trkpt lat="44.42217" lon="6.98506">
        <ele>2060.1999511719</ele>
        <time>2024-09-13T08:13:55.000Z</time>
      </trkpt>
      <trkpt lat="44.42217" lon="6.98507">
        <ele>2060.3999023438</ele>
        <time>2024-09-13T08:13:56.000Z</time>
      </trkpt>
      <trkpt lat="44.42217" lon="6.98507">
        <ele>2060.3999023438</ele>
        <time>2024-09-13T08:13:57.000Z</time>
      </trkpt>
      <trkpt lat="44.42216" lon="6.98508">
        <ele>2060.6000976562</ele>
        <time>2024-09-13T08:13:58.000Z</time>
      </trkpt>
      <trkpt lat="44.42216" lon="6.98508">
        <ele>2060.8000488281</ele>
        <time>2024-09-13T08:13:59.000Z</time>
      </trkpt>
      <trkpt lat="44.42216" lon="6.98509">
        <ele>2060.8000488281</ele>
        <time>2024-09-13T08:14:00.000Z</time>
      </trkpt>
      <trkpt lat="44.42216" lon="6.9851">
        <ele>2061</ele>
        <time>2024-09-13T08:14:01.000Z</time>
      </trkpt>
      <trkpt lat="44.42216" lon="6.98512">
        <ele>2061.3999023438</ele>
        <time>2024-09-13T08:14:02.000Z</time>
      </trkpt>
      <trkpt lat="44.42216" lon="6.98513">
        <ele>2061.6000976562</ele>
        <time>2024-09-13T08:14:03.000Z</time>
      </trkpt>
      <trkpt lat="44.42217" lon="6.98514">
        <ele>2061.6000976562</ele>
        <time>2024-09-13T08:14:04.000Z</time>
      </trkpt>
      <trkpt lat="44.42217" lon="6.98515">
        <ele>2061.8000488281</ele>
        <time>2024-09-13T08:14:05.000Z</time>
      </trkpt>
      <trkpt lat="44.42217" lon="6.98516">
        <ele>2062</ele>
        <time>2024-09-13T08:14:06.000Z</time>
      </trkpt>
      <trkpt lat="44.42218" lon="6.98517">
        <ele>2062.1999511719</ele>
        <time>2024-09-13T08:14:07.000Z</time>
      </trkpt>
      <trkpt lat="44.42218" lon="6.98518">
        <ele>2062.3999023438</ele>
        <time>2024-09-13T08:14:08.000Z</time>
      </trkpt>
      <trkpt lat="44.42218" lon="6.98518">
        <ele>2062.3999023438</ele>
        <time>2024-09-13T08:14:09.000Z</time>
      </trkpt>
      <trkpt lat="44.42218" lon="6.98519">
        <ele>2062.6000976562</ele>
        <time>2024-09-13T08:14:10.000Z</time>
      </trkpt>
      <trkpt lat="44.42219" lon="6.98519">
        <ele>2062.6000976562</ele>
        <time>2024-09-13T08:14:11.000Z</time>
      </trkpt>
      <trkpt lat="44.42219" lon="6.9852">
        <ele>2062.8000488281</ele>
        <time>2024-09-13T08:14:12.000Z</time>
      </trkpt>
      <trkpt lat="44.42219" lon="6.98521">
        <ele>2063</ele>
        <time>2024-09-13T08:14:13.000Z</time>
      </trkpt>
      <trkpt lat="44.42219" lon="6.98522">
        <ele>2063</ele>
        <time>2024-09-13T08:14:14.000Z</time>
      </trkpt>
      <trkpt lat="44.42218" lon="6.98523">
        <ele>2063.1999511719</ele>
        <time>2024-09-13T08:14:15.000Z</time>
      </trkpt>
      <trkpt lat="44.42217" lon="6.98523">
        <ele>2063.3999023438</ele>
        <time>2024-09-13T08:14:16.000Z</time>
      </trkpt>
      <trkpt lat="44.42216" lon="6.98524">
        <ele>2063.6000976562</ele>
        <time>2024-09-13T08:14:17.000Z</time>
      </trkpt>
      <trkpt lat="44.42215" lon="6.98525">
        <ele>2063.8000488281</ele>
        <time>2024-09-13T08:14:18.000Z</time>
      </trkpt>
      <trkpt lat="44.42214" lon="6.98525">
        <ele>2064</ele>
        <time>2024-09-13T08:14:19.000Z</time>
      </trkpt>
      <trkpt lat="44.42213" lon="6.98526">
        <ele>2064.1999511719</ele>
        <time>2024-09-13T08:14:20.000Z</time>
      </trkpt>
      <trkpt lat="44.42213" lon="6.98526">
        <ele>2064.1999511719</ele>
        <time>2024-09-13T08:14:21.000Z</time>
      </trkpt>
      <trkpt lat="44.42212" lon="6.98527">
        <ele>2064.3999023438</ele>
        <time>2024-09-13T08:14:22.000Z</time>
      </trkpt>
      <trkpt lat="44.42212" lon="6.98528">
        <ele>2064.3999023438</ele>
        <time>2024-09-13T08:14:23.000Z</time>
      </trkpt>
      <trkpt lat="44.42211" lon="6.98529">
        <ele>2064.8000488281</ele>
        <time>2024-09-13T08:14:24.000Z</time>
      </trkpt>
      <trkpt lat="44.42211" lon="6.9853">
        <ele>2065</ele>
        <time>2024-09-13T08:14:25.000Z</time>
      </trkpt>
      <trkpt lat="44.4221" lon="6.98531">
        <ele>2065</ele>
        <time>2024-09-13T08:14:26.000Z</time>
      </trkpt>
      <trkpt lat="44.4221" lon="6.98531">
        <ele>2065.1999511719</ele>
        <time>2024-09-13T08:14:27.000Z</time>
      </trkpt>
      <trkpt lat="44.4221" lon="6.98532">
        <ele>2065.3999023438</ele>
        <time>2024-09-13T08:14:28.000Z</time>
      </trkpt>
      <trkpt lat="44.4221" lon="6.98533">
        <ele>2065.6000976562</ele>
        <time>2024-09-13T08:14:29.000Z</time>
      </trkpt>
      <trkpt lat="44.42209" lon="6.98533">
        <ele>2065.8000488281</ele>
        <time>2024-09-13T08:14:30.000Z</time>
      </trkpt>
      <trkpt lat="44.42209" lon="6.98534">
        <ele>2066</ele>
        <time>2024-09-13T08:14:31.000Z</time>
      </trkpt>
      <trkpt lat="44.42208" lon="6.98534">
        <ele>2066.1999511719</ele>
        <time>2024-09-13T08:14:32.000Z</time>
      </trkpt>
      <trkpt lat="44.42208" lon="6.98535">
        <ele>2066.3999023438</ele>
        <time>2024-09-13T08:14:33.000Z</time>
      </trkpt>
      <trkpt lat="44.42208" lon="6.98535">
        <ele>2066.3999023438</ele>
        <time>2024-09-13T08:14:34.000Z</time>
      </trkpt>
      <trkpt lat="44.42207" lon="6.98536">
        <ele>2066.6000976562</ele>
        <time>2024-09-13T08:14:35.000Z</time>
      </trkpt>
      <trkpt lat="44.42207" lon="6.98537">
        <ele>2067</ele>
        <time>2024-09-13T08:14:36.000Z</time>
      </trkpt>
      <trkpt lat="44.42206" lon="6.98537">
        <ele>2067</ele>
        <time>2024-09-13T08:14:37.000Z</time>
      </trkpt>
      <trkpt lat="44.42206" lon="6.98537">
        <ele>2067.1999511719</ele>
        <time>2024-09-13T08:14:38.000Z</time>
      </trkpt>
      <trkpt lat="44.42205" lon="6.98538">
        <ele>2067.3999023438</ele>
        <time>2024-09-13T08:14:39.000Z</time>
      </trkpt>
      <trkpt lat="44.42204" lon="6.98538">
        <ele>2067.3999023438</ele>
        <time>2024-09-13T08:14:40.000Z</time>
      </trkpt>
      <trkpt lat="44.42204" lon="6.98538">
        <ele>2067.8000488281</ele>
        <time>2024-09-13T08:14:41.000Z</time>
      </trkpt>
      <trkpt lat="44.42203" lon="6.98538">
        <ele>2068</ele>
        <time>2024-09-13T08:14:42.000Z</time>
      </trkpt>
      <trkpt lat="44.42202" lon="6.98538">
        <ele>2068.1999511719</ele>
        <time>2024-09-13T08:14:43.000Z</time>
      </trkpt>
      <trkpt lat="44.42202" lon="6.98539">
        <ele>2068.6000976562</ele>
        <time>2024-09-13T08:14:44.000Z</time>
      </trkpt>
      <trkpt lat="44.42201" lon="6.98539">
        <ele>2068.6000976562</ele>
        <time>2024-09-13T08:14:45.000Z</time>
      </trkpt>
      <trkpt lat="44.422" lon="6.98539">
        <ele>2068.8000488281</ele>
        <time>2024-09-13T08:14:46.000Z</time>
      </trkpt>
      <trkpt lat="44.422" lon="6.9854">
        <ele>2068.8000488281</ele>
        <time>2024-09-13T08:14:47.000Z</time>
      </trkpt>
      <trkpt lat="44.422" lon="6.98541">
        <ele>2069.1999511719</ele>
        <time>2024-09-13T08:14:48.000Z</time>
      </trkpt>
      <trkpt lat="44.422" lon="6.98541">
        <ele>2069.3999023438</ele>
        <time>2024-09-13T08:14:49.000Z</time>
      </trkpt>
      <trkpt lat="44.42199" lon="6.98542">
        <ele>2069.6000976562</ele>
        <time>2024-09-13T08:14:50.000Z</time>
      </trkpt>
      <trkpt lat="44.42199" lon="6.98542">
        <ele>2069.6000976562</ele>
        <time>2024-09-13T08:14:51.000Z</time>
      </trkpt>
      <trkpt lat="44.42198" lon="6.98542">
        <ele>2069.8000488281</ele>
        <time>2024-09-13T08:14:52.000Z</time>
      </trkpt>
      <trkpt lat="44.42198" lon="6.98542">
        <ele>2070</ele>
        <time>2024-09-13T08:14:53.000Z</time>
      </trkpt>
      <trkpt lat="44.42197" lon="6.98543">
        <ele>2070.1999511719</ele>
        <time>2024-09-13T08:14:54.000Z</time>
      </trkpt>
      <trkpt lat="44.42197" lon="6.98543">
        <ele>2070.3999023438</ele>
        <time>2024-09-13T08:14:55.000Z</time>
      </trkpt>
      <trkpt lat="44.42196" lon="6.98543">
        <ele>2070.6000976562</ele>
        <time>2024-09-13T08:14:56.000Z</time>
      </trkpt>
      <trkpt lat="44.42195" lon="6.98543">
        <ele>2071</ele>
        <time>2024-09-13T08:14:57.000Z</time>
      </trkpt>
      <trkpt lat="44.42195" lon="6.98543">
        <ele>2071.1999511719</ele>
        <time>2024-09-13T08:14:58.000Z</time>
      </trkpt>
      <trkpt lat="44.42194" lon="6.98544">
        <ele>2071.3999023438</ele>
        <time>2024-09-13T08:14:59.000Z</time>
      </trkpt>
      <trkpt lat="44.42194" lon="6.98544">
        <ele>2071.6000976562</ele>
        <time>2024-09-13T08:15:00.000Z</time>
      </trkpt>
      <trkpt lat="44.42194" lon="6.98544">
        <ele>2071.8000488281</ele>
        <time>2024-09-13T08:15:01.000Z</time>
      </trkpt>
      <trkpt lat="44.42193" lon="6.98545">
        <ele>2072</ele>
        <time>2024-09-13T08:15:02.000Z</time>
      </trkpt>
      <trkpt lat="44.42193" lon="6.98545">
        <ele>2072.1999511719</ele>
        <time>2024-09-13T08:15:03.000Z</time>
      </trkpt>
      <trkpt lat="44.42193" lon="6.98545">
        <ele>2072.6000976562</ele>
        <time>2024-09-13T08:15:04.000Z</time>
      </trkpt>
      <trkpt lat="44.42192" lon="6.98546">
        <ele>2072.8000488281</ele>
        <time>2024-09-13T08:15:05.000Z</time>
      </trkpt>
      <trkpt lat="44.42192" lon="6.98547">
        <ele>2072.8000488281</ele>
        <time>2024-09-13T08:15:06.000Z</time>
      </trkpt>
      <trkpt lat="44.42192" lon="6.98547">
        <ele>2073</ele>
        <time>2024-09-13T08:15:07.000Z</time>
      </trkpt>
      <trkpt lat="44.42192" lon="6.98547">
        <ele>2073.6000976562</ele>
        <time>2024-09-13T08:15:08.000Z</time>
      </trkpt>
      <trkpt lat="44.42192" lon="6.98547">
        <ele>2073.6000976562</ele>
        <time>2024-09-13T08:15:09.000Z</time>
      </trkpt>
      <trkpt lat="44.42191" lon="6.98548">
        <ele>2073.8000488281</ele>
        <time>2024-09-13T08:15:10.000Z</time>
      </trkpt>
      <trkpt lat="44.42191" lon="6.98548">
        <ele>2073.8000488281</ele>
        <time>2024-09-13T08:15:11.000Z</time>
      </trkpt>
      <trkpt lat="44.42191" lon="6.98549">
        <ele>2074</ele>
        <time>2024-09-13T08:15:12.000Z</time>
      </trkpt>
      <trkpt lat="44.42191" lon="6.9855">
        <ele>2074.3999023438</ele>
        <time>2024-09-13T08:15:13.000Z</time>
      </trkpt>
      <trkpt lat="44.42191" lon="6.98551">
        <ele>2074.6000976562</ele>
        <time>2024-09-13T08:15:14.000Z</time>
      </trkpt>
      <trkpt lat="44.42192" lon="6.98551">
        <ele>2074.6000976562</ele>
        <time>2024-09-13T08:15:15.000Z</time>
      </trkpt>
      <trkpt lat="44.42192" lon="6.98552">
        <ele>2075</ele>
        <time>2024-09-13T08:15:16.000Z</time>
      </trkpt>
      <trkpt lat="44.42192" lon="6.98553">
        <ele>2075.1999511719</ele>
        <time>2024-09-13T08:15:17.000Z</time>
      </trkpt>
      <trkpt lat="44.42193" lon="6.98553">
        <ele>2075.3999023438</ele>
        <time>2024-09-13T08:15:18.000Z</time>
      </trkpt>
      <trkpt lat="44.42193" lon="6.98554">
        <ele>2075.3999023438</ele>
        <time>2024-09-13T08:15:19.000Z</time>
      </trkpt>
      <trkpt lat="44.42193" lon="6.98556">
        <ele>2075.6000976562</ele>
        <time>2024-09-13T08:15:20.000Z</time>
      </trkpt>
      <trkpt lat="44.42193" lon="6.98556">
        <ele>2075.6000976562</ele>
        <time>2024-09-13T08:15:21.000Z</time>
      </trkpt>
      <trkpt lat="44.42193" lon="6.98558">
        <ele>2076</ele>
        <time>2024-09-13T08:15:22.000Z</time>
      </trkpt>
      <trkpt lat="44.42193" lon="6.98558">
        <ele>2076</ele>
        <time>2024-09-13T08:15:23.000Z</time>
      </trkpt>
      <trkpt lat="44.42193" lon="6.98559">
        <ele>2076.1999511719</ele>
        <time>2024-09-13T08:15:24.000Z</time>
      </trkpt>
      <trkpt lat="44.42194" lon="6.98559">
        <ele>2076.6000976562</ele>
        <time>2024-09-13T08:15:25.000Z</time>
      </trkpt>
      <trkpt lat="44.42194" lon="6.9856">
        <ele>2076.6000976562</ele>
        <time>2024-09-13T08:15:26.000Z</time>
      </trkpt>
      <trkpt lat="44.42194" lon="6.9856">
        <ele>2077</ele>
        <time>2024-09-13T08:15:27.000Z</time>
      </trkpt>
      <trkpt lat="44.42194" lon="6.98561">
        <ele>2077.1999511719</ele>
        <time>2024-09-13T08:15:28.000Z</time>
      </trkpt>
      <trkpt lat="44.42194" lon="6.98561">
        <ele>2077.3999023438</ele>
        <time>2024-09-13T08:15:29.000Z</time>
      </trkpt>
      <trkpt lat="44.42195" lon="6.98562">
        <ele>2077.3999023438</ele>
        <time>2024-09-13T08:15:30.000Z</time>
      </trkpt>
      <trkpt lat="44.42195" lon="6.98563">
        <ele>2077.6000976562</ele>
        <time>2024-09-13T08:15:31.000Z</time>
      </trkpt>
      <trkpt lat="44.42195" lon="6.98564">
        <ele>2077.8000488281</ele>
        <time>2024-09-13T08:15:32.000Z</time>
      </trkpt>
      <trkpt lat="44.42195" lon="6.98565">
        <ele>2078</ele>
        <time>2024-09-13T08:15:33.000Z</time>
      </trkpt>
      <trkpt lat="44.42195" lon="6.98565">
        <ele>2078.1999511719</ele>
        <time>2024-09-13T08:15:34.000Z</time>
      </trkpt>
      <trkpt lat="44.42194" lon="6.98566">
        <ele>2078.3999023438</ele>
        <time>2024-09-13T08:15:35.000Z</time>
      </trkpt>
      <trkpt lat="44.42194" lon="6.98567">
        <ele>2078.6000976562</ele>
        <time>2024-09-13T08:15:36.000Z</time>
      </trkpt>
      <trkpt lat="44.42193" lon="6.98567">
        <ele>2079</ele>
        <time>2024-09-13T08:15:37.000Z</time>
      </trkpt>
      <trkpt lat="44.42192" lon="6.98568">
        <ele>2079</ele>
        <time>2024-09-13T08:15:38.000Z</time>
      </trkpt>
      <trkpt lat="44.42191" lon="6.98568">
        <ele>2079.1999511719</ele>
        <time>2024-09-13T08:15:39.000Z</time>
      </trkpt>
      <trkpt lat="44.4219" lon="6.98569">
        <ele>2079.3999023438</ele>
        <time>2024-09-13T08:15:40.000Z</time>
      </trkpt>
      <trkpt lat="44.4219" lon="6.98569">
        <ele>2079.8000488281</ele>
        <time>2024-09-13T08:15:41.000Z</time>
      </trkpt>
      <trkpt lat="44.42189" lon="6.9857">
        <ele>2080</ele>
        <time>2024-09-13T08:15:42.000Z</time>
      </trkpt>
      <trkpt lat="44.42188" lon="6.9857">
        <ele>2080.3999023438</ele>
        <time>2024-09-13T08:15:43.000Z</time>
      </trkpt>
      <trkpt lat="44.42188" lon="6.9857">
        <ele>2080.6000976562</ele>
        <time>2024-09-13T08:15:44.000Z</time>
      </trkpt>
      <trkpt lat="44.42187" lon="6.9857">
        <ele>2080.8000488281</ele>
        <time>2024-09-13T08:15:45.000Z</time>
      </trkpt>
      <trkpt lat="44.42186" lon="6.9857">
        <ele>2081.1999511719</ele>
        <time>2024-09-13T08:15:46.000Z</time>
      </trkpt>
      <trkpt lat="44.42186" lon="6.9857">
        <ele>2081.3999023438</ele>
        <time>2024-09-13T08:15:47.000Z</time>
      </trkpt>
      <trkpt lat="44.42185" lon="6.9857">
        <ele>2081.3999023438</ele>
        <time>2024-09-13T08:15:48.000Z</time>
      </trkpt>
      <trkpt lat="44.42185" lon="6.98571">
        <ele>2081.8000488281</ele>
        <time>2024-09-13T08:15:49.000Z</time>
      </trkpt>
      <trkpt lat="44.42184" lon="6.98571">
        <ele>2082</ele>
        <time>2024-09-13T08:15:50.000Z</time>
      </trkpt>
      <trkpt lat="44.42183" lon="6.98571">
        <ele>2082.1999511719</ele>
        <time>2024-09-13T08:15:51.000Z</time>
      </trkpt>
      <trkpt lat="44.42182" lon="6.98572">
        <ele>2082.3999023438</ele>
        <time>2024-09-13T08:15:52.000Z</time>
      </trkpt>
      <trkpt lat="44.42182" lon="6.98572">
        <ele>2082.3999023438</ele>
        <time>2024-09-13T08:15:53.000Z</time>
      </trkpt>
      <trkpt lat="44.42181" lon="6.98572">
        <ele>2082.6000976562</ele>
        <time>2024-09-13T08:15:54.000Z</time>
      </trkpt>
      <trkpt lat="44.4218" lon="6.98573">
        <ele>2082.8000488281</ele>
        <time>2024-09-13T08:15:55.000Z</time>
      </trkpt>
      <trkpt lat="44.42179" lon="6.98573">
        <ele>2083</ele>
        <time>2024-09-13T08:15:56.000Z</time>
      </trkpt>
      <trkpt lat="44.42178" lon="6.98573">
        <ele>2083.3999023438</ele>
        <time>2024-09-13T08:15:57.000Z</time>
      </trkpt>
      <trkpt lat="44.42178" lon="6.98572">
        <ele>2083.6000976562</ele>
        <time>2024-09-13T08:15:58.000Z</time>
      </trkpt>
      <trkpt lat="44.42177" lon="6.98572">
        <ele>2084</ele>
        <time>2024-09-13T08:15:59.000Z</time>
      </trkpt>
      <trkpt lat="44.42177" lon="6.98571">
        <ele>2084</ele>
        <time>2024-09-13T08:16:00.000Z</time>
      </trkpt>
      <trkpt lat="44.42176" lon="6.98571">
        <ele>2084.3999023438</ele>
        <time>2024-09-13T08:16:01.000Z</time>
      </trkpt>
      <trkpt lat="44.42176" lon="6.98571">
        <ele>2084.3999023438</ele>
        <time>2024-09-13T08:16:02.000Z</time>
      </trkpt>
      <trkpt lat="44.42175" lon="6.98571">
        <ele>2084.6000976562</ele>
        <time>2024-09-13T08:16:03.000Z</time>
      </trkpt>
      <trkpt lat="44.42175" lon="6.98571">
        <ele>2084.6000976562</ele>
        <time>2024-09-13T08:16:04.000Z</time>
      </trkpt>
      <trkpt lat="44.42174" lon="6.98571">
        <ele>2085</ele>
        <time>2024-09-13T08:16:05.000Z</time>
      </trkpt>
      <trkpt lat="44.42174" lon="6.98572">
        <ele>2085.1999511719</ele>
        <time>2024-09-13T08:16:06.000Z</time>
      </trkpt>
      <trkpt lat="44.42173" lon="6.98572">
        <ele>2085.1999511719</ele>
        <time>2024-09-13T08:16:07.000Z</time>
      </trkpt>
      <trkpt lat="44.42172" lon="6.98573">
        <ele>2085.3999023438</ele>
        <time>2024-09-13T08:16:08.000Z</time>
      </trkpt>
      <trkpt lat="44.42172" lon="6.98573">
        <ele>2085.6000976562</ele>
        <time>2024-09-13T08:16:09.000Z</time>
      </trkpt>
      <trkpt lat="44.42171" lon="6.98574">
        <ele>2085.8000488281</ele>
        <time>2024-09-13T08:16:10.000Z</time>
      </trkpt>
      <trkpt lat="44.42171" lon="6.98575">
        <ele>2086</ele>
        <time>2024-09-13T08:16:11.000Z</time>
      </trkpt>
      <trkpt lat="44.42171" lon="6.98576">
        <ele>2086.1999511719</ele>
        <time>2024-09-13T08:16:12.000Z</time>
      </trkpt>
      <trkpt lat="44.42171" lon="6.98577">
        <ele>2086.3999023438</ele>
        <time>2024-09-13T08:16:13.000Z</time>
      </trkpt>
      <trkpt lat="44.42172" lon="6.98578">
        <ele>2086.3999023438</ele>
        <time>2024-09-13T08:16:14.000Z</time>
      </trkpt>
      <trkpt lat="44.42172" lon="6.98579">
        <ele>2086.8000488281</ele>
        <time>2024-09-13T08:16:15.000Z</time>
      </trkpt>
      <trkpt lat="44.42172" lon="6.9858">
        <ele>2087</ele>
        <time>2024-09-13T08:16:16.000Z</time>
      </trkpt>
      <trkpt lat="44.42172" lon="6.98581">
        <ele>2087.1999511719</ele>
        <time>2024-09-13T08:16:17.000Z</time>
      </trkpt>
      <trkpt lat="44.42172" lon="6.98581">
        <ele>2087.3999023438</ele>
        <time>2024-09-13T08:16:18.000Z</time>
      </trkpt>
      <trkpt lat="44.42172" lon="6.98582">
        <ele>2087.6000976562</ele>
        <time>2024-09-13T08:16:19.000Z</time>
      </trkpt>
      <trkpt lat="44.42172" lon="6.98582">
        <ele>2087.6000976562</ele>
        <time>2024-09-13T08:16:20.000Z</time>
      </trkpt>
      <trkpt lat="44.42172" lon="6.98583">
        <ele>2087.8000488281</ele>
        <time>2024-09-13T08:16:21.000Z</time>
      </trkpt>
      <trkpt lat="44.42171" lon="6.98584">
        <ele>2088.1999511719</ele>
        <time>2024-09-13T08:16:22.000Z</time>
      </trkpt>
      <trkpt lat="44.42171" lon="6.98585">
        <ele>2088.3999023438</ele>
        <time>2024-09-13T08:16:23.000Z</time>
      </trkpt>
      <trkpt lat="44.42171" lon="6.98585">
        <ele>2088.6000976562</ele>
        <time>2024-09-13T08:16:24.000Z</time>
      </trkpt>
      <trkpt lat="44.4217" lon="6.98586">
        <ele>2088.8000488281</ele>
        <time>2024-09-13T08:16:25.000Z</time>
      </trkpt>
      <trkpt lat="44.4217" lon="6.98587">
        <ele>2089</ele>
        <time>2024-09-13T08:16:26.000Z</time>
      </trkpt>
      <trkpt lat="44.42169" lon="6.98588">
        <ele>2089.3999023438</ele>
        <time>2024-09-13T08:16:27.000Z</time>
      </trkpt>
      <trkpt lat="44.42167" lon="6.98589">
        <ele>2089.6000976562</ele>
        <time>2024-09-13T08:16:28.000Z</time>
      </trkpt>
      <trkpt lat="44.42167" lon="6.98589">
        <ele>2090</ele>
        <time>2024-09-13T08:16:29.000Z</time>
      </trkpt>
      <trkpt lat="44.42166" lon="6.9859">
        <ele>2090.1999511719</ele>
        <time>2024-09-13T08:16:30.000Z</time>
      </trkpt>
      <trkpt lat="44.42165" lon="6.9859">
        <ele>2090.1999511719</ele>
        <time>2024-09-13T08:16:31.000Z</time>
      </trkpt>
      <trkpt lat="44.42165" lon="6.9859">
        <ele>2090.6000976562</ele>
        <time>2024-09-13T08:16:32.000Z</time>
      </trkpt>
      <trkpt lat="44.42164" lon="6.9859">
        <ele>2090.6000976562</ele>
        <time>2024-09-13T08:16:33.000Z</time>
      </trkpt>
      <trkpt lat="44.42164" lon="6.98591">
        <ele>2090.8000488281</ele>
        <time>2024-09-13T08:16:34.000Z</time>
      </trkpt>
      <trkpt lat="44.42163" lon="6.98591">
        <ele>2091</ele>
        <time>2024-09-13T08:16:35.000Z</time>
      </trkpt>
      <trkpt lat="44.42163" lon="6.98592">
        <ele>2091.1999511719</ele>
        <time>2024-09-13T08:16:36.000Z</time>
      </trkpt>
      <trkpt lat="44.42162" lon="6.98592">
        <ele>2091.3999023438</ele>
        <time>2024-09-13T08:16:37.000Z</time>
      </trkpt>
      <trkpt lat="44.42161" lon="6.98592">
        <ele>2091.6000976562</ele>
        <time>2024-09-13T08:16:38.000Z</time>
      </trkpt>
      <trkpt lat="44.4216" lon="6.98593">
        <ele>2091.8000488281</ele>
        <time>2024-09-13T08:16:39.000Z</time>
      </trkpt>
      <trkpt lat="44.42159" lon="6.98593">
        <ele>2092</ele>
        <time>2024-09-13T08:16:40.000Z</time>
      </trkpt>
      <trkpt lat="44.42158" lon="6.98593">
        <ele>2092.1999511719</ele>
        <time>2024-09-13T08:16:41.000Z</time>
      </trkpt>
      <trkpt lat="44.42157" lon="6.98593">
        <ele>2092.3999023438</ele>
        <time>2024-09-13T08:16:42.000Z</time>
      </trkpt>
      <trkpt lat="44.42157" lon="6.98593">
        <ele>2092.6000976562</ele>
        <time>2024-09-13T08:16:43.000Z</time>
      </trkpt>
      <trkpt lat="44.42156" lon="6.98593">
        <ele>2092.8000488281</ele>
        <time>2024-09-13T08:16:44.000Z</time>
      </trkpt>
      <trkpt lat="44.42156" lon="6.98593">
        <ele>2093.1999511719</ele>
        <time>2024-09-13T08:16:45.000Z</time>
      </trkpt>
      <trkpt lat="44.42155" lon="6.98593">
        <ele>2093.3999023438</ele>
        <time>2024-09-13T08:16:46.000Z</time>
      </trkpt>
      <trkpt lat="44.42154" lon="6.98593">
        <ele>2093.3999023438</ele>
        <time>2024-09-13T08:16:47.000Z</time>
      </trkpt>
      <trkpt lat="44.42154" lon="6.98594">
        <ele>2093.6000976562</ele>
        <time>2024-09-13T08:16:48.000Z</time>
      </trkpt>
      <trkpt lat="44.42154" lon="6.98594">
        <ele>2093.6000976562</ele>
        <time>2024-09-13T08:16:49.000Z</time>
      </trkpt>
      <trkpt lat="44.42154" lon="6.98594">
        <ele>2093.8000488281</ele>
        <time>2024-09-13T08:16:50.000Z</time>
      </trkpt>
      <trkpt lat="44.42153" lon="6.98595">
        <ele>2094.1999511719</ele>
        <time>2024-09-13T08:16:51.000Z</time>
      </trkpt>
      <trkpt lat="44.42153" lon="6.98595">
        <ele>2094.3999023438</ele>
        <time>2024-09-13T08:16:52.000Z</time>
      </trkpt>
      <trkpt lat="44.42152" lon="6.98595">
        <ele>2094.6000976562</ele>
        <time>2024-09-13T08:16:53.000Z</time>
      </trkpt>
      <trkpt lat="44.42152" lon="6.98596">
        <ele>2094.8000488281</ele>
        <time>2024-09-13T08:16:54.000Z</time>
      </trkpt>
      <trkpt lat="44.42151" lon="6.98596">
        <ele>2095</ele>
        <time>2024-09-13T08:16:55.000Z</time>
      </trkpt>
      <trkpt lat="44.4215" lon="6.98597">
        <ele>2095.1999511719</ele>
        <time>2024-09-13T08:16:56.000Z</time>
      </trkpt>
      <trkpt lat="44.4215" lon="6.98598">
        <ele>2095.1999511719</ele>
        <time>2024-09-13T08:16:57.000Z</time>
      </trkpt>
      <trkpt lat="44.4215" lon="6.98598">
        <ele>2095.6000976562</ele>
        <time>2024-09-13T08:16:58.000Z</time>
      </trkpt>
      <trkpt lat="44.42149" lon="6.98599">
        <ele>2095.8000488281</ele>
        <time>2024-09-13T08:16:59.000Z</time>
      </trkpt>
      <trkpt lat="44.42148" lon="6.986">
        <ele>2096.1999511719</ele>
        <time>2024-09-13T08:17:00.000Z</time>
      </trkpt>
      <trkpt lat="44.42148" lon="6.986">
        <ele>2096.1999511719</ele>
        <time>2024-09-13T08:17:01.000Z</time>
      </trkpt>
      <trkpt lat="44.42147" lon="6.98601">
        <ele>2096.3999023438</ele>
        <time>2024-09-13T08:17:02.000Z</time>
      </trkpt>
      <trkpt lat="44.42147" lon="6.98601">
        <ele>2096.6000976562</ele>
        <time>2024-09-13T08:17:03.000Z</time>
      </trkpt>
      <trkpt lat="44.42146" lon="6.98601">
        <ele>2096.8000488281</ele>
        <time>2024-09-13T08:17:04.000Z</time>
      </trkpt>
      <trkpt lat="44.42146" lon="6.98602">
        <ele>2097</ele>
        <time>2024-09-13T08:17:05.000Z</time>
      </trkpt>
      <trkpt lat="44.42145" lon="6.98602">
        <ele>2097.1999511719</ele>
        <time>2024-09-13T08:17:06.000Z</time>
      </trkpt>
      <trkpt lat="44.42145" lon="6.98603">
        <ele>2097.3999023438</ele>
        <time>2024-09-13T08:17:07.000Z</time>
      </trkpt>
      <trkpt lat="44.42144" lon="6.98603">
        <ele>2097.6000976562</ele>
        <time>2024-09-13T08:17:08.000Z</time>
      </trkpt>
      <trkpt lat="44.42144" lon="6.98603">
        <ele>2097.8000488281</ele>
        <time>2024-09-13T08:17:09.000Z</time>
      </trkpt>
      <trkpt lat="44.42143" lon="6.98603">
        <ele>2098.1999511719</ele>
        <time>2024-09-13T08:17:10.000Z</time>
      </trkpt>
      <trkpt lat="44.42142" lon="6.98604">
        <ele>2098.3999023438</ele>
        <time>2024-09-13T08:17:11.000Z</time>
      </trkpt>
      <trkpt lat="44.42142" lon="6.98604">
        <ele>2098.6000976562</ele>
        <time>2024-09-13T08:17:12.000Z</time>
      </trkpt>
      <trkpt lat="44.42141" lon="6.98604">
        <ele>2098.6000976562</ele>
        <time>2024-09-13T08:17:13.000Z</time>
      </trkpt>
      <trkpt lat="44.4214" lon="6.98604">
        <ele>2098.8000488281</ele>
        <time>2024-09-13T08:17:14.000Z</time>
      </trkpt>
      <trkpt lat="44.4214" lon="6.98604">
        <ele>2099</ele>
        <time>2024-09-13T08:17:15.000Z</time>
      </trkpt>
      <trkpt lat="44.42139" lon="6.98604">
        <ele>2099.1999511719</ele>
        <time>2024-09-13T08:17:16.000Z</time>
      </trkpt>
      <trkpt lat="44.42138" lon="6.98603">
        <ele>2099.3999023438</ele>
        <time>2024-09-13T08:17:17.000Z</time>
      </trkpt>
      <trkpt lat="44.42138" lon="6.98602">
        <ele>2099.6000976562</ele>
        <time>2024-09-13T08:17:18.000Z</time>
      </trkpt>
      <trkpt lat="44.42137" lon="6.98601">
        <ele>2100</ele>
        <time>2024-09-13T08:17:19.000Z</time>
      </trkpt>
      <trkpt lat="44.42137" lon="6.986">
        <ele>2100.1999511719</ele>
        <time>2024-09-13T08:17:20.000Z</time>
      </trkpt>
      <trkpt lat="44.42136" lon="6.98599">
        <ele>2100.1999511719</ele>
        <time>2024-09-13T08:17:21.000Z</time>
      </trkpt>
      <trkpt lat="44.42136" lon="6.98599">
        <ele>2100.3999023438</ele>
        <time>2024-09-13T08:17:22.000Z</time>
      </trkpt>
      <trkpt lat="44.42135" lon="6.98598">
        <ele>2100.6000976562</ele>
        <time>2024-09-13T08:17:23.000Z</time>
      </trkpt>
      <trkpt lat="44.42134" lon="6.98597">
        <ele>2101</ele>
        <time>2024-09-13T08:17:24.000Z</time>
      </trkpt>
      <trkpt lat="44.42134" lon="6.98596">
        <ele>2101</ele>
        <time>2024-09-13T08:17:25.000Z</time>
      </trkpt>
      <trkpt lat="44.42133" lon="6.98594">
        <ele>2101.3999023438</ele>
        <time>2024-09-13T08:17:26.000Z</time>
      </trkpt>
      <trkpt lat="44.42133" lon="6.98593">
        <ele>2101.3999023438</ele>
        <time>2024-09-13T08:17:27.000Z</time>
      </trkpt>
      <trkpt lat="44.42134" lon="6.98591">
        <ele>2101.3999023438</ele>
        <time>2024-09-13T08:17:28.000Z</time>
      </trkpt>
      <trkpt lat="44.42134" lon="6.9859">
        <ele>2101.8000488281</ele>
        <time>2024-09-13T08:17:29.000Z</time>
      </trkpt>
      <trkpt lat="44.42133" lon="6.98589">
        <ele>2102</ele>
        <time>2024-09-13T08:17:30.000Z</time>
      </trkpt>
      <trkpt lat="44.42133" lon="6.98589">
        <ele>2102.1999511719</ele>
        <time>2024-09-13T08:17:31.000Z</time>
      </trkpt>
      <trkpt lat="44.42133" lon="6.98588">
        <ele>2102.3999023438</ele>
        <time>2024-09-13T08:17:32.000Z</time>
      </trkpt>
      <trkpt lat="44.42133" lon="6.98588">
        <ele>2102.6000976562</ele>
        <time>2024-09-13T08:17:33.000Z</time>
      </trkpt>
      <trkpt lat="44.42132" lon="6.98589">
        <ele>2102.8000488281</ele>
        <time>2024-09-13T08:17:34.000Z</time>
      </trkpt>
      <trkpt lat="44.42132" lon="6.98589">
        <ele>2103</ele>
        <time>2024-09-13T08:17:35.000Z</time>
      </trkpt>
      <trkpt lat="44.42131" lon="6.9859">
        <ele>2103.1999511719</ele>
        <time>2024-09-13T08:17:36.000Z</time>
      </trkpt>
      <trkpt lat="44.42131" lon="6.9859">
        <ele>2103.1999511719</ele>
        <time>2024-09-13T08:17:37.000Z</time>
      </trkpt>
      <trkpt lat="44.42131" lon="6.98591">
        <ele>2103.3999023438</ele>
        <time>2024-09-13T08:17:38.000Z</time>
      </trkpt>
      <trkpt lat="44.4213" lon="6.98593">
        <ele>2103.6000976562</ele>
        <time>2024-09-13T08:17:39.000Z</time>
      </trkpt>
      <trkpt lat="44.4213" lon="6.98594">
        <ele>2103.8000488281</ele>
        <time>2024-09-13T08:17:40.000Z</time>
      </trkpt>
      <trkpt lat="44.4213" lon="6.98595">
        <ele>2104</ele>
        <time>2024-09-13T08:17:41.000Z</time>
      </trkpt>
      <trkpt lat="44.4213" lon="6.98596">
        <ele>2104.1999511719</ele>
        <time>2024-09-13T08:17:42.000Z</time>
      </trkpt>
      <trkpt lat="44.42129" lon="6.98597">
        <ele>2104.3999023438</ele>
        <time>2024-09-13T08:17:43.000Z</time>
      </trkpt>
      <trkpt lat="44.42129" lon="6.98598">
        <ele>2104.6000976562</ele>
        <time>2024-09-13T08:17:44.000Z</time>
      </trkpt>
      <trkpt lat="44.42129" lon="6.98599">
        <ele>2104.8000488281</ele>
        <time>2024-09-13T08:17:45.000Z</time>
      </trkpt>
      <trkpt lat="44.42128" lon="6.986">
        <ele>2105</ele>
        <time>2024-09-13T08:17:46.000Z</time>
      </trkpt>
      <trkpt lat="44.42127" lon="6.98601">
        <ele>2105.1999511719</ele>
        <time>2024-09-13T08:17:47.000Z</time>
      </trkpt>
      <trkpt lat="44.42127" lon="6.98603">
        <ele>2105.3999023438</ele>
        <time>2024-09-13T08:17:48.000Z</time>
      </trkpt>
      <trkpt lat="44.42126" lon="6.98604">
        <ele>2105.6000976562</ele>
        <time>2024-09-13T08:17:49.000Z</time>
      </trkpt>
      <trkpt lat="44.42126" lon="6.98605">
        <ele>2105.6000976562</ele>
        <time>2024-09-13T08:17:50.000Z</time>
      </trkpt>
      <trkpt lat="44.42125" lon="6.98606">
        <ele>2105.8000488281</ele>
        <time>2024-09-13T08:17:51.000Z</time>
      </trkpt>
      <trkpt lat="44.42125" lon="6.98607">
        <ele>2106</ele>
        <time>2024-09-13T08:17:52.000Z</time>
      </trkpt>
      <trkpt lat="44.42125" lon="6.98608">
        <ele>2106</ele>
        <time>2024-09-13T08:17:53.000Z</time>
      </trkpt>
      <trkpt lat="44.42124" lon="6.98608">
        <ele>2106.1999511719</ele>
        <time>2024-09-13T08:17:54.000Z</time>
      </trkpt>
      <trkpt lat="44.42123" lon="6.98609">
        <ele>2106.3999023438</ele>
        <time>2024-09-13T08:17:55.000Z</time>
      </trkpt>
      <trkpt lat="44.42122" lon="6.98609">
        <ele>2106.6000976562</ele>
        <time>2024-09-13T08:17:56.000Z</time>
      </trkpt>
      <trkpt lat="44.42122" lon="6.98609">
        <ele>2106.8000488281</ele>
        <time>2024-09-13T08:17:57.000Z</time>
      </trkpt>
      <trkpt lat="44.42121" lon="6.9861">
        <ele>2107</ele>
        <time>2024-09-13T08:17:58.000Z</time>
      </trkpt>
      <trkpt lat="44.42121" lon="6.98611">
        <ele>2107.1999511719</ele>
        <time>2024-09-13T08:17:59.000Z</time>
      </trkpt>
      <trkpt lat="44.42121" lon="6.98613">
        <ele>2107.1999511719</ele>
        <time>2024-09-13T08:18:00.000Z</time>
      </trkpt>
      <trkpt lat="44.42121" lon="6.98614">
        <ele>2107.3999023438</ele>
        <time>2024-09-13T08:18:01.000Z</time>
      </trkpt>
      <trkpt lat="44.42121" lon="6.98614">
        <ele>2107.6000976562</ele>
        <time>2024-09-13T08:18:02.000Z</time>
      </trkpt>
      <trkpt lat="44.4212" lon="6.98615">
        <ele>2108</ele>
        <time>2024-09-13T08:18:03.000Z</time>
      </trkpt>
      <trkpt lat="44.4212" lon="6.98615">
        <ele>2108.1999511719</ele>
        <time>2024-09-13T08:18:04.000Z</time>
      </trkpt>
      <trkpt lat="44.42119" lon="6.98615">
        <ele>2108.3999023438</ele>
        <time>2024-09-13T08:18:05.000Z</time>
      </trkpt>
      <trkpt lat="44.42119" lon="6.98616">
        <ele>2108.3999023438</ele>
        <time>2024-09-13T08:18:06.000Z</time>
      </trkpt>
      <trkpt lat="44.42118" lon="6.98617">
        <ele>2108.8000488281</ele>
        <time>2024-09-13T08:18:07.000Z</time>
      </trkpt>
      <trkpt lat="44.42118" lon="6.98618">
        <ele>2108.8000488281</ele>
        <time>2024-09-13T08:18:08.000Z</time>
      </trkpt>
      <trkpt lat="44.42117" lon="6.98619">
        <ele>2108.8000488281</ele>
        <time>2024-09-13T08:18:09.000Z</time>
      </trkpt>
      <trkpt lat="44.42116" lon="6.98619">
        <ele>2109</ele>
        <time>2024-09-13T08:18:10.000Z</time>
      </trkpt>
      <trkpt lat="44.42115" lon="6.9862">
        <ele>2109.3999023438</ele>
        <time>2024-09-13T08:18:11.000Z</time>
      </trkpt>
      <trkpt lat="44.42114" lon="6.98621">
        <ele>2109.6000976562</ele>
        <time>2024-09-13T08:18:12.000Z</time>
      </trkpt>
      <trkpt lat="44.42113" lon="6.98622">
        <ele>2109.6000976562</ele>
        <time>2024-09-13T08:18:13.000Z</time>
      </trkpt>
      <trkpt lat="44.42113" lon="6.98623">
        <ele>2109.8000488281</ele>
        <time>2024-09-13T08:18:14.000Z</time>
      </trkpt>
      <trkpt lat="44.42112" lon="6.98624">
        <ele>2110</ele>
        <time>2024-09-13T08:18:15.000Z</time>
      </trkpt>
      <trkpt lat="44.42111" lon="6.98625">
        <ele>2110</ele>
        <time>2024-09-13T08:18:16.000Z</time>
      </trkpt>
      <trkpt lat="44.42111" lon="6.98625">
        <ele>2110.6000976562</ele>
        <time>2024-09-13T08:18:17.000Z</time>
      </trkpt>
      <trkpt lat="44.4211" lon="6.98626">
        <ele>2110.8000488281</ele>
        <time>2024-09-13T08:18:18.000Z</time>
      </trkpt>
      <trkpt lat="44.42109" lon="6.98626">
        <ele>2110.8000488281</ele>
        <time>2024-09-13T08:18:19.000Z</time>
      </trkpt>
      <trkpt lat="44.42109" lon="6.98626">
        <ele>2111</ele>
        <time>2024-09-13T08:18:20.000Z</time>
      </trkpt>
      <trkpt lat="44.42108" lon="6.98625">
        <ele>2111.1999511719</ele>
        <time>2024-09-13T08:18:21.000Z</time>
      </trkpt>
      <trkpt lat="44.42108" lon="6.98623">
        <ele>2111.3999023438</ele>
        <time>2024-09-13T08:18:22.000Z</time>
      </trkpt>
      <trkpt lat="44.42108" lon="6.98622">
        <ele>2111.6000976562</ele>
        <time>2024-09-13T08:18:23.000Z</time>
      </trkpt>
      <trkpt lat="44.42107" lon="6.9862">
        <ele>2111.8000488281</ele>
        <time>2024-09-13T08:18:24.000Z</time>
      </trkpt>
      <trkpt lat="44.42107" lon="6.98619">
        <ele>2112</ele>
        <time>2024-09-13T08:18:25.000Z</time>
      </trkpt>
      <trkpt lat="44.42106" lon="6.98617">
        <ele>2112.1999511719</ele>
        <time>2024-09-13T08:18:26.000Z</time>
      </trkpt>
      <trkpt lat="44.42106" lon="6.98616">
        <ele>2112.3999023438</ele>
        <time>2024-09-13T08:18:27.000Z</time>
      </trkpt>
      <trkpt lat="44.42106" lon="6.98616">
        <ele>2112.6000976562</ele>
        <time>2024-09-13T08:18:28.000Z</time>
      </trkpt>
      <trkpt lat="44.42105" lon="6.98616">
        <ele>2112.8000488281</ele>
        <time>2024-09-13T08:18:29.000Z</time>
      </trkpt>
      <trkpt lat="44.42105" lon="6.98616">
        <ele>2112.8000488281</ele>
        <time>2024-09-13T08:18:30.000Z</time>
      </trkpt>
      <trkpt lat="44.42104" lon="6.98617">
        <ele>2113</ele>
        <time>2024-09-13T08:18:31.000Z</time>
      </trkpt>
      <trkpt lat="44.42104" lon="6.98617">
        <ele>2113.3999023438</ele>
        <time>2024-09-13T08:18:32.000Z</time>
      </trkpt>
      <trkpt lat="44.42104" lon="6.98618">
        <ele>2113.6000976562</ele>
        <time>2024-09-13T08:18:33.000Z</time>
      </trkpt>
      <trkpt lat="44.42103" lon="6.98619">
        <ele>2113.8000488281</ele>
        <time>2024-09-13T08:18:34.000Z</time>
      </trkpt>
      <trkpt lat="44.42103" lon="6.9862">
        <ele>2114</ele>
        <time>2024-09-13T08:18:35.000Z</time>
      </trkpt>
      <trkpt lat="44.42102" lon="6.9862">
        <ele>2114.3999023438</ele>
        <time>2024-09-13T08:18:36.000Z</time>
      </trkpt>
      <trkpt lat="44.42102" lon="6.98621">
        <ele>2114.6000976562</ele>
        <time>2024-09-13T08:18:37.000Z</time>
      </trkpt>
      <trkpt lat="44.42101" lon="6.98622">
        <ele>2114.6000976562</ele>
        <time>2024-09-13T08:18:38.000Z</time>
      </trkpt>
      <trkpt lat="44.42101" lon="6.98622">
        <ele>2115</ele>
        <time>2024-09-13T08:18:39.000Z</time>
      </trkpt>
      <trkpt lat="44.421" lon="6.98623">
        <ele>2115.1999511719</ele>
        <time>2024-09-13T08:18:40.000Z</time>
      </trkpt>
      <trkpt lat="44.42099" lon="6.98624">
        <ele>2115.3999023438</ele>
        <time>2024-09-13T08:18:41.000Z</time>
      </trkpt>
      <trkpt lat="44.42098" lon="6.98625">
        <ele>2115.6000976562</ele>
        <time>2024-09-13T08:18:42.000Z</time>
      </trkpt>
      <trkpt lat="44.42097" lon="6.98625">
        <ele>2116</ele>
        <time>2024-09-13T08:18:43.000Z</time>
      </trkpt>
      <trkpt lat="44.42097" lon="6.98625">
        <ele>2116.1999511719</ele>
        <time>2024-09-13T08:18:44.000Z</time>
      </trkpt>
      <trkpt lat="44.42096" lon="6.98626">
        <ele>2116.1999511719</ele>
        <time>2024-09-13T08:18:45.000Z</time>
      </trkpt>
      <trkpt lat="44.42096" lon="6.98625">
        <ele>2116.3999023438</ele>
        <time>2024-09-13T08:18:46.000Z</time>
      </trkpt>
      <trkpt lat="44.42095" lon="6.98626">
        <ele>2116.3999023438</ele>
        <time>2024-09-13T08:18:47.000Z</time>
      </trkpt>
      <trkpt lat="44.42095" lon="6.98626">
        <ele>2116.8000488281</ele>
        <time>2024-09-13T08:18:48.000Z</time>
      </trkpt>
      <trkpt lat="44.42095" lon="6.98625">
        <ele>2117</ele>
        <time>2024-09-13T08:18:49.000Z</time>
      </trkpt>
      <trkpt lat="44.42094" lon="6.98625">
        <ele>2117.3999023438</ele>
        <time>2024-09-13T08:18:50.000Z</time>
      </trkpt>
      <trkpt lat="44.42094" lon="6.98625">
        <ele>2117.8000488281</ele>
        <time>2024-09-13T08:18:51.000Z</time>
      </trkpt>
      <trkpt lat="44.42093" lon="6.98624">
        <ele>2118</ele>
        <time>2024-09-13T08:18:52.000Z</time>
      </trkpt>
      <trkpt lat="44.42093" lon="6.98625">
        <ele>2118.3999023438</ele>
        <time>2024-09-13T08:18:53.000Z</time>
      </trkpt>
      <trkpt lat="44.42093" lon="6.98625">
        <ele>2118.8000488281</ele>
        <time>2024-09-13T08:18:54.000Z</time>
      </trkpt>
      <trkpt lat="44.42092" lon="6.98625">
        <ele>2118.8000488281</ele>
        <time>2024-09-13T08:18:55.000Z</time>
      </trkpt>
      <trkpt lat="44.42092" lon="6.98626">
        <ele>2119.1999511719</ele>
        <time>2024-09-13T08:18:56.000Z</time>
      </trkpt>
      <trkpt lat="44.42091" lon="6.98626">
        <ele>2119.6000976562</ele>
        <time>2024-09-13T08:18:57.000Z</time>
      </trkpt>
      <trkpt lat="44.4209" lon="6.98627">
        <ele>2119.8000488281</ele>
        <time>2024-09-13T08:18:58.000Z</time>
      </trkpt>
      <trkpt lat="44.4209" lon="6.98628">
        <ele>2120</ele>
        <time>2024-09-13T08:18:59.000Z</time>
      </trkpt>
      <trkpt lat="44.4209" lon="6.98628">
        <ele>2120.1999511719</ele>
        <time>2024-09-13T08:19:00.000Z</time>
      </trkpt>
      <trkpt lat="44.42089" lon="6.98629">
        <ele>2120.6000976562</ele>
        <time>2024-09-13T08:19:01.000Z</time>
      </trkpt>
      <trkpt lat="44.42088" lon="6.9863">
        <ele>2120.6000976562</ele>
        <time>2024-09-13T08:19:02.000Z</time>
      </trkpt>
      <trkpt lat="44.42088" lon="6.98631">
        <ele>2120.6000976562</ele>
        <time>2024-09-13T08:19:03.000Z</time>
      </trkpt>
      <trkpt lat="44.42087" lon="6.98631">
        <ele>2121</ele>
        <time>2024-09-13T08:19:04.000Z</time>
      </trkpt>
      <trkpt lat="44.42087" lon="6.98632">
        <ele>2121</ele>
        <time>2024-09-13T08:19:05.000Z</time>
      </trkpt>
      <trkpt lat="44.42086" lon="6.98632">
        <ele>2121</ele>
        <time>2024-09-13T08:19:06.000Z</time>
      </trkpt>
      <trkpt lat="44.42086" lon="6.98633">
        <ele>2121</ele>
        <time>2024-09-13T08:19:07.000Z</time>
      </trkpt>
      <trkpt lat="44.42086" lon="6.98634">
        <ele>2121.1999511719</ele>
        <time>2024-09-13T08:19:08.000Z</time>
      </trkpt>
      <trkpt lat="44.42085" lon="6.98635">
        <ele>2121.3999023438</ele>
        <time>2024-09-13T08:19:09.000Z</time>
      </trkpt>
      <trkpt lat="44.42085" lon="6.98636">
        <ele>2121.3999023438</ele>
        <time>2024-09-13T08:19:10.000Z</time>
      </trkpt>
      <trkpt lat="44.42084" lon="6.98637">
        <ele>2121.6000976562</ele>
        <time>2024-09-13T08:19:11.000Z</time>
      </trkpt>
      <trkpt lat="44.42084" lon="6.98638">
        <ele>2121.6000976562</ele>
        <time>2024-09-13T08:19:12.000Z</time>
      </trkpt>
      <trkpt lat="44.42083" lon="6.98639">
        <ele>2121.6000976562</ele>
        <time>2024-09-13T08:19:13.000Z</time>
      </trkpt>
      <trkpt lat="44.42082" lon="6.9864">
        <ele>2121.8000488281</ele>
        <time>2024-09-13T08:19:14.000Z</time>
      </trkpt>
      <trkpt lat="44.42082" lon="6.98641">
        <ele>2121.8000488281</ele>
        <time>2024-09-13T08:19:15.000Z</time>
      </trkpt>
      <trkpt lat="44.42081" lon="6.98642">
        <ele>2122</ele>
        <time>2024-09-13T08:19:16.000Z</time>
      </trkpt>
      <trkpt lat="44.42081" lon="6.98642">
        <ele>2122.1999511719</ele>
        <time>2024-09-13T08:19:17.000Z</time>
      </trkpt>
      <trkpt lat="44.4208" lon="6.98642">
        <ele>2122.3999023438</ele>
        <time>2024-09-13T08:19:18.000Z</time>
      </trkpt>
      <trkpt lat="44.42079" lon="6.98643">
        <ele>2122.6000976562</ele>
        <time>2024-09-13T08:19:19.000Z</time>
      </trkpt>
      <trkpt lat="44.42079" lon="6.98643">
        <ele>2122.8000488281</ele>
        <time>2024-09-13T08:19:20.000Z</time>
      </trkpt>
      <trkpt lat="44.42078" lon="6.98643">
        <ele>2123</ele>
        <time>2024-09-13T08:19:21.000Z</time>
      </trkpt>
      <trkpt lat="44.42078" lon="6.98643">
        <ele>2123.1999511719</ele>
        <time>2024-09-13T08:19:22.000Z</time>
      </trkpt>
      <trkpt lat="44.42078" lon="6.98644">
        <ele>2123.3999023438</ele>
        <time>2024-09-13T08:19:23.000Z</time>
      </trkpt>
      <trkpt lat="44.42078" lon="6.98644">
        <ele>2123.8000488281</ele>
        <time>2024-09-13T08:19:24.000Z</time>
      </trkpt>
      <trkpt lat="44.42077" lon="6.98645">
        <ele>2124.1999511719</ele>
        <time>2024-09-13T08:19:25.000Z</time>
      </trkpt>
      <trkpt lat="44.42077" lon="6.98646">
        <ele>2124.3999023438</ele>
        <time>2024-09-13T08:19:26.000Z</time>
      </trkpt>
      <trkpt lat="44.42078" lon="6.98646">
        <ele>2124.6000976562</ele>
        <time>2024-09-13T08:19:27.000Z</time>
      </trkpt>
      <trkpt lat="44.42078" lon="6.98647">
        <ele>2124.8000488281</ele>
        <time>2024-09-13T08:19:28.000Z</time>
      </trkpt>
      <trkpt lat="44.42077" lon="6.98649">
        <ele>2125.1999511719</ele>
        <time>2024-09-13T08:19:29.000Z</time>
      </trkpt>
      <trkpt lat="44.42077" lon="6.9865">
        <ele>2125.6000976562</ele>
        <time>2024-09-13T08:19:30.000Z</time>
      </trkpt>
      <trkpt lat="44.42077" lon="6.9865">
        <ele>2126</ele>
        <time>2024-09-13T08:19:31.000Z</time>
      </trkpt>
      <trkpt lat="44.42077" lon="6.98651">
        <ele>2126</ele>
        <time>2024-09-13T08:19:32.000Z</time>
      </trkpt>
      <trkpt lat="44.42076" lon="6.98652">
        <ele>2126.1999511719</ele>
        <time>2024-09-13T08:19:33.000Z</time>
      </trkpt>
      <trkpt lat="44.42076" lon="6.98654">
        <ele>2126.1999511719</ele>
        <time>2024-09-13T08:19:34.000Z</time>
      </trkpt>
      <trkpt lat="44.42076" lon="6.98655">
        <ele>2126.3999023438</ele>
        <time>2024-09-13T08:19:35.000Z</time>
      </trkpt>
      <trkpt lat="44.42076" lon="6.98656">
        <ele>2126.6000976562</ele>
        <time>2024-09-13T08:19:36.000Z</time>
      </trkpt>
      <trkpt lat="44.42075" lon="6.98658">
        <ele>2126.6000976562</ele>
        <time>2024-09-13T08:19:37.000Z</time>
      </trkpt>
      <trkpt lat="44.42075" lon="6.98659">
        <ele>2126.8000488281</ele>
        <time>2024-09-13T08:19:38.000Z</time>
      </trkpt>
      <trkpt lat="44.42075" lon="6.9866">
        <ele>2127.1999511719</ele>
        <time>2024-09-13T08:19:39.000Z</time>
      </trkpt>
      <trkpt lat="44.42074" lon="6.98662">
        <ele>2127.1999511719</ele>
        <time>2024-09-13T08:19:40.000Z</time>
      </trkpt>
      <trkpt lat="44.42074" lon="6.98662">
        <ele>2127.3999023438</ele>
        <time>2024-09-13T08:19:41.000Z</time>
      </trkpt>
      <trkpt lat="44.42073" lon="6.98663">
        <ele>2127.6000976562</ele>
        <time>2024-09-13T08:19:42.000Z</time>
      </trkpt>
      <trkpt lat="44.42073" lon="6.98665">
        <ele>2128</ele>
        <time>2024-09-13T08:19:43.000Z</time>
      </trkpt>
      <trkpt lat="44.42072" lon="6.98665">
        <ele>2128</ele>
        <time>2024-09-13T08:19:44.000Z</time>
      </trkpt>
      <trkpt lat="44.42072" lon="6.98665">
        <ele>2128.1999511719</ele>
        <time>2024-09-13T08:19:45.000Z</time>
      </trkpt>
      <trkpt lat="44.42071" lon="6.98666">
        <ele>2128.3999023438</ele>
        <time>2024-09-13T08:19:46.000Z</time>
      </trkpt>
      <trkpt lat="44.42071" lon="6.98666">
        <ele>2128.3999023438</ele>
        <time>2024-09-13T08:19:47.000Z</time>
      </trkpt>
      <trkpt lat="44.4207" lon="6.98666">
        <ele>2128.8000488281</ele>
        <time>2024-09-13T08:19:48.000Z</time>
      </trkpt>
      <trkpt lat="44.4207" lon="6.98667">
        <ele>2129</ele>
        <time>2024-09-13T08:19:49.000Z</time>
      </trkpt>
      <trkpt lat="44.42069" lon="6.98667">
        <ele>2129.1999511719</ele>
        <time>2024-09-13T08:19:50.000Z</time>
      </trkpt>
      <trkpt lat="44.42068" lon="6.98668">
        <ele>2129.3999023438</ele>
        <time>2024-09-13T08:19:51.000Z</time>
      </trkpt>
      <trkpt lat="44.42068" lon="6.98669">
        <ele>2129.6000976562</ele>
        <time>2024-09-13T08:19:52.000Z</time>
      </trkpt>
      <trkpt lat="44.42067" lon="6.98669">
        <ele>2130</ele>
        <time>2024-09-13T08:19:53.000Z</time>
      </trkpt>
      <trkpt lat="44.42065" lon="6.9867">
        <ele>2130</ele>
        <time>2024-09-13T08:19:54.000Z</time>
      </trkpt>
      <trkpt lat="44.42064" lon="6.98671">
        <ele>2130.6000976562</ele>
        <time>2024-09-13T08:19:55.000Z</time>
      </trkpt>
      <trkpt lat="44.42063" lon="6.98671">
        <ele>2130.8000488281</ele>
        <time>2024-09-13T08:19:56.000Z</time>
      </trkpt>
      <trkpt lat="44.42062" lon="6.98671">
        <ele>2131.1999511719</ele>
        <time>2024-09-13T08:19:57.000Z</time>
      </trkpt>
      <trkpt lat="44.42061" lon="6.98671">
        <ele>2131.1999511719</ele>
        <time>2024-09-13T08:19:58.000Z</time>
      </trkpt>
      <trkpt lat="44.4206" lon="6.98671">
        <ele>2131.6000976562</ele>
        <time>2024-09-13T08:19:59.000Z</time>
      </trkpt>
      <trkpt lat="44.42059" lon="6.9867">
        <ele>2132.1999511719</ele>
        <time>2024-09-13T08:20:00.000Z</time>
      </trkpt>
      <trkpt lat="44.42059" lon="6.98668">
        <ele>2132.6000976562</ele>
        <time>2024-09-13T08:20:01.000Z</time>
      </trkpt>
      <trkpt lat="44.42058" lon="6.98667">
        <ele>2132.8000488281</ele>
        <time>2024-09-13T08:20:02.000Z</time>
      </trkpt>
      <trkpt lat="44.42058" lon="6.98665">
        <ele>2133.1999511719</ele>
        <time>2024-09-13T08:20:03.000Z</time>
      </trkpt>
      <trkpt lat="44.42058" lon="6.98664">
        <ele>2133.6000976562</ele>
        <time>2024-09-13T08:20:04.000Z</time>
      </trkpt>
      <trkpt lat="44.42058" lon="6.98662">
        <ele>2134</ele>
        <time>2024-09-13T08:20:05.000Z</time>
      </trkpt>
      <trkpt lat="44.42057" lon="6.98661">
        <ele>2134.3999023438</ele>
        <time>2024-09-13T08:20:06.000Z</time>
      </trkpt>
      <trkpt lat="44.42057" lon="6.9866">
        <ele>2135.1999511719</ele>
        <time>2024-09-13T08:20:07.000Z</time>
      </trkpt>
      <trkpt lat="44.42056" lon="6.98659">
        <ele>2135.3999023438</ele>
        <time>2024-09-13T08:20:08.000Z</time>
      </trkpt>
      <trkpt lat="44.42055" lon="6.98658">
        <ele>2135.8000488281</ele>
        <time>2024-09-13T08:20:09.000Z</time>
      </trkpt>
      <trkpt lat="44.42054" lon="6.98657">
        <ele>2136.1999511719</ele>
        <time>2024-09-13T08:20:10.000Z</time>
      </trkpt>
      <trkpt lat="44.42054" lon="6.98657">
        <ele>2136.1999511719</ele>
        <time>2024-09-13T08:20:11.000Z</time>
      </trkpt>
      <trkpt lat="44.42053" lon="6.98656">
        <ele>2136.1999511719</ele>
        <time>2024-09-13T08:20:12.000Z</time>
      </trkpt>
      <trkpt lat="44.42052" lon="6.98655">
        <ele>2136.3999023438</ele>
        <time>2024-09-13T08:20:13.000Z</time>
      </trkpt>
      <trkpt lat="44.42051" lon="6.98656">
        <ele>2136.3999023438</ele>
        <time>2024-09-13T08:20:14.000Z</time>
      </trkpt>
      <trkpt lat="44.4205" lon="6.98657">
        <ele>2136.3999023438</ele>
        <time>2024-09-13T08:20:15.000Z</time>
      </trkpt>
      <trkpt lat="44.4205" lon="6.98658">
        <ele>2136.3999023438</ele>
        <time>2024-09-13T08:20:16.000Z</time>
      </trkpt>
      <trkpt lat="44.4205" lon="6.98659">
        <ele>2136.6000976562</ele>
        <time>2024-09-13T08:20:17.000Z</time>
      </trkpt>
      <trkpt lat="44.4205" lon="6.98661">
        <ele>2136.8000488281</ele>
        <time>2024-09-13T08:20:18.000Z</time>
      </trkpt>
      <trkpt lat="44.42049" lon="6.98661">
        <ele>2137</ele>
        <time>2024-09-13T08:20:19.000Z</time>
      </trkpt>
      <trkpt lat="44.42049" lon="6.98662">
        <ele>2137.6000976562</ele>
        <time>2024-09-13T08:20:20.000Z</time>
      </trkpt>
      <trkpt lat="44.42049" lon="6.98663">
        <ele>2137.8000488281</ele>
        <time>2024-09-13T08:20:21.000Z</time>
      </trkpt>
      <trkpt lat="44.42049" lon="6.98663">
        <ele>2137.6000976562</ele>
        <time>2024-09-13T08:20:22.000Z</time>
      </trkpt>
      <trkpt lat="44.42048" lon="6.98664">
        <ele>2137.6000976562</ele>
        <time>2024-09-13T08:20:23.000Z</time>
      </trkpt>
      <trkpt lat="44.42048" lon="6.98666">
        <ele>2137.6000976562</ele>
        <time>2024-09-13T08:20:24.000Z</time>
      </trkpt>
      <trkpt lat="44.42047" lon="6.98667">
        <ele>2137.6000976562</ele>
        <time>2024-09-13T08:20:25.000Z</time>
      </trkpt>
      <trkpt lat="44.42047" lon="6.98668">
        <ele>2137.6000976562</ele>
        <time>2024-09-13T08:20:26.000Z</time>
      </trkpt>
      <trkpt lat="44.42046" lon="6.9867">
        <ele>2137.8000488281</ele>
        <time>2024-09-13T08:20:27.000Z</time>
      </trkpt>
      <trkpt lat="44.42046" lon="6.98671">
        <ele>2138</ele>
        <time>2024-09-13T08:20:28.000Z</time>
      </trkpt>
      <trkpt lat="44.42045" lon="6.98672">
        <ele>2138</ele>
        <time>2024-09-13T08:20:29.000Z</time>
      </trkpt>
      <trkpt lat="44.42045" lon="6.98673">
        <ele>2138</ele>
        <time>2024-09-13T08:20:30.000Z</time>
      </trkpt>
      <trkpt lat="44.42044" lon="6.98675">
        <ele>2138</ele>
        <time>2024-09-13T08:20:31.000Z</time>
      </trkpt>
      <trkpt lat="44.42044" lon="6.98676">
        <ele>2138.1999511719</ele>
        <time>2024-09-13T08:20:32.000Z</time>
      </trkpt>
      <trkpt lat="44.42043" lon="6.98676">
        <ele>2138.1999511719</ele>
        <time>2024-09-13T08:20:33.000Z</time>
      </trkpt>
      <trkpt lat="44.42043" lon="6.98677">
        <ele>2138.1999511719</ele>
        <time>2024-09-13T08:20:34.000Z</time>
      </trkpt>
      <trkpt lat="44.42042" lon="6.98678">
        <ele>2138.3999023438</ele>
        <time>2024-09-13T08:20:35.000Z</time>
      </trkpt>
      <trkpt lat="44.42042" lon="6.9868">
        <ele>2138.6000976562</ele>
        <time>2024-09-13T08:20:36.000Z</time>
      </trkpt>
      <trkpt lat="44.42041" lon="6.98681">
        <ele>2138.8000488281</ele>
        <time>2024-09-13T08:20:37.000Z</time>
      </trkpt>
      <trkpt lat="44.4204" lon="6.98682">
        <ele>2139</ele>
        <time>2024-09-13T08:20:38.000Z</time>
      </trkpt>
      <trkpt lat="44.4204" lon="6.98682">
        <ele>2139.1999511719</ele>
        <time>2024-09-13T08:20:39.000Z</time>
      </trkpt>
      <trkpt lat="44.42039" lon="6.98683">
        <ele>2139.1999511719</ele>
        <time>2024-09-13T08:20:40.000Z</time>
      </trkpt>
      <trkpt lat="44.42039" lon="6.98684">
        <ele>2139.6000976562</ele>
        <time>2024-09-13T08:20:41.000Z</time>
      </trkpt>
      <trkpt lat="44.42038" lon="6.98685">
        <ele>2139.8000488281</ele>
        <time>2024-09-13T08:20:42.000Z</time>
      </trkpt>
      <trkpt lat="44.42038" lon="6.98686">
        <ele>2139.8000488281</ele>
        <time>2024-09-13T08:20:43.000Z</time>
      </trkpt>
      <trkpt lat="44.42039" lon="6.98688">
        <ele>2139.8000488281</ele>
        <time>2024-09-13T08:20:44.000Z</time>
      </trkpt>
      <trkpt lat="44.42039" lon="6.98689">
        <ele>2139.8000488281</ele>
        <time>2024-09-13T08:20:45.000Z</time>
      </trkpt>
      <trkpt lat="44.4204" lon="6.98689">
        <ele>2139.8000488281</ele>
        <time>2024-09-13T08:20:46.000Z</time>
      </trkpt>
      <trkpt lat="44.4204" lon="6.98689">
        <ele>2139.8000488281</ele>
        <time>2024-09-13T08:20:47.000Z</time>
      </trkpt>
      <trkpt lat="44.42041" lon="6.9869">
        <ele>2139.8000488281</ele>
        <time>2024-09-13T08:20:48.000Z</time>
      </trkpt>
      <trkpt lat="44.42042" lon="6.98691">
        <ele>2139.8000488281</ele>
        <time>2024-09-13T08:20:49.000Z</time>
      </trkpt>
      <trkpt lat="44.42042" lon="6.98692">
        <ele>2139.8000488281</ele>
        <time>2024-09-13T08:20:50.000Z</time>
      </trkpt>
      <trkpt lat="44.42042" lon="6.98693">
        <ele>2139.8000488281</ele>
        <time>2024-09-13T08:20:51.000Z</time>
      </trkpt>
      <trkpt lat="44.42043" lon="6.98694">
        <ele>2140.1999511719</ele>
        <time>2024-09-13T08:20:52.000Z</time>
      </trkpt>
      <trkpt lat="44.42042" lon="6.98695">
        <ele>2140.8000488281</ele>
        <time>2024-09-13T08:20:53.000Z</time>
      </trkpt>
      <trkpt lat="44.42042" lon="6.98697">
        <ele>2141.1999511719</ele>
        <time>2024-09-13T08:20:54.000Z</time>
      </trkpt>
      <trkpt lat="44.42041" lon="6.98698">
        <ele>2141.3999023438</ele>
        <time>2024-09-13T08:20:55.000Z</time>
      </trkpt>
      <trkpt lat="44.4204" lon="6.98699">
        <ele>2141.3999023438</ele>
        <time>2024-09-13T08:20:56.000Z</time>
      </trkpt>
      <trkpt lat="44.4204" lon="6.98699">
        <ele>2141.8000488281</ele>
        <time>2024-09-13T08:20:57.000Z</time>
      </trkpt>
      <trkpt lat="44.42039" lon="6.987">
        <ele>2141.8000488281</ele>
        <time>2024-09-13T08:20:58.000Z</time>
      </trkpt>
      <trkpt lat="44.42038" lon="6.987">
        <ele>2142.1999511719</ele>
        <time>2024-09-13T08:20:59.000Z</time>
      </trkpt>
      <trkpt lat="44.42038" lon="6.98701">
        <ele>2142.3999023438</ele>
        <time>2024-09-13T08:21:00.000Z</time>
      </trkpt>
      <trkpt lat="44.42037" lon="6.98702">
        <ele>2142.3999023438</ele>
        <time>2024-09-13T08:21:01.000Z</time>
      </trkpt>
      <trkpt lat="44.42036" lon="6.98703">
        <ele>2142.8000488281</ele>
        <time>2024-09-13T08:21:02.000Z</time>
      </trkpt>
      <trkpt lat="44.42035" lon="6.98703">
        <ele>2142.8000488281</ele>
        <time>2024-09-13T08:21:03.000Z</time>
      </trkpt>
      <trkpt lat="44.42034" lon="6.98704">
        <ele>2143</ele>
        <time>2024-09-13T08:21:04.000Z</time>
      </trkpt>
      <trkpt lat="44.42033" lon="6.98705">
        <ele>2143</ele>
        <time>2024-09-13T08:21:05.000Z</time>
      </trkpt>
      <trkpt lat="44.42033" lon="6.98705">
        <ele>2143.3999023438</ele>
        <time>2024-09-13T08:21:06.000Z</time>
      </trkpt>
      <trkpt lat="44.42032" lon="6.98706">
        <ele>2143.3999023438</ele>
        <time>2024-09-13T08:21:07.000Z</time>
      </trkpt>
      <trkpt lat="44.42031" lon="6.98706">
        <ele>2143.6000976562</ele>
        <time>2024-09-13T08:21:08.000Z</time>
      </trkpt>
      <trkpt lat="44.4203" lon="6.98707">
        <ele>2143.8000488281</ele>
        <time>2024-09-13T08:21:09.000Z</time>
      </trkpt>
      <trkpt lat="44.42029" lon="6.98708">
        <ele>2144</ele>
        <time>2024-09-13T08:21:10.000Z</time>
      </trkpt>
      <trkpt lat="44.42028" lon="6.98709">
        <ele>2144.1999511719</ele>
        <time>2024-09-13T08:21:11.000Z</time>
      </trkpt>
      <trkpt lat="44.42027" lon="6.9871">
        <ele>2144.1999511719</ele>
        <time>2024-09-13T08:21:12.000Z</time>
      </trkpt>
      <trkpt lat="44.42026" lon="6.9871">
        <ele>2144.3999023438</ele>
        <time>2024-09-13T08:21:13.000Z</time>
      </trkpt>
      <trkpt lat="44.42025" lon="6.98711">
        <ele>2144.3999023438</ele>
        <time>2024-09-13T08:21:14.000Z</time>
      </trkpt>
      <trkpt lat="44.42024" lon="6.98712">
        <ele>2144.6000976562</ele>
        <time>2024-09-13T08:21:15.000Z</time>
      </trkpt>
      <trkpt lat="44.42023" lon="6.98712">
        <ele>2144.8000488281</ele>
        <time>2024-09-13T08:21:16.000Z</time>
      </trkpt>
      <trkpt lat="44.42022" lon="6.98713">
        <ele>2145</ele>
        <time>2024-09-13T08:21:17.000Z</time>
      </trkpt>
      <trkpt lat="44.42021" lon="6.98713">
        <ele>2145.3999023438</ele>
        <time>2024-09-13T08:21:18.000Z</time>
      </trkpt>
      <trkpt lat="44.42021" lon="6.98713">
        <ele>2145.3999023438</ele>
        <time>2024-09-13T08:21:19.000Z</time>
      </trkpt>
      <trkpt lat="44.4202" lon="6.98714">
        <ele>2145.8000488281</ele>
        <time>2024-09-13T08:21:20.000Z</time>
      </trkpt>
      <trkpt lat="44.4202" lon="6.98715">
        <ele>2146</ele>
        <time>2024-09-13T08:21:21.000Z</time>
      </trkpt>
      <trkpt lat="44.42019" lon="6.98715">
        <ele>2146.1999511719</ele>
        <time>2024-09-13T08:21:22.000Z</time>
      </trkpt>
      <trkpt lat="44.42019" lon="6.98716">
        <ele>2146.3999023438</ele>
        <time>2024-09-13T08:21:23.000Z</time>
      </trkpt>
      <trkpt lat="44.42018" lon="6.98716">
        <ele>2146.6000976562</ele>
        <time>2024-09-13T08:21:24.000Z</time>
      </trkpt>
      <trkpt lat="44.42017" lon="6.98717">
        <ele>2146.8000488281</ele>
        <time>2024-09-13T08:21:25.000Z</time>
      </trkpt>
      <trkpt lat="44.42017" lon="6.98717">
        <ele>2147</ele>
        <time>2024-09-13T08:21:26.000Z</time>
      </trkpt>
      <trkpt lat="44.42017" lon="6.98717">
        <ele>2147.1999511719</ele>
        <time>2024-09-13T08:21:27.000Z</time>
      </trkpt>
      <trkpt lat="44.42016" lon="6.98717">
        <ele>2147.3999023438</ele>
        <time>2024-09-13T08:21:28.000Z</time>
      </trkpt>
      <trkpt lat="44.42015" lon="6.98717">
        <ele>2147.6000976562</ele>
        <time>2024-09-13T08:21:29.000Z</time>
      </trkpt>
      <trkpt lat="44.42015" lon="6.98717">
        <ele>2148.1999511719</ele>
        <time>2024-09-13T08:21:32.000Z</time>
      </trkpt>
      <trkpt lat="44.42015" lon="6.98717">
        <ele>2148.3999023438</ele>
        <time>2024-09-13T08:21:37.000Z</time>
      </trkpt>
      <trkpt lat="44.42015" lon="6.98717">
        <ele>2148.1999511719</ele>
        <time>2024-09-13T08:21:42.000Z</time>
      </trkpt>
      <trkpt lat="44.42015" lon="6.98717">
        <ele>2148</ele>
        <time>2024-09-13T08:21:45.000Z</time>
      </trkpt>
      <trkpt lat="44.42015" lon="6.98717">
        <ele>2147.6000976562</ele>
        <time>2024-09-13T08:22:00.000Z</time>
      </trkpt>
      <trkpt lat="44.42015" lon="6.98717">
        <ele>2147.6000976562</ele>
        <time>2024-09-13T08:22:02.000Z</time>
      </trkpt>
      <trkpt lat="44.42016" lon="6.98717">
        <ele>2147.3999023438</ele>
        <time>2024-09-13T08:22:05.000Z</time>
      </trkpt>
      <trkpt lat="44.42016" lon="6.98717">
        <ele>2146.8000488281</ele>
        <time>2024-09-13T08:22:10.000Z</time>
      </trkpt>
      <trkpt lat="44.42013" lon="6.98722">
        <ele>2146.8000488281</ele>
        <time>2024-09-13T08:22:15.000Z</time>
      </trkpt>
      <trkpt lat="44.42011" lon="6.98724">
        <ele>2147.1999511719</ele>
        <time>2024-09-13T08:22:17.000Z</time>
      </trkpt>
      <trkpt lat="44.4201" lon="6.98725">
        <ele>2147.1999511719</ele>
        <time>2024-09-13T08:22:18.000Z</time>
      </trkpt>
      <trkpt lat="44.42009" lon="6.98725">
        <ele>2147.3999023438</ele>
        <time>2024-09-13T08:22:19.000Z</time>
      </trkpt>
      <trkpt lat="44.42009" lon="6.98726">
        <ele>2147.8000488281</ele>
        <time>2024-09-13T08:22:20.000Z</time>
      </trkpt>
      <trkpt lat="44.42007" lon="6.98727">
        <ele>2148.3999023438</ele>
        <time>2024-09-13T08:22:22.000Z</time>
      </trkpt>
      <trkpt lat="44.42006" lon="6.98728">
        <ele>2148.8000488281</ele>
        <time>2024-09-13T08:22:23.000Z</time>
      </trkpt>
      <trkpt lat="44.42004" lon="6.98729">
        <ele>2149</ele>
        <time>2024-09-13T08:22:25.000Z</time>
      </trkpt>
      <trkpt lat="44.42002" lon="6.9873">
        <ele>2149.6000976562</ele>
        <time>2024-09-13T08:22:27.000Z</time>
      </trkpt>
      <trkpt lat="44.42001" lon="6.98731">
        <ele>2149.6000976562</ele>
        <time>2024-09-13T08:22:28.000Z</time>
      </trkpt>
      <trkpt lat="44.42001" lon="6.98732">
        <ele>2149.8000488281</ele>
        <time>2024-09-13T08:22:29.000Z</time>
      </trkpt>
      <trkpt lat="44.42" lon="6.98733">
        <ele>2150</ele>
        <time>2024-09-13T08:22:30.000Z</time>
      </trkpt>
      <trkpt lat="44.41999" lon="6.98734">
        <ele>2150.3999023438</ele>
        <time>2024-09-13T08:22:32.000Z</time>
      </trkpt>
      <trkpt lat="44.41998" lon="6.98734">
        <ele>2150.3999023438</ele>
        <time>2024-09-13T08:22:33.000Z</time>
      </trkpt>
      <trkpt lat="44.41998" lon="6.98735">
        <ele>2150.6000976562</ele>
        <time>2024-09-13T08:22:34.000Z</time>
      </trkpt>
      <trkpt lat="44.41998" lon="6.98736">
        <ele>2150.8000488281</ele>
        <time>2024-09-13T08:22:35.000Z</time>
      </trkpt>
      <trkpt lat="44.41997" lon="6.98737">
        <ele>2151.1999511719</ele>
        <time>2024-09-13T08:22:36.000Z</time>
      </trkpt>
      <trkpt lat="44.41996" lon="6.98737">
        <ele>2151.3999023438</ele>
        <time>2024-09-13T08:22:37.000Z</time>
      </trkpt>
      <trkpt lat="44.41995" lon="6.98738">
        <ele>2151.6000976562</ele>
        <time>2024-09-13T08:22:38.000Z</time>
      </trkpt>
      <trkpt lat="44.41995" lon="6.98739">
        <ele>2151.8000488281</ele>
        <time>2024-09-13T08:22:39.000Z</time>
      </trkpt>
      <trkpt lat="44.41994" lon="6.98739">
        <ele>2152</ele>
        <time>2024-09-13T08:22:40.000Z</time>
      </trkpt>
      <trkpt lat="44.41994" lon="6.9874">
        <ele>2152.1999511719</ele>
        <time>2024-09-13T08:22:41.000Z</time>
      </trkpt>
      <trkpt lat="44.41993" lon="6.98741">
        <ele>2152.3999023438</ele>
        <time>2024-09-13T08:22:42.000Z</time>
      </trkpt>
      <trkpt lat="44.41992" lon="6.98742">
        <ele>2152.8000488281</ele>
        <time>2024-09-13T08:22:43.000Z</time>
      </trkpt>
      <trkpt lat="44.41992" lon="6.98743">
        <ele>2153</ele>
        <time>2024-09-13T08:22:44.000Z</time>
      </trkpt>
      <trkpt lat="44.41991" lon="6.98743">
        <ele>2153.1999511719</ele>
        <time>2024-09-13T08:22:45.000Z</time>
      </trkpt>
      <trkpt lat="44.4199" lon="6.98743">
        <ele>2153.3999023438</ele>
        <time>2024-09-13T08:22:46.000Z</time>
      </trkpt>
      <trkpt lat="44.41989" lon="6.98744">
        <ele>2153.8000488281</ele>
        <time>2024-09-13T08:22:47.000Z</time>
      </trkpt>
      <trkpt lat="44.41988" lon="6.98744">
        <ele>2154</ele>
        <time>2024-09-13T08:22:48.000Z</time>
      </trkpt>
      <trkpt lat="44.41987" lon="6.98744">
        <ele>2154.1999511719</ele>
        <time>2024-09-13T08:22:49.000Z</time>
      </trkpt>
      <trkpt lat="44.41986" lon="6.98744">
        <ele>2154.3999023438</ele>
        <time>2024-09-13T08:22:50.000Z</time>
      </trkpt>
      <trkpt lat="44.41985" lon="6.98745">
        <ele>2154.6000976562</ele>
        <time>2024-09-13T08:22:51.000Z</time>
      </trkpt>
      <trkpt lat="44.41985" lon="6.98746">
        <ele>2154.8000488281</ele>
        <time>2024-09-13T08:22:52.000Z</time>
      </trkpt>
      <trkpt lat="44.41984" lon="6.98746">
        <ele>2155</ele>
        <time>2024-09-13T08:22:53.000Z</time>
      </trkpt>
      <trkpt lat="44.41984" lon="6.98747">
        <ele>2155.3999023438</ele>
        <time>2024-09-13T08:22:54.000Z</time>
      </trkpt>
      <trkpt lat="44.41984" lon="6.98747">
        <ele>2155.6000976562</ele>
        <time>2024-09-13T08:22:55.000Z</time>
      </trkpt>
      <trkpt lat="44.41983" lon="6.98749">
        <ele>2155.6000976562</ele>
        <time>2024-09-13T08:22:56.000Z</time>
      </trkpt>
      <trkpt lat="44.41983" lon="6.9875">
        <ele>2155.8000488281</ele>
        <time>2024-09-13T08:22:57.000Z</time>
      </trkpt>
      <trkpt lat="44.41983" lon="6.98751">
        <ele>2156</ele>
        <time>2024-09-13T08:22:58.000Z</time>
      </trkpt>
      <trkpt lat="44.41982" lon="6.98752">
        <ele>2156.1999511719</ele>
        <time>2024-09-13T08:22:59.000Z</time>
      </trkpt>
      <trkpt lat="44.41982" lon="6.98753">
        <ele>2156.3999023438</ele>
        <time>2024-09-13T08:23:00.000Z</time>
      </trkpt>
      <trkpt lat="44.41982" lon="6.98755">
        <ele>2156.6000976562</ele>
        <time>2024-09-13T08:23:01.000Z</time>
      </trkpt>
      <trkpt lat="44.41981" lon="6.98756">
        <ele>2157</ele>
        <time>2024-09-13T08:23:02.000Z</time>
      </trkpt>
      <trkpt lat="44.41981" lon="6.98757">
        <ele>2157.1999511719</ele>
        <time>2024-09-13T08:23:03.000Z</time>
      </trkpt>
      <trkpt lat="44.41981" lon="6.98758">
        <ele>2157.1999511719</ele>
        <time>2024-09-13T08:23:04.000Z</time>
      </trkpt>
      <trkpt lat="44.4198" lon="6.98759">
        <ele>2157.3999023438</ele>
        <time>2024-09-13T08:23:05.000Z</time>
      </trkpt>
      <trkpt lat="44.4198" lon="6.9876">
        <ele>2157.6000976562</ele>
        <time>2024-09-13T08:23:06.000Z</time>
      </trkpt>
      <trkpt lat="44.4198" lon="6.98761">
        <ele>2157.8000488281</ele>
        <time>2024-09-13T08:23:07.000Z</time>
      </trkpt>
      <trkpt lat="44.4198" lon="6.98762">
        <ele>2157.8000488281</ele>
        <time>2024-09-13T08:23:08.000Z</time>
      </trkpt>
      <trkpt lat="44.41979" lon="6.98763">
        <ele>2158</ele>
        <time>2024-09-13T08:23:09.000Z</time>
      </trkpt>
      <trkpt lat="44.41979" lon="6.98764">
        <ele>2158.1999511719</ele>
        <time>2024-09-13T08:23:10.000Z</time>
      </trkpt>
      <trkpt lat="44.4198" lon="6.98765">
        <ele>2158.3999023438</ele>
        <time>2024-09-13T08:23:11.000Z</time>
      </trkpt>
      <trkpt lat="44.41979" lon="6.98766">
        <ele>2158.6000976562</ele>
        <time>2024-09-13T08:23:12.000Z</time>
      </trkpt>
      <trkpt lat="44.41979" lon="6.98767">
        <ele>2158.8000488281</ele>
        <time>2024-09-13T08:23:13.000Z</time>
      </trkpt>
      <trkpt lat="44.41979" lon="6.98768">
        <ele>2159</ele>
        <time>2024-09-13T08:23:14.000Z</time>
      </trkpt>
      <trkpt lat="44.4198" lon="6.98769">
        <ele>2159.1999511719</ele>
        <time>2024-09-13T08:23:15.000Z</time>
      </trkpt>
      <trkpt lat="44.4198" lon="6.9877">
        <ele>2159.3999023438</ele>
        <time>2024-09-13T08:23:16.000Z</time>
      </trkpt>
      <trkpt lat="44.41979" lon="6.98771">
        <ele>2159.6000976562</ele>
        <time>2024-09-13T08:23:17.000Z</time>
      </trkpt>
      <trkpt lat="44.41979" lon="6.98772">
        <ele>2159.8000488281</ele>
        <time>2024-09-13T08:23:18.000Z</time>
      </trkpt>
      <trkpt lat="44.41979" lon="6.98773">
        <ele>2160</ele>
        <time>2024-09-13T08:23:19.000Z</time>
      </trkpt>
      <trkpt lat="44.41979" lon="6.98774">
        <ele>2160.1999511719</ele>
        <time>2024-09-13T08:23:20.000Z</time>
      </trkpt>
      <trkpt lat="44.41979" lon="6.98775">
        <ele>2160.3999023438</ele>
        <time>2024-09-13T08:23:21.000Z</time>
      </trkpt>
      <trkpt lat="44.41979" lon="6.98776">
        <ele>2160.6000976562</ele>
        <time>2024-09-13T08:23:22.000Z</time>
      </trkpt>
      <trkpt lat="44.41979" lon="6.98776">
        <ele>2160.6000976562</ele>
        <time>2024-09-13T08:23:23.000Z</time>
      </trkpt>
      <trkpt lat="44.41979" lon="6.98777">
        <ele>2160.8000488281</ele>
        <time>2024-09-13T08:23:24.000Z</time>
      </trkpt>
      <trkpt lat="44.41978" lon="6.98778">
        <ele>2161</ele>
        <time>2024-09-13T08:23:25.000Z</time>
      </trkpt>
      <trkpt lat="44.41978" lon="6.98779">
        <ele>2161.1999511719</ele>
        <time>2024-09-13T08:23:26.000Z</time>
      </trkpt>
      <trkpt lat="44.41977" lon="6.98779">
        <ele>2161.3999023438</ele>
        <time>2024-09-13T08:23:27.000Z</time>
      </trkpt>
      <trkpt lat="44.41977" lon="6.9878">
        <ele>2161.6000976562</ele>
        <time>2024-09-13T08:23:28.000Z</time>
      </trkpt>
      <trkpt lat="44.41976" lon="6.98781">
        <ele>2161.8000488281</ele>
        <time>2024-09-13T08:23:29.000Z</time>
      </trkpt>
      <trkpt lat="44.41975" lon="6.98781">
        <ele>2162.1999511719</ele>
        <time>2024-09-13T08:23:30.000Z</time>
      </trkpt>
      <trkpt lat="44.41974" lon="6.98782">
        <ele>2162.3999023438</ele>
        <time>2024-09-13T08:23:31.000Z</time>
      </trkpt>
      <trkpt lat="44.41974" lon="6.98782">
        <ele>2162.6000976562</ele>
        <time>2024-09-13T08:23:32.000Z</time>
      </trkpt>
      <trkpt lat="44.41973" lon="6.98782">
        <ele>2162.8000488281</ele>
        <time>2024-09-13T08:23:33.000Z</time>
      </trkpt>
      <trkpt lat="44.41973" lon="6.98783">
        <ele>2162.8000488281</ele>
        <time>2024-09-13T08:23:34.000Z</time>
      </trkpt>
      <trkpt lat="44.41972" lon="6.98784">
        <ele>2163.1999511719</ele>
        <time>2024-09-13T08:23:35.000Z</time>
      </trkpt>
      <trkpt lat="44.41972" lon="6.98785">
        <ele>2163.1999511719</ele>
        <time>2024-09-13T08:23:36.000Z</time>
      </trkpt>
      <trkpt lat="44.41971" lon="6.98786">
        <ele>2163.3999023438</ele>
        <time>2024-09-13T08:23:37.000Z</time>
      </trkpt>
      <trkpt lat="44.4197" lon="6.98786">
        <ele>2163.6000976562</ele>
        <time>2024-09-13T08:23:38.000Z</time>
      </trkpt>
      <trkpt lat="44.41969" lon="6.98787">
        <ele>2163.8000488281</ele>
        <time>2024-09-13T08:23:39.000Z</time>
      </trkpt>
      <trkpt lat="44.41969" lon="6.98787">
        <ele>2164.1999511719</ele>
        <time>2024-09-13T08:23:40.000Z</time>
      </trkpt>
      <trkpt lat="44.41968" lon="6.98788">
        <ele>2164.6000976562</ele>
        <time>2024-09-13T08:23:41.000Z</time>
      </trkpt>
      <trkpt lat="44.41968" lon="6.98789">
        <ele>2165</ele>
        <time>2024-09-13T08:23:42.000Z</time>
      </trkpt>
      <trkpt lat="44.41967" lon="6.9879">
        <ele>2165.3999023438</ele>
        <time>2024-09-13T08:23:43.000Z</time>
      </trkpt>
      <trkpt lat="44.41966" lon="6.98791">
        <ele>2165.6000976562</ele>
        <time>2024-09-13T08:23:44.000Z</time>
      </trkpt>
      <trkpt lat="44.41966" lon="6.98793">
        <ele>2165.8000488281</ele>
        <time>2024-09-13T08:23:45.000Z</time>
      </trkpt>
      <trkpt lat="44.41965" lon="6.98794">
        <ele>2166</ele>
        <time>2024-09-13T08:23:46.000Z</time>
      </trkpt>
      <trkpt lat="44.41965" lon="6.98795">
        <ele>2166.3999023438</ele>
        <time>2024-09-13T08:23:47.000Z</time>
      </trkpt>
      <trkpt lat="44.41965" lon="6.98797">
        <ele>2166.6000976562</ele>
        <time>2024-09-13T08:23:48.000Z</time>
      </trkpt>
      <trkpt lat="44.41964" lon="6.98798">
        <ele>2166.6000976562</ele>
        <time>2024-09-13T08:23:49.000Z</time>
      </trkpt>
      <trkpt lat="44.41963" lon="6.98799">
        <ele>2166.8000488281</ele>
        <time>2024-09-13T08:23:50.000Z</time>
      </trkpt>
      <trkpt lat="44.41963" lon="6.988">
        <ele>2167</ele>
        <time>2024-09-13T08:23:51.000Z</time>
      </trkpt>
      <trkpt lat="44.41962" lon="6.98801">
        <ele>2167.1999511719</ele>
        <time>2024-09-13T08:23:52.000Z</time>
      </trkpt>
      <trkpt lat="44.41962" lon="6.98801">
        <ele>2167.1999511719</ele>
        <time>2024-09-13T08:23:53.000Z</time>
      </trkpt>
      <trkpt lat="44.41961" lon="6.98802">
        <ele>2167.3999023438</ele>
        <time>2024-09-13T08:23:54.000Z</time>
      </trkpt>
      <trkpt lat="44.41961" lon="6.98803">
        <ele>2167.6000976562</ele>
        <time>2024-09-13T08:23:55.000Z</time>
      </trkpt>
      <trkpt lat="44.4196" lon="6.98804">
        <ele>2167.6000976562</ele>
        <time>2024-09-13T08:23:56.000Z</time>
      </trkpt>
      <trkpt lat="44.4196" lon="6.98805">
        <ele>2167.8000488281</ele>
        <time>2024-09-13T08:23:57.000Z</time>
      </trkpt>
      <trkpt lat="44.4196" lon="6.98806">
        <ele>2167.8000488281</ele>
        <time>2024-09-13T08:23:58.000Z</time>
      </trkpt>
      <trkpt lat="44.41959" lon="6.98807">
        <ele>2168</ele>
        <time>2024-09-13T08:23:59.000Z</time>
      </trkpt>
      <trkpt lat="44.41958" lon="6.98808">
        <ele>2168.1999511719</ele>
        <time>2024-09-13T08:24:00.000Z</time>
      </trkpt>
      <trkpt lat="44.41958" lon="6.9881">
        <ele>2168.1999511719</ele>
        <time>2024-09-13T08:24:01.000Z</time>
      </trkpt>
      <trkpt lat="44.41957" lon="6.98811">
        <ele>2168.3999023438</ele>
        <time>2024-09-13T08:24:02.000Z</time>
      </trkpt>
      <trkpt lat="44.41957" lon="6.98812">
        <ele>2168.6000976562</ele>
        <time>2024-09-13T08:24:03.000Z</time>
      </trkpt>
      <trkpt lat="44.41956" lon="6.98814">
        <ele>2168.8000488281</ele>
        <time>2024-09-13T08:24:04.000Z</time>
      </trkpt>
      <trkpt lat="44.41955" lon="6.98815">
        <ele>2169</ele>
        <time>2024-09-13T08:24:05.000Z</time>
      </trkpt>
      <trkpt lat="44.41955" lon="6.98816">
        <ele>2169.1999511719</ele>
        <time>2024-09-13T08:24:06.000Z</time>
      </trkpt>
      <trkpt lat="44.41954" lon="6.98817">
        <ele>2169.3999023438</ele>
        <time>2024-09-13T08:24:07.000Z</time>
      </trkpt>
      <trkpt lat="44.41953" lon="6.98817">
        <ele>2169.6000976562</ele>
        <time>2024-09-13T08:24:08.000Z</time>
      </trkpt>
      <trkpt lat="44.41953" lon="6.98818">
        <ele>2169.6000976562</ele>
        <time>2024-09-13T08:24:09.000Z</time>
      </trkpt>
      <trkpt lat="44.41952" lon="6.98818">
        <ele>2169.8000488281</ele>
        <time>2024-09-13T08:24:10.000Z</time>
      </trkpt>
      <trkpt lat="44.41951" lon="6.98819">
        <ele>2170</ele>
        <time>2024-09-13T08:24:11.000Z</time>
      </trkpt>
      <trkpt lat="44.41951" lon="6.9882">
        <ele>2170</ele>
        <time>2024-09-13T08:24:12.000Z</time>
      </trkpt>
      <trkpt lat="44.4195" lon="6.98821">
        <ele>2170</ele>
        <time>2024-09-13T08:24:13.000Z</time>
      </trkpt>
      <trkpt lat="44.4195" lon="6.98822">
        <ele>2170.3999023438</ele>
        <time>2024-09-13T08:24:14.000Z</time>
      </trkpt>
      <trkpt lat="44.41949" lon="6.98823">
        <ele>2170.3999023438</ele>
        <time>2024-09-13T08:24:15.000Z</time>
      </trkpt>
      <trkpt lat="44.41949" lon="6.98824">
        <ele>2170.6000976562</ele>
        <time>2024-09-13T08:24:16.000Z</time>
      </trkpt>
      <trkpt lat="44.41949" lon="6.98825">
        <ele>2170.8000488281</ele>
        <time>2024-09-13T08:24:17.000Z</time>
      </trkpt>
      <trkpt lat="44.41948" lon="6.98826">
        <ele>2171</ele>
        <time>2024-09-13T08:24:18.000Z</time>
      </trkpt>
      <trkpt lat="44.41948" lon="6.98826">
        <ele>2171</ele>
        <time>2024-09-13T08:24:19.000Z</time>
      </trkpt>
      <trkpt lat="44.41947" lon="6.98827">
        <ele>2171.1999511719</ele>
        <time>2024-09-13T08:24:20.000Z</time>
      </trkpt>
      <trkpt lat="44.41947" lon="6.98829">
        <ele>2171.3999023438</ele>
        <time>2024-09-13T08:24:21.000Z</time>
      </trkpt>
      <trkpt lat="44.41946" lon="6.9883">
        <ele>2171.6000976562</ele>
        <time>2024-09-13T08:24:22.000Z</time>
      </trkpt>
      <trkpt lat="44.41945" lon="6.98831">
        <ele>2171.8000488281</ele>
        <time>2024-09-13T08:24:23.000Z</time>
      </trkpt>
      <trkpt lat="44.41945" lon="6.98832">
        <ele>2171.8000488281</ele>
        <time>2024-09-13T08:24:24.000Z</time>
      </trkpt>
      <trkpt lat="44.41944" lon="6.98833">
        <ele>2172</ele>
        <time>2024-09-13T08:24:25.000Z</time>
      </trkpt>
      <trkpt lat="44.41944" lon="6.98834">
        <ele>2172.1999511719</ele>
        <time>2024-09-13T08:24:26.000Z</time>
      </trkpt>
      <trkpt lat="44.41943" lon="6.98835">
        <ele>2172.1999511719</ele>
        <time>2024-09-13T08:24:27.000Z</time>
      </trkpt>
      <trkpt lat="44.41943" lon="6.98836">
        <ele>2172.1999511719</ele>
        <time>2024-09-13T08:24:28.000Z</time>
      </trkpt>
      <trkpt lat="44.41942" lon="6.98837">
        <ele>2172.6000976562</ele>
        <time>2024-09-13T08:24:29.000Z</time>
      </trkpt>
      <trkpt lat="44.41942" lon="6.98838">
        <ele>2172.8000488281</ele>
        <time>2024-09-13T08:24:30.000Z</time>
      </trkpt>
      <trkpt lat="44.41941" lon="6.98839">
        <ele>2173</ele>
        <time>2024-09-13T08:24:31.000Z</time>
      </trkpt>
      <trkpt lat="44.41941" lon="6.9884">
        <ele>2173.1999511719</ele>
        <time>2024-09-13T08:24:32.000Z</time>
      </trkpt>
      <trkpt lat="44.4194" lon="6.98841">
        <ele>2173.1999511719</ele>
        <time>2024-09-13T08:24:33.000Z</time>
      </trkpt>
      <trkpt lat="44.4194" lon="6.98841">
        <ele>2173.3999023438</ele>
        <time>2024-09-13T08:24:34.000Z</time>
      </trkpt>
      <trkpt lat="44.41939" lon="6.98842">
        <ele>2173.6000976562</ele>
        <time>2024-09-13T08:24:35.000Z</time>
      </trkpt>
      <trkpt lat="44.41939" lon="6.98842">
        <ele>2173.8000488281</ele>
        <time>2024-09-13T08:24:36.000Z</time>
      </trkpt>
      <trkpt lat="44.41938" lon="6.98844">
        <ele>2174</ele>
        <time>2024-09-13T08:24:37.000Z</time>
      </trkpt>
      <trkpt lat="44.41937" lon="6.98844">
        <ele>2174.1999511719</ele>
        <time>2024-09-13T08:24:38.000Z</time>
      </trkpt>
      <trkpt lat="44.41937" lon="6.98845">
        <ele>2174.6000976562</ele>
        <time>2024-09-13T08:24:39.000Z</time>
      </trkpt>
      <trkpt lat="44.41936" lon="6.98846">
        <ele>2174.6000976562</ele>
        <time>2024-09-13T08:24:40.000Z</time>
      </trkpt>
      <trkpt lat="44.41935" lon="6.98847">
        <ele>2174.8000488281</ele>
        <time>2024-09-13T08:24:41.000Z</time>
      </trkpt>
      <trkpt lat="44.41934" lon="6.98848">
        <ele>2175</ele>
        <time>2024-09-13T08:24:42.000Z</time>
      </trkpt>
      <trkpt lat="44.41933" lon="6.98849">
        <ele>2175.3999023438</ele>
        <time>2024-09-13T08:24:43.000Z</time>
      </trkpt>
      <trkpt lat="44.41933" lon="6.9885">
        <ele>2175.6000976562</ele>
        <time>2024-09-13T08:24:44.000Z</time>
      </trkpt>
      <trkpt lat="44.41932" lon="6.98851">
        <ele>2175.6000976562</ele>
        <time>2024-09-13T08:24:45.000Z</time>
      </trkpt>
      <trkpt lat="44.41931" lon="6.98851">
        <ele>2175.8000488281</ele>
        <time>2024-09-13T08:24:46.000Z</time>
      </trkpt>
      <trkpt lat="44.41931" lon="6.98852">
        <ele>2175.8000488281</ele>
        <time>2024-09-13T08:24:47.000Z</time>
      </trkpt>
      <trkpt lat="44.4193" lon="6.98853">
        <ele>2175.8000488281</ele>
        <time>2024-09-13T08:24:48.000Z</time>
      </trkpt>
      <trkpt lat="44.4193" lon="6.98854">
        <ele>2176</ele>
        <time>2024-09-13T08:24:49.000Z</time>
      </trkpt>
      <trkpt lat="44.41929" lon="6.98855">
        <ele>2176</ele>
        <time>2024-09-13T08:24:50.000Z</time>
      </trkpt>
      <trkpt lat="44.41929" lon="6.98856">
        <ele>2176</ele>
        <time>2024-09-13T08:24:51.000Z</time>
      </trkpt>
      <trkpt lat="44.41928" lon="6.98857">
        <ele>2176.1999511719</ele>
        <time>2024-09-13T08:24:52.000Z</time>
      </trkpt>
      <trkpt lat="44.41928" lon="6.98859">
        <ele>2176.1999511719</ele>
        <time>2024-09-13T08:24:53.000Z</time>
      </trkpt>
      <trkpt lat="44.41927" lon="6.9886">
        <ele>2176.3999023438</ele>
        <time>2024-09-13T08:24:54.000Z</time>
      </trkpt>
      <trkpt lat="44.41927" lon="6.9886">
        <ele>2176.6000976562</ele>
        <time>2024-09-13T08:24:55.000Z</time>
      </trkpt>
      <trkpt lat="44.41926" lon="6.98861">
        <ele>2176.6000976562</ele>
        <time>2024-09-13T08:24:56.000Z</time>
      </trkpt>
      <trkpt lat="44.41926" lon="6.98862">
        <ele>2176.8000488281</ele>
        <time>2024-09-13T08:24:57.000Z</time>
      </trkpt>
      <trkpt lat="44.41925" lon="6.98862">
        <ele>2177</ele>
        <time>2024-09-13T08:24:58.000Z</time>
      </trkpt>
      <trkpt lat="44.41925" lon="6.98863">
        <ele>2177.1999511719</ele>
        <time>2024-09-13T08:24:59.000Z</time>
      </trkpt>
      <trkpt lat="44.41924" lon="6.98864">
        <ele>2177.3999023438</ele>
        <time>2024-09-13T08:25:00.000Z</time>
      </trkpt>
      <trkpt lat="44.41924" lon="6.98865">
        <ele>2177.8000488281</ele>
        <time>2024-09-13T08:25:01.000Z</time>
      </trkpt>
      <trkpt lat="44.41923" lon="6.98866">
        <ele>2177.8000488281</ele>
        <time>2024-09-13T08:25:02.000Z</time>
      </trkpt>
      <trkpt lat="44.41922" lon="6.98867">
        <ele>2178</ele>
        <time>2024-09-13T08:25:03.000Z</time>
      </trkpt>
      <trkpt lat="44.41921" lon="6.98868">
        <ele>2178.1999511719</ele>
        <time>2024-09-13T08:25:04.000Z</time>
      </trkpt>
      <trkpt lat="44.4192" lon="6.98869">
        <ele>2178.6000976562</ele>
        <time>2024-09-13T08:25:05.000Z</time>
      </trkpt>
      <trkpt lat="44.41919" lon="6.98869">
        <ele>2178.8000488281</ele>
        <time>2024-09-13T08:25:06.000Z</time>
      </trkpt>
      <trkpt lat="44.41919" lon="6.9887">
        <ele>2178.8000488281</ele>
        <time>2024-09-13T08:25:07.000Z</time>
      </trkpt>
      <trkpt lat="44.41918" lon="6.98871">
        <ele>2179.1999511719</ele>
        <time>2024-09-13T08:25:08.000Z</time>
      </trkpt>
      <trkpt lat="44.41917" lon="6.98872">
        <ele>2179.1999511719</ele>
        <time>2024-09-13T08:25:09.000Z</time>
      </trkpt>
      <trkpt lat="44.41917" lon="6.98872">
        <ele>2179.3999023438</ele>
        <time>2024-09-13T08:25:10.000Z</time>
      </trkpt>
      <trkpt lat="44.41916" lon="6.98873">
        <ele>2179.6000976562</ele>
        <time>2024-09-13T08:25:11.000Z</time>
      </trkpt>
      <trkpt lat="44.41916" lon="6.98874">
        <ele>2179.8000488281</ele>
        <time>2024-09-13T08:25:12.000Z</time>
      </trkpt>
      <trkpt lat="44.41916" lon="6.98875">
        <ele>2180</ele>
        <time>2024-09-13T08:25:13.000Z</time>
      </trkpt>
      <trkpt lat="44.41915" lon="6.98876">
        <ele>2180</ele>
        <time>2024-09-13T08:25:14.000Z</time>
      </trkpt>
      <trkpt lat="44.41915" lon="6.98877">
        <ele>2180.1999511719</ele>
        <time>2024-09-13T08:25:15.000Z</time>
      </trkpt>
      <trkpt lat="44.41914" lon="6.98877">
        <ele>2180.3999023438</ele>
        <time>2024-09-13T08:25:16.000Z</time>
      </trkpt>
      <trkpt lat="44.41913" lon="6.98878">
        <ele>2180.3999023438</ele>
        <time>2024-09-13T08:25:17.000Z</time>
      </trkpt>
      <trkpt lat="44.41912" lon="6.98879">
        <ele>2180.3999023438</ele>
        <time>2024-09-13T08:25:18.000Z</time>
      </trkpt>
      <trkpt lat="44.41912" lon="6.9888">
        <ele>2180.6000976562</ele>
        <time>2024-09-13T08:25:19.000Z</time>
      </trkpt>
      <trkpt lat="44.41911" lon="6.98881">
        <ele>2181</ele>
        <time>2024-09-13T08:25:20.000Z</time>
      </trkpt>
      <trkpt lat="44.4191" lon="6.98882">
        <ele>2181.1999511719</ele>
        <time>2024-09-13T08:25:21.000Z</time>
      </trkpt>
      <trkpt lat="44.4191" lon="6.98883">
        <ele>2181.6000976562</ele>
        <time>2024-09-13T08:25:22.000Z</time>
      </trkpt>
      <trkpt lat="44.41909" lon="6.98884">
        <ele>2181.6000976562</ele>
        <time>2024-09-13T08:25:23.000Z</time>
      </trkpt>
      <trkpt lat="44.41908" lon="6.98885">
        <ele>2181.6000976562</ele>
        <time>2024-09-13T08:25:24.000Z</time>
      </trkpt>
      <trkpt lat="44.41908" lon="6.98885">
        <ele>2181.8000488281</ele>
        <time>2024-09-13T08:25:25.000Z</time>
      </trkpt>
      <trkpt lat="44.41907" lon="6.98886">
        <ele>2181.8000488281</ele>
        <time>2024-09-13T08:25:26.000Z</time>
      </trkpt>
      <trkpt lat="44.41907" lon="6.98886">
        <ele>2182.1999511719</ele>
        <time>2024-09-13T08:25:27.000Z</time>
      </trkpt>
      <trkpt lat="44.41906" lon="6.98887">
        <ele>2182.1999511719</ele>
        <time>2024-09-13T08:25:28.000Z</time>
      </trkpt>
      <trkpt lat="44.41906" lon="6.98888">
        <ele>2182.6000976562</ele>
        <time>2024-09-13T08:25:29.000Z</time>
      </trkpt>
      <trkpt lat="44.41905" lon="6.98888">
        <ele>2182.8000488281</ele>
        <time>2024-09-13T08:25:30.000Z</time>
      </trkpt>
      <trkpt lat="44.41905" lon="6.98889">
        <ele>2183</ele>
        <time>2024-09-13T08:25:31.000Z</time>
      </trkpt>
      <trkpt lat="44.41904" lon="6.9889">
        <ele>2183.1999511719</ele>
        <time>2024-09-13T08:25:32.000Z</time>
      </trkpt>
      <trkpt lat="44.41904" lon="6.98891">
        <ele>2183.1999511719</ele>
        <time>2024-09-13T08:25:33.000Z</time>
      </trkpt>
      <trkpt lat="44.41903" lon="6.98892">
        <ele>2183.3999023438</ele>
        <time>2024-09-13T08:25:34.000Z</time>
      </trkpt>
      <trkpt lat="44.41903" lon="6.98893">
        <ele>2183.6000976562</ele>
        <time>2024-09-13T08:25:35.000Z</time>
      </trkpt>
      <trkpt lat="44.41902" lon="6.98894">
        <ele>2183.8000488281</ele>
        <time>2024-09-13T08:25:36.000Z</time>
      </trkpt>
      <trkpt lat="44.41902" lon="6.98895">
        <ele>2184.1999511719</ele>
        <time>2024-09-13T08:25:37.000Z</time>
      </trkpt>
      <trkpt lat="44.41902" lon="6.98896">
        <ele>2184.1999511719</ele>
        <time>2024-09-13T08:25:38.000Z</time>
      </trkpt>
      <trkpt lat="44.41902" lon="6.98897">
        <ele>2184.3999023438</ele>
        <time>2024-09-13T08:25:39.000Z</time>
      </trkpt>
      <trkpt lat="44.41901" lon="6.98898">
        <ele>2184.6000976562</ele>
        <time>2024-09-13T08:25:40.000Z</time>
      </trkpt>
      <trkpt lat="44.419" lon="6.98899">
        <ele>2184.8000488281</ele>
        <time>2024-09-13T08:25:41.000Z</time>
      </trkpt>
      <trkpt lat="44.41899" lon="6.989">
        <ele>2184.8000488281</ele>
        <time>2024-09-13T08:25:42.000Z</time>
      </trkpt>
      <trkpt lat="44.41899" lon="6.989">
        <ele>2185</ele>
        <time>2024-09-13T08:25:43.000Z</time>
      </trkpt>
      <trkpt lat="44.41898" lon="6.98901">
        <ele>2185.1999511719</ele>
        <time>2024-09-13T08:25:44.000Z</time>
      </trkpt>
      <trkpt lat="44.41897" lon="6.98902">
        <ele>2185.3999023438</ele>
        <time>2024-09-13T08:25:45.000Z</time>
      </trkpt>
      <trkpt lat="44.41897" lon="6.98902">
        <ele>2185.6000976562</ele>
        <time>2024-09-13T08:25:46.000Z</time>
      </trkpt>
      <trkpt lat="44.41896" lon="6.98903">
        <ele>2185.6000976562</ele>
        <time>2024-09-13T08:25:47.000Z</time>
      </trkpt>
      <trkpt lat="44.41895" lon="6.98904">
        <ele>2185.8000488281</ele>
        <time>2024-09-13T08:25:48.000Z</time>
      </trkpt>
      <trkpt lat="44.41895" lon="6.98905">
        <ele>2186.1999511719</ele>
        <time>2024-09-13T08:25:49.000Z</time>
      </trkpt>
      <trkpt lat="44.41894" lon="6.98906">
        <ele>2186.1999511719</ele>
        <time>2024-09-13T08:25:50.000Z</time>
      </trkpt>
      <trkpt lat="44.41894" lon="6.98907">
        <ele>2186.3999023438</ele>
        <time>2024-09-13T08:25:51.000Z</time>
      </trkpt>
      <trkpt lat="44.41893" lon="6.98908">
        <ele>2186.6000976562</ele>
        <time>2024-09-13T08:25:52.000Z</time>
      </trkpt>
      <trkpt lat="44.41893" lon="6.98909">
        <ele>2186.8000488281</ele>
        <time>2024-09-13T08:25:53.000Z</time>
      </trkpt>
      <trkpt lat="44.41892" lon="6.9891">
        <ele>2187</ele>
        <time>2024-09-13T08:25:54.000Z</time>
      </trkpt>
      <trkpt lat="44.41892" lon="6.98911">
        <ele>2187.1999511719</ele>
        <time>2024-09-13T08:25:55.000Z</time>
      </trkpt>
      <trkpt lat="44.41891" lon="6.98912">
        <ele>2187.3999023438</ele>
        <time>2024-09-13T08:25:56.000Z</time>
      </trkpt>
      <trkpt lat="44.41891" lon="6.98913">
        <ele>2187.6000976562</ele>
        <time>2024-09-13T08:25:57.000Z</time>
      </trkpt>
      <trkpt lat="44.41891" lon="6.98914">
        <ele>2187.8000488281</ele>
        <time>2024-09-13T08:25:58.000Z</time>
      </trkpt>
      <trkpt lat="44.41891" lon="6.98915">
        <ele>2188</ele>
        <time>2024-09-13T08:25:59.000Z</time>
      </trkpt>
      <trkpt lat="44.41891" lon="6.98916">
        <ele>2188.1999511719</ele>
        <time>2024-09-13T08:26:00.000Z</time>
      </trkpt>
      <trkpt lat="44.4189" lon="6.98917">
        <ele>2188.6000976562</ele>
        <time>2024-09-13T08:26:01.000Z</time>
      </trkpt>
      <trkpt lat="44.4189" lon="6.98917">
        <ele>2188.8000488281</ele>
        <time>2024-09-13T08:26:02.000Z</time>
      </trkpt>
      <trkpt lat="44.4189" lon="6.98918">
        <ele>2189</ele>
        <time>2024-09-13T08:26:03.000Z</time>
      </trkpt>
      <trkpt lat="44.41889" lon="6.98919">
        <ele>2189.3999023438</ele>
        <time>2024-09-13T08:26:04.000Z</time>
      </trkpt>
      <trkpt lat="44.41889" lon="6.98919">
        <ele>2189.3999023438</ele>
        <time>2024-09-13T08:26:05.000Z</time>
      </trkpt>
      <trkpt lat="44.41888" lon="6.98919">
        <ele>2189.6000976562</ele>
        <time>2024-09-13T08:26:06.000Z</time>
      </trkpt>
      <trkpt lat="44.41888" lon="6.9892">
        <ele>2189.6000976562</ele>
        <time>2024-09-13T08:26:07.000Z</time>
      </trkpt>
      <trkpt lat="44.41887" lon="6.98921">
        <ele>2189.8000488281</ele>
        <time>2024-09-13T08:26:08.000Z</time>
      </trkpt>
      <trkpt lat="44.41887" lon="6.98922">
        <ele>2190</ele>
        <time>2024-09-13T08:26:09.000Z</time>
      </trkpt>
      <trkpt lat="44.41887" lon="6.98923">
        <ele>2190.1999511719</ele>
        <time>2024-09-13T08:26:10.000Z</time>
      </trkpt>
      <trkpt lat="44.41887" lon="6.98924">
        <ele>2190.3999023438</ele>
        <time>2024-09-13T08:26:11.000Z</time>
      </trkpt>
      <trkpt lat="44.41887" lon="6.98925">
        <ele>2190.3999023438</ele>
        <time>2024-09-13T08:26:12.000Z</time>
      </trkpt>
      <trkpt lat="44.41886" lon="6.98926">
        <ele>2190.8000488281</ele>
        <time>2024-09-13T08:26:13.000Z</time>
      </trkpt>
      <trkpt lat="44.41886" lon="6.98927">
        <ele>2190.8000488281</ele>
        <time>2024-09-13T08:26:14.000Z</time>
      </trkpt>
      <trkpt lat="44.41885" lon="6.98928">
        <ele>2191</ele>
        <time>2024-09-13T08:26:15.000Z</time>
      </trkpt>
      <trkpt lat="44.41885" lon="6.9893">
        <ele>2191.1999511719</ele>
        <time>2024-09-13T08:26:16.000Z</time>
      </trkpt>
      <trkpt lat="44.41885" lon="6.98931">
        <ele>2191.1999511719</ele>
        <time>2024-09-13T08:26:17.000Z</time>
      </trkpt>
      <trkpt lat="44.41884" lon="6.98932">
        <ele>2191.3999023438</ele>
        <time>2024-09-13T08:26:18.000Z</time>
      </trkpt>
      <trkpt lat="44.41884" lon="6.98933">
        <ele>2191.3999023438</ele>
        <time>2024-09-13T08:26:19.000Z</time>
      </trkpt>
      <trkpt lat="44.41883" lon="6.98934">
        <ele>2191.6000976562</ele>
        <time>2024-09-13T08:26:20.000Z</time>
      </trkpt>
      <trkpt lat="44.41883" lon="6.98935">
        <ele>2191.6000976562</ele>
        <time>2024-09-13T08:26:21.000Z</time>
      </trkpt>
      <trkpt lat="44.41882" lon="6.98936">
        <ele>2191.8000488281</ele>
        <time>2024-09-13T08:26:22.000Z</time>
      </trkpt>
      <trkpt lat="44.41881" lon="6.98937">
        <ele>2192</ele>
        <time>2024-09-13T08:26:23.000Z</time>
      </trkpt>
      <trkpt lat="44.41881" lon="6.98938">
        <ele>2192</ele>
        <time>2024-09-13T08:26:24.000Z</time>
      </trkpt>
      <trkpt lat="44.41881" lon="6.98939">
        <ele>2192.3999023438</ele>
        <time>2024-09-13T08:26:25.000Z</time>
      </trkpt>
      <trkpt lat="44.41881" lon="6.9894">
        <ele>2192.6000976562</ele>
        <time>2024-09-13T08:26:26.000Z</time>
      </trkpt>
      <trkpt lat="44.4188" lon="6.98941">
        <ele>2192.8000488281</ele>
        <time>2024-09-13T08:26:27.000Z</time>
      </trkpt>
      <trkpt lat="44.4188" lon="6.98942">
        <ele>2193</ele>
        <time>2024-09-13T08:26:28.000Z</time>
      </trkpt>
      <trkpt lat="44.41879" lon="6.98944">
        <ele>2193.1999511719</ele>
        <time>2024-09-13T08:26:29.000Z</time>
      </trkpt>
      <trkpt lat="44.41879" lon="6.98945">
        <ele>2193.3999023438</ele>
        <time>2024-09-13T08:26:30.000Z</time>
      </trkpt>
      <trkpt lat="44.41878" lon="6.98946">
        <ele>2193.3999023438</ele>
        <time>2024-09-13T08:26:31.000Z</time>
      </trkpt>
      <trkpt lat="44.41878" lon="6.98947">
        <ele>2193.6000976562</ele>
        <time>2024-09-13T08:26:32.000Z</time>
      </trkpt>
      <trkpt lat="44.41877" lon="6.98948">
        <ele>2193.8000488281</ele>
        <time>2024-09-13T08:26:33.000Z</time>
      </trkpt>
      <trkpt lat="44.41876" lon="6.98949">
        <ele>2193.8000488281</ele>
        <time>2024-09-13T08:26:34.000Z</time>
      </trkpt>
      <trkpt lat="44.41876" lon="6.9895">
        <ele>2194</ele>
        <time>2024-09-13T08:26:35.000Z</time>
      </trkpt>
      <trkpt lat="44.41875" lon="6.98951">
        <ele>2194</ele>
        <time>2024-09-13T08:26:36.000Z</time>
      </trkpt>
      <trkpt lat="44.41874" lon="6.98952">
        <ele>2194.1999511719</ele>
        <time>2024-09-13T08:26:37.000Z</time>
      </trkpt>
      <trkpt lat="44.41874" lon="6.98954">
        <ele>2194.1999511719</ele>
        <time>2024-09-13T08:26:38.000Z</time>
      </trkpt>
      <trkpt lat="44.41873" lon="6.98955">
        <ele>2194.3999023438</ele>
        <time>2024-09-13T08:26:39.000Z</time>
      </trkpt>
      <trkpt lat="44.41872" lon="6.98956">
        <ele>2194.3999023438</ele>
        <time>2024-09-13T08:26:40.000Z</time>
      </trkpt>
      <trkpt lat="44.41871" lon="6.98957">
        <ele>2194.3999023438</ele>
        <time>2024-09-13T08:26:41.000Z</time>
      </trkpt>
      <trkpt lat="44.4187" lon="6.98959">
        <ele>2194.3999023438</ele>
        <time>2024-09-13T08:26:42.000Z</time>
      </trkpt>
      <trkpt lat="44.41869" lon="6.98961">
        <ele>2194.3999023438</ele>
        <time>2024-09-13T08:26:43.000Z</time>
      </trkpt>
      <trkpt lat="44.41869" lon="6.98964">
        <ele>2194.3999023438</ele>
        <time>2024-09-13T08:26:44.000Z</time>
      </trkpt>
      <trkpt lat="44.41868" lon="6.98966">
        <ele>2194.3999023438</ele>
        <time>2024-09-13T08:26:45.000Z</time>
      </trkpt>
      <trkpt lat="44.41868" lon="6.98968">
        <ele>2194.6000976562</ele>
        <time>2024-09-13T08:26:46.000Z</time>
      </trkpt>
      <trkpt lat="44.41867" lon="6.9897">
        <ele>2194.6000976562</ele>
        <time>2024-09-13T08:26:47.000Z</time>
      </trkpt>
      <trkpt lat="44.41867" lon="6.98971">
        <ele>2194.6000976562</ele>
        <time>2024-09-13T08:26:48.000Z</time>
      </trkpt>
      <trkpt lat="44.41867" lon="6.98973">
        <ele>2194.6000976562</ele>
        <time>2024-09-13T08:26:49.000Z</time>
      </trkpt>
      <trkpt lat="44.41866" lon="6.98974">
        <ele>2194.6000976562</ele>
        <time>2024-09-13T08:26:50.000Z</time>
      </trkpt>
      <trkpt lat="44.41865" lon="6.98975">
        <ele>2194.8000488281</ele>
        <time>2024-09-13T08:26:51.000Z</time>
      </trkpt>
      <trkpt lat="44.41864" lon="6.98978">
        <ele>2194.8000488281</ele>
        <time>2024-09-13T08:26:53.000Z</time>
      </trkpt>
      <trkpt lat="44.41863" lon="6.98982">
        <ele>2195.3999023438</ele>
        <time>2024-09-13T08:26:55.000Z</time>
      </trkpt>
      <trkpt lat="44.41863" lon="6.98985">
        <ele>2195.8000488281</ele>
        <time>2024-09-13T08:26:57.000Z</time>
      </trkpt>
      <trkpt lat="44.41862" lon="6.98987">
        <ele>2196</ele>
        <time>2024-09-13T08:26:58.000Z</time>
      </trkpt>
      <trkpt lat="44.41862" lon="6.98987">
        <ele>2196.3999023438</ele>
        <time>2024-09-13T08:26:59.000Z</time>
      </trkpt>
      <trkpt lat="44.41861" lon="6.98989">
        <ele>2196.6000976562</ele>
        <time>2024-09-13T08:27:01.000Z</time>
      </trkpt>
      <trkpt lat="44.41862" lon="6.98989">
        <ele>2196.6000976562</ele>
        <time>2024-09-13T08:27:02.000Z</time>
      </trkpt>
      <trkpt lat="44.41862" lon="6.98988">
        <ele>2196.8000488281</ele>
        <time>2024-09-13T08:27:04.000Z</time>
      </trkpt>
      <trkpt lat="44.41862" lon="6.98988">
        <ele>2197</ele>
        <time>2024-09-13T08:27:05.000Z</time>
      </trkpt>
      <trkpt lat="44.41862" lon="6.98989">
        <ele>2197</ele>
        <time>2024-09-13T08:27:06.000Z</time>
      </trkpt>
      <trkpt lat="44.41862" lon="6.9899">
        <ele>2197</ele>
        <time>2024-09-13T08:27:07.000Z</time>
      </trkpt>
      <trkpt lat="44.41862" lon="6.98991">
        <ele>2197</ele>
        <time>2024-09-13T08:27:08.000Z</time>
      </trkpt>
      <trkpt lat="44.41861" lon="6.98991">
        <ele>2197</ele>
        <time>2024-09-13T08:27:09.000Z</time>
      </trkpt>
      <trkpt lat="44.41861" lon="6.98993">
        <ele>2197</ele>
        <time>2024-09-13T08:27:10.000Z</time>
      </trkpt>
      <trkpt lat="44.4186" lon="6.98994">
        <ele>2197</ele>
        <time>2024-09-13T08:27:11.000Z</time>
      </trkpt>
      <trkpt lat="44.4186" lon="6.98995">
        <ele>2197</ele>
        <time>2024-09-13T08:27:12.000Z</time>
      </trkpt>
      <trkpt lat="44.41859" lon="6.98996">
        <ele>2197</ele>
        <time>2024-09-13T08:27:13.000Z</time>
      </trkpt>
      <trkpt lat="44.41859" lon="6.98997">
        <ele>2197.1999511719</ele>
        <time>2024-09-13T08:27:14.000Z</time>
      </trkpt>
      <trkpt lat="44.41858" lon="6.98998">
        <ele>2197.3999023438</ele>
        <time>2024-09-13T08:27:15.000Z</time>
      </trkpt>
      <trkpt lat="44.41858" lon="6.99">
        <ele>2197.8000488281</ele>
        <time>2024-09-13T08:27:17.000Z</time>
      </trkpt>
      <trkpt lat="44.41858" lon="6.99001">
        <ele>2197.8000488281</ele>
        <time>2024-09-13T08:27:18.000Z</time>
      </trkpt>
      <trkpt lat="44.41857" lon="6.99001">
        <ele>2198</ele>
        <time>2024-09-13T08:27:19.000Z</time>
      </trkpt>
      <trkpt lat="44.41857" lon="6.99002">
        <ele>2198.1999511719</ele>
        <time>2024-09-13T08:27:20.000Z</time>
      </trkpt>
      <trkpt lat="44.41857" lon="6.99002">
        <ele>2198.1999511719</ele>
        <time>2024-09-13T08:27:21.000Z</time>
      </trkpt>
      <trkpt lat="44.41858" lon="6.99001">
        <ele>2198.6000976562</ele>
        <time>2024-09-13T08:27:23.000Z</time>
      </trkpt>
      <trkpt lat="44.41858" lon="6.98999">
        <ele>2198.8000488281</ele>
        <time>2024-09-13T08:27:29.000Z</time>
      </trkpt>
      <trkpt lat="44.41858" lon="6.99002">
        <ele>2198.6000976562</ele>
        <time>2024-09-13T08:27:32.000Z</time>
      </trkpt>
      <trkpt lat="44.41857" lon="6.99003">
        <ele>2198.6000976562</ele>
        <time>2024-09-13T08:27:33.000Z</time>
      </trkpt>
      <trkpt lat="44.41856" lon="6.99007">
        <ele>2198.6000976562</ele>
        <time>2024-09-13T08:27:36.000Z</time>
      </trkpt>
      <trkpt lat="44.41856" lon="6.99008">
        <ele>2198.6000976562</ele>
        <time>2024-09-13T08:27:37.000Z</time>
      </trkpt>
      <trkpt lat="44.41855" lon="6.99011">
        <ele>2199.1999511719</ele>
        <time>2024-09-13T08:27:40.000Z</time>
      </trkpt>
      <trkpt lat="44.41855" lon="6.99011">
        <ele>2199.1999511719</ele>
        <time>2024-09-13T08:27:41.000Z</time>
      </trkpt>
      <trkpt lat="44.41854" lon="6.99012">
        <ele>2199.3999023438</ele>
        <time>2024-09-13T08:27:42.000Z</time>
      </trkpt>
      <trkpt lat="44.41854" lon="6.99013">
        <ele>2199.6000976562</ele>
        <time>2024-09-13T08:27:43.000Z</time>
      </trkpt>
      <trkpt lat="44.41854" lon="6.99013">
        <ele>2199.8000488281</ele>
        <time>2024-09-13T08:27:44.000Z</time>
      </trkpt>
      <trkpt lat="44.41854" lon="6.99015">
        <ele>2200.3999023438</ele>
        <time>2024-09-13T08:27:46.000Z</time>
      </trkpt>
      <trkpt lat="44.41854" lon="6.99019">
        <ele>2200.6000976562</ele>
        <time>2024-09-13T08:27:49.000Z</time>
      </trkpt>
      <trkpt lat="44.41854" lon="6.99021">
        <ele>2200.8000488281</ele>
        <time>2024-09-13T08:27:51.000Z</time>
      </trkpt>
      <trkpt lat="44.41853" lon="6.99022">
        <ele>2201</ele>
        <time>2024-09-13T08:27:52.000Z</time>
      </trkpt>
      <trkpt lat="44.41853" lon="6.99024">
        <ele>2201.1999511719</ele>
        <time>2024-09-13T08:27:53.000Z</time>
      </trkpt>
      <trkpt lat="44.41853" lon="6.99024">
        <ele>2201.3999023438</ele>
        <time>2024-09-13T08:27:54.000Z</time>
      </trkpt>
      <trkpt lat="44.41852" lon="6.99026">
        <ele>2201.6000976562</ele>
        <time>2024-09-13T08:27:55.000Z</time>
      </trkpt>
      <trkpt lat="44.41852" lon="6.99027">
        <ele>2201.6000976562</ele>
        <time>2024-09-13T08:27:56.000Z</time>
      </trkpt>
      <trkpt lat="44.41852" lon="6.99027">
        <ele>2201.8000488281</ele>
        <time>2024-09-13T08:27:57.000Z</time>
      </trkpt>
      <trkpt lat="44.41852" lon="6.99029">
        <ele>2201.8000488281</ele>
        <time>2024-09-13T08:27:58.000Z</time>
      </trkpt>
      <trkpt lat="44.41851" lon="6.99031">
        <ele>2202</ele>
        <time>2024-09-13T08:27:59.000Z</time>
      </trkpt>
      <trkpt lat="44.41851" lon="6.99031">
        <ele>2202.1999511719</ele>
        <time>2024-09-13T08:28:00.000Z</time>
      </trkpt>
      <trkpt lat="44.41851" lon="6.99033">
        <ele>2202.1999511719</ele>
        <time>2024-09-13T08:28:01.000Z</time>
      </trkpt>
      <trkpt lat="44.41852" lon="6.99034">
        <ele>2202.3999023438</ele>
        <time>2024-09-13T08:28:02.000Z</time>
      </trkpt>
      <trkpt lat="44.41851" lon="6.99036">
        <ele>2202.6000976562</ele>
        <time>2024-09-13T08:28:03.000Z</time>
      </trkpt>
      <trkpt lat="44.41851" lon="6.99037">
        <ele>2202.8000488281</ele>
        <time>2024-09-13T08:28:04.000Z</time>
      </trkpt>
      <trkpt lat="44.41851" lon="6.99036">
        <ele>2203</ele>
        <time>2024-09-13T08:28:06.000Z</time>
      </trkpt>
      <trkpt lat="44.41851" lon="6.99036">
        <ele>2203.1999511719</ele>
        <time>2024-09-13T08:28:08.000Z</time>
      </trkpt>
      <trkpt lat="44.41851" lon="6.99036">
        <ele>2203.1999511719</ele>
        <time>2024-09-13T08:28:15.000Z</time>
      </trkpt>
      <trkpt lat="44.41851" lon="6.99036">
        <ele>2203.1999511719</ele>
        <time>2024-09-13T08:28:16.000Z</time>
      </trkpt>
      <trkpt lat="44.41851" lon="6.99036">
        <ele>2203.1999511719</ele>
        <time>2024-09-13T08:28:17.000Z</time>
      </trkpt>
      <trkpt lat="44.41851" lon="6.99036">
        <ele>2203.1999511719</ele>
        <time>2024-09-13T08:28:19.000Z</time>
      </trkpt>
      <trkpt lat="44.41851" lon="6.99036">
        <ele>2203.1999511719</ele>
        <time>2024-09-13T08:28:20.000Z</time>
      </trkpt>
      <trkpt lat="44.41851" lon="6.99036">
        <ele>2203.1999511719</ele>
        <time>2024-09-13T08:28:25.000Z</time>
      </trkpt>
      <trkpt lat="44.41851" lon="6.99036">
        <ele>2202.3999023438</ele>
        <time>2024-09-13T08:28:31.000Z</time>
      </trkpt>
      <trkpt lat="44.41851" lon="6.99036">
        <ele>2202.6000976562</ele>
        <time>2024-09-13T08:28:40.000Z</time>
      </trkpt>
      <trkpt lat="44.41851" lon="6.99036">
        <ele>2202.6000976562</ele>
        <time>2024-09-13T08:28:42.000Z</time>
      </trkpt>
      <trkpt lat="44.41851" lon="6.99036">
        <ele>2202.6000976562</ele>
        <time>2024-09-13T08:28:44.000Z</time>
      </trkpt>
      <trkpt lat="44.41851" lon="6.99036">
        <ele>2202.8000488281</ele>
        <time>2024-09-13T08:28:51.000Z</time>
      </trkpt>
      <trkpt lat="44.41851" lon="6.99036">
        <ele>2203</ele>
        <time>2024-09-13T08:29:01.000Z</time>
      </trkpt>
      <trkpt lat="44.41851" lon="6.99036">
        <ele>2203</ele>
        <time>2024-09-13T08:29:04.000Z</time>
      </trkpt>
      <trkpt lat="44.41851" lon="6.99036">
        <ele>2203</ele>
        <time>2024-09-13T08:29:06.000Z</time>
      </trkpt>
      <trkpt lat="44.41851" lon="6.99036">
        <ele>2203</ele>
        <time>2024-09-13T08:29:07.000Z</time>
      </trkpt>
      <trkpt lat="44.41851" lon="6.99036">
        <ele>2203</ele>
        <time>2024-09-13T08:29:08.000Z</time>
      </trkpt>
      <trkpt lat="44.41851" lon="6.99036">
        <ele>2202.8000488281</ele>
        <time>2024-09-13T08:29:26.000Z</time>
      </trkpt>
      <trkpt lat="44.41851" lon="6.99036">
        <ele>2202.8000488281</ele>
        <time>2024-09-13T08:29:32.000Z</time>
      </trkpt>
      <trkpt lat="44.41851" lon="6.99036">
        <ele>2202.8000488281</ele>
        <time>2024-09-13T08:29:39.000Z</time>
      </trkpt>
      <trkpt lat="44.41851" lon="6.99036">
        <ele>2202.8000488281</ele>
        <time>2024-09-13T08:29:49.000Z</time>
      </trkpt>
      <trkpt lat="44.41851" lon="6.99036">
        <ele>2202.8000488281</ele>
        <time>2024-09-13T08:29:52.000Z</time>
      </trkpt>
      <trkpt lat="44.41851" lon="6.99036">
        <ele>2202.8000488281</ele>
        <time>2024-09-13T08:30:12.000Z</time>
      </trkpt>
      <trkpt lat="44.41851" lon="6.99036">
        <ele>2202.8000488281</ele>
        <time>2024-09-13T08:30:31.000Z</time>
      </trkpt>
      <trkpt lat="44.41851" lon="6.99036">
        <ele>2202.8000488281</ele>
        <time>2024-09-13T08:30:35.000Z</time>
      </trkpt>
      <trkpt lat="44.41851" lon="6.99036">
        <ele>2202.8000488281</ele>
        <time>2024-09-13T08:30:49.000Z</time>
      </trkpt>
      <trkpt lat="44.41851" lon="6.99036">
        <ele>2202.8000488281</ele>
        <time>2024-09-13T08:31:01.000Z</time>
      </trkpt>
      <trkpt lat="44.41851" lon="6.99036">
        <ele>2204.8000488281</ele>
        <time>2024-09-13T08:31:09.000Z</time>
      </trkpt>
      <trkpt lat="44.41851" lon="6.99036">
        <ele>2205.3999023438</ele>
        <time>2024-09-13T08:31:34.000Z</time>
      </trkpt>
      <trkpt lat="44.41851" lon="6.99036">
        <ele>2205.3999023438</ele>
        <time>2024-09-13T08:31:37.000Z</time>
      </trkpt>
      <trkpt lat="44.41851" lon="6.99036">
        <ele>2205.6000976562</ele>
        <time>2024-09-13T08:32:03.000Z</time>
      </trkpt>
      <trkpt lat="44.41851" lon="6.99036">
        <ele>2205.6000976562</ele>
        <time>2024-09-13T08:32:12.000Z</time>
      </trkpt>
      <trkpt lat="44.41851" lon="6.99036">
        <ele>2205.6000976562</ele>
        <time>2024-09-13T08:32:16.000Z</time>
      </trkpt>
      <trkpt lat="44.41851" lon="6.99036">
        <ele>2205.6000976562</ele>
        <time>2024-09-13T08:32:19.000Z</time>
      </trkpt>
      <trkpt lat="44.41851" lon="6.99036">
        <ele>2205.6000976562</ele>
        <time>2024-09-13T08:32:21.000Z</time>
      </trkpt>
      <trkpt lat="44.41851" lon="6.99036">
        <ele>2205.6000976562</ele>
        <time>2024-09-13T08:32:41.000Z</time>
      </trkpt>
      <trkpt lat="44.41851" lon="6.99036">
        <ele>2205.6000976562</ele>
        <time>2024-09-13T08:32:43.000Z</time>
      </trkpt>
      <trkpt lat="44.41851" lon="6.99036">
        <ele>2205.6000976562</ele>
        <time>2024-09-13T08:32:48.000Z</time>
      </trkpt>
      <trkpt lat="44.41851" lon="6.99036">
        <ele>2205.6000976562</ele>
        <time>2024-09-13T08:33:10.000Z</time>
      </trkpt>
      <trkpt lat="44.41851" lon="6.99036">
        <ele>2205.6000976562</ele>
        <time>2024-09-13T08:33:17.000Z</time>
      </trkpt>
      <trkpt lat="44.41851" lon="6.99036">
        <ele>2205.6000976562</ele>
        <time>2024-09-13T08:33:31.000Z</time>
      </trkpt>
      <trkpt lat="44.41851" lon="6.99039">
        <ele>2205.6000976562</ele>
        <time>2024-09-13T08:33:39.000Z</time>
      </trkpt>
      <trkpt lat="44.41851" lon="6.99039">
        <ele>2205.6000976562</ele>
        <time>2024-09-13T08:33:42.000Z</time>
      </trkpt>
      <trkpt lat="44.41851" lon="6.99039">
        <ele>2205.6000976562</ele>
        <time>2024-09-13T08:33:45.000Z</time>
      </trkpt>
      <trkpt lat="44.41851" lon="6.99038">
        <ele>2205.6000976562</ele>
        <time>2024-09-13T08:33:54.000Z</time>
      </trkpt>
      <trkpt lat="44.41851" lon="6.99038">
        <ele>2205.6000976562</ele>
        <time>2024-09-13T08:33:55.000Z</time>
      </trkpt>
      <trkpt lat="44.41851" lon="6.99039">
        <ele>2205.6000976562</ele>
        <time>2024-09-13T08:33:57.000Z</time>
      </trkpt>
      <trkpt lat="44.41851" lon="6.99039">
        <ele>2205.6000976562</ele>
        <time>2024-09-13T08:34:08.000Z</time>
      </trkpt>
      <trkpt lat="44.41851" lon="6.99039">
        <ele>2205.6000976562</ele>
        <time>2024-09-13T08:34:09.000Z</time>
      </trkpt>
      <trkpt lat="44.41851" lon="6.99039">
        <ele>2205.6000976562</ele>
        <time>2024-09-13T08:34:17.000Z</time>
      </trkpt>
      <trkpt lat="44.41851" lon="6.99039">
        <ele>2205.6000976562</ele>
        <time>2024-09-13T08:34:43.000Z</time>
      </trkpt>
      <trkpt lat="44.41851" lon="6.99039">
        <ele>2205.6000976562</ele>
        <time>2024-09-13T08:35:08.000Z</time>
      </trkpt>
      <trkpt lat="44.41851" lon="6.99039">
        <ele>2205.6000976562</ele>
        <time>2024-09-13T08:35:11.000Z</time>
      </trkpt>
      <trkpt lat="44.41851" lon="6.99036">
        <ele>2205.6000976562</ele>
        <time>2024-09-13T08:35:34.000Z</time>
      </trkpt>
      <trkpt lat="44.41851" lon="6.99036">
        <ele>2205.6000976562</ele>
        <time>2024-09-13T08:35:38.000Z</time>
      </trkpt>
      <trkpt lat="44.41851" lon="6.99036">
        <ele>2205.6000976562</ele>
        <time>2024-09-13T08:35:46.000Z</time>
      </trkpt>
      <trkpt lat="44.41851" lon="6.99036">
        <ele>2205.6000976562</ele>
        <time>2024-09-13T08:35:50.000Z</time>
      </trkpt>
      <trkpt lat="44.41851" lon="6.99036">
        <ele>2205.6000976562</ele>
        <time>2024-09-13T08:36:02.000Z</time>
      </trkpt>
      <trkpt lat="44.41851" lon="6.99036">
        <ele>2205.6000976562</ele>
        <time>2024-09-13T08:36:14.000Z</time>
      </trkpt>
      <trkpt lat="44.41851" lon="6.99036">
        <ele>2205.6000976562</ele>
        <time>2024-09-13T08:36:34.000Z</time>
      </trkpt>
      <trkpt lat="44.41851" lon="6.99039">
        <ele>2205.6000976562</ele>
        <time>2024-09-13T08:36:53.000Z</time>
      </trkpt>
      <trkpt lat="44.41851" lon="6.99039">
        <ele>2205.6000976562</ele>
        <time>2024-09-13T08:36:54.000Z</time>
      </trkpt>
      <trkpt lat="44.41851" lon="6.9904">
        <ele>2205.6000976562</ele>
        <time>2024-09-13T08:36:55.000Z</time>
      </trkpt>
      <trkpt lat="44.41852" lon="6.9904">
        <ele>2205.6000976562</ele>
        <time>2024-09-13T08:37:00.000Z</time>
      </trkpt>
      <trkpt lat="44.41851" lon="6.99039">
        <ele>2205.6000976562</ele>
        <time>2024-09-13T08:37:01.000Z</time>
      </trkpt>
      <trkpt lat="44.41852" lon="6.99041">
        <ele>2205.6000976562</ele>
        <time>2024-09-13T08:37:03.000Z</time>
      </trkpt>
      <trkpt lat="44.41853" lon="6.99041">
        <ele>2205.6000976562</ele>
        <time>2024-09-13T08:37:04.000Z</time>
      </trkpt>
      <trkpt lat="44.41853" lon="6.99041">
        <ele>2205.6000976562</ele>
        <time>2024-09-13T08:37:07.000Z</time>
      </trkpt>
      <trkpt lat="44.41853" lon="6.99041">
        <ele>2205.6000976562</ele>
        <time>2024-09-13T08:37:16.000Z</time>
      </trkpt>
      <trkpt lat="44.41853" lon="6.99041">
        <ele>2205.6000976562</ele>
        <time>2024-09-13T08:37:21.000Z</time>
      </trkpt>
      <trkpt lat="44.41853" lon="6.99041">
        <ele>2205.6000976562</ele>
        <time>2024-09-13T08:37:25.000Z</time>
      </trkpt>
      <trkpt lat="44.41853" lon="6.99041">
        <ele>2205.6000976562</ele>
        <time>2024-09-13T08:37:32.000Z</time>
      </trkpt>
      <trkpt lat="44.41853" lon="6.99041">
        <ele>2205.6000976562</ele>
        <time>2024-09-13T08:37:38.000Z</time>
      </trkpt>
      <trkpt lat="44.41853" lon="6.99041">
        <ele>2205.6000976562</ele>
        <time>2024-09-13T08:37:40.000Z</time>
      </trkpt>
      <trkpt lat="44.41853" lon="6.99042">
        <ele>2205.6000976562</ele>
        <time>2024-09-13T08:37:50.000Z</time>
      </trkpt>
      <trkpt lat="44.41853" lon="6.99041">
        <ele>2205.6000976562</ele>
        <time>2024-09-13T08:38:00.000Z</time>
      </trkpt>
      <trkpt lat="44.41853" lon="6.99041">
        <ele>2205.6000976562</ele>
        <time>2024-09-13T08:38:03.000Z</time>
      </trkpt>
      <trkpt lat="44.41854" lon="6.99044">
        <ele>2205.6000976562</ele>
        <time>2024-09-13T08:38:04.000Z</time>
      </trkpt>
      <trkpt lat="44.41854" lon="6.99044">
        <ele>2205.6000976562</ele>
        <time>2024-09-13T08:38:05.000Z</time>
      </trkpt>
      <trkpt lat="44.41854" lon="6.99044">
        <ele>2205.6000976562</ele>
        <time>2024-09-13T08:38:06.000Z</time>
      </trkpt>
      <trkpt lat="44.41854" lon="6.99044">
        <ele>2205.6000976562</ele>
        <time>2024-09-13T08:38:09.000Z</time>
      </trkpt>
      <trkpt lat="44.41854" lon="6.99044">
        <ele>2205.6000976562</ele>
        <time>2024-09-13T08:38:17.000Z</time>
      </trkpt>
      <trkpt lat="44.41854" lon="6.99044">
        <ele>2205.6000976562</ele>
        <time>2024-09-13T08:38:27.000Z</time>
      </trkpt>
      <trkpt lat="44.41854" lon="6.99044">
        <ele>2205.6000976562</ele>
        <time>2024-09-13T08:38:29.000Z</time>
      </trkpt>
      <trkpt lat="44.41854" lon="6.99044">
        <ele>2205.6000976562</ele>
        <time>2024-09-13T08:38:56.000Z</time>
      </trkpt>
      <trkpt lat="44.41854" lon="6.99044">
        <ele>2205.6000976562</ele>
        <time>2024-09-13T08:39:09.000Z</time>
      </trkpt>
      <trkpt lat="44.41854" lon="6.99044">
        <ele>2205.6000976562</ele>
        <time>2024-09-13T08:39:12.000Z</time>
      </trkpt>
      <trkpt lat="44.41854" lon="6.99044">
        <ele>2205.6000976562</ele>
        <time>2024-09-13T08:39:14.000Z</time>
      </trkpt>
      <trkpt lat="44.41854" lon="6.99044">
        <ele>2205.6000976562</ele>
        <time>2024-09-13T08:39:25.000Z</time>
      </trkpt>
      <trkpt lat="44.41854" lon="6.99044">
        <ele>2205.6000976562</ele>
        <time>2024-09-13T08:39:26.000Z</time>
      </trkpt>
      <trkpt lat="44.41854" lon="6.99044">
        <ele>2205.6000976562</ele>
        <time>2024-09-13T08:39:27.000Z</time>
      </trkpt>
      <trkpt lat="44.41853" lon="6.99043">
        <ele>2205.6000976562</ele>
        <time>2024-09-13T08:39:35.000Z</time>
      </trkpt>
      <trkpt lat="44.41855" lon="6.99042">
        <ele>2205.6000976562</ele>
        <time>2024-09-13T08:39:46.000Z</time>
      </trkpt>
      <trkpt lat="44.41855" lon="6.99042">
        <ele>2208.3999023438</ele>
        <time>2024-09-13T08:39:47.000Z</time>
      </trkpt>
      <trkpt lat="44.41855" lon="6.99042">
        <ele>2208.6000976562</ele>
        <time>2024-09-13T08:39:49.000Z</time>
      </trkpt>
      <trkpt lat="44.41854" lon="6.99044">
        <ele>2208.8000488281</ele>
        <time>2024-09-13T08:39:52.000Z</time>
      </trkpt>
      <trkpt lat="44.41854" lon="6.99047">
        <ele>2208.8000488281</ele>
        <time>2024-09-13T08:39:53.000Z</time>
      </trkpt>
      <trkpt lat="44.41853" lon="6.99047">
        <ele>2208.8000488281</ele>
        <time>2024-09-13T08:39:54.000Z</time>
      </trkpt>
      <trkpt lat="44.41853" lon="6.99047">
        <ele>2208.8000488281</ele>
        <time>2024-09-13T08:39:55.000Z</time>
      </trkpt>
      <trkpt lat="44.41852" lon="6.99049">
        <ele>2208.8000488281</ele>
        <time>2024-09-13T08:39:56.000Z</time>
      </trkpt>
      <trkpt lat="44.41852" lon="6.9905">
        <ele>2208.8000488281</ele>
        <time>2024-09-13T08:39:57.000Z</time>
      </trkpt>
      <trkpt lat="44.41852" lon="6.99051">
        <ele>2209</ele>
        <time>2024-09-13T08:39:58.000Z</time>
      </trkpt>
      <trkpt lat="44.41852" lon="6.99052">
        <ele>2209.1999511719</ele>
        <time>2024-09-13T08:39:59.000Z</time>
      </trkpt>
      <trkpt lat="44.41852" lon="6.99053">
        <ele>2209.1999511719</ele>
        <time>2024-09-13T08:40:00.000Z</time>
      </trkpt>
      <trkpt lat="44.41852" lon="6.99054">
        <ele>2209.1999511719</ele>
        <time>2024-09-13T08:40:01.000Z</time>
      </trkpt>
      <trkpt lat="44.41852" lon="6.99055">
        <ele>2209.3999023438</ele>
        <time>2024-09-13T08:40:02.000Z</time>
      </trkpt>
      <trkpt lat="44.41852" lon="6.99056">
        <ele>2209.6000976562</ele>
        <time>2024-09-13T08:40:03.000Z</time>
      </trkpt>
      <trkpt lat="44.41852" lon="6.99057">
        <ele>2209.8000488281</ele>
        <time>2024-09-13T08:40:04.000Z</time>
      </trkpt>
      <trkpt lat="44.41851" lon="6.99057">
        <ele>2210.1999511719</ele>
        <time>2024-09-13T08:40:07.000Z</time>
      </trkpt>
      <trkpt lat="44.41851" lon="6.99057">
        <ele>2210.1999511719</ele>
        <time>2024-09-13T08:40:11.000Z</time>
      </trkpt>
      <trkpt lat="44.41851" lon="6.9906">
        <ele>2210.1999511719</ele>
        <time>2024-09-13T08:40:12.000Z</time>
      </trkpt>
      <trkpt lat="44.4185" lon="6.99062">
        <ele>2210.1999511719</ele>
        <time>2024-09-13T08:40:13.000Z</time>
      </trkpt>
      <trkpt lat="44.4185" lon="6.99063">
        <ele>2210.1999511719</ele>
        <time>2024-09-13T08:40:14.000Z</time>
      </trkpt>
      <trkpt lat="44.4185" lon="6.99063">
        <ele>2210.1999511719</ele>
        <time>2024-09-13T08:40:15.000Z</time>
      </trkpt>
      <trkpt lat="44.4185" lon="6.99064">
        <ele>2210.1999511719</ele>
        <time>2024-09-13T08:40:16.000Z</time>
      </trkpt>
      <trkpt lat="44.4185" lon="6.99065">
        <ele>2210.3999023438</ele>
        <time>2024-09-13T08:40:17.000Z</time>
      </trkpt>
      <trkpt lat="44.41849" lon="6.99065">
        <ele>2210.3999023438</ele>
        <time>2024-09-13T08:40:18.000Z</time>
      </trkpt>
      <trkpt lat="44.41849" lon="6.99066">
        <ele>2210.3999023438</ele>
        <time>2024-09-13T08:40:19.000Z</time>
      </trkpt>
      <trkpt lat="44.41849" lon="6.99067">
        <ele>2210.6000976562</ele>
        <time>2024-09-13T08:40:20.000Z</time>
      </trkpt>
      <trkpt lat="44.41849" lon="6.99069">
        <ele>2210.6000976562</ele>
        <time>2024-09-13T08:40:22.000Z</time>
      </trkpt>
      <trkpt lat="44.41849" lon="6.9907">
        <ele>2210.6000976562</ele>
        <time>2024-09-13T08:40:23.000Z</time>
      </trkpt>
      <trkpt lat="44.41848" lon="6.99071">
        <ele>2210.6000976562</ele>
        <time>2024-09-13T08:40:24.000Z</time>
      </trkpt>
      <trkpt lat="44.41848" lon="6.99072">
        <ele>2210.8000488281</ele>
        <time>2024-09-13T08:40:25.000Z</time>
      </trkpt>
      <trkpt lat="44.41848" lon="6.99073">
        <ele>2211</ele>
        <time>2024-09-13T08:40:26.000Z</time>
      </trkpt>
      <trkpt lat="44.41848" lon="6.99077">
        <ele>2211.3999023438</ele>
        <time>2024-09-13T08:40:29.000Z</time>
      </trkpt>
      <trkpt lat="44.41848" lon="6.99078">
        <ele>2211.6000976562</ele>
        <time>2024-09-13T08:40:30.000Z</time>
      </trkpt>
      <trkpt lat="44.41848" lon="6.99079">
        <ele>2211.8000488281</ele>
        <time>2024-09-13T08:40:31.000Z</time>
      </trkpt>
      <trkpt lat="44.41848" lon="6.9908">
        <ele>2212</ele>
        <time>2024-09-13T08:40:32.000Z</time>
      </trkpt>
      <trkpt lat="44.41848" lon="6.99082">
        <ele>2212.1999511719</ele>
        <time>2024-09-13T08:40:33.000Z</time>
      </trkpt>
      <trkpt lat="44.41848" lon="6.99082">
        <ele>2212.1999511719</ele>
        <time>2024-09-13T08:40:34.000Z</time>
      </trkpt>
      <trkpt lat="44.41847" lon="6.99084">
        <ele>2212.3999023438</ele>
        <time>2024-09-13T08:40:35.000Z</time>
      </trkpt>
      <trkpt lat="44.41846" lon="6.99085">
        <ele>2212.6000976562</ele>
        <time>2024-09-13T08:40:37.000Z</time>
      </trkpt>
      <trkpt lat="44.41845" lon="6.99086">
        <ele>2212.6000976562</ele>
        <time>2024-09-13T08:40:38.000Z</time>
      </trkpt>
      <trkpt lat="44.41844" lon="6.99086">
        <ele>2212.8000488281</ele>
        <time>2024-09-13T08:40:39.000Z</time>
      </trkpt>
      <trkpt lat="44.41844" lon="6.99087">
        <ele>2213</ele>
        <time>2024-09-13T08:40:40.000Z</time>
      </trkpt>
      <trkpt lat="44.41843" lon="6.99088">
        <ele>2213.1999511719</ele>
        <time>2024-09-13T08:40:41.000Z</time>
      </trkpt>
      <trkpt lat="44.41843" lon="6.99089">
        <ele>2213.3999023438</ele>
        <time>2024-09-13T08:40:42.000Z</time>
      </trkpt>
      <trkpt lat="44.41842" lon="6.9909">
        <ele>2213.3999023438</ele>
        <time>2024-09-13T08:40:43.000Z</time>
      </trkpt>
      <trkpt lat="44.41841" lon="6.99091">
        <ele>2213.6000976562</ele>
        <time>2024-09-13T08:40:44.000Z</time>
      </trkpt>
      <trkpt lat="44.41841" lon="6.99092">
        <ele>2213.6000976562</ele>
        <time>2024-09-13T08:40:45.000Z</time>
      </trkpt>
      <trkpt lat="44.4184" lon="6.99093">
        <ele>2214</ele>
        <time>2024-09-13T08:40:46.000Z</time>
      </trkpt>
      <trkpt lat="44.4184" lon="6.99093">
        <ele>2214.1999511719</ele>
        <time>2024-09-13T08:40:47.000Z</time>
      </trkpt>
      <trkpt lat="44.4184" lon="6.99094">
        <ele>2214.3999023438</ele>
        <time>2024-09-13T08:40:48.000Z</time>
      </trkpt>
      <trkpt lat="44.4184" lon="6.99095">
        <ele>2214.6000976562</ele>
        <time>2024-09-13T08:40:49.000Z</time>
      </trkpt>
      <trkpt lat="44.4184" lon="6.99096">
        <ele>2214.8000488281</ele>
        <time>2024-09-13T08:40:50.000Z</time>
      </trkpt>
      <trkpt lat="44.4184" lon="6.99097">
        <ele>2214.8000488281</ele>
        <time>2024-09-13T08:40:51.000Z</time>
      </trkpt>
      <trkpt lat="44.4184" lon="6.99099">
        <ele>2215</ele>
        <time>2024-09-13T08:40:52.000Z</time>
      </trkpt>
      <trkpt lat="44.4184" lon="6.991">
        <ele>2215</ele>
        <time>2024-09-13T08:40:53.000Z</time>
      </trkpt>
      <trkpt lat="44.41841" lon="6.99101">
        <ele>2215.1999511719</ele>
        <time>2024-09-13T08:40:54.000Z</time>
      </trkpt>
      <trkpt lat="44.41841" lon="6.99103">
        <ele>2215.3999023438</ele>
        <time>2024-09-13T08:40:55.000Z</time>
      </trkpt>
      <trkpt lat="44.41842" lon="6.99104">
        <ele>2215.3999023438</ele>
        <time>2024-09-13T08:40:56.000Z</time>
      </trkpt>
      <trkpt lat="44.41843" lon="6.99105">
        <ele>2215.6000976562</ele>
        <time>2024-09-13T08:40:57.000Z</time>
      </trkpt>
      <trkpt lat="44.41843" lon="6.99105">
        <ele>2216</ele>
        <time>2024-09-13T08:40:58.000Z</time>
      </trkpt>
      <trkpt lat="44.41843" lon="6.99105">
        <ele>2216.1999511719</ele>
        <time>2024-09-13T08:40:59.000Z</time>
      </trkpt>
      <trkpt lat="44.41844" lon="6.99107">
        <ele>2216.1999511719</ele>
        <time>2024-09-13T08:41:00.000Z</time>
      </trkpt>
      <trkpt lat="44.41844" lon="6.99108">
        <ele>2216.3999023438</ele>
        <time>2024-09-13T08:41:01.000Z</time>
      </trkpt>
      <trkpt lat="44.41843" lon="6.99109">
        <ele>2216.6000976562</ele>
        <time>2024-09-13T08:41:02.000Z</time>
      </trkpt>
      <trkpt lat="44.41843" lon="6.9911">
        <ele>2216.6000976562</ele>
        <time>2024-09-13T08:41:03.000Z</time>
      </trkpt>
      <trkpt lat="44.41843" lon="6.99111">
        <ele>2216.8000488281</ele>
        <time>2024-09-13T08:41:04.000Z</time>
      </trkpt>
      <trkpt lat="44.41843" lon="6.99113">
        <ele>2216.8000488281</ele>
        <time>2024-09-13T08:41:05.000Z</time>
      </trkpt>
      <trkpt lat="44.41842" lon="6.99114">
        <ele>2217</ele>
        <time>2024-09-13T08:41:06.000Z</time>
      </trkpt>
      <trkpt lat="44.41841" lon="6.99115">
        <ele>2217.1999511719</ele>
        <time>2024-09-13T08:41:07.000Z</time>
      </trkpt>
      <trkpt lat="44.41841" lon="6.99115">
        <ele>2217.3999023438</ele>
        <time>2024-09-13T08:41:08.000Z</time>
      </trkpt>
      <trkpt lat="44.4184" lon="6.99114">
        <ele>2217.8000488281</ele>
        <time>2024-09-13T08:41:09.000Z</time>
      </trkpt>
      <trkpt lat="44.41839" lon="6.99114">
        <ele>2218</ele>
        <time>2024-09-13T08:41:10.000Z</time>
      </trkpt>
      <trkpt lat="44.41839" lon="6.99114">
        <ele>2218.1999511719</ele>
        <time>2024-09-13T08:41:11.000Z</time>
      </trkpt>
      <trkpt lat="44.41839" lon="6.99114">
        <ele>2218.6000976562</ele>
        <time>2024-09-13T08:41:12.000Z</time>
      </trkpt>
      <trkpt lat="44.41839" lon="6.99114">
        <ele>2218.8000488281</ele>
        <time>2024-09-13T08:41:14.000Z</time>
      </trkpt>
      <trkpt lat="44.41838" lon="6.99112">
        <ele>2219</ele>
        <time>2024-09-13T08:41:15.000Z</time>
      </trkpt>
      <trkpt lat="44.41837" lon="6.99112">
        <ele>2219</ele>
        <time>2024-09-13T08:41:16.000Z</time>
      </trkpt>
      <trkpt lat="44.41836" lon="6.99112">
        <ele>2219.1999511719</ele>
        <time>2024-09-13T08:41:17.000Z</time>
      </trkpt>
      <trkpt lat="44.41835" lon="6.99111">
        <ele>2219.1999511719</ele>
        <time>2024-09-13T08:41:18.000Z</time>
      </trkpt>
      <trkpt lat="44.41835" lon="6.9911">
        <ele>2219.3999023438</ele>
        <time>2024-09-13T08:41:19.000Z</time>
      </trkpt>
      <trkpt lat="44.41834" lon="6.9911">
        <ele>2219.3999023438</ele>
        <time>2024-09-13T08:41:20.000Z</time>
      </trkpt>
      <trkpt lat="44.41833" lon="6.99109">
        <ele>2219.3999023438</ele>
        <time>2024-09-13T08:41:21.000Z</time>
      </trkpt>
      <trkpt lat="44.41832" lon="6.99109">
        <ele>2219.6000976562</ele>
        <time>2024-09-13T08:41:22.000Z</time>
      </trkpt>
      <trkpt lat="44.41831" lon="6.99108">
        <ele>2219.8000488281</ele>
        <time>2024-09-13T08:41:23.000Z</time>
      </trkpt>
      <trkpt lat="44.41829" lon="6.99109">
        <ele>2220</ele>
        <time>2024-09-13T08:41:24.000Z</time>
      </trkpt>
      <trkpt lat="44.41828" lon="6.99109">
        <ele>2220.1999511719</ele>
        <time>2024-09-13T08:41:25.000Z</time>
      </trkpt>
      <trkpt lat="44.41827" lon="6.99109">
        <ele>2220.6000976562</ele>
        <time>2024-09-13T08:41:26.000Z</time>
      </trkpt>
      <trkpt lat="44.41826" lon="6.99109">
        <ele>2220.8000488281</ele>
        <time>2024-09-13T08:41:27.000Z</time>
      </trkpt>
      <trkpt lat="44.41825" lon="6.99109">
        <ele>2221</ele>
        <time>2024-09-13T08:41:28.000Z</time>
      </trkpt>
      <trkpt lat="44.41825" lon="6.9911">
        <ele>2221</ele>
        <time>2024-09-13T08:41:29.000Z</time>
      </trkpt>
      <trkpt lat="44.41824" lon="6.9911">
        <ele>2221.3999023438</ele>
        <time>2024-09-13T08:41:30.000Z</time>
      </trkpt>
      <trkpt lat="44.41823" lon="6.99111">
        <ele>2221.6000976562</ele>
        <time>2024-09-13T08:41:31.000Z</time>
      </trkpt>
      <trkpt lat="44.41823" lon="6.99111">
        <ele>2222</ele>
        <time>2024-09-13T08:41:32.000Z</time>
      </trkpt>
      <trkpt lat="44.41823" lon="6.99112">
        <ele>2222.3999023438</ele>
        <time>2024-09-13T08:41:33.000Z</time>
      </trkpt>
      <trkpt lat="44.41822" lon="6.99113">
        <ele>2222.8000488281</ele>
        <time>2024-09-13T08:41:34.000Z</time>
      </trkpt>
      <trkpt lat="44.41822" lon="6.99114">
        <ele>2223</ele>
        <time>2024-09-13T08:41:35.000Z</time>
      </trkpt>
      <trkpt lat="44.41821" lon="6.99115">
        <ele>2223</ele>
        <time>2024-09-13T08:41:36.000Z</time>
      </trkpt>
      <trkpt lat="44.41821" lon="6.99116">
        <ele>2223.1999511719</ele>
        <time>2024-09-13T08:41:37.000Z</time>
      </trkpt>
      <trkpt lat="44.41821" lon="6.99116">
        <ele>2223.3999023438</ele>
        <time>2024-09-13T08:41:38.000Z</time>
      </trkpt>
      <trkpt lat="44.4182" lon="6.99117">
        <ele>2223.3999023438</ele>
        <time>2024-09-13T08:41:39.000Z</time>
      </trkpt>
      <trkpt lat="44.4182" lon="6.99118">
        <ele>2223.3999023438</ele>
        <time>2024-09-13T08:41:40.000Z</time>
      </trkpt>
      <trkpt lat="44.41819" lon="6.99119">
        <ele>2223.8000488281</ele>
        <time>2024-09-13T08:41:41.000Z</time>
      </trkpt>
      <trkpt lat="44.41819" lon="6.9912">
        <ele>2224</ele>
        <time>2024-09-13T08:41:42.000Z</time>
      </trkpt>
      <trkpt lat="44.41819" lon="6.99121">
        <ele>2224.1999511719</ele>
        <time>2024-09-13T08:41:43.000Z</time>
      </trkpt>
      <trkpt lat="44.4182" lon="6.99122">
        <ele>2224.1999511719</ele>
        <time>2024-09-13T08:41:44.000Z</time>
      </trkpt>
      <trkpt lat="44.4182" lon="6.99123">
        <ele>2224.3999023438</ele>
        <time>2024-09-13T08:41:45.000Z</time>
      </trkpt>
      <trkpt lat="44.41821" lon="6.99124">
        <ele>2224.6000976562</ele>
        <time>2024-09-13T08:41:46.000Z</time>
      </trkpt>
      <trkpt lat="44.41821" lon="6.99125">
        <ele>2224.8000488281</ele>
        <time>2024-09-13T08:41:47.000Z</time>
      </trkpt>
      <trkpt lat="44.41822" lon="6.99126">
        <ele>2225</ele>
        <time>2024-09-13T08:41:48.000Z</time>
      </trkpt>
      <trkpt lat="44.41822" lon="6.99127">
        <ele>2225.1999511719</ele>
        <time>2024-09-13T08:41:49.000Z</time>
      </trkpt>
      <trkpt lat="44.41823" lon="6.99128">
        <ele>2225.3999023438</ele>
        <time>2024-09-13T08:41:50.000Z</time>
      </trkpt>
      <trkpt lat="44.41823" lon="6.99129">
        <ele>2225.3999023438</ele>
        <time>2024-09-13T08:41:51.000Z</time>
      </trkpt>
      <trkpt lat="44.41824" lon="6.9913">
        <ele>2225.6000976562</ele>
        <time>2024-09-13T08:41:52.000Z</time>
      </trkpt>
      <trkpt lat="44.41824" lon="6.99131">
        <ele>2226</ele>
        <time>2024-09-13T08:41:53.000Z</time>
      </trkpt>
      <trkpt lat="44.41825" lon="6.99132">
        <ele>2226</ele>
        <time>2024-09-13T08:41:54.000Z</time>
      </trkpt>
      <trkpt lat="44.41825" lon="6.99133">
        <ele>2226.1999511719</ele>
        <time>2024-09-13T08:41:55.000Z</time>
      </trkpt>
      <trkpt lat="44.41825" lon="6.99134">
        <ele>2226.3999023438</ele>
        <time>2024-09-13T08:41:56.000Z</time>
      </trkpt>
      <trkpt lat="44.41825" lon="6.99135">
        <ele>2226.8000488281</ele>
        <time>2024-09-13T08:41:57.000Z</time>
      </trkpt>
      <trkpt lat="44.41825" lon="6.99136">
        <ele>2227</ele>
        <time>2024-09-13T08:41:58.000Z</time>
      </trkpt>
      <trkpt lat="44.41825" lon="6.99137">
        <ele>2227.1999511719</ele>
        <time>2024-09-13T08:41:59.000Z</time>
      </trkpt>
      <trkpt lat="44.41825" lon="6.99138">
        <ele>2227.3999023438</ele>
        <time>2024-09-13T08:42:00.000Z</time>
      </trkpt>
      <trkpt lat="44.41826" lon="6.99139">
        <ele>2227.6000976562</ele>
        <time>2024-09-13T08:42:01.000Z</time>
      </trkpt>
      <trkpt lat="44.41827" lon="6.9914">
        <ele>2227.6000976562</ele>
        <time>2024-09-13T08:42:02.000Z</time>
      </trkpt>
      <trkpt lat="44.41827" lon="6.99141">
        <ele>2227.8000488281</ele>
        <time>2024-09-13T08:42:03.000Z</time>
      </trkpt>
      <trkpt lat="44.41828" lon="6.99142">
        <ele>2228</ele>
        <time>2024-09-13T08:42:04.000Z</time>
      </trkpt>
      <trkpt lat="44.41829" lon="6.99143">
        <ele>2228.1999511719</ele>
        <time>2024-09-13T08:42:05.000Z</time>
      </trkpt>
      <trkpt lat="44.41829" lon="6.99144">
        <ele>2228.3999023438</ele>
        <time>2024-09-13T08:42:06.000Z</time>
      </trkpt>
      <trkpt lat="44.41829" lon="6.99145">
        <ele>2228.8000488281</ele>
        <time>2024-09-13T08:42:07.000Z</time>
      </trkpt>
      <trkpt lat="44.4183" lon="6.99146">
        <ele>2228.8000488281</ele>
        <time>2024-09-13T08:42:08.000Z</time>
      </trkpt>
      <trkpt lat="44.4183" lon="6.99148">
        <ele>2228.8000488281</ele>
        <time>2024-09-13T08:42:09.000Z</time>
      </trkpt>
      <trkpt lat="44.4183" lon="6.99149">
        <ele>2229</ele>
        <time>2024-09-13T08:42:10.000Z</time>
      </trkpt>
      <trkpt lat="44.41831" lon="6.9915">
        <ele>2229</ele>
        <time>2024-09-13T08:42:11.000Z</time>
      </trkpt>
      <trkpt lat="44.41831" lon="6.99151">
        <ele>2229.1999511719</ele>
        <time>2024-09-13T08:42:12.000Z</time>
      </trkpt>
      <trkpt lat="44.41831" lon="6.99152">
        <ele>2229.3999023438</ele>
        <time>2024-09-13T08:42:13.000Z</time>
      </trkpt>
      <trkpt lat="44.41832" lon="6.99153">
        <ele>2229.3999023438</ele>
        <time>2024-09-13T08:42:14.000Z</time>
      </trkpt>
      <trkpt lat="44.41832" lon="6.99155">
        <ele>2229.6000976562</ele>
        <time>2024-09-13T08:42:15.000Z</time>
      </trkpt>
      <trkpt lat="44.41832" lon="6.99156">
        <ele>2229.8000488281</ele>
        <time>2024-09-13T08:42:16.000Z</time>
      </trkpt>
      <trkpt lat="44.41832" lon="6.99158">
        <ele>2230</ele>
        <time>2024-09-13T08:42:17.000Z</time>
      </trkpt>
      <trkpt lat="44.41831" lon="6.99159">
        <ele>2230</ele>
        <time>2024-09-13T08:42:18.000Z</time>
      </trkpt>
      <trkpt lat="44.41831" lon="6.99161">
        <ele>2230.1999511719</ele>
        <time>2024-09-13T08:42:19.000Z</time>
      </trkpt>
      <trkpt lat="44.41831" lon="6.99161">
        <ele>2230.1999511719</ele>
        <time>2024-09-13T08:42:20.000Z</time>
      </trkpt>
      <trkpt lat="44.41831" lon="6.99162">
        <ele>2230.6000976562</ele>
        <time>2024-09-13T08:42:21.000Z</time>
      </trkpt>
      <trkpt lat="44.4183" lon="6.99163">
        <ele>2230.8000488281</ele>
        <time>2024-09-13T08:42:22.000Z</time>
      </trkpt>
      <trkpt lat="44.4183" lon="6.99165">
        <ele>2231</ele>
        <time>2024-09-13T08:42:23.000Z</time>
      </trkpt>
      <trkpt lat="44.4183" lon="6.99166">
        <ele>2231.1999511719</ele>
        <time>2024-09-13T08:42:24.000Z</time>
      </trkpt>
      <trkpt lat="44.4183" lon="6.99167">
        <ele>2231.3999023438</ele>
        <time>2024-09-13T08:42:25.000Z</time>
      </trkpt>
      <trkpt lat="44.4183" lon="6.99169">
        <ele>2231.6000976562</ele>
        <time>2024-09-13T08:42:26.000Z</time>
      </trkpt>
      <trkpt lat="44.4183" lon="6.9917">
        <ele>2231.8000488281</ele>
        <time>2024-09-13T08:42:27.000Z</time>
      </trkpt>
      <trkpt lat="44.41829" lon="6.99171">
        <ele>2231.8000488281</ele>
        <time>2024-09-13T08:42:28.000Z</time>
      </trkpt>
      <trkpt lat="44.41829" lon="6.99172">
        <ele>2232</ele>
        <time>2024-09-13T08:42:29.000Z</time>
      </trkpt>
      <trkpt lat="44.4183" lon="6.99173">
        <ele>2232.1999511719</ele>
        <time>2024-09-13T08:42:30.000Z</time>
      </trkpt>
      <trkpt lat="44.4183" lon="6.99174">
        <ele>2232.3999023438</ele>
        <time>2024-09-13T08:42:31.000Z</time>
      </trkpt>
      <trkpt lat="44.4183" lon="6.99175">
        <ele>2232.6000976562</ele>
        <time>2024-09-13T08:42:32.000Z</time>
      </trkpt>
      <trkpt lat="44.41829" lon="6.99177">
        <ele>2232.8000488281</ele>
        <time>2024-09-13T08:42:33.000Z</time>
      </trkpt>
      <trkpt lat="44.41829" lon="6.99177">
        <ele>2233.1999511719</ele>
        <time>2024-09-13T08:42:34.000Z</time>
      </trkpt>
      <trkpt lat="44.41828" lon="6.99178">
        <ele>2233.3999023438</ele>
        <time>2024-09-13T08:42:35.000Z</time>
      </trkpt>
      <trkpt lat="44.41827" lon="6.99178">
        <ele>2233.6000976562</ele>
        <time>2024-09-13T08:42:36.000Z</time>
      </trkpt>
      <trkpt lat="44.41826" lon="6.99178">
        <ele>2233.6000976562</ele>
        <time>2024-09-13T08:42:37.000Z</time>
      </trkpt>
      <trkpt lat="44.41825" lon="6.99179">
        <ele>2233.6000976562</ele>
        <time>2024-09-13T08:42:38.000Z</time>
      </trkpt>
      <trkpt lat="44.41824" lon="6.9918">
        <ele>2233.8000488281</ele>
        <time>2024-09-13T08:42:39.000Z</time>
      </trkpt>
      <trkpt lat="44.41823" lon="6.99181">
        <ele>2234</ele>
        <time>2024-09-13T08:42:40.000Z</time>
      </trkpt>
      <trkpt lat="44.41823" lon="6.99181">
        <ele>2234.1999511719</ele>
        <time>2024-09-13T08:42:41.000Z</time>
      </trkpt>
      <trkpt lat="44.41822" lon="6.99182">
        <ele>2234.1999511719</ele>
        <time>2024-09-13T08:42:42.000Z</time>
      </trkpt>
      <trkpt lat="44.41822" lon="6.99182">
        <ele>2234.3999023438</ele>
        <time>2024-09-13T08:42:43.000Z</time>
      </trkpt>
      <trkpt lat="44.41822" lon="6.99183">
        <ele>2234.6000976562</ele>
        <time>2024-09-13T08:42:44.000Z</time>
      </trkpt>
      <trkpt lat="44.41822" lon="6.99184">
        <ele>2234.8000488281</ele>
        <time>2024-09-13T08:42:45.000Z</time>
      </trkpt>
      <trkpt lat="44.41822" lon="6.99185">
        <ele>2235</ele>
        <time>2024-09-13T08:42:46.000Z</time>
      </trkpt>
      <trkpt lat="44.41822" lon="6.99187">
        <ele>2235.1999511719</ele>
        <time>2024-09-13T08:42:47.000Z</time>
      </trkpt>
      <trkpt lat="44.41821" lon="6.99189">
        <ele>2235.3999023438</ele>
        <time>2024-09-13T08:42:48.000Z</time>
      </trkpt>
      <trkpt lat="44.4182" lon="6.9919">
        <ele>2235.6000976562</ele>
        <time>2024-09-13T08:42:49.000Z</time>
      </trkpt>
      <trkpt lat="44.41819" lon="6.99191">
        <ele>2235.6000976562</ele>
        <time>2024-09-13T08:42:50.000Z</time>
      </trkpt>
      <trkpt lat="44.41818" lon="6.99191">
        <ele>2235.8000488281</ele>
        <time>2024-09-13T08:42:51.000Z</time>
      </trkpt>
      <trkpt lat="44.41817" lon="6.99192">
        <ele>2236</ele>
        <time>2024-09-13T08:42:52.000Z</time>
      </trkpt>
      <trkpt lat="44.41816" lon="6.99192">
        <ele>2236.1999511719</ele>
        <time>2024-09-13T08:42:53.000Z</time>
      </trkpt>
      <trkpt lat="44.41815" lon="6.99192">
        <ele>2236.3999023438</ele>
        <time>2024-09-13T08:42:54.000Z</time>
      </trkpt>
      <trkpt lat="44.41814" lon="6.99192">
        <ele>2236.6000976562</ele>
        <time>2024-09-13T08:42:55.000Z</time>
      </trkpt>
      <trkpt lat="44.41813" lon="6.99192">
        <ele>2236.6000976562</ele>
        <time>2024-09-13T08:42:56.000Z</time>
      </trkpt>
      <trkpt lat="44.41812" lon="6.99192">
        <ele>2236.8000488281</ele>
        <time>2024-09-13T08:42:57.000Z</time>
      </trkpt>
      <trkpt lat="44.41812" lon="6.99193">
        <ele>2237</ele>
        <time>2024-09-13T08:42:58.000Z</time>
      </trkpt>
      <trkpt lat="44.41812" lon="6.99195">
        <ele>2237.1999511719</ele>
        <time>2024-09-13T08:42:59.000Z</time>
      </trkpt>
      <trkpt lat="44.41813" lon="6.99196">
        <ele>2237.6000976562</ele>
        <time>2024-09-13T08:43:00.000Z</time>
      </trkpt>
      <trkpt lat="44.41813" lon="6.99197">
        <ele>2237.6000976562</ele>
        <time>2024-09-13T08:43:01.000Z</time>
      </trkpt>
      <trkpt lat="44.41814" lon="6.99198">
        <ele>2237.8000488281</ele>
        <time>2024-09-13T08:43:02.000Z</time>
      </trkpt>
      <trkpt lat="44.41814" lon="6.99199">
        <ele>2237.8000488281</ele>
        <time>2024-09-13T08:43:03.000Z</time>
      </trkpt>
      <trkpt lat="44.41814" lon="6.992">
        <ele>2238.1999511719</ele>
        <time>2024-09-13T08:43:04.000Z</time>
      </trkpt>
      <trkpt lat="44.41813" lon="6.99202">
        <ele>2238.3999023438</ele>
        <time>2024-09-13T08:43:05.000Z</time>
      </trkpt>
      <trkpt lat="44.41813" lon="6.99203">
        <ele>2238.3999023438</ele>
        <time>2024-09-13T08:43:06.000Z</time>
      </trkpt>
      <trkpt lat="44.41813" lon="6.99204">
        <ele>2238.8000488281</ele>
        <time>2024-09-13T08:43:07.000Z</time>
      </trkpt>
      <trkpt lat="44.41813" lon="6.99205">
        <ele>2238.8000488281</ele>
        <time>2024-09-13T08:43:08.000Z</time>
      </trkpt>
      <trkpt lat="44.41813" lon="6.99206">
        <ele>2238.8000488281</ele>
        <time>2024-09-13T08:43:09.000Z</time>
      </trkpt>
      <trkpt lat="44.41812" lon="6.99207">
        <ele>2239</ele>
        <time>2024-09-13T08:43:10.000Z</time>
      </trkpt>
      <trkpt lat="44.41812" lon="6.99207">
        <ele>2239.1999511719</ele>
        <time>2024-09-13T08:43:11.000Z</time>
      </trkpt>
      <trkpt lat="44.41811" lon="6.99208">
        <ele>2239.3999023438</ele>
        <time>2024-09-13T08:43:12.000Z</time>
      </trkpt>
      <trkpt lat="44.4181" lon="6.99209">
        <ele>2239.6000976562</ele>
        <time>2024-09-13T08:43:13.000Z</time>
      </trkpt>
      <trkpt lat="44.4181" lon="6.9921">
        <ele>2239.6000976562</ele>
        <time>2024-09-13T08:43:14.000Z</time>
      </trkpt>
      <trkpt lat="44.41809" lon="6.99211">
        <ele>2239.8000488281</ele>
        <time>2024-09-13T08:43:15.000Z</time>
      </trkpt>
      <trkpt lat="44.41809" lon="6.99212">
        <ele>2240.1999511719</ele>
        <time>2024-09-13T08:43:16.000Z</time>
      </trkpt>
      <trkpt lat="44.41808" lon="6.99213">
        <ele>2240.1999511719</ele>
        <time>2024-09-13T08:43:17.000Z</time>
      </trkpt>
      <trkpt lat="44.41807" lon="6.99214">
        <ele>2240.3999023438</ele>
        <time>2024-09-13T08:43:18.000Z</time>
      </trkpt>
      <trkpt lat="44.41807" lon="6.99215">
        <ele>2240.3999023438</ele>
        <time>2024-09-13T08:43:19.000Z</time>
      </trkpt>
      <trkpt lat="44.41806" lon="6.99216">
        <ele>2240.6000976562</ele>
        <time>2024-09-13T08:43:20.000Z</time>
      </trkpt>
      <trkpt lat="44.41805" lon="6.99217">
        <ele>2240.8000488281</ele>
        <time>2024-09-13T08:43:21.000Z</time>
      </trkpt>
      <trkpt lat="44.41804" lon="6.99217">
        <ele>2240.8000488281</ele>
        <time>2024-09-13T08:43:22.000Z</time>
      </trkpt>
      <trkpt lat="44.41803" lon="6.99218">
        <ele>2241</ele>
        <time>2024-09-13T08:43:23.000Z</time>
      </trkpt>
      <trkpt lat="44.41803" lon="6.99219">
        <ele>2241</ele>
        <time>2024-09-13T08:43:24.000Z</time>
      </trkpt>
      <trkpt lat="44.41802" lon="6.9922">
        <ele>2241.1999511719</ele>
        <time>2024-09-13T08:43:25.000Z</time>
      </trkpt>
      <trkpt lat="44.41801" lon="6.99221">
        <ele>2241.3999023438</ele>
        <time>2024-09-13T08:43:26.000Z</time>
      </trkpt>
      <trkpt lat="44.41801" lon="6.99221">
        <ele>2241.3999023438</ele>
        <time>2024-09-13T08:43:27.000Z</time>
      </trkpt>
      <trkpt lat="44.418" lon="6.99221">
        <ele>2241.6000976562</ele>
        <time>2024-09-13T08:43:28.000Z</time>
      </trkpt>
      <trkpt lat="44.41799" lon="6.99222">
        <ele>2241.8000488281</ele>
        <time>2024-09-13T08:43:29.000Z</time>
      </trkpt>
      <trkpt lat="44.41799" lon="6.99222">
        <ele>2241.8000488281</ele>
        <time>2024-09-13T08:43:30.000Z</time>
      </trkpt>
      <trkpt lat="44.41798" lon="6.99222">
        <ele>2242</ele>
        <time>2024-09-13T08:43:31.000Z</time>
      </trkpt>
      <trkpt lat="44.41796" lon="6.99222">
        <ele>2242</ele>
        <time>2024-09-13T08:43:32.000Z</time>
      </trkpt>
      <trkpt lat="44.41796" lon="6.99223">
        <ele>2242.3999023438</ele>
        <time>2024-09-13T08:43:33.000Z</time>
      </trkpt>
      <trkpt lat="44.41795" lon="6.99223">
        <ele>2242.6000976562</ele>
        <time>2024-09-13T08:43:34.000Z</time>
      </trkpt>
      <trkpt lat="44.41795" lon="6.99223">
        <ele>2242.6000976562</ele>
        <time>2024-09-13T08:43:35.000Z</time>
      </trkpt>
      <trkpt lat="44.41794" lon="6.99224">
        <ele>2242.8000488281</ele>
        <time>2024-09-13T08:43:36.000Z</time>
      </trkpt>
      <trkpt lat="44.41793" lon="6.99224">
        <ele>2243</ele>
        <time>2024-09-13T08:43:37.000Z</time>
      </trkpt>
      <trkpt lat="44.41793" lon="6.99225">
        <ele>2243.1999511719</ele>
        <time>2024-09-13T08:43:38.000Z</time>
      </trkpt>
      <trkpt lat="44.41792" lon="6.99225">
        <ele>2243.3999023438</ele>
        <time>2024-09-13T08:43:39.000Z</time>
      </trkpt>
      <trkpt lat="44.41791" lon="6.99226">
        <ele>2243.3999023438</ele>
        <time>2024-09-13T08:43:40.000Z</time>
      </trkpt>
      <trkpt lat="44.4179" lon="6.99227">
        <ele>2243.6000976562</ele>
        <time>2024-09-13T08:43:41.000Z</time>
      </trkpt>
      <trkpt lat="44.4179" lon="6.99227">
        <ele>2244</ele>
        <time>2024-09-13T08:43:42.000Z</time>
      </trkpt>
      <trkpt lat="44.41789" lon="6.99228">
        <ele>2244.3999023438</ele>
        <time>2024-09-13T08:43:43.000Z</time>
      </trkpt>
      <trkpt lat="44.41788" lon="6.99228">
        <ele>2244.3999023438</ele>
        <time>2024-09-13T08:43:44.000Z</time>
      </trkpt>
      <trkpt lat="44.41787" lon="6.99228">
        <ele>2244.8000488281</ele>
        <time>2024-09-13T08:43:45.000Z</time>
      </trkpt>
      <trkpt lat="44.41787" lon="6.99229">
        <ele>2245.1999511719</ele>
        <time>2024-09-13T08:43:46.000Z</time>
      </trkpt>
      <trkpt lat="44.41786" lon="6.99229">
        <ele>2245.3999023438</ele>
        <time>2024-09-13T08:43:47.000Z</time>
      </trkpt>
      <trkpt lat="44.41786" lon="6.9923">
        <ele>2245.6000976562</ele>
        <time>2024-09-13T08:43:48.000Z</time>
      </trkpt>
      <trkpt lat="44.41785" lon="6.9923">
        <ele>2246</ele>
        <time>2024-09-13T08:43:49.000Z</time>
      </trkpt>
      <trkpt lat="44.41785" lon="6.99231">
        <ele>2246.1999511719</ele>
        <time>2024-09-13T08:43:50.000Z</time>
      </trkpt>
      <trkpt lat="44.41784" lon="6.99232">
        <ele>2246.1999511719</ele>
        <time>2024-09-13T08:43:51.000Z</time>
      </trkpt>
      <trkpt lat="44.41783" lon="6.99232">
        <ele>2246.3999023438</ele>
        <time>2024-09-13T08:43:52.000Z</time>
      </trkpt>
      <trkpt lat="44.41783" lon="6.99233">
        <ele>2246.6000976562</ele>
        <time>2024-09-13T08:43:53.000Z</time>
      </trkpt>
      <trkpt lat="44.41783" lon="6.99234">
        <ele>2246.8000488281</ele>
        <time>2024-09-13T08:43:54.000Z</time>
      </trkpt>
      <trkpt lat="44.41782" lon="6.99235">
        <ele>2247</ele>
        <time>2024-09-13T08:43:55.000Z</time>
      </trkpt>
      <trkpt lat="44.41782" lon="6.99236">
        <ele>2247</ele>
        <time>2024-09-13T08:43:56.000Z</time>
      </trkpt>
      <trkpt lat="44.41781" lon="6.99237">
        <ele>2247.1999511719</ele>
        <time>2024-09-13T08:43:57.000Z</time>
      </trkpt>
      <trkpt lat="44.41781" lon="6.99238">
        <ele>2247.6000976562</ele>
        <time>2024-09-13T08:43:58.000Z</time>
      </trkpt>
      <trkpt lat="44.41781" lon="6.99239">
        <ele>2247.6000976562</ele>
        <time>2024-09-13T08:43:59.000Z</time>
      </trkpt>
      <trkpt lat="44.41781" lon="6.99239">
        <ele>2248</ele>
        <time>2024-09-13T08:44:00.000Z</time>
      </trkpt>
      <trkpt lat="44.41781" lon="6.99241">
        <ele>2248</ele>
        <time>2024-09-13T08:44:01.000Z</time>
      </trkpt>
      <trkpt lat="44.41781" lon="6.99242">
        <ele>2248.1999511719</ele>
        <time>2024-09-13T08:44:02.000Z</time>
      </trkpt>
      <trkpt lat="44.41781" lon="6.99244">
        <ele>2248.3999023438</ele>
        <time>2024-09-13T08:44:03.000Z</time>
      </trkpt>
      <trkpt lat="44.41781" lon="6.99245">
        <ele>2248.6000976562</ele>
        <time>2024-09-13T08:44:04.000Z</time>
      </trkpt>
      <trkpt lat="44.4178" lon="6.99247">
        <ele>2248.8000488281</ele>
        <time>2024-09-13T08:44:05.000Z</time>
      </trkpt>
      <trkpt lat="44.4178" lon="6.99248">
        <ele>2249</ele>
        <time>2024-09-13T08:44:06.000Z</time>
      </trkpt>
      <trkpt lat="44.4178" lon="6.9925">
        <ele>2249.1999511719</ele>
        <time>2024-09-13T08:44:07.000Z</time>
      </trkpt>
      <trkpt lat="44.4178" lon="6.99251">
        <ele>2249.3999023438</ele>
        <time>2024-09-13T08:44:08.000Z</time>
      </trkpt>
      <trkpt lat="44.4178" lon="6.99251">
        <ele>2249.6000976562</ele>
        <time>2024-09-13T08:44:09.000Z</time>
      </trkpt>
      <trkpt lat="44.41779" lon="6.99252">
        <ele>2249.8000488281</ele>
        <time>2024-09-13T08:44:10.000Z</time>
      </trkpt>
      <trkpt lat="44.41779" lon="6.99253">
        <ele>2250.1999511719</ele>
        <time>2024-09-13T08:44:11.000Z</time>
      </trkpt>
      <trkpt lat="44.41779" lon="6.99254">
        <ele>2250.3999023438</ele>
        <time>2024-09-13T08:44:12.000Z</time>
      </trkpt>
      <trkpt lat="44.41778" lon="6.99255">
        <ele>2250.6000976562</ele>
        <time>2024-09-13T08:44:13.000Z</time>
      </trkpt>
      <trkpt lat="44.41778" lon="6.99256">
        <ele>2250.8000488281</ele>
        <time>2024-09-13T08:44:14.000Z</time>
      </trkpt>
      <trkpt lat="44.41777" lon="6.99257">
        <ele>2251</ele>
        <time>2024-09-13T08:44:15.000Z</time>
      </trkpt>
      <trkpt lat="44.41777" lon="6.99259">
        <ele>2251.1999511719</ele>
        <time>2024-09-13T08:44:16.000Z</time>
      </trkpt>
      <trkpt lat="44.41776" lon="6.9926">
        <ele>2251.3999023438</ele>
        <time>2024-09-13T08:44:17.000Z</time>
      </trkpt>
      <trkpt lat="44.41775" lon="6.99261">
        <ele>2251.6000976562</ele>
        <time>2024-09-13T08:44:18.000Z</time>
      </trkpt>
      <trkpt lat="44.41774" lon="6.99262">
        <ele>2251.8000488281</ele>
        <time>2024-09-13T08:44:19.000Z</time>
      </trkpt>
      <trkpt lat="44.41773" lon="6.99262">
        <ele>2252</ele>
        <time>2024-09-13T08:44:20.000Z</time>
      </trkpt>
      <trkpt lat="44.41772" lon="6.99263">
        <ele>2252.3999023438</ele>
        <time>2024-09-13T08:44:21.000Z</time>
      </trkpt>
      <trkpt lat="44.41771" lon="6.99264">
        <ele>2252.8000488281</ele>
        <time>2024-09-13T08:44:22.000Z</time>
      </trkpt>
      <trkpt lat="44.41771" lon="6.99265">
        <ele>2253</ele>
        <time>2024-09-13T08:44:23.000Z</time>
      </trkpt>
      <trkpt lat="44.41771" lon="6.99265">
        <ele>2253</ele>
        <time>2024-09-13T08:44:24.000Z</time>
      </trkpt>
      <trkpt lat="44.41771" lon="6.99266">
        <ele>2253.1999511719</ele>
        <time>2024-09-13T08:44:25.000Z</time>
      </trkpt>
      <trkpt lat="44.4177" lon="6.99267">
        <ele>2253.3999023438</ele>
        <time>2024-09-13T08:44:26.000Z</time>
      </trkpt>
      <trkpt lat="44.4177" lon="6.99268">
        <ele>2253.3999023438</ele>
        <time>2024-09-13T08:44:27.000Z</time>
      </trkpt>
      <trkpt lat="44.4177" lon="6.99269">
        <ele>2253.6000976562</ele>
        <time>2024-09-13T08:44:28.000Z</time>
      </trkpt>
      <trkpt lat="44.41771" lon="6.99269">
        <ele>2253.6000976562</ele>
        <time>2024-09-13T08:44:29.000Z</time>
      </trkpt>
      <trkpt lat="44.41771" lon="6.99271">
        <ele>2253.8000488281</ele>
        <time>2024-09-13T08:44:30.000Z</time>
      </trkpt>
      <trkpt lat="44.41772" lon="6.99272">
        <ele>2254</ele>
        <time>2024-09-13T08:44:31.000Z</time>
      </trkpt>
      <trkpt lat="44.41772" lon="6.99273">
        <ele>2254</ele>
        <time>2024-09-13T08:44:32.000Z</time>
      </trkpt>
      <trkpt lat="44.41773" lon="6.99274">
        <ele>2254.1999511719</ele>
        <time>2024-09-13T08:44:33.000Z</time>
      </trkpt>
      <trkpt lat="44.41774" lon="6.99275">
        <ele>2254.3999023438</ele>
        <time>2024-09-13T08:44:34.000Z</time>
      </trkpt>
      <trkpt lat="44.41774" lon="6.99276">
        <ele>2254.6000976562</ele>
        <time>2024-09-13T08:44:35.000Z</time>
      </trkpt>
      <trkpt lat="44.41775" lon="6.99277">
        <ele>2254.8000488281</ele>
        <time>2024-09-13T08:44:36.000Z</time>
      </trkpt>
      <trkpt lat="44.41775" lon="6.99279">
        <ele>2254.8000488281</ele>
        <time>2024-09-13T08:44:37.000Z</time>
      </trkpt>
      <trkpt lat="44.41774" lon="6.9928">
        <ele>2254.8000488281</ele>
        <time>2024-09-13T08:44:38.000Z</time>
      </trkpt>
      <trkpt lat="44.41774" lon="6.99282">
        <ele>2255</ele>
        <time>2024-09-13T08:44:39.000Z</time>
      </trkpt>
      <trkpt lat="44.41773" lon="6.99283">
        <ele>2255.1999511719</ele>
        <time>2024-09-13T08:44:40.000Z</time>
      </trkpt>
      <trkpt lat="44.41772" lon="6.99284">
        <ele>2255.3999023438</ele>
        <time>2024-09-13T08:44:41.000Z</time>
      </trkpt>
      <trkpt lat="44.41772" lon="6.99285">
        <ele>2255.3999023438</ele>
        <time>2024-09-13T08:44:42.000Z</time>
      </trkpt>
      <trkpt lat="44.41772" lon="6.99287">
        <ele>2255.6000976562</ele>
        <time>2024-09-13T08:44:43.000Z</time>
      </trkpt>
      <trkpt lat="44.41771" lon="6.99288">
        <ele>2255.8000488281</ele>
        <time>2024-09-13T08:44:44.000Z</time>
      </trkpt>
      <trkpt lat="44.41771" lon="6.99289">
        <ele>2255.8000488281</ele>
        <time>2024-09-13T08:44:45.000Z</time>
      </trkpt>
      <trkpt lat="44.41771" lon="6.99291">
        <ele>2256</ele>
        <time>2024-09-13T08:44:46.000Z</time>
      </trkpt>
      <trkpt lat="44.41771" lon="6.99292">
        <ele>2256.1999511719</ele>
        <time>2024-09-13T08:44:47.000Z</time>
      </trkpt>
      <trkpt lat="44.41771" lon="6.99293">
        <ele>2256.3999023438</ele>
        <time>2024-09-13T08:44:48.000Z</time>
      </trkpt>
      <trkpt lat="44.41771" lon="6.99294">
        <ele>2256.6000976562</ele>
        <time>2024-09-13T08:44:49.000Z</time>
      </trkpt>
      <trkpt lat="44.4177" lon="6.99295">
        <ele>2257</ele>
        <time>2024-09-13T08:44:50.000Z</time>
      </trkpt>
      <trkpt lat="44.4177" lon="6.99297">
        <ele>2257.1999511719</ele>
        <time>2024-09-13T08:44:51.000Z</time>
      </trkpt>
      <trkpt lat="44.4177" lon="6.99298">
        <ele>2257.1999511719</ele>
        <time>2024-09-13T08:44:52.000Z</time>
      </trkpt>
      <trkpt lat="44.4177" lon="6.99299">
        <ele>2257.1999511719</ele>
        <time>2024-09-13T08:44:53.000Z</time>
      </trkpt>
      <trkpt lat="44.4177" lon="6.993">
        <ele>2257.3999023438</ele>
        <time>2024-09-13T08:44:54.000Z</time>
      </trkpt>
      <trkpt lat="44.4177" lon="6.99301">
        <ele>2257.8000488281</ele>
        <time>2024-09-13T08:44:55.000Z</time>
      </trkpt>
      <trkpt lat="44.4177" lon="6.99302">
        <ele>2257.8000488281</ele>
        <time>2024-09-13T08:44:56.000Z</time>
      </trkpt>
      <trkpt lat="44.4177" lon="6.99304">
        <ele>2257.8000488281</ele>
        <time>2024-09-13T08:44:57.000Z</time>
      </trkpt>
      <trkpt lat="44.4177" lon="6.99306">
        <ele>2258</ele>
        <time>2024-09-13T08:44:58.000Z</time>
      </trkpt>
      <trkpt lat="44.4177" lon="6.99307">
        <ele>2258.1999511719</ele>
        <time>2024-09-13T08:44:59.000Z</time>
      </trkpt>
      <trkpt lat="44.4177" lon="6.99309">
        <ele>2258.3999023438</ele>
        <time>2024-09-13T08:45:00.000Z</time>
      </trkpt>
      <trkpt lat="44.41769" lon="6.99309">
        <ele>2258.3999023438</ele>
        <time>2024-09-13T08:45:01.000Z</time>
      </trkpt>
      <trkpt lat="44.41769" lon="6.9931">
        <ele>2258.6000976562</ele>
        <time>2024-09-13T08:45:02.000Z</time>
      </trkpt>
      <trkpt lat="44.41769" lon="6.9931">
        <ele>2258.6000976562</ele>
        <time>2024-09-13T08:45:03.000Z</time>
      </trkpt>
      <trkpt lat="44.41769" lon="6.99311">
        <ele>2258.6000976562</ele>
        <time>2024-09-13T08:45:04.000Z</time>
      </trkpt>
      <trkpt lat="44.41769" lon="6.99313">
        <ele>2258.8000488281</ele>
        <time>2024-09-13T08:45:05.000Z</time>
      </trkpt>
      <trkpt lat="44.41768" lon="6.99314">
        <ele>2259</ele>
        <time>2024-09-13T08:45:06.000Z</time>
      </trkpt>
      <trkpt lat="44.41768" lon="6.99315">
        <ele>2259.3999023438</ele>
        <time>2024-09-13T08:45:07.000Z</time>
      </trkpt>
      <trkpt lat="44.41768" lon="6.99317">
        <ele>2259.3999023438</ele>
        <time>2024-09-13T08:45:08.000Z</time>
      </trkpt>
      <trkpt lat="44.41767" lon="6.99318">
        <ele>2259.3999023438</ele>
        <time>2024-09-13T08:45:09.000Z</time>
      </trkpt>
      <trkpt lat="44.41767" lon="6.99318">
        <ele>2259.6000976562</ele>
        <time>2024-09-13T08:45:10.000Z</time>
      </trkpt>
      <trkpt lat="44.41766" lon="6.99319">
        <ele>2259.8000488281</ele>
        <time>2024-09-13T08:45:11.000Z</time>
      </trkpt>
      <trkpt lat="44.41766" lon="6.9932">
        <ele>2260</ele>
        <time>2024-09-13T08:45:12.000Z</time>
      </trkpt>
      <trkpt lat="44.41766" lon="6.99322">
        <ele>2260.1999511719</ele>
        <time>2024-09-13T08:45:13.000Z</time>
      </trkpt>
      <trkpt lat="44.41765" lon="6.99323">
        <ele>2260.1999511719</ele>
        <time>2024-09-13T08:45:14.000Z</time>
      </trkpt>
      <trkpt lat="44.41764" lon="6.99323">
        <ele>2260.3999023438</ele>
        <time>2024-09-13T08:45:15.000Z</time>
      </trkpt>
      <trkpt lat="44.41764" lon="6.99323">
        <ele>2260.8000488281</ele>
        <time>2024-09-13T08:45:16.000Z</time>
      </trkpt>
      <trkpt lat="44.41763" lon="6.99323">
        <ele>2260.8000488281</ele>
        <time>2024-09-13T08:45:17.000Z</time>
      </trkpt>
      <trkpt lat="44.41762" lon="6.99323">
        <ele>2261</ele>
        <time>2024-09-13T08:45:18.000Z</time>
      </trkpt>
      <trkpt lat="44.41761" lon="6.99323">
        <ele>2261.1999511719</ele>
        <time>2024-09-13T08:45:19.000Z</time>
      </trkpt>
      <trkpt lat="44.4176" lon="6.99323">
        <ele>2261.3999023438</ele>
        <time>2024-09-13T08:45:20.000Z</time>
      </trkpt>
      <trkpt lat="44.41759" lon="6.99323">
        <ele>2261.6000976562</ele>
        <time>2024-09-13T08:45:21.000Z</time>
      </trkpt>
      <trkpt lat="44.41758" lon="6.99322">
        <ele>2261.8000488281</ele>
        <time>2024-09-13T08:45:22.000Z</time>
      </trkpt>
      <trkpt lat="44.41757" lon="6.99322">
        <ele>2261.8000488281</ele>
        <time>2024-09-13T08:45:23.000Z</time>
      </trkpt>
      <trkpt lat="44.41756" lon="6.99321">
        <ele>2262</ele>
        <time>2024-09-13T08:45:24.000Z</time>
      </trkpt>
      <trkpt lat="44.41754" lon="6.99321">
        <ele>2262</ele>
        <time>2024-09-13T08:45:25.000Z</time>
      </trkpt>
      <trkpt lat="44.41753" lon="6.99321">
        <ele>2262</ele>
        <time>2024-09-13T08:45:26.000Z</time>
      </trkpt>
      <trkpt lat="44.41752" lon="6.99322">
        <ele>2262</ele>
        <time>2024-09-13T08:45:27.000Z</time>
      </trkpt>
      <trkpt lat="44.41751" lon="6.99322">
        <ele>2262.3999023438</ele>
        <time>2024-09-13T08:45:28.000Z</time>
      </trkpt>
      <trkpt lat="44.4175" lon="6.99322">
        <ele>2262.6000976562</ele>
        <time>2024-09-13T08:45:29.000Z</time>
      </trkpt>
      <trkpt lat="44.4175" lon="6.99322">
        <ele>2262.8000488281</ele>
        <time>2024-09-13T08:45:30.000Z</time>
      </trkpt>
      <trkpt lat="44.41749" lon="6.99323">
        <ele>2263.1999511719</ele>
        <time>2024-09-13T08:45:31.000Z</time>
      </trkpt>
      <trkpt lat="44.41749" lon="6.99323">
        <ele>2263.3999023438</ele>
        <time>2024-09-13T08:45:32.000Z</time>
      </trkpt>
      <trkpt lat="44.41749" lon="6.99325">
        <ele>2263.8000488281</ele>
        <time>2024-09-13T08:45:33.000Z</time>
      </trkpt>
      <trkpt lat="44.4175" lon="6.99326">
        <ele>2263.8000488281</ele>
        <time>2024-09-13T08:45:34.000Z</time>
      </trkpt>
      <trkpt lat="44.41751" lon="6.99327">
        <ele>2263.8000488281</ele>
        <time>2024-09-13T08:45:36.000Z</time>
      </trkpt>
      <trkpt lat="44.41752" lon="6.99328">
        <ele>2264</ele>
        <time>2024-09-13T08:45:37.000Z</time>
      </trkpt>
      <trkpt lat="44.41753" lon="6.99329">
        <ele>2264</ele>
        <time>2024-09-13T08:45:38.000Z</time>
      </trkpt>
      <trkpt lat="44.41754" lon="6.9933">
        <ele>2264.3999023438</ele>
        <time>2024-09-13T08:45:39.000Z</time>
      </trkpt>
      <trkpt lat="44.41754" lon="6.9933">
        <ele>2264.3999023438</ele>
        <time>2024-09-13T08:45:40.000Z</time>
      </trkpt>
      <trkpt lat="44.41755" lon="6.99331">
        <ele>2264.6000976562</ele>
        <time>2024-09-13T08:45:41.000Z</time>
      </trkpt>
      <trkpt lat="44.41755" lon="6.99332">
        <ele>2264.8000488281</ele>
        <time>2024-09-13T08:45:42.000Z</time>
      </trkpt>
      <trkpt lat="44.41756" lon="6.99332">
        <ele>2264.8000488281</ele>
        <time>2024-09-13T08:45:43.000Z</time>
      </trkpt>
      <trkpt lat="44.41757" lon="6.99333">
        <ele>2265.1999511719</ele>
        <time>2024-09-13T08:45:44.000Z</time>
      </trkpt>
      <trkpt lat="44.41757" lon="6.99334">
        <ele>2265.3999023438</ele>
        <time>2024-09-13T08:45:45.000Z</time>
      </trkpt>
      <trkpt lat="44.41758" lon="6.99335">
        <ele>2265.3999023438</ele>
        <time>2024-09-13T08:45:46.000Z</time>
      </trkpt>
      <trkpt lat="44.41758" lon="6.99335">
        <ele>2265.3999023438</ele>
        <time>2024-09-13T08:45:47.000Z</time>
      </trkpt>
      <trkpt lat="44.41758" lon="6.99336">
        <ele>2265.6000976562</ele>
        <time>2024-09-13T08:45:48.000Z</time>
      </trkpt>
      <trkpt lat="44.41758" lon="6.99336">
        <ele>2266</ele>
        <time>2024-09-13T08:45:49.000Z</time>
      </trkpt>
      <trkpt lat="44.41759" lon="6.99337">
        <ele>2266.1999511719</ele>
        <time>2024-09-13T08:45:50.000Z</time>
      </trkpt>
      <trkpt lat="44.41759" lon="6.99338">
        <ele>2266.6000976562</ele>
        <time>2024-09-13T08:45:51.000Z</time>
      </trkpt>
      <trkpt lat="44.4176" lon="6.99339">
        <ele>2266.8000488281</ele>
        <time>2024-09-13T08:45:52.000Z</time>
      </trkpt>
      <trkpt lat="44.4176" lon="6.9934">
        <ele>2267</ele>
        <time>2024-09-13T08:45:53.000Z</time>
      </trkpt>
      <trkpt lat="44.41761" lon="6.9934">
        <ele>2267.3999023438</ele>
        <time>2024-09-13T08:45:54.000Z</time>
      </trkpt>
      <trkpt lat="44.41762" lon="6.99341">
        <ele>2267.6000976562</ele>
        <time>2024-09-13T08:45:55.000Z</time>
      </trkpt>
      <trkpt lat="44.41763" lon="6.99341">
        <ele>2268</ele>
        <time>2024-09-13T08:45:56.000Z</time>
      </trkpt>
      <trkpt lat="44.41763" lon="6.99342">
        <ele>2268.1999511719</ele>
        <time>2024-09-13T08:45:57.000Z</time>
      </trkpt>
      <trkpt lat="44.41764" lon="6.99343">
        <ele>2268.3999023438</ele>
        <time>2024-09-13T08:45:58.000Z</time>
      </trkpt>
      <trkpt lat="44.41764" lon="6.99344">
        <ele>2268.6000976562</ele>
        <time>2024-09-13T08:45:59.000Z</time>
      </trkpt>
      <trkpt lat="44.41764" lon="6.99345">
        <ele>2268.8000488281</ele>
        <time>2024-09-13T08:46:00.000Z</time>
      </trkpt>
      <trkpt lat="44.41764" lon="6.99347">
        <ele>2269.1999511719</ele>
        <time>2024-09-13T08:46:01.000Z</time>
      </trkpt>
      <trkpt lat="44.41763" lon="6.99348">
        <ele>2269.3999023438</ele>
        <time>2024-09-13T08:46:02.000Z</time>
      </trkpt>
      <trkpt lat="44.41763" lon="6.99349">
        <ele>2269.6000976562</ele>
        <time>2024-09-13T08:46:03.000Z</time>
      </trkpt>
      <trkpt lat="44.41762" lon="6.9935">
        <ele>2269.6000976562</ele>
        <time>2024-09-13T08:46:04.000Z</time>
      </trkpt>
      <trkpt lat="44.41761" lon="6.99351">
        <ele>2269.6000976562</ele>
        <time>2024-09-13T08:46:05.000Z</time>
      </trkpt>
      <trkpt lat="44.41761" lon="6.99351">
        <ele>2269.8000488281</ele>
        <time>2024-09-13T08:46:06.000Z</time>
      </trkpt>
      <trkpt lat="44.4176" lon="6.99352">
        <ele>2270</ele>
        <time>2024-09-13T08:46:07.000Z</time>
      </trkpt>
      <trkpt lat="44.41759" lon="6.99352">
        <ele>2270.1999511719</ele>
        <time>2024-09-13T08:46:08.000Z</time>
      </trkpt>
      <trkpt lat="44.41758" lon="6.99352">
        <ele>2270.6000976562</ele>
        <time>2024-09-13T08:46:09.000Z</time>
      </trkpt>
      <trkpt lat="44.41757" lon="6.99351">
        <ele>2270.8000488281</ele>
        <time>2024-09-13T08:46:10.000Z</time>
      </trkpt>
      <trkpt lat="44.41757" lon="6.9935">
        <ele>2270.8000488281</ele>
        <time>2024-09-13T08:46:11.000Z</time>
      </trkpt>
      <trkpt lat="44.41756" lon="6.9935">
        <ele>2271.1999511719</ele>
        <time>2024-09-13T08:46:12.000Z</time>
      </trkpt>
      <trkpt lat="44.41755" lon="6.9935">
        <ele>2271.3999023438</ele>
        <time>2024-09-13T08:46:13.000Z</time>
      </trkpt>
      <trkpt lat="44.41754" lon="6.99351">
        <ele>2271.3999023438</ele>
        <time>2024-09-13T08:46:14.000Z</time>
      </trkpt>
      <trkpt lat="44.41754" lon="6.99353">
        <ele>2272</ele>
        <time>2024-09-13T08:46:15.000Z</time>
      </trkpt>
      <trkpt lat="44.41753" lon="6.99354">
        <ele>2272.1999511719</ele>
        <time>2024-09-13T08:46:16.000Z</time>
      </trkpt>
      <trkpt lat="44.41753" lon="6.99354">
        <ele>2272.3999023438</ele>
        <time>2024-09-13T08:46:17.000Z</time>
      </trkpt>
      <trkpt lat="44.41753" lon="6.99356">
        <ele>2272.3999023438</ele>
        <time>2024-09-13T08:46:18.000Z</time>
      </trkpt>
      <trkpt lat="44.41752" lon="6.99356">
        <ele>2272.3999023438</ele>
        <time>2024-09-13T08:46:19.000Z</time>
      </trkpt>
      <trkpt lat="44.41751" lon="6.99357">
        <ele>2272.3999023438</ele>
        <time>2024-09-13T08:46:20.000Z</time>
      </trkpt>
      <trkpt lat="44.41751" lon="6.99358">
        <ele>2272.3999023438</ele>
        <time>2024-09-13T08:46:21.000Z</time>
      </trkpt>
      <trkpt lat="44.4175" lon="6.99358">
        <ele>2272.6000976562</ele>
        <time>2024-09-13T08:46:22.000Z</time>
      </trkpt>
      <trkpt lat="44.4175" lon="6.99358">
        <ele>2273</ele>
        <time>2024-09-13T08:46:23.000Z</time>
      </trkpt>
      <trkpt lat="44.41749" lon="6.99358">
        <ele>2273</ele>
        <time>2024-09-13T08:46:24.000Z</time>
      </trkpt>
      <trkpt lat="44.41748" lon="6.99358">
        <ele>2273</ele>
        <time>2024-09-13T08:46:25.000Z</time>
      </trkpt>
      <trkpt lat="44.41746" lon="6.99358">
        <ele>2273</ele>
        <time>2024-09-13T08:46:26.000Z</time>
      </trkpt>
      <trkpt lat="44.41745" lon="6.99359">
        <ele>2273.3999023438</ele>
        <time>2024-09-13T08:46:27.000Z</time>
      </trkpt>
      <trkpt lat="44.41744" lon="6.9936">
        <ele>2273.3999023438</ele>
        <time>2024-09-13T08:46:28.000Z</time>
      </trkpt>
      <trkpt lat="44.41742" lon="6.9936">
        <ele>2273.6000976562</ele>
        <time>2024-09-13T08:46:29.000Z</time>
      </trkpt>
      <trkpt lat="44.41741" lon="6.99361">
        <ele>2273.8000488281</ele>
        <time>2024-09-13T08:46:30.000Z</time>
      </trkpt>
      <trkpt lat="44.4174" lon="6.99362">
        <ele>2274</ele>
        <time>2024-09-13T08:46:31.000Z</time>
      </trkpt>
      <trkpt lat="44.41739" lon="6.99363">
        <ele>2274</ele>
        <time>2024-09-13T08:46:32.000Z</time>
      </trkpt>
      <trkpt lat="44.41739" lon="6.99364">
        <ele>2274.1999511719</ele>
        <time>2024-09-13T08:46:33.000Z</time>
      </trkpt>
      <trkpt lat="44.41738" lon="6.99366">
        <ele>2274.1999511719</ele>
        <time>2024-09-13T08:46:34.000Z</time>
      </trkpt>
      <trkpt lat="44.41736" lon="6.99368">
        <ele>2274.1999511719</ele>
        <time>2024-09-13T08:46:35.000Z</time>
      </trkpt>
      <trkpt lat="44.41733" lon="6.9937">
        <ele>2274.1999511719</ele>
        <time>2024-09-13T08:46:36.000Z</time>
      </trkpt>
      <trkpt lat="44.4173" lon="6.9937">
        <ele>2274.1999511719</ele>
        <time>2024-09-13T08:46:37.000Z</time>
      </trkpt>
      <trkpt lat="44.41727" lon="6.99372">
        <ele>2274.1999511719</ele>
        <time>2024-09-13T08:46:38.000Z</time>
      </trkpt>
      <trkpt lat="44.41724" lon="6.99375">
        <ele>2274.1999511719</ele>
        <time>2024-09-13T08:46:39.000Z</time>
      </trkpt>
      <trkpt lat="44.41721" lon="6.99378">
        <ele>2274</ele>
        <time>2024-09-13T08:46:40.000Z</time>
      </trkpt>
      <trkpt lat="44.41718" lon="6.99382">
        <ele>2273.8000488281</ele>
        <time>2024-09-13T08:46:41.000Z</time>
      </trkpt>
      <trkpt lat="44.41715" lon="6.99385">
        <ele>2273.6000976562</ele>
        <time>2024-09-13T08:46:42.000Z</time>
      </trkpt>
      <trkpt lat="44.41711" lon="6.99386">
        <ele>2273.3999023438</ele>
        <time>2024-09-13T08:46:43.000Z</time>
      </trkpt>
      <trkpt lat="44.41708" lon="6.99388">
        <ele>2273.3999023438</ele>
        <time>2024-09-13T08:46:44.000Z</time>
      </trkpt>
      <trkpt lat="44.41706" lon="6.99392">
        <ele>2273.3999023438</ele>
        <time>2024-09-13T08:46:45.000Z</time>
      </trkpt>
      <trkpt lat="44.41705" lon="6.99396">
        <ele>2273.1999511719</ele>
        <time>2024-09-13T08:46:46.000Z</time>
      </trkpt>
      <trkpt lat="44.41702" lon="6.99398">
        <ele>2273.1999511719</ele>
        <time>2024-09-13T08:46:47.000Z</time>
      </trkpt>
      <trkpt lat="44.417" lon="6.99398">
        <ele>2273.1999511719</ele>
        <time>2024-09-13T08:46:48.000Z</time>
      </trkpt>
      <trkpt lat="44.41698" lon="6.99399">
        <ele>2273</ele>
        <time>2024-09-13T08:46:49.000Z</time>
      </trkpt>
      <trkpt lat="44.41697" lon="6.99399">
        <ele>2272.8000488281</ele>
        <time>2024-09-13T08:46:50.000Z</time>
      </trkpt>
      <trkpt lat="44.41696" lon="6.994">
        <ele>2272.3999023438</ele>
        <time>2024-09-13T08:46:51.000Z</time>
      </trkpt>
      <trkpt lat="44.41694" lon="6.99401">
        <ele>2272.1999511719</ele>
        <time>2024-09-13T08:46:52.000Z</time>
      </trkpt>
      <trkpt lat="44.41694" lon="6.99402">
        <ele>2272</ele>
        <time>2024-09-13T08:46:53.000Z</time>
      </trkpt>
      <trkpt lat="44.41692" lon="6.99405">
        <ele>2272</ele>
        <time>2024-09-13T08:46:55.000Z</time>
      </trkpt>
      <trkpt lat="44.41691" lon="6.99406">
        <ele>2272</ele>
        <time>2024-09-13T08:46:56.000Z</time>
      </trkpt>
      <trkpt lat="44.4169" lon="6.99408">
        <ele>2272</ele>
        <time>2024-09-13T08:46:57.000Z</time>
      </trkpt>
      <trkpt lat="44.4169" lon="6.99409">
        <ele>2272.1999511719</ele>
        <time>2024-09-13T08:46:58.000Z</time>
      </trkpt>
      <trkpt lat="44.41689" lon="6.9941">
        <ele>2272.1999511719</ele>
        <time>2024-09-13T08:46:59.000Z</time>
      </trkpt>
      <trkpt lat="44.41688" lon="6.99412">
        <ele>2272.1999511719</ele>
        <time>2024-09-13T08:47:00.000Z</time>
      </trkpt>
      <trkpt lat="44.41687" lon="6.99413">
        <ele>2272.1999511719</ele>
        <time>2024-09-13T08:47:01.000Z</time>
      </trkpt>
      <trkpt lat="44.41686" lon="6.99413">
        <ele>2272.1999511719</ele>
        <time>2024-09-13T08:47:02.000Z</time>
      </trkpt>
      <trkpt lat="44.41684" lon="6.99416">
        <ele>2272.8000488281</ele>
        <time>2024-09-13T08:47:04.000Z</time>
      </trkpt>
      <trkpt lat="44.41677" lon="6.99427">
        <ele>2273</ele>
        <time>2024-09-13T08:47:11.000Z</time>
      </trkpt>
      <trkpt lat="44.41675" lon="6.99428">
        <ele>2272.3999023438</ele>
        <time>2024-09-13T08:47:12.000Z</time>
      </trkpt>
      <trkpt lat="44.41674" lon="6.9943">
        <ele>2272.3999023438</ele>
        <time>2024-09-13T08:47:13.000Z</time>
      </trkpt>
      <trkpt lat="44.41673" lon="6.99429">
        <ele>2272.3999023438</ele>
        <time>2024-09-13T08:47:14.000Z</time>
      </trkpt>
      <trkpt lat="44.4167" lon="6.99428">
        <ele>2272.6000976562</ele>
        <time>2024-09-13T08:47:16.000Z</time>
      </trkpt>
      <trkpt lat="44.41669" lon="6.99428">
        <ele>2273</ele>
        <time>2024-09-13T08:47:17.000Z</time>
      </trkpt>
      <trkpt lat="44.41668" lon="6.99428">
        <ele>2273.1999511719</ele>
        <time>2024-09-13T08:47:18.000Z</time>
      </trkpt>
      <trkpt lat="44.41667" lon="6.99429">
        <ele>2273.1999511719</ele>
        <time>2024-09-13T08:47:19.000Z</time>
      </trkpt>
      <trkpt lat="44.41665" lon="6.99429">
        <ele>2273.3999023438</ele>
        <time>2024-09-13T08:47:20.000Z</time>
      </trkpt>
      <trkpt lat="44.41662" lon="6.99429">
        <ele>2273.3999023438</ele>
        <time>2024-09-13T08:47:22.000Z</time>
      </trkpt>
      <trkpt lat="44.41661" lon="6.9943">
        <ele>2273.6000976562</ele>
        <time>2024-09-13T08:47:23.000Z</time>
      </trkpt>
      <trkpt lat="44.41659" lon="6.99431">
        <ele>2273.8000488281</ele>
        <time>2024-09-13T08:47:24.000Z</time>
      </trkpt>
      <trkpt lat="44.41659" lon="6.99431">
        <ele>2274</ele>
        <time>2024-09-13T08:47:25.000Z</time>
      </trkpt>
      <trkpt lat="44.41658" lon="6.99431">
        <ele>2274.1999511719</ele>
        <time>2024-09-13T08:47:26.000Z</time>
      </trkpt>
      <trkpt lat="44.41656" lon="6.99431">
        <ele>2274.3999023438</ele>
        <time>2024-09-13T08:47:27.000Z</time>
      </trkpt>
      <trkpt lat="44.41655" lon="6.9943">
        <ele>2274.3999023438</ele>
        <time>2024-09-13T08:47:28.000Z</time>
      </trkpt>
      <trkpt lat="44.41654" lon="6.9943">
        <ele>2274.6000976562</ele>
        <time>2024-09-13T08:47:29.000Z</time>
      </trkpt>
      <trkpt lat="44.41651" lon="6.9943">
        <ele>2275</ele>
        <time>2024-09-13T08:47:31.000Z</time>
      </trkpt>
      <trkpt lat="44.4165" lon="6.9943">
        <ele>2275</ele>
        <time>2024-09-13T08:47:32.000Z</time>
      </trkpt>
      <trkpt lat="44.41648" lon="6.9943">
        <ele>2275</ele>
        <time>2024-09-13T08:47:33.000Z</time>
      </trkpt>
      <trkpt lat="44.41647" lon="6.99431">
        <ele>2275</ele>
        <time>2024-09-13T08:47:34.000Z</time>
      </trkpt>
      <trkpt lat="44.41644" lon="6.99431">
        <ele>2275</ele>
        <time>2024-09-13T08:47:36.000Z</time>
      </trkpt>
      <trkpt lat="44.41643" lon="6.99432">
        <ele>2275</ele>
        <time>2024-09-13T08:47:37.000Z</time>
      </trkpt>
      <trkpt lat="44.41642" lon="6.99433">
        <ele>2275</ele>
        <time>2024-09-13T08:47:38.000Z</time>
      </trkpt>
      <trkpt lat="44.4164" lon="6.99434">
        <ele>2275.1999511719</ele>
        <time>2024-09-13T08:47:40.000Z</time>
      </trkpt>
      <trkpt lat="44.41639" lon="6.99435">
        <ele>2275.3999023438</ele>
        <time>2024-09-13T08:47:41.000Z</time>
      </trkpt>
      <trkpt lat="44.41637" lon="6.99435">
        <ele>2275.3999023438</ele>
        <time>2024-09-13T08:47:42.000Z</time>
      </trkpt>
      <trkpt lat="44.41635" lon="6.99435">
        <ele>2275.8000488281</ele>
        <time>2024-09-13T08:47:44.000Z</time>
      </trkpt>
      <trkpt lat="44.41633" lon="6.99435">
        <ele>2276.1999511719</ele>
        <time>2024-09-13T08:47:45.000Z</time>
      </trkpt>
      <trkpt lat="44.41631" lon="6.99435">
        <ele>2276.1999511719</ele>
        <time>2024-09-13T08:47:47.000Z</time>
      </trkpt>
      <trkpt lat="44.4163" lon="6.99434">
        <ele>2276.3999023438</ele>
        <time>2024-09-13T08:47:48.000Z</time>
      </trkpt>
      <trkpt lat="44.41629" lon="6.99433">
        <ele>2276.3999023438</ele>
        <time>2024-09-13T08:47:49.000Z</time>
      </trkpt>
      <trkpt lat="44.41628" lon="6.99433">
        <ele>2276.3999023438</ele>
        <time>2024-09-13T08:47:50.000Z</time>
      </trkpt>
      <trkpt lat="44.41627" lon="6.99432">
        <ele>2276.6000976562</ele>
        <time>2024-09-13T08:47:51.000Z</time>
      </trkpt>
      <trkpt lat="44.41625" lon="6.99431">
        <ele>2277</ele>
        <time>2024-09-13T08:47:53.000Z</time>
      </trkpt>
      <trkpt lat="44.41624" lon="6.9943">
        <ele>2277.8000488281</ele>
        <time>2024-09-13T08:47:54.000Z</time>
      </trkpt>
      <trkpt lat="44.41623" lon="6.9943">
        <ele>2278</ele>
        <time>2024-09-13T08:47:55.000Z</time>
      </trkpt>
      <trkpt lat="44.41622" lon="6.9943">
        <ele>2278.1999511719</ele>
        <time>2024-09-13T08:47:56.000Z</time>
      </trkpt>
      <trkpt lat="44.41621" lon="6.99431">
        <ele>2278.3999023438</ele>
        <time>2024-09-13T08:47:57.000Z</time>
      </trkpt>
      <trkpt lat="44.4162" lon="6.99431">
        <ele>2278.3999023438</ele>
        <time>2024-09-13T08:47:58.000Z</time>
      </trkpt>
      <trkpt lat="44.41619" lon="6.99432">
        <ele>2278.6000976562</ele>
        <time>2024-09-13T08:47:59.000Z</time>
      </trkpt>
      <trkpt lat="44.41618" lon="6.99432">
        <ele>2278.6000976562</ele>
        <time>2024-09-13T08:48:00.000Z</time>
      </trkpt>
      <trkpt lat="44.41617" lon="6.99433">
        <ele>2279</ele>
        <time>2024-09-13T08:48:01.000Z</time>
      </trkpt>
      <trkpt lat="44.41616" lon="6.99434">
        <ele>2279</ele>
        <time>2024-09-13T08:48:02.000Z</time>
      </trkpt>
      <trkpt lat="44.41615" lon="6.99435">
        <ele>2279.3999023438</ele>
        <time>2024-09-13T08:48:03.000Z</time>
      </trkpt>
      <trkpt lat="44.41614" lon="6.99436">
        <ele>2279.6000976562</ele>
        <time>2024-09-13T08:48:04.000Z</time>
      </trkpt>
      <trkpt lat="44.41612" lon="6.99436">
        <ele>2280</ele>
        <time>2024-09-13T08:48:05.000Z</time>
      </trkpt>
      <trkpt lat="44.41612" lon="6.99436">
        <ele>2280.6000976562</ele>
        <time>2024-09-13T08:48:06.000Z</time>
      </trkpt>
      <trkpt lat="44.41611" lon="6.99437">
        <ele>2281.1999511719</ele>
        <time>2024-09-13T08:48:07.000Z</time>
      </trkpt>
      <trkpt lat="44.4161" lon="6.99438">
        <ele>2281.6000976562</ele>
        <time>2024-09-13T08:48:08.000Z</time>
      </trkpt>
      <trkpt lat="44.4161" lon="6.99439">
        <ele>2281.8000488281</ele>
        <time>2024-09-13T08:48:09.000Z</time>
      </trkpt>
      <trkpt lat="44.41609" lon="6.9944">
        <ele>2282.1999511719</ele>
        <time>2024-09-13T08:48:10.000Z</time>
      </trkpt>
      <trkpt lat="44.41609" lon="6.99441">
        <ele>2282.6000976562</ele>
        <time>2024-09-13T08:48:11.000Z</time>
      </trkpt>
      <trkpt lat="44.41608" lon="6.99442">
        <ele>2282.6000976562</ele>
        <time>2024-09-13T08:48:12.000Z</time>
      </trkpt>
      <trkpt lat="44.41607" lon="6.99445">
        <ele>2282.8000488281</ele>
        <time>2024-09-13T08:48:13.000Z</time>
      </trkpt>
      <trkpt lat="44.41605" lon="6.99448">
        <ele>2282.8000488281</ele>
        <time>2024-09-13T08:48:14.000Z</time>
      </trkpt>
      <trkpt lat="44.41603" lon="6.99452">
        <ele>2282.8000488281</ele>
        <time>2024-09-13T08:48:15.000Z</time>
      </trkpt>
      <trkpt lat="44.416" lon="6.99456">
        <ele>2282.6000976562</ele>
        <time>2024-09-13T08:48:16.000Z</time>
      </trkpt>
      <trkpt lat="44.41596" lon="6.99459">
        <ele>2282</ele>
        <time>2024-09-13T08:48:17.000Z</time>
      </trkpt>
      <trkpt lat="44.41593" lon="6.99462">
        <ele>2281.6000976562</ele>
        <time>2024-09-13T08:48:18.000Z</time>
      </trkpt>
      <trkpt lat="44.41591" lon="6.99464">
        <ele>2281.3999023438</ele>
        <time>2024-09-13T08:48:19.000Z</time>
      </trkpt>
      <trkpt lat="44.41588" lon="6.99466">
        <ele>2281.3999023438</ele>
        <time>2024-09-13T08:48:20.000Z</time>
      </trkpt>
      <trkpt lat="44.41587" lon="6.99468">
        <ele>2281.3999023438</ele>
        <time>2024-09-13T08:48:21.000Z</time>
      </trkpt>
      <trkpt lat="44.41585" lon="6.9947">
        <ele>2281.3999023438</ele>
        <time>2024-09-13T08:48:22.000Z</time>
      </trkpt>
      <trkpt lat="44.41585" lon="6.99471">
        <ele>2281.8000488281</ele>
        <time>2024-09-13T08:48:23.000Z</time>
      </trkpt>
      <trkpt lat="44.41584" lon="6.99473">
        <ele>2281.8000488281</ele>
        <time>2024-09-13T08:48:24.000Z</time>
      </trkpt>
      <trkpt lat="44.41583" lon="6.99474">
        <ele>2282</ele>
        <time>2024-09-13T08:48:25.000Z</time>
      </trkpt>
      <trkpt lat="44.41582" lon="6.99477">
        <ele>2282.1999511719</ele>
        <time>2024-09-13T08:48:26.000Z</time>
      </trkpt>
      <trkpt lat="44.41581" lon="6.99478">
        <ele>2282.3999023438</ele>
        <time>2024-09-13T08:48:27.000Z</time>
      </trkpt>
      <trkpt lat="44.41579" lon="6.9948">
        <ele>2282.3999023438</ele>
        <time>2024-09-13T08:48:28.000Z</time>
      </trkpt>
      <trkpt lat="44.41578" lon="6.99481">
        <ele>2282.6000976562</ele>
        <time>2024-09-13T08:48:29.000Z</time>
      </trkpt>
      <trkpt lat="44.41578" lon="6.99482">
        <ele>2282.6000976562</ele>
        <time>2024-09-13T08:48:30.000Z</time>
      </trkpt>
      <trkpt lat="44.41577" lon="6.99484">
        <ele>2282.6000976562</ele>
        <time>2024-09-13T08:48:31.000Z</time>
      </trkpt>
      <trkpt lat="44.41567" lon="6.99491">
        <ele>2283</ele>
        <time>2024-09-13T08:48:35.000Z</time>
      </trkpt>
      <trkpt lat="44.41566" lon="6.99492">
        <ele>2283</ele>
        <time>2024-09-13T08:48:36.000Z</time>
      </trkpt>
      <trkpt lat="44.41564" lon="6.99493">
        <ele>2283</ele>
        <time>2024-09-13T08:48:37.000Z</time>
      </trkpt>
      <trkpt lat="44.41563" lon="6.99494">
        <ele>2283</ele>
        <time>2024-09-13T08:48:38.000Z</time>
      </trkpt>
      <trkpt lat="44.41563" lon="6.99495">
        <ele>2283</ele>
        <time>2024-09-13T08:48:39.000Z</time>
      </trkpt>
      <trkpt lat="44.41562" lon="6.99497">
        <ele>2283</ele>
        <time>2024-09-13T08:48:40.000Z</time>
      </trkpt>
      <trkpt lat="44.41562" lon="6.99497">
        <ele>2283.1999511719</ele>
        <time>2024-09-13T08:48:41.000Z</time>
      </trkpt>
      <trkpt lat="44.41558" lon="6.99499">
        <ele>2283.8000488281</ele>
        <time>2024-09-13T08:48:44.000Z</time>
      </trkpt>
      <trkpt lat="44.41556" lon="6.995">
        <ele>2283.8000488281</ele>
        <time>2024-09-13T08:48:45.000Z</time>
      </trkpt>
      <trkpt lat="44.41554" lon="6.99501">
        <ele>2284</ele>
        <time>2024-09-13T08:48:46.000Z</time>
      </trkpt>
      <trkpt lat="44.41553" lon="6.99501">
        <ele>2284</ele>
        <time>2024-09-13T08:48:47.000Z</time>
      </trkpt>
      <trkpt lat="44.41552" lon="6.99502">
        <ele>2284.1999511719</ele>
        <time>2024-09-13T08:48:48.000Z</time>
      </trkpt>
      <trkpt lat="44.41551" lon="6.99503">
        <ele>2284.1999511719</ele>
        <time>2024-09-13T08:48:49.000Z</time>
      </trkpt>
      <trkpt lat="44.41551" lon="6.99504">
        <ele>2284.1999511719</ele>
        <time>2024-09-13T08:48:50.000Z</time>
      </trkpt>
      <trkpt lat="44.4155" lon="6.99505">
        <ele>2284.1999511719</ele>
        <time>2024-09-13T08:48:51.000Z</time>
      </trkpt>
      <trkpt lat="44.41549" lon="6.99506">
        <ele>2284.1999511719</ele>
        <time>2024-09-13T08:48:52.000Z</time>
      </trkpt>
      <trkpt lat="44.41548" lon="6.99508">
        <ele>2284.3999023438</ele>
        <time>2024-09-13T08:48:53.000Z</time>
      </trkpt>
      <trkpt lat="44.41548" lon="6.99509">
        <ele>2284.3999023438</ele>
        <time>2024-09-13T08:48:54.000Z</time>
      </trkpt>
      <trkpt lat="44.41547" lon="6.9951">
        <ele>2284.6000976562</ele>
        <time>2024-09-13T08:48:55.000Z</time>
      </trkpt>
      <trkpt lat="44.41546" lon="6.99511">
        <ele>2284.8000488281</ele>
        <time>2024-09-13T08:48:56.000Z</time>
      </trkpt>
      <trkpt lat="44.41545" lon="6.99514">
        <ele>2285</ele>
        <time>2024-09-13T08:48:58.000Z</time>
      </trkpt>
      <trkpt lat="44.41544" lon="6.99515">
        <ele>2285</ele>
        <time>2024-09-13T08:48:59.000Z</time>
      </trkpt>
      <trkpt lat="44.41543" lon="6.99517">
        <ele>2285.3999023438</ele>
        <time>2024-09-13T08:49:00.000Z</time>
      </trkpt>
      <trkpt lat="44.41543" lon="6.99518">
        <ele>2285.6000976562</ele>
        <time>2024-09-13T08:49:01.000Z</time>
      </trkpt>
      <trkpt lat="44.41543" lon="6.99519">
        <ele>2285.8000488281</ele>
        <time>2024-09-13T08:49:02.000Z</time>
      </trkpt>
      <trkpt lat="44.41542" lon="6.9952">
        <ele>2285.8000488281</ele>
        <time>2024-09-13T08:49:03.000Z</time>
      </trkpt>
      <trkpt lat="44.41542" lon="6.99521">
        <ele>2286</ele>
        <time>2024-09-13T08:49:04.000Z</time>
      </trkpt>
      <trkpt lat="44.41542" lon="6.99524">
        <ele>2286.3999023438</ele>
        <time>2024-09-13T08:49:06.000Z</time>
      </trkpt>
      <trkpt lat="44.41542" lon="6.99525">
        <ele>2286.3999023438</ele>
        <time>2024-09-13T08:49:07.000Z</time>
      </trkpt>
      <trkpt lat="44.41542" lon="6.99527">
        <ele>2286.6000976562</ele>
        <time>2024-09-13T08:49:08.000Z</time>
      </trkpt>
      <trkpt lat="44.41541" lon="6.99528">
        <ele>2286.6000976562</ele>
        <time>2024-09-13T08:49:09.000Z</time>
      </trkpt>
      <trkpt lat="44.41539" lon="6.99528">
        <ele>2286.8000488281</ele>
        <time>2024-09-13T08:49:10.000Z</time>
      </trkpt>
      <trkpt lat="44.41538" lon="6.99529">
        <ele>2286.8000488281</ele>
        <time>2024-09-13T08:49:11.000Z</time>
      </trkpt>
      <trkpt lat="44.41537" lon="6.99529">
        <ele>2286.8000488281</ele>
        <time>2024-09-13T08:49:12.000Z</time>
      </trkpt>
      <trkpt lat="44.41535" lon="6.9953">
        <ele>2286.8000488281</ele>
        <time>2024-09-13T08:49:13.000Z</time>
      </trkpt>
      <trkpt lat="44.41534" lon="6.99532">
        <ele>2286.8000488281</ele>
        <time>2024-09-13T08:49:14.000Z</time>
      </trkpt>
      <trkpt lat="44.41533" lon="6.99533">
        <ele>2286.8000488281</ele>
        <time>2024-09-13T08:49:15.000Z</time>
      </trkpt>
      <trkpt lat="44.41532" lon="6.99534">
        <ele>2286.8000488281</ele>
        <time>2024-09-13T08:49:16.000Z</time>
      </trkpt>
      <trkpt lat="44.41531" lon="6.99535">
        <ele>2287</ele>
        <time>2024-09-13T08:49:17.000Z</time>
      </trkpt>
      <trkpt lat="44.41531" lon="6.99535">
        <ele>2287.1999511719</ele>
        <time>2024-09-13T08:49:18.000Z</time>
      </trkpt>
      <trkpt lat="44.4153" lon="6.99536">
        <ele>2287.1999511719</ele>
        <time>2024-09-13T08:49:19.000Z</time>
      </trkpt>
      <trkpt lat="44.41529" lon="6.99537">
        <ele>2287.3999023438</ele>
        <time>2024-09-13T08:49:20.000Z</time>
      </trkpt>
      <trkpt lat="44.41528" lon="6.99538">
        <ele>2287.3999023438</ele>
        <time>2024-09-13T08:49:21.000Z</time>
      </trkpt>
      <trkpt lat="44.41526" lon="6.99541">
        <ele>2287.6000976562</ele>
        <time>2024-09-13T08:49:23.000Z</time>
      </trkpt>
      <trkpt lat="44.41522" lon="6.99545">
        <ele>2287.8000488281</ele>
        <time>2024-09-13T08:49:26.000Z</time>
      </trkpt>
      <trkpt lat="44.41521" lon="6.99545">
        <ele>2287.8000488281</ele>
        <time>2024-09-13T08:49:27.000Z</time>
      </trkpt>
      <trkpt lat="44.4152" lon="6.99545">
        <ele>2287.8000488281</ele>
        <time>2024-09-13T08:49:28.000Z</time>
      </trkpt>
      <trkpt lat="44.4152" lon="6.99546">
        <ele>2288</ele>
        <time>2024-09-13T08:49:29.000Z</time>
      </trkpt>
      <trkpt lat="44.41516" lon="6.99547">
        <ele>2288.1999511719</ele>
        <time>2024-09-13T08:49:32.000Z</time>
      </trkpt>
      <trkpt lat="44.41514" lon="6.99549">
        <ele>2288.6000976562</ele>
        <time>2024-09-13T08:49:34.000Z</time>
      </trkpt>
      <trkpt lat="44.41513" lon="6.99549">
        <ele>2288.6000976562</ele>
        <time>2024-09-13T08:49:35.000Z</time>
      </trkpt>
      <trkpt lat="44.41511" lon="6.9955">
        <ele>2288.6000976562</ele>
        <time>2024-09-13T08:49:36.000Z</time>
      </trkpt>
      <trkpt lat="44.4151" lon="6.9955">
        <ele>2288.6000976562</ele>
        <time>2024-09-13T08:49:37.000Z</time>
      </trkpt>
      <trkpt lat="44.4151" lon="6.9955">
        <ele>2288.6000976562</ele>
        <time>2024-09-13T08:49:38.000Z</time>
      </trkpt>
      <trkpt lat="44.41509" lon="6.9955">
        <ele>2288.6000976562</ele>
        <time>2024-09-13T08:49:39.000Z</time>
      </trkpt>
      <trkpt lat="44.41508" lon="6.99549">
        <ele>2288.8000488281</ele>
        <time>2024-09-13T08:49:40.000Z</time>
      </trkpt>
      <trkpt lat="44.41507" lon="6.99549">
        <ele>2289.1999511719</ele>
        <time>2024-09-13T08:49:41.000Z</time>
      </trkpt>
      <trkpt lat="44.41506" lon="6.99549">
        <ele>2289.6000976562</ele>
        <time>2024-09-13T08:49:42.000Z</time>
      </trkpt>
      <trkpt lat="44.41504" lon="6.99549">
        <ele>2289.8000488281</ele>
        <time>2024-09-13T08:49:43.000Z</time>
      </trkpt>
      <trkpt lat="44.41503" lon="6.99549">
        <ele>2289.8000488281</ele>
        <time>2024-09-13T08:49:44.000Z</time>
      </trkpt>
      <trkpt lat="44.415" lon="6.99548">
        <ele>2290.1999511719</ele>
        <time>2024-09-13T08:49:46.000Z</time>
      </trkpt>
      <trkpt lat="44.41499" lon="6.99548">
        <ele>2290.3999023438</ele>
        <time>2024-09-13T08:49:47.000Z</time>
      </trkpt>
      <trkpt lat="44.41498" lon="6.99548">
        <ele>2290.8000488281</ele>
        <time>2024-09-13T08:49:48.000Z</time>
      </trkpt>
      <trkpt lat="44.41497" lon="6.99547">
        <ele>2291</ele>
        <time>2024-09-13T08:49:49.000Z</time>
      </trkpt>
      <trkpt lat="44.41497" lon="6.99547">
        <ele>2291.3999023438</ele>
        <time>2024-09-13T08:49:50.000Z</time>
      </trkpt>
      <trkpt lat="44.41496" lon="6.99546">
        <ele>2291.6000976562</ele>
        <time>2024-09-13T08:49:51.000Z</time>
      </trkpt>
      <trkpt lat="44.41495" lon="6.99546">
        <ele>2291.8000488281</ele>
        <time>2024-09-13T08:49:52.000Z</time>
      </trkpt>
      <trkpt lat="44.41494" lon="6.99547">
        <ele>2292</ele>
        <time>2024-09-13T08:49:53.000Z</time>
      </trkpt>
      <trkpt lat="44.41493" lon="6.99547">
        <ele>2292.1999511719</ele>
        <time>2024-09-13T08:49:54.000Z</time>
      </trkpt>
      <trkpt lat="44.41492" lon="6.99547">
        <ele>2292.3999023438</ele>
        <time>2024-09-13T08:49:55.000Z</time>
      </trkpt>
      <trkpt lat="44.41491" lon="6.99547">
        <ele>2292.3999023438</ele>
        <time>2024-09-13T08:49:56.000Z</time>
      </trkpt>
      <trkpt lat="44.4149" lon="6.99548">
        <ele>2292.8000488281</ele>
        <time>2024-09-13T08:49:57.000Z</time>
      </trkpt>
      <trkpt lat="44.41488" lon="6.99549">
        <ele>2293</ele>
        <time>2024-09-13T08:49:58.000Z</time>
      </trkpt>
      <trkpt lat="44.41488" lon="6.9955">
        <ele>2293.3999023438</ele>
        <time>2024-09-13T08:49:59.000Z</time>
      </trkpt>
      <trkpt lat="44.41487" lon="6.99551">
        <ele>2293.3999023438</ele>
        <time>2024-09-13T08:50:00.000Z</time>
      </trkpt>
      <trkpt lat="44.41486" lon="6.99552">
        <ele>2293.6000976562</ele>
        <time>2024-09-13T08:50:01.000Z</time>
      </trkpt>
      <trkpt lat="44.41485" lon="6.99553">
        <ele>2293.8000488281</ele>
        <time>2024-09-13T08:50:02.000Z</time>
      </trkpt>
      <trkpt lat="44.41484" lon="6.99553">
        <ele>2294</ele>
        <time>2024-09-13T08:50:03.000Z</time>
      </trkpt>
      <trkpt lat="44.41482" lon="6.99553">
        <ele>2294.1999511719</ele>
        <time>2024-09-13T08:50:04.000Z</time>
      </trkpt>
      <trkpt lat="44.41481" lon="6.99552">
        <ele>2294.1999511719</ele>
        <time>2024-09-13T08:50:05.000Z</time>
      </trkpt>
      <trkpt lat="44.4148" lon="6.99552">
        <ele>2294.6000976562</ele>
        <time>2024-09-13T08:50:06.000Z</time>
      </trkpt>
      <trkpt lat="44.41479" lon="6.99551">
        <ele>2294.8000488281</ele>
        <time>2024-09-13T08:50:07.000Z</time>
      </trkpt>
      <trkpt lat="44.41478" lon="6.99551">
        <ele>2295.1999511719</ele>
        <time>2024-09-13T08:50:08.000Z</time>
      </trkpt>
      <trkpt lat="44.41477" lon="6.99551">
        <ele>2295.3999023438</ele>
        <time>2024-09-13T08:50:09.000Z</time>
      </trkpt>
      <trkpt lat="44.41476" lon="6.99552">
        <ele>2295.3999023438</ele>
        <time>2024-09-13T08:50:10.000Z</time>
      </trkpt>
      <trkpt lat="44.41476" lon="6.99553">
        <ele>2295.3999023438</ele>
        <time>2024-09-13T08:50:11.000Z</time>
      </trkpt>
      <trkpt lat="44.41476" lon="6.99555">
        <ele>2295.6000976562</ele>
        <time>2024-09-13T08:50:12.000Z</time>
      </trkpt>
      <trkpt lat="44.41476" lon="6.99557">
        <ele>2296</ele>
        <time>2024-09-13T08:50:13.000Z</time>
      </trkpt>
      <trkpt lat="44.41476" lon="6.99558">
        <ele>2296.1999511719</ele>
        <time>2024-09-13T08:50:14.000Z</time>
      </trkpt>
      <trkpt lat="44.41476" lon="6.9956">
        <ele>2296.6000976562</ele>
        <time>2024-09-13T08:50:15.000Z</time>
      </trkpt>
      <trkpt lat="44.41475" lon="6.99562">
        <ele>2296.8000488281</ele>
        <time>2024-09-13T08:50:16.000Z</time>
      </trkpt>
      <trkpt lat="44.41475" lon="6.99563">
        <ele>2297</ele>
        <time>2024-09-13T08:50:17.000Z</time>
      </trkpt>
      <trkpt lat="44.41474" lon="6.99565">
        <ele>2297.1999511719</ele>
        <time>2024-09-13T08:50:18.000Z</time>
      </trkpt>
      <trkpt lat="44.41474" lon="6.99566">
        <ele>2297.3999023438</ele>
        <time>2024-09-13T08:50:19.000Z</time>
      </trkpt>
      <trkpt lat="44.41473" lon="6.99568">
        <ele>2297.6000976562</ele>
        <time>2024-09-13T08:50:20.000Z</time>
      </trkpt>
      <trkpt lat="44.41473" lon="6.9957">
        <ele>2298</ele>
        <time>2024-09-13T08:50:21.000Z</time>
      </trkpt>
      <trkpt lat="44.41472" lon="6.99571">
        <ele>2298.1999511719</ele>
        <time>2024-09-13T08:50:22.000Z</time>
      </trkpt>
      <trkpt lat="44.41471" lon="6.99572">
        <ele>2298.6000976562</ele>
        <time>2024-09-13T08:50:23.000Z</time>
      </trkpt>
      <trkpt lat="44.41471" lon="6.99572">
        <ele>2298.8000488281</ele>
        <time>2024-09-13T08:50:24.000Z</time>
      </trkpt>
      <trkpt lat="44.41471" lon="6.99572">
        <ele>2298.8000488281</ele>
        <time>2024-09-13T08:50:25.000Z</time>
      </trkpt>
      <trkpt lat="44.4147" lon="6.99572">
        <ele>2299</ele>
        <time>2024-09-13T08:50:26.000Z</time>
      </trkpt>
      <trkpt lat="44.4147" lon="6.99572">
        <ele>2299.1999511719</ele>
        <time>2024-09-13T08:50:27.000Z</time>
      </trkpt>
      <trkpt lat="44.41469" lon="6.99572">
        <ele>2299.3999023438</ele>
        <time>2024-09-13T08:50:28.000Z</time>
      </trkpt>
      <trkpt lat="44.41468" lon="6.99572">
        <ele>2299.6000976562</ele>
        <time>2024-09-13T08:50:29.000Z</time>
      </trkpt>
      <trkpt lat="44.41467" lon="6.99572">
        <ele>2299.6000976562</ele>
        <time>2024-09-13T08:50:30.000Z</time>
      </trkpt>
      <trkpt lat="44.41466" lon="6.99572">
        <ele>2299.8000488281</ele>
        <time>2024-09-13T08:50:31.000Z</time>
      </trkpt>
      <trkpt lat="44.41466" lon="6.99573">
        <ele>2299.8000488281</ele>
        <time>2024-09-13T08:50:32.000Z</time>
      </trkpt>
      <trkpt lat="44.41465" lon="6.99573">
        <ele>2300</ele>
        <time>2024-09-13T08:50:33.000Z</time>
      </trkpt>
      <trkpt lat="44.41465" lon="6.99574">
        <ele>2300.1999511719</ele>
        <time>2024-09-13T08:50:34.000Z</time>
      </trkpt>
      <trkpt lat="44.41464" lon="6.99575">
        <ele>2300.1999511719</ele>
        <time>2024-09-13T08:50:35.000Z</time>
      </trkpt>
      <trkpt lat="44.41464" lon="6.99577">
        <ele>2300.3999023438</ele>
        <time>2024-09-13T08:50:36.000Z</time>
      </trkpt>
      <trkpt lat="44.41463" lon="6.99578">
        <ele>2300.6000976562</ele>
        <time>2024-09-13T08:50:37.000Z</time>
      </trkpt>
      <trkpt lat="44.41463" lon="6.99579">
        <ele>2300.6000976562</ele>
        <time>2024-09-13T08:50:38.000Z</time>
      </trkpt>
      <trkpt lat="44.41462" lon="6.9958">
        <ele>2300.8000488281</ele>
        <time>2024-09-13T08:50:39.000Z</time>
      </trkpt>
      <trkpt lat="44.41462" lon="6.99581">
        <ele>2301.1999511719</ele>
        <time>2024-09-13T08:50:40.000Z</time>
      </trkpt>
      <trkpt lat="44.41462" lon="6.99582">
        <ele>2301.3999023438</ele>
        <time>2024-09-13T08:50:41.000Z</time>
      </trkpt>
      <trkpt lat="44.41461" lon="6.99582">
        <ele>2301.3999023438</ele>
        <time>2024-09-13T08:50:42.000Z</time>
      </trkpt>
      <trkpt lat="44.4146" lon="6.99583">
        <ele>2301.6000976562</ele>
        <time>2024-09-13T08:50:43.000Z</time>
      </trkpt>
      <trkpt lat="44.4146" lon="6.99584">
        <ele>2301.8000488281</ele>
        <time>2024-09-13T08:50:44.000Z</time>
      </trkpt>
      <trkpt lat="44.41459" lon="6.99584">
        <ele>2301.8000488281</ele>
        <time>2024-09-13T08:50:45.000Z</time>
      </trkpt>
      <trkpt lat="44.41458" lon="6.99584">
        <ele>2302</ele>
        <time>2024-09-13T08:50:46.000Z</time>
      </trkpt>
      <trkpt lat="44.41457" lon="6.99584">
        <ele>2302.3999023438</ele>
        <time>2024-09-13T08:50:47.000Z</time>
      </trkpt>
      <trkpt lat="44.41457" lon="6.99585">
        <ele>2302.6000976562</ele>
        <time>2024-09-13T08:50:48.000Z</time>
      </trkpt>
      <trkpt lat="44.41456" lon="6.99585">
        <ele>2302.8000488281</ele>
        <time>2024-09-13T08:50:49.000Z</time>
      </trkpt>
      <trkpt lat="44.41456" lon="6.99584">
        <ele>2303</ele>
        <time>2024-09-13T08:50:50.000Z</time>
      </trkpt>
      <trkpt lat="44.41455" lon="6.99584">
        <ele>2303</ele>
        <time>2024-09-13T08:50:51.000Z</time>
      </trkpt>
      <trkpt lat="44.41455" lon="6.99585">
        <ele>2303.1999511719</ele>
        <time>2024-09-13T08:50:52.000Z</time>
      </trkpt>
      <trkpt lat="44.41454" lon="6.99585">
        <ele>2303.3999023438</ele>
        <time>2024-09-13T08:50:53.000Z</time>
      </trkpt>
      <trkpt lat="44.41454" lon="6.99585">
        <ele>2303.6000976562</ele>
        <time>2024-09-13T08:50:54.000Z</time>
      </trkpt>
      <trkpt lat="44.41453" lon="6.99585">
        <ele>2303.8000488281</ele>
        <time>2024-09-13T08:50:55.000Z</time>
      </trkpt>
      <trkpt lat="44.41452" lon="6.99585">
        <ele>2304</ele>
        <time>2024-09-13T08:50:56.000Z</time>
      </trkpt>
      <trkpt lat="44.41451" lon="6.99586">
        <ele>2304.1999511719</ele>
        <time>2024-09-13T08:50:57.000Z</time>
      </trkpt>
      <trkpt lat="44.4145" lon="6.99586">
        <ele>2304.6000976562</ele>
        <time>2024-09-13T08:50:58.000Z</time>
      </trkpt>
      <trkpt lat="44.41449" lon="6.99587">
        <ele>2304.6000976562</ele>
        <time>2024-09-13T08:50:59.000Z</time>
      </trkpt>
      <trkpt lat="44.41449" lon="6.99588">
        <ele>2304.8000488281</ele>
        <time>2024-09-13T08:51:00.000Z</time>
      </trkpt>
      <trkpt lat="44.41448" lon="6.99589">
        <ele>2305</ele>
        <time>2024-09-13T08:51:01.000Z</time>
      </trkpt>
      <trkpt lat="44.41448" lon="6.99589">
        <ele>2305</ele>
        <time>2024-09-13T08:51:02.000Z</time>
      </trkpt>
      <trkpt lat="44.41448" lon="6.9959">
        <ele>2305.1999511719</ele>
        <time>2024-09-13T08:51:03.000Z</time>
      </trkpt>
      <trkpt lat="44.41447" lon="6.9959">
        <ele>2305.3999023438</ele>
        <time>2024-09-13T08:51:04.000Z</time>
      </trkpt>
      <trkpt lat="44.41448" lon="6.99591">
        <ele>2305.6000976562</ele>
        <time>2024-09-13T08:51:05.000Z</time>
      </trkpt>
      <trkpt lat="44.41447" lon="6.99591">
        <ele>2305.8000488281</ele>
        <time>2024-09-13T08:51:06.000Z</time>
      </trkpt>
      <trkpt lat="44.41447" lon="6.99592">
        <ele>2306</ele>
        <time>2024-09-13T08:51:07.000Z</time>
      </trkpt>
      <trkpt lat="44.41447" lon="6.99592">
        <ele>2306.1999511719</ele>
        <time>2024-09-13T08:51:08.000Z</time>
      </trkpt>
      <trkpt lat="44.41447" lon="6.99593">
        <ele>2306.1999511719</ele>
        <time>2024-09-13T08:51:09.000Z</time>
      </trkpt>
      <trkpt lat="44.41446" lon="6.99593">
        <ele>2306.6000976562</ele>
        <time>2024-09-13T08:51:10.000Z</time>
      </trkpt>
      <trkpt lat="44.41445" lon="6.99594">
        <ele>2306.8000488281</ele>
        <time>2024-09-13T08:51:11.000Z</time>
      </trkpt>
      <trkpt lat="44.41445" lon="6.99593">
        <ele>2306.8000488281</ele>
        <time>2024-09-13T08:51:12.000Z</time>
      </trkpt>
      <trkpt lat="44.41444" lon="6.99593">
        <ele>2307</ele>
        <time>2024-09-13T08:51:13.000Z</time>
      </trkpt>
      <trkpt lat="44.41443" lon="6.99593">
        <ele>2307.1999511719</ele>
        <time>2024-09-13T08:51:14.000Z</time>
      </trkpt>
      <trkpt lat="44.41443" lon="6.99593">
        <ele>2307.1999511719</ele>
        <time>2024-09-13T08:51:15.000Z</time>
      </trkpt>
      <trkpt lat="44.41442" lon="6.99594">
        <ele>2307.3999023438</ele>
        <time>2024-09-13T08:51:16.000Z</time>
      </trkpt>
      <trkpt lat="44.41442" lon="6.99594">
        <ele>2307.6000976562</ele>
        <time>2024-09-13T08:51:17.000Z</time>
      </trkpt>
      <trkpt lat="44.41441" lon="6.99594">
        <ele>2307.8000488281</ele>
        <time>2024-09-13T08:51:18.000Z</time>
      </trkpt>
      <trkpt lat="44.4144" lon="6.99594">
        <ele>2308</ele>
        <time>2024-09-13T08:51:19.000Z</time>
      </trkpt>
      <trkpt lat="44.4144" lon="6.99593">
        <ele>2308.1999511719</ele>
        <time>2024-09-13T08:51:20.000Z</time>
      </trkpt>
      <trkpt lat="44.41439" lon="6.99593">
        <ele>2308.1999511719</ele>
        <time>2024-09-13T08:51:21.000Z</time>
      </trkpt>
      <trkpt lat="44.41438" lon="6.99593">
        <ele>2308.3999023438</ele>
        <time>2024-09-13T08:51:22.000Z</time>
      </trkpt>
      <trkpt lat="44.41438" lon="6.99593">
        <ele>2308.6000976562</ele>
        <time>2024-09-13T08:51:23.000Z</time>
      </trkpt>
      <trkpt lat="44.41437" lon="6.99593">
        <ele>2309</ele>
        <time>2024-09-13T08:51:24.000Z</time>
      </trkpt>
      <trkpt lat="44.41436" lon="6.99593">
        <ele>2309.1999511719</ele>
        <time>2024-09-13T08:51:25.000Z</time>
      </trkpt>
      <trkpt lat="44.41436" lon="6.99593">
        <ele>2309.1999511719</ele>
        <time>2024-09-13T08:51:26.000Z</time>
      </trkpt>
      <trkpt lat="44.41435" lon="6.99593">
        <ele>2309.3999023438</ele>
        <time>2024-09-13T08:51:27.000Z</time>
      </trkpt>
      <trkpt lat="44.41434" lon="6.99593">
        <ele>2309.6000976562</ele>
        <time>2024-09-13T08:51:28.000Z</time>
      </trkpt>
      <trkpt lat="44.41433" lon="6.99594">
        <ele>2309.6000976562</ele>
        <time>2024-09-13T08:51:29.000Z</time>
      </trkpt>
      <trkpt lat="44.41433" lon="6.99593">
        <ele>2309.8000488281</ele>
        <time>2024-09-13T08:51:30.000Z</time>
      </trkpt>
      <trkpt lat="44.41432" lon="6.99593">
        <ele>2310</ele>
        <time>2024-09-13T08:51:31.000Z</time>
      </trkpt>
      <trkpt lat="44.41432" lon="6.99594">
        <ele>2310.3999023438</ele>
        <time>2024-09-13T08:51:32.000Z</time>
      </trkpt>
      <trkpt lat="44.41431" lon="6.99594">
        <ele>2310.3999023438</ele>
        <time>2024-09-13T08:51:33.000Z</time>
      </trkpt>
      <trkpt lat="44.4143" lon="6.99594">
        <ele>2310.8000488281</ele>
        <time>2024-09-13T08:51:34.000Z</time>
      </trkpt>
      <trkpt lat="44.41429" lon="6.99593">
        <ele>2311</ele>
        <time>2024-09-13T08:51:35.000Z</time>
      </trkpt>
      <trkpt lat="44.41429" lon="6.99593">
        <ele>2311.1999511719</ele>
        <time>2024-09-13T08:51:36.000Z</time>
      </trkpt>
      <trkpt lat="44.41428" lon="6.99593">
        <ele>2311.3999023438</ele>
        <time>2024-09-13T08:51:37.000Z</time>
      </trkpt>
      <trkpt lat="44.41428" lon="6.99593">
        <ele>2311.6000976562</ele>
        <time>2024-09-13T08:51:38.000Z</time>
      </trkpt>
      <trkpt lat="44.41427" lon="6.99593">
        <ele>2311.8000488281</ele>
        <time>2024-09-13T08:51:39.000Z</time>
      </trkpt>
      <trkpt lat="44.41426" lon="6.99593">
        <ele>2311.8000488281</ele>
        <time>2024-09-13T08:51:40.000Z</time>
      </trkpt>
      <trkpt lat="44.41425" lon="6.99593">
        <ele>2312.1999511719</ele>
        <time>2024-09-13T08:51:41.000Z</time>
      </trkpt>
      <trkpt lat="44.41424" lon="6.99594">
        <ele>2312.3999023438</ele>
        <time>2024-09-13T08:51:42.000Z</time>
      </trkpt>
      <trkpt lat="44.41424" lon="6.99594">
        <ele>2312.3999023438</ele>
        <time>2024-09-13T08:51:43.000Z</time>
      </trkpt>
      <trkpt lat="44.41423" lon="6.99595">
        <ele>2312.6000976562</ele>
        <time>2024-09-13T08:51:44.000Z</time>
      </trkpt>
      <trkpt lat="44.41423" lon="6.99595">
        <ele>2313</ele>
        <time>2024-09-13T08:51:45.000Z</time>
      </trkpt>
      <trkpt lat="44.41423" lon="6.99596">
        <ele>2313</ele>
        <time>2024-09-13T08:51:46.000Z</time>
      </trkpt>
      <trkpt lat="44.41422" lon="6.99597">
        <ele>2313</ele>
        <time>2024-09-13T08:51:47.000Z</time>
      </trkpt>
      <trkpt lat="44.41421" lon="6.99598">
        <ele>2313.1999511719</ele>
        <time>2024-09-13T08:51:48.000Z</time>
      </trkpt>
      <trkpt lat="44.4142" lon="6.99599">
        <ele>2313.3999023438</ele>
        <time>2024-09-13T08:51:49.000Z</time>
      </trkpt>
      <trkpt lat="44.4142" lon="6.99599">
        <ele>2313.6000976562</ele>
        <time>2024-09-13T08:51:50.000Z</time>
      </trkpt>
      <trkpt lat="44.41419" lon="6.996">
        <ele>2313.6000976562</ele>
        <time>2024-09-13T08:51:51.000Z</time>
      </trkpt>
      <trkpt lat="44.41418" lon="6.99601">
        <ele>2313.8000488281</ele>
        <time>2024-09-13T08:51:52.000Z</time>
      </trkpt>
      <trkpt lat="44.41417" lon="6.99601">
        <ele>2314.1999511719</ele>
        <time>2024-09-13T08:51:53.000Z</time>
      </trkpt>
      <trkpt lat="44.41417" lon="6.99602">
        <ele>2314.3999023438</ele>
        <time>2024-09-13T08:51:54.000Z</time>
      </trkpt>
      <trkpt lat="44.41416" lon="6.99603">
        <ele>2314.3999023438</ele>
        <time>2024-09-13T08:51:55.000Z</time>
      </trkpt>
      <trkpt lat="44.41415" lon="6.99603">
        <ele>2314.8000488281</ele>
        <time>2024-09-13T08:51:56.000Z</time>
      </trkpt>
      <trkpt lat="44.41415" lon="6.99604">
        <ele>2314.8000488281</ele>
        <time>2024-09-13T08:51:57.000Z</time>
      </trkpt>
      <trkpt lat="44.41414" lon="6.99605">
        <ele>2315</ele>
        <time>2024-09-13T08:51:58.000Z</time>
      </trkpt>
      <trkpt lat="44.41414" lon="6.99605">
        <ele>2315.1999511719</ele>
        <time>2024-09-13T08:51:59.000Z</time>
      </trkpt>
      <trkpt lat="44.41414" lon="6.99606">
        <ele>2315.3999023438</ele>
        <time>2024-09-13T08:52:00.000Z</time>
      </trkpt>
      <trkpt lat="44.41414" lon="6.99607">
        <ele>2315.3999023438</ele>
        <time>2024-09-13T08:52:01.000Z</time>
      </trkpt>
      <trkpt lat="44.41414" lon="6.99607">
        <ele>2315.6000976562</ele>
        <time>2024-09-13T08:52:02.000Z</time>
      </trkpt>
      <trkpt lat="44.41414" lon="6.99608">
        <ele>2315.8000488281</ele>
        <time>2024-09-13T08:52:03.000Z</time>
      </trkpt>
      <trkpt lat="44.41414" lon="6.99609">
        <ele>2315.8000488281</ele>
        <time>2024-09-13T08:52:04.000Z</time>
      </trkpt>
      <trkpt lat="44.41414" lon="6.99609">
        <ele>2316.1999511719</ele>
        <time>2024-09-13T08:52:05.000Z</time>
      </trkpt>
      <trkpt lat="44.41415" lon="6.9961">
        <ele>2316.3999023438</ele>
        <time>2024-09-13T08:52:06.000Z</time>
      </trkpt>
      <trkpt lat="44.41415" lon="6.99611">
        <ele>2316.3999023438</ele>
        <time>2024-09-13T08:52:07.000Z</time>
      </trkpt>
      <trkpt lat="44.41415" lon="6.99612">
        <ele>2316.8000488281</ele>
        <time>2024-09-13T08:52:08.000Z</time>
      </trkpt>
      <trkpt lat="44.41416" lon="6.99613">
        <ele>2316.8000488281</ele>
        <time>2024-09-13T08:52:09.000Z</time>
      </trkpt>
      <trkpt lat="44.41416" lon="6.99614">
        <ele>2317</ele>
        <time>2024-09-13T08:52:10.000Z</time>
      </trkpt>
      <trkpt lat="44.41416" lon="6.99615">
        <ele>2317.1999511719</ele>
        <time>2024-09-13T08:52:11.000Z</time>
      </trkpt>
      <trkpt lat="44.41416" lon="6.99616">
        <ele>2317.3999023438</ele>
        <time>2024-09-13T08:52:12.000Z</time>
      </trkpt>
      <trkpt lat="44.41417" lon="6.99616">
        <ele>2317.6000976562</ele>
        <time>2024-09-13T08:52:13.000Z</time>
      </trkpt>
      <trkpt lat="44.41418" lon="6.99617">
        <ele>2317.8000488281</ele>
        <time>2024-09-13T08:52:14.000Z</time>
      </trkpt>
      <trkpt lat="44.41418" lon="6.99618">
        <ele>2318</ele>
        <time>2024-09-13T08:52:15.000Z</time>
      </trkpt>
      <trkpt lat="44.41418" lon="6.99619">
        <ele>2318</ele>
        <time>2024-09-13T08:52:16.000Z</time>
      </trkpt>
      <trkpt lat="44.41418" lon="6.9962">
        <ele>2318.1999511719</ele>
        <time>2024-09-13T08:52:17.000Z</time>
      </trkpt>
      <trkpt lat="44.41418" lon="6.99621">
        <ele>2318.3999023438</ele>
        <time>2024-09-13T08:52:18.000Z</time>
      </trkpt>
      <trkpt lat="44.41418" lon="6.99622">
        <ele>2318.6000976562</ele>
        <time>2024-09-13T08:52:19.000Z</time>
      </trkpt>
      <trkpt lat="44.41417" lon="6.99624">
        <ele>2318.8000488281</ele>
        <time>2024-09-13T08:52:20.000Z</time>
      </trkpt>
      <trkpt lat="44.41417" lon="6.99625">
        <ele>2319</ele>
        <time>2024-09-13T08:52:21.000Z</time>
      </trkpt>
      <trkpt lat="44.41416" lon="6.99626">
        <ele>2319.1999511719</ele>
        <time>2024-09-13T08:52:22.000Z</time>
      </trkpt>
      <trkpt lat="44.41415" lon="6.99627">
        <ele>2319.3999023438</ele>
        <time>2024-09-13T08:52:23.000Z</time>
      </trkpt>
      <trkpt lat="44.41414" lon="6.99627">
        <ele>2319.3999023438</ele>
        <time>2024-09-13T08:52:24.000Z</time>
      </trkpt>
      <trkpt lat="44.41413" lon="6.99627">
        <ele>2319.6000976562</ele>
        <time>2024-09-13T08:52:25.000Z</time>
      </trkpt>
      <trkpt lat="44.41412" lon="6.99627">
        <ele>2319.8000488281</ele>
        <time>2024-09-13T08:52:26.000Z</time>
      </trkpt>
      <trkpt lat="44.41412" lon="6.99627">
        <ele>2320</ele>
        <time>2024-09-13T08:52:27.000Z</time>
      </trkpt>
      <trkpt lat="44.41411" lon="6.99628">
        <ele>2320.1999511719</ele>
        <time>2024-09-13T08:52:28.000Z</time>
      </trkpt>
      <trkpt lat="44.4141" lon="6.99628">
        <ele>2320.3999023438</ele>
        <time>2024-09-13T08:52:29.000Z</time>
      </trkpt>
      <trkpt lat="44.41409" lon="6.99628">
        <ele>2320.6000976562</ele>
        <time>2024-09-13T08:52:30.000Z</time>
      </trkpt>
      <trkpt lat="44.41409" lon="6.99628">
        <ele>2320.6000976562</ele>
        <time>2024-09-13T08:52:31.000Z</time>
      </trkpt>
      <trkpt lat="44.41408" lon="6.99628">
        <ele>2320.6000976562</ele>
        <time>2024-09-13T08:52:32.000Z</time>
      </trkpt>
      <trkpt lat="44.41407" lon="6.99628">
        <ele>2320.8000488281</ele>
        <time>2024-09-13T08:52:33.000Z</time>
      </trkpt>
      <trkpt lat="44.41407" lon="6.99628">
        <ele>2321.1999511719</ele>
        <time>2024-09-13T08:52:34.000Z</time>
      </trkpt>
      <trkpt lat="44.41407" lon="6.99628">
        <ele>2321.3999023438</ele>
        <time>2024-09-13T08:52:35.000Z</time>
      </trkpt>
      <trkpt lat="44.41407" lon="6.99628">
        <ele>2321.3999023438</ele>
        <time>2024-09-13T08:52:36.000Z</time>
      </trkpt>
      <trkpt lat="44.41407" lon="6.99628">
        <ele>2321.3999023438</ele>
        <time>2024-09-13T08:52:37.000Z</time>
      </trkpt>
      <trkpt lat="44.41408" lon="6.99629">
        <ele>2321.6000976562</ele>
        <time>2024-09-13T08:52:38.000Z</time>
      </trkpt>
      <trkpt lat="44.41408" lon="6.9963">
        <ele>2321.8000488281</ele>
        <time>2024-09-13T08:52:39.000Z</time>
      </trkpt>
      <trkpt lat="44.41407" lon="6.9963">
        <ele>2322</ele>
        <time>2024-09-13T08:52:40.000Z</time>
      </trkpt>
      <trkpt lat="44.41407" lon="6.9963">
        <ele>2322.6000976562</ele>
        <time>2024-09-13T08:52:42.000Z</time>
      </trkpt>
      <trkpt lat="44.41407" lon="6.99631">
        <ele>2322.8000488281</ele>
        <time>2024-09-13T08:52:43.000Z</time>
      </trkpt>
      <trkpt lat="44.41408" lon="6.9963">
        <ele>2322.8000488281</ele>
        <time>2024-09-13T08:52:44.000Z</time>
      </trkpt>
      <trkpt lat="44.41408" lon="6.9963">
        <ele>2322.8000488281</ele>
        <time>2024-09-13T08:52:45.000Z</time>
      </trkpt>
      <trkpt lat="44.41409" lon="6.9963">
        <ele>2323</ele>
        <time>2024-09-13T08:52:46.000Z</time>
      </trkpt>
      <trkpt lat="44.41409" lon="6.9963">
        <ele>2323</ele>
        <time>2024-09-13T08:52:47.000Z</time>
      </trkpt>
      <trkpt lat="44.4141" lon="6.9963">
        <ele>2323</ele>
        <time>2024-09-13T08:52:48.000Z</time>
      </trkpt>
      <trkpt lat="44.4141" lon="6.99629">
        <ele>2322.8000488281</ele>
        <time>2024-09-13T08:52:49.000Z</time>
      </trkpt>
      <trkpt lat="44.4141" lon="6.9963">
        <ele>2322.8000488281</ele>
        <time>2024-09-13T08:52:50.000Z</time>
      </trkpt>
      <trkpt lat="44.4141" lon="6.99631">
        <ele>2322.8000488281</ele>
        <time>2024-09-13T08:52:51.000Z</time>
      </trkpt>
      <trkpt lat="44.4141" lon="6.99632">
        <ele>2322.6000976562</ele>
        <time>2024-09-13T08:52:52.000Z</time>
      </trkpt>
      <trkpt lat="44.4141" lon="6.99633">
        <ele>2322.1999511719</ele>
        <time>2024-09-13T08:52:53.000Z</time>
      </trkpt>
      <trkpt lat="44.4141" lon="6.99634">
        <ele>2322.1999511719</ele>
        <time>2024-09-13T08:52:54.000Z</time>
      </trkpt>
      <trkpt lat="44.4141" lon="6.99635">
        <ele>2322.1999511719</ele>
        <time>2024-09-13T08:52:55.000Z</time>
      </trkpt>
      <trkpt lat="44.4141" lon="6.99636">
        <ele>2322.1999511719</ele>
        <time>2024-09-13T08:52:56.000Z</time>
      </trkpt>
      <trkpt lat="44.41409" lon="6.99636">
        <ele>2322.1999511719</ele>
        <time>2024-09-13T08:52:57.000Z</time>
      </trkpt>
      <trkpt lat="44.41409" lon="6.99637">
        <ele>2322.3999023438</ele>
        <time>2024-09-13T08:52:58.000Z</time>
      </trkpt>
      <trkpt lat="44.41408" lon="6.9964">
        <ele>2322.8000488281</ele>
        <time>2024-09-13T08:53:01.000Z</time>
      </trkpt>
      <trkpt lat="44.41408" lon="6.9964">
        <ele>2323</ele>
        <time>2024-09-13T08:53:02.000Z</time>
      </trkpt>
      <trkpt lat="44.41407" lon="6.9964">
        <ele>2323.3999023438</ele>
        <time>2024-09-13T08:53:04.000Z</time>
      </trkpt>
      <trkpt lat="44.41406" lon="6.99641">
        <ele>2323.8000488281</ele>
        <time>2024-09-13T08:53:05.000Z</time>
      </trkpt>
      <trkpt lat="44.41406" lon="6.99642">
        <ele>2324</ele>
        <time>2024-09-13T08:53:06.000Z</time>
      </trkpt>
      <trkpt lat="44.41405" lon="6.99642">
        <ele>2324.1999511719</ele>
        <time>2024-09-13T08:53:07.000Z</time>
      </trkpt>
      <trkpt lat="44.41405" lon="6.99643">
        <ele>2324.3999023438</ele>
        <time>2024-09-13T08:53:08.000Z</time>
      </trkpt>
      <trkpt lat="44.41404" lon="6.99644">
        <ele>2325</ele>
        <time>2024-09-13T08:53:10.000Z</time>
      </trkpt>
      <trkpt lat="44.41402" lon="6.99646">
        <ele>2325.3999023438</ele>
        <time>2024-09-13T08:53:12.000Z</time>
      </trkpt>
      <trkpt lat="44.41401" lon="6.99646">
        <ele>2325.6000976562</ele>
        <time>2024-09-13T08:53:13.000Z</time>
      </trkpt>
      <trkpt lat="44.41401" lon="6.99647">
        <ele>2325.6000976562</ele>
        <time>2024-09-13T08:53:14.000Z</time>
      </trkpt>
      <trkpt lat="44.41401" lon="6.99648">
        <ele>2325.8000488281</ele>
        <time>2024-09-13T08:53:15.000Z</time>
      </trkpt>
      <trkpt lat="44.414" lon="6.99649">
        <ele>2326</ele>
        <time>2024-09-13T08:53:16.000Z</time>
      </trkpt>
      <trkpt lat="44.414" lon="6.99651">
        <ele>2326</ele>
        <time>2024-09-13T08:53:17.000Z</time>
      </trkpt>
      <trkpt lat="44.41399" lon="6.99652">
        <ele>2326.1999511719</ele>
        <time>2024-09-13T08:53:18.000Z</time>
      </trkpt>
      <trkpt lat="44.41399" lon="6.99653">
        <ele>2326.1999511719</ele>
        <time>2024-09-13T08:53:19.000Z</time>
      </trkpt>
      <trkpt lat="44.41399" lon="6.99654">
        <ele>2326.6000976562</ele>
        <time>2024-09-13T08:53:20.000Z</time>
      </trkpt>
      <trkpt lat="44.41399" lon="6.99654">
        <ele>2326.8000488281</ele>
        <time>2024-09-13T08:53:21.000Z</time>
      </trkpt>
      <trkpt lat="44.41398" lon="6.99655">
        <ele>2327</ele>
        <time>2024-09-13T08:53:22.000Z</time>
      </trkpt>
      <trkpt lat="44.41398" lon="6.99655">
        <ele>2327</ele>
        <time>2024-09-13T08:53:23.000Z</time>
      </trkpt>
      <trkpt lat="44.41397" lon="6.99656">
        <ele>2327.1999511719</ele>
        <time>2024-09-13T08:53:24.000Z</time>
      </trkpt>
      <trkpt lat="44.41397" lon="6.99656">
        <ele>2327.3999023438</ele>
        <time>2024-09-13T08:53:25.000Z</time>
      </trkpt>
      <trkpt lat="44.41397" lon="6.99656">
        <ele>2327.6000976562</ele>
        <time>2024-09-13T08:53:26.000Z</time>
      </trkpt>
      <trkpt lat="44.41397" lon="6.99657">
        <ele>2327.8000488281</ele>
        <time>2024-09-13T08:53:27.000Z</time>
      </trkpt>
      <trkpt lat="44.41397" lon="6.99658">
        <ele>2328.1999511719</ele>
        <time>2024-09-13T08:53:28.000Z</time>
      </trkpt>
      <trkpt lat="44.41398" lon="6.99659">
        <ele>2328.6000976562</ele>
        <time>2024-09-13T08:53:29.000Z</time>
      </trkpt>
      <trkpt lat="44.41398" lon="6.99659">
        <ele>2329</ele>
        <time>2024-09-13T08:53:30.000Z</time>
      </trkpt>
      <trkpt lat="44.41398" lon="6.9966">
        <ele>2329</ele>
        <time>2024-09-13T08:53:31.000Z</time>
      </trkpt>
      <trkpt lat="44.41399" lon="6.99661">
        <ele>2329</ele>
        <time>2024-09-13T08:53:32.000Z</time>
      </trkpt>
      <trkpt lat="44.41399" lon="6.99662">
        <ele>2329.1999511719</ele>
        <time>2024-09-13T08:53:33.000Z</time>
      </trkpt>
      <trkpt lat="44.41399" lon="6.99662">
        <ele>2329.6000976562</ele>
        <time>2024-09-13T08:53:34.000Z</time>
      </trkpt>
      <trkpt lat="44.41399" lon="6.99663">
        <ele>2329.8000488281</ele>
        <time>2024-09-13T08:53:35.000Z</time>
      </trkpt>
      <trkpt lat="44.41399" lon="6.99664">
        <ele>2330</ele>
        <time>2024-09-13T08:53:36.000Z</time>
      </trkpt>
      <trkpt lat="44.41399" lon="6.99665">
        <ele>2330.1999511719</ele>
        <time>2024-09-13T08:53:37.000Z</time>
      </trkpt>
      <trkpt lat="44.41399" lon="6.99666">
        <ele>2330.3999023438</ele>
        <time>2024-09-13T08:53:38.000Z</time>
      </trkpt>
      <trkpt lat="44.41398" lon="6.99666">
        <ele>2330.6000976562</ele>
        <time>2024-09-13T08:53:39.000Z</time>
      </trkpt>
      <trkpt lat="44.41397" lon="6.99666">
        <ele>2330.6000976562</ele>
        <time>2024-09-13T08:53:40.000Z</time>
      </trkpt>
      <trkpt lat="44.41397" lon="6.99666">
        <ele>2330.8000488281</ele>
        <time>2024-09-13T08:53:41.000Z</time>
      </trkpt>
      <trkpt lat="44.41397" lon="6.99666">
        <ele>2331</ele>
        <time>2024-09-13T08:53:42.000Z</time>
      </trkpt>
      <trkpt lat="44.41396" lon="6.99665">
        <ele>2331.1999511719</ele>
        <time>2024-09-13T08:53:43.000Z</time>
      </trkpt>
      <trkpt lat="44.41395" lon="6.99665">
        <ele>2331.3999023438</ele>
        <time>2024-09-13T08:53:44.000Z</time>
      </trkpt>
      <trkpt lat="44.41394" lon="6.99665">
        <ele>2331.3999023438</ele>
        <time>2024-09-13T08:53:45.000Z</time>
      </trkpt>
      <trkpt lat="44.41393" lon="6.99665">
        <ele>2331.6000976562</ele>
        <time>2024-09-13T08:53:46.000Z</time>
      </trkpt>
      <trkpt lat="44.41393" lon="6.99665">
        <ele>2332</ele>
        <time>2024-09-13T08:53:47.000Z</time>
      </trkpt>
      <trkpt lat="44.41392" lon="6.99665">
        <ele>2332.1999511719</ele>
        <time>2024-09-13T08:53:48.000Z</time>
      </trkpt>
      <trkpt lat="44.41391" lon="6.99665">
        <ele>2332.1999511719</ele>
        <time>2024-09-13T08:53:49.000Z</time>
      </trkpt>
      <trkpt lat="44.41391" lon="6.99665">
        <ele>2332.3999023438</ele>
        <time>2024-09-13T08:53:50.000Z</time>
      </trkpt>
      <trkpt lat="44.4139" lon="6.99666">
        <ele>2332.6000976562</ele>
        <time>2024-09-13T08:53:51.000Z</time>
      </trkpt>
      <trkpt lat="44.41389" lon="6.99667">
        <ele>2333</ele>
        <time>2024-09-13T08:53:52.000Z</time>
      </trkpt>
      <trkpt lat="44.41389" lon="6.99667">
        <ele>2333</ele>
        <time>2024-09-13T08:53:53.000Z</time>
      </trkpt>
      <trkpt lat="44.41389" lon="6.99667">
        <ele>2333</ele>
        <time>2024-09-13T08:53:54.000Z</time>
      </trkpt>
      <trkpt lat="44.41389" lon="6.99667">
        <ele>2333.3999023438</ele>
        <time>2024-09-13T08:53:56.000Z</time>
      </trkpt>
      <trkpt lat="44.41389" lon="6.99667">
        <ele>2333.3999023438</ele>
        <time>2024-09-13T08:53:58.000Z</time>
      </trkpt>
      <trkpt lat="44.41389" lon="6.99668">
        <ele>2333.3999023438</ele>
        <time>2024-09-13T08:53:59.000Z</time>
      </trkpt>
      <trkpt lat="44.41389" lon="6.99668">
        <ele>2333.3999023438</ele>
        <time>2024-09-13T08:54:00.000Z</time>
      </trkpt>
      <trkpt lat="44.41389" lon="6.99667">
        <ele>2333.6000976562</ele>
        <time>2024-09-13T08:54:01.000Z</time>
      </trkpt>
      <trkpt lat="44.41389" lon="6.99667">
        <ele>2333.6000976562</ele>
        <time>2024-09-13T08:54:02.000Z</time>
      </trkpt>
      <trkpt lat="44.41389" lon="6.99667">
        <ele>2333.8000488281</ele>
        <time>2024-09-13T08:54:03.000Z</time>
      </trkpt>
      <trkpt lat="44.41389" lon="6.99668">
        <ele>2333.8000488281</ele>
        <time>2024-09-13T08:54:04.000Z</time>
      </trkpt>
      <trkpt lat="44.41388" lon="6.99668">
        <ele>2334</ele>
        <time>2024-09-13T08:54:05.000Z</time>
      </trkpt>
      <trkpt lat="44.41388" lon="6.99669">
        <ele>2334</ele>
        <time>2024-09-13T08:54:06.000Z</time>
      </trkpt>
      <trkpt lat="44.41388" lon="6.9967">
        <ele>2334</ele>
        <time>2024-09-13T08:54:07.000Z</time>
      </trkpt>
      <trkpt lat="44.41388" lon="6.9967">
        <ele>2334</ele>
        <time>2024-09-13T08:54:08.000Z</time>
      </trkpt>
      <trkpt lat="44.41389" lon="6.9967">
        <ele>2334.1999511719</ele>
        <time>2024-09-13T08:54:09.000Z</time>
      </trkpt>
      <trkpt lat="44.41389" lon="6.9967">
        <ele>2334.3999023438</ele>
        <time>2024-09-13T08:54:10.000Z</time>
      </trkpt>
      <trkpt lat="44.4139" lon="6.99671">
        <ele>2334.3999023438</ele>
        <time>2024-09-13T08:54:11.000Z</time>
      </trkpt>
      <trkpt lat="44.41391" lon="6.99671">
        <ele>2334.8000488281</ele>
        <time>2024-09-13T08:54:12.000Z</time>
      </trkpt>
      <trkpt lat="44.41391" lon="6.99673">
        <ele>2334.8000488281</ele>
        <time>2024-09-13T08:54:13.000Z</time>
      </trkpt>
      <trkpt lat="44.41391" lon="6.99674">
        <ele>2334.8000488281</ele>
        <time>2024-09-13T08:54:14.000Z</time>
      </trkpt>
      <trkpt lat="44.41391" lon="6.99675">
        <ele>2335</ele>
        <time>2024-09-13T08:54:15.000Z</time>
      </trkpt>
      <trkpt lat="44.41392" lon="6.99676">
        <ele>2335.6000976562</ele>
        <time>2024-09-13T08:54:16.000Z</time>
      </trkpt>
      <trkpt lat="44.41392" lon="6.99678">
        <ele>2336</ele>
        <time>2024-09-13T08:54:17.000Z</time>
      </trkpt>
      <trkpt lat="44.41392" lon="6.99679">
        <ele>2336.1999511719</ele>
        <time>2024-09-13T08:54:18.000Z</time>
      </trkpt>
      <trkpt lat="44.41393" lon="6.9968">
        <ele>2336.6000976562</ele>
        <time>2024-09-13T08:54:19.000Z</time>
      </trkpt>
      <trkpt lat="44.41393" lon="6.99681">
        <ele>2336.8000488281</ele>
        <time>2024-09-13T08:54:20.000Z</time>
      </trkpt>
      <trkpt lat="44.41393" lon="6.99682">
        <ele>2337.1999511719</ele>
        <time>2024-09-13T08:54:21.000Z</time>
      </trkpt>
      <trkpt lat="44.41394" lon="6.99683">
        <ele>2337.3999023438</ele>
        <time>2024-09-13T08:54:22.000Z</time>
      </trkpt>
      <trkpt lat="44.41394" lon="6.99684">
        <ele>2337.6000976562</ele>
        <time>2024-09-13T08:54:23.000Z</time>
      </trkpt>
      <trkpt lat="44.41394" lon="6.99685">
        <ele>2338</ele>
        <time>2024-09-13T08:54:24.000Z</time>
      </trkpt>
      <trkpt lat="44.41395" lon="6.99686">
        <ele>2338.3999023438</ele>
        <time>2024-09-13T08:54:25.000Z</time>
      </trkpt>
      <trkpt lat="44.41396" lon="6.99686">
        <ele>2338.6000976562</ele>
        <time>2024-09-13T08:54:26.000Z</time>
      </trkpt>
      <trkpt lat="44.41396" lon="6.99687">
        <ele>2338.8000488281</ele>
        <time>2024-09-13T08:54:27.000Z</time>
      </trkpt>
      <trkpt lat="44.41396" lon="6.99688">
        <ele>2339</ele>
        <time>2024-09-13T08:54:28.000Z</time>
      </trkpt>
      <trkpt lat="44.41396" lon="6.99689">
        <ele>2339.1999511719</ele>
        <time>2024-09-13T08:54:29.000Z</time>
      </trkpt>
      <trkpt lat="44.41395" lon="6.9969">
        <ele>2339.3999023438</ele>
        <time>2024-09-13T08:54:30.000Z</time>
      </trkpt>
      <trkpt lat="44.41395" lon="6.99691">
        <ele>2340</ele>
        <time>2024-09-13T08:54:31.000Z</time>
      </trkpt>
      <trkpt lat="44.41394" lon="6.99691">
        <ele>2340.1999511719</ele>
        <time>2024-09-13T08:54:32.000Z</time>
      </trkpt>
      <trkpt lat="44.41393" lon="6.99691">
        <ele>2340.3999023438</ele>
        <time>2024-09-13T08:54:33.000Z</time>
      </trkpt>
      <trkpt lat="44.41392" lon="6.99692">
        <ele>2340.6000976562</ele>
        <time>2024-09-13T08:54:34.000Z</time>
      </trkpt>
      <trkpt lat="44.41391" lon="6.99692">
        <ele>2341</ele>
        <time>2024-09-13T08:54:35.000Z</time>
      </trkpt>
      <trkpt lat="44.41391" lon="6.99692">
        <ele>2341</ele>
        <time>2024-09-13T08:54:36.000Z</time>
      </trkpt>
      <trkpt lat="44.4139" lon="6.99692">
        <ele>2341.1999511719</ele>
        <time>2024-09-13T08:54:37.000Z</time>
      </trkpt>
      <trkpt lat="44.41389" lon="6.99691">
        <ele>2341.8000488281</ele>
        <time>2024-09-13T08:54:38.000Z</time>
      </trkpt>
      <trkpt lat="44.41389" lon="6.99691">
        <ele>2342</ele>
        <time>2024-09-13T08:54:39.000Z</time>
      </trkpt>
      <trkpt lat="44.41388" lon="6.9969">
        <ele>2342</ele>
        <time>2024-09-13T08:54:40.000Z</time>
      </trkpt>
      <trkpt lat="44.41388" lon="6.99689">
        <ele>2342.3999023438</ele>
        <time>2024-09-13T08:54:41.000Z</time>
      </trkpt>
      <trkpt lat="44.41386" lon="6.99686">
        <ele>2342.6000976562</ele>
        <time>2024-09-13T08:54:42.000Z</time>
      </trkpt>
      <trkpt lat="44.41386" lon="6.99685">
        <ele>2342.8000488281</ele>
        <time>2024-09-13T08:54:43.000Z</time>
      </trkpt>
      <trkpt lat="44.41385" lon="6.99684">
        <ele>2343.1999511719</ele>
        <time>2024-09-13T08:54:44.000Z</time>
      </trkpt>
      <trkpt lat="44.41384" lon="6.99683">
        <ele>2343.3999023438</ele>
        <time>2024-09-13T08:54:45.000Z</time>
      </trkpt>
      <trkpt lat="44.41383" lon="6.99683">
        <ele>2343.8000488281</ele>
        <time>2024-09-13T08:54:46.000Z</time>
      </trkpt>
      <trkpt lat="44.41382" lon="6.99682">
        <ele>2344</ele>
        <time>2024-09-13T08:54:47.000Z</time>
      </trkpt>
      <trkpt lat="44.41382" lon="6.99681">
        <ele>2344</ele>
        <time>2024-09-13T08:54:48.000Z</time>
      </trkpt>
      <trkpt lat="44.41381" lon="6.99682">
        <ele>2344.1999511719</ele>
        <time>2024-09-13T08:54:49.000Z</time>
      </trkpt>
      <trkpt lat="44.4138" lon="6.99682">
        <ele>2344.3999023438</ele>
        <time>2024-09-13T08:54:50.000Z</time>
      </trkpt>
      <trkpt lat="44.4138" lon="6.99682">
        <ele>2344.6000976562</ele>
        <time>2024-09-13T08:54:51.000Z</time>
      </trkpt>
      <trkpt lat="44.41379" lon="6.99682">
        <ele>2344.8000488281</ele>
        <time>2024-09-13T08:54:52.000Z</time>
      </trkpt>
      <trkpt lat="44.41378" lon="6.99682">
        <ele>2345</ele>
        <time>2024-09-13T08:54:53.000Z</time>
      </trkpt>
      <trkpt lat="44.41378" lon="6.99682">
        <ele>2345.1999511719</ele>
        <time>2024-09-13T08:54:54.000Z</time>
      </trkpt>
      <trkpt lat="44.41377" lon="6.99682">
        <ele>2345.3999023438</ele>
        <time>2024-09-13T08:54:55.000Z</time>
      </trkpt>
      <trkpt lat="44.41376" lon="6.99683">
        <ele>2345.6000976562</ele>
        <time>2024-09-13T08:54:56.000Z</time>
      </trkpt>
      <trkpt lat="44.41375" lon="6.99683">
        <ele>2345.8000488281</ele>
        <time>2024-09-13T08:54:57.000Z</time>
      </trkpt>
      <trkpt lat="44.41374" lon="6.99682">
        <ele>2346</ele>
        <time>2024-09-13T08:54:58.000Z</time>
      </trkpt>
      <trkpt lat="44.41374" lon="6.99682">
        <ele>2346.1999511719</ele>
        <time>2024-09-13T08:54:59.000Z</time>
      </trkpt>
      <trkpt lat="44.41373" lon="6.99682">
        <ele>2346.3999023438</ele>
        <time>2024-09-13T08:55:00.000Z</time>
      </trkpt>
      <trkpt lat="44.41373" lon="6.99682">
        <ele>2346.6000976562</ele>
        <time>2024-09-13T08:55:01.000Z</time>
      </trkpt>
      <trkpt lat="44.41372" lon="6.99682">
        <ele>2347</ele>
        <time>2024-09-13T08:55:02.000Z</time>
      </trkpt>
      <trkpt lat="44.41371" lon="6.99682">
        <ele>2347.1999511719</ele>
        <time>2024-09-13T08:55:03.000Z</time>
      </trkpt>
      <trkpt lat="44.4137" lon="6.99682">
        <ele>2347.3999023438</ele>
        <time>2024-09-13T08:55:04.000Z</time>
      </trkpt>
      <trkpt lat="44.41369" lon="6.99681">
        <ele>2347.3999023438</ele>
        <time>2024-09-13T08:55:05.000Z</time>
      </trkpt>
      <trkpt lat="44.41368" lon="6.9968">
        <ele>2347.6000976562</ele>
        <time>2024-09-13T08:55:06.000Z</time>
      </trkpt>
      <trkpt lat="44.41368" lon="6.99679">
        <ele>2347.8000488281</ele>
        <time>2024-09-13T08:55:07.000Z</time>
      </trkpt>
      <trkpt lat="44.41367" lon="6.99678">
        <ele>2348.1999511719</ele>
        <time>2024-09-13T08:55:08.000Z</time>
      </trkpt>
      <trkpt lat="44.41367" lon="6.99678">
        <ele>2348.6000976562</ele>
        <time>2024-09-13T08:55:09.000Z</time>
      </trkpt>
      <trkpt lat="44.41366" lon="6.99678">
        <ele>2348.8000488281</ele>
        <time>2024-09-13T08:55:10.000Z</time>
      </trkpt>
      <trkpt lat="44.41365" lon="6.99678">
        <ele>2349.1999511719</ele>
        <time>2024-09-13T08:55:11.000Z</time>
      </trkpt>
      <trkpt lat="44.41364" lon="6.99678">
        <ele>2349.3999023438</ele>
        <time>2024-09-13T08:55:12.000Z</time>
      </trkpt>
      <trkpt lat="44.41364" lon="6.99677">
        <ele>2349.3999023438</ele>
        <time>2024-09-13T08:55:13.000Z</time>
      </trkpt>
      <trkpt lat="44.41363" lon="6.99678">
        <ele>2349.3999023438</ele>
        <time>2024-09-13T08:55:14.000Z</time>
      </trkpt>
      <trkpt lat="44.41363" lon="6.99678">
        <ele>2349.3999023438</ele>
        <time>2024-09-13T08:55:15.000Z</time>
      </trkpt>
      <trkpt lat="44.41363" lon="6.99679">
        <ele>2349.8000488281</ele>
        <time>2024-09-13T08:55:16.000Z</time>
      </trkpt>
      <trkpt lat="44.41363" lon="6.9968">
        <ele>2349.8000488281</ele>
        <time>2024-09-13T08:55:17.000Z</time>
      </trkpt>
      <trkpt lat="44.41363" lon="6.9968">
        <ele>2349.8000488281</ele>
        <time>2024-09-13T08:55:18.000Z</time>
      </trkpt>
      <trkpt lat="44.41364" lon="6.99681">
        <ele>2349.8000488281</ele>
        <time>2024-09-13T08:55:19.000Z</time>
      </trkpt>
      <trkpt lat="44.41364" lon="6.99682">
        <ele>2349.6000976562</ele>
        <time>2024-09-13T08:55:20.000Z</time>
      </trkpt>
      <trkpt lat="44.41365" lon="6.99683">
        <ele>2349.6000976562</ele>
        <time>2024-09-13T08:55:21.000Z</time>
      </trkpt>
      <trkpt lat="44.41365" lon="6.99684">
        <ele>2349.6000976562</ele>
        <time>2024-09-13T08:55:22.000Z</time>
      </trkpt>
      <trkpt lat="44.41365" lon="6.99686">
        <ele>2349.6000976562</ele>
        <time>2024-09-13T08:55:23.000Z</time>
      </trkpt>
      <trkpt lat="44.41366" lon="6.99687">
        <ele>2349.6000976562</ele>
        <time>2024-09-13T08:55:24.000Z</time>
      </trkpt>
      <trkpt lat="44.41366" lon="6.99688">
        <ele>2349.6000976562</ele>
        <time>2024-09-13T08:55:25.000Z</time>
      </trkpt>
      <trkpt lat="44.41366" lon="6.99689">
        <ele>2349.8000488281</ele>
        <time>2024-09-13T08:55:26.000Z</time>
      </trkpt>
      <trkpt lat="44.41367" lon="6.9969">
        <ele>2350</ele>
        <time>2024-09-13T08:55:27.000Z</time>
      </trkpt>
      <trkpt lat="44.41367" lon="6.99692">
        <ele>2350.6000976562</ele>
        <time>2024-09-13T08:55:28.000Z</time>
      </trkpt>
      <trkpt lat="44.41367" lon="6.99693">
        <ele>2351</ele>
        <time>2024-09-13T08:55:29.000Z</time>
      </trkpt>
      <trkpt lat="44.41367" lon="6.99695">
        <ele>2351.1999511719</ele>
        <time>2024-09-13T08:55:30.000Z</time>
      </trkpt>
      <trkpt lat="44.41367" lon="6.99696">
        <ele>2351.3999023438</ele>
        <time>2024-09-13T08:55:31.000Z</time>
      </trkpt>
      <trkpt lat="44.41367" lon="6.99697">
        <ele>2351.3999023438</ele>
        <time>2024-09-13T08:55:32.000Z</time>
      </trkpt>
      <trkpt lat="44.41368" lon="6.99698">
        <ele>2351.8000488281</ele>
        <time>2024-09-13T08:55:33.000Z</time>
      </trkpt>
      <trkpt lat="44.41367" lon="6.99699">
        <ele>2351.8000488281</ele>
        <time>2024-09-13T08:55:34.000Z</time>
      </trkpt>
      <trkpt lat="44.41367" lon="6.99699">
        <ele>2352.3999023438</ele>
        <time>2024-09-13T08:55:35.000Z</time>
      </trkpt>
      <trkpt lat="44.41368" lon="6.997">
        <ele>2352.8000488281</ele>
        <time>2024-09-13T08:55:36.000Z</time>
      </trkpt>
      <trkpt lat="44.41368" lon="6.99701">
        <ele>2353.6000976562</ele>
        <time>2024-09-13T08:55:37.000Z</time>
      </trkpt>
      <trkpt lat="44.41369" lon="6.99702">
        <ele>2353.8000488281</ele>
        <time>2024-09-13T08:55:38.000Z</time>
      </trkpt>
      <trkpt lat="44.41369" lon="6.99703">
        <ele>2354.3999023438</ele>
        <time>2024-09-13T08:55:39.000Z</time>
      </trkpt>
      <trkpt lat="44.41369" lon="6.99704">
        <ele>2355</ele>
        <time>2024-09-13T08:55:40.000Z</time>
      </trkpt>
      <trkpt lat="44.41369" lon="6.99705">
        <ele>2355.6000976562</ele>
        <time>2024-09-13T08:55:41.000Z</time>
      </trkpt>
      <trkpt lat="44.41369" lon="6.99706">
        <ele>2355.8000488281</ele>
        <time>2024-09-13T08:55:42.000Z</time>
      </trkpt>
      <trkpt lat="44.4137" lon="6.99708">
        <ele>2356</ele>
        <time>2024-09-13T08:55:43.000Z</time>
      </trkpt>
      <trkpt lat="44.41369" lon="6.99709">
        <ele>2356.3999023438</ele>
        <time>2024-09-13T08:55:44.000Z</time>
      </trkpt>
      <trkpt lat="44.41368" lon="6.9971">
        <ele>2356.8000488281</ele>
        <time>2024-09-13T08:55:45.000Z</time>
      </trkpt>
      <trkpt lat="44.41367" lon="6.9971">
        <ele>2357.3999023438</ele>
        <time>2024-09-13T08:55:46.000Z</time>
      </trkpt>
      <trkpt lat="44.41367" lon="6.99711">
        <ele>2357.8000488281</ele>
        <time>2024-09-13T08:55:47.000Z</time>
      </trkpt>
      <trkpt lat="44.41367" lon="6.99711">
        <ele>2358</ele>
        <time>2024-09-13T08:55:48.000Z</time>
      </trkpt>
      <trkpt lat="44.41366" lon="6.99712">
        <ele>2358.1999511719</ele>
        <time>2024-09-13T08:55:49.000Z</time>
      </trkpt>
      <trkpt lat="44.41365" lon="6.99713">
        <ele>2359</ele>
        <time>2024-09-13T08:55:50.000Z</time>
      </trkpt>
      <trkpt lat="44.41365" lon="6.99713">
        <ele>2359</ele>
        <time>2024-09-13T08:55:51.000Z</time>
      </trkpt>
      <trkpt lat="44.41364" lon="6.99714">
        <ele>2359</ele>
        <time>2024-09-13T08:55:52.000Z</time>
      </trkpt>
      <trkpt lat="44.41363" lon="6.99715">
        <ele>2359</ele>
        <time>2024-09-13T08:55:53.000Z</time>
      </trkpt>
      <trkpt lat="44.41363" lon="6.99715">
        <ele>2359</ele>
        <time>2024-09-13T08:55:54.000Z</time>
      </trkpt>
      <trkpt lat="44.41363" lon="6.99716">
        <ele>2359</ele>
        <time>2024-09-13T08:55:55.000Z</time>
      </trkpt>
      <trkpt lat="44.41362" lon="6.99716">
        <ele>2359</ele>
        <time>2024-09-13T08:55:56.000Z</time>
      </trkpt>
      <trkpt lat="44.41361" lon="6.99716">
        <ele>2359</ele>
        <time>2024-09-13T08:55:57.000Z</time>
      </trkpt>
      <trkpt lat="44.41361" lon="6.99717">
        <ele>2359.8000488281</ele>
        <time>2024-09-13T08:55:58.000Z</time>
      </trkpt>
      <trkpt lat="44.4136" lon="6.99717">
        <ele>2360</ele>
        <time>2024-09-13T08:55:59.000Z</time>
      </trkpt>
      <trkpt lat="44.4136" lon="6.99718">
        <ele>2360</ele>
        <time>2024-09-13T08:56:00.000Z</time>
      </trkpt>
      <trkpt lat="44.4136" lon="6.99718">
        <ele>2360.1999511719</ele>
        <time>2024-09-13T08:56:01.000Z</time>
      </trkpt>
      <trkpt lat="44.41359" lon="6.99718">
        <ele>2360.1999511719</ele>
        <time>2024-09-13T08:56:02.000Z</time>
      </trkpt>
      <trkpt lat="44.41358" lon="6.99719">
        <ele>2360.6000976562</ele>
        <time>2024-09-13T08:56:03.000Z</time>
      </trkpt>
      <trkpt lat="44.41357" lon="6.9972">
        <ele>2360.8000488281</ele>
        <time>2024-09-13T08:56:04.000Z</time>
      </trkpt>
      <trkpt lat="44.41356" lon="6.99721">
        <ele>2360.8000488281</ele>
        <time>2024-09-13T08:56:05.000Z</time>
      </trkpt>
      <trkpt lat="44.41356" lon="6.99722">
        <ele>2360.8000488281</ele>
        <time>2024-09-13T08:56:06.000Z</time>
      </trkpt>
      <trkpt lat="44.41356" lon="6.99723">
        <ele>2361</ele>
        <time>2024-09-13T08:56:07.000Z</time>
      </trkpt>
      <trkpt lat="44.41355" lon="6.99724">
        <ele>2361.1999511719</ele>
        <time>2024-09-13T08:56:08.000Z</time>
      </trkpt>
      <trkpt lat="44.41355" lon="6.99724">
        <ele>2361.3999023438</ele>
        <time>2024-09-13T08:56:09.000Z</time>
      </trkpt>
      <trkpt lat="44.41354" lon="6.99725">
        <ele>2361.6000976562</ele>
        <time>2024-09-13T08:56:10.000Z</time>
      </trkpt>
      <trkpt lat="44.41354" lon="6.99726">
        <ele>2361.8000488281</ele>
        <time>2024-09-13T08:56:11.000Z</time>
      </trkpt>
      <trkpt lat="44.41353" lon="6.99726">
        <ele>2362.1999511719</ele>
        <time>2024-09-13T08:56:12.000Z</time>
      </trkpt>
      <trkpt lat="44.41352" lon="6.99726">
        <ele>2362.3999023438</ele>
        <time>2024-09-13T08:56:13.000Z</time>
      </trkpt>
      <trkpt lat="44.41352" lon="6.99727">
        <ele>2362.6000976562</ele>
        <time>2024-09-13T08:56:14.000Z</time>
      </trkpt>
      <trkpt lat="44.41351" lon="6.99728">
        <ele>2362.8000488281</ele>
        <time>2024-09-13T08:56:15.000Z</time>
      </trkpt>
      <trkpt lat="44.4135" lon="6.99728">
        <ele>2363</ele>
        <time>2024-09-13T08:56:16.000Z</time>
      </trkpt>
      <trkpt lat="44.4135" lon="6.99729">
        <ele>2363.1999511719</ele>
        <time>2024-09-13T08:56:17.000Z</time>
      </trkpt>
      <trkpt lat="44.41349" lon="6.99729">
        <ele>2363.3999023438</ele>
        <time>2024-09-13T08:56:18.000Z</time>
      </trkpt>
      <trkpt lat="44.41349" lon="6.99729">
        <ele>2363.6000976562</ele>
        <time>2024-09-13T08:56:19.000Z</time>
      </trkpt>
      <trkpt lat="44.41348" lon="6.9973">
        <ele>2364</ele>
        <time>2024-09-13T08:56:20.000Z</time>
      </trkpt>
      <trkpt lat="44.41348" lon="6.99731">
        <ele>2364.1999511719</ele>
        <time>2024-09-13T08:56:21.000Z</time>
      </trkpt>
      <trkpt lat="44.41347" lon="6.99731">
        <ele>2364.6000976562</ele>
        <time>2024-09-13T08:56:22.000Z</time>
      </trkpt>
      <trkpt lat="44.41347" lon="6.99732">
        <ele>2364.6000976562</ele>
        <time>2024-09-13T08:56:23.000Z</time>
      </trkpt>
      <trkpt lat="44.41347" lon="6.99732">
        <ele>2364.8000488281</ele>
        <time>2024-09-13T08:56:24.000Z</time>
      </trkpt>
      <trkpt lat="44.41347" lon="6.99734">
        <ele>2364.8000488281</ele>
        <time>2024-09-13T08:56:25.000Z</time>
      </trkpt>
      <trkpt lat="44.41347" lon="6.99735">
        <ele>2365</ele>
        <time>2024-09-13T08:56:26.000Z</time>
      </trkpt>
      <trkpt lat="44.41346" lon="6.99736">
        <ele>2365.3999023438</ele>
        <time>2024-09-13T08:56:27.000Z</time>
      </trkpt>
      <trkpt lat="44.41345" lon="6.99737">
        <ele>2365.8000488281</ele>
        <time>2024-09-13T08:56:28.000Z</time>
      </trkpt>
      <trkpt lat="44.41344" lon="6.99737">
        <ele>2365.8000488281</ele>
        <time>2024-09-13T08:56:29.000Z</time>
      </trkpt>
      <trkpt lat="44.41343" lon="6.99737">
        <ele>2366</ele>
        <time>2024-09-13T08:56:30.000Z</time>
      </trkpt>
      <trkpt lat="44.41342" lon="6.99738">
        <ele>2366.8000488281</ele>
        <time>2024-09-13T08:56:31.000Z</time>
      </trkpt>
      <trkpt lat="44.41342" lon="6.99739">
        <ele>2367</ele>
        <time>2024-09-13T08:56:32.000Z</time>
      </trkpt>
      <trkpt lat="44.41342" lon="6.99739">
        <ele>2367.1999511719</ele>
        <time>2024-09-13T08:56:33.000Z</time>
      </trkpt>
      <trkpt lat="44.41341" lon="6.99739">
        <ele>2367.3999023438</ele>
        <time>2024-09-13T08:56:34.000Z</time>
      </trkpt>
      <trkpt lat="44.41341" lon="6.9974">
        <ele>2367.6000976562</ele>
        <time>2024-09-13T08:56:35.000Z</time>
      </trkpt>
      <trkpt lat="44.4134" lon="6.99741">
        <ele>2368</ele>
        <time>2024-09-13T08:56:36.000Z</time>
      </trkpt>
      <trkpt lat="44.4134" lon="6.99741">
        <ele>2368.6000976562</ele>
        <time>2024-09-13T08:56:37.000Z</time>
      </trkpt>
      <trkpt lat="44.4134" lon="6.99742">
        <ele>2368.8000488281</ele>
        <time>2024-09-13T08:56:38.000Z</time>
      </trkpt>
      <trkpt lat="44.4134" lon="6.99743">
        <ele>2369</ele>
        <time>2024-09-13T08:56:39.000Z</time>
      </trkpt>
      <trkpt lat="44.41339" lon="6.99744">
        <ele>2369.1999511719</ele>
        <time>2024-09-13T08:56:40.000Z</time>
      </trkpt>
      <trkpt lat="44.41339" lon="6.99746">
        <ele>2369.1999511719</ele>
        <time>2024-09-13T08:56:41.000Z</time>
      </trkpt>
      <trkpt lat="44.41339" lon="6.99747">
        <ele>2369.1999511719</ele>
        <time>2024-09-13T08:56:42.000Z</time>
      </trkpt>
      <trkpt lat="44.41339" lon="6.99748">
        <ele>2369.3999023438</ele>
        <time>2024-09-13T08:56:43.000Z</time>
      </trkpt>
      <trkpt lat="44.41338" lon="6.99749">
        <ele>2369.6000976562</ele>
        <time>2024-09-13T08:56:44.000Z</time>
      </trkpt>
      <trkpt lat="44.41338" lon="6.9975">
        <ele>2370</ele>
        <time>2024-09-13T08:56:45.000Z</time>
      </trkpt>
      <trkpt lat="44.41338" lon="6.99751">
        <ele>2370.1999511719</ele>
        <time>2024-09-13T08:56:46.000Z</time>
      </trkpt>
      <trkpt lat="44.41338" lon="6.99752">
        <ele>2370.1999511719</ele>
        <time>2024-09-13T08:56:47.000Z</time>
      </trkpt>
      <trkpt lat="44.41338" lon="6.99753">
        <ele>2370.1999511719</ele>
        <time>2024-09-13T08:56:48.000Z</time>
      </trkpt>
      <trkpt lat="44.41338" lon="6.99753">
        <ele>2370.6000976562</ele>
        <time>2024-09-13T08:56:49.000Z</time>
      </trkpt>
      <trkpt lat="44.41338" lon="6.99754">
        <ele>2371.1999511719</ele>
        <time>2024-09-13T08:56:50.000Z</time>
      </trkpt>
      <trkpt lat="44.41338" lon="6.99755">
        <ele>2371.3999023438</ele>
        <time>2024-09-13T08:56:51.000Z</time>
      </trkpt>
      <trkpt lat="44.41337" lon="6.99756">
        <ele>2371.3999023438</ele>
        <time>2024-09-13T08:56:52.000Z</time>
      </trkpt>
      <trkpt lat="44.41337" lon="6.99756">
        <ele>2371.8000488281</ele>
        <time>2024-09-13T08:56:53.000Z</time>
      </trkpt>
      <trkpt lat="44.41337" lon="6.99757">
        <ele>2372</ele>
        <time>2024-09-13T08:56:54.000Z</time>
      </trkpt>
      <trkpt lat="44.41337" lon="6.99759">
        <ele>2372.1999511719</ele>
        <time>2024-09-13T08:56:55.000Z</time>
      </trkpt>
      <trkpt lat="44.41337" lon="6.99759">
        <ele>2372.6000976562</ele>
        <time>2024-09-13T08:56:56.000Z</time>
      </trkpt>
      <trkpt lat="44.41337" lon="6.99759">
        <ele>2372.8000488281</ele>
        <time>2024-09-13T08:56:57.000Z</time>
      </trkpt>
      <trkpt lat="44.41337" lon="6.99761">
        <ele>2373</ele>
        <time>2024-09-13T08:56:58.000Z</time>
      </trkpt>
      <trkpt lat="44.41337" lon="6.99762">
        <ele>2373.1999511719</ele>
        <time>2024-09-13T08:56:59.000Z</time>
      </trkpt>
      <trkpt lat="44.41337" lon="6.99762">
        <ele>2373.6000976562</ele>
        <time>2024-09-13T08:57:00.000Z</time>
      </trkpt>
      <trkpt lat="44.41337" lon="6.99763">
        <ele>2373.8000488281</ele>
        <time>2024-09-13T08:57:01.000Z</time>
      </trkpt>
      <trkpt lat="44.41337" lon="6.99763">
        <ele>2374.1999511719</ele>
        <time>2024-09-13T08:57:02.000Z</time>
      </trkpt>
      <trkpt lat="44.41336" lon="6.99764">
        <ele>2374.3999023438</ele>
        <time>2024-09-13T08:57:03.000Z</time>
      </trkpt>
      <trkpt lat="44.41336" lon="6.99765">
        <ele>2374.8000488281</ele>
        <time>2024-09-13T08:57:04.000Z</time>
      </trkpt>
      <trkpt lat="44.41335" lon="6.99765">
        <ele>2375.3999023438</ele>
        <time>2024-09-13T08:57:05.000Z</time>
      </trkpt>
      <trkpt lat="44.41335" lon="6.99766">
        <ele>2375.6000976562</ele>
        <time>2024-09-13T08:57:06.000Z</time>
      </trkpt>
      <trkpt lat="44.41334" lon="6.99766">
        <ele>2375.8000488281</ele>
        <time>2024-09-13T08:57:07.000Z</time>
      </trkpt>
      <trkpt lat="44.41334" lon="6.99766">
        <ele>2376.1999511719</ele>
        <time>2024-09-13T08:57:08.000Z</time>
      </trkpt>
      <trkpt lat="44.41334" lon="6.99766">
        <ele>2376.6000976562</ele>
        <time>2024-09-13T08:57:09.000Z</time>
      </trkpt>
      <trkpt lat="44.41334" lon="6.99767">
        <ele>2376.6000976562</ele>
        <time>2024-09-13T08:57:10.000Z</time>
      </trkpt>
      <trkpt lat="44.41334" lon="6.99769">
        <ele>2376.8000488281</ele>
        <time>2024-09-13T08:57:11.000Z</time>
      </trkpt>
      <trkpt lat="44.41334" lon="6.9977">
        <ele>2377</ele>
        <time>2024-09-13T08:57:12.000Z</time>
      </trkpt>
      <trkpt lat="44.41334" lon="6.99771">
        <ele>2377</ele>
        <time>2024-09-13T08:57:13.000Z</time>
      </trkpt>
      <trkpt lat="44.41334" lon="6.99772">
        <ele>2377</ele>
        <time>2024-09-13T08:57:14.000Z</time>
      </trkpt>
      <trkpt lat="44.41334" lon="6.99773">
        <ele>2377.1999511719</ele>
        <time>2024-09-13T08:57:15.000Z</time>
      </trkpt>
      <trkpt lat="44.41333" lon="6.99774">
        <ele>2377.1999511719</ele>
        <time>2024-09-13T08:57:16.000Z</time>
      </trkpt>
      <trkpt lat="44.41333" lon="6.99774">
        <ele>2377.6000976562</ele>
        <time>2024-09-13T08:57:17.000Z</time>
      </trkpt>
      <trkpt lat="44.41333" lon="6.99774">
        <ele>2378.1999511719</ele>
        <time>2024-09-13T08:57:18.000Z</time>
      </trkpt>
      <trkpt lat="44.41333" lon="6.99775">
        <ele>2378.3999023438</ele>
        <time>2024-09-13T08:57:19.000Z</time>
      </trkpt>
      <trkpt lat="44.41333" lon="6.99775">
        <ele>2378.6000976562</ele>
        <time>2024-09-13T08:57:20.000Z</time>
      </trkpt>
      <trkpt lat="44.41333" lon="6.99775">
        <ele>2378.8000488281</ele>
        <time>2024-09-13T08:57:21.000Z</time>
      </trkpt>
      <trkpt lat="44.41333" lon="6.99776">
        <ele>2379.1999511719</ele>
        <time>2024-09-13T08:57:22.000Z</time>
      </trkpt>
      <trkpt lat="44.41333" lon="6.99776">
        <ele>2379.1999511719</ele>
        <time>2024-09-13T08:57:23.000Z</time>
      </trkpt>
      <trkpt lat="44.41333" lon="6.99777">
        <ele>2379.3999023438</ele>
        <time>2024-09-13T08:57:24.000Z</time>
      </trkpt>
      <trkpt lat="44.41332" lon="6.99778">
        <ele>2379.3999023438</ele>
        <time>2024-09-13T08:57:25.000Z</time>
      </trkpt>
      <trkpt lat="44.41332" lon="6.99778">
        <ele>2380</ele>
        <time>2024-09-13T08:57:26.000Z</time>
      </trkpt>
      <trkpt lat="44.41332" lon="6.99779">
        <ele>2380.1999511719</ele>
        <time>2024-09-13T08:57:27.000Z</time>
      </trkpt>
      <trkpt lat="44.41331" lon="6.9978">
        <ele>2380.1999511719</ele>
        <time>2024-09-13T08:57:28.000Z</time>
      </trkpt>
      <trkpt lat="44.41331" lon="6.99781">
        <ele>2380.1999511719</ele>
        <time>2024-09-13T08:57:29.000Z</time>
      </trkpt>
      <trkpt lat="44.41331" lon="6.99781">
        <ele>2380.3999023438</ele>
        <time>2024-09-13T08:57:30.000Z</time>
      </trkpt>
      <trkpt lat="44.41331" lon="6.99782">
        <ele>2381</ele>
        <time>2024-09-13T08:57:31.000Z</time>
      </trkpt>
      <trkpt lat="44.41331" lon="6.99783">
        <ele>2381.1999511719</ele>
        <time>2024-09-13T08:57:32.000Z</time>
      </trkpt>
      <trkpt lat="44.41331" lon="6.99783">
        <ele>2381.1999511719</ele>
        <time>2024-09-13T08:57:33.000Z</time>
      </trkpt>
      <trkpt lat="44.41331" lon="6.99784">
        <ele>2381.6000976562</ele>
        <time>2024-09-13T08:57:35.000Z</time>
      </trkpt>
      <trkpt lat="44.41331" lon="6.99785">
        <ele>2381.6000976562</ele>
        <time>2024-09-13T08:57:36.000Z</time>
      </trkpt>
      <trkpt lat="44.41332" lon="6.99785">
        <ele>2382</ele>
        <time>2024-09-13T08:57:37.000Z</time>
      </trkpt>
      <trkpt lat="44.41333" lon="6.99786">
        <ele>2382</ele>
        <time>2024-09-13T08:57:38.000Z</time>
      </trkpt>
      <trkpt lat="44.41334" lon="6.99787">
        <ele>2382</ele>
        <time>2024-09-13T08:57:39.000Z</time>
      </trkpt>
      <trkpt lat="44.41334" lon="6.99787">
        <ele>2382.3999023438</ele>
        <time>2024-09-13T08:57:40.000Z</time>
      </trkpt>
      <trkpt lat="44.41334" lon="6.99787">
        <ele>2382.8000488281</ele>
        <time>2024-09-13T08:57:41.000Z</time>
      </trkpt>
      <trkpt lat="44.41334" lon="6.99788">
        <ele>2383</ele>
        <time>2024-09-13T08:57:42.000Z</time>
      </trkpt>
      <trkpt lat="44.41334" lon="6.99788">
        <ele>2383</ele>
        <time>2024-09-13T08:57:43.000Z</time>
      </trkpt>
      <trkpt lat="44.41334" lon="6.99789">
        <ele>2383</ele>
        <time>2024-09-13T08:57:44.000Z</time>
      </trkpt>
      <trkpt lat="44.41334" lon="6.99789">
        <ele>2383</ele>
        <time>2024-09-13T08:57:45.000Z</time>
      </trkpt>
      <trkpt lat="44.41334" lon="6.9979">
        <ele>2383.1999511719</ele>
        <time>2024-09-13T08:57:46.000Z</time>
      </trkpt>
      <trkpt lat="44.41334" lon="6.99791">
        <ele>2383.1999511719</ele>
        <time>2024-09-13T08:57:47.000Z</time>
      </trkpt>
      <trkpt lat="44.41334" lon="6.99791">
        <ele>2383.1999511719</ele>
        <time>2024-09-13T08:57:48.000Z</time>
      </trkpt>
      <trkpt lat="44.41333" lon="6.99792">
        <ele>2383.3999023438</ele>
        <time>2024-09-13T08:57:49.000Z</time>
      </trkpt>
      <trkpt lat="44.41333" lon="6.99792">
        <ele>2384</ele>
        <time>2024-09-13T08:57:50.000Z</time>
      </trkpt>
      <trkpt lat="44.41332" lon="6.99792">
        <ele>2385.1999511719</ele>
        <time>2024-09-13T08:57:51.000Z</time>
      </trkpt>
      <trkpt lat="44.41332" lon="6.99793">
        <ele>2385.6000976562</ele>
        <time>2024-09-13T08:57:52.000Z</time>
      </trkpt>
      <trkpt lat="44.41332" lon="6.99794">
        <ele>2386</ele>
        <time>2024-09-13T08:57:53.000Z</time>
      </trkpt>
      <trkpt lat="44.41331" lon="6.99796">
        <ele>2386</ele>
        <time>2024-09-13T08:57:54.000Z</time>
      </trkpt>
      <trkpt lat="44.4133" lon="6.99797">
        <ele>2386.1999511719</ele>
        <time>2024-09-13T08:57:55.000Z</time>
      </trkpt>
      <trkpt lat="44.41329" lon="6.99798">
        <ele>2386.6000976562</ele>
        <time>2024-09-13T08:57:56.000Z</time>
      </trkpt>
      <trkpt lat="44.41329" lon="6.998">
        <ele>2387.3999023438</ele>
        <time>2024-09-13T08:57:57.000Z</time>
      </trkpt>
      <trkpt lat="44.41327" lon="6.99801">
        <ele>2387.8000488281</ele>
        <time>2024-09-13T08:57:58.000Z</time>
      </trkpt>
      <trkpt lat="44.41327" lon="6.99803">
        <ele>2388</ele>
        <time>2024-09-13T08:57:59.000Z</time>
      </trkpt>
      <trkpt lat="44.41327" lon="6.99803">
        <ele>2388.1999511719</ele>
        <time>2024-09-13T08:58:00.000Z</time>
      </trkpt>
      <trkpt lat="44.41327" lon="6.99804">
        <ele>2388.8000488281</ele>
        <time>2024-09-13T08:58:02.000Z</time>
      </trkpt>
      <trkpt lat="44.41327" lon="6.99804">
        <ele>2388.8000488281</ele>
        <time>2024-09-13T08:58:03.000Z</time>
      </trkpt>
      <trkpt lat="44.41327" lon="6.99803">
        <ele>2388.8000488281</ele>
        <time>2024-09-13T08:58:04.000Z</time>
      </trkpt>
      <trkpt lat="44.41326" lon="6.99805">
        <ele>2388.8000488281</ele>
        <time>2024-09-13T08:58:05.000Z</time>
      </trkpt>
      <trkpt lat="44.41325" lon="6.99807">
        <ele>2388.8000488281</ele>
        <time>2024-09-13T08:58:06.000Z</time>
      </trkpt>
      <trkpt lat="44.41325" lon="6.99807">
        <ele>2388.8000488281</ele>
        <time>2024-09-13T08:58:07.000Z</time>
      </trkpt>
      <trkpt lat="44.41324" lon="6.99808">
        <ele>2388.8000488281</ele>
        <time>2024-09-13T08:58:08.000Z</time>
      </trkpt>
      <trkpt lat="44.41324" lon="6.99809">
        <ele>2388.8000488281</ele>
        <time>2024-09-13T08:58:09.000Z</time>
      </trkpt>
      <trkpt lat="44.41323" lon="6.99811">
        <ele>2388.8000488281</ele>
        <time>2024-09-13T08:58:10.000Z</time>
      </trkpt>
      <trkpt lat="44.41323" lon="6.99811">
        <ele>2388.8000488281</ele>
        <time>2024-09-13T08:58:11.000Z</time>
      </trkpt>
      <trkpt lat="44.41323" lon="6.99811">
        <ele>2388.8000488281</ele>
        <time>2024-09-13T08:58:12.000Z</time>
      </trkpt>
      <trkpt lat="44.41323" lon="6.99811">
        <ele>2389</ele>
        <time>2024-09-13T08:58:13.000Z</time>
      </trkpt>
      <trkpt lat="44.41323" lon="6.99811">
        <ele>2389</ele>
        <time>2024-09-13T08:58:14.000Z</time>
      </trkpt>
      <trkpt lat="44.41322" lon="6.99813">
        <ele>2389.1999511719</ele>
        <time>2024-09-13T08:58:15.000Z</time>
      </trkpt>
      <trkpt lat="44.41322" lon="6.99813">
        <ele>2389.1999511719</ele>
        <time>2024-09-13T08:58:16.000Z</time>
      </trkpt>
      <trkpt lat="44.41322" lon="6.99815">
        <ele>2389.3999023438</ele>
        <time>2024-09-13T08:58:17.000Z</time>
      </trkpt>
      <trkpt lat="44.41322" lon="6.99815">
        <ele>2389.3999023438</ele>
        <time>2024-09-13T08:58:18.000Z</time>
      </trkpt>
      <trkpt lat="44.41323" lon="6.99816">
        <ele>2389.6000976562</ele>
        <time>2024-09-13T08:58:19.000Z</time>
      </trkpt>
      <trkpt lat="44.41323" lon="6.99816">
        <ele>2389.6000976562</ele>
        <time>2024-09-13T08:58:20.000Z</time>
      </trkpt>
      <trkpt lat="44.41324" lon="6.99817">
        <ele>2389.3999023438</ele>
        <time>2024-09-13T08:58:21.000Z</time>
      </trkpt>
      <trkpt lat="44.41324" lon="6.99818">
        <ele>2389.3999023438</ele>
        <time>2024-09-13T08:58:22.000Z</time>
      </trkpt>
      <trkpt lat="44.41325" lon="6.99819">
        <ele>2389.3999023438</ele>
        <time>2024-09-13T08:58:23.000Z</time>
      </trkpt>
      <trkpt lat="44.41326" lon="6.99821">
        <ele>2389.1999511719</ele>
        <time>2024-09-13T08:58:24.000Z</time>
      </trkpt>
      <trkpt lat="44.41327" lon="6.99821">
        <ele>2389.1999511719</ele>
        <time>2024-09-13T08:58:25.000Z</time>
      </trkpt>
      <trkpt lat="44.41327" lon="6.99821">
        <ele>2389.1999511719</ele>
        <time>2024-09-13T08:58:26.000Z</time>
      </trkpt>
      <trkpt lat="44.41326" lon="6.99824">
        <ele>2389.1999511719</ele>
        <time>2024-09-13T08:58:28.000Z</time>
      </trkpt>
      <trkpt lat="44.41326" lon="6.99825">
        <ele>2389.1999511719</ele>
        <time>2024-09-13T08:58:29.000Z</time>
      </trkpt>
      <trkpt lat="44.41326" lon="6.99827">
        <ele>2389.3999023438</ele>
        <time>2024-09-13T08:58:30.000Z</time>
      </trkpt>
      <trkpt lat="44.41325" lon="6.99829">
        <ele>2389.8000488281</ele>
        <time>2024-09-13T08:58:31.000Z</time>
      </trkpt>
      <trkpt lat="44.41324" lon="6.9983">
        <ele>2389.8000488281</ele>
        <time>2024-09-13T08:58:32.000Z</time>
      </trkpt>
      <trkpt lat="44.41323" lon="6.99832">
        <ele>2390.1999511719</ele>
        <time>2024-09-13T08:58:34.000Z</time>
      </trkpt>
      <trkpt lat="44.41322" lon="6.99834">
        <ele>2390.3999023438</ele>
        <time>2024-09-13T08:58:35.000Z</time>
      </trkpt>
      <trkpt lat="44.41322" lon="6.99836">
        <ele>2390.3999023438</ele>
        <time>2024-09-13T08:58:36.000Z</time>
      </trkpt>
      <trkpt lat="44.41321" lon="6.99838">
        <ele>2390.3999023438</ele>
        <time>2024-09-13T08:58:37.000Z</time>
      </trkpt>
      <trkpt lat="44.41321" lon="6.9984">
        <ele>2390.3999023438</ele>
        <time>2024-09-13T08:58:38.000Z</time>
      </trkpt>
      <trkpt lat="44.41323" lon="6.99841">
        <ele>2390.3999023438</ele>
        <time>2024-09-13T08:58:39.000Z</time>
      </trkpt>
      <trkpt lat="44.41323" lon="6.99842">
        <ele>2390.3999023438</ele>
        <time>2024-09-13T08:58:40.000Z</time>
      </trkpt>
      <trkpt lat="44.41323" lon="6.99844">
        <ele>2390.3999023438</ele>
        <time>2024-09-13T08:58:41.000Z</time>
      </trkpt>
      <trkpt lat="44.41323" lon="6.99845">
        <ele>2390.6000976562</ele>
        <time>2024-09-13T08:58:42.000Z</time>
      </trkpt>
      <trkpt lat="44.41323" lon="6.99846">
        <ele>2390.8000488281</ele>
        <time>2024-09-13T08:58:43.000Z</time>
      </trkpt>
      <trkpt lat="44.41322" lon="6.99848">
        <ele>2391</ele>
        <time>2024-09-13T08:58:44.000Z</time>
      </trkpt>
      <trkpt lat="44.41322" lon="6.9985">
        <ele>2391.1999511719</ele>
        <time>2024-09-13T08:58:45.000Z</time>
      </trkpt>
      <trkpt lat="44.41322" lon="6.99851">
        <ele>2391.1999511719</ele>
        <time>2024-09-13T08:58:46.000Z</time>
      </trkpt>
      <trkpt lat="44.41322" lon="6.99852">
        <ele>2391.1999511719</ele>
        <time>2024-09-13T08:58:47.000Z</time>
      </trkpt>
      <trkpt lat="44.41321" lon="6.99853">
        <ele>2391.1999511719</ele>
        <time>2024-09-13T08:58:48.000Z</time>
      </trkpt>
      <trkpt lat="44.41321" lon="6.99854">
        <ele>2391.1999511719</ele>
        <time>2024-09-13T08:58:49.000Z</time>
      </trkpt>
      <trkpt lat="44.41321" lon="6.99856">
        <ele>2391.1999511719</ele>
        <time>2024-09-13T08:58:50.000Z</time>
      </trkpt>
      <trkpt lat="44.41321" lon="6.99859">
        <ele>2391.1999511719</ele>
        <time>2024-09-13T08:58:52.000Z</time>
      </trkpt>
      <trkpt lat="44.41322" lon="6.99862">
        <ele>2391.3999023438</ele>
        <time>2024-09-13T08:58:55.000Z</time>
      </trkpt>
      <trkpt lat="44.41322" lon="6.99864">
        <ele>2391.3999023438</ele>
        <time>2024-09-13T08:58:56.000Z</time>
      </trkpt>
      <trkpt lat="44.41323" lon="6.99865">
        <ele>2391.6000976562</ele>
        <time>2024-09-13T08:58:57.000Z</time>
      </trkpt>
      <trkpt lat="44.41323" lon="6.99866">
        <ele>2391.6000976562</ele>
        <time>2024-09-13T08:58:58.000Z</time>
      </trkpt>
      <trkpt lat="44.41323" lon="6.99868">
        <ele>2391.6000976562</ele>
        <time>2024-09-13T08:58:59.000Z</time>
      </trkpt>
      <trkpt lat="44.41323" lon="6.99869">
        <ele>2391.6000976562</ele>
        <time>2024-09-13T08:59:00.000Z</time>
      </trkpt>
      <trkpt lat="44.41324" lon="6.99869">
        <ele>2391.8000488281</ele>
        <time>2024-09-13T08:59:01.000Z</time>
      </trkpt>
      <trkpt lat="44.41325" lon="6.99871">
        <ele>2392</ele>
        <time>2024-09-13T08:59:04.000Z</time>
      </trkpt>
      <trkpt lat="44.41325" lon="6.99872">
        <ele>2392.3999023438</ele>
        <time>2024-09-13T08:59:05.000Z</time>
      </trkpt>
      <trkpt lat="44.41326" lon="6.99872">
        <ele>2392.3999023438</ele>
        <time>2024-09-13T08:59:06.000Z</time>
      </trkpt>
      <trkpt lat="44.41327" lon="6.99873">
        <ele>2392.3999023438</ele>
        <time>2024-09-13T08:59:07.000Z</time>
      </trkpt>
      <trkpt lat="44.4133" lon="6.99876">
        <ele>2393.3999023438</ele>
        <time>2024-09-13T08:59:11.000Z</time>
      </trkpt>
      <trkpt lat="44.4133" lon="6.99876">
        <ele>2393.3999023438</ele>
        <time>2024-09-13T08:59:12.000Z</time>
      </trkpt>
      <trkpt lat="44.41331" lon="6.99876">
        <ele>2393.3999023438</ele>
        <time>2024-09-13T08:59:13.000Z</time>
      </trkpt>
      <trkpt lat="44.41332" lon="6.99877">
        <ele>2393.6000976562</ele>
        <time>2024-09-13T08:59:14.000Z</time>
      </trkpt>
      <trkpt lat="44.41332" lon="6.99877">
        <ele>2393.6000976562</ele>
        <time>2024-09-13T08:59:15.000Z</time>
      </trkpt>
      <trkpt lat="44.41334" lon="6.99878">
        <ele>2394.1999511719</ele>
        <time>2024-09-13T08:59:17.000Z</time>
      </trkpt>
      <trkpt lat="44.41334" lon="6.99878">
        <ele>2394.3999023438</ele>
        <time>2024-09-13T08:59:18.000Z</time>
      </trkpt>
      <trkpt lat="44.41335" lon="6.99879">
        <ele>2394.8000488281</ele>
        <time>2024-09-13T08:59:19.000Z</time>
      </trkpt>
      <trkpt lat="44.41335" lon="6.99879">
        <ele>2394.8000488281</ele>
        <time>2024-09-13T08:59:20.000Z</time>
      </trkpt>
      <trkpt lat="44.41336" lon="6.9988">
        <ele>2395</ele>
        <time>2024-09-13T08:59:21.000Z</time>
      </trkpt>
      <trkpt lat="44.41335" lon="6.99881">
        <ele>2395.1999511719</ele>
        <time>2024-09-13T08:59:22.000Z</time>
      </trkpt>
      <trkpt lat="44.41335" lon="6.99883">
        <ele>2395.3999023438</ele>
        <time>2024-09-13T08:59:23.000Z</time>
      </trkpt>
      <trkpt lat="44.41333" lon="6.99884">
        <ele>2395.8000488281</ele>
        <time>2024-09-13T08:59:24.000Z</time>
      </trkpt>
      <trkpt lat="44.41333" lon="6.99885">
        <ele>2396</ele>
        <time>2024-09-13T08:59:25.000Z</time>
      </trkpt>
      <trkpt lat="44.41332" lon="6.99885">
        <ele>2396.1999511719</ele>
        <time>2024-09-13T08:59:26.000Z</time>
      </trkpt>
      <trkpt lat="44.41331" lon="6.99886">
        <ele>2396.3999023438</ele>
        <time>2024-09-13T08:59:27.000Z</time>
      </trkpt>
      <trkpt lat="44.4133" lon="6.99887">
        <ele>2396.6000976562</ele>
        <time>2024-09-13T08:59:28.000Z</time>
      </trkpt>
      <trkpt lat="44.41328" lon="6.99888">
        <ele>2396.6000976562</ele>
        <time>2024-09-13T08:59:29.000Z</time>
      </trkpt>
      <trkpt lat="44.41327" lon="6.99889">
        <ele>2396.8000488281</ele>
        <time>2024-09-13T08:59:30.000Z</time>
      </trkpt>
      <trkpt lat="44.41326" lon="6.9989">
        <ele>2397.1999511719</ele>
        <time>2024-09-13T08:59:31.000Z</time>
      </trkpt>
      <trkpt lat="44.41326" lon="6.99891">
        <ele>2397.1999511719</ele>
        <time>2024-09-13T08:59:32.000Z</time>
      </trkpt>
      <trkpt lat="44.41325" lon="6.99892">
        <ele>2397.1999511719</ele>
        <time>2024-09-13T08:59:33.000Z</time>
      </trkpt>
      <trkpt lat="44.41324" lon="6.99893">
        <ele>2397.1999511719</ele>
        <time>2024-09-13T08:59:34.000Z</time>
      </trkpt>
      <trkpt lat="44.41323" lon="6.99895">
        <ele>2397.1999511719</ele>
        <time>2024-09-13T08:59:35.000Z</time>
      </trkpt>
      <trkpt lat="44.41322" lon="6.99895">
        <ele>2397.1999511719</ele>
        <time>2024-09-13T08:59:36.000Z</time>
      </trkpt>
      <trkpt lat="44.41321" lon="6.99896">
        <ele>2397.1999511719</ele>
        <time>2024-09-13T08:59:37.000Z</time>
      </trkpt>
      <trkpt lat="44.4132" lon="6.99897">
        <ele>2397.1999511719</ele>
        <time>2024-09-13T08:59:38.000Z</time>
      </trkpt>
      <trkpt lat="44.4132" lon="6.99899">
        <ele>2397.1999511719</ele>
        <time>2024-09-13T08:59:39.000Z</time>
      </trkpt>
      <trkpt lat="44.4132" lon="6.999">
        <ele>2397.3999023438</ele>
        <time>2024-09-13T08:59:40.000Z</time>
      </trkpt>
      <trkpt lat="44.4132" lon="6.99901">
        <ele>2397.3999023438</ele>
        <time>2024-09-13T08:59:41.000Z</time>
      </trkpt>
      <trkpt lat="44.4132" lon="6.99902">
        <ele>2397.3999023438</ele>
        <time>2024-09-13T08:59:42.000Z</time>
      </trkpt>
      <trkpt lat="44.41319" lon="6.99904">
        <ele>2397.3999023438</ele>
        <time>2024-09-13T08:59:43.000Z</time>
      </trkpt>
      <trkpt lat="44.41319" lon="6.99905">
        <ele>2397.6000976562</ele>
        <time>2024-09-13T08:59:44.000Z</time>
      </trkpt>
      <trkpt lat="44.41319" lon="6.99906">
        <ele>2397.6000976562</ele>
        <time>2024-09-13T08:59:45.000Z</time>
      </trkpt>
      <trkpt lat="44.41319" lon="6.99908">
        <ele>2397.8000488281</ele>
        <time>2024-09-13T08:59:46.000Z</time>
      </trkpt>
      <trkpt lat="44.41319" lon="6.99909">
        <ele>2397.8000488281</ele>
        <time>2024-09-13T08:59:47.000Z</time>
      </trkpt>
      <trkpt lat="44.41319" lon="6.9991">
        <ele>2398</ele>
        <time>2024-09-13T08:59:48.000Z</time>
      </trkpt>
      <trkpt lat="44.41319" lon="6.99911">
        <ele>2398.1999511719</ele>
        <time>2024-09-13T08:59:49.000Z</time>
      </trkpt>
      <trkpt lat="44.41319" lon="6.99912">
        <ele>2398.3999023438</ele>
        <time>2024-09-13T08:59:50.000Z</time>
      </trkpt>
      <trkpt lat="44.41319" lon="6.99913">
        <ele>2398.8000488281</ele>
        <time>2024-09-13T08:59:51.000Z</time>
      </trkpt>
      <trkpt lat="44.41318" lon="6.99913">
        <ele>2399</ele>
        <time>2024-09-13T08:59:52.000Z</time>
      </trkpt>
      <trkpt lat="44.41318" lon="6.99914">
        <ele>2399</ele>
        <time>2024-09-13T08:59:53.000Z</time>
      </trkpt>
      <trkpt lat="44.41318" lon="6.99915">
        <ele>2399.1999511719</ele>
        <time>2024-09-13T08:59:54.000Z</time>
      </trkpt>
      <trkpt lat="44.41317" lon="6.99915">
        <ele>2399.3999023438</ele>
        <time>2024-09-13T08:59:55.000Z</time>
      </trkpt>
      <trkpt lat="44.41317" lon="6.99916">
        <ele>2399.8000488281</ele>
        <time>2024-09-13T08:59:56.000Z</time>
      </trkpt>
      <trkpt lat="44.41317" lon="6.99917">
        <ele>2400</ele>
        <time>2024-09-13T08:59:57.000Z</time>
      </trkpt>
      <trkpt lat="44.41317" lon="6.99918">
        <ele>2400.1999511719</ele>
        <time>2024-09-13T08:59:58.000Z</time>
      </trkpt>
      <trkpt lat="44.41316" lon="6.99919">
        <ele>2400.1999511719</ele>
        <time>2024-09-13T08:59:59.000Z</time>
      </trkpt>
      <trkpt lat="44.41316" lon="6.9992">
        <ele>2400.3999023438</ele>
        <time>2024-09-13T09:00:00.000Z</time>
      </trkpt>
      <trkpt lat="44.41316" lon="6.99922">
        <ele>2400.6000976562</ele>
        <time>2024-09-13T09:00:01.000Z</time>
      </trkpt>
      <trkpt lat="44.41316" lon="6.99923">
        <ele>2400.6000976562</ele>
        <time>2024-09-13T09:00:02.000Z</time>
      </trkpt>
      <trkpt lat="44.41314" lon="6.99925">
        <ele>2400.8000488281</ele>
        <time>2024-09-13T09:00:03.000Z</time>
      </trkpt>
      <trkpt lat="44.41314" lon="6.99926">
        <ele>2400.8000488281</ele>
        <time>2024-09-13T09:00:04.000Z</time>
      </trkpt>
      <trkpt lat="44.41313" lon="6.99927">
        <ele>2400.8000488281</ele>
        <time>2024-09-13T09:00:05.000Z</time>
      </trkpt>
      <trkpt lat="44.41313" lon="6.99928">
        <ele>2401</ele>
        <time>2024-09-13T09:00:06.000Z</time>
      </trkpt>
      <trkpt lat="44.41312" lon="6.99929">
        <ele>2401</ele>
        <time>2024-09-13T09:00:07.000Z</time>
      </trkpt>
      <trkpt lat="44.41312" lon="6.99931">
        <ele>2401.1999511719</ele>
        <time>2024-09-13T09:00:08.000Z</time>
      </trkpt>
      <trkpt lat="44.41312" lon="6.99932">
        <ele>2401.1999511719</ele>
        <time>2024-09-13T09:00:09.000Z</time>
      </trkpt>
      <trkpt lat="44.41311" lon="6.99933">
        <ele>2401.1999511719</ele>
        <time>2024-09-13T09:00:10.000Z</time>
      </trkpt>
      <trkpt lat="44.41311" lon="6.99935">
        <ele>2401.1999511719</ele>
        <time>2024-09-13T09:00:11.000Z</time>
      </trkpt>
      <trkpt lat="44.41311" lon="6.99936">
        <ele>2401.1999511719</ele>
        <time>2024-09-13T09:00:12.000Z</time>
      </trkpt>
      <trkpt lat="44.41311" lon="6.99937">
        <ele>2401.1999511719</ele>
        <time>2024-09-13T09:00:13.000Z</time>
      </trkpt>
      <trkpt lat="44.41311" lon="6.99938">
        <ele>2401.1999511719</ele>
        <time>2024-09-13T09:00:14.000Z</time>
      </trkpt>
      <trkpt lat="44.41311" lon="6.99939">
        <ele>2401.1999511719</ele>
        <time>2024-09-13T09:00:15.000Z</time>
      </trkpt>
      <trkpt lat="44.4131" lon="6.9994">
        <ele>2401.3999023438</ele>
        <time>2024-09-13T09:00:16.000Z</time>
      </trkpt>
      <trkpt lat="44.4131" lon="6.99941">
        <ele>2401.3999023438</ele>
        <time>2024-09-13T09:00:17.000Z</time>
      </trkpt>
      <trkpt lat="44.4131" lon="6.99941">
        <ele>2401.3999023438</ele>
        <time>2024-09-13T09:00:18.000Z</time>
      </trkpt>
      <trkpt lat="44.4131" lon="6.99942">
        <ele>2401.8000488281</ele>
        <time>2024-09-13T09:00:19.000Z</time>
      </trkpt>
      <trkpt lat="44.41309" lon="6.99943">
        <ele>2402</ele>
        <time>2024-09-13T09:00:21.000Z</time>
      </trkpt>
      <trkpt lat="44.41309" lon="6.99945">
        <ele>2402.3999023438</ele>
        <time>2024-09-13T09:00:23.000Z</time>
      </trkpt>
      <trkpt lat="44.41308" lon="6.99948">
        <ele>2402.8000488281</ele>
        <time>2024-09-13T09:00:25.000Z</time>
      </trkpt>
      <trkpt lat="44.41307" lon="6.99949">
        <ele>2403.1999511719</ele>
        <time>2024-09-13T09:00:26.000Z</time>
      </trkpt>
      <trkpt lat="44.41307" lon="6.99949">
        <ele>2403.3999023438</ele>
        <time>2024-09-13T09:00:27.000Z</time>
      </trkpt>
      <trkpt lat="44.41307" lon="6.99951">
        <ele>2403.6000976562</ele>
        <time>2024-09-13T09:00:28.000Z</time>
      </trkpt>
      <trkpt lat="44.41306" lon="6.99952">
        <ele>2404</ele>
        <time>2024-09-13T09:00:29.000Z</time>
      </trkpt>
      <trkpt lat="44.41306" lon="6.99953">
        <ele>2404.3999023438</ele>
        <time>2024-09-13T09:00:30.000Z</time>
      </trkpt>
      <trkpt lat="44.41305" lon="6.99953">
        <ele>2404.6000976562</ele>
        <time>2024-09-13T09:00:31.000Z</time>
      </trkpt>
      <trkpt lat="44.41305" lon="6.99954">
        <ele>2405</ele>
        <time>2024-09-13T09:00:32.000Z</time>
      </trkpt>
      <trkpt lat="44.41305" lon="6.99955">
        <ele>2405</ele>
        <time>2024-09-13T09:00:33.000Z</time>
      </trkpt>
      <trkpt lat="44.41304" lon="6.99956">
        <ele>2405.1999511719</ele>
        <time>2024-09-13T09:00:34.000Z</time>
      </trkpt>
      <trkpt lat="44.41303" lon="6.99957">
        <ele>2405.1999511719</ele>
        <time>2024-09-13T09:00:35.000Z</time>
      </trkpt>
      <trkpt lat="44.41302" lon="6.99957">
        <ele>2405.3999023438</ele>
        <time>2024-09-13T09:00:36.000Z</time>
      </trkpt>
      <trkpt lat="44.41301" lon="6.99959">
        <ele>2405.8000488281</ele>
        <time>2024-09-13T09:00:37.000Z</time>
      </trkpt>
      <trkpt lat="44.413" lon="6.9996">
        <ele>2406</ele>
        <time>2024-09-13T09:00:38.000Z</time>
      </trkpt>
      <trkpt lat="44.413" lon="6.9996">
        <ele>2406.1999511719</ele>
        <time>2024-09-13T09:00:39.000Z</time>
      </trkpt>
      <trkpt lat="44.41298" lon="6.99961">
        <ele>2406.1999511719</ele>
        <time>2024-09-13T09:00:40.000Z</time>
      </trkpt>
      <trkpt lat="44.41297" lon="6.99961">
        <ele>2406.1999511719</ele>
        <time>2024-09-13T09:00:41.000Z</time>
      </trkpt>
      <trkpt lat="44.41297" lon="6.99961">
        <ele>2406.3999023438</ele>
        <time>2024-09-13T09:00:42.000Z</time>
      </trkpt>
      <trkpt lat="44.41295" lon="6.99962">
        <ele>2406.6000976562</ele>
        <time>2024-09-13T09:00:43.000Z</time>
      </trkpt>
      <trkpt lat="44.41295" lon="6.99963">
        <ele>2406.8000488281</ele>
        <time>2024-09-13T09:00:44.000Z</time>
      </trkpt>
      <trkpt lat="44.41295" lon="6.99963">
        <ele>2406.8000488281</ele>
        <time>2024-09-13T09:00:45.000Z</time>
      </trkpt>
      <trkpt lat="44.41294" lon="6.99964">
        <ele>2406.8000488281</ele>
        <time>2024-09-13T09:00:46.000Z</time>
      </trkpt>
      <trkpt lat="44.41293" lon="6.99964">
        <ele>2407</ele>
        <time>2024-09-13T09:00:47.000Z</time>
      </trkpt>
      <trkpt lat="44.41293" lon="6.99964">
        <ele>2407.1999511719</ele>
        <time>2024-09-13T09:00:48.000Z</time>
      </trkpt>
      <trkpt lat="44.41293" lon="6.99964">
        <ele>2407.6000976562</ele>
        <time>2024-09-13T09:00:49.000Z</time>
      </trkpt>
      <trkpt lat="44.41293" lon="6.99964">
        <ele>2408</ele>
        <time>2024-09-13T09:00:50.000Z</time>
      </trkpt>
      <trkpt lat="44.41293" lon="6.99964">
        <ele>2408.3999023438</ele>
        <time>2024-09-13T09:00:53.000Z</time>
      </trkpt>
      <trkpt lat="44.41293" lon="6.99964">
        <ele>2408.3999023438</ele>
        <time>2024-09-13T09:00:57.000Z</time>
      </trkpt>
      <trkpt lat="44.41294" lon="6.99964">
        <ele>2408.1999511719</ele>
        <time>2024-09-13T09:01:01.000Z</time>
      </trkpt>
      <trkpt lat="44.41294" lon="6.99964">
        <ele>2408.1999511719</ele>
        <time>2024-09-13T09:01:03.000Z</time>
      </trkpt>
      <trkpt lat="44.41294" lon="6.99964">
        <ele>2408.3999023438</ele>
        <time>2024-09-13T09:01:04.000Z</time>
      </trkpt>
      <trkpt lat="44.41294" lon="6.99964">
        <ele>2408.1999511719</ele>
        <time>2024-09-13T09:01:05.000Z</time>
      </trkpt>
      <trkpt lat="44.41294" lon="6.99964">
        <ele>2408.1999511719</ele>
        <time>2024-09-13T09:01:07.000Z</time>
      </trkpt>
      <trkpt lat="44.41294" lon="6.99964">
        <ele>2408.1999511719</ele>
        <time>2024-09-13T09:01:09.000Z</time>
      </trkpt>
      <trkpt lat="44.41294" lon="6.99964">
        <ele>2408.8000488281</ele>
        <time>2024-09-13T09:01:12.000Z</time>
      </trkpt>
      <trkpt lat="44.41294" lon="6.99964">
        <ele>2409</ele>
        <time>2024-09-13T09:01:14.000Z</time>
      </trkpt>
      <trkpt lat="44.41292" lon="6.99967">
        <ele>2409</ele>
        <time>2024-09-13T09:01:16.000Z</time>
      </trkpt>
      <trkpt lat="44.41292" lon="6.99968">
        <ele>2408.8000488281</ele>
        <time>2024-09-13T09:01:17.000Z</time>
      </trkpt>
      <trkpt lat="44.41291" lon="6.9997">
        <ele>2408.8000488281</ele>
        <time>2024-09-13T09:01:19.000Z</time>
      </trkpt>
      <trkpt lat="44.41291" lon="6.9997">
        <ele>2408.8000488281</ele>
        <time>2024-09-13T09:01:20.000Z</time>
      </trkpt>
      <trkpt lat="44.4129" lon="6.99973">
        <ele>2409.3999023438</ele>
        <time>2024-09-13T09:01:23.000Z</time>
      </trkpt>
      <trkpt lat="44.4129" lon="6.99974">
        <ele>2409.8000488281</ele>
        <time>2024-09-13T09:01:24.000Z</time>
      </trkpt>
      <trkpt lat="44.41289" lon="6.99976">
        <ele>2410</ele>
        <time>2024-09-13T09:01:25.000Z</time>
      </trkpt>
      <trkpt lat="44.41289" lon="6.99976">
        <ele>2410.1999511719</ele>
        <time>2024-09-13T09:01:26.000Z</time>
      </trkpt>
      <trkpt lat="44.41289" lon="6.99977">
        <ele>2410.1999511719</ele>
        <time>2024-09-13T09:01:27.000Z</time>
      </trkpt>
      <trkpt lat="44.41288" lon="6.99977">
        <ele>2410.3999023438</ele>
        <time>2024-09-13T09:01:28.000Z</time>
      </trkpt>
      <trkpt lat="44.41287" lon="6.99978">
        <ele>2410.3999023438</ele>
        <time>2024-09-13T09:01:29.000Z</time>
      </trkpt>
      <trkpt lat="44.41286" lon="6.99979">
        <ele>2410.6000976562</ele>
        <time>2024-09-13T09:01:31.000Z</time>
      </trkpt>
      <trkpt lat="44.41285" lon="6.9998">
        <ele>2410.6000976562</ele>
        <time>2024-09-13T09:01:32.000Z</time>
      </trkpt>
      <trkpt lat="44.41284" lon="6.99981">
        <ele>2410.6000976562</ele>
        <time>2024-09-13T09:01:33.000Z</time>
      </trkpt>
      <trkpt lat="44.41284" lon="6.99981">
        <ele>2410.8000488281</ele>
        <time>2024-09-13T09:01:34.000Z</time>
      </trkpt>
      <trkpt lat="44.41283" lon="6.99982">
        <ele>2410.8000488281</ele>
        <time>2024-09-13T09:01:35.000Z</time>
      </trkpt>
      <trkpt lat="44.41283" lon="6.99982">
        <ele>2410.6000976562</ele>
        <time>2024-09-13T09:01:36.000Z</time>
      </trkpt>
      <trkpt lat="44.41283" lon="6.99982">
        <ele>2410.8000488281</ele>
        <time>2024-09-13T09:01:37.000Z</time>
      </trkpt>
      <trkpt lat="44.41283" lon="6.99982">
        <ele>2410.8000488281</ele>
        <time>2024-09-13T09:01:38.000Z</time>
      </trkpt>
      <trkpt lat="44.41282" lon="6.99984">
        <ele>2410.6000976562</ele>
        <time>2024-09-13T09:01:39.000Z</time>
      </trkpt>
      <trkpt lat="44.41282" lon="6.99985">
        <ele>2410.6000976562</ele>
        <time>2024-09-13T09:01:40.000Z</time>
      </trkpt>
      <trkpt lat="44.41281" lon="6.99985">
        <ele>2410.8000488281</ele>
        <time>2024-09-13T09:01:41.000Z</time>
      </trkpt>
      <trkpt lat="44.41282" lon="6.99985">
        <ele>2410.8000488281</ele>
        <time>2024-09-13T09:01:42.000Z</time>
      </trkpt>
      <trkpt lat="44.41281" lon="6.99987">
        <ele>2410.8000488281</ele>
        <time>2024-09-13T09:01:44.000Z</time>
      </trkpt>
      <trkpt lat="44.41281" lon="6.99987">
        <ele>2410.8000488281</ele>
        <time>2024-09-13T09:01:45.000Z</time>
      </trkpt>
      <trkpt lat="44.41281" lon="6.99987">
        <ele>2410.8000488281</ele>
        <time>2024-09-13T09:01:48.000Z</time>
      </trkpt>
      <trkpt lat="44.4128" lon="6.99986">
        <ele>2411</ele>
        <time>2024-09-13T09:01:56.000Z</time>
      </trkpt>
      <trkpt lat="44.4128" lon="6.99986">
        <ele>2411</ele>
        <time>2024-09-13T09:01:57.000Z</time>
      </trkpt>
      <trkpt lat="44.4128" lon="6.99986">
        <ele>2411</ele>
        <time>2024-09-13T09:01:59.000Z</time>
      </trkpt>
      <trkpt lat="44.4128" lon="6.99986">
        <ele>2411</ele>
        <time>2024-09-13T09:02:00.000Z</time>
      </trkpt>
      <trkpt lat="44.4128" lon="6.99987">
        <ele>2411</ele>
        <time>2024-09-13T09:02:05.000Z</time>
      </trkpt>
      <trkpt lat="44.41279" lon="6.99989">
        <ele>2410.8000488281</ele>
        <time>2024-09-13T09:02:06.000Z</time>
      </trkpt>
      <trkpt lat="44.41279" lon="6.9999">
        <ele>2410.8000488281</ele>
        <time>2024-09-13T09:02:07.000Z</time>
      </trkpt>
      <trkpt lat="44.41279" lon="6.99992">
        <ele>2410.8000488281</ele>
        <time>2024-09-13T09:02:08.000Z</time>
      </trkpt>
      <trkpt lat="44.41278" lon="6.99994">
        <ele>2410.8000488281</ele>
        <time>2024-09-13T09:02:09.000Z</time>
      </trkpt>
      <trkpt lat="44.41275" lon="7.00004">
        <ele>2410.6000976562</ele>
        <time>2024-09-13T09:02:14.000Z</time>
      </trkpt>
      <trkpt lat="44.41273" lon="7.00008">
        <ele>2410.6000976562</ele>
        <time>2024-09-13T09:02:16.000Z</time>
      </trkpt>
      <trkpt lat="44.41272" lon="7.0001">
        <ele>2410.6000976562</ele>
        <time>2024-09-13T09:02:17.000Z</time>
      </trkpt>
      <trkpt lat="44.41272" lon="7.00012">
        <ele>2410.6000976562</ele>
        <time>2024-09-13T09:02:18.000Z</time>
      </trkpt>
      <trkpt lat="44.41271" lon="7.00016">
        <ele>2410.6000976562</ele>
        <time>2024-09-13T09:02:20.000Z</time>
      </trkpt>
      <trkpt lat="44.41271" lon="7.00017">
        <ele>2410.6000976562</ele>
        <time>2024-09-13T09:02:21.000Z</time>
      </trkpt>
      <trkpt lat="44.4127" lon="7.00019">
        <ele>2410.8000488281</ele>
        <time>2024-09-13T09:02:22.000Z</time>
      </trkpt>
      <trkpt lat="44.41269" lon="7.00024">
        <ele>2411.1999511719</ele>
        <time>2024-09-13T09:02:24.000Z</time>
      </trkpt>
      <trkpt lat="44.41269" lon="7.00025">
        <ele>2411.3999023438</ele>
        <time>2024-09-13T09:02:25.000Z</time>
      </trkpt>
      <trkpt lat="44.41268" lon="7.00027">
        <ele>2411.6000976562</ele>
        <time>2024-09-13T09:02:26.000Z</time>
      </trkpt>
      <trkpt lat="44.41268" lon="7.00028">
        <ele>2411.6000976562</ele>
        <time>2024-09-13T09:02:27.000Z</time>
      </trkpt>
      <trkpt lat="44.41268" lon="7.00031">
        <ele>2411.6000976562</ele>
        <time>2024-09-13T09:02:29.000Z</time>
      </trkpt>
      <trkpt lat="44.41268" lon="7.00034">
        <ele>2412.1999511719</ele>
        <time>2024-09-13T09:02:31.000Z</time>
      </trkpt>
      <trkpt lat="44.41267" lon="7.00036">
        <ele>2412.1999511719</ele>
        <time>2024-09-13T09:02:32.000Z</time>
      </trkpt>
      <trkpt lat="44.41266" lon="7.00037">
        <ele>2412.1999511719</ele>
        <time>2024-09-13T09:02:33.000Z</time>
      </trkpt>
      <trkpt lat="44.41266" lon="7.00038">
        <ele>2412.6000976562</ele>
        <time>2024-09-13T09:02:34.000Z</time>
      </trkpt>
      <trkpt lat="44.41265" lon="7.00041">
        <ele>2413.1999511719</ele>
        <time>2024-09-13T09:02:36.000Z</time>
      </trkpt>
      <trkpt lat="44.41264" lon="7.00043">
        <ele>2413.3999023438</ele>
        <time>2024-09-13T09:02:37.000Z</time>
      </trkpt>
      <trkpt lat="44.41263" lon="7.00045">
        <ele>2413.3999023438</ele>
        <time>2024-09-13T09:02:38.000Z</time>
      </trkpt>
      <trkpt lat="44.41263" lon="7.00046">
        <ele>2413.6000976562</ele>
        <time>2024-09-13T09:02:39.000Z</time>
      </trkpt>
      <trkpt lat="44.41262" lon="7.00048">
        <ele>2413.6000976562</ele>
        <time>2024-09-13T09:02:40.000Z</time>
      </trkpt>
      <trkpt lat="44.41262" lon="7.0005">
        <ele>2413.6000976562</ele>
        <time>2024-09-13T09:02:41.000Z</time>
      </trkpt>
      <trkpt lat="44.41261" lon="7.00051">
        <ele>2413.8000488281</ele>
        <time>2024-09-13T09:02:42.000Z</time>
      </trkpt>
      <trkpt lat="44.41261" lon="7.00053">
        <ele>2413.8000488281</ele>
        <time>2024-09-13T09:02:43.000Z</time>
      </trkpt>
      <trkpt lat="44.4126" lon="7.00054">
        <ele>2414</ele>
        <time>2024-09-13T09:02:44.000Z</time>
      </trkpt>
      <trkpt lat="44.41259" lon="7.00055">
        <ele>2414</ele>
        <time>2024-09-13T09:02:45.000Z</time>
      </trkpt>
      <trkpt lat="44.41258" lon="7.00056">
        <ele>2414.3999023438</ele>
        <time>2024-09-13T09:02:46.000Z</time>
      </trkpt>
      <trkpt lat="44.41258" lon="7.00057">
        <ele>2414.6000976562</ele>
        <time>2024-09-13T09:02:47.000Z</time>
      </trkpt>
      <trkpt lat="44.41257" lon="7.00059">
        <ele>2414.6000976562</ele>
        <time>2024-09-13T09:02:48.000Z</time>
      </trkpt>
      <trkpt lat="44.41257" lon="7.00061">
        <ele>2414.8000488281</ele>
        <time>2024-09-13T09:02:49.000Z</time>
      </trkpt>
      <trkpt lat="44.41257" lon="7.00063">
        <ele>2415</ele>
        <time>2024-09-13T09:02:50.000Z</time>
      </trkpt>
      <trkpt lat="44.41257" lon="7.00065">
        <ele>2415.3999023438</ele>
        <time>2024-09-13T09:02:51.000Z</time>
      </trkpt>
      <trkpt lat="44.41257" lon="7.00067">
        <ele>2415.6000976562</ele>
        <time>2024-09-13T09:02:52.000Z</time>
      </trkpt>
      <trkpt lat="44.41257" lon="7.00068">
        <ele>2415.6000976562</ele>
        <time>2024-09-13T09:02:53.000Z</time>
      </trkpt>
      <trkpt lat="44.41257" lon="7.0007">
        <ele>2416</ele>
        <time>2024-09-13T09:02:54.000Z</time>
      </trkpt>
      <trkpt lat="44.41256" lon="7.00071">
        <ele>2416</ele>
        <time>2024-09-13T09:02:55.000Z</time>
      </trkpt>
      <trkpt lat="44.41257" lon="7.00073">
        <ele>2416.1999511719</ele>
        <time>2024-09-13T09:02:56.000Z</time>
      </trkpt>
      <trkpt lat="44.41257" lon="7.00075">
        <ele>2416.3999023438</ele>
        <time>2024-09-13T09:02:57.000Z</time>
      </trkpt>
      <trkpt lat="44.41257" lon="7.00076">
        <ele>2416.3999023438</ele>
        <time>2024-09-13T09:02:58.000Z</time>
      </trkpt>
      <trkpt lat="44.41257" lon="7.00078">
        <ele>2416.6000976562</ele>
        <time>2024-09-13T09:02:59.000Z</time>
      </trkpt>
      <trkpt lat="44.41256" lon="7.00079">
        <ele>2416.6000976562</ele>
        <time>2024-09-13T09:03:00.000Z</time>
      </trkpt>
      <trkpt lat="44.41256" lon="7.00081">
        <ele>2416.6000976562</ele>
        <time>2024-09-13T09:03:01.000Z</time>
      </trkpt>
      <trkpt lat="44.41256" lon="7.00082">
        <ele>2416.8000488281</ele>
        <time>2024-09-13T09:03:02.000Z</time>
      </trkpt>
      <trkpt lat="44.41256" lon="7.00084">
        <ele>2416.8000488281</ele>
        <time>2024-09-13T09:03:03.000Z</time>
      </trkpt>
      <trkpt lat="44.41256" lon="7.00084">
        <ele>2416.8000488281</ele>
        <time>2024-09-13T09:03:04.000Z</time>
      </trkpt>
      <trkpt lat="44.41256" lon="7.00086">
        <ele>2417</ele>
        <time>2024-09-13T09:03:05.000Z</time>
      </trkpt>
      <trkpt lat="44.41255" lon="7.00087">
        <ele>2417.3999023438</ele>
        <time>2024-09-13T09:03:06.000Z</time>
      </trkpt>
      <trkpt lat="44.41255" lon="7.00088">
        <ele>2417.3999023438</ele>
        <time>2024-09-13T09:03:07.000Z</time>
      </trkpt>
      <trkpt lat="44.41255" lon="7.0009">
        <ele>2417.6000976562</ele>
        <time>2024-09-13T09:03:08.000Z</time>
      </trkpt>
      <trkpt lat="44.41255" lon="7.00091">
        <ele>2417.8000488281</ele>
        <time>2024-09-13T09:03:09.000Z</time>
      </trkpt>
      <trkpt lat="44.41254" lon="7.00093">
        <ele>2418</ele>
        <time>2024-09-13T09:03:10.000Z</time>
      </trkpt>
      <trkpt lat="44.41253" lon="7.00095">
        <ele>2418</ele>
        <time>2024-09-13T09:03:11.000Z</time>
      </trkpt>
      <trkpt lat="44.41252" lon="7.00095">
        <ele>2418.1999511719</ele>
        <time>2024-09-13T09:03:12.000Z</time>
      </trkpt>
      <trkpt lat="44.41251" lon="7.00096">
        <ele>2418.3999023438</ele>
        <time>2024-09-13T09:03:13.000Z</time>
      </trkpt>
      <trkpt lat="44.4125" lon="7.00096">
        <ele>2418.6000976562</ele>
        <time>2024-09-13T09:03:14.000Z</time>
      </trkpt>
      <trkpt lat="44.41249" lon="7.00096">
        <ele>2418.8000488281</ele>
        <time>2024-09-13T09:03:15.000Z</time>
      </trkpt>
      <trkpt lat="44.41248" lon="7.00096">
        <ele>2419</ele>
        <time>2024-09-13T09:03:16.000Z</time>
      </trkpt>
      <trkpt lat="44.41248" lon="7.00096">
        <ele>2419</ele>
        <time>2024-09-13T09:03:17.000Z</time>
      </trkpt>
      <trkpt lat="44.41246" lon="7.00097">
        <ele>2419.3999023438</ele>
        <time>2024-09-13T09:03:18.000Z</time>
      </trkpt>
      <trkpt lat="44.41246" lon="7.00097">
        <ele>2419.6000976562</ele>
        <time>2024-09-13T09:03:19.000Z</time>
      </trkpt>
      <trkpt lat="44.41246" lon="7.00097">
        <ele>2419.8000488281</ele>
        <time>2024-09-13T09:03:20.000Z</time>
      </trkpt>
      <trkpt lat="44.41244" lon="7.00096">
        <ele>2420</ele>
        <time>2024-09-13T09:03:21.000Z</time>
      </trkpt>
      <trkpt lat="44.41244" lon="7.00096">
        <ele>2420.1999511719</ele>
        <time>2024-09-13T09:03:22.000Z</time>
      </trkpt>
      <trkpt lat="44.41244" lon="7.00096">
        <ele>2420.1999511719</ele>
        <time>2024-09-13T09:03:23.000Z</time>
      </trkpt>
      <trkpt lat="44.41244" lon="7.00096">
        <ele>2420.3999023438</ele>
        <time>2024-09-13T09:03:24.000Z</time>
      </trkpt>
      <trkpt lat="44.41244" lon="7.00096">
        <ele>2420.3999023438</ele>
        <time>2024-09-13T09:03:26.000Z</time>
      </trkpt>
      <trkpt lat="44.41245" lon="7.00093">
        <ele>2420.3999023438</ele>
        <time>2024-09-13T09:03:28.000Z</time>
      </trkpt>
      <trkpt lat="44.41245" lon="7.00093">
        <ele>2420.3999023438</ele>
        <time>2024-09-13T09:03:29.000Z</time>
      </trkpt>
      <trkpt lat="44.41245" lon="7.00093">
        <ele>2420.6000976562</ele>
        <time>2024-09-13T09:03:35.000Z</time>
      </trkpt>
      <trkpt lat="44.41245" lon="7.00093">
        <ele>2421</ele>
        <time>2024-09-13T09:03:43.000Z</time>
      </trkpt>
      <trkpt lat="44.41245" lon="7.00093">
        <ele>2421</ele>
        <time>2024-09-13T09:03:52.000Z</time>
      </trkpt>
      <trkpt lat="44.41244" lon="7.00095">
        <ele>2421.1999511719</ele>
        <time>2024-09-13T09:03:59.000Z</time>
      </trkpt>
      <trkpt lat="44.41242" lon="7.00098">
        <ele>2422</ele>
        <time>2024-09-13T09:04:05.000Z</time>
      </trkpt>
      <trkpt lat="44.4124" lon="7.00098">
        <ele>2422</ele>
        <time>2024-09-13T09:04:08.000Z</time>
      </trkpt>
      <trkpt lat="44.41239" lon="7.00098">
        <ele>2422.1999511719</ele>
        <time>2024-09-13T09:04:09.000Z</time>
      </trkpt>
      <trkpt lat="44.41238" lon="7.00099">
        <ele>2422.1999511719</ele>
        <time>2024-09-13T09:04:10.000Z</time>
      </trkpt>
      <trkpt lat="44.41236" lon="7.00099">
        <ele>2422.6000976562</ele>
        <time>2024-09-13T09:04:11.000Z</time>
      </trkpt>
      <trkpt lat="44.41235" lon="7.00099">
        <ele>2422.6000976562</ele>
        <time>2024-09-13T09:04:12.000Z</time>
      </trkpt>
      <trkpt lat="44.41234" lon="7.001">
        <ele>2423.3999023438</ele>
        <time>2024-09-13T09:04:14.000Z</time>
      </trkpt>
      <trkpt lat="44.41233" lon="7.001">
        <ele>2423.3999023438</ele>
        <time>2024-09-13T09:04:15.000Z</time>
      </trkpt>
      <trkpt lat="44.41233" lon="7.00102">
        <ele>2423.3999023438</ele>
        <time>2024-09-13T09:04:16.000Z</time>
      </trkpt>
      <trkpt lat="44.41232" lon="7.00103">
        <ele>2423.6000976562</ele>
        <time>2024-09-13T09:04:17.000Z</time>
      </trkpt>
      <trkpt lat="44.41231" lon="7.00104">
        <ele>2423.6000976562</ele>
        <time>2024-09-13T09:04:18.000Z</time>
      </trkpt>
      <trkpt lat="44.4123" lon="7.00105">
        <ele>2424</ele>
        <time>2024-09-13T09:04:19.000Z</time>
      </trkpt>
      <trkpt lat="44.41229" lon="7.00107">
        <ele>2424.1999511719</ele>
        <time>2024-09-13T09:04:21.000Z</time>
      </trkpt>
      <trkpt lat="44.41228" lon="7.00108">
        <ele>2424.3999023438</ele>
        <time>2024-09-13T09:04:22.000Z</time>
      </trkpt>
      <trkpt lat="44.41227" lon="7.00109">
        <ele>2424.6000976562</ele>
        <time>2024-09-13T09:04:23.000Z</time>
      </trkpt>
      <trkpt lat="44.41226" lon="7.0011">
        <ele>2425</ele>
        <time>2024-09-13T09:04:24.000Z</time>
      </trkpt>
      <trkpt lat="44.41226" lon="7.0011">
        <ele>2425.1999511719</ele>
        <time>2024-09-13T09:04:26.000Z</time>
      </trkpt>
      <trkpt lat="44.41226" lon="7.00111">
        <ele>2425.6000976562</ele>
        <time>2024-09-13T09:04:27.000Z</time>
      </trkpt>
      <trkpt lat="44.41226" lon="7.00112">
        <ele>2425.6000976562</ele>
        <time>2024-09-13T09:04:28.000Z</time>
      </trkpt>
      <trkpt lat="44.41225" lon="7.00113">
        <ele>2425.8000488281</ele>
        <time>2024-09-13T09:04:29.000Z</time>
      </trkpt>
      <trkpt lat="44.41224" lon="7.00114">
        <ele>2425.8000488281</ele>
        <time>2024-09-13T09:04:30.000Z</time>
      </trkpt>
      <trkpt lat="44.41224" lon="7.00114">
        <ele>2426</ele>
        <time>2024-09-13T09:04:31.000Z</time>
      </trkpt>
      <trkpt lat="44.41223" lon="7.00115">
        <ele>2426</ele>
        <time>2024-09-13T09:04:32.000Z</time>
      </trkpt>
      <trkpt lat="44.41223" lon="7.00117">
        <ele>2426.1999511719</ele>
        <time>2024-09-13T09:04:33.000Z</time>
      </trkpt>
      <trkpt lat="44.41222" lon="7.00118">
        <ele>2426.3999023438</ele>
        <time>2024-09-13T09:04:34.000Z</time>
      </trkpt>
      <trkpt lat="44.41222" lon="7.0012">
        <ele>2426.8000488281</ele>
        <time>2024-09-13T09:04:35.000Z</time>
      </trkpt>
      <trkpt lat="44.41221" lon="7.00121">
        <ele>2427.1999511719</ele>
        <time>2024-09-13T09:04:36.000Z</time>
      </trkpt>
      <trkpt lat="44.41221" lon="7.00123">
        <ele>2427.3999023438</ele>
        <time>2024-09-13T09:04:37.000Z</time>
      </trkpt>
      <trkpt lat="44.41221" lon="7.00123">
        <ele>2427.6000976562</ele>
        <time>2024-09-13T09:04:38.000Z</time>
      </trkpt>
      <trkpt lat="44.4122" lon="7.00124">
        <ele>2427.8000488281</ele>
        <time>2024-09-13T09:04:39.000Z</time>
      </trkpt>
      <trkpt lat="44.4122" lon="7.00124">
        <ele>2428</ele>
        <time>2024-09-13T09:04:40.000Z</time>
      </trkpt>
      <trkpt lat="44.4122" lon="7.00126">
        <ele>2428</ele>
        <time>2024-09-13T09:04:41.000Z</time>
      </trkpt>
      <trkpt lat="44.41219" lon="7.00127">
        <ele>2428</ele>
        <time>2024-09-13T09:04:42.000Z</time>
      </trkpt>
      <trkpt lat="44.41219" lon="7.00128">
        <ele>2428.1999511719</ele>
        <time>2024-09-13T09:04:43.000Z</time>
      </trkpt>
      <trkpt lat="44.41219" lon="7.00129">
        <ele>2428.8000488281</ele>
        <time>2024-09-13T09:04:44.000Z</time>
      </trkpt>
      <trkpt lat="44.41219" lon="7.00131">
        <ele>2429</ele>
        <time>2024-09-13T09:04:45.000Z</time>
      </trkpt>
      <trkpt lat="44.41218" lon="7.00132">
        <ele>2429.3999023438</ele>
        <time>2024-09-13T09:04:46.000Z</time>
      </trkpt>
      <trkpt lat="44.41218" lon="7.00133">
        <ele>2429.6000976562</ele>
        <time>2024-09-13T09:04:47.000Z</time>
      </trkpt>
      <trkpt lat="44.41218" lon="7.00134">
        <ele>2429.6000976562</ele>
        <time>2024-09-13T09:04:48.000Z</time>
      </trkpt>
      <trkpt lat="44.41217" lon="7.00135">
        <ele>2429.8000488281</ele>
        <time>2024-09-13T09:04:49.000Z</time>
      </trkpt>
      <trkpt lat="44.41217" lon="7.00136">
        <ele>2429.8000488281</ele>
        <time>2024-09-13T09:04:50.000Z</time>
      </trkpt>
      <trkpt lat="44.41217" lon="7.00137">
        <ele>2429.8000488281</ele>
        <time>2024-09-13T09:04:51.000Z</time>
      </trkpt>
      <trkpt lat="44.41217" lon="7.00138">
        <ele>2429.8000488281</ele>
        <time>2024-09-13T09:04:52.000Z</time>
      </trkpt>
      <trkpt lat="44.41217" lon="7.00139">
        <ele>2429.8000488281</ele>
        <time>2024-09-13T09:04:53.000Z</time>
      </trkpt>
      <trkpt lat="44.41217" lon="7.00141">
        <ele>2430</ele>
        <time>2024-09-13T09:04:54.000Z</time>
      </trkpt>
      <trkpt lat="44.41216" lon="7.00142">
        <ele>2430</ele>
        <time>2024-09-13T09:04:55.000Z</time>
      </trkpt>
      <trkpt lat="44.41215" lon="7.00144">
        <ele>2430</ele>
        <time>2024-09-13T09:04:56.000Z</time>
      </trkpt>
      <trkpt lat="44.41214" lon="7.00145">
        <ele>2430</ele>
        <time>2024-09-13T09:04:57.000Z</time>
      </trkpt>
      <trkpt lat="44.41213" lon="7.00146">
        <ele>2430.1999511719</ele>
        <time>2024-09-13T09:04:58.000Z</time>
      </trkpt>
      <trkpt lat="44.41213" lon="7.00147">
        <ele>2430.1999511719</ele>
        <time>2024-09-13T09:04:59.000Z</time>
      </trkpt>
      <trkpt lat="44.41212" lon="7.00149">
        <ele>2430.1999511719</ele>
        <time>2024-09-13T09:05:00.000Z</time>
      </trkpt>
      <trkpt lat="44.41211" lon="7.0015">
        <ele>2430.3999023438</ele>
        <time>2024-09-13T09:05:01.000Z</time>
      </trkpt>
      <trkpt lat="44.4121" lon="7.00151">
        <ele>2430.3999023438</ele>
        <time>2024-09-13T09:05:02.000Z</time>
      </trkpt>
      <trkpt lat="44.4121" lon="7.00152">
        <ele>2430.6000976562</ele>
        <time>2024-09-13T09:05:03.000Z</time>
      </trkpt>
      <trkpt lat="44.41209" lon="7.00153">
        <ele>2430.8000488281</ele>
        <time>2024-09-13T09:05:04.000Z</time>
      </trkpt>
      <trkpt lat="44.41209" lon="7.00153">
        <ele>2431.1999511719</ele>
        <time>2024-09-13T09:05:05.000Z</time>
      </trkpt>
      <trkpt lat="44.41209" lon="7.00153">
        <ele>2431.3999023438</ele>
        <time>2024-09-13T09:05:06.000Z</time>
      </trkpt>
      <trkpt lat="44.41207" lon="7.00154">
        <ele>2431.6000976562</ele>
        <time>2024-09-13T09:05:07.000Z</time>
      </trkpt>
      <trkpt lat="44.41207" lon="7.00154">
        <ele>2432.3999023438</ele>
        <time>2024-09-13T09:05:08.000Z</time>
      </trkpt>
      <trkpt lat="44.41206" lon="7.00155">
        <ele>2432.8000488281</ele>
        <time>2024-09-13T09:05:09.000Z</time>
      </trkpt>
      <trkpt lat="44.41205" lon="7.00156">
        <ele>2432.8000488281</ele>
        <time>2024-09-13T09:05:10.000Z</time>
      </trkpt>
      <trkpt lat="44.41204" lon="7.00157">
        <ele>2432.8000488281</ele>
        <time>2024-09-13T09:05:11.000Z</time>
      </trkpt>
      <trkpt lat="44.41203" lon="7.00158">
        <ele>2432.8000488281</ele>
        <time>2024-09-13T09:05:12.000Z</time>
      </trkpt>
      <trkpt lat="44.41202" lon="7.00159">
        <ele>2432.8000488281</ele>
        <time>2024-09-13T09:05:13.000Z</time>
      </trkpt>
      <trkpt lat="44.41201" lon="7.0016">
        <ele>2433</ele>
        <time>2024-09-13T09:05:14.000Z</time>
      </trkpt>
      <trkpt lat="44.41201" lon="7.00161">
        <ele>2433</ele>
        <time>2024-09-13T09:05:15.000Z</time>
      </trkpt>
      <trkpt lat="44.412" lon="7.00162">
        <ele>2433</ele>
        <time>2024-09-13T09:05:16.000Z</time>
      </trkpt>
      <trkpt lat="44.412" lon="7.00163">
        <ele>2433</ele>
        <time>2024-09-13T09:05:17.000Z</time>
      </trkpt>
      <trkpt lat="44.412" lon="7.00164">
        <ele>2433</ele>
        <time>2024-09-13T09:05:18.000Z</time>
      </trkpt>
      <trkpt lat="44.412" lon="7.00165">
        <ele>2433.1999511719</ele>
        <time>2024-09-13T09:05:19.000Z</time>
      </trkpt>
      <trkpt lat="44.412" lon="7.00166">
        <ele>2433.1999511719</ele>
        <time>2024-09-13T09:05:20.000Z</time>
      </trkpt>
      <trkpt lat="44.412" lon="7.00166">
        <ele>2433.3999023438</ele>
        <time>2024-09-13T09:05:21.000Z</time>
      </trkpt>
      <trkpt lat="44.412" lon="7.00167">
        <ele>2433.6000976562</ele>
        <time>2024-09-13T09:05:22.000Z</time>
      </trkpt>
      <trkpt lat="44.41199" lon="7.00168">
        <ele>2433.8000488281</ele>
        <time>2024-09-13T09:05:23.000Z</time>
      </trkpt>
      <trkpt lat="44.41199" lon="7.00169">
        <ele>2433.8000488281</ele>
        <time>2024-09-13T09:05:24.000Z</time>
      </trkpt>
      <trkpt lat="44.41198" lon="7.00171">
        <ele>2433.8000488281</ele>
        <time>2024-09-13T09:05:25.000Z</time>
      </trkpt>
      <trkpt lat="44.41197" lon="7.00172">
        <ele>2433.8000488281</ele>
        <time>2024-09-13T09:05:26.000Z</time>
      </trkpt>
      <trkpt lat="44.41196" lon="7.00173">
        <ele>2433.8000488281</ele>
        <time>2024-09-13T09:05:27.000Z</time>
      </trkpt>
      <trkpt lat="44.41195" lon="7.00174">
        <ele>2433.8000488281</ele>
        <time>2024-09-13T09:05:28.000Z</time>
      </trkpt>
      <trkpt lat="44.41194" lon="7.00175">
        <ele>2433.8000488281</ele>
        <time>2024-09-13T09:05:29.000Z</time>
      </trkpt>
      <trkpt lat="44.41194" lon="7.00176">
        <ele>2433.8000488281</ele>
        <time>2024-09-13T09:05:30.000Z</time>
      </trkpt>
      <trkpt lat="44.41193" lon="7.00176">
        <ele>2433.8000488281</ele>
        <time>2024-09-13T09:05:31.000Z</time>
      </trkpt>
      <trkpt lat="44.41192" lon="7.00177">
        <ele>2434</ele>
        <time>2024-09-13T09:05:32.000Z</time>
      </trkpt>
      <trkpt lat="44.41192" lon="7.00178">
        <ele>2434</ele>
        <time>2024-09-13T09:05:33.000Z</time>
      </trkpt>
      <trkpt lat="44.41191" lon="7.0018">
        <ele>2434</ele>
        <time>2024-09-13T09:05:35.000Z</time>
      </trkpt>
      <trkpt lat="44.41191" lon="7.00181">
        <ele>2434</ele>
        <time>2024-09-13T09:05:36.000Z</time>
      </trkpt>
      <trkpt lat="44.41191" lon="7.00182">
        <ele>2434</ele>
        <time>2024-09-13T09:05:37.000Z</time>
      </trkpt>
      <trkpt lat="44.41191" lon="7.00184">
        <ele>2434.1999511719</ele>
        <time>2024-09-13T09:05:39.000Z</time>
      </trkpt>
      <trkpt lat="44.41191" lon="7.00185">
        <ele>2434.3999023438</ele>
        <time>2024-09-13T09:05:40.000Z</time>
      </trkpt>
      <trkpt lat="44.4119" lon="7.00186">
        <ele>2434.3999023438</ele>
        <time>2024-09-13T09:05:41.000Z</time>
      </trkpt>
      <trkpt lat="44.4119" lon="7.00187">
        <ele>2434.6000976562</ele>
        <time>2024-09-13T09:05:42.000Z</time>
      </trkpt>
      <trkpt lat="44.41189" lon="7.00188">
        <ele>2434.6000976562</ele>
        <time>2024-09-13T09:05:43.000Z</time>
      </trkpt>
      <trkpt lat="44.41188" lon="7.00189">
        <ele>2434.8000488281</ele>
        <time>2024-09-13T09:05:44.000Z</time>
      </trkpt>
      <trkpt lat="44.41187" lon="7.0019">
        <ele>2434.8000488281</ele>
        <time>2024-09-13T09:05:45.000Z</time>
      </trkpt>
      <trkpt lat="44.41187" lon="7.0019">
        <ele>2435.1999511719</ele>
        <time>2024-09-13T09:05:46.000Z</time>
      </trkpt>
      <trkpt lat="44.41185" lon="7.00191">
        <ele>2435.3999023438</ele>
        <time>2024-09-13T09:05:48.000Z</time>
      </trkpt>
      <trkpt lat="44.41184" lon="7.00191">
        <ele>2435.8000488281</ele>
        <time>2024-09-13T09:05:49.000Z</time>
      </trkpt>
      <trkpt lat="44.41183" lon="7.00191">
        <ele>2436</ele>
        <time>2024-09-13T09:05:50.000Z</time>
      </trkpt>
      <trkpt lat="44.41182" lon="7.00191">
        <ele>2436.3999023438</ele>
        <time>2024-09-13T09:05:51.000Z</time>
      </trkpt>
      <trkpt lat="44.41181" lon="7.00192">
        <ele>2436.8000488281</ele>
        <time>2024-09-13T09:05:53.000Z</time>
      </trkpt>
      <trkpt lat="44.41179" lon="7.00193">
        <ele>2437</ele>
        <time>2024-09-13T09:05:54.000Z</time>
      </trkpt>
      <trkpt lat="44.41178" lon="7.00194">
        <ele>2437.1999511719</ele>
        <time>2024-09-13T09:05:55.000Z</time>
      </trkpt>
      <trkpt lat="44.41177" lon="7.00194">
        <ele>2437.3999023438</ele>
        <time>2024-09-13T09:05:56.000Z</time>
      </trkpt>
      <trkpt lat="44.41175" lon="7.00194">
        <ele>2437.6000976562</ele>
        <time>2024-09-13T09:05:57.000Z</time>
      </trkpt>
      <trkpt lat="44.41174" lon="7.00194">
        <ele>2437.8000488281</ele>
        <time>2024-09-13T09:05:58.000Z</time>
      </trkpt>
      <trkpt lat="44.41173" lon="7.00194">
        <ele>2438.1999511719</ele>
        <time>2024-09-13T09:05:59.000Z</time>
      </trkpt>
      <trkpt lat="44.41172" lon="7.00194">
        <ele>2438.8000488281</ele>
        <time>2024-09-13T09:06:00.000Z</time>
      </trkpt>
      <trkpt lat="44.41171" lon="7.00194">
        <ele>2439</ele>
        <time>2024-09-13T09:06:01.000Z</time>
      </trkpt>
      <trkpt lat="44.4117" lon="7.00195">
        <ele>2439</ele>
        <time>2024-09-13T09:06:02.000Z</time>
      </trkpt>
      <trkpt lat="44.41169" lon="7.00195">
        <ele>2439.1999511719</ele>
        <time>2024-09-13T09:06:03.000Z</time>
      </trkpt>
      <trkpt lat="44.41168" lon="7.00197">
        <ele>2439.1999511719</ele>
        <time>2024-09-13T09:06:04.000Z</time>
      </trkpt>
      <trkpt lat="44.41166" lon="7.00198">
        <ele>2439.1999511719</ele>
        <time>2024-09-13T09:06:05.000Z</time>
      </trkpt>
      <trkpt lat="44.41165" lon="7.00199">
        <ele>2439.3999023438</ele>
        <time>2024-09-13T09:06:06.000Z</time>
      </trkpt>
      <trkpt lat="44.41163" lon="7.002">
        <ele>2439.3999023438</ele>
        <time>2024-09-13T09:06:07.000Z</time>
      </trkpt>
      <trkpt lat="44.41162" lon="7.00201">
        <ele>2439.3999023438</ele>
        <time>2024-09-13T09:06:08.000Z</time>
      </trkpt>
      <trkpt lat="44.41161" lon="7.00203">
        <ele>2439.6000976562</ele>
        <time>2024-09-13T09:06:09.000Z</time>
      </trkpt>
      <trkpt lat="44.4116" lon="7.00205">
        <ele>2439.8000488281</ele>
        <time>2024-09-13T09:06:10.000Z</time>
      </trkpt>
      <trkpt lat="44.4116" lon="7.00206">
        <ele>2439.8000488281</ele>
        <time>2024-09-13T09:06:11.000Z</time>
      </trkpt>
      <trkpt lat="44.41159" lon="7.00207">
        <ele>2440</ele>
        <time>2024-09-13T09:06:12.000Z</time>
      </trkpt>
      <trkpt lat="44.41159" lon="7.00208">
        <ele>2440.1999511719</ele>
        <time>2024-09-13T09:06:13.000Z</time>
      </trkpt>
      <trkpt lat="44.4116" lon="7.0021">
        <ele>2440.8000488281</ele>
        <time>2024-09-13T09:06:14.000Z</time>
      </trkpt>
      <trkpt lat="44.4116" lon="7.00212">
        <ele>2441.1999511719</ele>
        <time>2024-09-13T09:06:15.000Z</time>
      </trkpt>
      <trkpt lat="44.4116" lon="7.00214">
        <ele>2441.1999511719</ele>
        <time>2024-09-13T09:06:16.000Z</time>
      </trkpt>
      <trkpt lat="44.4116" lon="7.00216">
        <ele>2441.1999511719</ele>
        <time>2024-09-13T09:06:17.000Z</time>
      </trkpt>
      <trkpt lat="44.4116" lon="7.00217">
        <ele>2441.1999511719</ele>
        <time>2024-09-13T09:06:18.000Z</time>
      </trkpt>
      <trkpt lat="44.4116" lon="7.00219">
        <ele>2441.1999511719</ele>
        <time>2024-09-13T09:06:19.000Z</time>
      </trkpt>
      <trkpt lat="44.4116" lon="7.00221">
        <ele>2441.1999511719</ele>
        <time>2024-09-13T09:06:20.000Z</time>
      </trkpt>
      <trkpt lat="44.41159" lon="7.00223">
        <ele>2441.1999511719</ele>
        <time>2024-09-13T09:06:21.000Z</time>
      </trkpt>
      <trkpt lat="44.41158" lon="7.00224">
        <ele>2441.1999511719</ele>
        <time>2024-09-13T09:06:22.000Z</time>
      </trkpt>
      <trkpt lat="44.41157" lon="7.00226">
        <ele>2441.1999511719</ele>
        <time>2024-09-13T09:06:23.000Z</time>
      </trkpt>
      <trkpt lat="44.41157" lon="7.00227">
        <ele>2441.3999023438</ele>
        <time>2024-09-13T09:06:24.000Z</time>
      </trkpt>
      <trkpt lat="44.41156" lon="7.00229">
        <ele>2441.3999023438</ele>
        <time>2024-09-13T09:06:25.000Z</time>
      </trkpt>
      <trkpt lat="44.41156" lon="7.0023">
        <ele>2441.6000976562</ele>
        <time>2024-09-13T09:06:26.000Z</time>
      </trkpt>
      <trkpt lat="44.41155" lon="7.00232">
        <ele>2441.8000488281</ele>
        <time>2024-09-13T09:06:27.000Z</time>
      </trkpt>
      <trkpt lat="44.41155" lon="7.00233">
        <ele>2442</ele>
        <time>2024-09-13T09:06:28.000Z</time>
      </trkpt>
      <trkpt lat="44.41154" lon="7.00234">
        <ele>2442</ele>
        <time>2024-09-13T09:06:29.000Z</time>
      </trkpt>
      <trkpt lat="44.41153" lon="7.00236">
        <ele>2442</ele>
        <time>2024-09-13T09:06:30.000Z</time>
      </trkpt>
      <trkpt lat="44.41153" lon="7.00237">
        <ele>2442.1999511719</ele>
        <time>2024-09-13T09:06:31.000Z</time>
      </trkpt>
      <trkpt lat="44.41152" lon="7.00239">
        <ele>2442.1999511719</ele>
        <time>2024-09-13T09:06:32.000Z</time>
      </trkpt>
      <trkpt lat="44.41151" lon="7.00241">
        <ele>2442.3999023438</ele>
        <time>2024-09-13T09:06:33.000Z</time>
      </trkpt>
      <trkpt lat="44.4115" lon="7.00242">
        <ele>2442.3999023438</ele>
        <time>2024-09-13T09:06:34.000Z</time>
      </trkpt>
      <trkpt lat="44.4115" lon="7.00243">
        <ele>2442.6000976562</ele>
        <time>2024-09-13T09:06:35.000Z</time>
      </trkpt>
      <trkpt lat="44.4115" lon="7.00243">
        <ele>2442.8000488281</ele>
        <time>2024-09-13T09:06:36.000Z</time>
      </trkpt>
      <trkpt lat="44.41149" lon="7.00246">
        <ele>2443.1999511719</ele>
        <time>2024-09-13T09:06:37.000Z</time>
      </trkpt>
      <trkpt lat="44.41149" lon="7.00247">
        <ele>2443.6000976562</ele>
        <time>2024-09-13T09:06:38.000Z</time>
      </trkpt>
      <trkpt lat="44.41149" lon="7.00247">
        <ele>2443.6000976562</ele>
        <time>2024-09-13T09:06:39.000Z</time>
      </trkpt>
      <trkpt lat="44.41148" lon="7.00249">
        <ele>2443.8000488281</ele>
        <time>2024-09-13T09:06:40.000Z</time>
      </trkpt>
      <trkpt lat="44.41148" lon="7.0025">
        <ele>2444</ele>
        <time>2024-09-13T09:06:41.000Z</time>
      </trkpt>
      <trkpt lat="44.41148" lon="7.00251">
        <ele>2444.1999511719</ele>
        <time>2024-09-13T09:06:42.000Z</time>
      </trkpt>
      <trkpt lat="44.41148" lon="7.00252">
        <ele>2444.1999511719</ele>
        <time>2024-09-13T09:06:43.000Z</time>
      </trkpt>
      <trkpt lat="44.41149" lon="7.00254">
        <ele>2444.8000488281</ele>
        <time>2024-09-13T09:06:44.000Z</time>
      </trkpt>
      <trkpt lat="44.41149" lon="7.00254">
        <ele>2445</ele>
        <time>2024-09-13T09:06:45.000Z</time>
      </trkpt>
      <trkpt lat="44.41149" lon="7.00254">
        <ele>2445</ele>
        <time>2024-09-13T09:06:46.000Z</time>
      </trkpt>
      <trkpt lat="44.4115" lon="7.00255">
        <ele>2445.3999023438</ele>
        <time>2024-09-13T09:06:47.000Z</time>
      </trkpt>
      <trkpt lat="44.41151" lon="7.00256">
        <ele>2445.6000976562</ele>
        <time>2024-09-13T09:06:48.000Z</time>
      </trkpt>
      <trkpt lat="44.41151" lon="7.00257">
        <ele>2444.6000976562</ele>
        <time>2024-09-13T09:06:53.000Z</time>
      </trkpt>
      <trkpt lat="44.41151" lon="7.00256">
        <ele>2444.6000976562</ele>
        <time>2024-09-13T09:06:57.000Z</time>
      </trkpt>
      <trkpt lat="44.41151" lon="7.00257">
        <ele>2444.6000976562</ele>
        <time>2024-09-13T09:06:58.000Z</time>
      </trkpt>
      <trkpt lat="44.41152" lon="7.00257">
        <ele>2445</ele>
        <time>2024-09-13T09:06:59.000Z</time>
      </trkpt>
      <trkpt lat="44.41151" lon="7.00257">
        <ele>2445.3999023438</ele>
        <time>2024-09-13T09:07:00.000Z</time>
      </trkpt>
      <trkpt lat="44.41149" lon="7.00258">
        <ele>2445.8000488281</ele>
        <time>2024-09-13T09:07:02.000Z</time>
      </trkpt>
      <trkpt lat="44.41147" lon="7.00259">
        <ele>2446</ele>
        <time>2024-09-13T09:07:04.000Z</time>
      </trkpt>
      <trkpt lat="44.41146" lon="7.00259">
        <ele>2446</ele>
        <time>2024-09-13T09:07:05.000Z</time>
      </trkpt>
      <trkpt lat="44.41145" lon="7.00258">
        <ele>2446</ele>
        <time>2024-09-13T09:07:06.000Z</time>
      </trkpt>
      <trkpt lat="44.41144" lon="7.00258">
        <ele>2446</ele>
        <time>2024-09-13T09:07:07.000Z</time>
      </trkpt>
      <trkpt lat="44.41143" lon="7.00258">
        <ele>2446</ele>
        <time>2024-09-13T09:07:08.000Z</time>
      </trkpt>
      <trkpt lat="44.41139" lon="7.00258">
        <ele>2445.6000976562</ele>
        <time>2024-09-13T09:07:11.000Z</time>
      </trkpt>
      <trkpt lat="44.41137" lon="7.00258">
        <ele>2445.6000976562</ele>
        <time>2024-09-13T09:07:12.000Z</time>
      </trkpt>
      <trkpt lat="44.41134" lon="7.00258">
        <ele>2445.3999023438</ele>
        <time>2024-09-13T09:07:14.000Z</time>
      </trkpt>
      <trkpt lat="44.41133" lon="7.00258">
        <ele>2445.3999023438</ele>
        <time>2024-09-13T09:07:15.000Z</time>
      </trkpt>
      <trkpt lat="44.41131" lon="7.00259">
        <ele>2445.3999023438</ele>
        <time>2024-09-13T09:07:16.000Z</time>
      </trkpt>
      <trkpt lat="44.4113" lon="7.00259">
        <ele>2445.3999023438</ele>
        <time>2024-09-13T09:07:17.000Z</time>
      </trkpt>
      <trkpt lat="44.41129" lon="7.00259">
        <ele>2445.1999511719</ele>
        <time>2024-09-13T09:07:18.000Z</time>
      </trkpt>
      <trkpt lat="44.41128" lon="7.00259">
        <ele>2445.1999511719</ele>
        <time>2024-09-13T09:07:19.000Z</time>
      </trkpt>
      <trkpt lat="44.41127" lon="7.00259">
        <ele>2445</ele>
        <time>2024-09-13T09:07:20.000Z</time>
      </trkpt>
      <trkpt lat="44.41126" lon="7.00259">
        <ele>2445</ele>
        <time>2024-09-13T09:07:21.000Z</time>
      </trkpt>
      <trkpt lat="44.41124" lon="7.00259">
        <ele>2445</ele>
        <time>2024-09-13T09:07:22.000Z</time>
      </trkpt>
      <trkpt lat="44.41123" lon="7.00258">
        <ele>2444.8000488281</ele>
        <time>2024-09-13T09:07:23.000Z</time>
      </trkpt>
      <trkpt lat="44.41122" lon="7.00258">
        <ele>2444.8000488281</ele>
        <time>2024-09-13T09:07:24.000Z</time>
      </trkpt>
      <trkpt lat="44.4112" lon="7.00256">
        <ele>2444.1999511719</ele>
        <time>2024-09-13T09:07:26.000Z</time>
      </trkpt>
      <trkpt lat="44.41119" lon="7.00255">
        <ele>2444</ele>
        <time>2024-09-13T09:07:27.000Z</time>
      </trkpt>
      <trkpt lat="44.41119" lon="7.00254">
        <ele>2444</ele>
        <time>2024-09-13T09:07:28.000Z</time>
      </trkpt>
      <trkpt lat="44.41119" lon="7.00254">
        <ele>2444</ele>
        <time>2024-09-13T09:07:29.000Z</time>
      </trkpt>
      <trkpt lat="44.41118" lon="7.00254">
        <ele>2443.8000488281</ele>
        <time>2024-09-13T09:07:31.000Z</time>
      </trkpt>
      <trkpt lat="44.41119" lon="7.00254">
        <ele>2443.8000488281</ele>
        <time>2024-09-13T09:07:32.000Z</time>
      </trkpt>
      <trkpt lat="44.41118" lon="7.00253">
        <ele>2443.8000488281</ele>
        <time>2024-09-13T09:07:33.000Z</time>
      </trkpt>
      <trkpt lat="44.41118" lon="7.00252">
        <ele>2444</ele>
        <time>2024-09-13T09:07:35.000Z</time>
      </trkpt>
      <trkpt lat="44.41118" lon="7.00252">
        <ele>2444</ele>
        <time>2024-09-13T09:07:36.000Z</time>
      </trkpt>
      <trkpt lat="44.41118" lon="7.00253">
        <ele>2444</ele>
        <time>2024-09-13T09:07:37.000Z</time>
      </trkpt>
      <trkpt lat="44.41118" lon="7.00253">
        <ele>2443.6000976562</ele>
        <time>2024-09-13T09:07:39.000Z</time>
      </trkpt>
      <trkpt lat="44.41118" lon="7.00252">
        <ele>2443.3999023438</ele>
        <time>2024-09-13T09:07:42.000Z</time>
      </trkpt>
      <trkpt lat="44.41118" lon="7.00251">
        <ele>2443.3999023438</ele>
        <time>2024-09-13T09:07:45.000Z</time>
      </trkpt>
      <trkpt lat="44.41118" lon="7.0025">
        <ele>2443.3999023438</ele>
        <time>2024-09-13T09:07:50.000Z</time>
      </trkpt>
      <trkpt lat="44.41118" lon="7.00252">
        <ele>2443.3999023438</ele>
        <time>2024-09-13T09:07:52.000Z</time>
      </trkpt>
      <trkpt lat="44.41118" lon="7.00252">
        <ele>2443.1999511719</ele>
        <time>2024-09-13T09:07:58.000Z</time>
      </trkpt>
      <trkpt lat="44.41118" lon="7.00252">
        <ele>2443.1999511719</ele>
        <time>2024-09-13T09:07:59.000Z</time>
      </trkpt>
      <trkpt lat="44.41118" lon="7.00251">
        <ele>2443.1999511719</ele>
        <time>2024-09-13T09:08:06.000Z</time>
      </trkpt>
      <trkpt lat="44.41118" lon="7.00251">
        <ele>2443</ele>
        <time>2024-09-13T09:08:14.000Z</time>
      </trkpt>
      <trkpt lat="44.41118" lon="7.00252">
        <ele>2442.8000488281</ele>
        <time>2024-09-13T09:08:19.000Z</time>
      </trkpt>
      <trkpt lat="44.41118" lon="7.00252">
        <ele>2442.8000488281</ele>
        <time>2024-09-13T09:08:21.000Z</time>
      </trkpt>
      <trkpt lat="44.41118" lon="7.00251">
        <ele>2442.8000488281</ele>
        <time>2024-09-13T09:08:30.000Z</time>
      </trkpt>
      <trkpt lat="44.41118" lon="7.00252">
        <ele>2442.6000976562</ele>
        <time>2024-09-13T09:08:32.000Z</time>
      </trkpt>
      <trkpt lat="44.41118" lon="7.00252">
        <ele>2442.6000976562</ele>
        <time>2024-09-13T09:08:37.000Z</time>
      </trkpt>
      <trkpt lat="44.41118" lon="7.00252">
        <ele>2442.3999023438</ele>
        <time>2024-09-13T09:08:43.000Z</time>
      </trkpt>
      <trkpt lat="44.41118" lon="7.00252">
        <ele>2442.6000976562</ele>
        <time>2024-09-13T09:08:44.000Z</time>
      </trkpt>
      <trkpt lat="44.41118" lon="7.00252">
        <ele>2442.8000488281</ele>
        <time>2024-09-13T09:08:49.000Z</time>
      </trkpt>
      <trkpt lat="44.41118" lon="7.00252">
        <ele>2442.6000976562</ele>
        <time>2024-09-13T09:08:54.000Z</time>
      </trkpt>
      <trkpt lat="44.41118" lon="7.00252">
        <ele>2442.8000488281</ele>
        <time>2024-09-13T09:08:57.000Z</time>
      </trkpt>
      <trkpt lat="44.41118" lon="7.00252">
        <ele>2442.6000976562</ele>
        <time>2024-09-13T09:09:04.000Z</time>
      </trkpt>
      <trkpt lat="44.41118" lon="7.00252">
        <ele>2442.6000976562</ele>
        <time>2024-09-13T09:09:06.000Z</time>
      </trkpt>
      <trkpt lat="44.41118" lon="7.00252">
        <ele>2442.3999023438</ele>
        <time>2024-09-13T09:09:07.000Z</time>
      </trkpt>
      <trkpt lat="44.41118" lon="7.00252">
        <ele>2442.3999023438</ele>
        <time>2024-09-13T09:09:09.000Z</time>
      </trkpt>
      <trkpt lat="44.41118" lon="7.00252">
        <ele>2442.3999023438</ele>
        <time>2024-09-13T09:09:12.000Z</time>
      </trkpt>
      <trkpt lat="44.41118" lon="7.00252">
        <ele>2442.3999023438</ele>
        <time>2024-09-13T09:09:15.000Z</time>
      </trkpt>
      <trkpt lat="44.41118" lon="7.00252">
        <ele>2442</ele>
        <time>2024-09-13T09:09:25.000Z</time>
      </trkpt>
      <trkpt lat="44.41118" lon="7.00252">
        <ele>2442.1999511719</ele>
        <time>2024-09-13T09:09:30.000Z</time>
      </trkpt>
      <trkpt lat="44.41118" lon="7.00252">
        <ele>2442.1999511719</ele>
        <time>2024-09-13T09:09:36.000Z</time>
      </trkpt>
      <trkpt lat="44.41118" lon="7.00252">
        <ele>2442.1999511719</ele>
        <time>2024-09-13T09:09:41.000Z</time>
      </trkpt>
      <trkpt lat="44.41118" lon="7.00252">
        <ele>2442</ele>
        <time>2024-09-13T09:09:55.000Z</time>
      </trkpt>
      <trkpt lat="44.41118" lon="7.00252">
        <ele>2442</ele>
        <time>2024-09-13T09:10:02.000Z</time>
      </trkpt>
      <trkpt lat="44.41117" lon="7.0025">
        <ele>2441.8000488281</ele>
        <time>2024-09-13T09:10:06.000Z</time>
      </trkpt>
      <trkpt lat="44.41117" lon="7.0025">
        <ele>2441.8000488281</ele>
        <time>2024-09-13T09:10:16.000Z</time>
      </trkpt>
      <trkpt lat="44.41117" lon="7.0025">
        <ele>2442</ele>
        <time>2024-09-13T09:10:20.000Z</time>
      </trkpt>
      <trkpt lat="44.41117" lon="7.0025">
        <ele>2442.3999023438</ele>
        <time>2024-09-13T09:10:33.000Z</time>
      </trkpt>
      <trkpt lat="44.41117" lon="7.0025">
        <ele>2442.3999023438</ele>
        <time>2024-09-13T09:10:34.000Z</time>
      </trkpt>
      <trkpt lat="44.41117" lon="7.00251">
        <ele>2442.3999023438</ele>
        <time>2024-09-13T09:10:36.000Z</time>
      </trkpt>
      <trkpt lat="44.41117" lon="7.0025">
        <ele>2442.8000488281</ele>
        <time>2024-09-13T09:10:44.000Z</time>
      </trkpt>
      <trkpt lat="44.41117" lon="7.0025">
        <ele>2443</ele>
        <time>2024-09-13T09:10:47.000Z</time>
      </trkpt>
      <trkpt lat="44.41117" lon="7.0025">
        <ele>2443</ele>
        <time>2024-09-13T09:10:49.000Z</time>
      </trkpt>
      <trkpt lat="44.41117" lon="7.0025">
        <ele>2443.1999511719</ele>
        <time>2024-09-13T09:10:57.000Z</time>
      </trkpt>
      <trkpt lat="44.41117" lon="7.0025">
        <ele>2442.8000488281</ele>
        <time>2024-09-13T09:11:08.000Z</time>
      </trkpt>
      <trkpt lat="44.41117" lon="7.0025">
        <ele>2442.6000976562</ele>
        <time>2024-09-13T09:11:24.000Z</time>
      </trkpt>
      <trkpt lat="44.41117" lon="7.0025">
        <ele>2442.6000976562</ele>
        <time>2024-09-13T09:11:25.000Z</time>
      </trkpt>
      <trkpt lat="44.41117" lon="7.0025">
        <ele>2442.6000976562</ele>
        <time>2024-09-13T09:11:26.000Z</time>
      </trkpt>
      <trkpt lat="44.41117" lon="7.0025">
        <ele>2442.6000976562</ele>
        <time>2024-09-13T09:11:27.000Z</time>
      </trkpt>
      <trkpt lat="44.41117" lon="7.0025">
        <ele>2442.6000976562</ele>
        <time>2024-09-13T09:11:30.000Z</time>
      </trkpt>
      <trkpt lat="44.41117" lon="7.0025">
        <ele>2442.6000976562</ele>
        <time>2024-09-13T09:11:31.000Z</time>
      </trkpt>
      <trkpt lat="44.41117" lon="7.0025">
        <ele>2442.6000976562</ele>
        <time>2024-09-13T09:11:33.000Z</time>
      </trkpt>
      <trkpt lat="44.41117" lon="7.0025">
        <ele>2442.6000976562</ele>
        <time>2024-09-13T09:11:55.000Z</time>
      </trkpt>
      <trkpt lat="44.41117" lon="7.0025">
        <ele>2442.6000976562</ele>
        <time>2024-09-13T09:11:58.000Z</time>
      </trkpt>
      <trkpt lat="44.41117" lon="7.0025">
        <ele>2442.8000488281</ele>
        <time>2024-09-13T09:12:01.000Z</time>
      </trkpt>
      <trkpt lat="44.41117" lon="7.0025">
        <ele>2442.8000488281</ele>
        <time>2024-09-13T09:12:08.000Z</time>
      </trkpt>
      <trkpt lat="44.41117" lon="7.0025">
        <ele>2442.6000976562</ele>
        <time>2024-09-13T09:12:13.000Z</time>
      </trkpt>
      <trkpt lat="44.41117" lon="7.0025">
        <ele>2442.3999023438</ele>
        <time>2024-09-13T09:12:21.000Z</time>
      </trkpt>
      <trkpt lat="44.41117" lon="7.0025">
        <ele>2442.3999023438</ele>
        <time>2024-09-13T09:12:23.000Z</time>
      </trkpt>
      <trkpt lat="44.41117" lon="7.0025">
        <ele>2442.1999511719</ele>
        <time>2024-09-13T09:12:29.000Z</time>
      </trkpt>
      <trkpt lat="44.41117" lon="7.00252">
        <ele>2442</ele>
        <time>2024-09-13T09:12:38.000Z</time>
      </trkpt>
      <trkpt lat="44.41117" lon="7.00252">
        <ele>2441.6000976562</ele>
        <time>2024-09-13T09:12:47.000Z</time>
      </trkpt>
      <trkpt lat="44.41117" lon="7.00252">
        <ele>2441.3999023438</ele>
        <time>2024-09-13T09:12:53.000Z</time>
      </trkpt>
      <trkpt lat="44.41118" lon="7.00252">
        <ele>2441.3999023438</ele>
        <time>2024-09-13T09:12:57.000Z</time>
      </trkpt>
      <trkpt lat="44.41118" lon="7.00252">
        <ele>2441.6000976562</ele>
        <time>2024-09-13T09:12:58.000Z</time>
      </trkpt>
      <trkpt lat="44.41118" lon="7.00252">
        <ele>2441.6000976562</ele>
        <time>2024-09-13T09:12:59.000Z</time>
      </trkpt>
      <trkpt lat="44.41118" lon="7.00252">
        <ele>2441.6000976562</ele>
        <time>2024-09-13T09:13:01.000Z</time>
      </trkpt>
      <trkpt lat="44.41117" lon="7.00252">
        <ele>2441.3999023438</ele>
        <time>2024-09-13T09:13:03.000Z</time>
      </trkpt>
      <trkpt lat="44.41117" lon="7.00253">
        <ele>2441.3999023438</ele>
        <time>2024-09-13T09:13:07.000Z</time>
      </trkpt>
      <trkpt lat="44.41117" lon="7.00253">
        <ele>2442.1999511719</ele>
        <time>2024-09-13T09:13:12.000Z</time>
      </trkpt>
      <trkpt lat="44.41117" lon="7.00253">
        <ele>2442.3999023438</ele>
        <time>2024-09-13T09:13:13.000Z</time>
      </trkpt>
      <trkpt lat="44.41117" lon="7.00253">
        <ele>2442.6000976562</ele>
        <time>2024-09-13T09:13:15.000Z</time>
      </trkpt>
      <trkpt lat="44.41117" lon="7.00253">
        <ele>2442.6000976562</ele>
        <time>2024-09-13T09:13:16.000Z</time>
      </trkpt>
      <trkpt lat="44.41116" lon="7.00254">
        <ele>2442.6000976562</ele>
        <time>2024-09-13T09:13:17.000Z</time>
      </trkpt>
      <trkpt lat="44.41117" lon="7.00253">
        <ele>2442.3999023438</ele>
        <time>2024-09-13T09:13:18.000Z</time>
      </trkpt>
      <trkpt lat="44.41117" lon="7.00253">
        <ele>2442.3999023438</ele>
        <time>2024-09-13T09:13:19.000Z</time>
      </trkpt>
      <trkpt lat="44.41117" lon="7.00253">
        <ele>2442.8000488281</ele>
        <time>2024-09-13T09:13:23.000Z</time>
      </trkpt>
      <trkpt lat="44.41117" lon="7.00255">
        <ele>2442.8000488281</ele>
        <time>2024-09-13T09:13:24.000Z</time>
      </trkpt>
      <trkpt lat="44.41118" lon="7.00253">
        <ele>2442.6000976562</ele>
        <time>2024-09-13T09:13:34.000Z</time>
      </trkpt>
      <trkpt lat="44.41117" lon="7.00253">
        <ele>2442.6000976562</ele>
        <time>2024-09-13T09:13:40.000Z</time>
      </trkpt>
      <trkpt lat="44.41117" lon="7.00255">
        <ele>2442.6000976562</ele>
        <time>2024-09-13T09:13:41.000Z</time>
      </trkpt>
      <trkpt lat="44.41117" lon="7.00255">
        <ele>2443.1999511719</ele>
        <time>2024-09-13T09:13:44.000Z</time>
      </trkpt>
      <trkpt lat="44.41118" lon="7.00253">
        <ele>2443.1999511719</ele>
        <time>2024-09-13T09:13:45.000Z</time>
      </trkpt>
      <trkpt lat="44.4112" lon="7.00251">
        <ele>2443.1999511719</ele>
        <time>2024-09-13T09:13:46.000Z</time>
      </trkpt>
      <trkpt lat="44.4112" lon="7.00251">
        <ele>2443.1999511719</ele>
        <time>2024-09-13T09:13:47.000Z</time>
      </trkpt>
      <trkpt lat="44.4112" lon="7.00252">
        <ele>2443.1999511719</ele>
        <time>2024-09-13T09:13:48.000Z</time>
      </trkpt>
      <trkpt lat="44.4112" lon="7.00252">
        <ele>2443.1999511719</ele>
        <time>2024-09-13T09:13:49.000Z</time>
      </trkpt>
      <trkpt lat="44.4112" lon="7.00253">
        <ele>2443.1999511719</ele>
        <time>2024-09-13T09:13:51.000Z</time>
      </trkpt>
      <trkpt lat="44.4112" lon="7.00253">
        <ele>2443.3999023438</ele>
        <time>2024-09-13T09:13:53.000Z</time>
      </trkpt>
      <trkpt lat="44.41119" lon="7.00255">
        <ele>2443.6000976562</ele>
        <time>2024-09-13T09:13:55.000Z</time>
      </trkpt>
      <trkpt lat="44.41119" lon="7.00256">
        <ele>2443.6000976562</ele>
        <time>2024-09-13T09:13:57.000Z</time>
      </trkpt>
      <trkpt lat="44.41119" lon="7.00256">
        <ele>2443.8000488281</ele>
        <time>2024-09-13T09:13:58.000Z</time>
      </trkpt>
      <trkpt lat="44.41119" lon="7.00256">
        <ele>2443.8000488281</ele>
        <time>2024-09-13T09:13:59.000Z</time>
      </trkpt>
      <trkpt lat="44.41119" lon="7.00257">
        <ele>2444</ele>
        <time>2024-09-13T09:14:00.000Z</time>
      </trkpt>
      <trkpt lat="44.41119" lon="7.00256">
        <ele>2443.8000488281</ele>
        <time>2024-09-13T09:14:05.000Z</time>
      </trkpt>
      <trkpt lat="44.41119" lon="7.00256">
        <ele>2443.3999023438</ele>
        <time>2024-09-13T09:14:16.000Z</time>
      </trkpt>
      <trkpt lat="44.41117" lon="7.00255">
        <ele>2443</ele>
        <time>2024-09-13T09:14:23.000Z</time>
      </trkpt>
      <trkpt lat="44.41118" lon="7.00255">
        <ele>2442.8000488281</ele>
        <time>2024-09-13T09:14:30.000Z</time>
      </trkpt>
      <trkpt lat="44.41118" lon="7.00255">
        <ele>2443</ele>
        <time>2024-09-13T09:14:35.000Z</time>
      </trkpt>
      <trkpt lat="44.41118" lon="7.00255">
        <ele>2443</ele>
        <time>2024-09-13T09:14:39.000Z</time>
      </trkpt>
      <trkpt lat="44.41118" lon="7.00256">
        <ele>2443.1999511719</ele>
        <time>2024-09-13T09:14:46.000Z</time>
      </trkpt>
      <trkpt lat="44.4112" lon="7.00256">
        <ele>2442.8000488281</ele>
        <time>2024-09-13T09:14:50.000Z</time>
      </trkpt>
      <trkpt lat="44.41122" lon="7.00257">
        <ele>2442.6000976562</ele>
        <time>2024-09-13T09:14:51.000Z</time>
      </trkpt>
      <trkpt lat="44.41124" lon="7.00259">
        <ele>2442.3999023438</ele>
        <time>2024-09-13T09:14:52.000Z</time>
      </trkpt>
      <trkpt lat="44.41126" lon="7.0026">
        <ele>2441.6000976562</ele>
        <time>2024-09-13T09:14:53.000Z</time>
      </trkpt>
      <trkpt lat="44.41128" lon="7.00261">
        <ele>2441.3999023438</ele>
        <time>2024-09-13T09:14:54.000Z</time>
      </trkpt>
      <trkpt lat="44.41129" lon="7.00261">
        <ele>2441</ele>
        <time>2024-09-13T09:14:55.000Z</time>
      </trkpt>
      <trkpt lat="44.41131" lon="7.00261">
        <ele>2440.8000488281</ele>
        <time>2024-09-13T09:14:56.000Z</time>
      </trkpt>
      <trkpt lat="44.41133" lon="7.0026">
        <ele>2440.6000976562</ele>
        <time>2024-09-13T09:14:57.000Z</time>
      </trkpt>
      <trkpt lat="44.41134" lon="7.0026">
        <ele>2440.3999023438</ele>
        <time>2024-09-13T09:14:58.000Z</time>
      </trkpt>
      <trkpt lat="44.41136" lon="7.00259">
        <ele>2440.3999023438</ele>
        <time>2024-09-13T09:14:59.000Z</time>
      </trkpt>
      <trkpt lat="44.41142" lon="7.0026">
        <ele>2440.3999023438</ele>
        <time>2024-09-13T09:15:02.000Z</time>
      </trkpt>
      <trkpt lat="44.41144" lon="7.00264">
        <ele>2441.3999023438</ele>
        <time>2024-09-13T09:15:03.000Z</time>
      </trkpt>
      <trkpt lat="44.41143" lon="7.00268">
        <ele>2441.6000976562</ele>
        <time>2024-09-13T09:15:04.000Z</time>
      </trkpt>
      <trkpt lat="44.41142" lon="7.00272">
        <ele>2441.6000976562</ele>
        <time>2024-09-13T09:15:05.000Z</time>
      </trkpt>
      <trkpt lat="44.41141" lon="7.00276">
        <ele>2441.6000976562</ele>
        <time>2024-09-13T09:15:06.000Z</time>
      </trkpt>
      <trkpt lat="44.41139" lon="7.00279">
        <ele>2441.6000976562</ele>
        <time>2024-09-13T09:15:07.000Z</time>
      </trkpt>
      <trkpt lat="44.41138" lon="7.00281">
        <ele>2440.6000976562</ele>
        <time>2024-09-13T09:15:08.000Z</time>
      </trkpt>
      <trkpt lat="44.41137" lon="7.00284">
        <ele>2439.8000488281</ele>
        <time>2024-09-13T09:15:09.000Z</time>
      </trkpt>
      <trkpt lat="44.41137" lon="7.00287">
        <ele>2439.1999511719</ele>
        <time>2024-09-13T09:15:10.000Z</time>
      </trkpt>
      <trkpt lat="44.41138" lon="7.00288">
        <ele>2439.1999511719</ele>
        <time>2024-09-13T09:15:11.000Z</time>
      </trkpt>
      <trkpt lat="44.41138" lon="7.00289">
        <ele>2439.1999511719</ele>
        <time>2024-09-13T09:15:12.000Z</time>
      </trkpt>
      <trkpt lat="44.41138" lon="7.00289">
        <ele>2439.6000976562</ele>
        <time>2024-09-13T09:15:14.000Z</time>
      </trkpt>
      <trkpt lat="44.41138" lon="7.00289">
        <ele>2439</ele>
        <time>2024-09-13T09:15:24.000Z</time>
      </trkpt>
      <trkpt lat="44.41138" lon="7.00287">
        <ele>2438.6000976562</ele>
        <time>2024-09-13T09:15:27.000Z</time>
      </trkpt>
      <trkpt lat="44.41138" lon="7.00287">
        <ele>2438</ele>
        <time>2024-09-13T09:15:30.000Z</time>
      </trkpt>
      <trkpt lat="44.41138" lon="7.00287">
        <ele>2438</ele>
        <time>2024-09-13T09:15:35.000Z</time>
      </trkpt>
      <trkpt lat="44.41138" lon="7.00287">
        <ele>2437.8000488281</ele>
        <time>2024-09-13T09:15:37.000Z</time>
      </trkpt>
      <trkpt lat="44.41138" lon="7.00287">
        <ele>2437.6000976562</ele>
        <time>2024-09-13T09:15:43.000Z</time>
      </trkpt>
      <trkpt lat="44.41138" lon="7.00288">
        <ele>2437.3999023438</ele>
        <time>2024-09-13T09:15:53.000Z</time>
      </trkpt>
      <trkpt lat="44.41138" lon="7.00288">
        <ele>2437.3999023438</ele>
        <time>2024-09-13T09:15:57.000Z</time>
      </trkpt>
      <trkpt lat="44.41138" lon="7.00288">
        <ele>2437.3999023438</ele>
        <time>2024-09-13T09:15:58.000Z</time>
      </trkpt>
      <trkpt lat="44.41139" lon="7.0029">
        <ele>2437.3999023438</ele>
        <time>2024-09-13T09:15:59.000Z</time>
      </trkpt>
      <trkpt lat="44.4114" lon="7.00293">
        <ele>2437.3999023438</ele>
        <time>2024-09-13T09:16:00.000Z</time>
      </trkpt>
      <trkpt lat="44.41142" lon="7.00297">
        <ele>2437.3999023438</ele>
        <time>2024-09-13T09:16:01.000Z</time>
      </trkpt>
      <trkpt lat="44.41144" lon="7.003">
        <ele>2437.3999023438</ele>
        <time>2024-09-13T09:16:02.000Z</time>
      </trkpt>
      <trkpt lat="44.41151" lon="7.00314">
        <ele>2435.8000488281</ele>
        <time>2024-09-13T09:16:05.000Z</time>
      </trkpt>
      <trkpt lat="44.41154" lon="7.00327">
        <ele>2434.6000976562</ele>
        <time>2024-09-13T09:16:07.000Z</time>
      </trkpt>
      <trkpt lat="44.41154" lon="7.00334">
        <ele>2434</ele>
        <time>2024-09-13T09:16:08.000Z</time>
      </trkpt>
      <trkpt lat="44.41154" lon="7.00344">
        <ele>2433.6000976562</ele>
        <time>2024-09-13T09:16:09.000Z</time>
      </trkpt>
      <trkpt lat="44.41155" lon="7.00363">
        <ele>2432</ele>
        <time>2024-09-13T09:16:11.000Z</time>
      </trkpt>
      <trkpt lat="44.41156" lon="7.00371">
        <ele>2429.6000976562</ele>
        <time>2024-09-13T09:16:12.000Z</time>
      </trkpt>
      <trkpt lat="44.41158" lon="7.00378">
        <ele>2428.1999511719</ele>
        <time>2024-09-13T09:16:13.000Z</time>
      </trkpt>
      <trkpt lat="44.41157" lon="7.00386">
        <ele>2428</ele>
        <time>2024-09-13T09:16:14.000Z</time>
      </trkpt>
      <trkpt lat="44.41155" lon="7.00392">
        <ele>2427.3999023438</ele>
        <time>2024-09-13T09:16:15.000Z</time>
      </trkpt>
      <trkpt lat="44.41152" lon="7.00398">
        <ele>2427</ele>
        <time>2024-09-13T09:16:16.000Z</time>
      </trkpt>
      <trkpt lat="44.41149" lon="7.00403">
        <ele>2426.3999023438</ele>
        <time>2024-09-13T09:16:17.000Z</time>
      </trkpt>
      <trkpt lat="44.41148" lon="7.00408">
        <ele>2425.8000488281</ele>
        <time>2024-09-13T09:16:18.000Z</time>
      </trkpt>
      <trkpt lat="44.41147" lon="7.00411">
        <ele>2425.6000976562</ele>
        <time>2024-09-13T09:16:19.000Z</time>
      </trkpt>
      <trkpt lat="44.41144" lon="7.00432">
        <ele>2424.3999023438</ele>
        <time>2024-09-13T09:16:23.000Z</time>
      </trkpt>
      <trkpt lat="44.41144" lon="7.00438">
        <ele>2424</ele>
        <time>2024-09-13T09:16:24.000Z</time>
      </trkpt>
      <trkpt lat="44.41145" lon="7.00445">
        <ele>2423.1999511719</ele>
        <time>2024-09-13T09:16:25.000Z</time>
      </trkpt>
      <trkpt lat="44.41147" lon="7.00451">
        <ele>2422.6000976562</ele>
        <time>2024-09-13T09:16:26.000Z</time>
      </trkpt>
      <trkpt lat="44.41148" lon="7.00457">
        <ele>2422.1999511719</ele>
        <time>2024-09-13T09:16:27.000Z</time>
      </trkpt>
      <trkpt lat="44.41149" lon="7.00463">
        <ele>2422</ele>
        <time>2024-09-13T09:16:28.000Z</time>
      </trkpt>
      <trkpt lat="44.41149" lon="7.00468">
        <ele>2421.3999023438</ele>
        <time>2024-09-13T09:16:29.000Z</time>
      </trkpt>
      <trkpt lat="44.41148" lon="7.00474">
        <ele>2421.1999511719</ele>
        <time>2024-09-13T09:16:30.000Z</time>
      </trkpt>
      <trkpt lat="44.41146" lon="7.00479">
        <ele>2421</ele>
        <time>2024-09-13T09:16:31.000Z</time>
      </trkpt>
      <trkpt lat="44.41143" lon="7.00484">
        <ele>2420.6000976562</ele>
        <time>2024-09-13T09:16:32.000Z</time>
      </trkpt>
      <trkpt lat="44.41141" lon="7.00487">
        <ele>2420</ele>
        <time>2024-09-13T09:16:33.000Z</time>
      </trkpt>
      <trkpt lat="44.41137" lon="7.0049">
        <ele>2419.1999511719</ele>
        <time>2024-09-13T09:16:34.000Z</time>
      </trkpt>
      <trkpt lat="44.41134" lon="7.00491">
        <ele>2418.8000488281</ele>
        <time>2024-09-13T09:16:35.000Z</time>
      </trkpt>
      <trkpt lat="44.41131" lon="7.00489">
        <ele>2418</ele>
        <time>2024-09-13T09:16:36.000Z</time>
      </trkpt>
      <trkpt lat="44.41129" lon="7.00487">
        <ele>2417.3999023438</ele>
        <time>2024-09-13T09:16:37.000Z</time>
      </trkpt>
      <trkpt lat="44.41129" lon="7.00487">
        <ele>2416.1999511719</ele>
        <time>2024-09-13T09:16:38.000Z</time>
      </trkpt>
      <trkpt lat="44.41129" lon="7.00487">
        <ele>2416</ele>
        <time>2024-09-13T09:16:39.000Z</time>
      </trkpt>
      <trkpt lat="44.41129" lon="7.00488">
        <ele>2415.6000976562</ele>
        <time>2024-09-13T09:16:40.000Z</time>
      </trkpt>
      <trkpt lat="44.41129" lon="7.00488">
        <ele>2415.6000976562</ele>
        <time>2024-09-13T09:16:41.000Z</time>
      </trkpt>
      <trkpt lat="44.41129" lon="7.00488">
        <ele>2415.6000976562</ele>
        <time>2024-09-13T09:16:43.000Z</time>
      </trkpt>
      <trkpt lat="44.4113" lon="7.00489">
        <ele>2415.6000976562</ele>
        <time>2024-09-13T09:16:46.000Z</time>
      </trkpt>
      <trkpt lat="44.4113" lon="7.00489">
        <ele>2415.6000976562</ele>
        <time>2024-09-13T09:16:47.000Z</time>
      </trkpt>
      <trkpt lat="44.4113" lon="7.00491">
        <ele>2415.3999023438</ele>
        <time>2024-09-13T09:16:49.000Z</time>
      </trkpt>
      <trkpt lat="44.41132" lon="7.00499">
        <ele>2415.3999023438</ele>
        <time>2024-09-13T09:16:52.000Z</time>
      </trkpt>
      <trkpt lat="44.41133" lon="7.00502">
        <ele>2415.3999023438</ele>
        <time>2024-09-13T09:16:53.000Z</time>
      </trkpt>
      <trkpt lat="44.41134" lon="7.00505">
        <ele>2415.1999511719</ele>
        <time>2024-09-13T09:16:54.000Z</time>
      </trkpt>
      <trkpt lat="44.41134" lon="7.00509">
        <ele>2414.8000488281</ele>
        <time>2024-09-13T09:16:55.000Z</time>
      </trkpt>
      <trkpt lat="44.41135" lon="7.00524">
        <ele>2413.8000488281</ele>
        <time>2024-09-13T09:16:58.000Z</time>
      </trkpt>
      <trkpt lat="44.41134" lon="7.00528">
        <ele>2413.1999511719</ele>
        <time>2024-09-13T09:16:59.000Z</time>
      </trkpt>
      <trkpt lat="44.41135" lon="7.00532">
        <ele>2411.8000488281</ele>
        <time>2024-09-13T09:17:00.000Z</time>
      </trkpt>
      <trkpt lat="44.41138" lon="7.00541">
        <ele>2410.3999023438</ele>
        <time>2024-09-13T09:17:02.000Z</time>
      </trkpt>
      <trkpt lat="44.41138" lon="7.00545">
        <ele>2409.3999023438</ele>
        <time>2024-09-13T09:17:03.000Z</time>
      </trkpt>
      <trkpt lat="44.41139" lon="7.0055">
        <ele>2408.8000488281</ele>
        <time>2024-09-13T09:17:04.000Z</time>
      </trkpt>
      <trkpt lat="44.41145" lon="7.00558">
        <ele>2408.1999511719</ele>
        <time>2024-09-13T09:17:06.000Z</time>
      </trkpt>
      <trkpt lat="44.41147" lon="7.00563">
        <ele>2406.3999023438</ele>
        <time>2024-09-13T09:17:07.000Z</time>
      </trkpt>
      <trkpt lat="44.41148" lon="7.00567">
        <ele>2406</ele>
        <time>2024-09-13T09:17:08.000Z</time>
      </trkpt>
      <trkpt lat="44.41149" lon="7.00572">
        <ele>2405.3999023438</ele>
        <time>2024-09-13T09:17:09.000Z</time>
      </trkpt>
      <trkpt lat="44.41148" lon="7.00577">
        <ele>2405.3999023438</ele>
        <time>2024-09-13T09:17:10.000Z</time>
      </trkpt>
      <trkpt lat="44.41147" lon="7.00584">
        <ele>2405</ele>
        <time>2024-09-13T09:17:11.000Z</time>
      </trkpt>
      <trkpt lat="44.41144" lon="7.00602">
        <ele>2404</ele>
        <time>2024-09-13T09:17:13.000Z</time>
      </trkpt>
      <trkpt lat="44.41144" lon="7.0061">
        <ele>2402.6000976562</ele>
        <time>2024-09-13T09:17:14.000Z</time>
      </trkpt>
      <trkpt lat="44.41144" lon="7.00619">
        <ele>2402.1999511719</ele>
        <time>2024-09-13T09:17:15.000Z</time>
      </trkpt>
      <trkpt lat="44.41144" lon="7.00627">
        <ele>2401.3999023438</ele>
        <time>2024-09-13T09:17:16.000Z</time>
      </trkpt>
      <trkpt lat="44.41144" lon="7.00635">
        <ele>2401.1999511719</ele>
        <time>2024-09-13T09:17:17.000Z</time>
      </trkpt>
      <trkpt lat="44.41143" lon="7.00642">
        <ele>2401.1999511719</ele>
        <time>2024-09-13T09:17:18.000Z</time>
      </trkpt>
      <trkpt lat="44.41143" lon="7.00649">
        <ele>2401.1999511719</ele>
        <time>2024-09-13T09:17:19.000Z</time>
      </trkpt>
      <trkpt lat="44.41142" lon="7.00656">
        <ele>2401.1999511719</ele>
        <time>2024-09-13T09:17:20.000Z</time>
      </trkpt>
      <trkpt lat="44.41142" lon="7.00663">
        <ele>2401.1999511719</ele>
        <time>2024-09-13T09:17:21.000Z</time>
      </trkpt>
      <trkpt lat="44.41141" lon="7.00668">
        <ele>2401.1999511719</ele>
        <time>2024-09-13T09:17:22.000Z</time>
      </trkpt>
      <trkpt lat="44.4114" lon="7.00672">
        <ele>2401.1999511719</ele>
        <time>2024-09-13T09:17:23.000Z</time>
      </trkpt>
      <trkpt lat="44.4114" lon="7.00673">
        <ele>2401.1999511719</ele>
        <time>2024-09-13T09:17:24.000Z</time>
      </trkpt>
      <trkpt lat="44.4114" lon="7.00674">
        <ele>2401</ele>
        <time>2024-09-13T09:17:26.000Z</time>
      </trkpt>
      <trkpt lat="44.4114" lon="7.00672">
        <ele>2401</ele>
        <time>2024-09-13T09:17:27.000Z</time>
      </trkpt>
      <trkpt lat="44.4114" lon="7.00672">
        <ele>2401</ele>
        <time>2024-09-13T09:17:28.000Z</time>
      </trkpt>
      <trkpt lat="44.41139" lon="7.00673">
        <ele>2401</ele>
        <time>2024-09-13T09:17:39.000Z</time>
      </trkpt>
      <trkpt lat="44.41139" lon="7.00673">
        <ele>2400.8000488281</ele>
        <time>2024-09-13T09:17:40.000Z</time>
      </trkpt>
      <trkpt lat="44.4114" lon="7.00673">
        <ele>2400.6000976562</ele>
        <time>2024-09-13T09:17:44.000Z</time>
      </trkpt>
      <trkpt lat="44.41139" lon="7.00673">
        <ele>2400.3999023438</ele>
        <time>2024-09-13T09:17:47.000Z</time>
      </trkpt>
      <trkpt lat="44.41137" lon="7.00676">
        <ele>2400.3999023438</ele>
        <time>2024-09-13T09:17:49.000Z</time>
      </trkpt>
      <trkpt lat="44.41136" lon="7.00679">
        <ele>2400.1999511719</ele>
        <time>2024-09-13T09:17:50.000Z</time>
      </trkpt>
      <trkpt lat="44.41133" lon="7.00696">
        <ele>2399.3999023438</ele>
        <time>2024-09-13T09:17:54.000Z</time>
      </trkpt>
      <trkpt lat="44.41133" lon="7.00708">
        <ele>2398</ele>
        <time>2024-09-13T09:17:56.000Z</time>
      </trkpt>
      <trkpt lat="44.41135" lon="7.00713">
        <ele>2397.6000976562</ele>
        <time>2024-09-13T09:17:57.000Z</time>
      </trkpt>
      <trkpt lat="44.41136" lon="7.00718">
        <ele>2397</ele>
        <time>2024-09-13T09:17:58.000Z</time>
      </trkpt>
      <trkpt lat="44.41134" lon="7.00724">
        <ele>2396.3999023438</ele>
        <time>2024-09-13T09:17:59.000Z</time>
      </trkpt>
      <trkpt lat="44.41133" lon="7.00729">
        <ele>2395.3999023438</ele>
        <time>2024-09-13T09:18:00.000Z</time>
      </trkpt>
      <trkpt lat="44.41133" lon="7.00735">
        <ele>2394.8000488281</ele>
        <time>2024-09-13T09:18:01.000Z</time>
      </trkpt>
      <trkpt lat="44.41131" lon="7.00741">
        <ele>2394.3999023438</ele>
        <time>2024-09-13T09:18:02.000Z</time>
      </trkpt>
      <trkpt lat="44.4113" lon="7.00748">
        <ele>2393.8000488281</ele>
        <time>2024-09-13T09:18:03.000Z</time>
      </trkpt>
      <trkpt lat="44.41127" lon="7.00755">
        <ele>2393</ele>
        <time>2024-09-13T09:18:04.000Z</time>
      </trkpt>
      <trkpt lat="44.41127" lon="7.00763">
        <ele>2391.1999511719</ele>
        <time>2024-09-13T09:18:05.000Z</time>
      </trkpt>
      <trkpt lat="44.41125" lon="7.0078">
        <ele>2389</ele>
        <time>2024-09-13T09:18:07.000Z</time>
      </trkpt>
      <trkpt lat="44.4112" lon="7.00785">
        <ele>2388</ele>
        <time>2024-09-13T09:18:08.000Z</time>
      </trkpt>
      <trkpt lat="44.41117" lon="7.00792">
        <ele>2386.1999511719</ele>
        <time>2024-09-13T09:18:09.000Z</time>
      </trkpt>
      <trkpt lat="44.41117" lon="7.008">
        <ele>2385.8000488281</ele>
        <time>2024-09-13T09:18:10.000Z</time>
      </trkpt>
      <trkpt lat="44.41116" lon="7.00807">
        <ele>2384.8000488281</ele>
        <time>2024-09-13T09:18:11.000Z</time>
      </trkpt>
      <trkpt lat="44.41116" lon="7.00813">
        <ele>2384.6000976562</ele>
        <time>2024-09-13T09:18:12.000Z</time>
      </trkpt>
      <trkpt lat="44.41115" lon="7.0082">
        <ele>2384.3999023438</ele>
        <time>2024-09-13T09:18:13.000Z</time>
      </trkpt>
      <trkpt lat="44.41113" lon="7.00826">
        <ele>2384.1999511719</ele>
        <time>2024-09-13T09:18:14.000Z</time>
      </trkpt>
      <trkpt lat="44.41113" lon="7.00832">
        <ele>2384</ele>
        <time>2024-09-13T09:18:15.000Z</time>
      </trkpt>
      <trkpt lat="44.4111" lon="7.00836">
        <ele>2383.6000976562</ele>
        <time>2024-09-13T09:18:16.000Z</time>
      </trkpt>
      <trkpt lat="44.41107" lon="7.00837">
        <ele>2383.1999511719</ele>
        <time>2024-09-13T09:18:17.000Z</time>
      </trkpt>
      <trkpt lat="44.411" lon="7.00849">
        <ele>2382.6000976562</ele>
        <time>2024-09-13T09:18:20.000Z</time>
      </trkpt>
      <trkpt lat="44.41097" lon="7.00854">
        <ele>2382.3999023438</ele>
        <time>2024-09-13T09:18:21.000Z</time>
      </trkpt>
      <trkpt lat="44.41093" lon="7.0086">
        <ele>2380.8000488281</ele>
        <time>2024-09-13T09:18:22.000Z</time>
      </trkpt>
      <trkpt lat="44.41092" lon="7.00865">
        <ele>2379.6000976562</ele>
        <time>2024-09-13T09:18:23.000Z</time>
      </trkpt>
      <trkpt lat="44.41089" lon="7.00872">
        <ele>2377.1999511719</ele>
        <time>2024-09-13T09:18:24.000Z</time>
      </trkpt>
      <trkpt lat="44.41086" lon="7.00878">
        <ele>2376.1999511719</ele>
        <time>2024-09-13T09:18:25.000Z</time>
      </trkpt>
      <trkpt lat="44.41083" lon="7.00883">
        <ele>2375</ele>
        <time>2024-09-13T09:18:26.000Z</time>
      </trkpt>
      <trkpt lat="44.4108" lon="7.00888">
        <ele>2373</ele>
        <time>2024-09-13T09:18:27.000Z</time>
      </trkpt>
      <trkpt lat="44.41078" lon="7.00893">
        <ele>2372</ele>
        <time>2024-09-13T09:18:28.000Z</time>
      </trkpt>
      <trkpt lat="44.41075" lon="7.00901">
        <ele>2371.3999023438</ele>
        <time>2024-09-13T09:18:29.000Z</time>
      </trkpt>
      <trkpt lat="44.41073" lon="7.00908">
        <ele>2370</ele>
        <time>2024-09-13T09:18:30.000Z</time>
      </trkpt>
      <trkpt lat="44.41064" lon="7.00923">
        <ele>2368.3999023438</ele>
        <time>2024-09-13T09:18:32.000Z</time>
      </trkpt>
      <trkpt lat="44.41059" lon="7.00929">
        <ele>2366.3999023438</ele>
        <time>2024-09-13T09:18:33.000Z</time>
      </trkpt>
      <trkpt lat="44.41054" lon="7.00935">
        <ele>2364.6000976562</ele>
        <time>2024-09-13T09:18:34.000Z</time>
      </trkpt>
      <trkpt lat="44.4105" lon="7.00939">
        <ele>2364.1999511719</ele>
        <time>2024-09-13T09:18:35.000Z</time>
      </trkpt>
      <trkpt lat="44.41046" lon="7.0094">
        <ele>2363.6000976562</ele>
        <time>2024-09-13T09:18:36.000Z</time>
      </trkpt>
      <trkpt lat="44.41042" lon="7.00941">
        <ele>2363</ele>
        <time>2024-09-13T09:18:37.000Z</time>
      </trkpt>
      <trkpt lat="44.41039" lon="7.00941">
        <ele>2362</ele>
        <time>2024-09-13T09:18:38.000Z</time>
      </trkpt>
      <trkpt lat="44.41036" lon="7.00943">
        <ele>2361.6000976562</ele>
        <time>2024-09-13T09:18:39.000Z</time>
      </trkpt>
      <trkpt lat="44.41032" lon="7.00946">
        <ele>2361</ele>
        <time>2024-09-13T09:18:40.000Z</time>
      </trkpt>
      <trkpt lat="44.41028" lon="7.0095">
        <ele>2359.6000976562</ele>
        <time>2024-09-13T09:18:41.000Z</time>
      </trkpt>
      <trkpt lat="44.41024" lon="7.00956">
        <ele>2358.6000976562</ele>
        <time>2024-09-13T09:18:42.000Z</time>
      </trkpt>
      <trkpt lat="44.41021" lon="7.0096">
        <ele>2357.3999023438</ele>
        <time>2024-09-13T09:18:43.000Z</time>
      </trkpt>
      <trkpt lat="44.41018" lon="7.00965">
        <ele>2355.8000488281</ele>
        <time>2024-09-13T09:18:44.000Z</time>
      </trkpt>
      <trkpt lat="44.41015" lon="7.0097">
        <ele>2355.1999511719</ele>
        <time>2024-09-13T09:18:45.000Z</time>
      </trkpt>
      <trkpt lat="44.41012" lon="7.00976">
        <ele>2354.8000488281</ele>
        <time>2024-09-13T09:18:46.000Z</time>
      </trkpt>
      <trkpt lat="44.41009" lon="7.00981">
        <ele>2354</ele>
        <time>2024-09-13T09:18:47.000Z</time>
      </trkpt>
      <trkpt lat="44.41004" lon="7.00985">
        <ele>2352.6000976562</ele>
        <time>2024-09-13T09:18:48.000Z</time>
      </trkpt>
      <trkpt lat="44.41" lon="7.00987">
        <ele>2352.1999511719</ele>
        <time>2024-09-13T09:18:49.000Z</time>
      </trkpt>
      <trkpt lat="44.40996" lon="7.00991">
        <ele>2351.3999023438</ele>
        <time>2024-09-13T09:18:50.000Z</time>
      </trkpt>
      <trkpt lat="44.40992" lon="7.00996">
        <ele>2350.1999511719</ele>
        <time>2024-09-13T09:18:51.000Z</time>
      </trkpt>
      <trkpt lat="44.40983" lon="7.01005">
        <ele>2348.1999511719</ele>
        <time>2024-09-13T09:18:53.000Z</time>
      </trkpt>
      <trkpt lat="44.40979" lon="7.01011">
        <ele>2347</ele>
        <time>2024-09-13T09:18:54.000Z</time>
      </trkpt>
      <trkpt lat="44.40975" lon="7.01015">
        <ele>2345.3999023438</ele>
        <time>2024-09-13T09:18:55.000Z</time>
      </trkpt>
      <trkpt lat="44.40973" lon="7.01021">
        <ele>2343.3999023438</ele>
        <time>2024-09-13T09:18:56.000Z</time>
      </trkpt>
      <trkpt lat="44.40973" lon="7.01027">
        <ele>2342.8000488281</ele>
        <time>2024-09-13T09:18:57.000Z</time>
      </trkpt>
      <trkpt lat="44.40974" lon="7.01033">
        <ele>2342</ele>
        <time>2024-09-13T09:18:58.000Z</time>
      </trkpt>
      <trkpt lat="44.40972" lon="7.01039">
        <ele>2341.1999511719</ele>
        <time>2024-09-13T09:18:59.000Z</time>
      </trkpt>
      <trkpt lat="44.4097" lon="7.01046">
        <ele>2340.8000488281</ele>
        <time>2024-09-13T09:19:00.000Z</time>
      </trkpt>
      <trkpt lat="44.40969" lon="7.01053">
        <ele>2340.6000976562</ele>
        <time>2024-09-13T09:19:01.000Z</time>
      </trkpt>
      <trkpt lat="44.40964" lon="7.01067">
        <ele>2340</ele>
        <time>2024-09-13T09:19:03.000Z</time>
      </trkpt>
      <trkpt lat="44.40964" lon="7.01076">
        <ele>2339.6000976562</ele>
        <time>2024-09-13T09:19:04.000Z</time>
      </trkpt>
      <trkpt lat="44.40959" lon="7.0109">
        <ele>2338.6000976562</ele>
        <time>2024-09-13T09:19:06.000Z</time>
      </trkpt>
      <trkpt lat="44.40957" lon="7.01098">
        <ele>2338.3999023438</ele>
        <time>2024-09-13T09:19:07.000Z</time>
      </trkpt>
      <trkpt lat="44.40945" lon="7.01147">
        <ele>2337.3999023438</ele>
        <time>2024-09-13T09:19:13.000Z</time>
      </trkpt>
      <trkpt lat="44.40943" lon="7.01155">
        <ele>2337</ele>
        <time>2024-09-13T09:19:14.000Z</time>
      </trkpt>
      <trkpt lat="44.40942" lon="7.01162">
        <ele>2336.6000976562</ele>
        <time>2024-09-13T09:19:15.000Z</time>
      </trkpt>
      <trkpt lat="44.4094" lon="7.01167">
        <ele>2336.6000976562</ele>
        <time>2024-09-13T09:19:16.000Z</time>
      </trkpt>
      <trkpt lat="44.4094" lon="7.01171">
        <ele>2336.3999023438</ele>
        <time>2024-09-13T09:19:17.000Z</time>
      </trkpt>
      <trkpt lat="44.4094" lon="7.01175">
        <ele>2335.8000488281</ele>
        <time>2024-09-13T09:19:18.000Z</time>
      </trkpt>
      <trkpt lat="44.4094" lon="7.01178">
        <ele>2335.6000976562</ele>
        <time>2024-09-13T09:19:19.000Z</time>
      </trkpt>
      <trkpt lat="44.40939" lon="7.0118">
        <ele>2335.6000976562</ele>
        <time>2024-09-13T09:19:20.000Z</time>
      </trkpt>
      <trkpt lat="44.40938" lon="7.01183">
        <ele>2335.3999023438</ele>
        <time>2024-09-13T09:19:21.000Z</time>
      </trkpt>
      <trkpt lat="44.40938" lon="7.01185">
        <ele>2335.3999023438</ele>
        <time>2024-09-13T09:19:22.000Z</time>
      </trkpt>
      <trkpt lat="44.40938" lon="7.01185">
        <ele>2335.3999023438</ele>
        <time>2024-09-13T09:19:23.000Z</time>
      </trkpt>
      <trkpt lat="44.40938" lon="7.01186">
        <ele>2335.3999023438</ele>
        <time>2024-09-13T09:19:24.000Z</time>
      </trkpt>
      <trkpt lat="44.40938" lon="7.01185">
        <ele>2335.1999511719</ele>
        <time>2024-09-13T09:19:25.000Z</time>
      </trkpt>
      <trkpt lat="44.40938" lon="7.01186">
        <ele>2335.1999511719</ele>
        <time>2024-09-13T09:19:27.000Z</time>
      </trkpt>
      <trkpt lat="44.40937" lon="7.01187">
        <ele>2335.1999511719</ele>
        <time>2024-09-13T09:19:28.000Z</time>
      </trkpt>
      <trkpt lat="44.40937" lon="7.01187">
        <ele>2335.1999511719</ele>
        <time>2024-09-13T09:19:29.000Z</time>
      </trkpt>
      <trkpt lat="44.40937" lon="7.01187">
        <ele>2335.1999511719</ele>
        <time>2024-09-13T09:19:31.000Z</time>
      </trkpt>
      <trkpt lat="44.40937" lon="7.01187">
        <ele>2335.1999511719</ele>
        <time>2024-09-13T09:19:32.000Z</time>
      </trkpt>
      <trkpt lat="44.40937" lon="7.01187">
        <ele>2335.1999511719</ele>
        <time>2024-09-13T09:19:37.000Z</time>
      </trkpt>
      <trkpt lat="44.40936" lon="7.01188">
        <ele>2335.1999511719</ele>
        <time>2024-09-13T09:19:39.000Z</time>
      </trkpt>
      <trkpt lat="44.40936" lon="7.0119">
        <ele>2335.1999511719</ele>
        <time>2024-09-13T09:19:40.000Z</time>
      </trkpt>
      <trkpt lat="44.40934" lon="7.01194">
        <ele>2335</ele>
        <time>2024-09-13T09:19:42.000Z</time>
      </trkpt>
      <trkpt lat="44.4093" lon="7.01196">
        <ele>2335</ele>
        <time>2024-09-13T09:19:44.000Z</time>
      </trkpt>
      <trkpt lat="44.40928" lon="7.01196">
        <ele>2335</ele>
        <time>2024-09-13T09:19:45.000Z</time>
      </trkpt>
      <trkpt lat="44.40926" lon="7.01197">
        <ele>2335</ele>
        <time>2024-09-13T09:19:46.000Z</time>
      </trkpt>
      <trkpt lat="44.40925" lon="7.01199">
        <ele>2334.8000488281</ele>
        <time>2024-09-13T09:19:47.000Z</time>
      </trkpt>
      <trkpt lat="44.40921" lon="7.01203">
        <ele>2334.6000976562</ele>
        <time>2024-09-13T09:19:49.000Z</time>
      </trkpt>
      <trkpt lat="44.40919" lon="7.01209">
        <ele>2334.1999511719</ele>
        <time>2024-09-13T09:19:51.000Z</time>
      </trkpt>
      <trkpt lat="44.40918" lon="7.01213">
        <ele>2334.1999511719</ele>
        <time>2024-09-13T09:19:52.000Z</time>
      </trkpt>
      <trkpt lat="44.40918" lon="7.01217">
        <ele>2334</ele>
        <time>2024-09-13T09:19:53.000Z</time>
      </trkpt>
      <trkpt lat="44.40917" lon="7.0122">
        <ele>2334</ele>
        <time>2024-09-13T09:19:54.000Z</time>
      </trkpt>
      <trkpt lat="44.40917" lon="7.01222">
        <ele>2334</ele>
        <time>2024-09-13T09:19:55.000Z</time>
      </trkpt>
      <trkpt lat="44.40917" lon="7.01225">
        <ele>2333.8000488281</ele>
        <time>2024-09-13T09:19:56.000Z</time>
      </trkpt>
      <trkpt lat="44.40916" lon="7.01227">
        <ele>2333.6000976562</ele>
        <time>2024-09-13T09:19:57.000Z</time>
      </trkpt>
      <trkpt lat="44.40915" lon="7.01233">
        <ele>2333.6000976562</ele>
        <time>2024-09-13T09:19:59.000Z</time>
      </trkpt>
      <trkpt lat="44.40915" lon="7.01233">
        <ele>2333.3999023438</ele>
        <time>2024-09-13T09:20:00.000Z</time>
      </trkpt>
      <trkpt lat="44.40915" lon="7.01232">
        <ele>2333.3999023438</ele>
        <time>2024-09-13T09:20:01.000Z</time>
      </trkpt>
      <trkpt lat="44.40915" lon="7.01232">
        <ele>2333.3999023438</ele>
        <time>2024-09-13T09:20:03.000Z</time>
      </trkpt>
      <trkpt lat="44.40915" lon="7.01232">
        <ele>2333.3999023438</ele>
        <time>2024-09-13T09:20:05.000Z</time>
      </trkpt>
      <trkpt lat="44.40915" lon="7.01232">
        <ele>2333.3999023438</ele>
        <time>2024-09-13T09:20:06.000Z</time>
      </trkpt>
      <trkpt lat="44.40915" lon="7.01232">
        <ele>2333.3999023438</ele>
        <time>2024-09-13T09:20:08.000Z</time>
      </trkpt>
      <trkpt lat="44.40915" lon="7.01229">
        <ele>2333.6000976562</ele>
        <time>2024-09-13T09:20:11.000Z</time>
      </trkpt>
      <trkpt lat="44.40915" lon="7.01228">
        <ele>2333.6000976562</ele>
        <time>2024-09-13T09:20:12.000Z</time>
      </trkpt>
      <trkpt lat="44.40915" lon="7.01226">
        <ele>2333.6000976562</ele>
        <time>2024-09-13T09:20:14.000Z</time>
      </trkpt>
      <trkpt lat="44.40915" lon="7.01225">
        <ele>2333.8000488281</ele>
        <time>2024-09-13T09:20:15.000Z</time>
      </trkpt>
      <trkpt lat="44.40915" lon="7.01223">
        <ele>2333.6000976562</ele>
        <time>2024-09-13T09:20:17.000Z</time>
      </trkpt>
      <trkpt lat="44.40916" lon="7.01224">
        <ele>2333.6000976562</ele>
        <time>2024-09-13T09:20:18.000Z</time>
      </trkpt>
      <trkpt lat="44.40917" lon="7.01224">
        <ele>2333.6000976562</ele>
        <time>2024-09-13T09:20:19.000Z</time>
      </trkpt>
      <trkpt lat="44.40917" lon="7.01224">
        <ele>2333.6000976562</ele>
        <time>2024-09-13T09:20:20.000Z</time>
      </trkpt>
      <trkpt lat="44.40918" lon="7.01223">
        <ele>2333.6000976562</ele>
        <time>2024-09-13T09:20:21.000Z</time>
      </trkpt>
      <trkpt lat="44.40918" lon="7.01223">
        <ele>2333.6000976562</ele>
        <time>2024-09-13T09:20:22.000Z</time>
      </trkpt>
      <trkpt lat="44.40918" lon="7.01222">
        <ele>2333.6000976562</ele>
        <time>2024-09-13T09:20:25.000Z</time>
      </trkpt>
      <trkpt lat="44.40918" lon="7.01223">
        <ele>2334</ele>
        <time>2024-09-13T09:20:31.000Z</time>
      </trkpt>
      <trkpt lat="44.40918" lon="7.01223">
        <ele>2334</ele>
        <time>2024-09-13T09:20:32.000Z</time>
      </trkpt>
      <trkpt lat="44.40917" lon="7.01218">
        <ele>2334</ele>
        <time>2024-09-13T09:20:39.000Z</time>
      </trkpt>
      <trkpt lat="44.40917" lon="7.01216">
        <ele>2334</ele>
        <time>2024-09-13T09:20:40.000Z</time>
      </trkpt>
      <trkpt lat="44.40917" lon="7.01214">
        <ele>2334</ele>
        <time>2024-09-13T09:20:42.000Z</time>
      </trkpt>
      <trkpt lat="44.40917" lon="7.01213">
        <ele>2334</ele>
        <time>2024-09-13T09:20:43.000Z</time>
      </trkpt>
      <trkpt lat="44.40917" lon="7.01212">
        <ele>2334</ele>
        <time>2024-09-13T09:20:44.000Z</time>
      </trkpt>
      <trkpt lat="44.40917" lon="7.01213">
        <ele>2334.3999023438</ele>
        <time>2024-09-13T09:20:47.000Z</time>
      </trkpt>
      <trkpt lat="44.40918" lon="7.01218">
        <ele>2334.6000976562</ele>
        <time>2024-09-13T09:20:50.000Z</time>
      </trkpt>
      <trkpt lat="44.40918" lon="7.01219">
        <ele>2334.6000976562</ele>
        <time>2024-09-13T09:20:51.000Z</time>
      </trkpt>
      <trkpt lat="44.40918" lon="7.0122">
        <ele>2334.8000488281</ele>
        <time>2024-09-13T09:20:52.000Z</time>
      </trkpt>
      <trkpt lat="44.40919" lon="7.01221">
        <ele>2334.8000488281</ele>
        <time>2024-09-13T09:20:53.000Z</time>
      </trkpt>
      <trkpt lat="44.40919" lon="7.01222">
        <ele>2334.8000488281</ele>
        <time>2024-09-13T09:20:54.000Z</time>
      </trkpt>
      <trkpt lat="44.40919" lon="7.01222">
        <ele>2334.8000488281</ele>
        <time>2024-09-13T09:20:55.000Z</time>
      </trkpt>
      <trkpt lat="44.4092" lon="7.01222">
        <ele>2335</ele>
        <time>2024-09-13T09:20:56.000Z</time>
      </trkpt>
      <trkpt lat="44.40919" lon="7.01223">
        <ele>2335</ele>
        <time>2024-09-13T09:20:58.000Z</time>
      </trkpt>
      <trkpt lat="44.40918" lon="7.01225">
        <ele>2334.6000976562</ele>
        <time>2024-09-13T09:21:04.000Z</time>
      </trkpt>
      <trkpt lat="44.40918" lon="7.01225">
        <ele>2334.6000976562</ele>
        <time>2024-09-13T09:21:05.000Z</time>
      </trkpt>
      <trkpt lat="44.40917" lon="7.01224">
        <ele>2334.8000488281</ele>
        <time>2024-09-13T09:21:11.000Z</time>
      </trkpt>
      <trkpt lat="44.40917" lon="7.01224">
        <ele>2334.8000488281</ele>
        <time>2024-09-13T09:21:12.000Z</time>
      </trkpt>
      <trkpt lat="44.40917" lon="7.01224">
        <ele>2334.8000488281</ele>
        <time>2024-09-13T09:21:13.000Z</time>
      </trkpt>
      <trkpt lat="44.40917" lon="7.01224">
        <ele>2334.6000976562</ele>
        <time>2024-09-13T09:21:14.000Z</time>
      </trkpt>
      <trkpt lat="44.40917" lon="7.01222">
        <ele>2334.6000976562</ele>
        <time>2024-09-13T09:21:15.000Z</time>
      </trkpt>
      <trkpt lat="44.40917" lon="7.01222">
        <ele>2334.6000976562</ele>
        <time>2024-09-13T09:21:16.000Z</time>
      </trkpt>
      <trkpt lat="44.40917" lon="7.01222">
        <ele>2334.6000976562</ele>
        <time>2024-09-13T09:21:17.000Z</time>
      </trkpt>
      <trkpt lat="44.40915" lon="7.01223">
        <ele>2334.3999023438</ele>
        <time>2024-09-13T09:21:21.000Z</time>
      </trkpt>
      <trkpt lat="44.40915" lon="7.01223">
        <ele>2334.3999023438</ele>
        <time>2024-09-13T09:21:22.000Z</time>
      </trkpt>
      <trkpt lat="44.40914" lon="7.01224">
        <ele>2334.1999511719</ele>
        <time>2024-09-13T09:21:23.000Z</time>
      </trkpt>
      <trkpt lat="44.40914" lon="7.01225">
        <ele>2334</ele>
        <time>2024-09-13T09:21:24.000Z</time>
      </trkpt>
      <trkpt lat="44.40914" lon="7.01224">
        <ele>2333.8000488281</ele>
        <time>2024-09-13T09:21:25.000Z</time>
      </trkpt>
      <trkpt lat="44.40914" lon="7.01224">
        <ele>2333.6000976562</ele>
        <time>2024-09-13T09:21:26.000Z</time>
      </trkpt>
      <trkpt lat="44.40914" lon="7.01224">
        <ele>2333.6000976562</ele>
        <time>2024-09-13T09:21:37.000Z</time>
      </trkpt>
      <trkpt lat="44.40914" lon="7.01225">
        <ele>2333.6000976562</ele>
        <time>2024-09-13T09:21:38.000Z</time>
      </trkpt>
      <trkpt lat="44.40914" lon="7.01225">
        <ele>2333.6000976562</ele>
        <time>2024-09-13T09:21:41.000Z</time>
      </trkpt>
      <trkpt lat="44.40914" lon="7.01224">
        <ele>2333.6000976562</ele>
        <time>2024-09-13T09:21:42.000Z</time>
      </trkpt>
      <trkpt lat="44.40915" lon="7.01225">
        <ele>2333.6000976562</ele>
        <time>2024-09-13T09:21:48.000Z</time>
      </trkpt>
      <trkpt lat="44.40915" lon="7.01225">
        <ele>2333.6000976562</ele>
        <time>2024-09-13T09:21:49.000Z</time>
      </trkpt>
      <trkpt lat="44.40915" lon="7.01225">
        <ele>2333.6000976562</ele>
        <time>2024-09-13T09:21:50.000Z</time>
      </trkpt>
      <trkpt lat="44.40915" lon="7.01225">
        <ele>2333.6000976562</ele>
        <time>2024-09-13T09:21:51.000Z</time>
      </trkpt>
      <trkpt lat="44.40915" lon="7.01225">
        <ele>2333.6000976562</ele>
        <time>2024-09-13T09:21:54.000Z</time>
      </trkpt>
      <trkpt lat="44.40915" lon="7.01225">
        <ele>2333.6000976562</ele>
        <time>2024-09-13T09:21:55.000Z</time>
      </trkpt>
      <trkpt lat="44.40915" lon="7.01226">
        <ele>2333.6000976562</ele>
        <time>2024-09-13T09:21:56.000Z</time>
      </trkpt>
      <trkpt lat="44.40915" lon="7.01225">
        <ele>2333.6000976562</ele>
        <time>2024-09-13T09:21:57.000Z</time>
      </trkpt>
      <trkpt lat="44.40914" lon="7.01226">
        <ele>2333.6000976562</ele>
        <time>2024-09-13T09:21:58.000Z</time>
      </trkpt>
      <trkpt lat="44.40914" lon="7.01226">
        <ele>2333.6000976562</ele>
        <time>2024-09-13T09:22:01.000Z</time>
      </trkpt>
      <trkpt lat="44.40914" lon="7.01227">
        <ele>2333.6000976562</ele>
        <time>2024-09-13T09:22:08.000Z</time>
      </trkpt>
      <trkpt lat="44.40914" lon="7.01226">
        <ele>2333.6000976562</ele>
        <time>2024-09-13T09:22:13.000Z</time>
      </trkpt>
      <trkpt lat="44.40915" lon="7.01225">
        <ele>2333.6000976562</ele>
        <time>2024-09-13T09:22:15.000Z</time>
      </trkpt>
      <trkpt lat="44.40914" lon="7.01227">
        <ele>2333.6000976562</ele>
        <time>2024-09-13T09:22:17.000Z</time>
      </trkpt>
      <trkpt lat="44.40914" lon="7.01227">
        <ele>2333.6000976562</ele>
        <time>2024-09-13T09:22:22.000Z</time>
      </trkpt>
      <trkpt lat="44.40914" lon="7.01227">
        <ele>2333.6000976562</ele>
        <time>2024-09-13T09:22:27.000Z</time>
      </trkpt>
      <trkpt lat="44.40914" lon="7.01227">
        <ele>2333.6000976562</ele>
        <time>2024-09-13T09:22:28.000Z</time>
      </trkpt>
      <trkpt lat="44.40914" lon="7.01227">
        <ele>2333.6000976562</ele>
        <time>2024-09-13T09:22:33.000Z</time>
      </trkpt>
      <trkpt lat="44.40914" lon="7.01227">
        <ele>2333.6000976562</ele>
        <time>2024-09-13T09:22:40.000Z</time>
      </trkpt>
      <trkpt lat="44.40914" lon="7.01226">
        <ele>2333.6000976562</ele>
        <time>2024-09-13T09:22:42.000Z</time>
      </trkpt>
      <trkpt lat="44.40914" lon="7.01226">
        <ele>2333.6000976562</ele>
        <time>2024-09-13T09:22:50.000Z</time>
      </trkpt>
      <trkpt lat="44.40915" lon="7.01227">
        <ele>2333.6000976562</ele>
        <time>2024-09-13T09:22:59.000Z</time>
      </trkpt>
      <trkpt lat="44.40914" lon="7.01227">
        <ele>2333.6000976562</ele>
        <time>2024-09-13T09:23:06.000Z</time>
      </trkpt>
      <trkpt lat="44.40914" lon="7.01227">
        <ele>2333.6000976562</ele>
        <time>2024-09-13T09:23:15.000Z</time>
      </trkpt>
      <trkpt lat="44.40914" lon="7.01227">
        <ele>2333.6000976562</ele>
        <time>2024-09-13T09:23:23.000Z</time>
      </trkpt>
      <trkpt lat="44.40914" lon="7.01227">
        <ele>2333.6000976562</ele>
        <time>2024-09-13T09:23:29.000Z</time>
      </trkpt>
      <trkpt lat="44.40914" lon="7.01227">
        <ele>2333.6000976562</ele>
        <time>2024-09-13T09:23:32.000Z</time>
      </trkpt>
      <trkpt lat="44.40914" lon="7.01227">
        <ele>2333.6000976562</ele>
        <time>2024-09-13T09:23:35.000Z</time>
      </trkpt>
      <trkpt lat="44.40914" lon="7.01227">
        <ele>2333.6000976562</ele>
        <time>2024-09-13T09:23:38.000Z</time>
      </trkpt>
      <trkpt lat="44.40914" lon="7.01227">
        <ele>2333.6000976562</ele>
        <time>2024-09-13T09:23:51.000Z</time>
      </trkpt>
      <trkpt lat="44.40914" lon="7.01227">
        <ele>2333.6000976562</ele>
        <time>2024-09-13T09:24:02.000Z</time>
      </trkpt>
      <trkpt lat="44.40914" lon="7.01227">
        <ele>2333.6000976562</ele>
        <time>2024-09-13T09:24:06.000Z</time>
      </trkpt>
      <trkpt lat="44.40914" lon="7.01227">
        <ele>2333.6000976562</ele>
        <time>2024-09-13T09:24:09.000Z</time>
      </trkpt>
      <trkpt lat="44.40914" lon="7.01227">
        <ele>2333.6000976562</ele>
        <time>2024-09-13T09:24:11.000Z</time>
      </trkpt>
      <trkpt lat="44.40914" lon="7.01227">
        <ele>2333.6000976562</ele>
        <time>2024-09-13T09:24:15.000Z</time>
      </trkpt>
      <trkpt lat="44.40914" lon="7.01227">
        <ele>2333.6000976562</ele>
        <time>2024-09-13T09:24:22.000Z</time>
      </trkpt>
      <trkpt lat="44.40914" lon="7.01227">
        <ele>2333.6000976562</ele>
        <time>2024-09-13T09:24:32.000Z</time>
      </trkpt>
      <trkpt lat="44.40914" lon="7.01225">
        <ele>2333.6000976562</ele>
        <time>2024-09-13T09:24:34.000Z</time>
      </trkpt>
      <trkpt lat="44.40914" lon="7.01227">
        <ele>2333.6000976562</ele>
        <time>2024-09-13T09:24:37.000Z</time>
      </trkpt>
      <trkpt lat="44.40914" lon="7.01227">
        <ele>2333.6000976562</ele>
        <time>2024-09-13T09:24:41.000Z</time>
      </trkpt>
      <trkpt lat="44.40914" lon="7.01227">
        <ele>2333.6000976562</ele>
        <time>2024-09-13T09:24:46.000Z</time>
      </trkpt>
      <trkpt lat="44.40914" lon="7.01225">
        <ele>2333.6000976562</ele>
        <time>2024-09-13T09:24:53.000Z</time>
      </trkpt>
      <trkpt lat="44.40915" lon="7.01225">
        <ele>2333.6000976562</ele>
        <time>2024-09-13T09:25:05.000Z</time>
      </trkpt>
      <trkpt lat="44.40915" lon="7.01225">
        <ele>2333.6000976562</ele>
        <time>2024-09-13T09:25:12.000Z</time>
      </trkpt>
      <trkpt lat="44.40915" lon="7.01225">
        <ele>2333.6000976562</ele>
        <time>2024-09-13T09:25:23.000Z</time>
      </trkpt>
      <trkpt lat="44.40914" lon="7.01226">
        <ele>2333.6000976562</ele>
        <time>2024-09-13T09:25:24.000Z</time>
      </trkpt>
      <trkpt lat="44.40915" lon="7.01225">
        <ele>2333.6000976562</ele>
        <time>2024-09-13T09:25:25.000Z</time>
      </trkpt>
      <trkpt lat="44.40915" lon="7.01225">
        <ele>2333.6000976562</ele>
        <time>2024-09-13T09:25:26.000Z</time>
      </trkpt>
      <trkpt lat="44.40915" lon="7.01225">
        <ele>2333.6000976562</ele>
        <time>2024-09-13T09:25:28.000Z</time>
      </trkpt>
      <trkpt lat="44.40914" lon="7.01226">
        <ele>2333.6000976562</ele>
        <time>2024-09-13T09:25:36.000Z</time>
      </trkpt>
      <trkpt lat="44.40914" lon="7.01226">
        <ele>2333.6000976562</ele>
        <time>2024-09-13T09:25:41.000Z</time>
      </trkpt>
      <trkpt lat="44.40914" lon="7.01226">
        <ele>2333.6000976562</ele>
        <time>2024-09-13T09:25:43.000Z</time>
      </trkpt>
      <trkpt lat="44.40914" lon="7.01226">
        <ele>2333.6000976562</ele>
        <time>2024-09-13T09:25:44.000Z</time>
      </trkpt>
      <trkpt lat="44.40914" lon="7.01226">
        <ele>2333.6000976562</ele>
        <time>2024-09-13T09:25:45.000Z</time>
      </trkpt>
      <trkpt lat="44.40914" lon="7.01226">
        <ele>2333.6000976562</ele>
        <time>2024-09-13T09:25:47.000Z</time>
      </trkpt>
      <trkpt lat="44.40914" lon="7.01226">
        <ele>2333.6000976562</ele>
        <time>2024-09-13T09:26:00.000Z</time>
      </trkpt>
      <trkpt lat="44.40914" lon="7.01226">
        <ele>2333.6000976562</ele>
        <time>2024-09-13T09:26:08.000Z</time>
      </trkpt>
      <trkpt lat="44.40914" lon="7.01226">
        <ele>2333.6000976562</ele>
        <time>2024-09-13T09:26:16.000Z</time>
      </trkpt>
      <trkpt lat="44.40914" lon="7.01226">
        <ele>2333.6000976562</ele>
        <time>2024-09-13T09:26:17.000Z</time>
      </trkpt>
      <trkpt lat="44.40914" lon="7.01226">
        <ele>2333.6000976562</ele>
        <time>2024-09-13T09:26:18.000Z</time>
      </trkpt>
      <trkpt lat="44.40914" lon="7.01226">
        <ele>2333.6000976562</ele>
        <time>2024-09-13T09:26:20.000Z</time>
      </trkpt>
      <trkpt lat="44.40914" lon="7.01226">
        <ele>2333.6000976562</ele>
        <time>2024-09-13T09:26:23.000Z</time>
      </trkpt>
      <trkpt lat="44.40914" lon="7.01226">
        <ele>2333.6000976562</ele>
        <time>2024-09-13T09:26:48.000Z</time>
      </trkpt>
      <trkpt lat="44.40914" lon="7.01227">
        <ele>2333.6000976562</ele>
        <time>2024-09-13T09:26:55.000Z</time>
      </trkpt>
      <trkpt lat="44.40914" lon="7.01227">
        <ele>2333.6000976562</ele>
        <time>2024-09-13T09:27:03.000Z</time>
      </trkpt>
      <trkpt lat="44.40914" lon="7.01224">
        <ele>2333.6000976562</ele>
        <time>2024-09-13T09:27:08.000Z</time>
      </trkpt>
      <trkpt lat="44.40915" lon="7.01225">
        <ele>2333.6000976562</ele>
        <time>2024-09-13T09:27:20.000Z</time>
      </trkpt>
      <trkpt lat="44.40915" lon="7.01224">
        <ele>2333.6000976562</ele>
        <time>2024-09-13T09:27:28.000Z</time>
      </trkpt>
      <trkpt lat="44.40915" lon="7.01224">
        <ele>2333.6000976562</ele>
        <time>2024-09-13T09:27:33.000Z</time>
      </trkpt>
      <trkpt lat="44.40915" lon="7.01224">
        <ele>2333.6000976562</ele>
        <time>2024-09-13T09:27:36.000Z</time>
      </trkpt>
      <trkpt lat="44.40915" lon="7.01224">
        <ele>2333.6000976562</ele>
        <time>2024-09-13T09:27:38.000Z</time>
      </trkpt>
      <trkpt lat="44.40915" lon="7.01223">
        <ele>2333.6000976562</ele>
        <time>2024-09-13T09:27:39.000Z</time>
      </trkpt>
      <trkpt lat="44.40915" lon="7.01223">
        <ele>2333.6000976562</ele>
        <time>2024-09-13T09:27:40.000Z</time>
      </trkpt>
      <trkpt lat="44.40915" lon="7.01224">
        <ele>2333.6000976562</ele>
        <time>2024-09-13T09:27:42.000Z</time>
      </trkpt>
      <trkpt lat="44.40915" lon="7.01224">
        <ele>2333.6000976562</ele>
        <time>2024-09-13T09:27:43.000Z</time>
      </trkpt>
      <trkpt lat="44.40915" lon="7.01224">
        <ele>2333.6000976562</ele>
        <time>2024-09-13T09:27:44.000Z</time>
      </trkpt>
      <trkpt lat="44.40915" lon="7.01225">
        <ele>2333.6000976562</ele>
        <time>2024-09-13T09:27:46.000Z</time>
      </trkpt>
      <trkpt lat="44.40914" lon="7.01225">
        <ele>2333.6000976562</ele>
        <time>2024-09-13T09:27:50.000Z</time>
      </trkpt>
      <trkpt lat="44.40914" lon="7.01225">
        <ele>2333.6000976562</ele>
        <time>2024-09-13T09:27:51.000Z</time>
      </trkpt>
      <trkpt lat="44.40914" lon="7.01226">
        <ele>2333.6000976562</ele>
        <time>2024-09-13T09:28:00.000Z</time>
      </trkpt>
      <trkpt lat="44.40914" lon="7.01225">
        <ele>2333.6000976562</ele>
        <time>2024-09-13T09:28:02.000Z</time>
      </trkpt>
      <trkpt lat="44.40914" lon="7.01225">
        <ele>2333.6000976562</ele>
        <time>2024-09-13T09:28:11.000Z</time>
      </trkpt>
      <trkpt lat="44.40915" lon="7.01223">
        <ele>2333.6000976562</ele>
        <time>2024-09-13T09:28:20.000Z</time>
      </trkpt>
      <trkpt lat="44.40915" lon="7.01223">
        <ele>2333.6000976562</ele>
        <time>2024-09-13T09:28:22.000Z</time>
      </trkpt>
      <trkpt lat="44.40914" lon="7.01225">
        <ele>2333.6000976562</ele>
        <time>2024-09-13T09:28:33.000Z</time>
      </trkpt>
      <trkpt lat="44.40913" lon="7.01226">
        <ele>2333.6000976562</ele>
        <time>2024-09-13T09:28:42.000Z</time>
      </trkpt>
      <trkpt lat="44.40913" lon="7.01226">
        <ele>2333.6000976562</ele>
        <time>2024-09-13T09:28:44.000Z</time>
      </trkpt>
      <trkpt lat="44.40914" lon="7.01226">
        <ele>2333.6000976562</ele>
        <time>2024-09-13T09:28:47.000Z</time>
      </trkpt>
      <trkpt lat="44.40915" lon="7.01226">
        <ele>2333.6000976562</ele>
        <time>2024-09-13T09:28:51.000Z</time>
      </trkpt>
      <trkpt lat="44.40916" lon="7.01226">
        <ele>2333.6000976562</ele>
        <time>2024-09-13T09:28:54.000Z</time>
      </trkpt>
      <trkpt lat="44.40915" lon="7.01226">
        <ele>2333.6000976562</ele>
        <time>2024-09-13T09:29:00.000Z</time>
      </trkpt>
      <trkpt lat="44.40916" lon="7.01226">
        <ele>2333.6000976562</ele>
        <time>2024-09-13T09:29:03.000Z</time>
      </trkpt>
      <trkpt lat="44.40916" lon="7.01226">
        <ele>2333.6000976562</ele>
        <time>2024-09-13T09:29:07.000Z</time>
      </trkpt>
      <trkpt lat="44.40915" lon="7.01226">
        <ele>2333.6000976562</ele>
        <time>2024-09-13T09:29:14.000Z</time>
      </trkpt>
      <trkpt lat="44.40915" lon="7.01226">
        <ele>2333.6000976562</ele>
        <time>2024-09-13T09:29:21.000Z</time>
      </trkpt>
      <trkpt lat="44.40915" lon="7.01226">
        <ele>2333.6000976562</ele>
        <time>2024-09-13T09:29:25.000Z</time>
      </trkpt>
      <trkpt lat="44.40915" lon="7.01226">
        <ele>2333.6000976562</ele>
        <time>2024-09-13T09:29:31.000Z</time>
      </trkpt>
      <trkpt lat="44.40915" lon="7.01226">
        <ele>2333.6000976562</ele>
        <time>2024-09-13T09:29:35.000Z</time>
      </trkpt>
      <trkpt lat="44.40915" lon="7.01226">
        <ele>2333.6000976562</ele>
        <time>2024-09-13T09:29:42.000Z</time>
      </trkpt>
      <trkpt lat="44.40915" lon="7.01226">
        <ele>2333.6000976562</ele>
        <time>2024-09-13T09:29:44.000Z</time>
      </trkpt>
      <trkpt lat="44.40915" lon="7.01226">
        <ele>2333.6000976562</ele>
        <time>2024-09-13T09:29:46.000Z</time>
      </trkpt>
      <trkpt lat="44.40915" lon="7.01226">
        <ele>2333.6000976562</ele>
        <time>2024-09-13T09:29:56.000Z</time>
      </trkpt>
      <trkpt lat="44.40915" lon="7.01226">
        <ele>2333.6000976562</ele>
        <time>2024-09-13T09:30:05.000Z</time>
      </trkpt>
      <trkpt lat="44.40915" lon="7.01226">
        <ele>2333.6000976562</ele>
        <time>2024-09-13T09:30:06.000Z</time>
      </trkpt>
      <trkpt lat="44.40915" lon="7.01226">
        <ele>2333.6000976562</ele>
        <time>2024-09-13T09:30:07.000Z</time>
      </trkpt>
      <trkpt lat="44.40914" lon="7.01226">
        <ele>2333.6000976562</ele>
        <time>2024-09-13T09:30:08.000Z</time>
      </trkpt>
      <trkpt lat="44.40915" lon="7.01226">
        <ele>2333.6000976562</ele>
        <time>2024-09-13T09:30:13.000Z</time>
      </trkpt>
      <trkpt lat="44.40914" lon="7.01226">
        <ele>2333.6000976562</ele>
        <time>2024-09-13T09:30:14.000Z</time>
      </trkpt>
      <trkpt lat="44.40914" lon="7.01226">
        <ele>2333.6000976562</ele>
        <time>2024-09-13T09:30:16.000Z</time>
      </trkpt>
      <trkpt lat="44.40914" lon="7.01226">
        <ele>2333.6000976562</ele>
        <time>2024-09-13T09:30:19.000Z</time>
      </trkpt>
      <trkpt lat="44.40917" lon="7.01226">
        <ele>2333.6000976562</ele>
        <time>2024-09-13T09:30:31.000Z</time>
      </trkpt>
      <trkpt lat="44.40918" lon="7.01226">
        <ele>2333.6000976562</ele>
        <time>2024-09-13T09:30:32.000Z</time>
      </trkpt>
      <trkpt lat="44.40918" lon="7.01225">
        <ele>2333.6000976562</ele>
        <time>2024-09-13T09:30:33.000Z</time>
      </trkpt>
      <trkpt lat="44.40918" lon="7.01224">
        <ele>2333.6000976562</ele>
        <time>2024-09-13T09:30:35.000Z</time>
      </trkpt>
      <trkpt lat="44.40919" lon="7.01224">
        <ele>2333.8000488281</ele>
        <time>2024-09-13T09:30:36.000Z</time>
      </trkpt>
      <trkpt lat="44.40919" lon="7.01224">
        <ele>2333.8000488281</ele>
        <time>2024-09-13T09:30:37.000Z</time>
      </trkpt>
      <trkpt lat="44.40919" lon="7.01224">
        <ele>2334</ele>
        <time>2024-09-13T09:30:38.000Z</time>
      </trkpt>
      <trkpt lat="44.40919" lon="7.01225">
        <ele>2334</ele>
        <time>2024-09-13T09:30:39.000Z</time>
      </trkpt>
      <trkpt lat="44.40919" lon="7.01227">
        <ele>2334</ele>
        <time>2024-09-13T09:30:41.000Z</time>
      </trkpt>
      <trkpt lat="44.40919" lon="7.0123">
        <ele>2334.1999511719</ele>
        <time>2024-09-13T09:30:42.000Z</time>
      </trkpt>
      <trkpt lat="44.40919" lon="7.01232">
        <ele>2334.1999511719</ele>
        <time>2024-09-13T09:30:43.000Z</time>
      </trkpt>
      <trkpt lat="44.40919" lon="7.01234">
        <ele>2334.1999511719</ele>
        <time>2024-09-13T09:30:44.000Z</time>
      </trkpt>
      <trkpt lat="44.40919" lon="7.01235">
        <ele>2334.1999511719</ele>
        <time>2024-09-13T09:30:45.000Z</time>
      </trkpt>
      <trkpt lat="44.40919" lon="7.01235">
        <ele>2334.1999511719</ele>
        <time>2024-09-13T09:30:46.000Z</time>
      </trkpt>
      <trkpt lat="44.40919" lon="7.01235">
        <ele>2334.1999511719</ele>
        <time>2024-09-13T09:30:47.000Z</time>
      </trkpt>
      <trkpt lat="44.40918" lon="7.01234">
        <ele>2334.1999511719</ele>
        <time>2024-09-13T09:30:48.000Z</time>
      </trkpt>
      <trkpt lat="44.40916" lon="7.01231">
        <ele>2334.1999511719</ele>
        <time>2024-09-13T09:30:49.000Z</time>
      </trkpt>
      <trkpt lat="44.40915" lon="7.01229">
        <ele>2334.1999511719</ele>
        <time>2024-09-13T09:30:50.000Z</time>
      </trkpt>
      <trkpt lat="44.40913" lon="7.01223">
        <ele>2334.1999511719</ele>
        <time>2024-09-13T09:30:51.000Z</time>
      </trkpt>
      <trkpt lat="44.40913" lon="7.01234">
        <ele>2334.1999511719</ele>
        <time>2024-09-13T09:30:54.000Z</time>
      </trkpt>
      <trkpt lat="44.40912" lon="7.01235">
        <ele>2334.1999511719</ele>
        <time>2024-09-13T09:30:55.000Z</time>
      </trkpt>
      <trkpt lat="44.40911" lon="7.01232">
        <ele>2334.1999511719</ele>
        <time>2024-09-13T09:30:58.000Z</time>
      </trkpt>
      <trkpt lat="44.40911" lon="7.01231">
        <ele>2334.1999511719</ele>
        <time>2024-09-13T09:30:59.000Z</time>
      </trkpt>
      <trkpt lat="44.40913" lon="7.01237">
        <ele>2333.8000488281</ele>
        <time>2024-09-13T09:31:19.000Z</time>
      </trkpt>
      <trkpt lat="44.40914" lon="7.01237">
        <ele>2334</ele>
        <time>2024-09-13T09:31:20.000Z</time>
      </trkpt>
      <trkpt lat="44.40915" lon="7.01238">
        <ele>2334</ele>
        <time>2024-09-13T09:31:23.000Z</time>
      </trkpt>
      <trkpt lat="44.40916" lon="7.01238">
        <ele>2334</ele>
        <time>2024-09-13T09:31:24.000Z</time>
      </trkpt>
      <trkpt lat="44.40916" lon="7.01238">
        <ele>2334</ele>
        <time>2024-09-13T09:31:25.000Z</time>
      </trkpt>
      <trkpt lat="44.40916" lon="7.01238">
        <ele>2334</ele>
        <time>2024-09-13T09:31:26.000Z</time>
      </trkpt>
      <trkpt lat="44.40916" lon="7.01237">
        <ele>2333.8000488281</ele>
        <time>2024-09-13T09:31:28.000Z</time>
      </trkpt>
      <trkpt lat="44.40916" lon="7.01237">
        <ele>2333.8000488281</ele>
        <time>2024-09-13T09:31:29.000Z</time>
      </trkpt>
      <trkpt lat="44.40917" lon="7.01237">
        <ele>2333.8000488281</ele>
        <time>2024-09-13T09:31:30.000Z</time>
      </trkpt>
      <trkpt lat="44.40916" lon="7.01237">
        <ele>2333.8000488281</ele>
        <time>2024-09-13T09:31:31.000Z</time>
      </trkpt>
      <trkpt lat="44.40917" lon="7.01236">
        <ele>2333.8000488281</ele>
        <time>2024-09-13T09:31:32.000Z</time>
      </trkpt>
      <trkpt lat="44.40917" lon="7.01236">
        <ele>2333.8000488281</ele>
        <time>2024-09-13T09:31:33.000Z</time>
      </trkpt>
      <trkpt lat="44.40917" lon="7.01233">
        <ele>2333.8000488281</ele>
        <time>2024-09-13T09:31:35.000Z</time>
      </trkpt>
      <trkpt lat="44.40916" lon="7.01234">
        <ele>2333.6000976562</ele>
        <time>2024-09-13T09:31:41.000Z</time>
      </trkpt>
      <trkpt lat="44.40916" lon="7.01234">
        <ele>2333.6000976562</ele>
        <time>2024-09-13T09:31:42.000Z</time>
      </trkpt>
      <trkpt lat="44.40917" lon="7.01233">
        <ele>2333.6000976562</ele>
        <time>2024-09-13T09:31:45.000Z</time>
      </trkpt>
      <trkpt lat="44.40917" lon="7.01233">
        <ele>2333.6000976562</ele>
        <time>2024-09-13T09:31:46.000Z</time>
      </trkpt>
      <trkpt lat="44.40917" lon="7.01233">
        <ele>2333.6000976562</ele>
        <time>2024-09-13T09:31:47.000Z</time>
      </trkpt>
      <trkpt lat="44.40917" lon="7.01235">
        <ele>2333.6000976562</ele>
        <time>2024-09-13T09:31:50.000Z</time>
      </trkpt>
      <trkpt lat="44.40917" lon="7.01234">
        <ele>2333.6000976562</ele>
        <time>2024-09-13T09:31:51.000Z</time>
      </trkpt>
      <trkpt lat="44.40918" lon="7.01234">
        <ele>2333.6000976562</ele>
        <time>2024-09-13T09:31:52.000Z</time>
      </trkpt>
      <trkpt lat="44.40918" lon="7.01233">
        <ele>2333.6000976562</ele>
        <time>2024-09-13T09:31:54.000Z</time>
      </trkpt>
      <trkpt lat="44.40918" lon="7.01232">
        <ele>2333.6000976562</ele>
        <time>2024-09-13T09:31:55.000Z</time>
      </trkpt>
      <trkpt lat="44.40918" lon="7.01232">
        <ele>2333.6000976562</ele>
        <time>2024-09-13T09:31:57.000Z</time>
      </trkpt>
      <trkpt lat="44.40918" lon="7.01232">
        <ele>2333.6000976562</ele>
        <time>2024-09-13T09:31:58.000Z</time>
      </trkpt>
      <trkpt lat="44.40918" lon="7.01232">
        <ele>2333.6000976562</ele>
        <time>2024-09-13T09:32:01.000Z</time>
      </trkpt>
      <trkpt lat="44.40919" lon="7.01233">
        <ele>2333.6000976562</ele>
        <time>2024-09-13T09:32:02.000Z</time>
      </trkpt>
      <trkpt lat="44.40919" lon="7.01233">
        <ele>2333.6000976562</ele>
        <time>2024-09-13T09:32:03.000Z</time>
      </trkpt>
      <trkpt lat="44.40919" lon="7.01232">
        <ele>2333.6000976562</ele>
        <time>2024-09-13T09:32:04.000Z</time>
      </trkpt>
      <trkpt lat="44.40919" lon="7.01232">
        <ele>2333.6000976562</ele>
        <time>2024-09-13T09:32:05.000Z</time>
      </trkpt>
      <trkpt lat="44.40919" lon="7.01233">
        <ele>2333.6000976562</ele>
        <time>2024-09-13T09:32:06.000Z</time>
      </trkpt>
      <trkpt lat="44.40919" lon="7.01233">
        <ele>2333.6000976562</ele>
        <time>2024-09-13T09:32:07.000Z</time>
      </trkpt>
      <trkpt lat="44.4092" lon="7.01233">
        <ele>2333.6000976562</ele>
        <time>2024-09-13T09:32:08.000Z</time>
      </trkpt>
      <trkpt lat="44.4092" lon="7.01234">
        <ele>2333.6000976562</ele>
        <time>2024-09-13T09:32:09.000Z</time>
      </trkpt>
      <trkpt lat="44.4092" lon="7.01234">
        <ele>2333.6000976562</ele>
        <time>2024-09-13T09:32:10.000Z</time>
      </trkpt>
      <trkpt lat="44.40921" lon="7.01235">
        <ele>2333.6000976562</ele>
        <time>2024-09-13T09:32:11.000Z</time>
      </trkpt>
      <trkpt lat="44.40921" lon="7.01235">
        <ele>2333.6000976562</ele>
        <time>2024-09-13T09:32:12.000Z</time>
      </trkpt>
      <trkpt lat="44.40922" lon="7.01237">
        <ele>2333.6000976562</ele>
        <time>2024-09-13T09:32:15.000Z</time>
      </trkpt>
      <trkpt lat="44.40923" lon="7.01237">
        <ele>2333.8000488281</ele>
        <time>2024-09-13T09:32:17.000Z</time>
      </trkpt>
      <trkpt lat="44.40923" lon="7.01238">
        <ele>2333.8000488281</ele>
        <time>2024-09-13T09:32:18.000Z</time>
      </trkpt>
      <trkpt lat="44.40924" lon="7.01239">
        <ele>2333.8000488281</ele>
        <time>2024-09-13T09:32:19.000Z</time>
      </trkpt>
      <trkpt lat="44.40925" lon="7.01238">
        <ele>2333.8000488281</ele>
        <time>2024-09-13T09:32:23.000Z</time>
      </trkpt>
      <trkpt lat="44.40926" lon="7.01237">
        <ele>2333.8000488281</ele>
        <time>2024-09-13T09:32:26.000Z</time>
      </trkpt>
      <trkpt lat="44.40926" lon="7.01237">
        <ele>2333.8000488281</ele>
        <time>2024-09-13T09:32:27.000Z</time>
      </trkpt>
      <trkpt lat="44.40926" lon="7.01237">
        <ele>2333.8000488281</ele>
        <time>2024-09-13T09:32:28.000Z</time>
      </trkpt>
      <trkpt lat="44.40927" lon="7.01237">
        <ele>2333.8000488281</ele>
        <time>2024-09-13T09:32:29.000Z</time>
      </trkpt>
      <trkpt lat="44.40928" lon="7.01237">
        <ele>2333.8000488281</ele>
        <time>2024-09-13T09:32:30.000Z</time>
      </trkpt>
      <trkpt lat="44.40929" lon="7.01238">
        <ele>2333.8000488281</ele>
        <time>2024-09-13T09:32:32.000Z</time>
      </trkpt>
      <trkpt lat="44.4093" lon="7.01238">
        <ele>2333.8000488281</ele>
        <time>2024-09-13T09:32:33.000Z</time>
      </trkpt>
      <trkpt lat="44.40929" lon="7.01238">
        <ele>2334</ele>
        <time>2024-09-13T09:32:34.000Z</time>
      </trkpt>
      <trkpt lat="44.4093" lon="7.01239">
        <ele>2334</ele>
        <time>2024-09-13T09:32:36.000Z</time>
      </trkpt>
      <trkpt lat="44.4093" lon="7.0124">
        <ele>2334</ele>
        <time>2024-09-13T09:32:38.000Z</time>
      </trkpt>
      <trkpt lat="44.4093" lon="7.01238">
        <ele>2334</ele>
        <time>2024-09-13T09:32:39.000Z</time>
      </trkpt>
      <trkpt lat="44.4093" lon="7.01238">
        <ele>2334</ele>
        <time>2024-09-13T09:32:40.000Z</time>
      </trkpt>
      <trkpt lat="44.40916" lon="7.01285">
        <ele>2333.6000976562</ele>
        <time>2024-09-13T09:35:21.000Z</time>
      </trkpt>
      <trkpt lat="44.40916" lon="7.01286">
        <ele>2333.6000976562</ele>
        <time>2024-09-13T09:35:22.000Z</time>
      </trkpt>
      <trkpt lat="44.40911" lon="7.0123">
        <ele>2333.6000976562</ele>
        <time>2024-09-13T10:01:18.000Z</time>
      </trkpt>
      <trkpt lat="44.40916" lon="7.01226">
        <ele>2333.6000976562</ele>
        <time>2024-09-13T10:01:21.000Z</time>
      </trkpt>
      <trkpt lat="44.40916" lon="7.01226">
        <ele>2333.6000976562</ele>
        <time>2024-09-13T10:01:22.000Z</time>
      </trkpt>
      <trkpt lat="44.40915" lon="7.01226">
        <ele>2333.6000976562</ele>
        <time>2024-09-13T10:01:23.000Z</time>
      </trkpt>
      <trkpt lat="44.40915" lon="7.01225">
        <ele>2333.6000976562</ele>
        <time>2024-09-13T10:01:25.000Z</time>
      </trkpt>
      <trkpt lat="44.40915" lon="7.01226">
        <ele>2333.6000976562</ele>
        <time>2024-09-13T10:01:26.000Z</time>
      </trkpt>
      <trkpt lat="44.40915" lon="7.01226">
        <ele>2333.6000976562</ele>
        <time>2024-09-13T10:01:27.000Z</time>
      </trkpt>
      <trkpt lat="44.40915" lon="7.01226">
        <ele>2333.6000976562</ele>
        <time>2024-09-13T10:01:28.000Z</time>
      </trkpt>
      <trkpt lat="44.40915" lon="7.01226">
        <ele>2333.6000976562</ele>
        <time>2024-09-13T10:01:29.000Z</time>
      </trkpt>
      <trkpt lat="44.40915" lon="7.01225">
        <ele>2333.6000976562</ele>
        <time>2024-09-13T10:01:33.000Z</time>
      </trkpt>
      <trkpt lat="44.40915" lon="7.01225">
        <ele>2333.6000976562</ele>
        <time>2024-09-13T10:01:35.000Z</time>
      </trkpt>
      <trkpt lat="44.40914" lon="7.01225">
        <ele>2333.6000976562</ele>
        <time>2024-09-13T10:01:38.000Z</time>
      </trkpt>
      <trkpt lat="44.40914" lon="7.01226">
        <ele>2333.6000976562</ele>
        <time>2024-09-13T10:01:40.000Z</time>
      </trkpt>
      <trkpt lat="44.40914" lon="7.01226">
        <ele>2333.6000976562</ele>
        <time>2024-09-13T10:01:45.000Z</time>
      </trkpt>
      <trkpt lat="44.40915" lon="7.01226">
        <ele>2333.6000976562</ele>
        <time>2024-09-13T10:01:49.000Z</time>
      </trkpt>
      <trkpt lat="44.40916" lon="7.01223">
        <ele>2333.6000976562</ele>
        <time>2024-09-13T10:01:51.000Z</time>
      </trkpt>
      <trkpt lat="44.40916" lon="7.01223">
        <ele>2333.6000976562</ele>
        <time>2024-09-13T10:01:52.000Z</time>
      </trkpt>
      <trkpt lat="44.40916" lon="7.01223">
        <ele>2333.6000976562</ele>
        <time>2024-09-13T10:01:58.000Z</time>
      </trkpt>
      <trkpt lat="44.40916" lon="7.01223">
        <ele>2333.6000976562</ele>
        <time>2024-09-13T10:01:59.000Z</time>
      </trkpt>
      <trkpt lat="44.40916" lon="7.01223">
        <ele>2336.1999511719</ele>
        <time>2024-09-13T10:02:05.000Z</time>
      </trkpt>
      <trkpt lat="44.40916" lon="7.01223">
        <ele>2336.1999511719</ele>
        <time>2024-09-13T10:02:12.000Z</time>
      </trkpt>
      <trkpt lat="44.40917" lon="7.01225">
        <ele>2336.1999511719</ele>
        <time>2024-09-13T10:02:13.000Z</time>
      </trkpt>
      <trkpt lat="44.40917" lon="7.01226">
        <ele>2336.1999511719</ele>
        <time>2024-09-13T10:02:14.000Z</time>
      </trkpt>
      <trkpt lat="44.40916" lon="7.01226">
        <ele>2336.1999511719</ele>
        <time>2024-09-13T10:02:15.000Z</time>
      </trkpt>
      <trkpt lat="44.40916" lon="7.01227">
        <ele>2336.1999511719</ele>
        <time>2024-09-13T10:02:16.000Z</time>
      </trkpt>
      <trkpt lat="44.40916" lon="7.01227">
        <ele>2336.1999511719</ele>
        <time>2024-09-13T10:02:17.000Z</time>
      </trkpt>
      <trkpt lat="44.40916" lon="7.01228">
        <ele>2336.1999511719</ele>
        <time>2024-09-13T10:02:18.000Z</time>
      </trkpt>
      <trkpt lat="44.40916" lon="7.01228">
        <ele>2336.1999511719</ele>
        <time>2024-09-13T10:02:19.000Z</time>
      </trkpt>
      <trkpt lat="44.40916" lon="7.01229">
        <ele>2336.1999511719</ele>
        <time>2024-09-13T10:02:22.000Z</time>
      </trkpt>
      <trkpt lat="44.40916" lon="7.01229">
        <ele>2336.1999511719</ele>
        <time>2024-09-13T10:02:26.000Z</time>
      </trkpt>
      <trkpt lat="44.40917" lon="7.01231">
        <ele>2336.3999023438</ele>
        <time>2024-09-13T10:02:30.000Z</time>
      </trkpt>
      <trkpt lat="44.40917" lon="7.01231">
        <ele>2336.3999023438</ele>
        <time>2024-09-13T10:02:31.000Z</time>
      </trkpt>
      <trkpt lat="44.40917" lon="7.01231">
        <ele>2336.3999023438</ele>
        <time>2024-09-13T10:02:32.000Z</time>
      </trkpt>
      <trkpt lat="44.40918" lon="7.01231">
        <ele>2336.3999023438</ele>
        <time>2024-09-13T10:02:33.000Z</time>
      </trkpt>
      <trkpt lat="44.40917" lon="7.01232">
        <ele>2336.3999023438</ele>
        <time>2024-09-13T10:02:35.000Z</time>
      </trkpt>
      <trkpt lat="44.40917" lon="7.01232">
        <ele>2336.3999023438</ele>
        <time>2024-09-13T10:02:36.000Z</time>
      </trkpt>
      <trkpt lat="44.40916" lon="7.01231">
        <ele>2336.3999023438</ele>
        <time>2024-09-13T10:02:37.000Z</time>
      </trkpt>
      <trkpt lat="44.40914" lon="7.0123">
        <ele>2336.1999511719</ele>
        <time>2024-09-13T10:02:40.000Z</time>
      </trkpt>
      <trkpt lat="44.40915" lon="7.01231">
        <ele>2336</ele>
        <time>2024-09-13T10:02:44.000Z</time>
      </trkpt>
      <trkpt lat="44.40915" lon="7.01231">
        <ele>2335.8000488281</ele>
        <time>2024-09-13T10:02:45.000Z</time>
      </trkpt>
      <trkpt lat="44.40914" lon="7.01231">
        <ele>2335.8000488281</ele>
        <time>2024-09-13T10:02:47.000Z</time>
      </trkpt>
      <trkpt lat="44.40915" lon="7.01229">
        <ele>2335.8000488281</ele>
        <time>2024-09-13T10:02:49.000Z</time>
      </trkpt>
      <trkpt lat="44.40915" lon="7.01227">
        <ele>2336.1999511719</ele>
        <time>2024-09-13T10:02:51.000Z</time>
      </trkpt>
      <trkpt lat="44.40915" lon="7.01225">
        <ele>2336.1999511719</ele>
        <time>2024-09-13T10:02:52.000Z</time>
      </trkpt>
      <trkpt lat="44.40913" lon="7.01224">
        <ele>2336.1999511719</ele>
        <time>2024-09-13T10:02:53.000Z</time>
      </trkpt>
      <trkpt lat="44.40911" lon="7.01222">
        <ele>2336.1999511719</ele>
        <time>2024-09-13T10:02:55.000Z</time>
      </trkpt>
      <trkpt lat="44.40909" lon="7.01222">
        <ele>2336</ele>
        <time>2024-09-13T10:02:56.000Z</time>
      </trkpt>
      <trkpt lat="44.40908" lon="7.01222">
        <ele>2335.8000488281</ele>
        <time>2024-09-13T10:02:57.000Z</time>
      </trkpt>
      <trkpt lat="44.40907" lon="7.01224">
        <ele>2335.8000488281</ele>
        <time>2024-09-13T10:02:58.000Z</time>
      </trkpt>
      <trkpt lat="44.40906" lon="7.01228">
        <ele>2335.6000976562</ele>
        <time>2024-09-13T10:03:00.000Z</time>
      </trkpt>
      <trkpt lat="44.40906" lon="7.0123">
        <ele>2335.8000488281</ele>
        <time>2024-09-13T10:03:01.000Z</time>
      </trkpt>
      <trkpt lat="44.40906" lon="7.01233">
        <ele>2335.8000488281</ele>
        <time>2024-09-13T10:03:02.000Z</time>
      </trkpt>
      <trkpt lat="44.40906" lon="7.01237">
        <ele>2335.8000488281</ele>
        <time>2024-09-13T10:03:03.000Z</time>
      </trkpt>
      <trkpt lat="44.40903" lon="7.0124">
        <ele>2335.8000488281</ele>
        <time>2024-09-13T10:03:04.000Z</time>
      </trkpt>
      <trkpt lat="44.409" lon="7.01241">
        <ele>2335.6000976562</ele>
        <time>2024-09-13T10:03:05.000Z</time>
      </trkpt>
      <trkpt lat="44.40894" lon="7.01245">
        <ele>2335.3999023438</ele>
        <time>2024-09-13T10:03:07.000Z</time>
      </trkpt>
      <trkpt lat="44.40887" lon="7.01246">
        <ele>2335.1999511719</ele>
        <time>2024-09-13T10:03:09.000Z</time>
      </trkpt>
      <trkpt lat="44.40884" lon="7.01244">
        <ele>2334.8000488281</ele>
        <time>2024-09-13T10:03:10.000Z</time>
      </trkpt>
      <trkpt lat="44.40883" lon="7.01243">
        <ele>2334.6000976562</ele>
        <time>2024-09-13T10:03:11.000Z</time>
      </trkpt>
      <trkpt lat="44.40881" lon="7.01243">
        <ele>2333.8000488281</ele>
        <time>2024-09-13T10:03:12.000Z</time>
      </trkpt>
      <trkpt lat="44.40879" lon="7.01245">
        <ele>2333.8000488281</ele>
        <time>2024-09-13T10:03:13.000Z</time>
      </trkpt>
      <trkpt lat="44.40878" lon="7.01247">
        <ele>2333.8000488281</ele>
        <time>2024-09-13T10:03:14.000Z</time>
      </trkpt>
      <trkpt lat="44.40875" lon="7.01249">
        <ele>2333.8000488281</ele>
        <time>2024-09-13T10:03:15.000Z</time>
      </trkpt>
      <trkpt lat="44.40873" lon="7.01249">
        <ele>2333.6000976562</ele>
        <time>2024-09-13T10:03:16.000Z</time>
      </trkpt>
      <trkpt lat="44.40871" lon="7.0125">
        <ele>2333.6000976562</ele>
        <time>2024-09-13T10:03:17.000Z</time>
      </trkpt>
      <trkpt lat="44.40869" lon="7.01249">
        <ele>2333.6000976562</ele>
        <time>2024-09-13T10:03:18.000Z</time>
      </trkpt>
      <trkpt lat="44.40867" lon="7.01249">
        <ele>2333.3999023438</ele>
        <time>2024-09-13T10:03:19.000Z</time>
      </trkpt>
      <trkpt lat="44.40865" lon="7.01249">
        <ele>2333.1999511719</ele>
        <time>2024-09-13T10:03:20.000Z</time>
      </trkpt>
      <trkpt lat="44.40863" lon="7.01249">
        <ele>2333.1999511719</ele>
        <time>2024-09-13T10:03:21.000Z</time>
      </trkpt>
      <trkpt lat="44.40856" lon="7.0125">
        <ele>2333</ele>
        <time>2024-09-13T10:03:24.000Z</time>
      </trkpt>
      <trkpt lat="44.40854" lon="7.0125">
        <ele>2333</ele>
        <time>2024-09-13T10:03:25.000Z</time>
      </trkpt>
      <trkpt lat="44.40852" lon="7.0125">
        <ele>2333</ele>
        <time>2024-09-13T10:03:26.000Z</time>
      </trkpt>
      <trkpt lat="44.4085" lon="7.01249">
        <ele>2333</ele>
        <time>2024-09-13T10:03:27.000Z</time>
      </trkpt>
      <trkpt lat="44.40848" lon="7.01249">
        <ele>2333.1999511719</ele>
        <time>2024-09-13T10:03:28.000Z</time>
      </trkpt>
      <trkpt lat="44.40845" lon="7.01248">
        <ele>2333.3999023438</ele>
        <time>2024-09-13T10:03:30.000Z</time>
      </trkpt>
      <trkpt lat="44.40834" lon="7.01245">
        <ele>2334</ele>
        <time>2024-09-13T10:03:35.000Z</time>
      </trkpt>
      <trkpt lat="44.40832" lon="7.01245">
        <ele>2334.1999511719</ele>
        <time>2024-09-13T10:03:36.000Z</time>
      </trkpt>
      <trkpt lat="44.40829" lon="7.01244">
        <ele>2334.3999023438</ele>
        <time>2024-09-13T10:03:37.000Z</time>
      </trkpt>
      <trkpt lat="44.40825" lon="7.01245">
        <ele>2334.8000488281</ele>
        <time>2024-09-13T10:03:39.000Z</time>
      </trkpt>
      <trkpt lat="44.40824" lon="7.01244">
        <ele>2335</ele>
        <time>2024-09-13T10:03:40.000Z</time>
      </trkpt>
      <trkpt lat="44.40823" lon="7.01245">
        <ele>2335.6000976562</ele>
        <time>2024-09-13T10:03:41.000Z</time>
      </trkpt>
      <trkpt lat="44.40819" lon="7.01246">
        <ele>2336.1999511719</ele>
        <time>2024-09-13T10:03:43.000Z</time>
      </trkpt>
      <trkpt lat="44.40819" lon="7.01246">
        <ele>2336.1999511719</ele>
        <time>2024-09-13T10:03:44.000Z</time>
      </trkpt>
      <trkpt lat="44.40819" lon="7.01245">
        <ele>2336.3999023438</ele>
        <time>2024-09-13T10:03:46.000Z</time>
      </trkpt>
      <trkpt lat="44.4082" lon="7.01245">
        <ele>2336.3999023438</ele>
        <time>2024-09-13T10:03:48.000Z</time>
      </trkpt>
      <trkpt lat="44.4082" lon="7.01244">
        <ele>2336.3999023438</ele>
        <time>2024-09-13T10:03:49.000Z</time>
      </trkpt>
      <trkpt lat="44.40821" lon="7.01245">
        <ele>2336.3999023438</ele>
        <time>2024-09-13T10:03:55.000Z</time>
      </trkpt>
      <trkpt lat="44.40821" lon="7.01245">
        <ele>2336.3999023438</ele>
        <time>2024-09-13T10:04:00.000Z</time>
      </trkpt>
      <trkpt lat="44.40821" lon="7.01245">
        <ele>2336.3999023438</ele>
        <time>2024-09-13T10:04:01.000Z</time>
      </trkpt>
      <trkpt lat="44.40821" lon="7.01246">
        <ele>2336.3999023438</ele>
        <time>2024-09-13T10:04:02.000Z</time>
      </trkpt>
      <trkpt lat="44.4082" lon="7.01246">
        <ele>2336.3999023438</ele>
        <time>2024-09-13T10:04:05.000Z</time>
      </trkpt>
      <trkpt lat="44.4082" lon="7.01247">
        <ele>2336.3999023438</ele>
        <time>2024-09-13T10:04:06.000Z</time>
      </trkpt>
      <trkpt lat="44.40819" lon="7.01246">
        <ele>2336.3999023438</ele>
        <time>2024-09-13T10:04:07.000Z</time>
      </trkpt>
      <trkpt lat="44.40814" lon="7.01244">
        <ele>2336.6000976562</ele>
        <time>2024-09-13T10:04:09.000Z</time>
      </trkpt>
      <trkpt lat="44.40811" lon="7.01243">
        <ele>2336.6000976562</ele>
        <time>2024-09-13T10:04:10.000Z</time>
      </trkpt>
      <trkpt lat="44.40807" lon="7.01244">
        <ele>2336.6000976562</ele>
        <time>2024-09-13T10:04:11.000Z</time>
      </trkpt>
      <trkpt lat="44.40802" lon="7.01244">
        <ele>2336.3999023438</ele>
        <time>2024-09-13T10:04:12.000Z</time>
      </trkpt>
      <trkpt lat="44.40799" lon="7.01245">
        <ele>2336</ele>
        <time>2024-09-13T10:04:13.000Z</time>
      </trkpt>
      <trkpt lat="44.40795" lon="7.01245">
        <ele>2335.6000976562</ele>
        <time>2024-09-13T10:04:14.000Z</time>
      </trkpt>
      <trkpt lat="44.40788" lon="7.01241">
        <ele>2335.1999511719</ele>
        <time>2024-09-13T10:04:16.000Z</time>
      </trkpt>
      <trkpt lat="44.40785" lon="7.01239">
        <ele>2335</ele>
        <time>2024-09-13T10:04:17.000Z</time>
      </trkpt>
      <trkpt lat="44.40782" lon="7.01238">
        <ele>2335.1999511719</ele>
        <time>2024-09-13T10:04:18.000Z</time>
      </trkpt>
      <trkpt lat="44.40779" lon="7.01237">
        <ele>2335.3999023438</ele>
        <time>2024-09-13T10:04:19.000Z</time>
      </trkpt>
      <trkpt lat="44.40776" lon="7.01237">
        <ele>2335.3999023438</ele>
        <time>2024-09-13T10:04:20.000Z</time>
      </trkpt>
      <trkpt lat="44.40773" lon="7.01237">
        <ele>2335.6000976562</ele>
        <time>2024-09-13T10:04:21.000Z</time>
      </trkpt>
      <trkpt lat="44.4077" lon="7.01239">
        <ele>2335.8000488281</ele>
        <time>2024-09-13T10:04:22.000Z</time>
      </trkpt>
      <trkpt lat="44.40766" lon="7.01241">
        <ele>2336</ele>
        <time>2024-09-13T10:04:23.000Z</time>
      </trkpt>
      <trkpt lat="44.40763" lon="7.01244">
        <ele>2336</ele>
        <time>2024-09-13T10:04:24.000Z</time>
      </trkpt>
      <trkpt lat="44.4076" lon="7.01245">
        <ele>2336</ele>
        <time>2024-09-13T10:04:25.000Z</time>
      </trkpt>
      <trkpt lat="44.40758" lon="7.01247">
        <ele>2336.1999511719</ele>
        <time>2024-09-13T10:04:26.000Z</time>
      </trkpt>
      <trkpt lat="44.40756" lon="7.01249">
        <ele>2336.1999511719</ele>
        <time>2024-09-13T10:04:27.000Z</time>
      </trkpt>
      <trkpt lat="44.40754" lon="7.01251">
        <ele>2336.3999023438</ele>
        <time>2024-09-13T10:04:28.000Z</time>
      </trkpt>
      <trkpt lat="44.40751" lon="7.01252">
        <ele>2336.3999023438</ele>
        <time>2024-09-13T10:04:29.000Z</time>
      </trkpt>
      <trkpt lat="44.40749" lon="7.01254">
        <ele>2336.6000976562</ele>
        <time>2024-09-13T10:04:30.000Z</time>
      </trkpt>
      <trkpt lat="44.40744" lon="7.01257">
        <ele>2336.8000488281</ele>
        <time>2024-09-13T10:04:32.000Z</time>
      </trkpt>
      <trkpt lat="44.40742" lon="7.01259">
        <ele>2336.8000488281</ele>
        <time>2024-09-13T10:04:33.000Z</time>
      </trkpt>
      <trkpt lat="44.40741" lon="7.01261">
        <ele>2337</ele>
        <time>2024-09-13T10:04:34.000Z</time>
      </trkpt>
      <trkpt lat="44.40735" lon="7.01267">
        <ele>2337.1999511719</ele>
        <time>2024-09-13T10:04:37.000Z</time>
      </trkpt>
      <trkpt lat="44.40734" lon="7.0127">
        <ele>2337.1999511719</ele>
        <time>2024-09-13T10:04:38.000Z</time>
      </trkpt>
      <trkpt lat="44.40731" lon="7.01275">
        <ele>2337</ele>
        <time>2024-09-13T10:04:40.000Z</time>
      </trkpt>
      <trkpt lat="44.4073" lon="7.01278">
        <ele>2336.6000976562</ele>
        <time>2024-09-13T10:04:41.000Z</time>
      </trkpt>
      <trkpt lat="44.40729" lon="7.01281">
        <ele>2336.3999023438</ele>
        <time>2024-09-13T10:04:42.000Z</time>
      </trkpt>
      <trkpt lat="44.40728" lon="7.01283">
        <ele>2336</ele>
        <time>2024-09-13T10:04:43.000Z</time>
      </trkpt>
      <trkpt lat="44.40727" lon="7.01286">
        <ele>2335.8000488281</ele>
        <time>2024-09-13T10:04:44.000Z</time>
      </trkpt>
      <trkpt lat="44.40726" lon="7.01288">
        <ele>2335.8000488281</ele>
        <time>2024-09-13T10:04:45.000Z</time>
      </trkpt>
      <trkpt lat="44.40725" lon="7.0129">
        <ele>2335.6000976562</ele>
        <time>2024-09-13T10:04:46.000Z</time>
      </trkpt>
      <trkpt lat="44.40725" lon="7.01293">
        <ele>2335.3999023438</ele>
        <time>2024-09-13T10:04:47.000Z</time>
      </trkpt>
      <trkpt lat="44.40725" lon="7.01295">
        <ele>2335</ele>
        <time>2024-09-13T10:04:48.000Z</time>
      </trkpt>
      <trkpt lat="44.40725" lon="7.01295">
        <ele>2334.8000488281</ele>
        <time>2024-09-13T10:04:49.000Z</time>
      </trkpt>
      <trkpt lat="44.40725" lon="7.01295">
        <ele>2334.3999023438</ele>
        <time>2024-09-13T10:04:50.000Z</time>
      </trkpt>
      <trkpt lat="44.40725" lon="7.01295">
        <ele>2334.3999023438</ele>
        <time>2024-09-13T10:04:52.000Z</time>
      </trkpt>
      <trkpt lat="44.40725" lon="7.01295">
        <ele>2334.1999511719</ele>
        <time>2024-09-13T10:04:55.000Z</time>
      </trkpt>
      <trkpt lat="44.40725" lon="7.01295">
        <ele>2334</ele>
        <time>2024-09-13T10:05:00.000Z</time>
      </trkpt>
      <trkpt lat="44.40725" lon="7.01295">
        <ele>2334</ele>
        <time>2024-09-13T10:05:02.000Z</time>
      </trkpt>
      <trkpt lat="44.40725" lon="7.01295">
        <ele>2334.1999511719</ele>
        <time>2024-09-13T10:05:06.000Z</time>
      </trkpt>
      <trkpt lat="44.40725" lon="7.01294">
        <ele>2334</ele>
        <time>2024-09-13T10:05:16.000Z</time>
      </trkpt>
      <trkpt lat="44.40724" lon="7.01296">
        <ele>2333.8000488281</ele>
        <time>2024-09-13T10:05:24.000Z</time>
      </trkpt>
      <trkpt lat="44.40719" lon="7.01301">
        <ele>2333.6000976562</ele>
        <time>2024-09-13T10:05:27.000Z</time>
      </trkpt>
      <trkpt lat="44.40718" lon="7.01305">
        <ele>2333.6000976562</ele>
        <time>2024-09-13T10:05:28.000Z</time>
      </trkpt>
      <trkpt lat="44.40716" lon="7.01309">
        <ele>2332.8000488281</ele>
        <time>2024-09-13T10:05:29.000Z</time>
      </trkpt>
      <trkpt lat="44.40714" lon="7.01312">
        <ele>2332</ele>
        <time>2024-09-13T10:05:30.000Z</time>
      </trkpt>
      <trkpt lat="44.40712" lon="7.01316">
        <ele>2331.6000976562</ele>
        <time>2024-09-13T10:05:31.000Z</time>
      </trkpt>
      <trkpt lat="44.40708" lon="7.01328">
        <ele>2330.8000488281</ele>
        <time>2024-09-13T10:05:33.000Z</time>
      </trkpt>
      <trkpt lat="44.40707" lon="7.01335">
        <ele>2330</ele>
        <time>2024-09-13T10:05:34.000Z</time>
      </trkpt>
      <trkpt lat="44.40702" lon="7.01346">
        <ele>2328.8000488281</ele>
        <time>2024-09-13T10:05:36.000Z</time>
      </trkpt>
      <trkpt lat="44.40701" lon="7.01354">
        <ele>2327.8000488281</ele>
        <time>2024-09-13T10:05:37.000Z</time>
      </trkpt>
      <trkpt lat="44.40697" lon="7.0136">
        <ele>2327.1999511719</ele>
        <time>2024-09-13T10:05:38.000Z</time>
      </trkpt>
      <trkpt lat="44.40693" lon="7.01365">
        <ele>2326.1999511719</ele>
        <time>2024-09-13T10:05:39.000Z</time>
      </trkpt>
      <trkpt lat="44.40691" lon="7.01372">
        <ele>2324.6000976562</ele>
        <time>2024-09-13T10:05:40.000Z</time>
      </trkpt>
      <trkpt lat="44.40683" lon="7.01391">
        <ele>2323.8000488281</ele>
        <time>2024-09-13T10:05:43.000Z</time>
      </trkpt>
      <trkpt lat="44.40681" lon="7.01397">
        <ele>2322.1999511719</ele>
        <time>2024-09-13T10:05:44.000Z</time>
      </trkpt>
      <trkpt lat="44.4068" lon="7.01402">
        <ele>2320.8000488281</ele>
        <time>2024-09-13T10:05:45.000Z</time>
      </trkpt>
      <trkpt lat="44.40676" lon="7.01414">
        <ele>2319.6000976562</ele>
        <time>2024-09-13T10:05:47.000Z</time>
      </trkpt>
      <trkpt lat="44.40673" lon="7.0142">
        <ele>2319</ele>
        <time>2024-09-13T10:05:48.000Z</time>
      </trkpt>
      <trkpt lat="44.40671" lon="7.01427">
        <ele>2318</ele>
        <time>2024-09-13T10:05:49.000Z</time>
      </trkpt>
      <trkpt lat="44.4067" lon="7.01434">
        <ele>2316</ele>
        <time>2024-09-13T10:05:50.000Z</time>
      </trkpt>
      <trkpt lat="44.40669" lon="7.01442">
        <ele>2315</ele>
        <time>2024-09-13T10:05:51.000Z</time>
      </trkpt>
      <trkpt lat="44.40668" lon="7.01449">
        <ele>2313.3999023438</ele>
        <time>2024-09-13T10:05:52.000Z</time>
      </trkpt>
      <trkpt lat="44.40668" lon="7.01453">
        <ele>2311</ele>
        <time>2024-09-13T10:05:53.000Z</time>
      </trkpt>
      <trkpt lat="44.40667" lon="7.01457">
        <ele>2310.3999023438</ele>
        <time>2024-09-13T10:05:54.000Z</time>
      </trkpt>
      <trkpt lat="44.40666" lon="7.01462">
        <ele>2309.1999511719</ele>
        <time>2024-09-13T10:05:55.000Z</time>
      </trkpt>
      <trkpt lat="44.40666" lon="7.01465">
        <ele>2308.6000976562</ele>
        <time>2024-09-13T10:05:56.000Z</time>
      </trkpt>
      <trkpt lat="44.40664" lon="7.01466">
        <ele>2307.6000976562</ele>
        <time>2024-09-13T10:05:57.000Z</time>
      </trkpt>
      <trkpt lat="44.40662" lon="7.01466">
        <ele>2306.6000976562</ele>
        <time>2024-09-13T10:05:58.000Z</time>
      </trkpt>
      <trkpt lat="44.4066" lon="7.01464">
        <ele>2306.6000976562</ele>
        <time>2024-09-13T10:05:59.000Z</time>
      </trkpt>
      <trkpt lat="44.40655" lon="7.01463">
        <ele>2306.1999511719</ele>
        <time>2024-09-13T10:06:01.000Z</time>
      </trkpt>
      <trkpt lat="44.40653" lon="7.01461">
        <ele>2306</ele>
        <time>2024-09-13T10:06:02.000Z</time>
      </trkpt>
      <trkpt lat="44.40648" lon="7.01457">
        <ele>2305.6000976562</ele>
        <time>2024-09-13T10:06:04.000Z</time>
      </trkpt>
      <trkpt lat="44.4064" lon="7.01452">
        <ele>2304.6000976562</ele>
        <time>2024-09-13T10:06:07.000Z</time>
      </trkpt>
      <trkpt lat="44.40637" lon="7.01449">
        <ele>2304</ele>
        <time>2024-09-13T10:06:08.000Z</time>
      </trkpt>
      <trkpt lat="44.40621" lon="7.01438">
        <ele>2303.1999511719</ele>
        <time>2024-09-13T10:06:13.000Z</time>
      </trkpt>
      <trkpt lat="44.40618" lon="7.01436">
        <ele>2303</ele>
        <time>2024-09-13T10:06:14.000Z</time>
      </trkpt>
      <trkpt lat="44.40615" lon="7.01434">
        <ele>2303</ele>
        <time>2024-09-13T10:06:15.000Z</time>
      </trkpt>
      <trkpt lat="44.40612" lon="7.01433">
        <ele>2303</ele>
        <time>2024-09-13T10:06:16.000Z</time>
      </trkpt>
      <trkpt lat="44.40598" lon="7.01426">
        <ele>2303.1999511719</ele>
        <time>2024-09-13T10:06:20.000Z</time>
      </trkpt>
      <trkpt lat="44.40594" lon="7.01425">
        <ele>2303.1999511719</ele>
        <time>2024-09-13T10:06:21.000Z</time>
      </trkpt>
      <trkpt lat="44.40589" lon="7.01425">
        <ele>2303.1999511719</ele>
        <time>2024-09-13T10:06:22.000Z</time>
      </trkpt>
      <trkpt lat="44.40584" lon="7.01428">
        <ele>2302.8000488281</ele>
        <time>2024-09-13T10:06:23.000Z</time>
      </trkpt>
      <trkpt lat="44.4058" lon="7.01431">
        <ele>2302.6000976562</ele>
        <time>2024-09-13T10:06:24.000Z</time>
      </trkpt>
      <trkpt lat="44.40576" lon="7.01435">
        <ele>2302.1999511719</ele>
        <time>2024-09-13T10:06:25.000Z</time>
      </trkpt>
      <trkpt lat="44.40572" lon="7.0144">
        <ele>2302.1999511719</ele>
        <time>2024-09-13T10:06:26.000Z</time>
      </trkpt>
      <trkpt lat="44.40568" lon="7.01445">
        <ele>2302</ele>
        <time>2024-09-13T10:06:27.000Z</time>
      </trkpt>
      <trkpt lat="44.40553" lon="7.01465">
        <ele>2301</ele>
        <time>2024-09-13T10:06:31.000Z</time>
      </trkpt>
      <trkpt lat="44.40549" lon="7.0147">
        <ele>2300.8000488281</ele>
        <time>2024-09-13T10:06:32.000Z</time>
      </trkpt>
      <trkpt lat="44.40542" lon="7.01481">
        <ele>2300.3999023438</ele>
        <time>2024-09-13T10:06:34.000Z</time>
      </trkpt>
      <trkpt lat="44.40538" lon="7.01486">
        <ele>2299.8000488281</ele>
        <time>2024-09-13T10:06:35.000Z</time>
      </trkpt>
      <trkpt lat="44.40533" lon="7.0149">
        <ele>2299.8000488281</ele>
        <time>2024-09-13T10:06:36.000Z</time>
      </trkpt>
      <trkpt lat="44.40529" lon="7.01494">
        <ele>2299.8000488281</ele>
        <time>2024-09-13T10:06:37.000Z</time>
      </trkpt>
      <trkpt lat="44.40525" lon="7.01497">
        <ele>2299.6000976562</ele>
        <time>2024-09-13T10:06:38.000Z</time>
      </trkpt>
      <trkpt lat="44.40521" lon="7.01499">
        <ele>2299.6000976562</ele>
        <time>2024-09-13T10:06:39.000Z</time>
      </trkpt>
      <trkpt lat="44.40517" lon="7.01501">
        <ele>2299.6000976562</ele>
        <time>2024-09-13T10:06:40.000Z</time>
      </trkpt>
      <trkpt lat="44.40509" lon="7.01504">
        <ele>2299.8000488281</ele>
        <time>2024-09-13T10:06:42.000Z</time>
      </trkpt>
      <trkpt lat="44.40505" lon="7.01505">
        <ele>2299.6000976562</ele>
        <time>2024-09-13T10:06:43.000Z</time>
      </trkpt>
      <trkpt lat="44.40501" lon="7.01506">
        <ele>2299.8000488281</ele>
        <time>2024-09-13T10:06:44.000Z</time>
      </trkpt>
      <trkpt lat="44.40498" lon="7.01508">
        <ele>2299.8000488281</ele>
        <time>2024-09-13T10:06:45.000Z</time>
      </trkpt>
      <trkpt lat="44.40494" lon="7.0151">
        <ele>2299.8000488281</ele>
        <time>2024-09-13T10:06:46.000Z</time>
      </trkpt>
      <trkpt lat="44.40491" lon="7.01512">
        <ele>2299.8000488281</ele>
        <time>2024-09-13T10:06:47.000Z</time>
      </trkpt>
      <trkpt lat="44.40489" lon="7.01515">
        <ele>2300</ele>
        <time>2024-09-13T10:06:48.000Z</time>
      </trkpt>
      <trkpt lat="44.40487" lon="7.0152">
        <ele>2300</ele>
        <time>2024-09-13T10:06:49.000Z</time>
      </trkpt>
      <trkpt lat="44.40485" lon="7.01525">
        <ele>2300.1999511719</ele>
        <time>2024-09-13T10:06:50.000Z</time>
      </trkpt>
      <trkpt lat="44.40484" lon="7.0153">
        <ele>2300.1999511719</ele>
        <time>2024-09-13T10:06:51.000Z</time>
      </trkpt>
      <trkpt lat="44.40483" lon="7.01535">
        <ele>2300.1999511719</ele>
        <time>2024-09-13T10:06:52.000Z</time>
      </trkpt>
      <trkpt lat="44.40483" lon="7.0154">
        <ele>2300.1999511719</ele>
        <time>2024-09-13T10:06:53.000Z</time>
      </trkpt>
      <trkpt lat="44.40482" lon="7.01551">
        <ele>2300.6000976562</ele>
        <time>2024-09-13T10:06:55.000Z</time>
      </trkpt>
      <trkpt lat="44.40482" lon="7.01556">
        <ele>2300.6000976562</ele>
        <time>2024-09-13T10:06:56.000Z</time>
      </trkpt>
      <trkpt lat="44.40482" lon="7.01561">
        <ele>2300.8000488281</ele>
        <time>2024-09-13T10:06:57.000Z</time>
      </trkpt>
      <trkpt lat="44.40482" lon="7.01565">
        <ele>2300.8000488281</ele>
        <time>2024-09-13T10:06:58.000Z</time>
      </trkpt>
      <trkpt lat="44.40481" lon="7.0157">
        <ele>2301</ele>
        <time>2024-09-13T10:06:59.000Z</time>
      </trkpt>
      <trkpt lat="44.40481" lon="7.01574">
        <ele>2301.1999511719</ele>
        <time>2024-09-13T10:07:00.000Z</time>
      </trkpt>
      <trkpt lat="44.40479" lon="7.01583">
        <ele>2301.6000976562</ele>
        <time>2024-09-13T10:07:02.000Z</time>
      </trkpt>
      <trkpt lat="44.40475" lon="7.0159">
        <ele>2301.8000488281</ele>
        <time>2024-09-13T10:07:04.000Z</time>
      </trkpt>
      <trkpt lat="44.40472" lon="7.01593">
        <ele>2301.8000488281</ele>
        <time>2024-09-13T10:07:05.000Z</time>
      </trkpt>
      <trkpt lat="44.4047" lon="7.01595">
        <ele>2302</ele>
        <time>2024-09-13T10:07:06.000Z</time>
      </trkpt>
      <trkpt lat="44.40468" lon="7.01597">
        <ele>2302</ele>
        <time>2024-09-13T10:07:07.000Z</time>
      </trkpt>
      <trkpt lat="44.40465" lon="7.01598">
        <ele>2302.3999023438</ele>
        <time>2024-09-13T10:07:08.000Z</time>
      </trkpt>
      <trkpt lat="44.40462" lon="7.01598">
        <ele>2302.6000976562</ele>
        <time>2024-09-13T10:07:09.000Z</time>
      </trkpt>
      <trkpt lat="44.4046" lon="7.01599">
        <ele>2303.1999511719</ele>
        <time>2024-09-13T10:07:10.000Z</time>
      </trkpt>
      <trkpt lat="44.40457" lon="7.01599">
        <ele>2303.3999023438</ele>
        <time>2024-09-13T10:07:11.000Z</time>
      </trkpt>
      <trkpt lat="44.40451" lon="7.016">
        <ele>2303.6000976562</ele>
        <time>2024-09-13T10:07:13.000Z</time>
      </trkpt>
      <trkpt lat="44.40448" lon="7.016">
        <ele>2303.6000976562</ele>
        <time>2024-09-13T10:07:14.000Z</time>
      </trkpt>
      <trkpt lat="44.40445" lon="7.01601">
        <ele>2303.6000976562</ele>
        <time>2024-09-13T10:07:15.000Z</time>
      </trkpt>
      <trkpt lat="44.40443" lon="7.01602">
        <ele>2303.6000976562</ele>
        <time>2024-09-13T10:07:16.000Z</time>
      </trkpt>
      <trkpt lat="44.4044" lon="7.01603">
        <ele>2303.8000488281</ele>
        <time>2024-09-13T10:07:17.000Z</time>
      </trkpt>
      <trkpt lat="44.40437" lon="7.01603">
        <ele>2303.8000488281</ele>
        <time>2024-09-13T10:07:18.000Z</time>
      </trkpt>
      <trkpt lat="44.40434" lon="7.01604">
        <ele>2303.8000488281</ele>
        <time>2024-09-13T10:07:19.000Z</time>
      </trkpt>
      <trkpt lat="44.40432" lon="7.01604">
        <ele>2303.8000488281</ele>
        <time>2024-09-13T10:07:20.000Z</time>
      </trkpt>
      <trkpt lat="44.40429" lon="7.01604">
        <ele>2303.8000488281</ele>
        <time>2024-09-13T10:07:21.000Z</time>
      </trkpt>
      <trkpt lat="44.40427" lon="7.01604">
        <ele>2303.8000488281</ele>
        <time>2024-09-13T10:07:22.000Z</time>
      </trkpt>
      <trkpt lat="44.40424" lon="7.01603">
        <ele>2303.8000488281</ele>
        <time>2024-09-13T10:07:23.000Z</time>
      </trkpt>
      <trkpt lat="44.40422" lon="7.01602">
        <ele>2304</ele>
        <time>2024-09-13T10:07:24.000Z</time>
      </trkpt>
      <trkpt lat="44.40419" lon="7.016">
        <ele>2304</ele>
        <time>2024-09-13T10:07:25.000Z</time>
      </trkpt>
      <trkpt lat="44.40417" lon="7.01599">
        <ele>2304</ele>
        <time>2024-09-13T10:07:26.000Z</time>
      </trkpt>
      <trkpt lat="44.40416" lon="7.01596">
        <ele>2304.1999511719</ele>
        <time>2024-09-13T10:07:27.000Z</time>
      </trkpt>
      <trkpt lat="44.40414" lon="7.01594">
        <ele>2304.1999511719</ele>
        <time>2024-09-13T10:07:28.000Z</time>
      </trkpt>
      <trkpt lat="44.40413" lon="7.01592">
        <ele>2304.1999511719</ele>
        <time>2024-09-13T10:07:29.000Z</time>
      </trkpt>
      <trkpt lat="44.40409" lon="7.01588">
        <ele>2304.1999511719</ele>
        <time>2024-09-13T10:07:31.000Z</time>
      </trkpt>
      <trkpt lat="44.40395" lon="7.01574">
        <ele>2305.1999511719</ele>
        <time>2024-09-13T10:07:38.000Z</time>
      </trkpt>
      <trkpt lat="44.40394" lon="7.01573">
        <ele>2305.3999023438</ele>
        <time>2024-09-13T10:07:39.000Z</time>
      </trkpt>
      <trkpt lat="44.40381" lon="7.01569">
        <ele>2306</ele>
        <time>2024-09-13T10:07:44.000Z</time>
      </trkpt>
      <trkpt lat="44.40378" lon="7.01568">
        <ele>2306</ele>
        <time>2024-09-13T10:07:45.000Z</time>
      </trkpt>
      <trkpt lat="44.40376" lon="7.01567">
        <ele>2306</ele>
        <time>2024-09-13T10:07:46.000Z</time>
      </trkpt>
      <trkpt lat="44.40374" lon="7.01567">
        <ele>2306</ele>
        <time>2024-09-13T10:07:47.000Z</time>
      </trkpt>
      <trkpt lat="44.40372" lon="7.01567">
        <ele>2306</ele>
        <time>2024-09-13T10:07:48.000Z</time>
      </trkpt>
      <trkpt lat="44.40368" lon="7.01565">
        <ele>2306.1999511719</ele>
        <time>2024-09-13T10:07:50.000Z</time>
      </trkpt>
      <trkpt lat="44.40366" lon="7.01564">
        <ele>2306.1999511719</ele>
        <time>2024-09-13T10:07:51.000Z</time>
      </trkpt>
      <trkpt lat="44.40364" lon="7.01563">
        <ele>2306.1999511719</ele>
        <time>2024-09-13T10:07:52.000Z</time>
      </trkpt>
      <trkpt lat="44.40362" lon="7.01563">
        <ele>2306.1999511719</ele>
        <time>2024-09-13T10:07:53.000Z</time>
      </trkpt>
      <trkpt lat="44.40361" lon="7.01562">
        <ele>2306.3999023438</ele>
        <time>2024-09-13T10:07:54.000Z</time>
      </trkpt>
      <trkpt lat="44.40359" lon="7.01561">
        <ele>2306.3999023438</ele>
        <time>2024-09-13T10:07:55.000Z</time>
      </trkpt>
      <trkpt lat="44.40355" lon="7.0156">
        <ele>2306.6000976562</ele>
        <time>2024-09-13T10:07:57.000Z</time>
      </trkpt>
      <trkpt lat="44.40353" lon="7.0156">
        <ele>2306.6000976562</ele>
        <time>2024-09-13T10:07:58.000Z</time>
      </trkpt>
      <trkpt lat="44.40351" lon="7.0156">
        <ele>2306.6000976562</ele>
        <time>2024-09-13T10:07:59.000Z</time>
      </trkpt>
      <trkpt lat="44.40349" lon="7.01561">
        <ele>2306.6000976562</ele>
        <time>2024-09-13T10:08:00.000Z</time>
      </trkpt>
      <trkpt lat="44.40338" lon="7.01564">
        <ele>2307</ele>
        <time>2024-09-13T10:08:06.000Z</time>
      </trkpt>
      <trkpt lat="44.40336" lon="7.01565">
        <ele>2307</ele>
        <time>2024-09-13T10:08:07.000Z</time>
      </trkpt>
      <trkpt lat="44.40334" lon="7.01566">
        <ele>2307</ele>
        <time>2024-09-13T10:08:08.000Z</time>
      </trkpt>
      <trkpt lat="44.40328" lon="7.01567">
        <ele>2307.3999023438</ele>
        <time>2024-09-13T10:08:11.000Z</time>
      </trkpt>
      <trkpt lat="44.40326" lon="7.01568">
        <ele>2307.3999023438</ele>
        <time>2024-09-13T10:08:12.000Z</time>
      </trkpt>
      <trkpt lat="44.40324" lon="7.01568">
        <ele>2307.3999023438</ele>
        <time>2024-09-13T10:08:13.000Z</time>
      </trkpt>
      <trkpt lat="44.40322" lon="7.01569">
        <ele>2307.6000976562</ele>
        <time>2024-09-13T10:08:14.000Z</time>
      </trkpt>
      <trkpt lat="44.4032" lon="7.0157">
        <ele>2307.8000488281</ele>
        <time>2024-09-13T10:08:15.000Z</time>
      </trkpt>
      <trkpt lat="44.40317" lon="7.0157">
        <ele>2308</ele>
        <time>2024-09-13T10:08:17.000Z</time>
      </trkpt>
      <trkpt lat="44.40298" lon="7.01573">
        <ele>2307.8000488281</ele>
        <time>2024-09-13T10:08:26.000Z</time>
      </trkpt>
      <trkpt lat="44.40296" lon="7.01573">
        <ele>2307.6000976562</ele>
        <time>2024-09-13T10:08:27.000Z</time>
      </trkpt>
      <trkpt lat="44.40286" lon="7.01573">
        <ele>2308</ele>
        <time>2024-09-13T10:08:31.000Z</time>
      </trkpt>
      <trkpt lat="44.40282" lon="7.01574">
        <ele>2308</ele>
        <time>2024-09-13T10:08:33.000Z</time>
      </trkpt>
      <trkpt lat="44.40278" lon="7.01574">
        <ele>2308.1999511719</ele>
        <time>2024-09-13T10:08:35.000Z</time>
      </trkpt>
      <trkpt lat="44.40276" lon="7.01574">
        <ele>2308.1999511719</ele>
        <time>2024-09-13T10:08:36.000Z</time>
      </trkpt>
      <trkpt lat="44.40274" lon="7.01574">
        <ele>2308.3999023438</ele>
        <time>2024-09-13T10:08:37.000Z</time>
      </trkpt>
      <trkpt lat="44.40272" lon="7.01575">
        <ele>2308.6000976562</ele>
        <time>2024-09-13T10:08:38.000Z</time>
      </trkpt>
      <trkpt lat="44.40269" lon="7.01575">
        <ele>2308.6000976562</ele>
        <time>2024-09-13T10:08:39.000Z</time>
      </trkpt>
      <trkpt lat="44.40265" lon="7.01576">
        <ele>2308.8000488281</ele>
        <time>2024-09-13T10:08:41.000Z</time>
      </trkpt>
      <trkpt lat="44.40263" lon="7.01576">
        <ele>2308.8000488281</ele>
        <time>2024-09-13T10:08:42.000Z</time>
      </trkpt>
      <trkpt lat="44.40254" lon="7.01578">
        <ele>2309</ele>
        <time>2024-09-13T10:08:46.000Z</time>
      </trkpt>
      <trkpt lat="44.40245" lon="7.01579">
        <ele>2309.6000976562</ele>
        <time>2024-09-13T10:08:50.000Z</time>
      </trkpt>
      <trkpt lat="44.40241" lon="7.01579">
        <ele>2309.8000488281</ele>
        <time>2024-09-13T10:08:52.000Z</time>
      </trkpt>
      <trkpt lat="44.40236" lon="7.0158">
        <ele>2310</ele>
        <time>2024-09-13T10:08:54.000Z</time>
      </trkpt>
      <trkpt lat="44.40215" lon="7.01582">
        <ele>2310.3999023438</ele>
        <time>2024-09-13T10:09:03.000Z</time>
      </trkpt>
      <trkpt lat="44.40212" lon="7.01582">
        <ele>2310.6000976562</ele>
        <time>2024-09-13T10:09:04.000Z</time>
      </trkpt>
      <trkpt lat="44.4021" lon="7.01582">
        <ele>2310.6000976562</ele>
        <time>2024-09-13T10:09:05.000Z</time>
      </trkpt>
      <trkpt lat="44.40207" lon="7.01583">
        <ele>2310.6000976562</ele>
        <time>2024-09-13T10:09:06.000Z</time>
      </trkpt>
      <trkpt lat="44.40205" lon="7.01583">
        <ele>2310.6000976562</ele>
        <time>2024-09-13T10:09:07.000Z</time>
      </trkpt>
      <trkpt lat="44.40193" lon="7.01586">
        <ele>2311.3999023438</ele>
        <time>2024-09-13T10:09:12.000Z</time>
      </trkpt>
      <trkpt lat="44.40187" lon="7.01587">
        <ele>2311.6000976562</ele>
        <time>2024-09-13T10:09:14.000Z</time>
      </trkpt>
      <trkpt lat="44.40185" lon="7.01587">
        <ele>2311.8000488281</ele>
        <time>2024-09-13T10:09:15.000Z</time>
      </trkpt>
      <trkpt lat="44.40182" lon="7.01587">
        <ele>2311.8000488281</ele>
        <time>2024-09-13T10:09:16.000Z</time>
      </trkpt>
      <trkpt lat="44.4018" lon="7.01588">
        <ele>2311.8000488281</ele>
        <time>2024-09-13T10:09:17.000Z</time>
      </trkpt>
      <trkpt lat="44.40178" lon="7.01588">
        <ele>2312</ele>
        <time>2024-09-13T10:09:18.000Z</time>
      </trkpt>
      <trkpt lat="44.40173" lon="7.01589">
        <ele>2312</ele>
        <time>2024-09-13T10:09:20.000Z</time>
      </trkpt>
      <trkpt lat="44.40171" lon="7.0159">
        <ele>2312.1999511719</ele>
        <time>2024-09-13T10:09:21.000Z</time>
      </trkpt>
      <trkpt lat="44.40168" lon="7.01591">
        <ele>2312.1999511719</ele>
        <time>2024-09-13T10:09:22.000Z</time>
      </trkpt>
      <trkpt lat="44.40166" lon="7.01592">
        <ele>2312.3999023438</ele>
        <time>2024-09-13T10:09:23.000Z</time>
      </trkpt>
      <trkpt lat="44.40164" lon="7.01592">
        <ele>2312.3999023438</ele>
        <time>2024-09-13T10:09:24.000Z</time>
      </trkpt>
      <trkpt lat="44.40162" lon="7.01593">
        <ele>2313</ele>
        <time>2024-09-13T10:09:25.000Z</time>
      </trkpt>
      <trkpt lat="44.40158" lon="7.01595">
        <ele>2313.3999023438</ele>
        <time>2024-09-13T10:09:27.000Z</time>
      </trkpt>
      <trkpt lat="44.40156" lon="7.01596">
        <ele>2313.6000976562</ele>
        <time>2024-09-13T10:09:28.000Z</time>
      </trkpt>
      <trkpt lat="44.40154" lon="7.01597">
        <ele>2313.6000976562</ele>
        <time>2024-09-13T10:09:29.000Z</time>
      </trkpt>
      <trkpt lat="44.40152" lon="7.01598">
        <ele>2313.6000976562</ele>
        <time>2024-09-13T10:09:30.000Z</time>
      </trkpt>
      <trkpt lat="44.40149" lon="7.01599">
        <ele>2313.6000976562</ele>
        <time>2024-09-13T10:09:31.000Z</time>
      </trkpt>
      <trkpt lat="44.40147" lon="7.016">
        <ele>2313.6000976562</ele>
        <time>2024-09-13T10:09:32.000Z</time>
      </trkpt>
      <trkpt lat="44.40145" lon="7.01601">
        <ele>2313.8000488281</ele>
        <time>2024-09-13T10:09:33.000Z</time>
      </trkpt>
      <trkpt lat="44.40142" lon="7.01602">
        <ele>2313.8000488281</ele>
        <time>2024-09-13T10:09:34.000Z</time>
      </trkpt>
      <trkpt lat="44.4014" lon="7.01603">
        <ele>2314</ele>
        <time>2024-09-13T10:09:35.000Z</time>
      </trkpt>
      <trkpt lat="44.40138" lon="7.01604">
        <ele>2314.1999511719</ele>
        <time>2024-09-13T10:09:36.000Z</time>
      </trkpt>
      <trkpt lat="44.40136" lon="7.01605">
        <ele>2314.1999511719</ele>
        <time>2024-09-13T10:09:37.000Z</time>
      </trkpt>
      <trkpt lat="44.40133" lon="7.01606">
        <ele>2314.3999023438</ele>
        <time>2024-09-13T10:09:38.000Z</time>
      </trkpt>
      <trkpt lat="44.40131" lon="7.01607">
        <ele>2314.6000976562</ele>
        <time>2024-09-13T10:09:39.000Z</time>
      </trkpt>
      <trkpt lat="44.40129" lon="7.01608">
        <ele>2314.8000488281</ele>
        <time>2024-09-13T10:09:40.000Z</time>
      </trkpt>
      <trkpt lat="44.40127" lon="7.0161">
        <ele>2314.8000488281</ele>
        <time>2024-09-13T10:09:41.000Z</time>
      </trkpt>
      <trkpt lat="44.40125" lon="7.01611">
        <ele>2315</ele>
        <time>2024-09-13T10:09:42.000Z</time>
      </trkpt>
      <trkpt lat="44.40124" lon="7.01612">
        <ele>2315</ele>
        <time>2024-09-13T10:09:43.000Z</time>
      </trkpt>
      <trkpt lat="44.40122" lon="7.01613">
        <ele>2315.1999511719</ele>
        <time>2024-09-13T10:09:44.000Z</time>
      </trkpt>
      <trkpt lat="44.40121" lon="7.01615">
        <ele>2315.1999511719</ele>
        <time>2024-09-13T10:09:45.000Z</time>
      </trkpt>
      <trkpt lat="44.40119" lon="7.01616">
        <ele>2315.3999023438</ele>
        <time>2024-09-13T10:09:46.000Z</time>
      </trkpt>
      <trkpt lat="44.40118" lon="7.01617">
        <ele>2315.3999023438</ele>
        <time>2024-09-13T10:09:47.000Z</time>
      </trkpt>
      <trkpt lat="44.40116" lon="7.01618">
        <ele>2315.6000976562</ele>
        <time>2024-09-13T10:09:48.000Z</time>
      </trkpt>
      <trkpt lat="44.40115" lon="7.01619">
        <ele>2316</ele>
        <time>2024-09-13T10:09:49.000Z</time>
      </trkpt>
      <trkpt lat="44.40114" lon="7.01621">
        <ele>2316</ele>
        <time>2024-09-13T10:09:50.000Z</time>
      </trkpt>
      <trkpt lat="44.40112" lon="7.01622">
        <ele>2316.1999511719</ele>
        <time>2024-09-13T10:09:51.000Z</time>
      </trkpt>
      <trkpt lat="44.4011" lon="7.01623">
        <ele>2316.1999511719</ele>
        <time>2024-09-13T10:09:52.000Z</time>
      </trkpt>
      <trkpt lat="44.40109" lon="7.01625">
        <ele>2316.6000976562</ele>
        <time>2024-09-13T10:09:53.000Z</time>
      </trkpt>
      <trkpt lat="44.40107" lon="7.01625">
        <ele>2316.6000976562</ele>
        <time>2024-09-13T10:09:54.000Z</time>
      </trkpt>
      <trkpt lat="44.40106" lon="7.01626">
        <ele>2316.6000976562</ele>
        <time>2024-09-13T10:09:55.000Z</time>
      </trkpt>
      <trkpt lat="44.40104" lon="7.01627">
        <ele>2316.8000488281</ele>
        <time>2024-09-13T10:09:56.000Z</time>
      </trkpt>
      <trkpt lat="44.40103" lon="7.01628">
        <ele>2316.8000488281</ele>
        <time>2024-09-13T10:09:57.000Z</time>
      </trkpt>
      <trkpt lat="44.40101" lon="7.01629">
        <ele>2317</ele>
        <time>2024-09-13T10:09:58.000Z</time>
      </trkpt>
      <trkpt lat="44.40099" lon="7.0163">
        <ele>2317.1999511719</ele>
        <time>2024-09-13T10:09:59.000Z</time>
      </trkpt>
      <trkpt lat="44.40098" lon="7.01632">
        <ele>2317.1999511719</ele>
        <time>2024-09-13T10:10:00.000Z</time>
      </trkpt>
      <trkpt lat="44.40096" lon="7.01633">
        <ele>2317.3999023438</ele>
        <time>2024-09-13T10:10:01.000Z</time>
      </trkpt>
      <trkpt lat="44.40095" lon="7.01635">
        <ele>2317.3999023438</ele>
        <time>2024-09-13T10:10:02.000Z</time>
      </trkpt>
      <trkpt lat="44.40093" lon="7.01636">
        <ele>2317.3999023438</ele>
        <time>2024-09-13T10:10:03.000Z</time>
      </trkpt>
      <trkpt lat="44.40091" lon="7.01637">
        <ele>2317.6000976562</ele>
        <time>2024-09-13T10:10:04.000Z</time>
      </trkpt>
      <trkpt lat="44.4009" lon="7.01638">
        <ele>2317.8000488281</ele>
        <time>2024-09-13T10:10:05.000Z</time>
      </trkpt>
      <trkpt lat="44.40088" lon="7.01639">
        <ele>2318</ele>
        <time>2024-09-13T10:10:06.000Z</time>
      </trkpt>
      <trkpt lat="44.40086" lon="7.0164">
        <ele>2318.1999511719</ele>
        <time>2024-09-13T10:10:07.000Z</time>
      </trkpt>
      <trkpt lat="44.40085" lon="7.01642">
        <ele>2318.1999511719</ele>
        <time>2024-09-13T10:10:08.000Z</time>
      </trkpt>
      <trkpt lat="44.40083" lon="7.01643">
        <ele>2318.3999023438</ele>
        <time>2024-09-13T10:10:09.000Z</time>
      </trkpt>
      <trkpt lat="44.40082" lon="7.01645">
        <ele>2318.3999023438</ele>
        <time>2024-09-13T10:10:10.000Z</time>
      </trkpt>
      <trkpt lat="44.4008" lon="7.01646">
        <ele>2318.6000976562</ele>
        <time>2024-09-13T10:10:11.000Z</time>
      </trkpt>
      <trkpt lat="44.40078" lon="7.01647">
        <ele>2318.6000976562</ele>
        <time>2024-09-13T10:10:12.000Z</time>
      </trkpt>
      <trkpt lat="44.40077" lon="7.01648">
        <ele>2318.8000488281</ele>
        <time>2024-09-13T10:10:13.000Z</time>
      </trkpt>
      <trkpt lat="44.40075" lon="7.01649">
        <ele>2319</ele>
        <time>2024-09-13T10:10:14.000Z</time>
      </trkpt>
      <trkpt lat="44.40074" lon="7.0165">
        <ele>2319</ele>
        <time>2024-09-13T10:10:15.000Z</time>
      </trkpt>
      <trkpt lat="44.40072" lon="7.0165">
        <ele>2319.1999511719</ele>
        <time>2024-09-13T10:10:16.000Z</time>
      </trkpt>
      <trkpt lat="44.40071" lon="7.01652">
        <ele>2319.3999023438</ele>
        <time>2024-09-13T10:10:17.000Z</time>
      </trkpt>
      <trkpt lat="44.40069" lon="7.01653">
        <ele>2319.3999023438</ele>
        <time>2024-09-13T10:10:18.000Z</time>
      </trkpt>
      <trkpt lat="44.40067" lon="7.01654">
        <ele>2319.6000976562</ele>
        <time>2024-09-13T10:10:19.000Z</time>
      </trkpt>
      <trkpt lat="44.40065" lon="7.01655">
        <ele>2319.6000976562</ele>
        <time>2024-09-13T10:10:20.000Z</time>
      </trkpt>
      <trkpt lat="44.40064" lon="7.01657">
        <ele>2319.8000488281</ele>
        <time>2024-09-13T10:10:21.000Z</time>
      </trkpt>
      <trkpt lat="44.40062" lon="7.01658">
        <ele>2319.8000488281</ele>
        <time>2024-09-13T10:10:22.000Z</time>
      </trkpt>
      <trkpt lat="44.4006" lon="7.01659">
        <ele>2319.8000488281</ele>
        <time>2024-09-13T10:10:23.000Z</time>
      </trkpt>
      <trkpt lat="44.40058" lon="7.0166">
        <ele>2320</ele>
        <time>2024-09-13T10:10:24.000Z</time>
      </trkpt>
      <trkpt lat="44.40057" lon="7.01662">
        <ele>2320</ele>
        <time>2024-09-13T10:10:25.000Z</time>
      </trkpt>
      <trkpt lat="44.40055" lon="7.01663">
        <ele>2320</ele>
        <time>2024-09-13T10:10:26.000Z</time>
      </trkpt>
      <trkpt lat="44.40054" lon="7.01664">
        <ele>2320.1999511719</ele>
        <time>2024-09-13T10:10:27.000Z</time>
      </trkpt>
      <trkpt lat="44.40052" lon="7.01665">
        <ele>2320.1999511719</ele>
        <time>2024-09-13T10:10:28.000Z</time>
      </trkpt>
      <trkpt lat="44.40051" lon="7.01666">
        <ele>2320.3999023438</ele>
        <time>2024-09-13T10:10:29.000Z</time>
      </trkpt>
      <trkpt lat="44.40049" lon="7.01667">
        <ele>2320.6000976562</ele>
        <time>2024-09-13T10:10:30.000Z</time>
      </trkpt>
      <trkpt lat="44.40048" lon="7.01668">
        <ele>2320.8000488281</ele>
        <time>2024-09-13T10:10:31.000Z</time>
      </trkpt>
      <trkpt lat="44.40047" lon="7.01669">
        <ele>2320.8000488281</ele>
        <time>2024-09-13T10:10:32.000Z</time>
      </trkpt>
      <trkpt lat="44.40046" lon="7.01669">
        <ele>2321</ele>
        <time>2024-09-13T10:10:33.000Z</time>
      </trkpt>
      <trkpt lat="44.40044" lon="7.01671">
        <ele>2321.1999511719</ele>
        <time>2024-09-13T10:10:34.000Z</time>
      </trkpt>
      <trkpt lat="44.40042" lon="7.01671">
        <ele>2321.1999511719</ele>
        <time>2024-09-13T10:10:35.000Z</time>
      </trkpt>
      <trkpt lat="44.40041" lon="7.01673">
        <ele>2321.3999023438</ele>
        <time>2024-09-13T10:10:36.000Z</time>
      </trkpt>
      <trkpt lat="44.40039" lon="7.01674">
        <ele>2321.3999023438</ele>
        <time>2024-09-13T10:10:37.000Z</time>
      </trkpt>
      <trkpt lat="44.40038" lon="7.01674">
        <ele>2321.6000976562</ele>
        <time>2024-09-13T10:10:38.000Z</time>
      </trkpt>
      <trkpt lat="44.40036" lon="7.01675">
        <ele>2321.6000976562</ele>
        <time>2024-09-13T10:10:39.000Z</time>
      </trkpt>
      <trkpt lat="44.40035" lon="7.01677">
        <ele>2322</ele>
        <time>2024-09-13T10:10:40.000Z</time>
      </trkpt>
      <trkpt lat="44.40033" lon="7.01678">
        <ele>2322</ele>
        <time>2024-09-13T10:10:41.000Z</time>
      </trkpt>
      <trkpt lat="44.40032" lon="7.01679">
        <ele>2322.1999511719</ele>
        <time>2024-09-13T10:10:42.000Z</time>
      </trkpt>
      <trkpt lat="44.4003" lon="7.0168">
        <ele>2322.3999023438</ele>
        <time>2024-09-13T10:10:43.000Z</time>
      </trkpt>
      <trkpt lat="44.40028" lon="7.01681">
        <ele>2322.6000976562</ele>
        <time>2024-09-13T10:10:44.000Z</time>
      </trkpt>
      <trkpt lat="44.40026" lon="7.01682">
        <ele>2322.6000976562</ele>
        <time>2024-09-13T10:10:45.000Z</time>
      </trkpt>
      <trkpt lat="44.40025" lon="7.01682">
        <ele>2322.6000976562</ele>
        <time>2024-09-13T10:10:46.000Z</time>
      </trkpt>
      <trkpt lat="44.40024" lon="7.01683">
        <ele>2322.6000976562</ele>
        <time>2024-09-13T10:10:47.000Z</time>
      </trkpt>
      <trkpt lat="44.40022" lon="7.01684">
        <ele>2322.8000488281</ele>
        <time>2024-09-13T10:10:48.000Z</time>
      </trkpt>
      <trkpt lat="44.40021" lon="7.01685">
        <ele>2323</ele>
        <time>2024-09-13T10:10:49.000Z</time>
      </trkpt>
      <trkpt lat="44.4002" lon="7.01687">
        <ele>2323</ele>
        <time>2024-09-13T10:10:50.000Z</time>
      </trkpt>
      <trkpt lat="44.40018" lon="7.01688">
        <ele>2323</ele>
        <time>2024-09-13T10:10:51.000Z</time>
      </trkpt>
      <trkpt lat="44.40017" lon="7.01691">
        <ele>2323</ele>
        <time>2024-09-13T10:10:52.000Z</time>
      </trkpt>
      <trkpt lat="44.40016" lon="7.01692">
        <ele>2323</ele>
        <time>2024-09-13T10:10:53.000Z</time>
      </trkpt>
      <trkpt lat="44.40015" lon="7.01694">
        <ele>2323.1999511719</ele>
        <time>2024-09-13T10:10:54.000Z</time>
      </trkpt>
      <trkpt lat="44.40014" lon="7.01695">
        <ele>2323.3999023438</ele>
        <time>2024-09-13T10:10:55.000Z</time>
      </trkpt>
      <trkpt lat="44.40013" lon="7.01696">
        <ele>2323.3999023438</ele>
        <time>2024-09-13T10:10:56.000Z</time>
      </trkpt>
      <trkpt lat="44.40012" lon="7.01698">
        <ele>2323.6000976562</ele>
        <time>2024-09-13T10:10:57.000Z</time>
      </trkpt>
      <trkpt lat="44.40011" lon="7.01699">
        <ele>2323.8000488281</ele>
        <time>2024-09-13T10:10:58.000Z</time>
      </trkpt>
      <trkpt lat="44.40011" lon="7.01701">
        <ele>2323.8000488281</ele>
        <time>2024-09-13T10:10:59.000Z</time>
      </trkpt>
      <trkpt lat="44.4001" lon="7.01702">
        <ele>2323.8000488281</ele>
        <time>2024-09-13T10:11:00.000Z</time>
      </trkpt>
      <trkpt lat="44.4001" lon="7.01704">
        <ele>2324.3999023438</ele>
        <time>2024-09-13T10:11:01.000Z</time>
      </trkpt>
      <trkpt lat="44.40009" lon="7.01706">
        <ele>2324.6000976562</ele>
        <time>2024-09-13T10:11:02.000Z</time>
      </trkpt>
      <trkpt lat="44.40009" lon="7.01707">
        <ele>2324.6000976562</ele>
        <time>2024-09-13T10:11:03.000Z</time>
      </trkpt>
      <trkpt lat="44.40007" lon="7.0171">
        <ele>2325</ele>
        <time>2024-09-13T10:11:04.000Z</time>
      </trkpt>
      <trkpt lat="44.40007" lon="7.01711">
        <ele>2325.1999511719</ele>
        <time>2024-09-13T10:11:05.000Z</time>
      </trkpt>
      <trkpt lat="44.40007" lon="7.01713">
        <ele>2325.1999511719</ele>
        <time>2024-09-13T10:11:06.000Z</time>
      </trkpt>
      <trkpt lat="44.40006" lon="7.01715">
        <ele>2325.3999023438</ele>
        <time>2024-09-13T10:11:07.000Z</time>
      </trkpt>
      <trkpt lat="44.40005" lon="7.01716">
        <ele>2325.8000488281</ele>
        <time>2024-09-13T10:11:08.000Z</time>
      </trkpt>
      <trkpt lat="44.40005" lon="7.01717">
        <ele>2325.8000488281</ele>
        <time>2024-09-13T10:11:09.000Z</time>
      </trkpt>
      <trkpt lat="44.40003" lon="7.01718">
        <ele>2326</ele>
        <time>2024-09-13T10:11:10.000Z</time>
      </trkpt>
      <trkpt lat="44.40002" lon="7.0172">
        <ele>2326</ele>
        <time>2024-09-13T10:11:11.000Z</time>
      </trkpt>
      <trkpt lat="44.40001" lon="7.01721">
        <ele>2326.1999511719</ele>
        <time>2024-09-13T10:11:12.000Z</time>
      </trkpt>
      <trkpt lat="44.4" lon="7.01722">
        <ele>2326.3999023438</ele>
        <time>2024-09-13T10:11:13.000Z</time>
      </trkpt>
      <trkpt lat="44.39998" lon="7.01722">
        <ele>2326.6000976562</ele>
        <time>2024-09-13T10:11:14.000Z</time>
      </trkpt>
      <trkpt lat="44.39997" lon="7.01722">
        <ele>2326.6000976562</ele>
        <time>2024-09-13T10:11:15.000Z</time>
      </trkpt>
      <trkpt lat="44.39996" lon="7.01722">
        <ele>2326.6000976562</ele>
        <time>2024-09-13T10:11:16.000Z</time>
      </trkpt>
      <trkpt lat="44.39994" lon="7.01723">
        <ele>2326.8000488281</ele>
        <time>2024-09-13T10:11:17.000Z</time>
      </trkpt>
      <trkpt lat="44.39993" lon="7.01723">
        <ele>2326.8000488281</ele>
        <time>2024-09-13T10:11:18.000Z</time>
      </trkpt>
      <trkpt lat="44.39992" lon="7.01723">
        <ele>2326.8000488281</ele>
        <time>2024-09-13T10:11:19.000Z</time>
      </trkpt>
      <trkpt lat="44.3999" lon="7.01723">
        <ele>2327</ele>
        <time>2024-09-13T10:11:20.000Z</time>
      </trkpt>
      <trkpt lat="44.39989" lon="7.01723">
        <ele>2327</ele>
        <time>2024-09-13T10:11:21.000Z</time>
      </trkpt>
      <trkpt lat="44.39987" lon="7.01723">
        <ele>2327</ele>
        <time>2024-09-13T10:11:22.000Z</time>
      </trkpt>
      <trkpt lat="44.39985" lon="7.01723">
        <ele>2327</ele>
        <time>2024-09-13T10:11:23.000Z</time>
      </trkpt>
      <trkpt lat="44.39983" lon="7.01724">
        <ele>2327.1999511719</ele>
        <time>2024-09-13T10:11:24.000Z</time>
      </trkpt>
      <trkpt lat="44.39981" lon="7.01725">
        <ele>2327.1999511719</ele>
        <time>2024-09-13T10:11:25.000Z</time>
      </trkpt>
      <trkpt lat="44.3998" lon="7.01726">
        <ele>2327.3999023438</ele>
        <time>2024-09-13T10:11:26.000Z</time>
      </trkpt>
      <trkpt lat="44.39978" lon="7.01727">
        <ele>2327.3999023438</ele>
        <time>2024-09-13T10:11:27.000Z</time>
      </trkpt>
      <trkpt lat="44.39977" lon="7.01728">
        <ele>2327.6000976562</ele>
        <time>2024-09-13T10:11:28.000Z</time>
      </trkpt>
      <trkpt lat="44.39976" lon="7.0173">
        <ele>2327.6000976562</ele>
        <time>2024-09-13T10:11:29.000Z</time>
      </trkpt>
      <trkpt lat="44.39975" lon="7.01731">
        <ele>2327.8000488281</ele>
        <time>2024-09-13T10:11:30.000Z</time>
      </trkpt>
      <trkpt lat="44.39974" lon="7.01732">
        <ele>2327.8000488281</ele>
        <time>2024-09-13T10:11:31.000Z</time>
      </trkpt>
      <trkpt lat="44.39972" lon="7.01734">
        <ele>2328</ele>
        <time>2024-09-13T10:11:32.000Z</time>
      </trkpt>
      <trkpt lat="44.39971" lon="7.01736">
        <ele>2328.1999511719</ele>
        <time>2024-09-13T10:11:33.000Z</time>
      </trkpt>
      <trkpt lat="44.39969" lon="7.01737">
        <ele>2328.8000488281</ele>
        <time>2024-09-13T10:11:34.000Z</time>
      </trkpt>
      <trkpt lat="44.39968" lon="7.01739">
        <ele>2328.8000488281</ele>
        <time>2024-09-13T10:11:35.000Z</time>
      </trkpt>
      <trkpt lat="44.39966" lon="7.0174">
        <ele>2329</ele>
        <time>2024-09-13T10:11:36.000Z</time>
      </trkpt>
      <trkpt lat="44.39965" lon="7.01742">
        <ele>2329</ele>
        <time>2024-09-13T10:11:37.000Z</time>
      </trkpt>
      <trkpt lat="44.39964" lon="7.01743">
        <ele>2329</ele>
        <time>2024-09-13T10:11:38.000Z</time>
      </trkpt>
      <trkpt lat="44.39963" lon="7.01744">
        <ele>2329</ele>
        <time>2024-09-13T10:11:39.000Z</time>
      </trkpt>
      <trkpt lat="44.39962" lon="7.01746">
        <ele>2329.1999511719</ele>
        <time>2024-09-13T10:11:40.000Z</time>
      </trkpt>
      <trkpt lat="44.3996" lon="7.01747">
        <ele>2329.1999511719</ele>
        <time>2024-09-13T10:11:41.000Z</time>
      </trkpt>
      <trkpt lat="44.39959" lon="7.01749">
        <ele>2329.3999023438</ele>
        <time>2024-09-13T10:11:42.000Z</time>
      </trkpt>
      <trkpt lat="44.39958" lon="7.0175">
        <ele>2329.6000976562</ele>
        <time>2024-09-13T10:11:43.000Z</time>
      </trkpt>
      <trkpt lat="44.39957" lon="7.01751">
        <ele>2329.8000488281</ele>
        <time>2024-09-13T10:11:44.000Z</time>
      </trkpt>
      <trkpt lat="44.39956" lon="7.01753">
        <ele>2329.8000488281</ele>
        <time>2024-09-13T10:11:45.000Z</time>
      </trkpt>
      <trkpt lat="44.39955" lon="7.01754">
        <ele>2330</ele>
        <time>2024-09-13T10:11:46.000Z</time>
      </trkpt>
      <trkpt lat="44.39954" lon="7.01755">
        <ele>2330</ele>
        <time>2024-09-13T10:11:47.000Z</time>
      </trkpt>
      <trkpt lat="44.39953" lon="7.01757">
        <ele>2330.1999511719</ele>
        <time>2024-09-13T10:11:48.000Z</time>
      </trkpt>
      <trkpt lat="44.39952" lon="7.01759">
        <ele>2330.3999023438</ele>
        <time>2024-09-13T10:11:49.000Z</time>
      </trkpt>
      <trkpt lat="44.39951" lon="7.0176">
        <ele>2330.6000976562</ele>
        <time>2024-09-13T10:11:50.000Z</time>
      </trkpt>
      <trkpt lat="44.3995" lon="7.01763">
        <ele>2330.6000976562</ele>
        <time>2024-09-13T10:11:51.000Z</time>
      </trkpt>
      <trkpt lat="44.39949" lon="7.01765">
        <ele>2331</ele>
        <time>2024-09-13T10:11:52.000Z</time>
      </trkpt>
      <trkpt lat="44.39949" lon="7.01767">
        <ele>2331</ele>
        <time>2024-09-13T10:11:53.000Z</time>
      </trkpt>
      <trkpt lat="44.39948" lon="7.01769">
        <ele>2331.1999511719</ele>
        <time>2024-09-13T10:11:54.000Z</time>
      </trkpt>
      <trkpt lat="44.39947" lon="7.01771">
        <ele>2331.3999023438</ele>
        <time>2024-09-13T10:11:55.000Z</time>
      </trkpt>
      <trkpt lat="44.39947" lon="7.01774">
        <ele>2331.6000976562</ele>
        <time>2024-09-13T10:11:56.000Z</time>
      </trkpt>
      <trkpt lat="44.39947" lon="7.01776">
        <ele>2331.8000488281</ele>
        <time>2024-09-13T10:11:57.000Z</time>
      </trkpt>
      <trkpt lat="44.39946" lon="7.01778">
        <ele>2332</ele>
        <time>2024-09-13T10:11:58.000Z</time>
      </trkpt>
      <trkpt lat="44.39946" lon="7.0178">
        <ele>2332.1999511719</ele>
        <time>2024-09-13T10:11:59.000Z</time>
      </trkpt>
      <trkpt lat="44.39945" lon="7.01782">
        <ele>2332.3999023438</ele>
        <time>2024-09-13T10:12:00.000Z</time>
      </trkpt>
      <trkpt lat="44.39945" lon="7.01784">
        <ele>2332.3999023438</ele>
        <time>2024-09-13T10:12:01.000Z</time>
      </trkpt>
      <trkpt lat="44.39944" lon="7.01787">
        <ele>2332.6000976562</ele>
        <time>2024-09-13T10:12:02.000Z</time>
      </trkpt>
      <trkpt lat="44.39944" lon="7.0179">
        <ele>2332.8000488281</ele>
        <time>2024-09-13T10:12:03.000Z</time>
      </trkpt>
      <trkpt lat="44.39944" lon="7.01792">
        <ele>2333</ele>
        <time>2024-09-13T10:12:04.000Z</time>
      </trkpt>
      <trkpt lat="44.39944" lon="7.01795">
        <ele>2333</ele>
        <time>2024-09-13T10:12:05.000Z</time>
      </trkpt>
      <trkpt lat="44.39944" lon="7.01797">
        <ele>2333.1999511719</ele>
        <time>2024-09-13T10:12:06.000Z</time>
      </trkpt>
      <trkpt lat="44.39944" lon="7.01799">
        <ele>2333.3999023438</ele>
        <time>2024-09-13T10:12:07.000Z</time>
      </trkpt>
      <trkpt lat="44.39945" lon="7.01801">
        <ele>2333.3999023438</ele>
        <time>2024-09-13T10:12:08.000Z</time>
      </trkpt>
      <trkpt lat="44.39945" lon="7.01803">
        <ele>2333.6000976562</ele>
        <time>2024-09-13T10:12:09.000Z</time>
      </trkpt>
      <trkpt lat="44.39946" lon="7.01805">
        <ele>2333.8000488281</ele>
        <time>2024-09-13T10:12:10.000Z</time>
      </trkpt>
      <trkpt lat="44.39947" lon="7.01807">
        <ele>2334</ele>
        <time>2024-09-13T10:12:11.000Z</time>
      </trkpt>
      <trkpt lat="44.39948" lon="7.01809">
        <ele>2334.1999511719</ele>
        <time>2024-09-13T10:12:12.000Z</time>
      </trkpt>
      <trkpt lat="44.39949" lon="7.0181">
        <ele>2334.1999511719</ele>
        <time>2024-09-13T10:12:13.000Z</time>
      </trkpt>
      <trkpt lat="44.3995" lon="7.01812">
        <ele>2334.3999023438</ele>
        <time>2024-09-13T10:12:14.000Z</time>
      </trkpt>
      <trkpt lat="44.39951" lon="7.01814">
        <ele>2334.6000976562</ele>
        <time>2024-09-13T10:12:15.000Z</time>
      </trkpt>
      <trkpt lat="44.39952" lon="7.01815">
        <ele>2334.8000488281</ele>
        <time>2024-09-13T10:12:16.000Z</time>
      </trkpt>
      <trkpt lat="44.39953" lon="7.01817">
        <ele>2334.8000488281</ele>
        <time>2024-09-13T10:12:17.000Z</time>
      </trkpt>
      <trkpt lat="44.39954" lon="7.01819">
        <ele>2335.1999511719</ele>
        <time>2024-09-13T10:12:18.000Z</time>
      </trkpt>
      <trkpt lat="44.39955" lon="7.0182">
        <ele>2335.1999511719</ele>
        <time>2024-09-13T10:12:19.000Z</time>
      </trkpt>
      <trkpt lat="44.39956" lon="7.01822">
        <ele>2335.3999023438</ele>
        <time>2024-09-13T10:12:20.000Z</time>
      </trkpt>
      <trkpt lat="44.39956" lon="7.01824">
        <ele>2335.6000976562</ele>
        <time>2024-09-13T10:12:21.000Z</time>
      </trkpt>
      <trkpt lat="44.39957" lon="7.01826">
        <ele>2335.8000488281</ele>
        <time>2024-09-13T10:12:22.000Z</time>
      </trkpt>
      <trkpt lat="44.39958" lon="7.01828">
        <ele>2336</ele>
        <time>2024-09-13T10:12:23.000Z</time>
      </trkpt>
      <trkpt lat="44.39959" lon="7.0183">
        <ele>2336.3999023438</ele>
        <time>2024-09-13T10:12:24.000Z</time>
      </trkpt>
      <trkpt lat="44.39959" lon="7.01832">
        <ele>2336.6000976562</ele>
        <time>2024-09-13T10:12:25.000Z</time>
      </trkpt>
      <trkpt lat="44.3996" lon="7.01833">
        <ele>2336.8000488281</ele>
        <time>2024-09-13T10:12:26.000Z</time>
      </trkpt>
      <trkpt lat="44.39961" lon="7.01835">
        <ele>2337</ele>
        <time>2024-09-13T10:12:27.000Z</time>
      </trkpt>
      <trkpt lat="44.39961" lon="7.01837">
        <ele>2337</ele>
        <time>2024-09-13T10:12:28.000Z</time>
      </trkpt>
      <trkpt lat="44.39962" lon="7.01839">
        <ele>2337.1999511719</ele>
        <time>2024-09-13T10:12:29.000Z</time>
      </trkpt>
      <trkpt lat="44.39962" lon="7.01842">
        <ele>2337.6000976562</ele>
        <time>2024-09-13T10:12:30.000Z</time>
      </trkpt>
      <trkpt lat="44.39963" lon="7.01844">
        <ele>2337.6000976562</ele>
        <time>2024-09-13T10:12:31.000Z</time>
      </trkpt>
      <trkpt lat="44.39963" lon="7.01846">
        <ele>2337.8000488281</ele>
        <time>2024-09-13T10:12:32.000Z</time>
      </trkpt>
      <trkpt lat="44.39964" lon="7.01848">
        <ele>2338</ele>
        <time>2024-09-13T10:12:33.000Z</time>
      </trkpt>
      <trkpt lat="44.39964" lon="7.0185">
        <ele>2338.1999511719</ele>
        <time>2024-09-13T10:12:34.000Z</time>
      </trkpt>
      <trkpt lat="44.39965" lon="7.01852">
        <ele>2338.3999023438</ele>
        <time>2024-09-13T10:12:35.000Z</time>
      </trkpt>
      <trkpt lat="44.39964" lon="7.01854">
        <ele>2338.6000976562</ele>
        <time>2024-09-13T10:12:36.000Z</time>
      </trkpt>
      <trkpt lat="44.39965" lon="7.01856">
        <ele>2338.8000488281</ele>
        <time>2024-09-13T10:12:37.000Z</time>
      </trkpt>
      <trkpt lat="44.39965" lon="7.01857">
        <ele>2339</ele>
        <time>2024-09-13T10:12:38.000Z</time>
      </trkpt>
      <trkpt lat="44.39965" lon="7.0186">
        <ele>2339.1999511719</ele>
        <time>2024-09-13T10:12:39.000Z</time>
      </trkpt>
      <trkpt lat="44.39965" lon="7.01862">
        <ele>2339.3999023438</ele>
        <time>2024-09-13T10:12:40.000Z</time>
      </trkpt>
      <trkpt lat="44.39964" lon="7.01864">
        <ele>2339.3999023438</ele>
        <time>2024-09-13T10:12:41.000Z</time>
      </trkpt>
      <trkpt lat="44.39963" lon="7.01866">
        <ele>2339.6000976562</ele>
        <time>2024-09-13T10:12:42.000Z</time>
      </trkpt>
      <trkpt lat="44.39963" lon="7.01868">
        <ele>2339.6000976562</ele>
        <time>2024-09-13T10:12:43.000Z</time>
      </trkpt>
      <trkpt lat="44.39962" lon="7.0187">
        <ele>2339.6000976562</ele>
        <time>2024-09-13T10:12:44.000Z</time>
      </trkpt>
      <trkpt lat="44.39961" lon="7.01872">
        <ele>2339.6000976562</ele>
        <time>2024-09-13T10:12:45.000Z</time>
      </trkpt>
      <trkpt lat="44.39959" lon="7.01874">
        <ele>2339.6000976562</ele>
        <time>2024-09-13T10:12:46.000Z</time>
      </trkpt>
      <trkpt lat="44.39959" lon="7.01875">
        <ele>2339.6000976562</ele>
        <time>2024-09-13T10:12:47.000Z</time>
      </trkpt>
      <trkpt lat="44.39958" lon="7.01877">
        <ele>2339.8000488281</ele>
        <time>2024-09-13T10:12:48.000Z</time>
      </trkpt>
      <trkpt lat="44.39957" lon="7.01879">
        <ele>2340</ele>
        <time>2024-09-13T10:12:49.000Z</time>
      </trkpt>
      <trkpt lat="44.39956" lon="7.01881">
        <ele>2340.1999511719</ele>
        <time>2024-09-13T10:12:50.000Z</time>
      </trkpt>
      <trkpt lat="44.39955" lon="7.01883">
        <ele>2340.3999023438</ele>
        <time>2024-09-13T10:12:51.000Z</time>
      </trkpt>
      <trkpt lat="44.39954" lon="7.01884">
        <ele>2340.6000976562</ele>
        <time>2024-09-13T10:12:52.000Z</time>
      </trkpt>
      <trkpt lat="44.39953" lon="7.01886">
        <ele>2340.6000976562</ele>
        <time>2024-09-13T10:12:53.000Z</time>
      </trkpt>
      <trkpt lat="44.39953" lon="7.01889">
        <ele>2340.6000976562</ele>
        <time>2024-09-13T10:12:54.000Z</time>
      </trkpt>
      <trkpt lat="44.39952" lon="7.01891">
        <ele>2340.8000488281</ele>
        <time>2024-09-13T10:12:55.000Z</time>
      </trkpt>
      <trkpt lat="44.39951" lon="7.01893">
        <ele>2341.1999511719</ele>
        <time>2024-09-13T10:12:56.000Z</time>
      </trkpt>
      <trkpt lat="44.3995" lon="7.01895">
        <ele>2341.1999511719</ele>
        <time>2024-09-13T10:12:57.000Z</time>
      </trkpt>
      <trkpt lat="44.39949" lon="7.01897">
        <ele>2341.3999023438</ele>
        <time>2024-09-13T10:12:58.000Z</time>
      </trkpt>
      <trkpt lat="44.39948" lon="7.01899">
        <ele>2341.3999023438</ele>
        <time>2024-09-13T10:12:59.000Z</time>
      </trkpt>
      <trkpt lat="44.39948" lon="7.01901">
        <ele>2341.6000976562</ele>
        <time>2024-09-13T10:13:00.000Z</time>
      </trkpt>
      <trkpt lat="44.39947" lon="7.01903">
        <ele>2341.8000488281</ele>
        <time>2024-09-13T10:13:01.000Z</time>
      </trkpt>
      <trkpt lat="44.39946" lon="7.01905">
        <ele>2342</ele>
        <time>2024-09-13T10:13:02.000Z</time>
      </trkpt>
      <trkpt lat="44.39945" lon="7.01907">
        <ele>2342</ele>
        <time>2024-09-13T10:13:03.000Z</time>
      </trkpt>
      <trkpt lat="44.39944" lon="7.01909">
        <ele>2342.1999511719</ele>
        <time>2024-09-13T10:13:04.000Z</time>
      </trkpt>
      <trkpt lat="44.39943" lon="7.01911">
        <ele>2342.3999023438</ele>
        <time>2024-09-13T10:13:05.000Z</time>
      </trkpt>
      <trkpt lat="44.39942" lon="7.01913">
        <ele>2342.6000976562</ele>
        <time>2024-09-13T10:13:06.000Z</time>
      </trkpt>
      <trkpt lat="44.39941" lon="7.01915">
        <ele>2342.6000976562</ele>
        <time>2024-09-13T10:13:07.000Z</time>
      </trkpt>
      <trkpt lat="44.39941" lon="7.01916">
        <ele>2342.8000488281</ele>
        <time>2024-09-13T10:13:08.000Z</time>
      </trkpt>
      <trkpt lat="44.3994" lon="7.01918">
        <ele>2342.8000488281</ele>
        <time>2024-09-13T10:13:09.000Z</time>
      </trkpt>
      <trkpt lat="44.39939" lon="7.0192">
        <ele>2343.1999511719</ele>
        <time>2024-09-13T10:13:10.000Z</time>
      </trkpt>
      <trkpt lat="44.39938" lon="7.01922">
        <ele>2343.1999511719</ele>
        <time>2024-09-13T10:13:11.000Z</time>
      </trkpt>
      <trkpt lat="44.39937" lon="7.01923">
        <ele>2343.3999023438</ele>
        <time>2024-09-13T10:13:12.000Z</time>
      </trkpt>
      <trkpt lat="44.39936" lon="7.01925">
        <ele>2343.3999023438</ele>
        <time>2024-09-13T10:13:13.000Z</time>
      </trkpt>
      <trkpt lat="44.39936" lon="7.01927">
        <ele>2343.6000976562</ele>
        <time>2024-09-13T10:13:14.000Z</time>
      </trkpt>
      <trkpt lat="44.39935" lon="7.01929">
        <ele>2343.8000488281</ele>
        <time>2024-09-13T10:13:15.000Z</time>
      </trkpt>
      <trkpt lat="44.39934" lon="7.01931">
        <ele>2343.8000488281</ele>
        <time>2024-09-13T10:13:16.000Z</time>
      </trkpt>
      <trkpt lat="44.39933" lon="7.01933">
        <ele>2344</ele>
        <time>2024-09-13T10:13:17.000Z</time>
      </trkpt>
      <trkpt lat="44.39932" lon="7.01936">
        <ele>2344.1999511719</ele>
        <time>2024-09-13T10:13:18.000Z</time>
      </trkpt>
      <trkpt lat="44.39931" lon="7.01937">
        <ele>2344.1999511719</ele>
        <time>2024-09-13T10:13:19.000Z</time>
      </trkpt>
      <trkpt lat="44.3993" lon="7.01939">
        <ele>2344.1999511719</ele>
        <time>2024-09-13T10:13:20.000Z</time>
      </trkpt>
      <trkpt lat="44.39929" lon="7.01941">
        <ele>2344.3999023438</ele>
        <time>2024-09-13T10:13:21.000Z</time>
      </trkpt>
      <trkpt lat="44.39929" lon="7.01943">
        <ele>2344.3999023438</ele>
        <time>2024-09-13T10:13:22.000Z</time>
      </trkpt>
      <trkpt lat="44.39928" lon="7.01945">
        <ele>2344.3999023438</ele>
        <time>2024-09-13T10:13:23.000Z</time>
      </trkpt>
      <trkpt lat="44.39927" lon="7.01947">
        <ele>2344.3999023438</ele>
        <time>2024-09-13T10:13:24.000Z</time>
      </trkpt>
      <trkpt lat="44.39926" lon="7.01949">
        <ele>2344.3999023438</ele>
        <time>2024-09-13T10:13:25.000Z</time>
      </trkpt>
      <trkpt lat="44.39925" lon="7.01952">
        <ele>2344.1999511719</ele>
        <time>2024-09-13T10:13:26.000Z</time>
      </trkpt>
      <trkpt lat="44.39925" lon="7.01954">
        <ele>2344.1999511719</ele>
        <time>2024-09-13T10:13:27.000Z</time>
      </trkpt>
      <trkpt lat="44.39924" lon="7.01956">
        <ele>2344.1999511719</ele>
        <time>2024-09-13T10:13:28.000Z</time>
      </trkpt>
      <trkpt lat="44.39923" lon="7.01958">
        <ele>2344.1999511719</ele>
        <time>2024-09-13T10:13:29.000Z</time>
      </trkpt>
      <trkpt lat="44.39922" lon="7.0196">
        <ele>2344.1999511719</ele>
        <time>2024-09-13T10:13:30.000Z</time>
      </trkpt>
      <trkpt lat="44.3992" lon="7.01966">
        <ele>2344.3999023438</ele>
        <time>2024-09-13T10:13:33.000Z</time>
      </trkpt>
      <trkpt lat="44.3992" lon="7.01968">
        <ele>2344.3999023438</ele>
        <time>2024-09-13T10:13:34.000Z</time>
      </trkpt>
      <trkpt lat="44.39918" lon="7.01975">
        <ele>2344.6000976562</ele>
        <time>2024-09-13T10:13:37.000Z</time>
      </trkpt>
      <trkpt lat="44.39917" lon="7.01977">
        <ele>2344.6000976562</ele>
        <time>2024-09-13T10:13:38.000Z</time>
      </trkpt>
      <trkpt lat="44.39917" lon="7.01979">
        <ele>2344.6000976562</ele>
        <time>2024-09-13T10:13:39.000Z</time>
      </trkpt>
      <trkpt lat="44.39916" lon="7.01981">
        <ele>2344.6000976562</ele>
        <time>2024-09-13T10:13:40.000Z</time>
      </trkpt>
      <trkpt lat="44.39914" lon="7.01991">
        <ele>2344.6000976562</ele>
        <time>2024-09-13T10:13:44.000Z</time>
      </trkpt>
      <trkpt lat="44.39914" lon="7.01993">
        <ele>2344.6000976562</ele>
        <time>2024-09-13T10:13:45.000Z</time>
      </trkpt>
      <trkpt lat="44.39914" lon="7.01995">
        <ele>2344.6000976562</ele>
        <time>2024-09-13T10:13:46.000Z</time>
      </trkpt>
      <trkpt lat="44.39913" lon="7.02003">
        <ele>2344.8000488281</ele>
        <time>2024-09-13T10:13:49.000Z</time>
      </trkpt>
      <trkpt lat="44.39913" lon="7.02005">
        <ele>2344.6000976562</ele>
        <time>2024-09-13T10:13:50.000Z</time>
      </trkpt>
      <trkpt lat="44.39913" lon="7.02007">
        <ele>2344.6000976562</ele>
        <time>2024-09-13T10:13:51.000Z</time>
      </trkpt>
      <trkpt lat="44.39913" lon="7.0201">
        <ele>2344.6000976562</ele>
        <time>2024-09-13T10:13:52.000Z</time>
      </trkpt>
      <trkpt lat="44.39912" lon="7.02013">
        <ele>2344.6000976562</ele>
        <time>2024-09-13T10:13:53.000Z</time>
      </trkpt>
      <trkpt lat="44.39912" lon="7.02018">
        <ele>2344.6000976562</ele>
        <time>2024-09-13T10:13:55.000Z</time>
      </trkpt>
      <trkpt lat="44.39911" lon="7.02031">
        <ele>2344.6000976562</ele>
        <time>2024-09-13T10:14:00.000Z</time>
      </trkpt>
      <trkpt lat="44.39911" lon="7.02034">
        <ele>2344.6000976562</ele>
        <time>2024-09-13T10:14:01.000Z</time>
      </trkpt>
      <trkpt lat="44.3991" lon="7.02037">
        <ele>2344.6000976562</ele>
        <time>2024-09-13T10:14:02.000Z</time>
      </trkpt>
      <trkpt lat="44.3991" lon="7.02039">
        <ele>2344.6000976562</ele>
        <time>2024-09-13T10:14:03.000Z</time>
      </trkpt>
      <trkpt lat="44.3991" lon="7.02042">
        <ele>2344.6000976562</ele>
        <time>2024-09-13T10:14:04.000Z</time>
      </trkpt>
      <trkpt lat="44.39909" lon="7.02047">
        <ele>2344.3999023438</ele>
        <time>2024-09-13T10:14:06.000Z</time>
      </trkpt>
      <trkpt lat="44.39909" lon="7.02049">
        <ele>2344.3999023438</ele>
        <time>2024-09-13T10:14:07.000Z</time>
      </trkpt>
      <trkpt lat="44.39908" lon="7.02053">
        <ele>2344.1999511719</ele>
        <time>2024-09-13T10:14:09.000Z</time>
      </trkpt>
      <trkpt lat="44.39907" lon="7.02055">
        <ele>2344.1999511719</ele>
        <time>2024-09-13T10:14:10.000Z</time>
      </trkpt>
      <trkpt lat="44.39907" lon="7.02057">
        <ele>2344.1999511719</ele>
        <time>2024-09-13T10:14:11.000Z</time>
      </trkpt>
      <trkpt lat="44.39906" lon="7.02059">
        <ele>2344.1999511719</ele>
        <time>2024-09-13T10:14:12.000Z</time>
      </trkpt>
      <trkpt lat="44.39906" lon="7.02061">
        <ele>2344.1999511719</ele>
        <time>2024-09-13T10:14:13.000Z</time>
      </trkpt>
      <trkpt lat="44.39905" lon="7.02063">
        <ele>2344.1999511719</ele>
        <time>2024-09-13T10:14:14.000Z</time>
      </trkpt>
      <trkpt lat="44.39899" lon="7.02072">
        <ele>2344.1999511719</ele>
        <time>2024-09-13T10:14:19.000Z</time>
      </trkpt>
      <trkpt lat="44.3989" lon="7.02084">
        <ele>2344</ele>
        <time>2024-09-13T10:14:25.000Z</time>
      </trkpt>
      <trkpt lat="44.39886" lon="7.02087">
        <ele>2344</ele>
        <time>2024-09-13T10:14:27.000Z</time>
      </trkpt>
      <trkpt lat="44.39882" lon="7.02089">
        <ele>2344</ele>
        <time>2024-09-13T10:14:29.000Z</time>
      </trkpt>
      <trkpt lat="44.39879" lon="7.02089">
        <ele>2344</ele>
        <time>2024-09-13T10:14:30.000Z</time>
      </trkpt>
      <trkpt lat="44.39877" lon="7.02089">
        <ele>2344.1999511719</ele>
        <time>2024-09-13T10:14:31.000Z</time>
      </trkpt>
      <trkpt lat="44.39875" lon="7.02089">
        <ele>2344.1999511719</ele>
        <time>2024-09-13T10:14:32.000Z</time>
      </trkpt>
      <trkpt lat="44.39873" lon="7.0209">
        <ele>2344.3999023438</ele>
        <time>2024-09-13T10:14:33.000Z</time>
      </trkpt>
      <trkpt lat="44.39871" lon="7.0209">
        <ele>2344.3999023438</ele>
        <time>2024-09-13T10:14:34.000Z</time>
      </trkpt>
      <trkpt lat="44.39864" lon="7.02089">
        <ele>2344.8000488281</ele>
        <time>2024-09-13T10:14:37.000Z</time>
      </trkpt>
      <trkpt lat="44.39858" lon="7.02089">
        <ele>2345.1999511719</ele>
        <time>2024-09-13T10:14:40.000Z</time>
      </trkpt>
      <trkpt lat="44.39856" lon="7.0209">
        <ele>2345.1999511719</ele>
        <time>2024-09-13T10:14:41.000Z</time>
      </trkpt>
      <trkpt lat="44.39854" lon="7.0209">
        <ele>2345.1999511719</ele>
        <time>2024-09-13T10:14:42.000Z</time>
      </trkpt>
      <trkpt lat="44.39852" lon="7.02089">
        <ele>2345.3999023438</ele>
        <time>2024-09-13T10:14:43.000Z</time>
      </trkpt>
      <trkpt lat="44.3985" lon="7.02089">
        <ele>2345.6000976562</ele>
        <time>2024-09-13T10:14:44.000Z</time>
      </trkpt>
      <trkpt lat="44.39848" lon="7.02089">
        <ele>2345.8000488281</ele>
        <time>2024-09-13T10:14:45.000Z</time>
      </trkpt>
      <trkpt lat="44.39846" lon="7.02089">
        <ele>2345.8000488281</ele>
        <time>2024-09-13T10:14:46.000Z</time>
      </trkpt>
      <trkpt lat="44.3984" lon="7.02089">
        <ele>2346.1999511719</ele>
        <time>2024-09-13T10:14:49.000Z</time>
      </trkpt>
      <trkpt lat="44.39837" lon="7.0209">
        <ele>2346.3999023438</ele>
        <time>2024-09-13T10:14:51.000Z</time>
      </trkpt>
      <trkpt lat="44.39833" lon="7.0209">
        <ele>2346.6000976562</ele>
        <time>2024-09-13T10:14:53.000Z</time>
      </trkpt>
      <trkpt lat="44.39831" lon="7.02091">
        <ele>2346.6000976562</ele>
        <time>2024-09-13T10:14:54.000Z</time>
      </trkpt>
      <trkpt lat="44.3983" lon="7.02092">
        <ele>2346.6000976562</ele>
        <time>2024-09-13T10:14:55.000Z</time>
      </trkpt>
      <trkpt lat="44.39826" lon="7.02095">
        <ele>2346.6000976562</ele>
        <time>2024-09-13T10:14:57.000Z</time>
      </trkpt>
      <trkpt lat="44.39825" lon="7.02096">
        <ele>2346.8000488281</ele>
        <time>2024-09-13T10:14:58.000Z</time>
      </trkpt>
      <trkpt lat="44.39823" lon="7.02099">
        <ele>2346.8000488281</ele>
        <time>2024-09-13T10:15:00.000Z</time>
      </trkpt>
      <trkpt lat="44.39822" lon="7.02101">
        <ele>2346.8000488281</ele>
        <time>2024-09-13T10:15:01.000Z</time>
      </trkpt>
      <trkpt lat="44.3982" lon="7.02103">
        <ele>2346.8000488281</ele>
        <time>2024-09-13T10:15:02.000Z</time>
      </trkpt>
      <trkpt lat="44.39817" lon="7.02106">
        <ele>2347.1999511719</ele>
        <time>2024-09-13T10:15:04.000Z</time>
      </trkpt>
      <trkpt lat="44.39816" lon="7.02108">
        <ele>2347.3999023438</ele>
        <time>2024-09-13T10:15:05.000Z</time>
      </trkpt>
      <trkpt lat="44.39811" lon="7.02115">
        <ele>2347.3999023438</ele>
        <time>2024-09-13T10:15:09.000Z</time>
      </trkpt>
      <trkpt lat="44.39809" lon="7.02117">
        <ele>2347.3999023438</ele>
        <time>2024-09-13T10:15:10.000Z</time>
      </trkpt>
      <trkpt lat="44.39808" lon="7.02119">
        <ele>2347.6000976562</ele>
        <time>2024-09-13T10:15:11.000Z</time>
      </trkpt>
      <trkpt lat="44.39806" lon="7.02123">
        <ele>2348</ele>
        <time>2024-09-13T10:15:13.000Z</time>
      </trkpt>
      <trkpt lat="44.39803" lon="7.02127">
        <ele>2348.1999511719</ele>
        <time>2024-09-13T10:15:15.000Z</time>
      </trkpt>
      <trkpt lat="44.39801" lon="7.02128">
        <ele>2348.1999511719</ele>
        <time>2024-09-13T10:15:16.000Z</time>
      </trkpt>
      <trkpt lat="44.398" lon="7.0213">
        <ele>2348.3999023438</ele>
        <time>2024-09-13T10:15:17.000Z</time>
      </trkpt>
      <trkpt lat="44.39799" lon="7.02132">
        <ele>2348.3999023438</ele>
        <time>2024-09-13T10:15:18.000Z</time>
      </trkpt>
      <trkpt lat="44.39794" lon="7.02138">
        <ele>2349</ele>
        <time>2024-09-13T10:15:21.000Z</time>
      </trkpt>
      <trkpt lat="44.39791" lon="7.02141">
        <ele>2349.1999511719</ele>
        <time>2024-09-13T10:15:23.000Z</time>
      </trkpt>
      <trkpt lat="44.3979" lon="7.02144">
        <ele>2349.1999511719</ele>
        <time>2024-09-13T10:15:24.000Z</time>
      </trkpt>
      <trkpt lat="44.39787" lon="7.02148">
        <ele>2349.3999023438</ele>
        <time>2024-09-13T10:15:26.000Z</time>
      </trkpt>
      <trkpt lat="44.39785" lon="7.02152">
        <ele>2349.6000976562</ele>
        <time>2024-09-13T10:15:28.000Z</time>
      </trkpt>
      <trkpt lat="44.39783" lon="7.02154">
        <ele>2349.8000488281</ele>
        <time>2024-09-13T10:15:29.000Z</time>
      </trkpt>
      <trkpt lat="44.39782" lon="7.02155">
        <ele>2350.1999511719</ele>
        <time>2024-09-13T10:15:30.000Z</time>
      </trkpt>
      <trkpt lat="44.39781" lon="7.02157">
        <ele>2350.1999511719</ele>
        <time>2024-09-13T10:15:31.000Z</time>
      </trkpt>
      <trkpt lat="44.3978" lon="7.02159">
        <ele>2350.1999511719</ele>
        <time>2024-09-13T10:15:32.000Z</time>
      </trkpt>
      <trkpt lat="44.39778" lon="7.0216">
        <ele>2350.3999023438</ele>
        <time>2024-09-13T10:15:33.000Z</time>
      </trkpt>
      <trkpt lat="44.39776" lon="7.02162">
        <ele>2350.3999023438</ele>
        <time>2024-09-13T10:15:34.000Z</time>
      </trkpt>
      <trkpt lat="44.39775" lon="7.02163">
        <ele>2350.3999023438</ele>
        <time>2024-09-13T10:15:35.000Z</time>
      </trkpt>
      <trkpt lat="44.39774" lon="7.02165">
        <ele>2350.6000976562</ele>
        <time>2024-09-13T10:15:36.000Z</time>
      </trkpt>
      <trkpt lat="44.39774" lon="7.02166">
        <ele>2350.6000976562</ele>
        <time>2024-09-13T10:15:37.000Z</time>
      </trkpt>
      <trkpt lat="44.39773" lon="7.02167">
        <ele>2350.6000976562</ele>
        <time>2024-09-13T10:15:38.000Z</time>
      </trkpt>
      <trkpt lat="44.39773" lon="7.02167">
        <ele>2350.6000976562</ele>
        <time>2024-09-13T10:15:39.000Z</time>
      </trkpt>
      <trkpt lat="44.39772" lon="7.02169">
        <ele>2350.8000488281</ele>
        <time>2024-09-13T10:15:40.000Z</time>
      </trkpt>
      <trkpt lat="44.39771" lon="7.0217">
        <ele>2351</ele>
        <time>2024-09-13T10:15:41.000Z</time>
      </trkpt>
      <trkpt lat="44.39771" lon="7.02172">
        <ele>2351</ele>
        <time>2024-09-13T10:15:42.000Z</time>
      </trkpt>
      <trkpt lat="44.39771" lon="7.02173">
        <ele>2351</ele>
        <time>2024-09-13T10:15:43.000Z</time>
      </trkpt>
      <trkpt lat="44.39771" lon="7.02175">
        <ele>2351</ele>
        <time>2024-09-13T10:15:44.000Z</time>
      </trkpt>
      <trkpt lat="44.39771" lon="7.02176">
        <ele>2351</ele>
        <time>2024-09-13T10:15:45.000Z</time>
      </trkpt>
      <trkpt lat="44.39771" lon="7.02178">
        <ele>2351</ele>
        <time>2024-09-13T10:15:46.000Z</time>
      </trkpt>
      <trkpt lat="44.39771" lon="7.0218">
        <ele>2351</ele>
        <time>2024-09-13T10:15:47.000Z</time>
      </trkpt>
      <trkpt lat="44.39772" lon="7.02188">
        <ele>2351</ele>
        <time>2024-09-13T10:15:50.000Z</time>
      </trkpt>
      <trkpt lat="44.39771" lon="7.02195">
        <ele>2351</ele>
        <time>2024-09-13T10:15:52.000Z</time>
      </trkpt>
      <trkpt lat="44.3977" lon="7.02197">
        <ele>2352.1999511719</ele>
        <time>2024-09-13T10:15:53.000Z</time>
      </trkpt>
      <trkpt lat="44.3977" lon="7.02199">
        <ele>2352.1999511719</ele>
        <time>2024-09-13T10:15:54.000Z</time>
      </trkpt>
      <trkpt lat="44.39769" lon="7.02202">
        <ele>2352.3999023438</ele>
        <time>2024-09-13T10:15:55.000Z</time>
      </trkpt>
      <trkpt lat="44.39768" lon="7.02203">
        <ele>2352.3999023438</ele>
        <time>2024-09-13T10:15:56.000Z</time>
      </trkpt>
      <trkpt lat="44.39768" lon="7.02206">
        <ele>2352.6000976562</ele>
        <time>2024-09-13T10:15:57.000Z</time>
      </trkpt>
      <trkpt lat="44.39766" lon="7.02208">
        <ele>2352.6000976562</ele>
        <time>2024-09-13T10:15:58.000Z</time>
      </trkpt>
      <trkpt lat="44.39765" lon="7.02209">
        <ele>2352.8000488281</ele>
        <time>2024-09-13T10:15:59.000Z</time>
      </trkpt>
      <trkpt lat="44.39763" lon="7.02211">
        <ele>2352.8000488281</ele>
        <time>2024-09-13T10:16:00.000Z</time>
      </trkpt>
      <trkpt lat="44.39762" lon="7.02213">
        <ele>2353</ele>
        <time>2024-09-13T10:16:01.000Z</time>
      </trkpt>
      <trkpt lat="44.39761" lon="7.02214">
        <ele>2353</ele>
        <time>2024-09-13T10:16:02.000Z</time>
      </trkpt>
      <trkpt lat="44.39759" lon="7.02215">
        <ele>2353.1999511719</ele>
        <time>2024-09-13T10:16:03.000Z</time>
      </trkpt>
      <trkpt lat="44.39757" lon="7.02216">
        <ele>2353.1999511719</ele>
        <time>2024-09-13T10:16:04.000Z</time>
      </trkpt>
      <trkpt lat="44.39756" lon="7.02217">
        <ele>2353.3999023438</ele>
        <time>2024-09-13T10:16:05.000Z</time>
      </trkpt>
      <trkpt lat="44.39754" lon="7.02218">
        <ele>2353.8000488281</ele>
        <time>2024-09-13T10:16:06.000Z</time>
      </trkpt>
      <trkpt lat="44.39753" lon="7.02219">
        <ele>2353.8000488281</ele>
        <time>2024-09-13T10:16:07.000Z</time>
      </trkpt>
      <trkpt lat="44.39751" lon="7.02219">
        <ele>2354</ele>
        <time>2024-09-13T10:16:08.000Z</time>
      </trkpt>
      <trkpt lat="44.39749" lon="7.0222">
        <ele>2354.1999511719</ele>
        <time>2024-09-13T10:16:09.000Z</time>
      </trkpt>
      <trkpt lat="44.39748" lon="7.0222">
        <ele>2354.1999511719</ele>
        <time>2024-09-13T10:16:10.000Z</time>
      </trkpt>
      <trkpt lat="44.39746" lon="7.02221">
        <ele>2354.3999023438</ele>
        <time>2024-09-13T10:16:11.000Z</time>
      </trkpt>
      <trkpt lat="44.39744" lon="7.02222">
        <ele>2354.6000976562</ele>
        <time>2024-09-13T10:16:12.000Z</time>
      </trkpt>
      <trkpt lat="44.39742" lon="7.02222">
        <ele>2354.8000488281</ele>
        <time>2024-09-13T10:16:13.000Z</time>
      </trkpt>
      <trkpt lat="44.39741" lon="7.02223">
        <ele>2355</ele>
        <time>2024-09-13T10:16:14.000Z</time>
      </trkpt>
      <trkpt lat="44.39739" lon="7.02223">
        <ele>2355</ele>
        <time>2024-09-13T10:16:15.000Z</time>
      </trkpt>
      <trkpt lat="44.39737" lon="7.02224">
        <ele>2355.1999511719</ele>
        <time>2024-09-13T10:16:16.000Z</time>
      </trkpt>
      <trkpt lat="44.39735" lon="7.02225">
        <ele>2355.3999023438</ele>
        <time>2024-09-13T10:16:17.000Z</time>
      </trkpt>
      <trkpt lat="44.39734" lon="7.02226">
        <ele>2355.6000976562</ele>
        <time>2024-09-13T10:16:18.000Z</time>
      </trkpt>
      <trkpt lat="44.39732" lon="7.02227">
        <ele>2355.8000488281</ele>
        <time>2024-09-13T10:16:19.000Z</time>
      </trkpt>
      <trkpt lat="44.3973" lon="7.02227">
        <ele>2356</ele>
        <time>2024-09-13T10:16:20.000Z</time>
      </trkpt>
      <trkpt lat="44.39728" lon="7.02228">
        <ele>2356</ele>
        <time>2024-09-13T10:16:21.000Z</time>
      </trkpt>
      <trkpt lat="44.39726" lon="7.02229">
        <ele>2356.1999511719</ele>
        <time>2024-09-13T10:16:22.000Z</time>
      </trkpt>
      <trkpt lat="44.39724" lon="7.0223">
        <ele>2356.3999023438</ele>
        <time>2024-09-13T10:16:23.000Z</time>
      </trkpt>
      <trkpt lat="44.39722" lon="7.0223">
        <ele>2356.6000976562</ele>
        <time>2024-09-13T10:16:24.000Z</time>
      </trkpt>
      <trkpt lat="44.3972" lon="7.02231">
        <ele>2356.6000976562</ele>
        <time>2024-09-13T10:16:25.000Z</time>
      </trkpt>
      <trkpt lat="44.39719" lon="7.02232">
        <ele>2357</ele>
        <time>2024-09-13T10:16:26.000Z</time>
      </trkpt>
      <trkpt lat="44.39717" lon="7.02233">
        <ele>2357.1999511719</ele>
        <time>2024-09-13T10:16:27.000Z</time>
      </trkpt>
      <trkpt lat="44.39716" lon="7.02234">
        <ele>2357.3999023438</ele>
        <time>2024-09-13T10:16:28.000Z</time>
      </trkpt>
      <trkpt lat="44.39714" lon="7.02234">
        <ele>2357.6000976562</ele>
        <time>2024-09-13T10:16:29.000Z</time>
      </trkpt>
      <trkpt lat="44.39713" lon="7.02234">
        <ele>2357.6000976562</ele>
        <time>2024-09-13T10:16:30.000Z</time>
      </trkpt>
      <trkpt lat="44.39711" lon="7.02234">
        <ele>2357.6000976562</ele>
        <time>2024-09-13T10:16:31.000Z</time>
      </trkpt>
      <trkpt lat="44.3971" lon="7.02235">
        <ele>2357.8000488281</ele>
        <time>2024-09-13T10:16:32.000Z</time>
      </trkpt>
      <trkpt lat="44.39708" lon="7.02235">
        <ele>2358</ele>
        <time>2024-09-13T10:16:33.000Z</time>
      </trkpt>
      <trkpt lat="44.39707" lon="7.02236">
        <ele>2358</ele>
        <time>2024-09-13T10:16:34.000Z</time>
      </trkpt>
      <trkpt lat="44.39705" lon="7.02236">
        <ele>2358.3999023438</ele>
        <time>2024-09-13T10:16:35.000Z</time>
      </trkpt>
      <trkpt lat="44.39704" lon="7.02237">
        <ele>2358.6000976562</ele>
        <time>2024-09-13T10:16:36.000Z</time>
      </trkpt>
      <trkpt lat="44.39703" lon="7.02238">
        <ele>2358.8000488281</ele>
        <time>2024-09-13T10:16:37.000Z</time>
      </trkpt>
      <trkpt lat="44.39701" lon="7.02239">
        <ele>2359</ele>
        <time>2024-09-13T10:16:38.000Z</time>
      </trkpt>
      <trkpt lat="44.39699" lon="7.0224">
        <ele>2359.1999511719</ele>
        <time>2024-09-13T10:16:39.000Z</time>
      </trkpt>
      <trkpt lat="44.39697" lon="7.02241">
        <ele>2359.3999023438</ele>
        <time>2024-09-13T10:16:40.000Z</time>
      </trkpt>
      <trkpt lat="44.39696" lon="7.02242">
        <ele>2359.3999023438</ele>
        <time>2024-09-13T10:16:41.000Z</time>
      </trkpt>
      <trkpt lat="44.39694" lon="7.02244">
        <ele>2359.3999023438</ele>
        <time>2024-09-13T10:16:42.000Z</time>
      </trkpt>
      <trkpt lat="44.39693" lon="7.02245">
        <ele>2359.6000976562</ele>
        <time>2024-09-13T10:16:43.000Z</time>
      </trkpt>
      <trkpt lat="44.39691" lon="7.02247">
        <ele>2359.8000488281</ele>
        <time>2024-09-13T10:16:44.000Z</time>
      </trkpt>
      <trkpt lat="44.3969" lon="7.02249">
        <ele>2359.8000488281</ele>
        <time>2024-09-13T10:16:45.000Z</time>
      </trkpt>
      <trkpt lat="44.39688" lon="7.0225">
        <ele>2360</ele>
        <time>2024-09-13T10:16:46.000Z</time>
      </trkpt>
      <trkpt lat="44.39686" lon="7.02252">
        <ele>2360</ele>
        <time>2024-09-13T10:16:47.000Z</time>
      </trkpt>
      <trkpt lat="44.39685" lon="7.02253">
        <ele>2360</ele>
        <time>2024-09-13T10:16:48.000Z</time>
      </trkpt>
      <trkpt lat="44.39683" lon="7.02255">
        <ele>2360</ele>
        <time>2024-09-13T10:16:49.000Z</time>
      </trkpt>
      <trkpt lat="44.39682" lon="7.02257">
        <ele>2360.1999511719</ele>
        <time>2024-09-13T10:16:50.000Z</time>
      </trkpt>
      <trkpt lat="44.39681" lon="7.02259">
        <ele>2360.1999511719</ele>
        <time>2024-09-13T10:16:51.000Z</time>
      </trkpt>
      <trkpt lat="44.39679" lon="7.02261">
        <ele>2360.1999511719</ele>
        <time>2024-09-13T10:16:52.000Z</time>
      </trkpt>
      <trkpt lat="44.39678" lon="7.02262">
        <ele>2360.3999023438</ele>
        <time>2024-09-13T10:16:53.000Z</time>
      </trkpt>
      <trkpt lat="44.39677" lon="7.02264">
        <ele>2360.6000976562</ele>
        <time>2024-09-13T10:16:54.000Z</time>
      </trkpt>
      <trkpt lat="44.39675" lon="7.02266">
        <ele>2360.6000976562</ele>
        <time>2024-09-13T10:16:55.000Z</time>
      </trkpt>
      <trkpt lat="44.39674" lon="7.02268">
        <ele>2360.6000976562</ele>
        <time>2024-09-13T10:16:56.000Z</time>
      </trkpt>
      <trkpt lat="44.39672" lon="7.02269">
        <ele>2360.8000488281</ele>
        <time>2024-09-13T10:16:57.000Z</time>
      </trkpt>
      <trkpt lat="44.3967" lon="7.02271">
        <ele>2361</ele>
        <time>2024-09-13T10:16:58.000Z</time>
      </trkpt>
      <trkpt lat="44.39669" lon="7.02272">
        <ele>2361</ele>
        <time>2024-09-13T10:16:59.000Z</time>
      </trkpt>
      <trkpt lat="44.39667" lon="7.02273">
        <ele>2361.1999511719</ele>
        <time>2024-09-13T10:17:00.000Z</time>
      </trkpt>
      <trkpt lat="44.39666" lon="7.02275">
        <ele>2361.3999023438</ele>
        <time>2024-09-13T10:17:01.000Z</time>
      </trkpt>
      <trkpt lat="44.39664" lon="7.02276">
        <ele>2362</ele>
        <time>2024-09-13T10:17:02.000Z</time>
      </trkpt>
      <trkpt lat="44.39662" lon="7.02277">
        <ele>2362.1999511719</ele>
        <time>2024-09-13T10:17:03.000Z</time>
      </trkpt>
      <trkpt lat="44.3966" lon="7.02278">
        <ele>2362.8000488281</ele>
        <time>2024-09-13T10:17:04.000Z</time>
      </trkpt>
      <trkpt lat="44.39658" lon="7.02279">
        <ele>2362.8000488281</ele>
        <time>2024-09-13T10:17:05.000Z</time>
      </trkpt>
      <trkpt lat="44.39657" lon="7.0228">
        <ele>2362.8000488281</ele>
        <time>2024-09-13T10:17:06.000Z</time>
      </trkpt>
      <trkpt lat="44.39655" lon="7.02281">
        <ele>2363</ele>
        <time>2024-09-13T10:17:07.000Z</time>
      </trkpt>
      <trkpt lat="44.39654" lon="7.02282">
        <ele>2363</ele>
        <time>2024-09-13T10:17:08.000Z</time>
      </trkpt>
      <trkpt lat="44.39652" lon="7.02282">
        <ele>2363</ele>
        <time>2024-09-13T10:17:09.000Z</time>
      </trkpt>
      <trkpt lat="44.39651" lon="7.02283">
        <ele>2363</ele>
        <time>2024-09-13T10:17:10.000Z</time>
      </trkpt>
      <trkpt lat="44.39649" lon="7.02284">
        <ele>2363.1999511719</ele>
        <time>2024-09-13T10:17:11.000Z</time>
      </trkpt>
      <trkpt lat="44.39647" lon="7.02285">
        <ele>2363.1999511719</ele>
        <time>2024-09-13T10:17:12.000Z</time>
      </trkpt>
      <trkpt lat="44.39645" lon="7.02286">
        <ele>2363.3999023438</ele>
        <time>2024-09-13T10:17:13.000Z</time>
      </trkpt>
      <trkpt lat="44.39643" lon="7.02288">
        <ele>2363.3999023438</ele>
        <time>2024-09-13T10:17:14.000Z</time>
      </trkpt>
      <trkpt lat="44.39642" lon="7.02289">
        <ele>2363.6000976562</ele>
        <time>2024-09-13T10:17:15.000Z</time>
      </trkpt>
      <trkpt lat="44.3964" lon="7.02292">
        <ele>2363.6000976562</ele>
        <time>2024-09-13T10:17:16.000Z</time>
      </trkpt>
      <trkpt lat="44.39639" lon="7.02294">
        <ele>2363.6000976562</ele>
        <time>2024-09-13T10:17:17.000Z</time>
      </trkpt>
      <trkpt lat="44.39638" lon="7.02296">
        <ele>2363.6000976562</ele>
        <time>2024-09-13T10:17:18.000Z</time>
      </trkpt>
      <trkpt lat="44.39637" lon="7.02298">
        <ele>2363.8000488281</ele>
        <time>2024-09-13T10:17:19.000Z</time>
      </trkpt>
      <trkpt lat="44.39635" lon="7.023">
        <ele>2364</ele>
        <time>2024-09-13T10:17:20.000Z</time>
      </trkpt>
      <trkpt lat="44.39634" lon="7.02302">
        <ele>2364.1999511719</ele>
        <time>2024-09-13T10:17:21.000Z</time>
      </trkpt>
      <trkpt lat="44.39632" lon="7.02303">
        <ele>2364.1999511719</ele>
        <time>2024-09-13T10:17:22.000Z</time>
      </trkpt>
      <trkpt lat="44.39631" lon="7.02305">
        <ele>2364.3999023438</ele>
        <time>2024-09-13T10:17:23.000Z</time>
      </trkpt>
      <trkpt lat="44.39629" lon="7.02306">
        <ele>2364.8000488281</ele>
        <time>2024-09-13T10:17:24.000Z</time>
      </trkpt>
      <trkpt lat="44.39627" lon="7.02307">
        <ele>2365</ele>
        <time>2024-09-13T10:17:25.000Z</time>
      </trkpt>
      <trkpt lat="44.39625" lon="7.02308">
        <ele>2365</ele>
        <time>2024-09-13T10:17:26.000Z</time>
      </trkpt>
      <trkpt lat="44.39623" lon="7.0231">
        <ele>2365</ele>
        <time>2024-09-13T10:17:27.000Z</time>
      </trkpt>
      <trkpt lat="44.39622" lon="7.02311">
        <ele>2365.1999511719</ele>
        <time>2024-09-13T10:17:28.000Z</time>
      </trkpt>
      <trkpt lat="44.3962" lon="7.02312">
        <ele>2365.1999511719</ele>
        <time>2024-09-13T10:17:29.000Z</time>
      </trkpt>
      <trkpt lat="44.39618" lon="7.02312">
        <ele>2365.6000976562</ele>
        <time>2024-09-13T10:17:30.000Z</time>
      </trkpt>
      <trkpt lat="44.39616" lon="7.02313">
        <ele>2365.8000488281</ele>
        <time>2024-09-13T10:17:31.000Z</time>
      </trkpt>
      <trkpt lat="44.39614" lon="7.02314">
        <ele>2366</ele>
        <time>2024-09-13T10:17:32.000Z</time>
      </trkpt>
      <trkpt lat="44.39612" lon="7.02315">
        <ele>2366</ele>
        <time>2024-09-13T10:17:33.000Z</time>
      </trkpt>
      <trkpt lat="44.3961" lon="7.02315">
        <ele>2366.1999511719</ele>
        <time>2024-09-13T10:17:34.000Z</time>
      </trkpt>
      <trkpt lat="44.39608" lon="7.02314">
        <ele>2366.3999023438</ele>
        <time>2024-09-13T10:17:35.000Z</time>
      </trkpt>
      <trkpt lat="44.39606" lon="7.02314">
        <ele>2366.6000976562</ele>
        <time>2024-09-13T10:17:36.000Z</time>
      </trkpt>
      <trkpt lat="44.39604" lon="7.02314">
        <ele>2366.6000976562</ele>
        <time>2024-09-13T10:17:37.000Z</time>
      </trkpt>
      <trkpt lat="44.39602" lon="7.02313">
        <ele>2366.6000976562</ele>
        <time>2024-09-13T10:17:38.000Z</time>
      </trkpt>
      <trkpt lat="44.396" lon="7.02313">
        <ele>2366.6000976562</ele>
        <time>2024-09-13T10:17:39.000Z</time>
      </trkpt>
      <trkpt lat="44.39598" lon="7.02313">
        <ele>2366.6000976562</ele>
        <time>2024-09-13T10:17:40.000Z</time>
      </trkpt>
      <trkpt lat="44.39596" lon="7.02313">
        <ele>2366.8000488281</ele>
        <time>2024-09-13T10:17:41.000Z</time>
      </trkpt>
      <trkpt lat="44.39594" lon="7.02313">
        <ele>2366.8000488281</ele>
        <time>2024-09-13T10:17:42.000Z</time>
      </trkpt>
      <trkpt lat="44.39592" lon="7.02313">
        <ele>2366.8000488281</ele>
        <time>2024-09-13T10:17:43.000Z</time>
      </trkpt>
      <trkpt lat="44.3959" lon="7.02313">
        <ele>2366.8000488281</ele>
        <time>2024-09-13T10:17:44.000Z</time>
      </trkpt>
      <trkpt lat="44.39587" lon="7.02315">
        <ele>2366.8000488281</ele>
        <time>2024-09-13T10:17:45.000Z</time>
      </trkpt>
      <trkpt lat="44.39586" lon="7.02316">
        <ele>2366.8000488281</ele>
        <time>2024-09-13T10:17:46.000Z</time>
      </trkpt>
      <trkpt lat="44.39584" lon="7.02319">
        <ele>2367</ele>
        <time>2024-09-13T10:17:47.000Z</time>
      </trkpt>
      <trkpt lat="44.39583" lon="7.02321">
        <ele>2367.1999511719</ele>
        <time>2024-09-13T10:17:48.000Z</time>
      </trkpt>
      <trkpt lat="44.39581" lon="7.02323">
        <ele>2367.1999511719</ele>
        <time>2024-09-13T10:17:49.000Z</time>
      </trkpt>
      <trkpt lat="44.3958" lon="7.02326">
        <ele>2367.1999511719</ele>
        <time>2024-09-13T10:17:50.000Z</time>
      </trkpt>
      <trkpt lat="44.39579" lon="7.02328">
        <ele>2367.3999023438</ele>
        <time>2024-09-13T10:17:51.000Z</time>
      </trkpt>
      <trkpt lat="44.39578" lon="7.02331">
        <ele>2367.6000976562</ele>
        <time>2024-09-13T10:17:52.000Z</time>
      </trkpt>
      <trkpt lat="44.39577" lon="7.02333">
        <ele>2367.6000976562</ele>
        <time>2024-09-13T10:17:53.000Z</time>
      </trkpt>
      <trkpt lat="44.39576" lon="7.02336">
        <ele>2367.8000488281</ele>
        <time>2024-09-13T10:17:54.000Z</time>
      </trkpt>
      <trkpt lat="44.39575" lon="7.02338">
        <ele>2367.8000488281</ele>
        <time>2024-09-13T10:17:55.000Z</time>
      </trkpt>
      <trkpt lat="44.39574" lon="7.02341">
        <ele>2368</ele>
        <time>2024-09-13T10:17:56.000Z</time>
      </trkpt>
      <trkpt lat="44.39573" lon="7.02343">
        <ele>2368.1999511719</ele>
        <time>2024-09-13T10:17:57.000Z</time>
      </trkpt>
      <trkpt lat="44.39571" lon="7.02344">
        <ele>2368.1999511719</ele>
        <time>2024-09-13T10:17:58.000Z</time>
      </trkpt>
      <trkpt lat="44.3957" lon="7.02346">
        <ele>2368.6000976562</ele>
        <time>2024-09-13T10:17:59.000Z</time>
      </trkpt>
      <trkpt lat="44.39568" lon="7.02347">
        <ele>2369</ele>
        <time>2024-09-13T10:18:00.000Z</time>
      </trkpt>
      <trkpt lat="44.39566" lon="7.02347">
        <ele>2369</ele>
        <time>2024-09-13T10:18:01.000Z</time>
      </trkpt>
      <trkpt lat="44.39564" lon="7.02347">
        <ele>2369.3999023438</ele>
        <time>2024-09-13T10:18:02.000Z</time>
      </trkpt>
      <trkpt lat="44.39562" lon="7.02347">
        <ele>2369.3999023438</ele>
        <time>2024-09-13T10:18:03.000Z</time>
      </trkpt>
      <trkpt lat="44.39561" lon="7.02348">
        <ele>2369.3999023438</ele>
        <time>2024-09-13T10:18:04.000Z</time>
      </trkpt>
      <trkpt lat="44.39559" lon="7.02348">
        <ele>2369.3999023438</ele>
        <time>2024-09-13T10:18:05.000Z</time>
      </trkpt>
      <trkpt lat="44.39557" lon="7.02349">
        <ele>2369.3999023438</ele>
        <time>2024-09-13T10:18:06.000Z</time>
      </trkpt>
      <trkpt lat="44.39554" lon="7.02349">
        <ele>2369.3999023438</ele>
        <time>2024-09-13T10:18:07.000Z</time>
      </trkpt>
      <trkpt lat="44.39552" lon="7.02349">
        <ele>2369.3999023438</ele>
        <time>2024-09-13T10:18:08.000Z</time>
      </trkpt>
      <trkpt lat="44.3955" lon="7.02349">
        <ele>2369.3999023438</ele>
        <time>2024-09-13T10:18:09.000Z</time>
      </trkpt>
      <trkpt lat="44.39548" lon="7.02349">
        <ele>2369.3999023438</ele>
        <time>2024-09-13T10:18:10.000Z</time>
      </trkpt>
      <trkpt lat="44.39546" lon="7.0235">
        <ele>2369.3999023438</ele>
        <time>2024-09-13T10:18:11.000Z</time>
      </trkpt>
      <trkpt lat="44.39544" lon="7.0235">
        <ele>2369.6000976562</ele>
        <time>2024-09-13T10:18:12.000Z</time>
      </trkpt>
      <trkpt lat="44.39542" lon="7.0235">
        <ele>2369.6000976562</ele>
        <time>2024-09-13T10:18:13.000Z</time>
      </trkpt>
      <trkpt lat="44.3954" lon="7.02351">
        <ele>2369.6000976562</ele>
        <time>2024-09-13T10:18:14.000Z</time>
      </trkpt>
      <trkpt lat="44.39539" lon="7.02351">
        <ele>2369.8000488281</ele>
        <time>2024-09-13T10:18:15.000Z</time>
      </trkpt>
      <trkpt lat="44.39537" lon="7.0235">
        <ele>2369.8000488281</ele>
        <time>2024-09-13T10:18:16.000Z</time>
      </trkpt>
      <trkpt lat="44.39532" lon="7.0235">
        <ele>2370.8000488281</ele>
        <time>2024-09-13T10:18:18.000Z</time>
      </trkpt>
      <trkpt lat="44.39528" lon="7.02349">
        <ele>2371</ele>
        <time>2024-09-13T10:18:20.000Z</time>
      </trkpt>
      <trkpt lat="44.39525" lon="7.02349">
        <ele>2371.1999511719</ele>
        <time>2024-09-13T10:18:21.000Z</time>
      </trkpt>
      <trkpt lat="44.39523" lon="7.02349">
        <ele>2371.1999511719</ele>
        <time>2024-09-13T10:18:22.000Z</time>
      </trkpt>
      <trkpt lat="44.39521" lon="7.02349">
        <ele>2371.1999511719</ele>
        <time>2024-09-13T10:18:23.000Z</time>
      </trkpt>
      <trkpt lat="44.3952" lon="7.02349">
        <ele>2371.1999511719</ele>
        <time>2024-09-13T10:18:24.000Z</time>
      </trkpt>
      <trkpt lat="44.39518" lon="7.02348">
        <ele>2371.3999023438</ele>
        <time>2024-09-13T10:18:25.000Z</time>
      </trkpt>
      <trkpt lat="44.39515" lon="7.02348">
        <ele>2371.6000976562</ele>
        <time>2024-09-13T10:18:26.000Z</time>
      </trkpt>
      <trkpt lat="44.39513" lon="7.02347">
        <ele>2371.6000976562</ele>
        <time>2024-09-13T10:18:27.000Z</time>
      </trkpt>
      <trkpt lat="44.39511" lon="7.02346">
        <ele>2371.6000976562</ele>
        <time>2024-09-13T10:18:28.000Z</time>
      </trkpt>
      <trkpt lat="44.39509" lon="7.02346">
        <ele>2371.6000976562</ele>
        <time>2024-09-13T10:18:29.000Z</time>
      </trkpt>
      <trkpt lat="44.39507" lon="7.02345">
        <ele>2371.8000488281</ele>
        <time>2024-09-13T10:18:30.000Z</time>
      </trkpt>
      <trkpt lat="44.39505" lon="7.02345">
        <ele>2371.8000488281</ele>
        <time>2024-09-13T10:18:31.000Z</time>
      </trkpt>
      <trkpt lat="44.39503" lon="7.02344">
        <ele>2372</ele>
        <time>2024-09-13T10:18:32.000Z</time>
      </trkpt>
      <trkpt lat="44.39501" lon="7.02343">
        <ele>2372</ele>
        <time>2024-09-13T10:18:33.000Z</time>
      </trkpt>
      <trkpt lat="44.39499" lon="7.02342">
        <ele>2372.1999511719</ele>
        <time>2024-09-13T10:18:34.000Z</time>
      </trkpt>
      <trkpt lat="44.39497" lon="7.02341">
        <ele>2372.1999511719</ele>
        <time>2024-09-13T10:18:35.000Z</time>
      </trkpt>
      <trkpt lat="44.39495" lon="7.0234">
        <ele>2372.1999511719</ele>
        <time>2024-09-13T10:18:36.000Z</time>
      </trkpt>
      <trkpt lat="44.39493" lon="7.0234">
        <ele>2372.3999023438</ele>
        <time>2024-09-13T10:18:37.000Z</time>
      </trkpt>
      <trkpt lat="44.3949" lon="7.02339">
        <ele>2372.3999023438</ele>
        <time>2024-09-13T10:18:38.000Z</time>
      </trkpt>
      <trkpt lat="44.39488" lon="7.02339">
        <ele>2372.6000976562</ele>
        <time>2024-09-13T10:18:39.000Z</time>
      </trkpt>
      <trkpt lat="44.39486" lon="7.02338">
        <ele>2372.6000976562</ele>
        <time>2024-09-13T10:18:40.000Z</time>
      </trkpt>
      <trkpt lat="44.39484" lon="7.02338">
        <ele>2372.8000488281</ele>
        <time>2024-09-13T10:18:41.000Z</time>
      </trkpt>
      <trkpt lat="44.3948" lon="7.02337">
        <ele>2372.8000488281</ele>
        <time>2024-09-13T10:18:43.000Z</time>
      </trkpt>
      <trkpt lat="44.39478" lon="7.02337">
        <ele>2373</ele>
        <time>2024-09-13T10:18:44.000Z</time>
      </trkpt>
      <trkpt lat="44.39476" lon="7.02336">
        <ele>2373</ele>
        <time>2024-09-13T10:18:45.000Z</time>
      </trkpt>
      <trkpt lat="44.39474" lon="7.02336">
        <ele>2373</ele>
        <time>2024-09-13T10:18:46.000Z</time>
      </trkpt>
      <trkpt lat="44.39472" lon="7.02336">
        <ele>2373.1999511719</ele>
        <time>2024-09-13T10:18:47.000Z</time>
      </trkpt>
      <trkpt lat="44.3947" lon="7.02336">
        <ele>2373.1999511719</ele>
        <time>2024-09-13T10:18:48.000Z</time>
      </trkpt>
      <trkpt lat="44.39468" lon="7.02336">
        <ele>2373.3999023438</ele>
        <time>2024-09-13T10:18:49.000Z</time>
      </trkpt>
      <trkpt lat="44.39466" lon="7.02336">
        <ele>2373.3999023438</ele>
        <time>2024-09-13T10:18:50.000Z</time>
      </trkpt>
      <trkpt lat="44.3946" lon="7.02335">
        <ele>2374.3999023438</ele>
        <time>2024-09-13T10:18:53.000Z</time>
      </trkpt>
      <trkpt lat="44.39458" lon="7.02335">
        <ele>2374.3999023438</ele>
        <time>2024-09-13T10:18:54.000Z</time>
      </trkpt>
      <trkpt lat="44.39454" lon="7.02334">
        <ele>2374.6000976562</ele>
        <time>2024-09-13T10:18:56.000Z</time>
      </trkpt>
      <trkpt lat="44.39452" lon="7.02334">
        <ele>2374.8000488281</ele>
        <time>2024-09-13T10:18:57.000Z</time>
      </trkpt>
      <trkpt lat="44.3945" lon="7.02334">
        <ele>2374.8000488281</ele>
        <time>2024-09-13T10:18:58.000Z</time>
      </trkpt>
      <trkpt lat="44.39448" lon="7.02334">
        <ele>2375</ele>
        <time>2024-09-13T10:18:59.000Z</time>
      </trkpt>
      <trkpt lat="44.39446" lon="7.02334">
        <ele>2375</ele>
        <time>2024-09-13T10:19:00.000Z</time>
      </trkpt>
      <trkpt lat="44.39444" lon="7.02333">
        <ele>2375.1999511719</ele>
        <time>2024-09-13T10:19:01.000Z</time>
      </trkpt>
      <trkpt lat="44.39442" lon="7.02333">
        <ele>2375.3999023438</ele>
        <time>2024-09-13T10:19:02.000Z</time>
      </trkpt>
      <trkpt lat="44.39439" lon="7.02332">
        <ele>2375.3999023438</ele>
        <time>2024-09-13T10:19:03.000Z</time>
      </trkpt>
      <trkpt lat="44.39437" lon="7.02332">
        <ele>2375.3999023438</ele>
        <time>2024-09-13T10:19:04.000Z</time>
      </trkpt>
      <trkpt lat="44.39435" lon="7.02332">
        <ele>2375.3999023438</ele>
        <time>2024-09-13T10:19:05.000Z</time>
      </trkpt>
      <trkpt lat="44.39432" lon="7.02332">
        <ele>2375.3999023438</ele>
        <time>2024-09-13T10:19:06.000Z</time>
      </trkpt>
      <trkpt lat="44.3943" lon="7.02332">
        <ele>2375.3999023438</ele>
        <time>2024-09-13T10:19:07.000Z</time>
      </trkpt>
      <trkpt lat="44.39428" lon="7.02331">
        <ele>2375.3999023438</ele>
        <time>2024-09-13T10:19:08.000Z</time>
      </trkpt>
      <trkpt lat="44.39426" lon="7.02331">
        <ele>2375.6000976562</ele>
        <time>2024-09-13T10:19:09.000Z</time>
      </trkpt>
      <trkpt lat="44.39424" lon="7.02332">
        <ele>2375.6000976562</ele>
        <time>2024-09-13T10:19:10.000Z</time>
      </trkpt>
      <trkpt lat="44.39421" lon="7.02332">
        <ele>2375.6000976562</ele>
        <time>2024-09-13T10:19:11.000Z</time>
      </trkpt>
      <trkpt lat="44.39419" lon="7.02333">
        <ele>2375.6000976562</ele>
        <time>2024-09-13T10:19:12.000Z</time>
      </trkpt>
      <trkpt lat="44.39417" lon="7.02334">
        <ele>2375.8000488281</ele>
        <time>2024-09-13T10:19:13.000Z</time>
      </trkpt>
      <trkpt lat="44.39415" lon="7.02336">
        <ele>2375.8000488281</ele>
        <time>2024-09-13T10:19:14.000Z</time>
      </trkpt>
      <trkpt lat="44.39413" lon="7.02337">
        <ele>2375.8000488281</ele>
        <time>2024-09-13T10:19:15.000Z</time>
      </trkpt>
      <trkpt lat="44.39412" lon="7.0234">
        <ele>2375.8000488281</ele>
        <time>2024-09-13T10:19:16.000Z</time>
      </trkpt>
      <trkpt lat="44.39411" lon="7.02342">
        <ele>2375.8000488281</ele>
        <time>2024-09-13T10:19:17.000Z</time>
      </trkpt>
      <trkpt lat="44.3941" lon="7.02345">
        <ele>2375.8000488281</ele>
        <time>2024-09-13T10:19:18.000Z</time>
      </trkpt>
      <trkpt lat="44.39408" lon="7.02348">
        <ele>2375.6000976562</ele>
        <time>2024-09-13T10:19:19.000Z</time>
      </trkpt>
      <trkpt lat="44.39406" lon="7.02354">
        <ele>2375.6000976562</ele>
        <time>2024-09-13T10:19:21.000Z</time>
      </trkpt>
      <trkpt lat="44.39405" lon="7.02357">
        <ele>2375.6000976562</ele>
        <time>2024-09-13T10:19:22.000Z</time>
      </trkpt>
      <trkpt lat="44.39402" lon="7.02365">
        <ele>2375.8000488281</ele>
        <time>2024-09-13T10:19:25.000Z</time>
      </trkpt>
      <trkpt lat="44.39399" lon="7.02369">
        <ele>2375.8000488281</ele>
        <time>2024-09-13T10:19:27.000Z</time>
      </trkpt>
      <trkpt lat="44.39397" lon="7.02371">
        <ele>2375.8000488281</ele>
        <time>2024-09-13T10:19:28.000Z</time>
      </trkpt>
      <trkpt lat="44.39396" lon="7.02372">
        <ele>2375.8000488281</ele>
        <time>2024-09-13T10:19:29.000Z</time>
      </trkpt>
      <trkpt lat="44.3939" lon="7.02373">
        <ele>2375.8000488281</ele>
        <time>2024-09-13T10:19:32.000Z</time>
      </trkpt>
      <trkpt lat="44.39388" lon="7.02373">
        <ele>2376</ele>
        <time>2024-09-13T10:19:33.000Z</time>
      </trkpt>
      <trkpt lat="44.39384" lon="7.02374">
        <ele>2376.1999511719</ele>
        <time>2024-09-13T10:19:35.000Z</time>
      </trkpt>
      <trkpt lat="44.39382" lon="7.02375">
        <ele>2376.1999511719</ele>
        <time>2024-09-13T10:19:36.000Z</time>
      </trkpt>
      <trkpt lat="44.39375" lon="7.02378">
        <ele>2376.6000976562</ele>
        <time>2024-09-13T10:19:39.000Z</time>
      </trkpt>
      <trkpt lat="44.39368" lon="7.02379">
        <ele>2376.6000976562</ele>
        <time>2024-09-13T10:19:42.000Z</time>
      </trkpt>
      <trkpt lat="44.39356" lon="7.02386">
        <ele>2376.3999023438</ele>
        <time>2024-09-13T10:19:47.000Z</time>
      </trkpt>
      <trkpt lat="44.39353" lon="7.02391">
        <ele>2376.6000976562</ele>
        <time>2024-09-13T10:19:49.000Z</time>
      </trkpt>
      <trkpt lat="44.39352" lon="7.02394">
        <ele>2376.6000976562</ele>
        <time>2024-09-13T10:19:50.000Z</time>
      </trkpt>
      <trkpt lat="44.39351" lon="7.02398">
        <ele>2376.6000976562</ele>
        <time>2024-09-13T10:19:51.000Z</time>
      </trkpt>
      <trkpt lat="44.3935" lon="7.02401">
        <ele>2376.6000976562</ele>
        <time>2024-09-13T10:19:52.000Z</time>
      </trkpt>
      <trkpt lat="44.39347" lon="7.02407">
        <ele>2376.8000488281</ele>
        <time>2024-09-13T10:19:54.000Z</time>
      </trkpt>
      <trkpt lat="44.39346" lon="7.0241">
        <ele>2376.8000488281</ele>
        <time>2024-09-13T10:19:55.000Z</time>
      </trkpt>
      <trkpt lat="44.39345" lon="7.02413">
        <ele>2376.8000488281</ele>
        <time>2024-09-13T10:19:56.000Z</time>
      </trkpt>
      <trkpt lat="44.39344" lon="7.02415">
        <ele>2376.8000488281</ele>
        <time>2024-09-13T10:19:57.000Z</time>
      </trkpt>
      <trkpt lat="44.39343" lon="7.02418">
        <ele>2376.8000488281</ele>
        <time>2024-09-13T10:19:58.000Z</time>
      </trkpt>
      <trkpt lat="44.39339" lon="7.02427">
        <ele>2376.6000976562</ele>
        <time>2024-09-13T10:20:01.000Z</time>
      </trkpt>
      <trkpt lat="44.39337" lon="7.02429">
        <ele>2376.6000976562</ele>
        <time>2024-09-13T10:20:02.000Z</time>
      </trkpt>
      <trkpt lat="44.39335" lon="7.02432">
        <ele>2376.6000976562</ele>
        <time>2024-09-13T10:20:03.000Z</time>
      </trkpt>
      <trkpt lat="44.39333" lon="7.02434">
        <ele>2376.6000976562</ele>
        <time>2024-09-13T10:20:04.000Z</time>
      </trkpt>
      <trkpt lat="44.39328" lon="7.02437">
        <ele>2376.6000976562</ele>
        <time>2024-09-13T10:20:06.000Z</time>
      </trkpt>
      <trkpt lat="44.39326" lon="7.02436">
        <ele>2376.8000488281</ele>
        <time>2024-09-13T10:20:07.000Z</time>
      </trkpt>
      <trkpt lat="44.39324" lon="7.02435">
        <ele>2376.6000976562</ele>
        <time>2024-09-13T10:20:08.000Z</time>
      </trkpt>
      <trkpt lat="44.39322" lon="7.02433">
        <ele>2376.8000488281</ele>
        <time>2024-09-13T10:20:09.000Z</time>
      </trkpt>
      <trkpt lat="44.3932" lon="7.02431">
        <ele>2376.8000488281</ele>
        <time>2024-09-13T10:20:10.000Z</time>
      </trkpt>
      <trkpt lat="44.39317" lon="7.02426">
        <ele>2376.8000488281</ele>
        <time>2024-09-13T10:20:12.000Z</time>
      </trkpt>
      <trkpt lat="44.39315" lon="7.02424">
        <ele>2376.8000488281</ele>
        <time>2024-09-13T10:20:13.000Z</time>
      </trkpt>
      <trkpt lat="44.39313" lon="7.02421">
        <ele>2376.8000488281</ele>
        <time>2024-09-13T10:20:14.000Z</time>
      </trkpt>
      <trkpt lat="44.39305" lon="7.02418">
        <ele>2376.8000488281</ele>
        <time>2024-09-13T10:20:17.000Z</time>
      </trkpt>
      <trkpt lat="44.39302" lon="7.02419">
        <ele>2376.6000976562</ele>
        <time>2024-09-13T10:20:18.000Z</time>
      </trkpt>
      <trkpt lat="44.393" lon="7.02421">
        <ele>2376.6000976562</ele>
        <time>2024-09-13T10:20:19.000Z</time>
      </trkpt>
      <trkpt lat="44.39295" lon="7.02431">
        <ele>2376.3999023438</ele>
        <time>2024-09-13T10:20:22.000Z</time>
      </trkpt>
      <trkpt lat="44.39294" lon="7.02433">
        <ele>2376.3999023438</ele>
        <time>2024-09-13T10:20:23.000Z</time>
      </trkpt>
      <trkpt lat="44.39292" lon="7.02435">
        <ele>2376.3999023438</ele>
        <time>2024-09-13T10:20:24.000Z</time>
      </trkpt>
      <trkpt lat="44.39291" lon="7.02438">
        <ele>2376.6000976562</ele>
        <time>2024-09-13T10:20:25.000Z</time>
      </trkpt>
      <trkpt lat="44.3929" lon="7.0244">
        <ele>2376.6000976562</ele>
        <time>2024-09-13T10:20:26.000Z</time>
      </trkpt>
      <trkpt lat="44.39289" lon="7.02442">
        <ele>2376.6000976562</ele>
        <time>2024-09-13T10:20:27.000Z</time>
      </trkpt>
      <trkpt lat="44.39288" lon="7.02444">
        <ele>2376.6000976562</ele>
        <time>2024-09-13T10:20:28.000Z</time>
      </trkpt>
      <trkpt lat="44.39287" lon="7.02446">
        <ele>2376.6000976562</ele>
        <time>2024-09-13T10:20:29.000Z</time>
      </trkpt>
      <trkpt lat="44.39286" lon="7.02448">
        <ele>2376.8000488281</ele>
        <time>2024-09-13T10:20:30.000Z</time>
      </trkpt>
      <trkpt lat="44.39285" lon="7.02448">
        <ele>2376.8000488281</ele>
        <time>2024-09-13T10:20:31.000Z</time>
      </trkpt>
      <trkpt lat="44.39285" lon="7.02449">
        <ele>2376.8000488281</ele>
        <time>2024-09-13T10:20:32.000Z</time>
      </trkpt>
      <trkpt lat="44.39284" lon="7.02449">
        <ele>2376.8000488281</ele>
        <time>2024-09-13T10:20:33.000Z</time>
      </trkpt>
      <trkpt lat="44.39283" lon="7.0245">
        <ele>2376.8000488281</ele>
        <time>2024-09-13T10:20:34.000Z</time>
      </trkpt>
      <trkpt lat="44.39283" lon="7.0245">
        <ele>2376.8000488281</ele>
        <time>2024-09-13T10:20:35.000Z</time>
      </trkpt>
      <trkpt lat="44.39283" lon="7.0245">
        <ele>2376.6000976562</ele>
        <time>2024-09-13T10:20:36.000Z</time>
      </trkpt>
      <trkpt lat="44.39283" lon="7.0245">
        <ele>2376.6000976562</ele>
        <time>2024-09-13T10:20:37.000Z</time>
      </trkpt>
      <trkpt lat="44.39282" lon="7.02453">
        <ele>2376.6000976562</ele>
        <time>2024-09-13T10:20:39.000Z</time>
      </trkpt>
      <trkpt lat="44.39282" lon="7.02454">
        <ele>2376.8000488281</ele>
        <time>2024-09-13T10:20:40.000Z</time>
      </trkpt>
      <trkpt lat="44.39281" lon="7.02455">
        <ele>2376.8000488281</ele>
        <time>2024-09-13T10:20:42.000Z</time>
      </trkpt>
      <trkpt lat="44.39281" lon="7.02455">
        <ele>2376.8000488281</ele>
        <time>2024-09-13T10:20:44.000Z</time>
      </trkpt>
      <trkpt lat="44.39281" lon="7.02455">
        <ele>2376.8000488281</ele>
        <time>2024-09-13T10:20:45.000Z</time>
      </trkpt>
      <trkpt lat="44.39281" lon="7.02456">
        <ele>2376.8000488281</ele>
        <time>2024-09-13T10:20:46.000Z</time>
      </trkpt>
      <trkpt lat="44.39281" lon="7.02456">
        <ele>2376.8000488281</ele>
        <time>2024-09-13T10:20:47.000Z</time>
      </trkpt>
      <trkpt lat="44.39281" lon="7.02455">
        <ele>2376.8000488281</ele>
        <time>2024-09-13T10:20:56.000Z</time>
      </trkpt>
      <trkpt lat="44.39281" lon="7.02457">
        <ele>2376.3999023438</ele>
        <time>2024-09-13T10:21:05.000Z</time>
      </trkpt>
      <trkpt lat="44.39281" lon="7.02457">
        <ele>2377.1999511719</ele>
        <time>2024-09-13T10:21:26.000Z</time>
      </trkpt>
      <trkpt lat="44.39281" lon="7.02457">
        <ele>2377.6000976562</ele>
        <time>2024-09-13T10:21:35.000Z</time>
      </trkpt>
      <trkpt lat="44.39281" lon="7.02457">
        <ele>2377.8000488281</ele>
        <time>2024-09-13T10:21:40.000Z</time>
      </trkpt>
      <trkpt lat="44.39281" lon="7.02457">
        <ele>2378.3999023438</ele>
        <time>2024-09-13T10:21:51.000Z</time>
      </trkpt>
      <trkpt lat="44.39281" lon="7.02457">
        <ele>2378.6000976562</ele>
        <time>2024-09-13T10:21:58.000Z</time>
      </trkpt>
      <trkpt lat="44.39281" lon="7.02457">
        <ele>2378.6000976562</ele>
        <time>2024-09-13T10:22:04.000Z</time>
      </trkpt>
      <trkpt lat="44.39281" lon="7.02457">
        <ele>2378.6000976562</ele>
        <time>2024-09-13T10:22:09.000Z</time>
      </trkpt>
      <trkpt lat="44.39281" lon="7.02457">
        <ele>2378.6000976562</ele>
        <time>2024-09-13T10:22:10.000Z</time>
      </trkpt>
      <trkpt lat="44.39281" lon="7.02457">
        <ele>2378.8000488281</ele>
        <time>2024-09-13T10:22:12.000Z</time>
      </trkpt>
      <trkpt lat="44.39281" lon="7.02457">
        <ele>2378.8000488281</ele>
        <time>2024-09-13T10:22:13.000Z</time>
      </trkpt>
      <trkpt lat="44.39281" lon="7.02457">
        <ele>2378.8000488281</ele>
        <time>2024-09-13T10:22:15.000Z</time>
      </trkpt>
      <trkpt lat="44.39281" lon="7.02457">
        <ele>2378.8000488281</ele>
        <time>2024-09-13T10:22:21.000Z</time>
      </trkpt>
      <trkpt lat="44.39281" lon="7.02457">
        <ele>2378.8000488281</ele>
        <time>2024-09-13T10:22:22.000Z</time>
      </trkpt>
      <trkpt lat="44.39281" lon="7.02457">
        <ele>2378.8000488281</ele>
        <time>2024-09-13T10:22:23.000Z</time>
      </trkpt>
      <trkpt lat="44.39281" lon="7.02457">
        <ele>2378.8000488281</ele>
        <time>2024-09-13T10:22:24.000Z</time>
      </trkpt>
      <trkpt lat="44.39281" lon="7.02457">
        <ele>2378.8000488281</ele>
        <time>2024-09-13T10:22:25.000Z</time>
      </trkpt>
      <trkpt lat="44.39281" lon="7.02457">
        <ele>2378.8000488281</ele>
        <time>2024-09-13T10:22:26.000Z</time>
      </trkpt>
      <trkpt lat="44.39281" lon="7.02457">
        <ele>2379</ele>
        <time>2024-09-13T10:22:27.000Z</time>
      </trkpt>
      <trkpt lat="44.39281" lon="7.02457">
        <ele>2379</ele>
        <time>2024-09-13T10:22:30.000Z</time>
      </trkpt>
      <trkpt lat="44.39281" lon="7.02457">
        <ele>2378.6000976562</ele>
        <time>2024-09-13T10:22:40.000Z</time>
      </trkpt>
      <trkpt lat="44.39281" lon="7.02457">
        <ele>2378.3999023438</ele>
        <time>2024-09-13T10:22:43.000Z</time>
      </trkpt>
      <trkpt lat="44.39281" lon="7.02457">
        <ele>2378.6000976562</ele>
        <time>2024-09-13T10:22:49.000Z</time>
      </trkpt>
      <trkpt lat="44.39281" lon="7.02459">
        <ele>2378.6000976562</ele>
        <time>2024-09-13T10:22:56.000Z</time>
      </trkpt>
      <trkpt lat="44.39281" lon="7.02459">
        <ele>2378.6000976562</ele>
        <time>2024-09-13T10:23:09.000Z</time>
      </trkpt>
      <trkpt lat="44.3928" lon="7.0246">
        <ele>2378.6000976562</ele>
        <time>2024-09-13T10:23:13.000Z</time>
      </trkpt>
      <trkpt lat="44.39279" lon="7.02462">
        <ele>2378.8000488281</ele>
        <time>2024-09-13T10:23:15.000Z</time>
      </trkpt>
      <trkpt lat="44.39279" lon="7.02465">
        <ele>2378.8000488281</ele>
        <time>2024-09-13T10:23:16.000Z</time>
      </trkpt>
      <trkpt lat="44.39274" lon="7.02474">
        <ele>2378.3999023438</ele>
        <time>2024-09-13T10:23:20.000Z</time>
      </trkpt>
      <trkpt lat="44.39266" lon="7.02497">
        <ele>2378.1999511719</ele>
        <time>2024-09-13T10:23:26.000Z</time>
      </trkpt>
      <trkpt lat="44.39256" lon="7.02526">
        <ele>2378.3999023438</ele>
        <time>2024-09-13T10:23:33.000Z</time>
      </trkpt>
      <trkpt lat="44.39254" lon="7.02529">
        <ele>2378.6000976562</ele>
        <time>2024-09-13T10:23:34.000Z</time>
      </trkpt>
      <trkpt lat="44.39252" lon="7.02532">
        <ele>2378.8000488281</ele>
        <time>2024-09-13T10:23:35.000Z</time>
      </trkpt>
      <trkpt lat="44.3925" lon="7.02535">
        <ele>2378.8000488281</ele>
        <time>2024-09-13T10:23:36.000Z</time>
      </trkpt>
      <trkpt lat="44.39248" lon="7.02538">
        <ele>2378.8000488281</ele>
        <time>2024-09-13T10:23:37.000Z</time>
      </trkpt>
      <trkpt lat="44.39246" lon="7.02541">
        <ele>2378.8000488281</ele>
        <time>2024-09-13T10:23:38.000Z</time>
      </trkpt>
      <trkpt lat="44.39244" lon="7.02544">
        <ele>2379</ele>
        <time>2024-09-13T10:23:39.000Z</time>
      </trkpt>
      <trkpt lat="44.39242" lon="7.02547">
        <ele>2379</ele>
        <time>2024-09-13T10:23:40.000Z</time>
      </trkpt>
      <trkpt lat="44.3924" lon="7.02551">
        <ele>2379</ele>
        <time>2024-09-13T10:23:41.000Z</time>
      </trkpt>
      <trkpt lat="44.39239" lon="7.02554">
        <ele>2379</ele>
        <time>2024-09-13T10:23:42.000Z</time>
      </trkpt>
      <trkpt lat="44.39237" lon="7.02557">
        <ele>2379</ele>
        <time>2024-09-13T10:23:43.000Z</time>
      </trkpt>
      <trkpt lat="44.39236" lon="7.0257">
        <ele>2379</ele>
        <time>2024-09-13T10:23:46.000Z</time>
      </trkpt>
      <trkpt lat="44.39235" lon="7.02574">
        <ele>2379</ele>
        <time>2024-09-13T10:23:47.000Z</time>
      </trkpt>
      <trkpt lat="44.39234" lon="7.02578">
        <ele>2379</ele>
        <time>2024-09-13T10:23:48.000Z</time>
      </trkpt>
      <trkpt lat="44.39233" lon="7.02582">
        <ele>2379</ele>
        <time>2024-09-13T10:23:49.000Z</time>
      </trkpt>
      <trkpt lat="44.3923" lon="7.02588">
        <ele>2379.1999511719</ele>
        <time>2024-09-13T10:23:51.000Z</time>
      </trkpt>
      <trkpt lat="44.39227" lon="7.0259">
        <ele>2379.1999511719</ele>
        <time>2024-09-13T10:23:52.000Z</time>
      </trkpt>
      <trkpt lat="44.39224" lon="7.02592">
        <ele>2379.1999511719</ele>
        <time>2024-09-13T10:23:53.000Z</time>
      </trkpt>
      <trkpt lat="44.39222" lon="7.02595">
        <ele>2379.1999511719</ele>
        <time>2024-09-13T10:23:54.000Z</time>
      </trkpt>
      <trkpt lat="44.3922" lon="7.02596">
        <ele>2379.1999511719</ele>
        <time>2024-09-13T10:23:55.000Z</time>
      </trkpt>
      <trkpt lat="44.39215" lon="7.02602">
        <ele>2379.1999511719</ele>
        <time>2024-09-13T10:23:57.000Z</time>
      </trkpt>
      <trkpt lat="44.39213" lon="7.02604">
        <ele>2379.3999023438</ele>
        <time>2024-09-13T10:23:58.000Z</time>
      </trkpt>
      <trkpt lat="44.39208" lon="7.02608">
        <ele>2379.1999511719</ele>
        <time>2024-09-13T10:24:00.000Z</time>
      </trkpt>
      <trkpt lat="44.392" lon="7.02614">
        <ele>2379.1999511719</ele>
        <time>2024-09-13T10:24:03.000Z</time>
      </trkpt>
      <trkpt lat="44.39198" lon="7.02617">
        <ele>2379</ele>
        <time>2024-09-13T10:24:04.000Z</time>
      </trkpt>
      <trkpt lat="44.39195" lon="7.02619">
        <ele>2379</ele>
        <time>2024-09-13T10:24:05.000Z</time>
      </trkpt>
      <trkpt lat="44.39193" lon="7.02621">
        <ele>2378.8000488281</ele>
        <time>2024-09-13T10:24:06.000Z</time>
      </trkpt>
      <trkpt lat="44.3919" lon="7.02623">
        <ele>2378.8000488281</ele>
        <time>2024-09-13T10:24:07.000Z</time>
      </trkpt>
      <trkpt lat="44.39185" lon="7.02625">
        <ele>2379</ele>
        <time>2024-09-13T10:24:09.000Z</time>
      </trkpt>
      <trkpt lat="44.39182" lon="7.02626">
        <ele>2379</ele>
        <time>2024-09-13T10:24:10.000Z</time>
      </trkpt>
      <trkpt lat="44.3918" lon="7.02627">
        <ele>2379</ele>
        <time>2024-09-13T10:24:11.000Z</time>
      </trkpt>
      <trkpt lat="44.39177" lon="7.02628">
        <ele>2379</ele>
        <time>2024-09-13T10:24:12.000Z</time>
      </trkpt>
      <trkpt lat="44.39175" lon="7.02628">
        <ele>2379.1999511719</ele>
        <time>2024-09-13T10:24:13.000Z</time>
      </trkpt>
      <trkpt lat="44.39173" lon="7.02628">
        <ele>2379.1999511719</ele>
        <time>2024-09-13T10:24:14.000Z</time>
      </trkpt>
      <trkpt lat="44.3917" lon="7.02627">
        <ele>2379.3999023438</ele>
        <time>2024-09-13T10:24:15.000Z</time>
      </trkpt>
      <trkpt lat="44.39168" lon="7.02626">
        <ele>2379.3999023438</ele>
        <time>2024-09-13T10:24:16.000Z</time>
      </trkpt>
      <trkpt lat="44.39152" lon="7.02623">
        <ele>2379.1999511719</ele>
        <time>2024-09-13T10:24:22.000Z</time>
      </trkpt>
      <trkpt lat="44.39149" lon="7.02624">
        <ele>2379.1999511719</ele>
        <time>2024-09-13T10:24:23.000Z</time>
      </trkpt>
      <trkpt lat="44.39147" lon="7.02626">
        <ele>2379.1999511719</ele>
        <time>2024-09-13T10:24:24.000Z</time>
      </trkpt>
      <trkpt lat="44.39145" lon="7.02629">
        <ele>2379.1999511719</ele>
        <time>2024-09-13T10:24:25.000Z</time>
      </trkpt>
      <trkpt lat="44.39143" lon="7.02632">
        <ele>2379.1999511719</ele>
        <time>2024-09-13T10:24:26.000Z</time>
      </trkpt>
      <trkpt lat="44.39141" lon="7.02635">
        <ele>2379.1999511719</ele>
        <time>2024-09-13T10:24:27.000Z</time>
      </trkpt>
      <trkpt lat="44.39139" lon="7.02638">
        <ele>2379.1999511719</ele>
        <time>2024-09-13T10:24:28.000Z</time>
      </trkpt>
      <trkpt lat="44.39138" lon="7.02641">
        <ele>2379.1999511719</ele>
        <time>2024-09-13T10:24:29.000Z</time>
      </trkpt>
      <trkpt lat="44.39136" lon="7.02644">
        <ele>2379.1999511719</ele>
        <time>2024-09-13T10:24:30.000Z</time>
      </trkpt>
      <trkpt lat="44.39132" lon="7.02653">
        <ele>2379.3999023438</ele>
        <time>2024-09-13T10:24:33.000Z</time>
      </trkpt>
      <trkpt lat="44.3913" lon="7.02656">
        <ele>2379.3999023438</ele>
        <time>2024-09-13T10:24:34.000Z</time>
      </trkpt>
      <trkpt lat="44.39128" lon="7.02659">
        <ele>2379.3999023438</ele>
        <time>2024-09-13T10:24:35.000Z</time>
      </trkpt>
      <trkpt lat="44.39119" lon="7.02672">
        <ele>2379.1999511719</ele>
        <time>2024-09-13T10:24:39.000Z</time>
      </trkpt>
      <trkpt lat="44.39115" lon="7.02678">
        <ele>2379.1999511719</ele>
        <time>2024-09-13T10:24:41.000Z</time>
      </trkpt>
      <trkpt lat="44.39113" lon="7.02681">
        <ele>2379.3999023438</ele>
        <time>2024-09-13T10:24:42.000Z</time>
      </trkpt>
      <trkpt lat="44.39109" lon="7.02688">
        <ele>2379.6000976562</ele>
        <time>2024-09-13T10:24:44.000Z</time>
      </trkpt>
      <trkpt lat="44.39108" lon="7.02691">
        <ele>2379.8000488281</ele>
        <time>2024-09-13T10:24:45.000Z</time>
      </trkpt>
      <trkpt lat="44.39106" lon="7.02694">
        <ele>2379.8000488281</ele>
        <time>2024-09-13T10:24:46.000Z</time>
      </trkpt>
      <trkpt lat="44.39104" lon="7.02702">
        <ele>2379.8000488281</ele>
        <time>2024-09-13T10:24:48.000Z</time>
      </trkpt>
      <trkpt lat="44.39103" lon="7.02706">
        <ele>2379.8000488281</ele>
        <time>2024-09-13T10:24:49.000Z</time>
      </trkpt>
      <trkpt lat="44.39103" lon="7.0271">
        <ele>2379.8000488281</ele>
        <time>2024-09-13T10:24:50.000Z</time>
      </trkpt>
      <trkpt lat="44.39101" lon="7.02722">
        <ele>2379.8000488281</ele>
        <time>2024-09-13T10:24:53.000Z</time>
      </trkpt>
      <trkpt lat="44.391" lon="7.02726">
        <ele>2379.8000488281</ele>
        <time>2024-09-13T10:24:54.000Z</time>
      </trkpt>
      <trkpt lat="44.39098" lon="7.02733">
        <ele>2380</ele>
        <time>2024-09-13T10:24:56.000Z</time>
      </trkpt>
      <trkpt lat="44.39096" lon="7.02737">
        <ele>2380</ele>
        <time>2024-09-13T10:24:57.000Z</time>
      </trkpt>
      <trkpt lat="44.39093" lon="7.0274">
        <ele>2380.1999511719</ele>
        <time>2024-09-13T10:24:58.000Z</time>
      </trkpt>
      <trkpt lat="44.39091" lon="7.02742">
        <ele>2380.3999023438</ele>
        <time>2024-09-13T10:24:59.000Z</time>
      </trkpt>
      <trkpt lat="44.39088" lon="7.02744">
        <ele>2380.3999023438</ele>
        <time>2024-09-13T10:25:00.000Z</time>
      </trkpt>
      <trkpt lat="44.39085" lon="7.02746">
        <ele>2380.6000976562</ele>
        <time>2024-09-13T10:25:01.000Z</time>
      </trkpt>
      <trkpt lat="44.39082" lon="7.02747">
        <ele>2380.6000976562</ele>
        <time>2024-09-13T10:25:02.000Z</time>
      </trkpt>
      <trkpt lat="44.39079" lon="7.02748">
        <ele>2380.6000976562</ele>
        <time>2024-09-13T10:25:03.000Z</time>
      </trkpt>
      <trkpt lat="44.39077" lon="7.0275">
        <ele>2380.8000488281</ele>
        <time>2024-09-13T10:25:04.000Z</time>
      </trkpt>
      <trkpt lat="44.39071" lon="7.02752">
        <ele>2380.8000488281</ele>
        <time>2024-09-13T10:25:06.000Z</time>
      </trkpt>
      <trkpt lat="44.39062" lon="7.02758">
        <ele>2380.6000976562</ele>
        <time>2024-09-13T10:25:09.000Z</time>
      </trkpt>
      <trkpt lat="44.39055" lon="7.02762">
        <ele>2380.6000976562</ele>
        <time>2024-09-13T10:25:11.000Z</time>
      </trkpt>
      <trkpt lat="44.39052" lon="7.02765">
        <ele>2380.6000976562</ele>
        <time>2024-09-13T10:25:12.000Z</time>
      </trkpt>
      <trkpt lat="44.39045" lon="7.02769">
        <ele>2380.6000976562</ele>
        <time>2024-09-13T10:25:14.000Z</time>
      </trkpt>
      <trkpt lat="44.39042" lon="7.02772">
        <ele>2380.6000976562</ele>
        <time>2024-09-13T10:25:15.000Z</time>
      </trkpt>
      <trkpt lat="44.39039" lon="7.02775">
        <ele>2380.6000976562</ele>
        <time>2024-09-13T10:25:16.000Z</time>
      </trkpt>
      <trkpt lat="44.39036" lon="7.02778">
        <ele>2380.3999023438</ele>
        <time>2024-09-13T10:25:17.000Z</time>
      </trkpt>
      <trkpt lat="44.39034" lon="7.02781">
        <ele>2380.3999023438</ele>
        <time>2024-09-13T10:25:18.000Z</time>
      </trkpt>
      <trkpt lat="44.39031" lon="7.02783">
        <ele>2380.3999023438</ele>
        <time>2024-09-13T10:25:19.000Z</time>
      </trkpt>
      <trkpt lat="44.39029" lon="7.02786">
        <ele>2380.3999023438</ele>
        <time>2024-09-13T10:25:20.000Z</time>
      </trkpt>
      <trkpt lat="44.39026" lon="7.02789">
        <ele>2380.6000976562</ele>
        <time>2024-09-13T10:25:21.000Z</time>
      </trkpt>
      <trkpt lat="44.39022" lon="7.02795">
        <ele>2380.6000976562</ele>
        <time>2024-09-13T10:25:23.000Z</time>
      </trkpt>
      <trkpt lat="44.39019" lon="7.02798">
        <ele>2380.6000976562</ele>
        <time>2024-09-13T10:25:24.000Z</time>
      </trkpt>
      <trkpt lat="44.39014" lon="7.02802">
        <ele>2380.6000976562</ele>
        <time>2024-09-13T10:25:26.000Z</time>
      </trkpt>
      <trkpt lat="44.39011" lon="7.02803">
        <ele>2380.6000976562</ele>
        <time>2024-09-13T10:25:27.000Z</time>
      </trkpt>
      <trkpt lat="44.39008" lon="7.02804">
        <ele>2380.8000488281</ele>
        <time>2024-09-13T10:25:28.000Z</time>
      </trkpt>
      <trkpt lat="44.39004" lon="7.02804">
        <ele>2380.8000488281</ele>
        <time>2024-09-13T10:25:29.000Z</time>
      </trkpt>
      <trkpt lat="44.39001" lon="7.02804">
        <ele>2380.8000488281</ele>
        <time>2024-09-13T10:25:30.000Z</time>
      </trkpt>
      <trkpt lat="44.38998" lon="7.02804">
        <ele>2380.8000488281</ele>
        <time>2024-09-13T10:25:31.000Z</time>
      </trkpt>
      <trkpt lat="44.38984" lon="7.02803">
        <ele>2381</ele>
        <time>2024-09-13T10:25:35.000Z</time>
      </trkpt>
      <trkpt lat="44.38981" lon="7.02802">
        <ele>2381</ele>
        <time>2024-09-13T10:25:36.000Z</time>
      </trkpt>
      <trkpt lat="44.38978" lon="7.02801">
        <ele>2381</ele>
        <time>2024-09-13T10:25:37.000Z</time>
      </trkpt>
      <trkpt lat="44.38972" lon="7.02799">
        <ele>2381</ele>
        <time>2024-09-13T10:25:39.000Z</time>
      </trkpt>
      <trkpt lat="44.38953" lon="7.02792">
        <ele>2381</ele>
        <time>2024-09-13T10:25:45.000Z</time>
      </trkpt>
      <trkpt lat="44.38943" lon="7.02787">
        <ele>2380.8000488281</ele>
        <time>2024-09-13T10:25:48.000Z</time>
      </trkpt>
      <trkpt lat="44.38937" lon="7.02784">
        <ele>2380.6000976562</ele>
        <time>2024-09-13T10:25:50.000Z</time>
      </trkpt>
      <trkpt lat="44.38934" lon="7.02782">
        <ele>2380.6000976562</ele>
        <time>2024-09-13T10:25:51.000Z</time>
      </trkpt>
      <trkpt lat="44.3893" lon="7.02781">
        <ele>2380.6000976562</ele>
        <time>2024-09-13T10:25:52.000Z</time>
      </trkpt>
      <trkpt lat="44.38927" lon="7.0278">
        <ele>2380.6000976562</ele>
        <time>2024-09-13T10:25:53.000Z</time>
      </trkpt>
      <trkpt lat="44.38924" lon="7.02779">
        <ele>2380.6000976562</ele>
        <time>2024-09-13T10:25:54.000Z</time>
      </trkpt>
      <trkpt lat="44.38914" lon="7.02779">
        <ele>2380.6000976562</ele>
        <time>2024-09-13T10:25:57.000Z</time>
      </trkpt>
      <trkpt lat="44.389" lon="7.02778">
        <ele>2380.6000976562</ele>
        <time>2024-09-13T10:26:01.000Z</time>
      </trkpt>
      <trkpt lat="44.38897" lon="7.02779">
        <ele>2380.6000976562</ele>
        <time>2024-09-13T10:26:02.000Z</time>
      </trkpt>
      <trkpt lat="44.38894" lon="7.02781">
        <ele>2380.6000976562</ele>
        <time>2024-09-13T10:26:03.000Z</time>
      </trkpt>
      <trkpt lat="44.38892" lon="7.02784">
        <ele>2380.6000976562</ele>
        <time>2024-09-13T10:26:04.000Z</time>
      </trkpt>
      <trkpt lat="44.3889" lon="7.02789">
        <ele>2380.6000976562</ele>
        <time>2024-09-13T10:26:05.000Z</time>
      </trkpt>
      <trkpt lat="44.38887" lon="7.02796">
        <ele>2380.6000976562</ele>
        <time>2024-09-13T10:26:07.000Z</time>
      </trkpt>
      <trkpt lat="44.38884" lon="7.02799">
        <ele>2380.8000488281</ele>
        <time>2024-09-13T10:26:08.000Z</time>
      </trkpt>
      <trkpt lat="44.38882" lon="7.02802">
        <ele>2380.8000488281</ele>
        <time>2024-09-13T10:26:09.000Z</time>
      </trkpt>
      <trkpt lat="44.3888" lon="7.02805">
        <ele>2381</ele>
        <time>2024-09-13T10:26:10.000Z</time>
      </trkpt>
      <trkpt lat="44.38875" lon="7.02809">
        <ele>2381</ele>
        <time>2024-09-13T10:26:12.000Z</time>
      </trkpt>
      <trkpt lat="44.38872" lon="7.02811">
        <ele>2381</ele>
        <time>2024-09-13T10:26:13.000Z</time>
      </trkpt>
      <trkpt lat="44.3887" lon="7.02813">
        <ele>2381</ele>
        <time>2024-09-13T10:26:14.000Z</time>
      </trkpt>
      <trkpt lat="44.38867" lon="7.02815">
        <ele>2381</ele>
        <time>2024-09-13T10:26:15.000Z</time>
      </trkpt>
      <trkpt lat="44.38864" lon="7.02815">
        <ele>2381</ele>
        <time>2024-09-13T10:26:16.000Z</time>
      </trkpt>
      <trkpt lat="44.38862" lon="7.02816">
        <ele>2381</ele>
        <time>2024-09-13T10:26:17.000Z</time>
      </trkpt>
      <trkpt lat="44.38859" lon="7.02818">
        <ele>2381</ele>
        <time>2024-09-13T10:26:18.000Z</time>
      </trkpt>
      <trkpt lat="44.38852" lon="7.02827">
        <ele>2380.8000488281</ele>
        <time>2024-09-13T10:26:21.000Z</time>
      </trkpt>
      <trkpt lat="44.38851" lon="7.0283">
        <ele>2380.8000488281</ele>
        <time>2024-09-13T10:26:22.000Z</time>
      </trkpt>
      <trkpt lat="44.38849" lon="7.02833">
        <ele>2380.6000976562</ele>
        <time>2024-09-13T10:26:23.000Z</time>
      </trkpt>
      <trkpt lat="44.38847" lon="7.02836">
        <ele>2380.6000976562</ele>
        <time>2024-09-13T10:26:24.000Z</time>
      </trkpt>
      <trkpt lat="44.38845" lon="7.02839">
        <ele>2380.6000976562</ele>
        <time>2024-09-13T10:26:25.000Z</time>
      </trkpt>
      <trkpt lat="44.38843" lon="7.02841">
        <ele>2380.8000488281</ele>
        <time>2024-09-13T10:26:26.000Z</time>
      </trkpt>
      <trkpt lat="44.38838" lon="7.02844">
        <ele>2381</ele>
        <time>2024-09-13T10:26:28.000Z</time>
      </trkpt>
      <trkpt lat="44.38835" lon="7.02844">
        <ele>2381.1999511719</ele>
        <time>2024-09-13T10:26:29.000Z</time>
      </trkpt>
      <trkpt lat="44.38832" lon="7.02844">
        <ele>2381.1999511719</ele>
        <time>2024-09-13T10:26:30.000Z</time>
      </trkpt>
      <trkpt lat="44.38829" lon="7.02844">
        <ele>2381</ele>
        <time>2024-09-13T10:26:31.000Z</time>
      </trkpt>
      <trkpt lat="44.38826" lon="7.02843">
        <ele>2381</ele>
        <time>2024-09-13T10:26:32.000Z</time>
      </trkpt>
      <trkpt lat="44.3882" lon="7.02841">
        <ele>2381</ele>
        <time>2024-09-13T10:26:34.000Z</time>
      </trkpt>
      <trkpt lat="44.38817" lon="7.0284">
        <ele>2380.8000488281</ele>
        <time>2024-09-13T10:26:35.000Z</time>
      </trkpt>
      <trkpt lat="44.38814" lon="7.02839">
        <ele>2380.8000488281</ele>
        <time>2024-09-13T10:26:36.000Z</time>
      </trkpt>
      <trkpt lat="44.38812" lon="7.02837">
        <ele>2380.8000488281</ele>
        <time>2024-09-13T10:26:37.000Z</time>
      </trkpt>
      <trkpt lat="44.38809" lon="7.02835">
        <ele>2380.6000976562</ele>
        <time>2024-09-13T10:26:38.000Z</time>
      </trkpt>
      <trkpt lat="44.38797" lon="7.02832">
        <ele>2380.3999023438</ele>
        <time>2024-09-13T10:26:42.000Z</time>
      </trkpt>
      <trkpt lat="44.38794" lon="7.02833">
        <ele>2380.3999023438</ele>
        <time>2024-09-13T10:26:43.000Z</time>
      </trkpt>
      <trkpt lat="44.38791" lon="7.02834">
        <ele>2380.3999023438</ele>
        <time>2024-09-13T10:26:44.000Z</time>
      </trkpt>
      <trkpt lat="44.38788" lon="7.02835">
        <ele>2380.1999511719</ele>
        <time>2024-09-13T10:26:45.000Z</time>
      </trkpt>
      <trkpt lat="44.38785" lon="7.02836">
        <ele>2380.1999511719</ele>
        <time>2024-09-13T10:26:46.000Z</time>
      </trkpt>
      <trkpt lat="44.38778" lon="7.02839">
        <ele>2380.1999511719</ele>
        <time>2024-09-13T10:26:48.000Z</time>
      </trkpt>
      <trkpt lat="44.38771" lon="7.02841">
        <ele>2380</ele>
        <time>2024-09-13T10:26:50.000Z</time>
      </trkpt>
      <trkpt lat="44.38768" lon="7.02843">
        <ele>2380</ele>
        <time>2024-09-13T10:26:51.000Z</time>
      </trkpt>
      <trkpt lat="44.38764" lon="7.02845">
        <ele>2380</ele>
        <time>2024-09-13T10:26:52.000Z</time>
      </trkpt>
      <trkpt lat="44.38754" lon="7.02851">
        <ele>2379.3999023438</ele>
        <time>2024-09-13T10:26:55.000Z</time>
      </trkpt>
      <trkpt lat="44.3875" lon="7.02853">
        <ele>2379.1999511719</ele>
        <time>2024-09-13T10:26:56.000Z</time>
      </trkpt>
      <trkpt lat="44.38741" lon="7.0286">
        <ele>2379.1999511719</ele>
        <time>2024-09-13T10:26:59.000Z</time>
      </trkpt>
      <trkpt lat="44.38727" lon="7.02869">
        <ele>2378.8000488281</ele>
        <time>2024-09-13T10:27:03.000Z</time>
      </trkpt>
      <trkpt lat="44.38711" lon="7.02881">
        <ele>2378.3999023438</ele>
        <time>2024-09-13T10:27:08.000Z</time>
      </trkpt>
      <trkpt lat="44.38703" lon="7.02885">
        <ele>2378.3999023438</ele>
        <time>2024-09-13T10:27:10.000Z</time>
      </trkpt>
      <trkpt lat="44.387" lon="7.02887">
        <ele>2378.3999023438</ele>
        <time>2024-09-13T10:27:11.000Z</time>
      </trkpt>
      <trkpt lat="44.38696" lon="7.02889">
        <ele>2378.1999511719</ele>
        <time>2024-09-13T10:27:12.000Z</time>
      </trkpt>
      <trkpt lat="44.38684" lon="7.02892">
        <ele>2378</ele>
        <time>2024-09-13T10:27:15.000Z</time>
      </trkpt>
      <trkpt lat="44.38677" lon="7.02892">
        <ele>2378</ele>
        <time>2024-09-13T10:27:17.000Z</time>
      </trkpt>
      <trkpt lat="44.38673" lon="7.02892">
        <ele>2377.8000488281</ele>
        <time>2024-09-13T10:27:18.000Z</time>
      </trkpt>
      <trkpt lat="44.38665" lon="7.02893">
        <ele>2377.3999023438</ele>
        <time>2024-09-13T10:27:20.000Z</time>
      </trkpt>
      <trkpt lat="44.38657" lon="7.02895">
        <ele>2377.1999511719</ele>
        <time>2024-09-13T10:27:22.000Z</time>
      </trkpt>
      <trkpt lat="44.38651" lon="7.029">
        <ele>2376.8000488281</ele>
        <time>2024-09-13T10:27:24.000Z</time>
      </trkpt>
      <trkpt lat="44.38649" lon="7.02903">
        <ele>2376.3999023438</ele>
        <time>2024-09-13T10:27:25.000Z</time>
      </trkpt>
      <trkpt lat="44.38647" lon="7.02906">
        <ele>2376.1999511719</ele>
        <time>2024-09-13T10:27:26.000Z</time>
      </trkpt>
      <trkpt lat="44.38645" lon="7.02909">
        <ele>2376.1999511719</ele>
        <time>2024-09-13T10:27:27.000Z</time>
      </trkpt>
      <trkpt lat="44.38643" lon="7.02911">
        <ele>2376.1999511719</ele>
        <time>2024-09-13T10:27:28.000Z</time>
      </trkpt>
      <trkpt lat="44.38642" lon="7.02914">
        <ele>2376.1999511719</ele>
        <time>2024-09-13T10:27:29.000Z</time>
      </trkpt>
      <trkpt lat="44.38641" lon="7.02918">
        <ele>2376.1999511719</ele>
        <time>2024-09-13T10:27:30.000Z</time>
      </trkpt>
      <trkpt lat="44.38637" lon="7.02935">
        <ele>2376.6000976562</ele>
        <time>2024-09-13T10:27:34.000Z</time>
      </trkpt>
      <trkpt lat="44.38636" lon="7.02939">
        <ele>2376.6000976562</ele>
        <time>2024-09-13T10:27:35.000Z</time>
      </trkpt>
      <trkpt lat="44.38634" lon="7.02942">
        <ele>2376.6000976562</ele>
        <time>2024-09-13T10:27:36.000Z</time>
      </trkpt>
      <trkpt lat="44.38633" lon="7.02946">
        <ele>2376.6000976562</ele>
        <time>2024-09-13T10:27:37.000Z</time>
      </trkpt>
      <trkpt lat="44.38628" lon="7.02952">
        <ele>2376.8000488281</ele>
        <time>2024-09-13T10:27:39.000Z</time>
      </trkpt>
      <trkpt lat="44.38622" lon="7.0296">
        <ele>2377.1999511719</ele>
        <time>2024-09-13T10:27:42.000Z</time>
      </trkpt>
      <trkpt lat="44.38619" lon="7.02962">
        <ele>2377.3999023438</ele>
        <time>2024-09-13T10:27:43.000Z</time>
      </trkpt>
      <trkpt lat="44.38617" lon="7.02965">
        <ele>2377.6000976562</ele>
        <time>2024-09-13T10:27:44.000Z</time>
      </trkpt>
      <trkpt lat="44.38616" lon="7.02968">
        <ele>2377.8000488281</ele>
        <time>2024-09-13T10:27:45.000Z</time>
      </trkpt>
      <trkpt lat="44.38614" lon="7.0297">
        <ele>2378</ele>
        <time>2024-09-13T10:27:46.000Z</time>
      </trkpt>
      <trkpt lat="44.38612" lon="7.02971">
        <ele>2378.1999511719</ele>
        <time>2024-09-13T10:27:47.000Z</time>
      </trkpt>
      <trkpt lat="44.3861" lon="7.02972">
        <ele>2378.1999511719</ele>
        <time>2024-09-13T10:27:48.000Z</time>
      </trkpt>
      <trkpt lat="44.38609" lon="7.02973">
        <ele>2378.6000976562</ele>
        <time>2024-09-13T10:27:49.000Z</time>
      </trkpt>
      <trkpt lat="44.38607" lon="7.02975">
        <ele>2378.8000488281</ele>
        <time>2024-09-13T10:27:50.000Z</time>
      </trkpt>
      <trkpt lat="44.38605" lon="7.02976">
        <ele>2379</ele>
        <time>2024-09-13T10:27:51.000Z</time>
      </trkpt>
      <trkpt lat="44.38603" lon="7.02976">
        <ele>2379</ele>
        <time>2024-09-13T10:27:52.000Z</time>
      </trkpt>
      <trkpt lat="44.38602" lon="7.02976">
        <ele>2379.1999511719</ele>
        <time>2024-09-13T10:27:53.000Z</time>
      </trkpt>
      <trkpt lat="44.386" lon="7.02977">
        <ele>2379.3999023438</ele>
        <time>2024-09-13T10:27:54.000Z</time>
      </trkpt>
      <trkpt lat="44.38599" lon="7.02978">
        <ele>2379.6000976562</ele>
        <time>2024-09-13T10:27:55.000Z</time>
      </trkpt>
      <trkpt lat="44.38595" lon="7.02978">
        <ele>2380</ele>
        <time>2024-09-13T10:27:57.000Z</time>
      </trkpt>
      <trkpt lat="44.38594" lon="7.02978">
        <ele>2380</ele>
        <time>2024-09-13T10:27:58.000Z</time>
      </trkpt>
      <trkpt lat="44.38592" lon="7.02978">
        <ele>2380.1999511719</ele>
        <time>2024-09-13T10:27:59.000Z</time>
      </trkpt>
      <trkpt lat="44.3859" lon="7.02978">
        <ele>2380.3999023438</ele>
        <time>2024-09-13T10:28:00.000Z</time>
      </trkpt>
      <trkpt lat="44.38588" lon="7.02979">
        <ele>2380.3999023438</ele>
        <time>2024-09-13T10:28:01.000Z</time>
      </trkpt>
      <trkpt lat="44.38587" lon="7.0298">
        <ele>2380.6000976562</ele>
        <time>2024-09-13T10:28:02.000Z</time>
      </trkpt>
      <trkpt lat="44.38585" lon="7.02981">
        <ele>2380.6000976562</ele>
        <time>2024-09-13T10:28:03.000Z</time>
      </trkpt>
      <trkpt lat="44.38584" lon="7.02982">
        <ele>2380.8000488281</ele>
        <time>2024-09-13T10:28:04.000Z</time>
      </trkpt>
      <trkpt lat="44.38582" lon="7.02982">
        <ele>2380.8000488281</ele>
        <time>2024-09-13T10:28:05.000Z</time>
      </trkpt>
      <trkpt lat="44.3858" lon="7.02983">
        <ele>2380.8000488281</ele>
        <time>2024-09-13T10:28:06.000Z</time>
      </trkpt>
      <trkpt lat="44.38578" lon="7.02984">
        <ele>2380.8000488281</ele>
        <time>2024-09-13T10:28:07.000Z</time>
      </trkpt>
      <trkpt lat="44.38576" lon="7.02985">
        <ele>2380.8000488281</ele>
        <time>2024-09-13T10:28:08.000Z</time>
      </trkpt>
      <trkpt lat="44.38573" lon="7.02987">
        <ele>2380.8000488281</ele>
        <time>2024-09-13T10:28:09.000Z</time>
      </trkpt>
      <trkpt lat="44.38571" lon="7.02988">
        <ele>2380.8000488281</ele>
        <time>2024-09-13T10:28:10.000Z</time>
      </trkpt>
      <trkpt lat="44.38569" lon="7.0299">
        <ele>2380.6000976562</ele>
        <time>2024-09-13T10:28:11.000Z</time>
      </trkpt>
      <trkpt lat="44.38566" lon="7.02991">
        <ele>2380.3999023438</ele>
        <time>2024-09-13T10:28:12.000Z</time>
      </trkpt>
      <trkpt lat="44.38564" lon="7.02993">
        <ele>2380.3999023438</ele>
        <time>2024-09-13T10:28:13.000Z</time>
      </trkpt>
      <trkpt lat="44.38562" lon="7.02995">
        <ele>2380.1999511719</ele>
        <time>2024-09-13T10:28:14.000Z</time>
      </trkpt>
      <trkpt lat="44.38557" lon="7.03">
        <ele>2380.1999511719</ele>
        <time>2024-09-13T10:28:16.000Z</time>
      </trkpt>
      <trkpt lat="44.38555" lon="7.03003">
        <ele>2380.1999511719</ele>
        <time>2024-09-13T10:28:17.000Z</time>
      </trkpt>
      <trkpt lat="44.38554" lon="7.03006">
        <ele>2380</ele>
        <time>2024-09-13T10:28:18.000Z</time>
      </trkpt>
      <trkpt lat="44.38553" lon="7.03009">
        <ele>2380</ele>
        <time>2024-09-13T10:28:19.000Z</time>
      </trkpt>
      <trkpt lat="44.38552" lon="7.03012">
        <ele>2380</ele>
        <time>2024-09-13T10:28:20.000Z</time>
      </trkpt>
      <trkpt lat="44.38552" lon="7.03018">
        <ele>2380</ele>
        <time>2024-09-13T10:28:22.000Z</time>
      </trkpt>
      <trkpt lat="44.38552" lon="7.03022">
        <ele>2380</ele>
        <time>2024-09-13T10:28:23.000Z</time>
      </trkpt>
      <trkpt lat="44.38553" lon="7.03025">
        <ele>2380</ele>
        <time>2024-09-13T10:28:24.000Z</time>
      </trkpt>
      <trkpt lat="44.38554" lon="7.03028">
        <ele>2380</ele>
        <time>2024-09-13T10:28:25.000Z</time>
      </trkpt>
      <trkpt lat="44.38555" lon="7.03031">
        <ele>2380</ele>
        <time>2024-09-13T10:28:26.000Z</time>
      </trkpt>
      <trkpt lat="44.38555" lon="7.03034">
        <ele>2380</ele>
        <time>2024-09-13T10:28:27.000Z</time>
      </trkpt>
      <trkpt lat="44.38556" lon="7.03037">
        <ele>2380</ele>
        <time>2024-09-13T10:28:28.000Z</time>
      </trkpt>
      <trkpt lat="44.38557" lon="7.0304">
        <ele>2380.1999511719</ele>
        <time>2024-09-13T10:28:29.000Z</time>
      </trkpt>
      <trkpt lat="44.38559" lon="7.03042">
        <ele>2380.3999023438</ele>
        <time>2024-09-13T10:28:30.000Z</time>
      </trkpt>
      <trkpt lat="44.38562" lon="7.03046">
        <ele>2380.6000976562</ele>
        <time>2024-09-13T10:28:32.000Z</time>
      </trkpt>
      <trkpt lat="44.38567" lon="7.03052">
        <ele>2381</ele>
        <time>2024-09-13T10:28:35.000Z</time>
      </trkpt>
      <trkpt lat="44.38569" lon="7.03054">
        <ele>2381</ele>
        <time>2024-09-13T10:28:36.000Z</time>
      </trkpt>
      <trkpt lat="44.38572" lon="7.03058">
        <ele>2381.3999023438</ele>
        <time>2024-09-13T10:28:38.000Z</time>
      </trkpt>
      <trkpt lat="44.38576" lon="7.03062">
        <ele>2381.6000976562</ele>
        <time>2024-09-13T10:28:40.000Z</time>
      </trkpt>
      <trkpt lat="44.38578" lon="7.03064">
        <ele>2381.8000488281</ele>
        <time>2024-09-13T10:28:41.000Z</time>
      </trkpt>
      <trkpt lat="44.38585" lon="7.03073">
        <ele>2382.1999511719</ele>
        <time>2024-09-13T10:28:45.000Z</time>
      </trkpt>
      <trkpt lat="44.38588" lon="7.03078">
        <ele>2382.1999511719</ele>
        <time>2024-09-13T10:28:47.000Z</time>
      </trkpt>
      <trkpt lat="44.3859" lon="7.0308">
        <ele>2382.3999023438</ele>
        <time>2024-09-13T10:28:48.000Z</time>
      </trkpt>
      <trkpt lat="44.38591" lon="7.03082">
        <ele>2382.3999023438</ele>
        <time>2024-09-13T10:28:49.000Z</time>
      </trkpt>
      <trkpt lat="44.38596" lon="7.03088">
        <ele>2383</ele>
        <time>2024-09-13T10:28:52.000Z</time>
      </trkpt>
      <trkpt lat="44.38598" lon="7.0309">
        <ele>2383.1999511719</ele>
        <time>2024-09-13T10:28:53.000Z</time>
      </trkpt>
      <trkpt lat="44.38599" lon="7.03093">
        <ele>2383.3999023438</ele>
        <time>2024-09-13T10:28:54.000Z</time>
      </trkpt>
      <trkpt lat="44.38601" lon="7.03094">
        <ele>2383.6000976562</ele>
        <time>2024-09-13T10:28:55.000Z</time>
      </trkpt>
      <trkpt lat="44.38603" lon="7.03096">
        <ele>2383.6000976562</ele>
        <time>2024-09-13T10:28:56.000Z</time>
      </trkpt>
      <trkpt lat="44.38604" lon="7.03098">
        <ele>2383.8000488281</ele>
        <time>2024-09-13T10:28:57.000Z</time>
      </trkpt>
      <trkpt lat="44.38606" lon="7.031">
        <ele>2384.1999511719</ele>
        <time>2024-09-13T10:28:58.000Z</time>
      </trkpt>
      <trkpt lat="44.38608" lon="7.03102">
        <ele>2384.1999511719</ele>
        <time>2024-09-13T10:28:59.000Z</time>
      </trkpt>
      <trkpt lat="44.38609" lon="7.03104">
        <ele>2384.3999023438</ele>
        <time>2024-09-13T10:29:00.000Z</time>
      </trkpt>
      <trkpt lat="44.3861" lon="7.03106">
        <ele>2384.3999023438</ele>
        <time>2024-09-13T10:29:01.000Z</time>
      </trkpt>
      <trkpt lat="44.38611" lon="7.03108">
        <ele>2384.8000488281</ele>
        <time>2024-09-13T10:29:02.000Z</time>
      </trkpt>
      <trkpt lat="44.38612" lon="7.0311">
        <ele>2384.8000488281</ele>
        <time>2024-09-13T10:29:03.000Z</time>
      </trkpt>
      <trkpt lat="44.38614" lon="7.03112">
        <ele>2385</ele>
        <time>2024-09-13T10:29:04.000Z</time>
      </trkpt>
      <trkpt lat="44.38615" lon="7.03115">
        <ele>2385.1999511719</ele>
        <time>2024-09-13T10:29:05.000Z</time>
      </trkpt>
      <trkpt lat="44.38616" lon="7.03117">
        <ele>2385.3999023438</ele>
        <time>2024-09-13T10:29:06.000Z</time>
      </trkpt>
      <trkpt lat="44.38618" lon="7.0312">
        <ele>2385.3999023438</ele>
        <time>2024-09-13T10:29:07.000Z</time>
      </trkpt>
      <trkpt lat="44.38619" lon="7.03122">
        <ele>2385.3999023438</ele>
        <time>2024-09-13T10:29:08.000Z</time>
      </trkpt>
      <trkpt lat="44.3862" lon="7.03125">
        <ele>2385.6000976562</ele>
        <time>2024-09-13T10:29:09.000Z</time>
      </trkpt>
      <trkpt lat="44.38621" lon="7.03128">
        <ele>2385.8000488281</ele>
        <time>2024-09-13T10:29:10.000Z</time>
      </trkpt>
      <trkpt lat="44.38622" lon="7.03131">
        <ele>2386</ele>
        <time>2024-09-13T10:29:11.000Z</time>
      </trkpt>
      <trkpt lat="44.38622" lon="7.03134">
        <ele>2386</ele>
        <time>2024-09-13T10:29:12.000Z</time>
      </trkpt>
      <trkpt lat="44.38623" lon="7.03137">
        <ele>2386.1999511719</ele>
        <time>2024-09-13T10:29:13.000Z</time>
      </trkpt>
      <trkpt lat="44.38624" lon="7.0314">
        <ele>2386.1999511719</ele>
        <time>2024-09-13T10:29:14.000Z</time>
      </trkpt>
      <trkpt lat="44.38625" lon="7.03142">
        <ele>2386.1999511719</ele>
        <time>2024-09-13T10:29:15.000Z</time>
      </trkpt>
      <trkpt lat="44.38626" lon="7.03145">
        <ele>2386.3999023438</ele>
        <time>2024-09-13T10:29:16.000Z</time>
      </trkpt>
      <trkpt lat="44.38626" lon="7.03147">
        <ele>2386.3999023438</ele>
        <time>2024-09-13T10:29:17.000Z</time>
      </trkpt>
      <trkpt lat="44.38628" lon="7.0315">
        <ele>2386.6000976562</ele>
        <time>2024-09-13T10:29:18.000Z</time>
      </trkpt>
      <trkpt lat="44.38629" lon="7.03153">
        <ele>2386.8000488281</ele>
        <time>2024-09-13T10:29:19.000Z</time>
      </trkpt>
      <trkpt lat="44.38629" lon="7.03155">
        <ele>2386.8000488281</ele>
        <time>2024-09-13T10:29:20.000Z</time>
      </trkpt>
      <trkpt lat="44.38629" lon="7.03158">
        <ele>2386.8000488281</ele>
        <time>2024-09-13T10:29:21.000Z</time>
      </trkpt>
      <trkpt lat="44.3863" lon="7.03161">
        <ele>2386.8000488281</ele>
        <time>2024-09-13T10:29:22.000Z</time>
      </trkpt>
      <trkpt lat="44.38629" lon="7.03163">
        <ele>2386.8000488281</ele>
        <time>2024-09-13T10:29:23.000Z</time>
      </trkpt>
      <trkpt lat="44.38629" lon="7.03165">
        <ele>2386.8000488281</ele>
        <time>2024-09-13T10:29:24.000Z</time>
      </trkpt>
      <trkpt lat="44.38628" lon="7.03167">
        <ele>2387</ele>
        <time>2024-09-13T10:29:25.000Z</time>
      </trkpt>
      <trkpt lat="44.38628" lon="7.03169">
        <ele>2387</ele>
        <time>2024-09-13T10:29:26.000Z</time>
      </trkpt>
      <trkpt lat="44.38627" lon="7.03172">
        <ele>2387.1999511719</ele>
        <time>2024-09-13T10:29:27.000Z</time>
      </trkpt>
      <trkpt lat="44.38626" lon="7.03174">
        <ele>2387.1999511719</ele>
        <time>2024-09-13T10:29:28.000Z</time>
      </trkpt>
      <trkpt lat="44.38626" lon="7.03177">
        <ele>2387.1999511719</ele>
        <time>2024-09-13T10:29:29.000Z</time>
      </trkpt>
      <trkpt lat="44.38625" lon="7.03179">
        <ele>2387.8000488281</ele>
        <time>2024-09-13T10:29:30.000Z</time>
      </trkpt>
      <trkpt lat="44.38625" lon="7.03182">
        <ele>2388</ele>
        <time>2024-09-13T10:29:31.000Z</time>
      </trkpt>
      <trkpt lat="44.38625" lon="7.03184">
        <ele>2388.1999511719</ele>
        <time>2024-09-13T10:29:32.000Z</time>
      </trkpt>
      <trkpt lat="44.38624" lon="7.03186">
        <ele>2388.3999023438</ele>
        <time>2024-09-13T10:29:33.000Z</time>
      </trkpt>
      <trkpt lat="44.38624" lon="7.03188">
        <ele>2388.3999023438</ele>
        <time>2024-09-13T10:29:34.000Z</time>
      </trkpt>
      <trkpt lat="44.38624" lon="7.0319">
        <ele>2388.3999023438</ele>
        <time>2024-09-13T10:29:35.000Z</time>
      </trkpt>
      <trkpt lat="44.38624" lon="7.03193">
        <ele>2388.3999023438</ele>
        <time>2024-09-13T10:29:36.000Z</time>
      </trkpt>
      <trkpt lat="44.38623" lon="7.03194">
        <ele>2388.6000976562</ele>
        <time>2024-09-13T10:29:37.000Z</time>
      </trkpt>
      <trkpt lat="44.38623" lon="7.03197">
        <ele>2388.6000976562</ele>
        <time>2024-09-13T10:29:38.000Z</time>
      </trkpt>
      <trkpt lat="44.38622" lon="7.03199">
        <ele>2388.6000976562</ele>
        <time>2024-09-13T10:29:39.000Z</time>
      </trkpt>
      <trkpt lat="44.38622" lon="7.03202">
        <ele>2388.8000488281</ele>
        <time>2024-09-13T10:29:40.000Z</time>
      </trkpt>
      <trkpt lat="44.38621" lon="7.03204">
        <ele>2389</ele>
        <time>2024-09-13T10:29:41.000Z</time>
      </trkpt>
      <trkpt lat="44.38621" lon="7.03207">
        <ele>2389</ele>
        <time>2024-09-13T10:29:42.000Z</time>
      </trkpt>
      <trkpt lat="44.38621" lon="7.03209">
        <ele>2389.1999511719</ele>
        <time>2024-09-13T10:29:43.000Z</time>
      </trkpt>
      <trkpt lat="44.3862" lon="7.03211">
        <ele>2389.3999023438</ele>
        <time>2024-09-13T10:29:44.000Z</time>
      </trkpt>
      <trkpt lat="44.3862" lon="7.03213">
        <ele>2389.6000976562</ele>
        <time>2024-09-13T10:29:45.000Z</time>
      </trkpt>
      <trkpt lat="44.3862" lon="7.03216">
        <ele>2389.6000976562</ele>
        <time>2024-09-13T10:29:46.000Z</time>
      </trkpt>
      <trkpt lat="44.3862" lon="7.03218">
        <ele>2389.6000976562</ele>
        <time>2024-09-13T10:29:47.000Z</time>
      </trkpt>
      <trkpt lat="44.3862" lon="7.03221">
        <ele>2389.8000488281</ele>
        <time>2024-09-13T10:29:48.000Z</time>
      </trkpt>
      <trkpt lat="44.3862" lon="7.03223">
        <ele>2390</ele>
        <time>2024-09-13T10:29:49.000Z</time>
      </trkpt>
      <trkpt lat="44.3862" lon="7.03225">
        <ele>2390.1999511719</ele>
        <time>2024-09-13T10:29:50.000Z</time>
      </trkpt>
      <trkpt lat="44.3862" lon="7.03227">
        <ele>2390.1999511719</ele>
        <time>2024-09-13T10:29:51.000Z</time>
      </trkpt>
      <trkpt lat="44.3862" lon="7.0323">
        <ele>2390.6000976562</ele>
        <time>2024-09-13T10:29:52.000Z</time>
      </trkpt>
      <trkpt lat="44.3862" lon="7.03232">
        <ele>2390.6000976562</ele>
        <time>2024-09-13T10:29:53.000Z</time>
      </trkpt>
      <trkpt lat="44.3862" lon="7.03235">
        <ele>2390.8000488281</ele>
        <time>2024-09-13T10:29:54.000Z</time>
      </trkpt>
      <trkpt lat="44.38619" lon="7.03237">
        <ele>2391</ele>
        <time>2024-09-13T10:29:55.000Z</time>
      </trkpt>
      <trkpt lat="44.38619" lon="7.03239">
        <ele>2391.1999511719</ele>
        <time>2024-09-13T10:29:56.000Z</time>
      </trkpt>
      <trkpt lat="44.38618" lon="7.03242">
        <ele>2391.6000976562</ele>
        <time>2024-09-13T10:29:57.000Z</time>
      </trkpt>
      <trkpt lat="44.38617" lon="7.03244">
        <ele>2391.6000976562</ele>
        <time>2024-09-13T10:29:58.000Z</time>
      </trkpt>
      <trkpt lat="44.38616" lon="7.03246">
        <ele>2391.8000488281</ele>
        <time>2024-09-13T10:29:59.000Z</time>
      </trkpt>
      <trkpt lat="44.38616" lon="7.03248">
        <ele>2391.8000488281</ele>
        <time>2024-09-13T10:30:00.000Z</time>
      </trkpt>
      <trkpt lat="44.38615" lon="7.0325">
        <ele>2392</ele>
        <time>2024-09-13T10:30:01.000Z</time>
      </trkpt>
      <trkpt lat="44.38615" lon="7.03252">
        <ele>2392.1999511719</ele>
        <time>2024-09-13T10:30:02.000Z</time>
      </trkpt>
      <trkpt lat="44.38615" lon="7.03254">
        <ele>2392.3999023438</ele>
        <time>2024-09-13T10:30:03.000Z</time>
      </trkpt>
      <trkpt lat="44.38614" lon="7.03256">
        <ele>2392.3999023438</ele>
        <time>2024-09-13T10:30:04.000Z</time>
      </trkpt>
      <trkpt lat="44.38614" lon="7.03258">
        <ele>2392.6000976562</ele>
        <time>2024-09-13T10:30:05.000Z</time>
      </trkpt>
      <trkpt lat="44.38613" lon="7.0326">
        <ele>2392.8000488281</ele>
        <time>2024-09-13T10:30:06.000Z</time>
      </trkpt>
      <trkpt lat="44.38612" lon="7.03262">
        <ele>2393</ele>
        <time>2024-09-13T10:30:07.000Z</time>
      </trkpt>
      <trkpt lat="44.38611" lon="7.03264">
        <ele>2393.1999511719</ele>
        <time>2024-09-13T10:30:08.000Z</time>
      </trkpt>
      <trkpt lat="44.3861" lon="7.03266">
        <ele>2393.3999023438</ele>
        <time>2024-09-13T10:30:09.000Z</time>
      </trkpt>
      <trkpt lat="44.38609" lon="7.03268">
        <ele>2393.6000976562</ele>
        <time>2024-09-13T10:30:10.000Z</time>
      </trkpt>
      <trkpt lat="44.38609" lon="7.0327">
        <ele>2393.8000488281</ele>
        <time>2024-09-13T10:30:11.000Z</time>
      </trkpt>
      <trkpt lat="44.38608" lon="7.03272">
        <ele>2393.8000488281</ele>
        <time>2024-09-13T10:30:12.000Z</time>
      </trkpt>
      <trkpt lat="44.38607" lon="7.03274">
        <ele>2393.8000488281</ele>
        <time>2024-09-13T10:30:13.000Z</time>
      </trkpt>
      <trkpt lat="44.38606" lon="7.03276">
        <ele>2394</ele>
        <time>2024-09-13T10:30:14.000Z</time>
      </trkpt>
      <trkpt lat="44.38605" lon="7.03278">
        <ele>2394.1999511719</ele>
        <time>2024-09-13T10:30:15.000Z</time>
      </trkpt>
      <trkpt lat="44.38604" lon="7.03279">
        <ele>2394.3999023438</ele>
        <time>2024-09-13T10:30:16.000Z</time>
      </trkpt>
      <trkpt lat="44.38603" lon="7.03281">
        <ele>2394.3999023438</ele>
        <time>2024-09-13T10:30:17.000Z</time>
      </trkpt>
      <trkpt lat="44.38602" lon="7.03283">
        <ele>2394.8000488281</ele>
        <time>2024-09-13T10:30:18.000Z</time>
      </trkpt>
      <trkpt lat="44.38601" lon="7.03284">
        <ele>2395</ele>
        <time>2024-09-13T10:30:19.000Z</time>
      </trkpt>
      <trkpt lat="44.38601" lon="7.03286">
        <ele>2395.3999023438</ele>
        <time>2024-09-13T10:30:20.000Z</time>
      </trkpt>
      <trkpt lat="44.386" lon="7.03288">
        <ele>2395.6000976562</ele>
        <time>2024-09-13T10:30:21.000Z</time>
      </trkpt>
      <trkpt lat="44.38599" lon="7.0329">
        <ele>2395.8000488281</ele>
        <time>2024-09-13T10:30:22.000Z</time>
      </trkpt>
      <trkpt lat="44.38598" lon="7.03292">
        <ele>2395.8000488281</ele>
        <time>2024-09-13T10:30:23.000Z</time>
      </trkpt>
      <trkpt lat="44.38597" lon="7.03294">
        <ele>2396</ele>
        <time>2024-09-13T10:30:24.000Z</time>
      </trkpt>
      <trkpt lat="44.38597" lon="7.03296">
        <ele>2396.1999511719</ele>
        <time>2024-09-13T10:30:25.000Z</time>
      </trkpt>
      <trkpt lat="44.38597" lon="7.03298">
        <ele>2396.3999023438</ele>
        <time>2024-09-13T10:30:26.000Z</time>
      </trkpt>
      <trkpt lat="44.38596" lon="7.033">
        <ele>2396.6000976562</ele>
        <time>2024-09-13T10:30:27.000Z</time>
      </trkpt>
      <trkpt lat="44.38596" lon="7.03303">
        <ele>2396.8000488281</ele>
        <time>2024-09-13T10:30:28.000Z</time>
      </trkpt>
      <trkpt lat="44.38596" lon="7.03305">
        <ele>2397</ele>
        <time>2024-09-13T10:30:29.000Z</time>
      </trkpt>
      <trkpt lat="44.38596" lon="7.03307">
        <ele>2397</ele>
        <time>2024-09-13T10:30:30.000Z</time>
      </trkpt>
      <trkpt lat="44.38596" lon="7.03309">
        <ele>2397.3999023438</ele>
        <time>2024-09-13T10:30:31.000Z</time>
      </trkpt>
      <trkpt lat="44.38596" lon="7.03311">
        <ele>2397.6000976562</ele>
        <time>2024-09-13T10:30:32.000Z</time>
      </trkpt>
      <trkpt lat="44.38596" lon="7.03313">
        <ele>2397.8000488281</ele>
        <time>2024-09-13T10:30:33.000Z</time>
      </trkpt>
      <trkpt lat="44.38596" lon="7.03315">
        <ele>2397.8000488281</ele>
        <time>2024-09-13T10:30:34.000Z</time>
      </trkpt>
      <trkpt lat="44.38596" lon="7.03318">
        <ele>2398.1999511719</ele>
        <time>2024-09-13T10:30:35.000Z</time>
      </trkpt>
      <trkpt lat="44.38596" lon="7.0332">
        <ele>2398.3999023438</ele>
        <time>2024-09-13T10:30:36.000Z</time>
      </trkpt>
      <trkpt lat="44.38596" lon="7.03323">
        <ele>2398.3999023438</ele>
        <time>2024-09-13T10:30:37.000Z</time>
      </trkpt>
      <trkpt lat="44.38596" lon="7.03325">
        <ele>2398.6000976562</ele>
        <time>2024-09-13T10:30:38.000Z</time>
      </trkpt>
      <trkpt lat="44.38596" lon="7.03327">
        <ele>2398.8000488281</ele>
        <time>2024-09-13T10:30:39.000Z</time>
      </trkpt>
      <trkpt lat="44.38596" lon="7.03329">
        <ele>2398.8000488281</ele>
        <time>2024-09-13T10:30:40.000Z</time>
      </trkpt>
      <trkpt lat="44.38596" lon="7.03331">
        <ele>2398.8000488281</ele>
        <time>2024-09-13T10:30:41.000Z</time>
      </trkpt>
      <trkpt lat="44.38596" lon="7.03333">
        <ele>2399</ele>
        <time>2024-09-13T10:30:42.000Z</time>
      </trkpt>
      <trkpt lat="44.38597" lon="7.03336">
        <ele>2399.1999511719</ele>
        <time>2024-09-13T10:30:43.000Z</time>
      </trkpt>
      <trkpt lat="44.38597" lon="7.03338">
        <ele>2399.1999511719</ele>
        <time>2024-09-13T10:30:44.000Z</time>
      </trkpt>
      <trkpt lat="44.38597" lon="7.0334">
        <ele>2399.6000976562</ele>
        <time>2024-09-13T10:30:45.000Z</time>
      </trkpt>
      <trkpt lat="44.38597" lon="7.03342">
        <ele>2399.8000488281</ele>
        <time>2024-09-13T10:30:46.000Z</time>
      </trkpt>
      <trkpt lat="44.38598" lon="7.03344">
        <ele>2400</ele>
        <time>2024-09-13T10:30:47.000Z</time>
      </trkpt>
      <trkpt lat="44.38598" lon="7.03346">
        <ele>2400.1999511719</ele>
        <time>2024-09-13T10:30:48.000Z</time>
      </trkpt>
      <trkpt lat="44.38599" lon="7.03348">
        <ele>2400.3999023438</ele>
        <time>2024-09-13T10:30:49.000Z</time>
      </trkpt>
      <trkpt lat="44.386" lon="7.0335">
        <ele>2400.6000976562</ele>
        <time>2024-09-13T10:30:50.000Z</time>
      </trkpt>
      <trkpt lat="44.386" lon="7.03352">
        <ele>2400.8000488281</ele>
        <time>2024-09-13T10:30:51.000Z</time>
      </trkpt>
      <trkpt lat="44.38601" lon="7.03354">
        <ele>2401.1999511719</ele>
        <time>2024-09-13T10:30:52.000Z</time>
      </trkpt>
      <trkpt lat="44.38601" lon="7.03356">
        <ele>2401.3999023438</ele>
        <time>2024-09-13T10:30:53.000Z</time>
      </trkpt>
      <trkpt lat="44.38602" lon="7.03359">
        <ele>2401.3999023438</ele>
        <time>2024-09-13T10:30:54.000Z</time>
      </trkpt>
      <trkpt lat="44.38602" lon="7.03361">
        <ele>2401.6000976562</ele>
        <time>2024-09-13T10:30:55.000Z</time>
      </trkpt>
      <trkpt lat="44.38603" lon="7.03363">
        <ele>2401.8000488281</ele>
        <time>2024-09-13T10:30:56.000Z</time>
      </trkpt>
      <trkpt lat="44.38604" lon="7.03365">
        <ele>2402</ele>
        <time>2024-09-13T10:30:57.000Z</time>
      </trkpt>
      <trkpt lat="44.38605" lon="7.03367">
        <ele>2402</ele>
        <time>2024-09-13T10:30:58.000Z</time>
      </trkpt>
      <trkpt lat="44.38605" lon="7.03369">
        <ele>2402.3999023438</ele>
        <time>2024-09-13T10:30:59.000Z</time>
      </trkpt>
      <trkpt lat="44.38606" lon="7.0337">
        <ele>2402.3999023438</ele>
        <time>2024-09-13T10:31:00.000Z</time>
      </trkpt>
      <trkpt lat="44.38607" lon="7.03373">
        <ele>2402.6000976562</ele>
        <time>2024-09-13T10:31:01.000Z</time>
      </trkpt>
      <trkpt lat="44.38608" lon="7.03375">
        <ele>2402.8000488281</ele>
        <time>2024-09-13T10:31:02.000Z</time>
      </trkpt>
      <trkpt lat="44.38609" lon="7.03377">
        <ele>2403</ele>
        <time>2024-09-13T10:31:03.000Z</time>
      </trkpt>
      <trkpt lat="44.3861" lon="7.03379">
        <ele>2403.3999023438</ele>
        <time>2024-09-13T10:31:04.000Z</time>
      </trkpt>
      <trkpt lat="44.38611" lon="7.03382">
        <ele>2403.3999023438</ele>
        <time>2024-09-13T10:31:05.000Z</time>
      </trkpt>
      <trkpt lat="44.38612" lon="7.03383">
        <ele>2403.6000976562</ele>
        <time>2024-09-13T10:31:06.000Z</time>
      </trkpt>
      <trkpt lat="44.38613" lon="7.03385">
        <ele>2403.6000976562</ele>
        <time>2024-09-13T10:31:07.000Z</time>
      </trkpt>
      <trkpt lat="44.38614" lon="7.03387">
        <ele>2403.8000488281</ele>
        <time>2024-09-13T10:31:08.000Z</time>
      </trkpt>
      <trkpt lat="44.38614" lon="7.03388">
        <ele>2404</ele>
        <time>2024-09-13T10:31:09.000Z</time>
      </trkpt>
      <trkpt lat="44.38615" lon="7.0339">
        <ele>2404.1999511719</ele>
        <time>2024-09-13T10:31:10.000Z</time>
      </trkpt>
      <trkpt lat="44.38616" lon="7.03393">
        <ele>2404.1999511719</ele>
        <time>2024-09-13T10:31:11.000Z</time>
      </trkpt>
      <trkpt lat="44.38616" lon="7.03395">
        <ele>2404.6000976562</ele>
        <time>2024-09-13T10:31:12.000Z</time>
      </trkpt>
      <trkpt lat="44.38617" lon="7.03397">
        <ele>2404.8000488281</ele>
        <time>2024-09-13T10:31:13.000Z</time>
      </trkpt>
      <trkpt lat="44.38617" lon="7.034">
        <ele>2405.1999511719</ele>
        <time>2024-09-13T10:31:14.000Z</time>
      </trkpt>
      <trkpt lat="44.38617" lon="7.03402">
        <ele>2405.1999511719</ele>
        <time>2024-09-13T10:31:15.000Z</time>
      </trkpt>
      <trkpt lat="44.38618" lon="7.03404">
        <ele>2405.1999511719</ele>
        <time>2024-09-13T10:31:16.000Z</time>
      </trkpt>
      <trkpt lat="44.38618" lon="7.03406">
        <ele>2405.3999023438</ele>
        <time>2024-09-13T10:31:17.000Z</time>
      </trkpt>
      <trkpt lat="44.38618" lon="7.03408">
        <ele>2405.8000488281</ele>
        <time>2024-09-13T10:31:18.000Z</time>
      </trkpt>
      <trkpt lat="44.38619" lon="7.0341">
        <ele>2406</ele>
        <time>2024-09-13T10:31:19.000Z</time>
      </trkpt>
      <trkpt lat="44.38619" lon="7.03411">
        <ele>2406.1999511719</ele>
        <time>2024-09-13T10:31:20.000Z</time>
      </trkpt>
      <trkpt lat="44.38618" lon="7.03413">
        <ele>2406.1999511719</ele>
        <time>2024-09-13T10:31:21.000Z</time>
      </trkpt>
      <trkpt lat="44.38617" lon="7.03416">
        <ele>2406.1999511719</ele>
        <time>2024-09-13T10:31:22.000Z</time>
      </trkpt>
      <trkpt lat="44.38617" lon="7.03418">
        <ele>2406.1999511719</ele>
        <time>2024-09-13T10:31:23.000Z</time>
      </trkpt>
      <trkpt lat="44.38617" lon="7.0342">
        <ele>2406.1999511719</ele>
        <time>2024-09-13T10:31:24.000Z</time>
      </trkpt>
      <trkpt lat="44.38616" lon="7.03422">
        <ele>2406.1999511719</ele>
        <time>2024-09-13T10:31:25.000Z</time>
      </trkpt>
      <trkpt lat="44.38615" lon="7.03424">
        <ele>2406.1999511719</ele>
        <time>2024-09-13T10:31:26.000Z</time>
      </trkpt>
      <trkpt lat="44.38614" lon="7.03426">
        <ele>2406.1999511719</ele>
        <time>2024-09-13T10:31:27.000Z</time>
      </trkpt>
      <trkpt lat="44.38614" lon="7.03428">
        <ele>2406.1999511719</ele>
        <time>2024-09-13T10:31:28.000Z</time>
      </trkpt>
      <trkpt lat="44.38613" lon="7.0343">
        <ele>2406.1999511719</ele>
        <time>2024-09-13T10:31:29.000Z</time>
      </trkpt>
      <trkpt lat="44.38611" lon="7.03431">
        <ele>2406.3999023438</ele>
        <time>2024-09-13T10:31:30.000Z</time>
      </trkpt>
      <trkpt lat="44.3861" lon="7.03433">
        <ele>2406.3999023438</ele>
        <time>2024-09-13T10:31:31.000Z</time>
      </trkpt>
      <trkpt lat="44.38609" lon="7.03435">
        <ele>2406.3999023438</ele>
        <time>2024-09-13T10:31:32.000Z</time>
      </trkpt>
      <trkpt lat="44.38607" lon="7.03437">
        <ele>2406.3999023438</ele>
        <time>2024-09-13T10:31:33.000Z</time>
      </trkpt>
      <trkpt lat="44.38606" lon="7.03439">
        <ele>2406.3999023438</ele>
        <time>2024-09-13T10:31:34.000Z</time>
      </trkpt>
      <trkpt lat="44.38605" lon="7.03442">
        <ele>2406.3999023438</ele>
        <time>2024-09-13T10:31:35.000Z</time>
      </trkpt>
      <trkpt lat="44.38603" lon="7.03444">
        <ele>2406.3999023438</ele>
        <time>2024-09-13T10:31:36.000Z</time>
      </trkpt>
      <trkpt lat="44.386" lon="7.03448">
        <ele>2406.1999511719</ele>
        <time>2024-09-13T10:31:38.000Z</time>
      </trkpt>
      <trkpt lat="44.38599" lon="7.03451">
        <ele>2406.1999511719</ele>
        <time>2024-09-13T10:31:39.000Z</time>
      </trkpt>
      <trkpt lat="44.38594" lon="7.03457">
        <ele>2406.3999023438</ele>
        <time>2024-09-13T10:31:42.000Z</time>
      </trkpt>
      <trkpt lat="44.38587" lon="7.0347">
        <ele>2406.3999023438</ele>
        <time>2024-09-13T10:31:47.000Z</time>
      </trkpt>
      <trkpt lat="44.38586" lon="7.03472">
        <ele>2406.1999511719</ele>
        <time>2024-09-13T10:31:48.000Z</time>
      </trkpt>
      <trkpt lat="44.38585" lon="7.03475">
        <ele>2406.1999511719</ele>
        <time>2024-09-13T10:31:49.000Z</time>
      </trkpt>
      <trkpt lat="44.38583" lon="7.03477">
        <ele>2406.1999511719</ele>
        <time>2024-09-13T10:31:50.000Z</time>
      </trkpt>
      <trkpt lat="44.38582" lon="7.0348">
        <ele>2406.1999511719</ele>
        <time>2024-09-13T10:31:51.000Z</time>
      </trkpt>
      <trkpt lat="44.38576" lon="7.03489">
        <ele>2406.3999023438</ele>
        <time>2024-09-13T10:31:55.000Z</time>
      </trkpt>
      <trkpt lat="44.38575" lon="7.03491">
        <ele>2406.3999023438</ele>
        <time>2024-09-13T10:31:56.000Z</time>
      </trkpt>
      <trkpt lat="44.38574" lon="7.03494">
        <ele>2406.6000976562</ele>
        <time>2024-09-13T10:31:57.000Z</time>
      </trkpt>
      <trkpt lat="44.38573" lon="7.03495">
        <ele>2406.6000976562</ele>
        <time>2024-09-13T10:31:58.000Z</time>
      </trkpt>
      <trkpt lat="44.38572" lon="7.03497">
        <ele>2406.8000488281</ele>
        <time>2024-09-13T10:31:59.000Z</time>
      </trkpt>
      <trkpt lat="44.38571" lon="7.03499">
        <ele>2407</ele>
        <time>2024-09-13T10:32:00.000Z</time>
      </trkpt>
      <trkpt lat="44.38569" lon="7.03504">
        <ele>2407.6000976562</ele>
        <time>2024-09-13T10:32:03.000Z</time>
      </trkpt>
      <trkpt lat="44.38567" lon="7.03509">
        <ele>2408</ele>
        <time>2024-09-13T10:32:05.000Z</time>
      </trkpt>
      <trkpt lat="44.38564" lon="7.03515">
        <ele>2408.8000488281</ele>
        <time>2024-09-13T10:32:08.000Z</time>
      </trkpt>
      <trkpt lat="44.38563" lon="7.03517">
        <ele>2409</ele>
        <time>2024-09-13T10:32:09.000Z</time>
      </trkpt>
      <trkpt lat="44.38562" lon="7.03519">
        <ele>2409.1999511719</ele>
        <time>2024-09-13T10:32:10.000Z</time>
      </trkpt>
      <trkpt lat="44.38561" lon="7.03521">
        <ele>2409.1999511719</ele>
        <time>2024-09-13T10:32:11.000Z</time>
      </trkpt>
      <trkpt lat="44.3856" lon="7.03523">
        <ele>2409.3999023438</ele>
        <time>2024-09-13T10:32:12.000Z</time>
      </trkpt>
      <trkpt lat="44.38558" lon="7.03525">
        <ele>2409.8000488281</ele>
        <time>2024-09-13T10:32:13.000Z</time>
      </trkpt>
      <trkpt lat="44.38557" lon="7.03527">
        <ele>2410</ele>
        <time>2024-09-13T10:32:14.000Z</time>
      </trkpt>
      <trkpt lat="44.38556" lon="7.03529">
        <ele>2410.1999511719</ele>
        <time>2024-09-13T10:32:15.000Z</time>
      </trkpt>
      <trkpt lat="44.38555" lon="7.0353">
        <ele>2410.6000976562</ele>
        <time>2024-09-13T10:32:16.000Z</time>
      </trkpt>
      <trkpt lat="44.38554" lon="7.03532">
        <ele>2410.6000976562</ele>
        <time>2024-09-13T10:32:17.000Z</time>
      </trkpt>
      <trkpt lat="44.38552" lon="7.03534">
        <ele>2410.8000488281</ele>
        <time>2024-09-13T10:32:18.000Z</time>
      </trkpt>
      <trkpt lat="44.38551" lon="7.03536">
        <ele>2411</ele>
        <time>2024-09-13T10:32:19.000Z</time>
      </trkpt>
      <trkpt lat="44.3855" lon="7.03538">
        <ele>2411.3999023438</ele>
        <time>2024-09-13T10:32:20.000Z</time>
      </trkpt>
      <trkpt lat="44.38549" lon="7.03539">
        <ele>2411.3999023438</ele>
        <time>2024-09-13T10:32:21.000Z</time>
      </trkpt>
      <trkpt lat="44.38548" lon="7.0354">
        <ele>2411.6000976562</ele>
        <time>2024-09-13T10:32:22.000Z</time>
      </trkpt>
      <trkpt lat="44.38548" lon="7.03541">
        <ele>2411.8000488281</ele>
        <time>2024-09-13T10:32:23.000Z</time>
      </trkpt>
      <trkpt lat="44.38547" lon="7.03543">
        <ele>2412</ele>
        <time>2024-09-13T10:32:24.000Z</time>
      </trkpt>
      <trkpt lat="44.38546" lon="7.03544">
        <ele>2412.1999511719</ele>
        <time>2024-09-13T10:32:25.000Z</time>
      </trkpt>
      <trkpt lat="44.38545" lon="7.03546">
        <ele>2412.3999023438</ele>
        <time>2024-09-13T10:32:26.000Z</time>
      </trkpt>
      <trkpt lat="44.38544" lon="7.03547">
        <ele>2412.6000976562</ele>
        <time>2024-09-13T10:32:27.000Z</time>
      </trkpt>
      <trkpt lat="44.38543" lon="7.03548">
        <ele>2412.8000488281</ele>
        <time>2024-09-13T10:32:28.000Z</time>
      </trkpt>
      <trkpt lat="44.38541" lon="7.03549">
        <ele>2413</ele>
        <time>2024-09-13T10:32:29.000Z</time>
      </trkpt>
      <trkpt lat="44.3854" lon="7.03551">
        <ele>2413.1999511719</ele>
        <time>2024-09-13T10:32:30.000Z</time>
      </trkpt>
      <trkpt lat="44.38539" lon="7.03552">
        <ele>2413.3999023438</ele>
        <time>2024-09-13T10:32:31.000Z</time>
      </trkpt>
      <trkpt lat="44.38537" lon="7.03554">
        <ele>2413.6000976562</ele>
        <time>2024-09-13T10:32:32.000Z</time>
      </trkpt>
      <trkpt lat="44.38536" lon="7.03555">
        <ele>2413.8000488281</ele>
        <time>2024-09-13T10:32:33.000Z</time>
      </trkpt>
      <trkpt lat="44.38535" lon="7.03556">
        <ele>2414</ele>
        <time>2024-09-13T10:32:34.000Z</time>
      </trkpt>
      <trkpt lat="44.38534" lon="7.03557">
        <ele>2414.1999511719</ele>
        <time>2024-09-13T10:32:35.000Z</time>
      </trkpt>
      <trkpt lat="44.38532" lon="7.03559">
        <ele>2414.1999511719</ele>
        <time>2024-09-13T10:32:36.000Z</time>
      </trkpt>
      <trkpt lat="44.38531" lon="7.0356">
        <ele>2414.3999023438</ele>
        <time>2024-09-13T10:32:37.000Z</time>
      </trkpt>
      <trkpt lat="44.3853" lon="7.03561">
        <ele>2414.3999023438</ele>
        <time>2024-09-13T10:32:38.000Z</time>
      </trkpt>
      <trkpt lat="44.38529" lon="7.03562">
        <ele>2414.6000976562</ele>
        <time>2024-09-13T10:32:39.000Z</time>
      </trkpt>
      <trkpt lat="44.38528" lon="7.03563">
        <ele>2415</ele>
        <time>2024-09-13T10:32:40.000Z</time>
      </trkpt>
      <trkpt lat="44.38527" lon="7.03564">
        <ele>2415.1999511719</ele>
        <time>2024-09-13T10:32:41.000Z</time>
      </trkpt>
      <trkpt lat="44.38526" lon="7.03566">
        <ele>2415.1999511719</ele>
        <time>2024-09-13T10:32:42.000Z</time>
      </trkpt>
      <trkpt lat="44.38525" lon="7.03567">
        <ele>2415.3999023438</ele>
        <time>2024-09-13T10:32:43.000Z</time>
      </trkpt>
      <trkpt lat="44.38524" lon="7.03568">
        <ele>2415.6000976562</ele>
        <time>2024-09-13T10:32:44.000Z</time>
      </trkpt>
      <trkpt lat="44.38523" lon="7.03569">
        <ele>2415.8000488281</ele>
        <time>2024-09-13T10:32:45.000Z</time>
      </trkpt>
      <trkpt lat="44.38522" lon="7.03571">
        <ele>2416.1999511719</ele>
        <time>2024-09-13T10:32:46.000Z</time>
      </trkpt>
      <trkpt lat="44.38521" lon="7.03572">
        <ele>2416.1999511719</ele>
        <time>2024-09-13T10:32:47.000Z</time>
      </trkpt>
      <trkpt lat="44.38519" lon="7.03573">
        <ele>2416.3999023438</ele>
        <time>2024-09-13T10:32:48.000Z</time>
      </trkpt>
      <trkpt lat="44.38518" lon="7.03574">
        <ele>2416.6000976562</ele>
        <time>2024-09-13T10:32:49.000Z</time>
      </trkpt>
      <trkpt lat="44.38517" lon="7.03575">
        <ele>2416.6000976562</ele>
        <time>2024-09-13T10:32:50.000Z</time>
      </trkpt>
      <trkpt lat="44.38516" lon="7.03576">
        <ele>2417.1999511719</ele>
        <time>2024-09-13T10:32:51.000Z</time>
      </trkpt>
      <trkpt lat="44.38515" lon="7.03577">
        <ele>2417.3999023438</ele>
        <time>2024-09-13T10:32:52.000Z</time>
      </trkpt>
      <trkpt lat="44.38514" lon="7.03578">
        <ele>2417.3999023438</ele>
        <time>2024-09-13T10:32:53.000Z</time>
      </trkpt>
      <trkpt lat="44.38513" lon="7.03579">
        <ele>2417.6000976562</ele>
        <time>2024-09-13T10:32:54.000Z</time>
      </trkpt>
      <trkpt lat="44.38511" lon="7.0358">
        <ele>2417.6000976562</ele>
        <time>2024-09-13T10:32:55.000Z</time>
      </trkpt>
      <trkpt lat="44.3851" lon="7.03581">
        <ele>2417.6000976562</ele>
        <time>2024-09-13T10:32:56.000Z</time>
      </trkpt>
      <trkpt lat="44.38509" lon="7.03582">
        <ele>2417.8000488281</ele>
        <time>2024-09-13T10:32:57.000Z</time>
      </trkpt>
      <trkpt lat="44.38508" lon="7.03584">
        <ele>2418</ele>
        <time>2024-09-13T10:32:58.000Z</time>
      </trkpt>
      <trkpt lat="44.38507" lon="7.03585">
        <ele>2418.1999511719</ele>
        <time>2024-09-13T10:32:59.000Z</time>
      </trkpt>
      <trkpt lat="44.38506" lon="7.03587">
        <ele>2418.6000976562</ele>
        <time>2024-09-13T10:33:00.000Z</time>
      </trkpt>
      <trkpt lat="44.38505" lon="7.03588">
        <ele>2418.6000976562</ele>
        <time>2024-09-13T10:33:01.000Z</time>
      </trkpt>
      <trkpt lat="44.38504" lon="7.0359">
        <ele>2418.8000488281</ele>
        <time>2024-09-13T10:33:02.000Z</time>
      </trkpt>
      <trkpt lat="44.38503" lon="7.03591">
        <ele>2419</ele>
        <time>2024-09-13T10:33:03.000Z</time>
      </trkpt>
      <trkpt lat="44.38502" lon="7.03593">
        <ele>2419</ele>
        <time>2024-09-13T10:33:04.000Z</time>
      </trkpt>
      <trkpt lat="44.38501" lon="7.03595">
        <ele>2419.1999511719</ele>
        <time>2024-09-13T10:33:05.000Z</time>
      </trkpt>
      <trkpt lat="44.385" lon="7.03597">
        <ele>2419.3999023438</ele>
        <time>2024-09-13T10:33:06.000Z</time>
      </trkpt>
      <trkpt lat="44.385" lon="7.03598">
        <ele>2419.6000976562</ele>
        <time>2024-09-13T10:33:07.000Z</time>
      </trkpt>
      <trkpt lat="44.38499" lon="7.036">
        <ele>2419.8000488281</ele>
        <time>2024-09-13T10:33:08.000Z</time>
      </trkpt>
      <trkpt lat="44.38499" lon="7.03601">
        <ele>2419.8000488281</ele>
        <time>2024-09-13T10:33:09.000Z</time>
      </trkpt>
      <trkpt lat="44.38498" lon="7.03603">
        <ele>2420</ele>
        <time>2024-09-13T10:33:10.000Z</time>
      </trkpt>
      <trkpt lat="44.38498" lon="7.03604">
        <ele>2420.1999511719</ele>
        <time>2024-09-13T10:33:11.000Z</time>
      </trkpt>
      <trkpt lat="44.38497" lon="7.03606">
        <ele>2420.3999023438</ele>
        <time>2024-09-13T10:33:12.000Z</time>
      </trkpt>
      <trkpt lat="44.38497" lon="7.03608">
        <ele>2420.6000976562</ele>
        <time>2024-09-13T10:33:13.000Z</time>
      </trkpt>
      <trkpt lat="44.38496" lon="7.03609">
        <ele>2420.8000488281</ele>
        <time>2024-09-13T10:33:14.000Z</time>
      </trkpt>
      <trkpt lat="44.38496" lon="7.03611">
        <ele>2420.8000488281</ele>
        <time>2024-09-13T10:33:15.000Z</time>
      </trkpt>
      <trkpt lat="44.38495" lon="7.03613">
        <ele>2421.1999511719</ele>
        <time>2024-09-13T10:33:16.000Z</time>
      </trkpt>
      <trkpt lat="44.38495" lon="7.03615">
        <ele>2421.3999023438</ele>
        <time>2024-09-13T10:33:17.000Z</time>
      </trkpt>
      <trkpt lat="44.38494" lon="7.03616">
        <ele>2421.6000976562</ele>
        <time>2024-09-13T10:33:18.000Z</time>
      </trkpt>
      <trkpt lat="44.38493" lon="7.03618">
        <ele>2421.8000488281</ele>
        <time>2024-09-13T10:33:19.000Z</time>
      </trkpt>
      <trkpt lat="44.38493" lon="7.03619">
        <ele>2422</ele>
        <time>2024-09-13T10:33:20.000Z</time>
      </trkpt>
      <trkpt lat="44.38492" lon="7.03621">
        <ele>2422</ele>
        <time>2024-09-13T10:33:21.000Z</time>
      </trkpt>
      <trkpt lat="44.38491" lon="7.03623">
        <ele>2422.1999511719</ele>
        <time>2024-09-13T10:33:22.000Z</time>
      </trkpt>
      <trkpt lat="44.38491" lon="7.03625">
        <ele>2422.1999511719</ele>
        <time>2024-09-13T10:33:23.000Z</time>
      </trkpt>
      <trkpt lat="44.3849" lon="7.03627">
        <ele>2422.3999023438</ele>
        <time>2024-09-13T10:33:24.000Z</time>
      </trkpt>
      <trkpt lat="44.3849" lon="7.03629">
        <ele>2422.6000976562</ele>
        <time>2024-09-13T10:33:25.000Z</time>
      </trkpt>
      <trkpt lat="44.3849" lon="7.03632">
        <ele>2422.8000488281</ele>
        <time>2024-09-13T10:33:26.000Z</time>
      </trkpt>
      <trkpt lat="44.3849" lon="7.03634">
        <ele>2422.8000488281</ele>
        <time>2024-09-13T10:33:27.000Z</time>
      </trkpt>
      <trkpt lat="44.38491" lon="7.03636">
        <ele>2423</ele>
        <time>2024-09-13T10:33:28.000Z</time>
      </trkpt>
      <trkpt lat="44.38491" lon="7.03638">
        <ele>2423.1999511719</ele>
        <time>2024-09-13T10:33:29.000Z</time>
      </trkpt>
      <trkpt lat="44.38491" lon="7.0364">
        <ele>2423.1999511719</ele>
        <time>2024-09-13T10:33:30.000Z</time>
      </trkpt>
      <trkpt lat="44.38492" lon="7.03642">
        <ele>2423.3999023438</ele>
        <time>2024-09-13T10:33:31.000Z</time>
      </trkpt>
      <trkpt lat="44.38492" lon="7.03645">
        <ele>2423.3999023438</ele>
        <time>2024-09-13T10:33:32.000Z</time>
      </trkpt>
      <trkpt lat="44.38493" lon="7.03647">
        <ele>2423.3999023438</ele>
        <time>2024-09-13T10:33:33.000Z</time>
      </trkpt>
      <trkpt lat="44.38494" lon="7.03649">
        <ele>2423.6000976562</ele>
        <time>2024-09-13T10:33:34.000Z</time>
      </trkpt>
      <trkpt lat="44.38494" lon="7.03651">
        <ele>2423.6000976562</ele>
        <time>2024-09-13T10:33:35.000Z</time>
      </trkpt>
      <trkpt lat="44.38495" lon="7.03653">
        <ele>2423.8000488281</ele>
        <time>2024-09-13T10:33:36.000Z</time>
      </trkpt>
      <trkpt lat="44.38496" lon="7.03655">
        <ele>2423.8000488281</ele>
        <time>2024-09-13T10:33:37.000Z</time>
      </trkpt>
      <trkpt lat="44.38497" lon="7.03656">
        <ele>2424</ele>
        <time>2024-09-13T10:33:38.000Z</time>
      </trkpt>
      <trkpt lat="44.38499" lon="7.03658">
        <ele>2424.1999511719</ele>
        <time>2024-09-13T10:33:39.000Z</time>
      </trkpt>
      <trkpt lat="44.385" lon="7.03659">
        <ele>2424.1999511719</ele>
        <time>2024-09-13T10:33:40.000Z</time>
      </trkpt>
      <trkpt lat="44.38501" lon="7.03661">
        <ele>2424.3999023438</ele>
        <time>2024-09-13T10:33:41.000Z</time>
      </trkpt>
      <trkpt lat="44.38502" lon="7.03662">
        <ele>2424.3999023438</ele>
        <time>2024-09-13T10:33:42.000Z</time>
      </trkpt>
      <trkpt lat="44.38502" lon="7.03664">
        <ele>2424.3999023438</ele>
        <time>2024-09-13T10:33:43.000Z</time>
      </trkpt>
      <trkpt lat="44.38503" lon="7.03665">
        <ele>2424.3999023438</ele>
        <time>2024-09-13T10:33:44.000Z</time>
      </trkpt>
      <trkpt lat="44.38503" lon="7.03667">
        <ele>2424.6000976562</ele>
        <time>2024-09-13T10:33:45.000Z</time>
      </trkpt>
      <trkpt lat="44.38502" lon="7.03669">
        <ele>2424.6000976562</ele>
        <time>2024-09-13T10:33:46.000Z</time>
      </trkpt>
      <trkpt lat="44.38502" lon="7.03671">
        <ele>2424.8000488281</ele>
        <time>2024-09-13T10:33:47.000Z</time>
      </trkpt>
      <trkpt lat="44.38502" lon="7.03673">
        <ele>2425.1999511719</ele>
        <time>2024-09-13T10:33:48.000Z</time>
      </trkpt>
      <trkpt lat="44.38501" lon="7.03675">
        <ele>2425.3999023438</ele>
        <time>2024-09-13T10:33:49.000Z</time>
      </trkpt>
      <trkpt lat="44.385" lon="7.03677">
        <ele>2425.3999023438</ele>
        <time>2024-09-13T10:33:50.000Z</time>
      </trkpt>
      <trkpt lat="44.38499" lon="7.03679">
        <ele>2425.8000488281</ele>
        <time>2024-09-13T10:33:51.000Z</time>
      </trkpt>
      <trkpt lat="44.38498" lon="7.03681">
        <ele>2426.1999511719</ele>
        <time>2024-09-13T10:33:52.000Z</time>
      </trkpt>
      <trkpt lat="44.38498" lon="7.03683">
        <ele>2426.3999023438</ele>
        <time>2024-09-13T10:33:53.000Z</time>
      </trkpt>
      <trkpt lat="44.38497" lon="7.03685">
        <ele>2426.3999023438</ele>
        <time>2024-09-13T10:33:54.000Z</time>
      </trkpt>
      <trkpt lat="44.38496" lon="7.03686">
        <ele>2426.3999023438</ele>
        <time>2024-09-13T10:33:55.000Z</time>
      </trkpt>
      <trkpt lat="44.38495" lon="7.03688">
        <ele>2426.6000976562</ele>
        <time>2024-09-13T10:33:56.000Z</time>
      </trkpt>
      <trkpt lat="44.38494" lon="7.0369">
        <ele>2426.6000976562</ele>
        <time>2024-09-13T10:33:57.000Z</time>
      </trkpt>
      <trkpt lat="44.38493" lon="7.03693">
        <ele>2426.8000488281</ele>
        <time>2024-09-13T10:33:58.000Z</time>
      </trkpt>
      <trkpt lat="44.38492" lon="7.03694">
        <ele>2426.8000488281</ele>
        <time>2024-09-13T10:33:59.000Z</time>
      </trkpt>
      <trkpt lat="44.38492" lon="7.03697">
        <ele>2427</ele>
        <time>2024-09-13T10:34:00.000Z</time>
      </trkpt>
      <trkpt lat="44.38492" lon="7.03699">
        <ele>2427</ele>
        <time>2024-09-13T10:34:01.000Z</time>
      </trkpt>
      <trkpt lat="44.38492" lon="7.03701">
        <ele>2427.1999511719</ele>
        <time>2024-09-13T10:34:02.000Z</time>
      </trkpt>
      <trkpt lat="44.38492" lon="7.03703">
        <ele>2427.1999511719</ele>
        <time>2024-09-13T10:34:03.000Z</time>
      </trkpt>
      <trkpt lat="44.38493" lon="7.03704">
        <ele>2427.1999511719</ele>
        <time>2024-09-13T10:34:04.000Z</time>
      </trkpt>
      <trkpt lat="44.38494" lon="7.03706">
        <ele>2427.1999511719</ele>
        <time>2024-09-13T10:34:05.000Z</time>
      </trkpt>
      <trkpt lat="44.38496" lon="7.03708">
        <ele>2427.1999511719</ele>
        <time>2024-09-13T10:34:06.000Z</time>
      </trkpt>
      <trkpt lat="44.38497" lon="7.0371">
        <ele>2427.1999511719</ele>
        <time>2024-09-13T10:34:07.000Z</time>
      </trkpt>
      <trkpt lat="44.38498" lon="7.03712">
        <ele>2427.3999023438</ele>
        <time>2024-09-13T10:34:08.000Z</time>
      </trkpt>
      <trkpt lat="44.38499" lon="7.03714">
        <ele>2427.3999023438</ele>
        <time>2024-09-13T10:34:09.000Z</time>
      </trkpt>
      <trkpt lat="44.385" lon="7.03716">
        <ele>2427.8000488281</ele>
        <time>2024-09-13T10:34:10.000Z</time>
      </trkpt>
      <trkpt lat="44.38502" lon="7.03718">
        <ele>2427.8000488281</ele>
        <time>2024-09-13T10:34:11.000Z</time>
      </trkpt>
      <trkpt lat="44.38503" lon="7.0372">
        <ele>2427.8000488281</ele>
        <time>2024-09-13T10:34:12.000Z</time>
      </trkpt>
      <trkpt lat="44.38504" lon="7.03721">
        <ele>2427.8000488281</ele>
        <time>2024-09-13T10:34:13.000Z</time>
      </trkpt>
      <trkpt lat="44.38504" lon="7.03723">
        <ele>2427.8000488281</ele>
        <time>2024-09-13T10:34:14.000Z</time>
      </trkpt>
      <trkpt lat="44.38505" lon="7.03726">
        <ele>2427.8000488281</ele>
        <time>2024-09-13T10:34:15.000Z</time>
      </trkpt>
      <trkpt lat="44.38506" lon="7.03728">
        <ele>2427.8000488281</ele>
        <time>2024-09-13T10:34:16.000Z</time>
      </trkpt>
      <trkpt lat="44.38507" lon="7.03736">
        <ele>2428.3999023438</ele>
        <time>2024-09-13T10:34:20.000Z</time>
      </trkpt>
      <trkpt lat="44.38507" lon="7.03738">
        <ele>2428.8000488281</ele>
        <time>2024-09-13T10:34:21.000Z</time>
      </trkpt>
      <trkpt lat="44.38506" lon="7.0374">
        <ele>2428.8000488281</ele>
        <time>2024-09-13T10:34:22.000Z</time>
      </trkpt>
      <trkpt lat="44.38506" lon="7.03742">
        <ele>2429</ele>
        <time>2024-09-13T10:34:23.000Z</time>
      </trkpt>
      <trkpt lat="44.38505" lon="7.03744">
        <ele>2429.1999511719</ele>
        <time>2024-09-13T10:34:24.000Z</time>
      </trkpt>
      <trkpt lat="44.38504" lon="7.03746">
        <ele>2429.3999023438</ele>
        <time>2024-09-13T10:34:25.000Z</time>
      </trkpt>
      <trkpt lat="44.38505" lon="7.03748">
        <ele>2429.6000976562</ele>
        <time>2024-09-13T10:34:26.000Z</time>
      </trkpt>
      <trkpt lat="44.38506" lon="7.03751">
        <ele>2429.6000976562</ele>
        <time>2024-09-13T10:34:27.000Z</time>
      </trkpt>
      <trkpt lat="44.38506" lon="7.03753">
        <ele>2429.8000488281</ele>
        <time>2024-09-13T10:34:28.000Z</time>
      </trkpt>
      <trkpt lat="44.38506" lon="7.03755">
        <ele>2430</ele>
        <time>2024-09-13T10:34:29.000Z</time>
      </trkpt>
      <trkpt lat="44.38506" lon="7.03757">
        <ele>2430.1999511719</ele>
        <time>2024-09-13T10:34:30.000Z</time>
      </trkpt>
      <trkpt lat="44.38505" lon="7.0376">
        <ele>2430.1999511719</ele>
        <time>2024-09-13T10:34:31.000Z</time>
      </trkpt>
      <trkpt lat="44.38505" lon="7.03762">
        <ele>2430.1999511719</ele>
        <time>2024-09-13T10:34:32.000Z</time>
      </trkpt>
      <trkpt lat="44.38504" lon="7.03764">
        <ele>2430.6000976562</ele>
        <time>2024-09-13T10:34:33.000Z</time>
      </trkpt>
      <trkpt lat="44.38504" lon="7.03766">
        <ele>2430.6000976562</ele>
        <time>2024-09-13T10:34:34.000Z</time>
      </trkpt>
      <trkpt lat="44.38503" lon="7.03768">
        <ele>2430.8000488281</ele>
        <time>2024-09-13T10:34:35.000Z</time>
      </trkpt>
      <trkpt lat="44.38502" lon="7.0377">
        <ele>2431</ele>
        <time>2024-09-13T10:34:36.000Z</time>
      </trkpt>
      <trkpt lat="44.38501" lon="7.03772">
        <ele>2431.3999023438</ele>
        <time>2024-09-13T10:34:37.000Z</time>
      </trkpt>
      <trkpt lat="44.385" lon="7.03773">
        <ele>2431.3999023438</ele>
        <time>2024-09-13T10:34:38.000Z</time>
      </trkpt>
      <trkpt lat="44.38498" lon="7.03775">
        <ele>2431.6000976562</ele>
        <time>2024-09-13T10:34:39.000Z</time>
      </trkpt>
      <trkpt lat="44.38496" lon="7.03776">
        <ele>2431.6000976562</ele>
        <time>2024-09-13T10:34:40.000Z</time>
      </trkpt>
      <trkpt lat="44.38495" lon="7.03777">
        <ele>2431.8000488281</ele>
        <time>2024-09-13T10:34:41.000Z</time>
      </trkpt>
      <trkpt lat="44.38493" lon="7.03778">
        <ele>2431.8000488281</ele>
        <time>2024-09-13T10:34:42.000Z</time>
      </trkpt>
      <trkpt lat="44.38492" lon="7.0378">
        <ele>2431.8000488281</ele>
        <time>2024-09-13T10:34:43.000Z</time>
      </trkpt>
      <trkpt lat="44.38491" lon="7.03783">
        <ele>2431.8000488281</ele>
        <time>2024-09-13T10:34:44.000Z</time>
      </trkpt>
      <trkpt lat="44.3849" lon="7.03785">
        <ele>2431.8000488281</ele>
        <time>2024-09-13T10:34:45.000Z</time>
      </trkpt>
      <trkpt lat="44.3849" lon="7.03787">
        <ele>2431.8000488281</ele>
        <time>2024-09-13T10:34:46.000Z</time>
      </trkpt>
      <trkpt lat="44.38489" lon="7.0379">
        <ele>2432</ele>
        <time>2024-09-13T10:34:47.000Z</time>
      </trkpt>
      <trkpt lat="44.38489" lon="7.03792">
        <ele>2432</ele>
        <time>2024-09-13T10:34:48.000Z</time>
      </trkpt>
      <trkpt lat="44.38488" lon="7.03794">
        <ele>2432</ele>
        <time>2024-09-13T10:34:49.000Z</time>
      </trkpt>
      <trkpt lat="44.38488" lon="7.03797">
        <ele>2432</ele>
        <time>2024-09-13T10:34:50.000Z</time>
      </trkpt>
      <trkpt lat="44.38489" lon="7.038">
        <ele>2432.1999511719</ele>
        <time>2024-09-13T10:34:51.000Z</time>
      </trkpt>
      <trkpt lat="44.38489" lon="7.03803">
        <ele>2432.1999511719</ele>
        <time>2024-09-13T10:34:52.000Z</time>
      </trkpt>
      <trkpt lat="44.3849" lon="7.03806">
        <ele>2432.1999511719</ele>
        <time>2024-09-13T10:34:53.000Z</time>
      </trkpt>
      <trkpt lat="44.38491" lon="7.03808">
        <ele>2432.1999511719</ele>
        <time>2024-09-13T10:34:54.000Z</time>
      </trkpt>
      <trkpt lat="44.38492" lon="7.03811">
        <ele>2432.1999511719</ele>
        <time>2024-09-13T10:34:55.000Z</time>
      </trkpt>
      <trkpt lat="44.38494" lon="7.03815">
        <ele>2432.3999023438</ele>
        <time>2024-09-13T10:34:57.000Z</time>
      </trkpt>
      <trkpt lat="44.38495" lon="7.03816">
        <ele>2432.6000976562</ele>
        <time>2024-09-13T10:34:58.000Z</time>
      </trkpt>
      <trkpt lat="44.38496" lon="7.03818">
        <ele>2432.6000976562</ele>
        <time>2024-09-13T10:34:59.000Z</time>
      </trkpt>
      <trkpt lat="44.38497" lon="7.03819">
        <ele>2432.6000976562</ele>
        <time>2024-09-13T10:35:00.000Z</time>
      </trkpt>
      <trkpt lat="44.38501" lon="7.03824">
        <ele>2433.1999511719</ele>
        <time>2024-09-13T10:35:03.000Z</time>
      </trkpt>
      <trkpt lat="44.38504" lon="7.03827">
        <ele>2433.3999023438</ele>
        <time>2024-09-13T10:35:05.000Z</time>
      </trkpt>
      <trkpt lat="44.38507" lon="7.0383">
        <ele>2433.6000976562</ele>
        <time>2024-09-13T10:35:07.000Z</time>
      </trkpt>
      <trkpt lat="44.38509" lon="7.0383">
        <ele>2433.8000488281</ele>
        <time>2024-09-13T10:35:08.000Z</time>
      </trkpt>
      <trkpt lat="44.38511" lon="7.03831">
        <ele>2434</ele>
        <time>2024-09-13T10:35:09.000Z</time>
      </trkpt>
      <trkpt lat="44.38512" lon="7.03832">
        <ele>2434</ele>
        <time>2024-09-13T10:35:10.000Z</time>
      </trkpt>
      <trkpt lat="44.38519" lon="7.03838">
        <ele>2434.6000976562</ele>
        <time>2024-09-13T10:35:15.000Z</time>
      </trkpt>
      <trkpt lat="44.38521" lon="7.0384">
        <ele>2434.8000488281</ele>
        <time>2024-09-13T10:35:16.000Z</time>
      </trkpt>
      <trkpt lat="44.38522" lon="7.03841">
        <ele>2434.8000488281</ele>
        <time>2024-09-13T10:35:17.000Z</time>
      </trkpt>
      <trkpt lat="44.38523" lon="7.03843">
        <ele>2435</ele>
        <time>2024-09-13T10:35:18.000Z</time>
      </trkpt>
      <trkpt lat="44.38524" lon="7.03845">
        <ele>2435.1999511719</ele>
        <time>2024-09-13T10:35:19.000Z</time>
      </trkpt>
      <trkpt lat="44.38525" lon="7.03848">
        <ele>2435.6000976562</ele>
        <time>2024-09-13T10:35:20.000Z</time>
      </trkpt>
      <trkpt lat="44.38526" lon="7.03851">
        <ele>2435.8000488281</ele>
        <time>2024-09-13T10:35:21.000Z</time>
      </trkpt>
      <trkpt lat="44.38527" lon="7.03853">
        <ele>2435.8000488281</ele>
        <time>2024-09-13T10:35:22.000Z</time>
      </trkpt>
      <trkpt lat="44.38528" lon="7.03856">
        <ele>2436</ele>
        <time>2024-09-13T10:35:23.000Z</time>
      </trkpt>
      <trkpt lat="44.38529" lon="7.03858">
        <ele>2436</ele>
        <time>2024-09-13T10:35:24.000Z</time>
      </trkpt>
      <trkpt lat="44.38529" lon="7.0386">
        <ele>2436.1999511719</ele>
        <time>2024-09-13T10:35:25.000Z</time>
      </trkpt>
      <trkpt lat="44.3853" lon="7.03862">
        <ele>2436.3999023438</ele>
        <time>2024-09-13T10:35:26.000Z</time>
      </trkpt>
      <trkpt lat="44.38531" lon="7.03864">
        <ele>2436.3999023438</ele>
        <time>2024-09-13T10:35:27.000Z</time>
      </trkpt>
      <trkpt lat="44.38532" lon="7.03867">
        <ele>2436.3999023438</ele>
        <time>2024-09-13T10:35:28.000Z</time>
      </trkpt>
      <trkpt lat="44.38533" lon="7.03869">
        <ele>2436.3999023438</ele>
        <time>2024-09-13T10:35:29.000Z</time>
      </trkpt>
      <trkpt lat="44.38534" lon="7.03871">
        <ele>2436.6000976562</ele>
        <time>2024-09-13T10:35:30.000Z</time>
      </trkpt>
      <trkpt lat="44.38535" lon="7.03873">
        <ele>2436.8000488281</ele>
        <time>2024-09-13T10:35:31.000Z</time>
      </trkpt>
      <trkpt lat="44.38536" lon="7.03876">
        <ele>2436.8000488281</ele>
        <time>2024-09-13T10:35:32.000Z</time>
      </trkpt>
      <trkpt lat="44.38538" lon="7.03878">
        <ele>2437.1999511719</ele>
        <time>2024-09-13T10:35:33.000Z</time>
      </trkpt>
      <trkpt lat="44.38539" lon="7.0388">
        <ele>2437.1999511719</ele>
        <time>2024-09-13T10:35:34.000Z</time>
      </trkpt>
      <trkpt lat="44.3854" lon="7.03882">
        <ele>2437.1999511719</ele>
        <time>2024-09-13T10:35:35.000Z</time>
      </trkpt>
      <trkpt lat="44.38541" lon="7.03884">
        <ele>2437.3999023438</ele>
        <time>2024-09-13T10:35:36.000Z</time>
      </trkpt>
      <trkpt lat="44.38542" lon="7.03885">
        <ele>2437.3999023438</ele>
        <time>2024-09-13T10:35:37.000Z</time>
      </trkpt>
      <trkpt lat="44.38543" lon="7.03888">
        <ele>2437.6000976562</ele>
        <time>2024-09-13T10:35:38.000Z</time>
      </trkpt>
      <trkpt lat="44.38544" lon="7.0389">
        <ele>2437.6000976562</ele>
        <time>2024-09-13T10:35:39.000Z</time>
      </trkpt>
      <trkpt lat="44.38545" lon="7.03892">
        <ele>2437.8000488281</ele>
        <time>2024-09-13T10:35:40.000Z</time>
      </trkpt>
      <trkpt lat="44.38547" lon="7.03894">
        <ele>2437.8000488281</ele>
        <time>2024-09-13T10:35:41.000Z</time>
      </trkpt>
      <trkpt lat="44.38548" lon="7.03897">
        <ele>2438</ele>
        <time>2024-09-13T10:35:42.000Z</time>
      </trkpt>
      <trkpt lat="44.38549" lon="7.03899">
        <ele>2438</ele>
        <time>2024-09-13T10:35:43.000Z</time>
      </trkpt>
      <trkpt lat="44.3855" lon="7.03902">
        <ele>2438</ele>
        <time>2024-09-13T10:35:44.000Z</time>
      </trkpt>
      <trkpt lat="44.38551" lon="7.03904">
        <ele>2438.1999511719</ele>
        <time>2024-09-13T10:35:45.000Z</time>
      </trkpt>
      <trkpt lat="44.38552" lon="7.03906">
        <ele>2438.3999023438</ele>
        <time>2024-09-13T10:35:46.000Z</time>
      </trkpt>
      <trkpt lat="44.38554" lon="7.03908">
        <ele>2438.3999023438</ele>
        <time>2024-09-13T10:35:47.000Z</time>
      </trkpt>
      <trkpt lat="44.38555" lon="7.0391">
        <ele>2438.3999023438</ele>
        <time>2024-09-13T10:35:48.000Z</time>
      </trkpt>
      <trkpt lat="44.38556" lon="7.03913">
        <ele>2438.6000976562</ele>
        <time>2024-09-13T10:35:49.000Z</time>
      </trkpt>
      <trkpt lat="44.38558" lon="7.03915">
        <ele>2438.6000976562</ele>
        <time>2024-09-13T10:35:50.000Z</time>
      </trkpt>
      <trkpt lat="44.38559" lon="7.03917">
        <ele>2438.6000976562</ele>
        <time>2024-09-13T10:35:51.000Z</time>
      </trkpt>
      <trkpt lat="44.3856" lon="7.0392">
        <ele>2438.8000488281</ele>
        <time>2024-09-13T10:35:52.000Z</time>
      </trkpt>
      <trkpt lat="44.38562" lon="7.03922">
        <ele>2438.8000488281</ele>
        <time>2024-09-13T10:35:53.000Z</time>
      </trkpt>
      <trkpt lat="44.38563" lon="7.03924">
        <ele>2439</ele>
        <time>2024-09-13T10:35:54.000Z</time>
      </trkpt>
      <trkpt lat="44.38564" lon="7.03925">
        <ele>2439</ele>
        <time>2024-09-13T10:35:55.000Z</time>
      </trkpt>
      <trkpt lat="44.38566" lon="7.03927">
        <ele>2439.1999511719</ele>
        <time>2024-09-13T10:35:56.000Z</time>
      </trkpt>
      <trkpt lat="44.38567" lon="7.03929">
        <ele>2439.6000976562</ele>
        <time>2024-09-13T10:35:57.000Z</time>
      </trkpt>
      <trkpt lat="44.38568" lon="7.03931">
        <ele>2439.6000976562</ele>
        <time>2024-09-13T10:35:58.000Z</time>
      </trkpt>
      <trkpt lat="44.3857" lon="7.03933">
        <ele>2439.6000976562</ele>
        <time>2024-09-13T10:35:59.000Z</time>
      </trkpt>
      <trkpt lat="44.38571" lon="7.03935">
        <ele>2439.8000488281</ele>
        <time>2024-09-13T10:36:00.000Z</time>
      </trkpt>
      <trkpt lat="44.38573" lon="7.03936">
        <ele>2439.8000488281</ele>
        <time>2024-09-13T10:36:01.000Z</time>
      </trkpt>
      <trkpt lat="44.38574" lon="7.03938">
        <ele>2440.1999511719</ele>
        <time>2024-09-13T10:36:02.000Z</time>
      </trkpt>
      <trkpt lat="44.38575" lon="7.03939">
        <ele>2440.3999023438</ele>
        <time>2024-09-13T10:36:03.000Z</time>
      </trkpt>
      <trkpt lat="44.38577" lon="7.0394">
        <ele>2440.3999023438</ele>
        <time>2024-09-13T10:36:04.000Z</time>
      </trkpt>
      <trkpt lat="44.38578" lon="7.03942">
        <ele>2440.6000976562</ele>
        <time>2024-09-13T10:36:05.000Z</time>
      </trkpt>
      <trkpt lat="44.3858" lon="7.03944">
        <ele>2440.6000976562</ele>
        <time>2024-09-13T10:36:06.000Z</time>
      </trkpt>
      <trkpt lat="44.38582" lon="7.03945">
        <ele>2440.6000976562</ele>
        <time>2024-09-13T10:36:07.000Z</time>
      </trkpt>
      <trkpt lat="44.38583" lon="7.03947">
        <ele>2440.6000976562</ele>
        <time>2024-09-13T10:36:08.000Z</time>
      </trkpt>
      <trkpt lat="44.38584" lon="7.03949">
        <ele>2440.6000976562</ele>
        <time>2024-09-13T10:36:09.000Z</time>
      </trkpt>
      <trkpt lat="44.38586" lon="7.03951">
        <ele>2440.6000976562</ele>
        <time>2024-09-13T10:36:10.000Z</time>
      </trkpt>
      <trkpt lat="44.38587" lon="7.03952">
        <ele>2440.8000488281</ele>
        <time>2024-09-13T10:36:11.000Z</time>
      </trkpt>
      <trkpt lat="44.38588" lon="7.03954">
        <ele>2440.8000488281</ele>
        <time>2024-09-13T10:36:12.000Z</time>
      </trkpt>
      <trkpt lat="44.3859" lon="7.03955">
        <ele>2441</ele>
        <time>2024-09-13T10:36:13.000Z</time>
      </trkpt>
      <trkpt lat="44.38591" lon="7.03957">
        <ele>2441.1999511719</ele>
        <time>2024-09-13T10:36:14.000Z</time>
      </trkpt>
      <trkpt lat="44.38593" lon="7.03959">
        <ele>2441.1999511719</ele>
        <time>2024-09-13T10:36:15.000Z</time>
      </trkpt>
      <trkpt lat="44.38594" lon="7.0396">
        <ele>2441.1999511719</ele>
        <time>2024-09-13T10:36:16.000Z</time>
      </trkpt>
      <trkpt lat="44.38596" lon="7.03962">
        <ele>2441.1999511719</ele>
        <time>2024-09-13T10:36:17.000Z</time>
      </trkpt>
      <trkpt lat="44.38597" lon="7.03963">
        <ele>2441.3999023438</ele>
        <time>2024-09-13T10:36:18.000Z</time>
      </trkpt>
      <trkpt lat="44.38599" lon="7.03964">
        <ele>2441.3999023438</ele>
        <time>2024-09-13T10:36:19.000Z</time>
      </trkpt>
      <trkpt lat="44.38601" lon="7.03965">
        <ele>2441.3999023438</ele>
        <time>2024-09-13T10:36:20.000Z</time>
      </trkpt>
      <trkpt lat="44.38602" lon="7.03967">
        <ele>2441.8000488281</ele>
        <time>2024-09-13T10:36:21.000Z</time>
      </trkpt>
      <trkpt lat="44.38606" lon="7.03969">
        <ele>2442</ele>
        <time>2024-09-13T10:36:23.000Z</time>
      </trkpt>
      <trkpt lat="44.38611" lon="7.03973">
        <ele>2442.1999511719</ele>
        <time>2024-09-13T10:36:26.000Z</time>
      </trkpt>
      <trkpt lat="44.38616" lon="7.03978">
        <ele>2442.6000976562</ele>
        <time>2024-09-13T10:36:29.000Z</time>
      </trkpt>
      <trkpt lat="44.38617" lon="7.03979">
        <ele>2442.6000976562</ele>
        <time>2024-09-13T10:36:30.000Z</time>
      </trkpt>
      <trkpt lat="44.38619" lon="7.0398">
        <ele>2443</ele>
        <time>2024-09-13T10:36:31.000Z</time>
      </trkpt>
      <trkpt lat="44.3862" lon="7.03982">
        <ele>2443.1999511719</ele>
        <time>2024-09-13T10:36:32.000Z</time>
      </trkpt>
      <trkpt lat="44.38624" lon="7.03985">
        <ele>2443.1999511719</ele>
        <time>2024-09-13T10:36:34.000Z</time>
      </trkpt>
      <trkpt lat="44.38625" lon="7.03987">
        <ele>2443.6000976562</ele>
        <time>2024-09-13T10:36:35.000Z</time>
      </trkpt>
      <trkpt lat="44.38627" lon="7.03988">
        <ele>2443.6000976562</ele>
        <time>2024-09-13T10:36:36.000Z</time>
      </trkpt>
      <trkpt lat="44.38628" lon="7.0399">
        <ele>2443.8000488281</ele>
        <time>2024-09-13T10:36:37.000Z</time>
      </trkpt>
      <trkpt lat="44.3863" lon="7.03992">
        <ele>2443.8000488281</ele>
        <time>2024-09-13T10:36:38.000Z</time>
      </trkpt>
      <trkpt lat="44.38631" lon="7.03994">
        <ele>2444.1999511719</ele>
        <time>2024-09-13T10:36:39.000Z</time>
      </trkpt>
      <trkpt lat="44.38633" lon="7.03996">
        <ele>2444.1999511719</ele>
        <time>2024-09-13T10:36:40.000Z</time>
      </trkpt>
      <trkpt lat="44.38634" lon="7.03997">
        <ele>2444.3999023438</ele>
        <time>2024-09-13T10:36:41.000Z</time>
      </trkpt>
      <trkpt lat="44.38635" lon="7.03999">
        <ele>2444.3999023438</ele>
        <time>2024-09-13T10:36:42.000Z</time>
      </trkpt>
      <trkpt lat="44.38637" lon="7.04001">
        <ele>2444.3999023438</ele>
        <time>2024-09-13T10:36:43.000Z</time>
      </trkpt>
      <trkpt lat="44.38638" lon="7.04003">
        <ele>2444.6000976562</ele>
        <time>2024-09-13T10:36:44.000Z</time>
      </trkpt>
      <trkpt lat="44.3864" lon="7.04005">
        <ele>2444.6000976562</ele>
        <time>2024-09-13T10:36:45.000Z</time>
      </trkpt>
      <trkpt lat="44.38641" lon="7.04007">
        <ele>2444.8000488281</ele>
        <time>2024-09-13T10:36:46.000Z</time>
      </trkpt>
      <trkpt lat="44.38642" lon="7.04009">
        <ele>2445</ele>
        <time>2024-09-13T10:36:47.000Z</time>
      </trkpt>
      <trkpt lat="44.38644" lon="7.0401">
        <ele>2445.1999511719</ele>
        <time>2024-09-13T10:36:48.000Z</time>
      </trkpt>
      <trkpt lat="44.38646" lon="7.04012">
        <ele>2445.3999023438</ele>
        <time>2024-09-13T10:36:49.000Z</time>
      </trkpt>
      <trkpt lat="44.38647" lon="7.04014">
        <ele>2445.3999023438</ele>
        <time>2024-09-13T10:36:50.000Z</time>
      </trkpt>
      <trkpt lat="44.38649" lon="7.04016">
        <ele>2445.3999023438</ele>
        <time>2024-09-13T10:36:51.000Z</time>
      </trkpt>
      <trkpt lat="44.3865" lon="7.04018">
        <ele>2445.3999023438</ele>
        <time>2024-09-13T10:36:52.000Z</time>
      </trkpt>
      <trkpt lat="44.38652" lon="7.04019">
        <ele>2445.3999023438</ele>
        <time>2024-09-13T10:36:53.000Z</time>
      </trkpt>
      <trkpt lat="44.38654" lon="7.04021">
        <ele>2445.8000488281</ele>
        <time>2024-09-13T10:36:54.000Z</time>
      </trkpt>
      <trkpt lat="44.38655" lon="7.04023">
        <ele>2446</ele>
        <time>2024-09-13T10:36:55.000Z</time>
      </trkpt>
      <trkpt lat="44.38657" lon="7.04024">
        <ele>2446.1999511719</ele>
        <time>2024-09-13T10:36:56.000Z</time>
      </trkpt>
      <trkpt lat="44.38659" lon="7.04025">
        <ele>2446.1999511719</ele>
        <time>2024-09-13T10:36:57.000Z</time>
      </trkpt>
      <trkpt lat="44.3866" lon="7.04026">
        <ele>2446.3999023438</ele>
        <time>2024-09-13T10:36:58.000Z</time>
      </trkpt>
      <trkpt lat="44.38662" lon="7.04027">
        <ele>2446.3999023438</ele>
        <time>2024-09-13T10:36:59.000Z</time>
      </trkpt>
      <trkpt lat="44.38663" lon="7.04028">
        <ele>2446.3999023438</ele>
        <time>2024-09-13T10:37:00.000Z</time>
      </trkpt>
      <trkpt lat="44.38665" lon="7.04029">
        <ele>2446.6000976562</ele>
        <time>2024-09-13T10:37:01.000Z</time>
      </trkpt>
      <trkpt lat="44.38667" lon="7.0403">
        <ele>2446.6000976562</ele>
        <time>2024-09-13T10:37:02.000Z</time>
      </trkpt>
      <trkpt lat="44.38669" lon="7.04031">
        <ele>2446.8000488281</ele>
        <time>2024-09-13T10:37:03.000Z</time>
      </trkpt>
      <trkpt lat="44.3867" lon="7.04033">
        <ele>2446.8000488281</ele>
        <time>2024-09-13T10:37:04.000Z</time>
      </trkpt>
      <trkpt lat="44.38672" lon="7.04034">
        <ele>2447</ele>
        <time>2024-09-13T10:37:05.000Z</time>
      </trkpt>
      <trkpt lat="44.38673" lon="7.04035">
        <ele>2447.1999511719</ele>
        <time>2024-09-13T10:37:06.000Z</time>
      </trkpt>
      <trkpt lat="44.38675" lon="7.04036">
        <ele>2447.1999511719</ele>
        <time>2024-09-13T10:37:07.000Z</time>
      </trkpt>
      <trkpt lat="44.38676" lon="7.04038">
        <ele>2447.6000976562</ele>
        <time>2024-09-13T10:37:08.000Z</time>
      </trkpt>
      <trkpt lat="44.38678" lon="7.04039">
        <ele>2447.6000976562</ele>
        <time>2024-09-13T10:37:09.000Z</time>
      </trkpt>
      <trkpt lat="44.3868" lon="7.04041">
        <ele>2447.8000488281</ele>
        <time>2024-09-13T10:37:10.000Z</time>
      </trkpt>
      <trkpt lat="44.38681" lon="7.04042">
        <ele>2447.8000488281</ele>
        <time>2024-09-13T10:37:11.000Z</time>
      </trkpt>
      <trkpt lat="44.38683" lon="7.04044">
        <ele>2447.8000488281</ele>
        <time>2024-09-13T10:37:12.000Z</time>
      </trkpt>
      <trkpt lat="44.38685" lon="7.04045">
        <ele>2447.8000488281</ele>
        <time>2024-09-13T10:37:13.000Z</time>
      </trkpt>
      <trkpt lat="44.38686" lon="7.04047">
        <ele>2448</ele>
        <time>2024-09-13T10:37:14.000Z</time>
      </trkpt>
      <trkpt lat="44.38688" lon="7.04049">
        <ele>2448</ele>
        <time>2024-09-13T10:37:15.000Z</time>
      </trkpt>
      <trkpt lat="44.38689" lon="7.04051">
        <ele>2448.1999511719</ele>
        <time>2024-09-13T10:37:16.000Z</time>
      </trkpt>
      <trkpt lat="44.38691" lon="7.04052">
        <ele>2448.1999511719</ele>
        <time>2024-09-13T10:37:17.000Z</time>
      </trkpt>
      <trkpt lat="44.38692" lon="7.04054">
        <ele>2448.3999023438</ele>
        <time>2024-09-13T10:37:18.000Z</time>
      </trkpt>
      <trkpt lat="44.38694" lon="7.04056">
        <ele>2448.3999023438</ele>
        <time>2024-09-13T10:37:19.000Z</time>
      </trkpt>
      <trkpt lat="44.38695" lon="7.04058">
        <ele>2448.6000976562</ele>
        <time>2024-09-13T10:37:20.000Z</time>
      </trkpt>
      <trkpt lat="44.38696" lon="7.0406">
        <ele>2448.8000488281</ele>
        <time>2024-09-13T10:37:21.000Z</time>
      </trkpt>
      <trkpt lat="44.38698" lon="7.04061">
        <ele>2449</ele>
        <time>2024-09-13T10:37:22.000Z</time>
      </trkpt>
      <trkpt lat="44.38699" lon="7.04063">
        <ele>2449</ele>
        <time>2024-09-13T10:37:23.000Z</time>
      </trkpt>
      <trkpt lat="44.38701" lon="7.04065">
        <ele>2449.1999511719</ele>
        <time>2024-09-13T10:37:24.000Z</time>
      </trkpt>
      <trkpt lat="44.38703" lon="7.04066">
        <ele>2449.1999511719</ele>
        <time>2024-09-13T10:37:25.000Z</time>
      </trkpt>
      <trkpt lat="44.38705" lon="7.04067">
        <ele>2449.3999023438</ele>
        <time>2024-09-13T10:37:26.000Z</time>
      </trkpt>
      <trkpt lat="44.38706" lon="7.04069">
        <ele>2449.3999023438</ele>
        <time>2024-09-13T10:37:27.000Z</time>
      </trkpt>
      <trkpt lat="44.38709" lon="7.0407">
        <ele>2449.3999023438</ele>
        <time>2024-09-13T10:37:28.000Z</time>
      </trkpt>
      <trkpt lat="44.38711" lon="7.04072">
        <ele>2449.6000976562</ele>
        <time>2024-09-13T10:37:29.000Z</time>
      </trkpt>
      <trkpt lat="44.38712" lon="7.04073">
        <ele>2449.6000976562</ele>
        <time>2024-09-13T10:37:30.000Z</time>
      </trkpt>
      <trkpt lat="44.38714" lon="7.04074">
        <ele>2449.8000488281</ele>
        <time>2024-09-13T10:37:31.000Z</time>
      </trkpt>
      <trkpt lat="44.38716" lon="7.04076">
        <ele>2449.8000488281</ele>
        <time>2024-09-13T10:37:32.000Z</time>
      </trkpt>
      <trkpt lat="44.38718" lon="7.04077">
        <ele>2450</ele>
        <time>2024-09-13T10:37:33.000Z</time>
      </trkpt>
      <trkpt lat="44.3872" lon="7.04078">
        <ele>2450.1999511719</ele>
        <time>2024-09-13T10:37:34.000Z</time>
      </trkpt>
      <trkpt lat="44.38722" lon="7.0408">
        <ele>2450.1999511719</ele>
        <time>2024-09-13T10:37:35.000Z</time>
      </trkpt>
      <trkpt lat="44.38724" lon="7.04081">
        <ele>2450.1999511719</ele>
        <time>2024-09-13T10:37:36.000Z</time>
      </trkpt>
      <trkpt lat="44.38725" lon="7.04083">
        <ele>2450.1999511719</ele>
        <time>2024-09-13T10:37:37.000Z</time>
      </trkpt>
      <trkpt lat="44.38727" lon="7.04084">
        <ele>2450.3999023438</ele>
        <time>2024-09-13T10:37:38.000Z</time>
      </trkpt>
      <trkpt lat="44.38728" lon="7.04086">
        <ele>2450.3999023438</ele>
        <time>2024-09-13T10:37:39.000Z</time>
      </trkpt>
      <trkpt lat="44.3873" lon="7.04088">
        <ele>2450.3999023438</ele>
        <time>2024-09-13T10:37:40.000Z</time>
      </trkpt>
      <trkpt lat="44.38731" lon="7.04089">
        <ele>2450.6000976562</ele>
        <time>2024-09-13T10:37:41.000Z</time>
      </trkpt>
      <trkpt lat="44.38733" lon="7.04091">
        <ele>2450.6000976562</ele>
        <time>2024-09-13T10:37:42.000Z</time>
      </trkpt>
      <trkpt lat="44.38734" lon="7.04093">
        <ele>2450.6000976562</ele>
        <time>2024-09-13T10:37:43.000Z</time>
      </trkpt>
      <trkpt lat="44.38735" lon="7.04095">
        <ele>2450.8000488281</ele>
        <time>2024-09-13T10:37:44.000Z</time>
      </trkpt>
      <trkpt lat="44.38737" lon="7.04097">
        <ele>2450.8000488281</ele>
        <time>2024-09-13T10:37:45.000Z</time>
      </trkpt>
      <trkpt lat="44.3874" lon="7.04101">
        <ele>2450.8000488281</ele>
        <time>2024-09-13T10:37:47.000Z</time>
      </trkpt>
      <trkpt lat="44.38744" lon="7.04107">
        <ele>2451</ele>
        <time>2024-09-13T10:37:50.000Z</time>
      </trkpt>
      <trkpt lat="44.38746" lon="7.04108">
        <ele>2451.1999511719</ele>
        <time>2024-09-13T10:37:52.000Z</time>
      </trkpt>
      <trkpt lat="44.3875" lon="7.04114">
        <ele>2451.3999023438</ele>
        <time>2024-09-13T10:37:55.000Z</time>
      </trkpt>
      <trkpt lat="44.38752" lon="7.04115">
        <ele>2451.6000976562</ele>
        <time>2024-09-13T10:37:56.000Z</time>
      </trkpt>
      <trkpt lat="44.38755" lon="7.04122">
        <ele>2451.6000976562</ele>
        <time>2024-09-13T10:37:59.000Z</time>
      </trkpt>
      <trkpt lat="44.38756" lon="7.04124">
        <ele>2451.6000976562</ele>
        <time>2024-09-13T10:38:00.000Z</time>
      </trkpt>
      <trkpt lat="44.38757" lon="7.04126">
        <ele>2451.6000976562</ele>
        <time>2024-09-13T10:38:01.000Z</time>
      </trkpt>
      <trkpt lat="44.3876" lon="7.04132">
        <ele>2452</ele>
        <time>2024-09-13T10:38:04.000Z</time>
      </trkpt>
      <trkpt lat="44.38763" lon="7.04136">
        <ele>2452.1999511719</ele>
        <time>2024-09-13T10:38:06.000Z</time>
      </trkpt>
      <trkpt lat="44.38764" lon="7.04138">
        <ele>2452.3999023438</ele>
        <time>2024-09-13T10:38:07.000Z</time>
      </trkpt>
      <trkpt lat="44.38769" lon="7.04144">
        <ele>2452.8000488281</ele>
        <time>2024-09-13T10:38:10.000Z</time>
      </trkpt>
      <trkpt lat="44.3877" lon="7.04146">
        <ele>2453</ele>
        <time>2024-09-13T10:38:11.000Z</time>
      </trkpt>
      <trkpt lat="44.38776" lon="7.04156">
        <ele>2453</ele>
        <time>2024-09-13T10:38:15.000Z</time>
      </trkpt>
      <trkpt lat="44.38781" lon="7.04163">
        <ele>2453</ele>
        <time>2024-09-13T10:38:18.000Z</time>
      </trkpt>
      <trkpt lat="44.38783" lon="7.04164">
        <ele>2453</ele>
        <time>2024-09-13T10:38:19.000Z</time>
      </trkpt>
      <trkpt lat="44.38784" lon="7.04166">
        <ele>2453.1999511719</ele>
        <time>2024-09-13T10:38:20.000Z</time>
      </trkpt>
      <trkpt lat="44.38794" lon="7.0418">
        <ele>2453.3999023438</ele>
        <time>2024-09-13T10:38:26.000Z</time>
      </trkpt>
      <trkpt lat="44.38795" lon="7.04183">
        <ele>2453.6000976562</ele>
        <time>2024-09-13T10:38:27.000Z</time>
      </trkpt>
      <trkpt lat="44.38797" lon="7.04185">
        <ele>2453.8000488281</ele>
        <time>2024-09-13T10:38:28.000Z</time>
      </trkpt>
      <trkpt lat="44.388" lon="7.04188">
        <ele>2454</ele>
        <time>2024-09-13T10:38:30.000Z</time>
      </trkpt>
      <trkpt lat="44.38802" lon="7.0419">
        <ele>2454</ele>
        <time>2024-09-13T10:38:31.000Z</time>
      </trkpt>
      <trkpt lat="44.38805" lon="7.04195">
        <ele>2454.1999511719</ele>
        <time>2024-09-13T10:38:33.000Z</time>
      </trkpt>
      <trkpt lat="44.38807" lon="7.04196">
        <ele>2454.1999511719</ele>
        <time>2024-09-13T10:38:34.000Z</time>
      </trkpt>
      <trkpt lat="44.38809" lon="7.04198">
        <ele>2454.1999511719</ele>
        <time>2024-09-13T10:38:35.000Z</time>
      </trkpt>
      <trkpt lat="44.38811" lon="7.042">
        <ele>2454.1999511719</ele>
        <time>2024-09-13T10:38:36.000Z</time>
      </trkpt>
      <trkpt lat="44.38814" lon="7.04202">
        <ele>2454.1999511719</ele>
        <time>2024-09-13T10:38:37.000Z</time>
      </trkpt>
      <trkpt lat="44.38816" lon="7.04204">
        <ele>2454.1999511719</ele>
        <time>2024-09-13T10:38:38.000Z</time>
      </trkpt>
      <trkpt lat="44.38819" lon="7.04212">
        <ele>2454.6000976562</ele>
        <time>2024-09-13T10:38:41.000Z</time>
      </trkpt>
      <trkpt lat="44.3882" lon="7.04215">
        <ele>2454.8000488281</ele>
        <time>2024-09-13T10:38:42.000Z</time>
      </trkpt>
      <trkpt lat="44.3882" lon="7.04218">
        <ele>2454.8000488281</ele>
        <time>2024-09-13T10:38:43.000Z</time>
      </trkpt>
      <trkpt lat="44.38821" lon="7.04221">
        <ele>2454.8000488281</ele>
        <time>2024-09-13T10:38:44.000Z</time>
      </trkpt>
      <trkpt lat="44.38821" lon="7.04225">
        <ele>2454.8000488281</ele>
        <time>2024-09-13T10:38:45.000Z</time>
      </trkpt>
      <trkpt lat="44.38822" lon="7.04228">
        <ele>2454.8000488281</ele>
        <time>2024-09-13T10:38:47.000Z</time>
      </trkpt>
      <trkpt lat="44.38823" lon="7.04235">
        <ele>2454.8000488281</ele>
        <time>2024-09-13T10:38:49.000Z</time>
      </trkpt>
      <trkpt lat="44.38824" lon="7.04241">
        <ele>2454.8000488281</ele>
        <time>2024-09-13T10:38:50.000Z</time>
      </trkpt>
      <trkpt lat="44.38824" lon="7.04245">
        <ele>2454.8000488281</ele>
        <time>2024-09-13T10:38:51.000Z</time>
      </trkpt>
      <trkpt lat="44.38824" lon="7.04247">
        <ele>2454.8000488281</ele>
        <time>2024-09-13T10:38:52.000Z</time>
      </trkpt>
      <trkpt lat="44.38824" lon="7.0425">
        <ele>2454.8000488281</ele>
        <time>2024-09-13T10:38:53.000Z</time>
      </trkpt>
      <trkpt lat="44.38824" lon="7.04253">
        <ele>2455</ele>
        <time>2024-09-13T10:38:54.000Z</time>
      </trkpt>
      <trkpt lat="44.38825" lon="7.04256">
        <ele>2455</ele>
        <time>2024-09-13T10:38:55.000Z</time>
      </trkpt>
      <trkpt lat="44.38825" lon="7.04259">
        <ele>2455</ele>
        <time>2024-09-13T10:38:56.000Z</time>
      </trkpt>
      <trkpt lat="44.38824" lon="7.04262">
        <ele>2455</ele>
        <time>2024-09-13T10:38:58.000Z</time>
      </trkpt>
      <trkpt lat="44.38825" lon="7.04265">
        <ele>2455.1999511719</ele>
        <time>2024-09-13T10:38:59.000Z</time>
      </trkpt>
      <trkpt lat="44.38824" lon="7.04273">
        <ele>2455.3999023438</ele>
        <time>2024-09-13T10:39:01.000Z</time>
      </trkpt>
      <trkpt lat="44.38824" lon="7.04276">
        <ele>2455.3999023438</ele>
        <time>2024-09-13T10:39:02.000Z</time>
      </trkpt>
      <trkpt lat="44.38824" lon="7.04278">
        <ele>2455.3999023438</ele>
        <time>2024-09-13T10:39:03.000Z</time>
      </trkpt>
      <trkpt lat="44.38823" lon="7.04281">
        <ele>2455.3999023438</ele>
        <time>2024-09-13T10:39:04.000Z</time>
      </trkpt>
      <trkpt lat="44.38823" lon="7.04283">
        <ele>2455.3999023438</ele>
        <time>2024-09-13T10:39:05.000Z</time>
      </trkpt>
      <trkpt lat="44.38822" lon="7.04285">
        <ele>2455.6000976562</ele>
        <time>2024-09-13T10:39:06.000Z</time>
      </trkpt>
      <trkpt lat="44.38822" lon="7.04287">
        <ele>2455.6000976562</ele>
        <time>2024-09-13T10:39:07.000Z</time>
      </trkpt>
      <trkpt lat="44.38822" lon="7.04288">
        <ele>2455.6000976562</ele>
        <time>2024-09-13T10:39:08.000Z</time>
      </trkpt>
      <trkpt lat="44.38822" lon="7.04289">
        <ele>2455.6000976562</ele>
        <time>2024-09-13T10:39:09.000Z</time>
      </trkpt>
      <trkpt lat="44.38823" lon="7.04289">
        <ele>2455.6000976562</ele>
        <time>2024-09-13T10:39:10.000Z</time>
      </trkpt>
      <trkpt lat="44.38823" lon="7.0429">
        <ele>2455.6000976562</ele>
        <time>2024-09-13T10:39:11.000Z</time>
      </trkpt>
      <trkpt lat="44.38823" lon="7.0429">
        <ele>2455.6000976562</ele>
        <time>2024-09-13T10:39:12.000Z</time>
      </trkpt>
      <trkpt lat="44.38825" lon="7.0429">
        <ele>2455.6000976562</ele>
        <time>2024-09-13T10:39:16.000Z</time>
      </trkpt>
      <trkpt lat="44.38827" lon="7.0429">
        <ele>2455.6000976562</ele>
        <time>2024-09-13T10:39:19.000Z</time>
      </trkpt>
      <trkpt lat="44.38828" lon="7.0429">
        <ele>2455.6000976562</ele>
        <time>2024-09-13T10:39:20.000Z</time>
      </trkpt>
      <trkpt lat="44.38828" lon="7.04289">
        <ele>2455.6000976562</ele>
        <time>2024-09-13T10:39:21.000Z</time>
      </trkpt>
      <trkpt lat="44.3883" lon="7.04287">
        <ele>2455.6000976562</ele>
        <time>2024-09-13T10:39:23.000Z</time>
      </trkpt>
      <trkpt lat="44.38833" lon="7.04287">
        <ele>2455.6000976562</ele>
        <time>2024-09-13T10:39:26.000Z</time>
      </trkpt>
      <trkpt lat="44.38834" lon="7.04287">
        <ele>2455.6000976562</ele>
        <time>2024-09-13T10:39:27.000Z</time>
      </trkpt>
      <trkpt lat="44.38838" lon="7.04287">
        <ele>2455.6000976562</ele>
        <time>2024-09-13T10:39:30.000Z</time>
      </trkpt>
      <trkpt lat="44.38839" lon="7.04287">
        <ele>2455.6000976562</ele>
        <time>2024-09-13T10:39:31.000Z</time>
      </trkpt>
      <trkpt lat="44.38841" lon="7.04288">
        <ele>2455.3999023438</ele>
        <time>2024-09-13T10:39:33.000Z</time>
      </trkpt>
      <trkpt lat="44.38842" lon="7.04289">
        <ele>2455.1999511719</ele>
        <time>2024-09-13T10:39:34.000Z</time>
      </trkpt>
      <trkpt lat="44.38843" lon="7.04289">
        <ele>2455.1999511719</ele>
        <time>2024-09-13T10:39:35.000Z</time>
      </trkpt>
      <trkpt lat="44.38843" lon="7.04289">
        <ele>2454.8000488281</ele>
        <time>2024-09-13T10:39:36.000Z</time>
      </trkpt>
      <trkpt lat="44.38845" lon="7.04289">
        <ele>2454.8000488281</ele>
        <time>2024-09-13T10:39:37.000Z</time>
      </trkpt>
      <trkpt lat="44.38846" lon="7.04289">
        <ele>2454.8000488281</ele>
        <time>2024-09-13T10:39:38.000Z</time>
      </trkpt>
      <trkpt lat="44.38847" lon="7.04288">
        <ele>2454.6000976562</ele>
        <time>2024-09-13T10:39:39.000Z</time>
      </trkpt>
      <trkpt lat="44.38848" lon="7.04288">
        <ele>2454.6000976562</ele>
        <time>2024-09-13T10:39:40.000Z</time>
      </trkpt>
      <trkpt lat="44.38849" lon="7.04288">
        <ele>2454.6000976562</ele>
        <time>2024-09-13T10:39:41.000Z</time>
      </trkpt>
      <trkpt lat="44.38849" lon="7.04289">
        <ele>2454.6000976562</ele>
        <time>2024-09-13T10:39:42.000Z</time>
      </trkpt>
      <trkpt lat="44.38849" lon="7.04289">
        <ele>2454.6000976562</ele>
        <time>2024-09-13T10:39:43.000Z</time>
      </trkpt>
      <trkpt lat="44.38849" lon="7.04289">
        <ele>2454.8000488281</ele>
        <time>2024-09-13T10:39:44.000Z</time>
      </trkpt>
      <trkpt lat="44.38849" lon="7.04289">
        <ele>2455</ele>
        <time>2024-09-13T10:39:45.000Z</time>
      </trkpt>
      <trkpt lat="44.38849" lon="7.04289">
        <ele>2455</ele>
        <time>2024-09-13T10:39:47.000Z</time>
      </trkpt>
      <trkpt lat="44.38849" lon="7.04289">
        <ele>2455</ele>
        <time>2024-09-13T10:39:50.000Z</time>
      </trkpt>
      <trkpt lat="44.38849" lon="7.04289">
        <ele>2454.8000488281</ele>
        <time>2024-09-13T10:39:56.000Z</time>
      </trkpt>
      <trkpt lat="44.38849" lon="7.04289">
        <ele>2454.8000488281</ele>
        <time>2024-09-13T10:40:00.000Z</time>
      </trkpt>
      <trkpt lat="44.38849" lon="7.04289">
        <ele>2454.8000488281</ele>
        <time>2024-09-13T10:40:02.000Z</time>
      </trkpt>
      <trkpt lat="44.38849" lon="7.04288">
        <ele>2454.8000488281</ele>
        <time>2024-09-13T10:40:03.000Z</time>
      </trkpt>
      <trkpt lat="44.38849" lon="7.04289">
        <ele>2454.8000488281</ele>
        <time>2024-09-13T10:40:06.000Z</time>
      </trkpt>
      <trkpt lat="44.38849" lon="7.04289">
        <ele>2454.6000976562</ele>
        <time>2024-09-13T10:40:10.000Z</time>
      </trkpt>
      <trkpt lat="44.38849" lon="7.04289">
        <ele>2454.3999023438</ele>
        <time>2024-09-13T10:40:14.000Z</time>
      </trkpt>
      <trkpt lat="44.38849" lon="7.04289">
        <ele>2454.1999511719</ele>
        <time>2024-09-13T10:40:21.000Z</time>
      </trkpt>
      <trkpt lat="44.38849" lon="7.04287">
        <ele>2454</ele>
        <time>2024-09-13T10:40:30.000Z</time>
      </trkpt>
      <trkpt lat="44.38849" lon="7.04289">
        <ele>2453.8000488281</ele>
        <time>2024-09-13T10:40:45.000Z</time>
      </trkpt>
      <trkpt lat="44.38849" lon="7.04289">
        <ele>2453.8000488281</ele>
        <time>2024-09-13T10:40:47.000Z</time>
      </trkpt>
      <trkpt lat="44.38848" lon="7.04289">
        <ele>2453.6000976562</ele>
        <time>2024-09-13T10:40:54.000Z</time>
      </trkpt>
      <trkpt lat="44.38847" lon="7.0429">
        <ele>2453.6000976562</ele>
        <time>2024-09-13T10:40:55.000Z</time>
      </trkpt>
      <trkpt lat="44.38847" lon="7.04289">
        <ele>2453.6000976562</ele>
        <time>2024-09-13T10:40:56.000Z</time>
      </trkpt>
      <trkpt lat="44.38847" lon="7.0429">
        <ele>2453.6000976562</ele>
        <time>2024-09-13T10:40:57.000Z</time>
      </trkpt>
      <trkpt lat="44.38847" lon="7.04289">
        <ele>2453.6000976562</ele>
        <time>2024-09-13T10:41:00.000Z</time>
      </trkpt>
      <trkpt lat="44.38847" lon="7.04289">
        <ele>2453.3999023438</ele>
        <time>2024-09-13T10:41:04.000Z</time>
      </trkpt>
      <trkpt lat="44.38844" lon="7.04289">
        <ele>2453.1999511719</ele>
        <time>2024-09-13T10:41:08.000Z</time>
      </trkpt>
      <trkpt lat="44.38842" lon="7.0429">
        <ele>2453.3999023438</ele>
        <time>2024-09-13T10:41:10.000Z</time>
      </trkpt>
      <trkpt lat="44.38842" lon="7.0429">
        <ele>2453.3999023438</ele>
        <time>2024-09-13T10:41:12.000Z</time>
      </trkpt>
      <trkpt lat="44.38842" lon="7.0429">
        <ele>2453.3999023438</ele>
        <time>2024-09-13T10:41:13.000Z</time>
      </trkpt>
      <trkpt lat="44.38842" lon="7.0429">
        <ele>2453.3999023438</ele>
        <time>2024-09-13T10:41:14.000Z</time>
      </trkpt>
      <trkpt lat="44.38842" lon="7.0429">
        <ele>2453.3999023438</ele>
        <time>2024-09-13T10:41:16.000Z</time>
      </trkpt>
      <trkpt lat="44.38842" lon="7.0429">
        <ele>2453.1999511719</ele>
        <time>2024-09-13T10:41:27.000Z</time>
      </trkpt>
      <trkpt lat="44.38842" lon="7.0429">
        <ele>2453.1999511719</ele>
        <time>2024-09-13T10:41:32.000Z</time>
      </trkpt>
      <trkpt lat="44.38842" lon="7.0429">
        <ele>2453.1999511719</ele>
        <time>2024-09-13T10:41:35.000Z</time>
      </trkpt>
      <trkpt lat="44.38842" lon="7.0429">
        <ele>2453.3999023438</ele>
        <time>2024-09-13T10:41:46.000Z</time>
      </trkpt>
      <trkpt lat="44.38841" lon="7.04289">
        <ele>2454.3999023438</ele>
        <time>2024-09-13T10:42:16.000Z</time>
      </trkpt>
      <trkpt lat="44.38841" lon="7.04289">
        <ele>2454.3999023438</ele>
        <time>2024-09-13T10:42:17.000Z</time>
      </trkpt>
      <trkpt lat="44.38841" lon="7.04289">
        <ele>2454.1999511719</ele>
        <time>2024-09-13T10:42:18.000Z</time>
      </trkpt>
      <trkpt lat="44.38841" lon="7.04289">
        <ele>2454.1999511719</ele>
        <time>2024-09-13T10:42:19.000Z</time>
      </trkpt>
      <trkpt lat="44.38841" lon="7.04289">
        <ele>2454</ele>
        <time>2024-09-13T10:42:20.000Z</time>
      </trkpt>
      <trkpt lat="44.38841" lon="7.04289">
        <ele>2454</ele>
        <time>2024-09-13T10:42:21.000Z</time>
      </trkpt>
      <trkpt lat="44.38838" lon="7.0429">
        <ele>2453.8000488281</ele>
        <time>2024-09-13T10:42:24.000Z</time>
      </trkpt>
      <trkpt lat="44.38838" lon="7.0429">
        <ele>2453.8000488281</ele>
        <time>2024-09-13T10:42:26.000Z</time>
      </trkpt>
      <trkpt lat="44.38836" lon="7.0429">
        <ele>2453.8000488281</ele>
        <time>2024-09-13T10:42:27.000Z</time>
      </trkpt>
      <trkpt lat="44.38835" lon="7.0429">
        <ele>2453.8000488281</ele>
        <time>2024-09-13T10:42:28.000Z</time>
      </trkpt>
      <trkpt lat="44.38834" lon="7.0429">
        <ele>2453.8000488281</ele>
        <time>2024-09-13T10:42:30.000Z</time>
      </trkpt>
      <trkpt lat="44.38833" lon="7.0429">
        <ele>2453.8000488281</ele>
        <time>2024-09-13T10:42:31.000Z</time>
      </trkpt>
      <trkpt lat="44.38832" lon="7.04289">
        <ele>2453.6000976562</ele>
        <time>2024-09-13T10:42:33.000Z</time>
      </trkpt>
      <trkpt lat="44.38832" lon="7.04289">
        <ele>2453.6000976562</ele>
        <time>2024-09-13T10:42:34.000Z</time>
      </trkpt>
      <trkpt lat="44.38831" lon="7.04288">
        <ele>2453.6000976562</ele>
        <time>2024-09-13T10:42:35.000Z</time>
      </trkpt>
      <trkpt lat="44.3883" lon="7.04288">
        <ele>2453.3999023438</ele>
        <time>2024-09-13T10:42:36.000Z</time>
      </trkpt>
      <trkpt lat="44.3883" lon="7.04288">
        <ele>2452.8000488281</ele>
        <time>2024-09-13T10:42:39.000Z</time>
      </trkpt>
      <trkpt lat="44.3883" lon="7.04288">
        <ele>2452.6000976562</ele>
        <time>2024-09-13T10:42:40.000Z</time>
      </trkpt>
      <trkpt lat="44.3883" lon="7.04288">
        <ele>2452.6000976562</ele>
        <time>2024-09-13T10:42:50.000Z</time>
      </trkpt>
      <trkpt lat="44.38833" lon="7.04288">
        <ele>2452.3999023438</ele>
        <time>2024-09-13T10:42:56.000Z</time>
      </trkpt>
      <trkpt lat="44.38838" lon="7.04287">
        <ele>2452.6000976562</ele>
        <time>2024-09-13T10:42:59.000Z</time>
      </trkpt>
      <trkpt lat="44.38839" lon="7.04287">
        <ele>2452.6000976562</ele>
        <time>2024-09-13T10:43:00.000Z</time>
      </trkpt>
      <trkpt lat="44.38839" lon="7.04287">
        <ele>2452.8000488281</ele>
        <time>2024-09-13T10:43:01.000Z</time>
      </trkpt>
      <trkpt lat="44.38839" lon="7.04287">
        <ele>2452.8000488281</ele>
        <time>2024-09-13T10:43:02.000Z</time>
      </trkpt>
      <trkpt lat="44.38837" lon="7.04287">
        <ele>2452.8000488281</ele>
        <time>2024-09-13T10:43:16.000Z</time>
      </trkpt>
      <trkpt lat="44.38834" lon="7.04288">
        <ele>2453</ele>
        <time>2024-09-13T10:43:19.000Z</time>
      </trkpt>
      <trkpt lat="44.38833" lon="7.04288">
        <ele>2453</ele>
        <time>2024-09-13T10:43:20.000Z</time>
      </trkpt>
      <trkpt lat="44.38832" lon="7.04288">
        <ele>2453</ele>
        <time>2024-09-13T10:43:21.000Z</time>
      </trkpt>
      <trkpt lat="44.38831" lon="7.04288">
        <ele>2453</ele>
        <time>2024-09-13T10:43:22.000Z</time>
      </trkpt>
      <trkpt lat="44.3883" lon="7.04289">
        <ele>2453</ele>
        <time>2024-09-13T10:43:23.000Z</time>
      </trkpt>
      <trkpt lat="44.38829" lon="7.0429">
        <ele>2452.8000488281</ele>
        <time>2024-09-13T10:43:24.000Z</time>
      </trkpt>
      <trkpt lat="44.38827" lon="7.0429">
        <ele>2452.8000488281</ele>
        <time>2024-09-13T10:43:26.000Z</time>
      </trkpt>
      <trkpt lat="44.38825" lon="7.04292">
        <ele>2452.3999023438</ele>
        <time>2024-09-13T10:43:28.000Z</time>
      </trkpt>
      <trkpt lat="44.38825" lon="7.04293">
        <ele>2452.3999023438</ele>
        <time>2024-09-13T10:43:29.000Z</time>
      </trkpt>
      <trkpt lat="44.38823" lon="7.04292">
        <ele>2452.3999023438</ele>
        <time>2024-09-13T10:43:31.000Z</time>
      </trkpt>
      <trkpt lat="44.38823" lon="7.04292">
        <ele>2452.3999023438</ele>
        <time>2024-09-13T10:43:32.000Z</time>
      </trkpt>
      <trkpt lat="44.38822" lon="7.04292">
        <ele>2452.1999511719</ele>
        <time>2024-09-13T10:43:33.000Z</time>
      </trkpt>
      <trkpt lat="44.38822" lon="7.04292">
        <ele>2452.1999511719</ele>
        <time>2024-09-13T10:43:34.000Z</time>
      </trkpt>
      <trkpt lat="44.38822" lon="7.04292">
        <ele>2452.1999511719</ele>
        <time>2024-09-13T10:43:35.000Z</time>
      </trkpt>
      <trkpt lat="44.38822" lon="7.04292">
        <ele>2452.1999511719</ele>
        <time>2024-09-13T10:43:36.000Z</time>
      </trkpt>
      <trkpt lat="44.38821" lon="7.04294">
        <ele>2452.1999511719</ele>
        <time>2024-09-13T10:43:39.000Z</time>
      </trkpt>
      <trkpt lat="44.38821" lon="7.04294">
        <ele>2452.1999511719</ele>
        <time>2024-09-13T10:43:47.000Z</time>
      </trkpt>
      <trkpt lat="44.38821" lon="7.04294">
        <ele>2452</ele>
        <time>2024-09-13T10:43:50.000Z</time>
      </trkpt>
      <trkpt lat="44.38821" lon="7.04294">
        <ele>2451.8000488281</ele>
        <time>2024-09-13T10:43:52.000Z</time>
      </trkpt>
      <trkpt lat="44.38821" lon="7.04294">
        <ele>2451.3999023438</ele>
        <time>2024-09-13T10:44:00.000Z</time>
      </trkpt>
      <trkpt lat="44.38821" lon="7.04294">
        <ele>2450.8000488281</ele>
        <time>2024-09-13T10:44:12.000Z</time>
      </trkpt>
      <trkpt lat="44.38821" lon="7.04294">
        <ele>2450.8000488281</ele>
        <time>2024-09-13T10:44:14.000Z</time>
      </trkpt>
      <trkpt lat="44.38821" lon="7.04294">
        <ele>2450.3999023438</ele>
        <time>2024-09-13T10:44:24.000Z</time>
      </trkpt>
      <trkpt lat="44.38821" lon="7.04294">
        <ele>2450.1999511719</ele>
        <time>2024-09-13T10:44:33.000Z</time>
      </trkpt>
      <trkpt lat="44.38821" lon="7.04294">
        <ele>2450.1999511719</ele>
        <time>2024-09-13T10:44:51.000Z</time>
      </trkpt>
      <trkpt lat="44.38821" lon="7.04294">
        <ele>2450.1999511719</ele>
        <time>2024-09-13T10:44:57.000Z</time>
      </trkpt>
      <trkpt lat="44.38821" lon="7.04294">
        <ele>2450.1999511719</ele>
        <time>2024-09-13T10:44:58.000Z</time>
      </trkpt>
      <trkpt lat="44.38821" lon="7.04294">
        <ele>2449.8000488281</ele>
        <time>2024-09-13T10:45:07.000Z</time>
      </trkpt>
      <trkpt lat="44.38821" lon="7.04294">
        <ele>2449.3999023438</ele>
        <time>2024-09-13T10:45:14.000Z</time>
      </trkpt>
      <trkpt lat="44.38821" lon="7.04295">
        <ele>2449.3999023438</ele>
        <time>2024-09-13T10:45:17.000Z</time>
      </trkpt>
      <trkpt lat="44.38821" lon="7.04295">
        <ele>2449.3999023438</ele>
        <time>2024-09-13T10:45:18.000Z</time>
      </trkpt>
      <trkpt lat="44.38821" lon="7.04295">
        <ele>2449.3999023438</ele>
        <time>2024-09-13T10:45:20.000Z</time>
      </trkpt>
      <trkpt lat="44.38821" lon="7.04295">
        <ele>2449.3999023438</ele>
        <time>2024-09-13T10:45:22.000Z</time>
      </trkpt>
      <trkpt lat="44.3882" lon="7.04296">
        <ele>2449.3999023438</ele>
        <time>2024-09-13T10:45:31.000Z</time>
      </trkpt>
      <trkpt lat="44.38819" lon="7.04296">
        <ele>2449.1999511719</ele>
        <time>2024-09-13T10:45:33.000Z</time>
      </trkpt>
      <trkpt lat="44.38819" lon="7.04296">
        <ele>2449.1999511719</ele>
        <time>2024-09-13T10:45:34.000Z</time>
      </trkpt>
      <trkpt lat="44.38819" lon="7.04296">
        <ele>2449.1999511719</ele>
        <time>2024-09-13T10:45:35.000Z</time>
      </trkpt>
      <trkpt lat="44.38819" lon="7.04296">
        <ele>2449.1999511719</ele>
        <time>2024-09-13T10:45:36.000Z</time>
      </trkpt>
      <trkpt lat="44.38819" lon="7.04296">
        <ele>2449.3999023438</ele>
        <time>2024-09-13T10:45:37.000Z</time>
      </trkpt>
      <trkpt lat="44.38819" lon="7.04296">
        <ele>2449.3999023438</ele>
        <time>2024-09-13T10:45:38.000Z</time>
      </trkpt>
      <trkpt lat="44.38819" lon="7.04296">
        <ele>2449.3999023438</ele>
        <time>2024-09-13T10:45:39.000Z</time>
      </trkpt>
      <trkpt lat="44.38819" lon="7.04296">
        <ele>2449.3999023438</ele>
        <time>2024-09-13T10:45:40.000Z</time>
      </trkpt>
      <trkpt lat="44.38819" lon="7.04296">
        <ele>2449.3999023438</ele>
        <time>2024-09-13T10:45:41.000Z</time>
      </trkpt>
      <trkpt lat="44.38819" lon="7.04296">
        <ele>2449.3999023438</ele>
        <time>2024-09-13T10:45:42.000Z</time>
      </trkpt>
      <trkpt lat="44.38818" lon="7.04298">
        <ele>2449.3999023438</ele>
        <time>2024-09-13T10:45:48.000Z</time>
      </trkpt>
      <trkpt lat="44.38819" lon="7.04298">
        <ele>2449.3999023438</ele>
        <time>2024-09-13T10:46:01.000Z</time>
      </trkpt>
      <trkpt lat="44.38817" lon="7.04297">
        <ele>2449.3999023438</ele>
        <time>2024-09-13T10:46:03.000Z</time>
      </trkpt>
      <trkpt lat="44.38817" lon="7.04296">
        <ele>2449.3999023438</ele>
        <time>2024-09-13T10:46:04.000Z</time>
      </trkpt>
      <trkpt lat="44.38814" lon="7.04295">
        <ele>2449.1999511719</ele>
        <time>2024-09-13T10:46:06.000Z</time>
      </trkpt>
      <trkpt lat="44.38813" lon="7.04295">
        <ele>2449.1999511719</ele>
        <time>2024-09-13T10:46:07.000Z</time>
      </trkpt>
      <trkpt lat="44.38811" lon="7.04295">
        <ele>2449.1999511719</ele>
        <time>2024-09-13T10:46:08.000Z</time>
      </trkpt>
      <trkpt lat="44.38802" lon="7.04296">
        <ele>2449.1999511719</ele>
        <time>2024-09-13T10:46:12.000Z</time>
      </trkpt>
      <trkpt lat="44.3879" lon="7.04297">
        <ele>2449.6000976562</ele>
        <time>2024-09-13T10:46:18.000Z</time>
      </trkpt>
      <trkpt lat="44.38787" lon="7.04297">
        <ele>2449.6000976562</ele>
        <time>2024-09-13T10:46:19.000Z</time>
      </trkpt>
      <trkpt lat="44.38785" lon="7.04297">
        <ele>2449.6000976562</ele>
        <time>2024-09-13T10:46:20.000Z</time>
      </trkpt>
      <trkpt lat="44.38783" lon="7.04298">
        <ele>2449.6000976562</ele>
        <time>2024-09-13T10:46:21.000Z</time>
      </trkpt>
      <trkpt lat="44.38781" lon="7.04299">
        <ele>2449.6000976562</ele>
        <time>2024-09-13T10:46:22.000Z</time>
      </trkpt>
      <trkpt lat="44.38779" lon="7.04299">
        <ele>2449.6000976562</ele>
        <time>2024-09-13T10:46:23.000Z</time>
      </trkpt>
      <trkpt lat="44.38777" lon="7.043">
        <ele>2449.6000976562</ele>
        <time>2024-09-13T10:46:24.000Z</time>
      </trkpt>
      <trkpt lat="44.38775" lon="7.04301">
        <ele>2449.6000976562</ele>
        <time>2024-09-13T10:46:25.000Z</time>
      </trkpt>
      <trkpt lat="44.38774" lon="7.04301">
        <ele>2449.6000976562</ele>
        <time>2024-09-13T10:46:26.000Z</time>
      </trkpt>
      <trkpt lat="44.38759" lon="7.04304">
        <ele>2449.8000488281</ele>
        <time>2024-09-13T10:46:33.000Z</time>
      </trkpt>
      <trkpt lat="44.38757" lon="7.04304">
        <ele>2450</ele>
        <time>2024-09-13T10:46:34.000Z</time>
      </trkpt>
      <trkpt lat="44.38749" lon="7.04308">
        <ele>2450.1999511719</ele>
        <time>2024-09-13T10:46:38.000Z</time>
      </trkpt>
      <trkpt lat="44.38747" lon="7.0431">
        <ele>2450.1999511719</ele>
        <time>2024-09-13T10:46:39.000Z</time>
      </trkpt>
      <trkpt lat="44.38746" lon="7.04312">
        <ele>2450.1999511719</ele>
        <time>2024-09-13T10:46:40.000Z</time>
      </trkpt>
      <trkpt lat="44.38744" lon="7.04314">
        <ele>2450.1999511719</ele>
        <time>2024-09-13T10:46:41.000Z</time>
      </trkpt>
      <trkpt lat="44.38743" lon="7.04317">
        <ele>2450.1999511719</ele>
        <time>2024-09-13T10:46:42.000Z</time>
      </trkpt>
      <trkpt lat="44.38742" lon="7.0432">
        <ele>2450.1999511719</ele>
        <time>2024-09-13T10:46:43.000Z</time>
      </trkpt>
      <trkpt lat="44.38742" lon="7.04323">
        <ele>2450.1999511719</ele>
        <time>2024-09-13T10:46:44.000Z</time>
      </trkpt>
      <trkpt lat="44.38741" lon="7.04327">
        <ele>2450.1999511719</ele>
        <time>2024-09-13T10:46:45.000Z</time>
      </trkpt>
      <trkpt lat="44.3874" lon="7.0433">
        <ele>2450.1999511719</ele>
        <time>2024-09-13T10:46:46.000Z</time>
      </trkpt>
      <trkpt lat="44.38739" lon="7.04332">
        <ele>2450.3999023438</ele>
        <time>2024-09-13T10:46:47.000Z</time>
      </trkpt>
      <trkpt lat="44.38738" lon="7.04335">
        <ele>2450.3999023438</ele>
        <time>2024-09-13T10:46:48.000Z</time>
      </trkpt>
      <trkpt lat="44.38736" lon="7.04336">
        <ele>2450.6000976562</ele>
        <time>2024-09-13T10:46:49.000Z</time>
      </trkpt>
      <trkpt lat="44.38735" lon="7.04338">
        <ele>2450.6000976562</ele>
        <time>2024-09-13T10:46:50.000Z</time>
      </trkpt>
      <trkpt lat="44.38733" lon="7.04339">
        <ele>2450.6000976562</ele>
        <time>2024-09-13T10:46:51.000Z</time>
      </trkpt>
      <trkpt lat="44.38724" lon="7.04342">
        <ele>2450.6000976562</ele>
        <time>2024-09-13T10:46:55.000Z</time>
      </trkpt>
      <trkpt lat="44.38722" lon="7.04342">
        <ele>2450.8000488281</ele>
        <time>2024-09-13T10:46:56.000Z</time>
      </trkpt>
      <trkpt lat="44.3872" lon="7.04342">
        <ele>2450.8000488281</ele>
        <time>2024-09-13T10:46:57.000Z</time>
      </trkpt>
      <trkpt lat="44.38718" lon="7.04342">
        <ele>2450.8000488281</ele>
        <time>2024-09-13T10:46:58.000Z</time>
      </trkpt>
      <trkpt lat="44.387" lon="7.04341">
        <ele>2450.8000488281</ele>
        <time>2024-09-13T10:47:05.000Z</time>
      </trkpt>
      <trkpt lat="44.38698" lon="7.04341">
        <ele>2450.8000488281</ele>
        <time>2024-09-13T10:47:06.000Z</time>
      </trkpt>
      <trkpt lat="44.38693" lon="7.04341">
        <ele>2450.8000488281</ele>
        <time>2024-09-13T10:47:08.000Z</time>
      </trkpt>
      <trkpt lat="44.38691" lon="7.0434">
        <ele>2450.8000488281</ele>
        <time>2024-09-13T10:47:09.000Z</time>
      </trkpt>
      <trkpt lat="44.38688" lon="7.04341">
        <ele>2451</ele>
        <time>2024-09-13T10:47:10.000Z</time>
      </trkpt>
      <trkpt lat="44.38686" lon="7.04341">
        <ele>2451</ele>
        <time>2024-09-13T10:47:11.000Z</time>
      </trkpt>
      <trkpt lat="44.38684" lon="7.04341">
        <ele>2451</ele>
        <time>2024-09-13T10:47:12.000Z</time>
      </trkpt>
      <trkpt lat="44.38681" lon="7.04342">
        <ele>2451</ele>
        <time>2024-09-13T10:47:13.000Z</time>
      </trkpt>
      <trkpt lat="44.38679" lon="7.04342">
        <ele>2451</ele>
        <time>2024-09-13T10:47:14.000Z</time>
      </trkpt>
      <trkpt lat="44.38678" lon="7.04343">
        <ele>2451</ele>
        <time>2024-09-13T10:47:15.000Z</time>
      </trkpt>
      <trkpt lat="44.38671" lon="7.04345">
        <ele>2450.8000488281</ele>
        <time>2024-09-13T10:47:18.000Z</time>
      </trkpt>
      <trkpt lat="44.38668" lon="7.04344">
        <ele>2450.8000488281</ele>
        <time>2024-09-13T10:47:19.000Z</time>
      </trkpt>
      <trkpt lat="44.38666" lon="7.04343">
        <ele>2451</ele>
        <time>2024-09-13T10:47:20.000Z</time>
      </trkpt>
      <trkpt lat="44.38663" lon="7.04342">
        <ele>2451</ele>
        <time>2024-09-13T10:47:21.000Z</time>
      </trkpt>
      <trkpt lat="44.38661" lon="7.0434">
        <ele>2451</ele>
        <time>2024-09-13T10:47:22.000Z</time>
      </trkpt>
      <trkpt lat="44.38658" lon="7.04338">
        <ele>2451</ele>
        <time>2024-09-13T10:47:23.000Z</time>
      </trkpt>
      <trkpt lat="44.38655" lon="7.04337">
        <ele>2451</ele>
        <time>2024-09-13T10:47:24.000Z</time>
      </trkpt>
      <trkpt lat="44.38648" lon="7.04333">
        <ele>2451</ele>
        <time>2024-09-13T10:47:27.000Z</time>
      </trkpt>
      <trkpt lat="44.38643" lon="7.04331">
        <ele>2450.8000488281</ele>
        <time>2024-09-13T10:47:29.000Z</time>
      </trkpt>
      <trkpt lat="44.38641" lon="7.04329">
        <ele>2450.8000488281</ele>
        <time>2024-09-13T10:47:30.000Z</time>
      </trkpt>
      <trkpt lat="44.38638" lon="7.04328">
        <ele>2450.8000488281</ele>
        <time>2024-09-13T10:47:31.000Z</time>
      </trkpt>
      <trkpt lat="44.38636" lon="7.04327">
        <ele>2450.6000976562</ele>
        <time>2024-09-13T10:47:32.000Z</time>
      </trkpt>
      <trkpt lat="44.38633" lon="7.04327">
        <ele>2450.6000976562</ele>
        <time>2024-09-13T10:47:33.000Z</time>
      </trkpt>
      <trkpt lat="44.38626" lon="7.04326">
        <ele>2450.6000976562</ele>
        <time>2024-09-13T10:47:36.000Z</time>
      </trkpt>
      <trkpt lat="44.38623" lon="7.04326">
        <ele>2450.6000976562</ele>
        <time>2024-09-13T10:47:37.000Z</time>
      </trkpt>
      <trkpt lat="44.38618" lon="7.04325">
        <ele>2450.6000976562</ele>
        <time>2024-09-13T10:47:39.000Z</time>
      </trkpt>
      <trkpt lat="44.38616" lon="7.04324">
        <ele>2450.6000976562</ele>
        <time>2024-09-13T10:47:40.000Z</time>
      </trkpt>
      <trkpt lat="44.38614" lon="7.04324">
        <ele>2450.8000488281</ele>
        <time>2024-09-13T10:47:41.000Z</time>
      </trkpt>
      <trkpt lat="44.38611" lon="7.04323">
        <ele>2450.8000488281</ele>
        <time>2024-09-13T10:47:42.000Z</time>
      </trkpt>
      <trkpt lat="44.38609" lon="7.04323">
        <ele>2451</ele>
        <time>2024-09-13T10:47:43.000Z</time>
      </trkpt>
      <trkpt lat="44.38607" lon="7.04322">
        <ele>2451</ele>
        <time>2024-09-13T10:47:44.000Z</time>
      </trkpt>
      <trkpt lat="44.38599" lon="7.0432">
        <ele>2451.3999023438</ele>
        <time>2024-09-13T10:47:48.000Z</time>
      </trkpt>
      <trkpt lat="44.38596" lon="7.04319">
        <ele>2451.3999023438</ele>
        <time>2024-09-13T10:47:49.000Z</time>
      </trkpt>
      <trkpt lat="44.38594" lon="7.04319">
        <ele>2451.3999023438</ele>
        <time>2024-09-13T10:47:50.000Z</time>
      </trkpt>
      <trkpt lat="44.38592" lon="7.04319">
        <ele>2451.6000976562</ele>
        <time>2024-09-13T10:47:51.000Z</time>
      </trkpt>
      <trkpt lat="44.38591" lon="7.04319">
        <ele>2451.8000488281</ele>
        <time>2024-09-13T10:47:52.000Z</time>
      </trkpt>
      <trkpt lat="44.38589" lon="7.04318">
        <ele>2451.8000488281</ele>
        <time>2024-09-13T10:47:53.000Z</time>
      </trkpt>
      <trkpt lat="44.38588" lon="7.04317">
        <ele>2451.8000488281</ele>
        <time>2024-09-13T10:47:54.000Z</time>
      </trkpt>
      <trkpt lat="44.38586" lon="7.04316">
        <ele>2452.1999511719</ele>
        <time>2024-09-13T10:47:55.000Z</time>
      </trkpt>
      <trkpt lat="44.38585" lon="7.04315">
        <ele>2452.1999511719</ele>
        <time>2024-09-13T10:47:56.000Z</time>
      </trkpt>
      <trkpt lat="44.38583" lon="7.04315">
        <ele>2452.3999023438</ele>
        <time>2024-09-13T10:47:57.000Z</time>
      </trkpt>
      <trkpt lat="44.38575" lon="7.04314">
        <ele>2452.8000488281</ele>
        <time>2024-09-13T10:48:01.000Z</time>
      </trkpt>
      <trkpt lat="44.38573" lon="7.04314">
        <ele>2453</ele>
        <time>2024-09-13T10:48:02.000Z</time>
      </trkpt>
      <trkpt lat="44.3857" lon="7.04314">
        <ele>2453.1999511719</ele>
        <time>2024-09-13T10:48:04.000Z</time>
      </trkpt>
      <trkpt lat="44.38568" lon="7.04314">
        <ele>2453.3999023438</ele>
        <time>2024-09-13T10:48:05.000Z</time>
      </trkpt>
      <trkpt lat="44.38559" lon="7.04317">
        <ele>2454</ele>
        <time>2024-09-13T10:48:09.000Z</time>
      </trkpt>
      <trkpt lat="44.38557" lon="7.04318">
        <ele>2454</ele>
        <time>2024-09-13T10:48:10.000Z</time>
      </trkpt>
      <trkpt lat="44.38556" lon="7.04319">
        <ele>2454</ele>
        <time>2024-09-13T10:48:11.000Z</time>
      </trkpt>
      <trkpt lat="44.38554" lon="7.04321">
        <ele>2454</ele>
        <time>2024-09-13T10:48:12.000Z</time>
      </trkpt>
      <trkpt lat="44.38552" lon="7.04322">
        <ele>2454</ele>
        <time>2024-09-13T10:48:13.000Z</time>
      </trkpt>
      <trkpt lat="44.38551" lon="7.04324">
        <ele>2454</ele>
        <time>2024-09-13T10:48:14.000Z</time>
      </trkpt>
      <trkpt lat="44.3855" lon="7.04326">
        <ele>2454</ele>
        <time>2024-09-13T10:48:15.000Z</time>
      </trkpt>
      <trkpt lat="44.38549" lon="7.04328">
        <ele>2454</ele>
        <time>2024-09-13T10:48:16.000Z</time>
      </trkpt>
      <trkpt lat="44.38547" lon="7.0433">
        <ele>2454</ele>
        <time>2024-09-13T10:48:17.000Z</time>
      </trkpt>
      <trkpt lat="44.38546" lon="7.04332">
        <ele>2454.1999511719</ele>
        <time>2024-09-13T10:48:18.000Z</time>
      </trkpt>
      <trkpt lat="44.38545" lon="7.04334">
        <ele>2454.1999511719</ele>
        <time>2024-09-13T10:48:19.000Z</time>
      </trkpt>
      <trkpt lat="44.38543" lon="7.04339">
        <ele>2454.3999023438</ele>
        <time>2024-09-13T10:48:21.000Z</time>
      </trkpt>
      <trkpt lat="44.38542" lon="7.04341">
        <ele>2454.1999511719</ele>
        <time>2024-09-13T10:48:22.000Z</time>
      </trkpt>
      <trkpt lat="44.3854" lon="7.04342">
        <ele>2454.1999511719</ele>
        <time>2024-09-13T10:48:23.000Z</time>
      </trkpt>
      <trkpt lat="44.38539" lon="7.04344">
        <ele>2454.3999023438</ele>
        <time>2024-09-13T10:48:24.000Z</time>
      </trkpt>
      <trkpt lat="44.38536" lon="7.04349">
        <ele>2454.1999511719</ele>
        <time>2024-09-13T10:48:26.000Z</time>
      </trkpt>
      <trkpt lat="44.38532" lon="7.04356">
        <ele>2454.1999511719</ele>
        <time>2024-09-13T10:48:29.000Z</time>
      </trkpt>
      <trkpt lat="44.3852" lon="7.04379">
        <ele>2453.6000976562</ele>
        <time>2024-09-13T10:48:36.000Z</time>
      </trkpt>
      <trkpt lat="44.38516" lon="7.04386">
        <ele>2453.1999511719</ele>
        <time>2024-09-13T10:48:38.000Z</time>
      </trkpt>
      <trkpt lat="44.38514" lon="7.04389">
        <ele>2453</ele>
        <time>2024-09-13T10:48:39.000Z</time>
      </trkpt>
      <trkpt lat="44.38512" lon="7.04392">
        <ele>2452.8000488281</ele>
        <time>2024-09-13T10:48:40.000Z</time>
      </trkpt>
      <trkpt lat="44.38506" lon="7.04397">
        <ele>2452.6000976562</ele>
        <time>2024-09-13T10:48:42.000Z</time>
      </trkpt>
      <trkpt lat="44.38503" lon="7.04398">
        <ele>2452.3999023438</ele>
        <time>2024-09-13T10:48:43.000Z</time>
      </trkpt>
      <trkpt lat="44.385" lon="7.044">
        <ele>2452.1999511719</ele>
        <time>2024-09-13T10:48:44.000Z</time>
      </trkpt>
      <trkpt lat="44.38496" lon="7.044">
        <ele>2452.1999511719</ele>
        <time>2024-09-13T10:48:45.000Z</time>
      </trkpt>
      <trkpt lat="44.38493" lon="7.044">
        <ele>2452.1999511719</ele>
        <time>2024-09-13T10:48:46.000Z</time>
      </trkpt>
      <trkpt lat="44.38489" lon="7.04399">
        <ele>2452.1999511719</ele>
        <time>2024-09-13T10:48:47.000Z</time>
      </trkpt>
      <trkpt lat="44.38486" lon="7.04399">
        <ele>2452.1999511719</ele>
        <time>2024-09-13T10:48:48.000Z</time>
      </trkpt>
      <trkpt lat="44.38482" lon="7.04399">
        <ele>2452.1999511719</ele>
        <time>2024-09-13T10:48:49.000Z</time>
      </trkpt>
      <trkpt lat="44.38479" lon="7.04399">
        <ele>2452.6000976562</ele>
        <time>2024-09-13T10:48:50.000Z</time>
      </trkpt>
      <trkpt lat="44.38473" lon="7.04398">
        <ele>2452.8000488281</ele>
        <time>2024-09-13T10:48:52.000Z</time>
      </trkpt>
      <trkpt lat="44.3847" lon="7.04398">
        <ele>2452.8000488281</ele>
        <time>2024-09-13T10:48:53.000Z</time>
      </trkpt>
      <trkpt lat="44.38467" lon="7.04398">
        <ele>2452.8000488281</ele>
        <time>2024-09-13T10:48:54.000Z</time>
      </trkpt>
      <trkpt lat="44.38464" lon="7.04398">
        <ele>2452.8000488281</ele>
        <time>2024-09-13T10:48:55.000Z</time>
      </trkpt>
      <trkpt lat="44.38461" lon="7.04397">
        <ele>2452.8000488281</ele>
        <time>2024-09-13T10:48:56.000Z</time>
      </trkpt>
      <trkpt lat="44.38455" lon="7.04394">
        <ele>2452.8000488281</ele>
        <time>2024-09-13T10:48:58.000Z</time>
      </trkpt>
      <trkpt lat="44.38442" lon="7.04385">
        <ele>2452.6000976562</ele>
        <time>2024-09-13T10:49:03.000Z</time>
      </trkpt>
      <trkpt lat="44.38439" lon="7.04383">
        <ele>2452.6000976562</ele>
        <time>2024-09-13T10:49:04.000Z</time>
      </trkpt>
      <trkpt lat="44.38437" lon="7.04381">
        <ele>2452.6000976562</ele>
        <time>2024-09-13T10:49:05.000Z</time>
      </trkpt>
      <trkpt lat="44.38435" lon="7.04379">
        <ele>2452.6000976562</ele>
        <time>2024-09-13T10:49:06.000Z</time>
      </trkpt>
      <trkpt lat="44.38433" lon="7.04376">
        <ele>2452.6000976562</ele>
        <time>2024-09-13T10:49:07.000Z</time>
      </trkpt>
      <trkpt lat="44.38432" lon="7.04373">
        <ele>2452.6000976562</ele>
        <time>2024-09-13T10:49:08.000Z</time>
      </trkpt>
      <trkpt lat="44.38431" lon="7.04369">
        <ele>2452.6000976562</ele>
        <time>2024-09-13T10:49:09.000Z</time>
      </trkpt>
      <trkpt lat="44.3843" lon="7.04365">
        <ele>2452.6000976562</ele>
        <time>2024-09-13T10:49:10.000Z</time>
      </trkpt>
      <trkpt lat="44.38429" lon="7.04361">
        <ele>2452.6000976562</ele>
        <time>2024-09-13T10:49:11.000Z</time>
      </trkpt>
      <trkpt lat="44.38429" lon="7.04357">
        <ele>2452.6000976562</ele>
        <time>2024-09-13T10:49:12.000Z</time>
      </trkpt>
      <trkpt lat="44.38429" lon="7.04353">
        <ele>2452.3999023438</ele>
        <time>2024-09-13T10:49:13.000Z</time>
      </trkpt>
      <trkpt lat="44.38426" lon="7.04323">
        <ele>2452.1999511719</ele>
        <time>2024-09-13T10:49:20.000Z</time>
      </trkpt>
      <trkpt lat="44.38425" lon="7.04319">
        <ele>2452.1999511719</ele>
        <time>2024-09-13T10:49:21.000Z</time>
      </trkpt>
      <trkpt lat="44.38424" lon="7.04315">
        <ele>2452.1999511719</ele>
        <time>2024-09-13T10:49:22.000Z</time>
      </trkpt>
      <trkpt lat="44.3842" lon="7.04294">
        <ele>2452.1999511719</ele>
        <time>2024-09-13T10:49:27.000Z</time>
      </trkpt>
      <trkpt lat="44.38419" lon="7.04291">
        <ele>2452.1999511719</ele>
        <time>2024-09-13T10:49:28.000Z</time>
      </trkpt>
      <trkpt lat="44.38417" lon="7.04288">
        <ele>2452</ele>
        <time>2024-09-13T10:49:29.000Z</time>
      </trkpt>
      <trkpt lat="44.38414" lon="7.04286">
        <ele>2451.8000488281</ele>
        <time>2024-09-13T10:49:30.000Z</time>
      </trkpt>
      <trkpt lat="44.38412" lon="7.04284">
        <ele>2452</ele>
        <time>2024-09-13T10:49:31.000Z</time>
      </trkpt>
      <trkpt lat="44.3841" lon="7.04283">
        <ele>2452</ele>
        <time>2024-09-13T10:49:32.000Z</time>
      </trkpt>
      <trkpt lat="44.38407" lon="7.04281">
        <ele>2452</ele>
        <time>2024-09-13T10:49:33.000Z</time>
      </trkpt>
      <trkpt lat="44.38392" lon="7.04274">
        <ele>2451.8000488281</ele>
        <time>2024-09-13T10:49:38.000Z</time>
      </trkpt>
      <trkpt lat="44.38389" lon="7.04274">
        <ele>2451.8000488281</ele>
        <time>2024-09-13T10:49:39.000Z</time>
      </trkpt>
      <trkpt lat="44.38386" lon="7.04276">
        <ele>2451.6000976562</ele>
        <time>2024-09-13T10:49:40.000Z</time>
      </trkpt>
      <trkpt lat="44.3838" lon="7.04288">
        <ele>2451.3999023438</ele>
        <time>2024-09-13T10:49:43.000Z</time>
      </trkpt>
      <trkpt lat="44.38378" lon="7.04292">
        <ele>2451.3999023438</ele>
        <time>2024-09-13T10:49:44.000Z</time>
      </trkpt>
      <trkpt lat="44.38377" lon="7.043">
        <ele>2451.3999023438</ele>
        <time>2024-09-13T10:49:46.000Z</time>
      </trkpt>
      <trkpt lat="44.38375" lon="7.04304">
        <ele>2451.3999023438</ele>
        <time>2024-09-13T10:49:47.000Z</time>
      </trkpt>
      <trkpt lat="44.38374" lon="7.04309">
        <ele>2451.3999023438</ele>
        <time>2024-09-13T10:49:48.000Z</time>
      </trkpt>
      <trkpt lat="44.38373" lon="7.04312">
        <ele>2451.3999023438</ele>
        <time>2024-09-13T10:49:49.000Z</time>
      </trkpt>
      <trkpt lat="44.38372" lon="7.04316">
        <ele>2451.6000976562</ele>
        <time>2024-09-13T10:49:50.000Z</time>
      </trkpt>
      <trkpt lat="44.38372" lon="7.0432">
        <ele>2451.6000976562</ele>
        <time>2024-09-13T10:49:51.000Z</time>
      </trkpt>
      <trkpt lat="44.38371" lon="7.04324">
        <ele>2451.8000488281</ele>
        <time>2024-09-13T10:49:52.000Z</time>
      </trkpt>
      <trkpt lat="44.38369" lon="7.04333">
        <ele>2452</ele>
        <time>2024-09-13T10:49:54.000Z</time>
      </trkpt>
      <trkpt lat="44.38368" lon="7.04337">
        <ele>2452.1999511719</ele>
        <time>2024-09-13T10:49:55.000Z</time>
      </trkpt>
      <trkpt lat="44.38365" lon="7.04345">
        <ele>2452.3999023438</ele>
        <time>2024-09-13T10:49:57.000Z</time>
      </trkpt>
      <trkpt lat="44.38355" lon="7.04362">
        <ele>2452.6000976562</ele>
        <time>2024-09-13T10:50:02.000Z</time>
      </trkpt>
      <trkpt lat="44.38354" lon="7.04366">
        <ele>2452.6000976562</ele>
        <time>2024-09-13T10:50:03.000Z</time>
      </trkpt>
      <trkpt lat="44.38353" lon="7.0437">
        <ele>2452.6000976562</ele>
        <time>2024-09-13T10:50:04.000Z</time>
      </trkpt>
      <trkpt lat="44.38353" lon="7.04374">
        <ele>2452.6000976562</ele>
        <time>2024-09-13T10:50:05.000Z</time>
      </trkpt>
      <trkpt lat="44.38353" lon="7.04379">
        <ele>2452.6000976562</ele>
        <time>2024-09-13T10:50:06.000Z</time>
      </trkpt>
      <trkpt lat="44.38353" lon="7.04383">
        <ele>2452.6000976562</ele>
        <time>2024-09-13T10:50:07.000Z</time>
      </trkpt>
      <trkpt lat="44.38353" lon="7.04388">
        <ele>2452.8000488281</ele>
        <time>2024-09-13T10:50:08.000Z</time>
      </trkpt>
      <trkpt lat="44.38352" lon="7.04393">
        <ele>2453</ele>
        <time>2024-09-13T10:50:09.000Z</time>
      </trkpt>
      <trkpt lat="44.38351" lon="7.04397">
        <ele>2453</ele>
        <time>2024-09-13T10:50:10.000Z</time>
      </trkpt>
      <trkpt lat="44.38349" lon="7.0441">
        <ele>2453</ele>
        <time>2024-09-13T10:50:13.000Z</time>
      </trkpt>
      <trkpt lat="44.38347" lon="7.04419">
        <ele>2452.8000488281</ele>
        <time>2024-09-13T10:50:15.000Z</time>
      </trkpt>
      <trkpt lat="44.38347" lon="7.04423">
        <ele>2452.8000488281</ele>
        <time>2024-09-13T10:50:16.000Z</time>
      </trkpt>
      <trkpt lat="44.38346" lon="7.04428">
        <ele>2452.6000976562</ele>
        <time>2024-09-13T10:50:17.000Z</time>
      </trkpt>
      <trkpt lat="44.38344" lon="7.04432">
        <ele>2452.6000976562</ele>
        <time>2024-09-13T10:50:18.000Z</time>
      </trkpt>
      <trkpt lat="44.38343" lon="7.04435">
        <ele>2452.8000488281</ele>
        <time>2024-09-13T10:50:19.000Z</time>
      </trkpt>
      <trkpt lat="44.38343" lon="7.04439">
        <ele>2452.8000488281</ele>
        <time>2024-09-13T10:50:20.000Z</time>
      </trkpt>
      <trkpt lat="44.38342" lon="7.04443">
        <ele>2452.8000488281</ele>
        <time>2024-09-13T10:50:21.000Z</time>
      </trkpt>
      <trkpt lat="44.38336" lon="7.04469">
        <ele>2452.6000976562</ele>
        <time>2024-09-13T10:50:27.000Z</time>
      </trkpt>
      <trkpt lat="44.38335" lon="7.04473">
        <ele>2452.6000976562</ele>
        <time>2024-09-13T10:50:28.000Z</time>
      </trkpt>
      <trkpt lat="44.38333" lon="7.04478">
        <ele>2452.3999023438</ele>
        <time>2024-09-13T10:50:29.000Z</time>
      </trkpt>
      <trkpt lat="44.38332" lon="7.04482">
        <ele>2452.3999023438</ele>
        <time>2024-09-13T10:50:30.000Z</time>
      </trkpt>
      <trkpt lat="44.38328" lon="7.04494">
        <ele>2452.6000976562</ele>
        <time>2024-09-13T10:50:33.000Z</time>
      </trkpt>
      <trkpt lat="44.38327" lon="7.04498">
        <ele>2452.6000976562</ele>
        <time>2024-09-13T10:50:34.000Z</time>
      </trkpt>
      <trkpt lat="44.38326" lon="7.04503">
        <ele>2452.6000976562</ele>
        <time>2024-09-13T10:50:35.000Z</time>
      </trkpt>
      <trkpt lat="44.38326" lon="7.04507">
        <ele>2452.6000976562</ele>
        <time>2024-09-13T10:50:36.000Z</time>
      </trkpt>
      <trkpt lat="44.38326" lon="7.04511">
        <ele>2452.6000976562</ele>
        <time>2024-09-13T10:50:37.000Z</time>
      </trkpt>
      <trkpt lat="44.38326" lon="7.04515">
        <ele>2452.6000976562</ele>
        <time>2024-09-13T10:50:38.000Z</time>
      </trkpt>
      <trkpt lat="44.38325" lon="7.04519">
        <ele>2452.6000976562</ele>
        <time>2024-09-13T10:50:39.000Z</time>
      </trkpt>
      <trkpt lat="44.38325" lon="7.04523">
        <ele>2452.6000976562</ele>
        <time>2024-09-13T10:50:40.000Z</time>
      </trkpt>
      <trkpt lat="44.38324" lon="7.04527">
        <ele>2452.6000976562</ele>
        <time>2024-09-13T10:50:41.000Z</time>
      </trkpt>
      <trkpt lat="44.38322" lon="7.0453">
        <ele>2452.8000488281</ele>
        <time>2024-09-13T10:50:42.000Z</time>
      </trkpt>
      <trkpt lat="44.38319" lon="7.04532">
        <ele>2453.1999511719</ele>
        <time>2024-09-13T10:50:43.000Z</time>
      </trkpt>
      <trkpt lat="44.38316" lon="7.04532">
        <ele>2453.1999511719</ele>
        <time>2024-09-13T10:50:44.000Z</time>
      </trkpt>
      <trkpt lat="44.38308" lon="7.04528">
        <ele>2453.1999511719</ele>
        <time>2024-09-13T10:50:47.000Z</time>
      </trkpt>
      <trkpt lat="44.38305" lon="7.04527">
        <ele>2453.1999511719</ele>
        <time>2024-09-13T10:50:48.000Z</time>
      </trkpt>
      <trkpt lat="44.38301" lon="7.04527">
        <ele>2453.1999511719</ele>
        <time>2024-09-13T10:50:49.000Z</time>
      </trkpt>
      <trkpt lat="44.38298" lon="7.04528">
        <ele>2453.1999511719</ele>
        <time>2024-09-13T10:50:50.000Z</time>
      </trkpt>
      <trkpt lat="44.38293" lon="7.04533">
        <ele>2453</ele>
        <time>2024-09-13T10:50:52.000Z</time>
      </trkpt>
      <trkpt lat="44.38291" lon="7.04536">
        <ele>2453.1999511719</ele>
        <time>2024-09-13T10:50:53.000Z</time>
      </trkpt>
      <trkpt lat="44.3829" lon="7.04539">
        <ele>2453.1999511719</ele>
        <time>2024-09-13T10:50:54.000Z</time>
      </trkpt>
      <trkpt lat="44.38288" lon="7.04542">
        <ele>2453.1999511719</ele>
        <time>2024-09-13T10:50:55.000Z</time>
      </trkpt>
      <trkpt lat="44.38286" lon="7.04544">
        <ele>2453.1999511719</ele>
        <time>2024-09-13T10:50:56.000Z</time>
      </trkpt>
      <trkpt lat="44.38283" lon="7.04546">
        <ele>2453.1999511719</ele>
        <time>2024-09-13T10:50:57.000Z</time>
      </trkpt>
      <trkpt lat="44.3828" lon="7.04546">
        <ele>2453.1999511719</ele>
        <time>2024-09-13T10:50:58.000Z</time>
      </trkpt>
      <trkpt lat="44.38278" lon="7.04546">
        <ele>2453.1999511719</ele>
        <time>2024-09-13T10:50:59.000Z</time>
      </trkpt>
      <trkpt lat="44.38274" lon="7.04545">
        <ele>2453.1999511719</ele>
        <time>2024-09-13T10:51:00.000Z</time>
      </trkpt>
      <trkpt lat="44.38265" lon="7.04543">
        <ele>2453</ele>
        <time>2024-09-13T10:51:03.000Z</time>
      </trkpt>
      <trkpt lat="44.38261" lon="7.04544">
        <ele>2452.8000488281</ele>
        <time>2024-09-13T10:51:04.000Z</time>
      </trkpt>
      <trkpt lat="44.38259" lon="7.04547">
        <ele>2452.8000488281</ele>
        <time>2024-09-13T10:51:05.000Z</time>
      </trkpt>
      <trkpt lat="44.38257" lon="7.04551">
        <ele>2452.8000488281</ele>
        <time>2024-09-13T10:51:06.000Z</time>
      </trkpt>
      <trkpt lat="44.38256" lon="7.0456">
        <ele>2452.6000976562</ele>
        <time>2024-09-13T10:51:08.000Z</time>
      </trkpt>
      <trkpt lat="44.38253" lon="7.04574">
        <ele>2452.3999023438</ele>
        <time>2024-09-13T10:51:11.000Z</time>
      </trkpt>
      <trkpt lat="44.38252" lon="7.04577">
        <ele>2452.3999023438</ele>
        <time>2024-09-13T10:51:12.000Z</time>
      </trkpt>
      <trkpt lat="44.38244" lon="7.04597">
        <ele>2452.1999511719</ele>
        <time>2024-09-13T10:51:17.000Z</time>
      </trkpt>
      <trkpt lat="44.38241" lon="7.046">
        <ele>2452.1999511719</ele>
        <time>2024-09-13T10:51:18.000Z</time>
      </trkpt>
      <trkpt lat="44.38239" lon="7.04604">
        <ele>2452</ele>
        <time>2024-09-13T10:51:19.000Z</time>
      </trkpt>
      <trkpt lat="44.38233" lon="7.0461">
        <ele>2452.1999511719</ele>
        <time>2024-09-13T10:51:21.000Z</time>
      </trkpt>
      <trkpt lat="44.38231" lon="7.04613">
        <ele>2452.3999023438</ele>
        <time>2024-09-13T10:51:22.000Z</time>
      </trkpt>
      <trkpt lat="44.38229" lon="7.04617">
        <ele>2452.3999023438</ele>
        <time>2024-09-13T10:51:23.000Z</time>
      </trkpt>
      <trkpt lat="44.38228" lon="7.0462">
        <ele>2452.3999023438</ele>
        <time>2024-09-13T10:51:24.000Z</time>
      </trkpt>
      <trkpt lat="44.38227" lon="7.04624">
        <ele>2452.6000976562</ele>
        <time>2024-09-13T10:51:25.000Z</time>
      </trkpt>
      <trkpt lat="44.38227" lon="7.04628">
        <ele>2452.6000976562</ele>
        <time>2024-09-13T10:51:26.000Z</time>
      </trkpt>
      <trkpt lat="44.38226" lon="7.04633">
        <ele>2452.3999023438</ele>
        <time>2024-09-13T10:51:27.000Z</time>
      </trkpt>
      <trkpt lat="44.38224" lon="7.04642">
        <ele>2452.3999023438</ele>
        <time>2024-09-13T10:51:29.000Z</time>
      </trkpt>
      <trkpt lat="44.38223" lon="7.04647">
        <ele>2452.1999511719</ele>
        <time>2024-09-13T10:51:30.000Z</time>
      </trkpt>
      <trkpt lat="44.38222" lon="7.04651">
        <ele>2452.1999511719</ele>
        <time>2024-09-13T10:51:31.000Z</time>
      </trkpt>
      <trkpt lat="44.38222" lon="7.04655">
        <ele>2452.1999511719</ele>
        <time>2024-09-13T10:51:32.000Z</time>
      </trkpt>
      <trkpt lat="44.38223" lon="7.04672">
        <ele>2452.6000976562</ele>
        <time>2024-09-13T10:51:36.000Z</time>
      </trkpt>
      <trkpt lat="44.38223" lon="7.04676">
        <ele>2452.6000976562</ele>
        <time>2024-09-13T10:51:37.000Z</time>
      </trkpt>
      <trkpt lat="44.38223" lon="7.0468">
        <ele>2452.6000976562</ele>
        <time>2024-09-13T10:51:38.000Z</time>
      </trkpt>
      <trkpt lat="44.38223" lon="7.04688">
        <ele>2452.6000976562</ele>
        <time>2024-09-13T10:51:40.000Z</time>
      </trkpt>
      <trkpt lat="44.38223" lon="7.04718">
        <ele>2452.3999023438</ele>
        <time>2024-09-13T10:51:47.000Z</time>
      </trkpt>
      <trkpt lat="44.38225" lon="7.04733">
        <ele>2452.1999511719</ele>
        <time>2024-09-13T10:51:50.000Z</time>
      </trkpt>
      <trkpt lat="44.38226" lon="7.04737">
        <ele>2452.1999511719</ele>
        <time>2024-09-13T10:51:51.000Z</time>
      </trkpt>
      <trkpt lat="44.38227" lon="7.04742">
        <ele>2452.1999511719</ele>
        <time>2024-09-13T10:51:52.000Z</time>
      </trkpt>
      <trkpt lat="44.38227" lon="7.04746">
        <ele>2452.1999511719</ele>
        <time>2024-09-13T10:51:53.000Z</time>
      </trkpt>
      <trkpt lat="44.38228" lon="7.0475">
        <ele>2452.1999511719</ele>
        <time>2024-09-13T10:51:54.000Z</time>
      </trkpt>
      <trkpt lat="44.38228" lon="7.04758">
        <ele>2452.1999511719</ele>
        <time>2024-09-13T10:51:56.000Z</time>
      </trkpt>
      <trkpt lat="44.38227" lon="7.04761">
        <ele>2452.1999511719</ele>
        <time>2024-09-13T10:51:57.000Z</time>
      </trkpt>
      <trkpt lat="44.38226" lon="7.04765">
        <ele>2452</ele>
        <time>2024-09-13T10:51:58.000Z</time>
      </trkpt>
      <trkpt lat="44.38225" lon="7.04768">
        <ele>2452</ele>
        <time>2024-09-13T10:51:59.000Z</time>
      </trkpt>
      <trkpt lat="44.38223" lon="7.04772">
        <ele>2452.1999511719</ele>
        <time>2024-09-13T10:52:00.000Z</time>
      </trkpt>
      <trkpt lat="44.38219" lon="7.04783">
        <ele>2452.1999511719</ele>
        <time>2024-09-13T10:52:03.000Z</time>
      </trkpt>
      <trkpt lat="44.38217" lon="7.0479">
        <ele>2452.1999511719</ele>
        <time>2024-09-13T10:52:05.000Z</time>
      </trkpt>
      <trkpt lat="44.38216" lon="7.04794">
        <ele>2452.1999511719</ele>
        <time>2024-09-13T10:52:06.000Z</time>
      </trkpt>
      <trkpt lat="44.38215" lon="7.04802">
        <ele>2452</ele>
        <time>2024-09-13T10:52:08.000Z</time>
      </trkpt>
      <trkpt lat="44.38215" lon="7.04806">
        <ele>2451.8000488281</ele>
        <time>2024-09-13T10:52:09.000Z</time>
      </trkpt>
      <trkpt lat="44.38216" lon="7.04822">
        <ele>2451.8000488281</ele>
        <time>2024-09-13T10:52:13.000Z</time>
      </trkpt>
      <trkpt lat="44.38216" lon="7.04835">
        <ele>2452</ele>
        <time>2024-09-13T10:52:16.000Z</time>
      </trkpt>
      <trkpt lat="44.38216" lon="7.04839">
        <ele>2452.1999511719</ele>
        <time>2024-09-13T10:52:17.000Z</time>
      </trkpt>
      <trkpt lat="44.38215" lon="7.04843">
        <ele>2452.3999023438</ele>
        <time>2024-09-13T10:52:18.000Z</time>
      </trkpt>
      <trkpt lat="44.38215" lon="7.04847">
        <ele>2452.3999023438</ele>
        <time>2024-09-13T10:52:19.000Z</time>
      </trkpt>
      <trkpt lat="44.38214" lon="7.0485">
        <ele>2452.6000976562</ele>
        <time>2024-09-13T10:52:20.000Z</time>
      </trkpt>
      <trkpt lat="44.38214" lon="7.04853">
        <ele>2452.6000976562</ele>
        <time>2024-09-13T10:52:21.000Z</time>
      </trkpt>
      <trkpt lat="44.38214" lon="7.04856">
        <ele>2452.8000488281</ele>
        <time>2024-09-13T10:52:22.000Z</time>
      </trkpt>
      <trkpt lat="44.38213" lon="7.04859">
        <ele>2453</ele>
        <time>2024-09-13T10:52:23.000Z</time>
      </trkpt>
      <trkpt lat="44.38214" lon="7.04861">
        <ele>2453.3999023438</ele>
        <time>2024-09-13T10:52:24.000Z</time>
      </trkpt>
      <trkpt lat="44.38215" lon="7.04863">
        <ele>2453.6000976562</ele>
        <time>2024-09-13T10:52:25.000Z</time>
      </trkpt>
      <trkpt lat="44.38216" lon="7.04865">
        <ele>2453.8000488281</ele>
        <time>2024-09-13T10:52:26.000Z</time>
      </trkpt>
      <trkpt lat="44.38228" lon="7.04872">
        <ele>2453.1999511719</ele>
        <time>2024-09-13T10:52:30.000Z</time>
      </trkpt>
      <trkpt lat="44.38231" lon="7.04876">
        <ele>2452.8000488281</ele>
        <time>2024-09-13T10:52:31.000Z</time>
      </trkpt>
      <trkpt lat="44.38233" lon="7.04882">
        <ele>2452.3999023438</ele>
        <time>2024-09-13T10:52:32.000Z</time>
      </trkpt>
      <trkpt lat="44.38234" lon="7.04888">
        <ele>2452</ele>
        <time>2024-09-13T10:52:33.000Z</time>
      </trkpt>
      <trkpt lat="44.38235" lon="7.04893">
        <ele>2451.8000488281</ele>
        <time>2024-09-13T10:52:34.000Z</time>
      </trkpt>
      <trkpt lat="44.38234" lon="7.04898">
        <ele>2451.8000488281</ele>
        <time>2024-09-13T10:52:35.000Z</time>
      </trkpt>
      <trkpt lat="44.38232" lon="7.04902">
        <ele>2451.8000488281</ele>
        <time>2024-09-13T10:52:36.000Z</time>
      </trkpt>
      <trkpt lat="44.38229" lon="7.04904">
        <ele>2451.8000488281</ele>
        <time>2024-09-13T10:52:37.000Z</time>
      </trkpt>
      <trkpt lat="44.38227" lon="7.04907">
        <ele>2451.8000488281</ele>
        <time>2024-09-13T10:52:38.000Z</time>
      </trkpt>
      <trkpt lat="44.38224" lon="7.04909">
        <ele>2451.6000976562</ele>
        <time>2024-09-13T10:52:39.000Z</time>
      </trkpt>
      <trkpt lat="44.3822" lon="7.04916">
        <ele>2451.1999511719</ele>
        <time>2024-09-13T10:52:41.000Z</time>
      </trkpt>
      <trkpt lat="44.3822" lon="7.0492">
        <ele>2450.8000488281</ele>
        <time>2024-09-13T10:52:42.000Z</time>
      </trkpt>
      <trkpt lat="44.38223" lon="7.04928">
        <ele>2450.8000488281</ele>
        <time>2024-09-13T10:52:44.000Z</time>
      </trkpt>
      <trkpt lat="44.38228" lon="7.04935">
        <ele>2450.3999023438</ele>
        <time>2024-09-13T10:52:46.000Z</time>
      </trkpt>
      <trkpt lat="44.3823" lon="7.04938">
        <ele>2450.1999511719</ele>
        <time>2024-09-13T10:52:47.000Z</time>
      </trkpt>
      <trkpt lat="44.38231" lon="7.04942">
        <ele>2449.8000488281</ele>
        <time>2024-09-13T10:52:48.000Z</time>
      </trkpt>
      <trkpt lat="44.38234" lon="7.0495">
        <ele>2449.3999023438</ele>
        <time>2024-09-13T10:52:50.000Z</time>
      </trkpt>
      <trkpt lat="44.38237" lon="7.04959">
        <ele>2448.8000488281</ele>
        <time>2024-09-13T10:52:52.000Z</time>
      </trkpt>
      <trkpt lat="44.38241" lon="7.04975">
        <ele>2447.6000976562</ele>
        <time>2024-09-13T10:52:55.000Z</time>
      </trkpt>
      <trkpt lat="44.38243" lon="7.04978">
        <ele>2447.1999511719</ele>
        <time>2024-09-13T10:52:56.000Z</time>
      </trkpt>
      <trkpt lat="44.38246" lon="7.04981">
        <ele>2446.6000976562</ele>
        <time>2024-09-13T10:52:57.000Z</time>
      </trkpt>
      <trkpt lat="44.38249" lon="7.04985">
        <ele>2446.1999511719</ele>
        <time>2024-09-13T10:52:58.000Z</time>
      </trkpt>
      <trkpt lat="44.38255" lon="7.04992">
        <ele>2445.3999023438</ele>
        <time>2024-09-13T10:53:00.000Z</time>
      </trkpt>
      <trkpt lat="44.38258" lon="7.04997">
        <ele>2444.6000976562</ele>
        <time>2024-09-13T10:53:01.000Z</time>
      </trkpt>
      <trkpt lat="44.38266" lon="7.05009">
        <ele>2443.1999511719</ele>
        <time>2024-09-13T10:53:03.000Z</time>
      </trkpt>
      <trkpt lat="44.38269" lon="7.05015">
        <ele>2442.8000488281</ele>
        <time>2024-09-13T10:53:04.000Z</time>
      </trkpt>
      <trkpt lat="44.38271" lon="7.05022">
        <ele>2442.6000976562</ele>
        <time>2024-09-13T10:53:05.000Z</time>
      </trkpt>
      <trkpt lat="44.38272" lon="7.05029">
        <ele>2441.8000488281</ele>
        <time>2024-09-13T10:53:06.000Z</time>
      </trkpt>
      <trkpt lat="44.38273" lon="7.05037">
        <ele>2441.6000976562</ele>
        <time>2024-09-13T10:53:07.000Z</time>
      </trkpt>
      <trkpt lat="44.38274" lon="7.05044">
        <ele>2441.3999023438</ele>
        <time>2024-09-13T10:53:08.000Z</time>
      </trkpt>
      <trkpt lat="44.38274" lon="7.05051">
        <ele>2440.6000976562</ele>
        <time>2024-09-13T10:53:09.000Z</time>
      </trkpt>
      <trkpt lat="44.38274" lon="7.05058">
        <ele>2440</ele>
        <time>2024-09-13T10:53:10.000Z</time>
      </trkpt>
      <trkpt lat="44.38273" lon="7.05065">
        <ele>2439.8000488281</ele>
        <time>2024-09-13T10:53:11.000Z</time>
      </trkpt>
      <trkpt lat="44.38271" lon="7.05078">
        <ele>2439.6000976562</ele>
        <time>2024-09-13T10:53:13.000Z</time>
      </trkpt>
      <trkpt lat="44.38269" lon="7.05093">
        <ele>2439.3999023438</ele>
        <time>2024-09-13T10:53:15.000Z</time>
      </trkpt>
      <trkpt lat="44.38271" lon="7.05109">
        <ele>2439</ele>
        <time>2024-09-13T10:53:17.000Z</time>
      </trkpt>
      <trkpt lat="44.38272" lon="7.05117">
        <ele>2438.6000976562</ele>
        <time>2024-09-13T10:53:18.000Z</time>
      </trkpt>
      <trkpt lat="44.38273" lon="7.05125">
        <ele>2438.1999511719</ele>
        <time>2024-09-13T10:53:19.000Z</time>
      </trkpt>
      <trkpt lat="44.38275" lon="7.05141">
        <ele>2437</ele>
        <time>2024-09-13T10:53:21.000Z</time>
      </trkpt>
      <trkpt lat="44.38274" lon="7.05149">
        <ele>2436.8000488281</ele>
        <time>2024-09-13T10:53:22.000Z</time>
      </trkpt>
      <trkpt lat="44.38273" lon="7.05157">
        <ele>2436.8000488281</ele>
        <time>2024-09-13T10:53:23.000Z</time>
      </trkpt>
      <trkpt lat="44.38272" lon="7.05192">
        <ele>2436</ele>
        <time>2024-09-13T10:53:27.000Z</time>
      </trkpt>
      <trkpt lat="44.38271" lon="7.05201">
        <ele>2435.6000976562</ele>
        <time>2024-09-13T10:53:28.000Z</time>
      </trkpt>
      <trkpt lat="44.3827" lon="7.05209">
        <ele>2435.1999511719</ele>
        <time>2024-09-13T10:53:29.000Z</time>
      </trkpt>
      <trkpt lat="44.38269" lon="7.05218">
        <ele>2435</ele>
        <time>2024-09-13T10:53:30.000Z</time>
      </trkpt>
      <trkpt lat="44.38269" lon="7.05226">
        <ele>2434.6000976562</ele>
        <time>2024-09-13T10:53:31.000Z</time>
      </trkpt>
      <trkpt lat="44.38268" lon="7.05234">
        <ele>2434.6000976562</ele>
        <time>2024-09-13T10:53:32.000Z</time>
      </trkpt>
      <trkpt lat="44.38268" lon="7.05241">
        <ele>2434.3999023438</ele>
        <time>2024-09-13T10:53:33.000Z</time>
      </trkpt>
      <trkpt lat="44.38267" lon="7.05248">
        <ele>2434.3999023438</ele>
        <time>2024-09-13T10:53:34.000Z</time>
      </trkpt>
      <trkpt lat="44.38266" lon="7.05255">
        <ele>2434.6000976562</ele>
        <time>2024-09-13T10:53:35.000Z</time>
      </trkpt>
      <trkpt lat="44.38266" lon="7.05261">
        <ele>2434.8000488281</ele>
        <time>2024-09-13T10:53:36.000Z</time>
      </trkpt>
      <trkpt lat="44.38265" lon="7.05266">
        <ele>2435</ele>
        <time>2024-09-13T10:53:37.000Z</time>
      </trkpt>
      <trkpt lat="44.38263" lon="7.05271">
        <ele>2435.6000976562</ele>
        <time>2024-09-13T10:53:38.000Z</time>
      </trkpt>
      <trkpt lat="44.38262" lon="7.05275">
        <ele>2435.8000488281</ele>
        <time>2024-09-13T10:53:39.000Z</time>
      </trkpt>
      <trkpt lat="44.3826" lon="7.0528">
        <ele>2435.8000488281</ele>
        <time>2024-09-13T10:53:40.000Z</time>
      </trkpt>
      <trkpt lat="44.38258" lon="7.05283">
        <ele>2436</ele>
        <time>2024-09-13T10:53:41.000Z</time>
      </trkpt>
      <trkpt lat="44.38256" lon="7.05287">
        <ele>2436.3999023438</ele>
        <time>2024-09-13T10:53:42.000Z</time>
      </trkpt>
      <trkpt lat="44.38254" lon="7.0529">
        <ele>2436.6000976562</ele>
        <time>2024-09-13T10:53:43.000Z</time>
      </trkpt>
      <trkpt lat="44.38252" lon="7.05292">
        <ele>2436.8000488281</ele>
        <time>2024-09-13T10:53:44.000Z</time>
      </trkpt>
      <trkpt lat="44.38251" lon="7.05294">
        <ele>2437.1999511719</ele>
        <time>2024-09-13T10:53:45.000Z</time>
      </trkpt>
      <trkpt lat="44.3825" lon="7.05296">
        <ele>2437.3999023438</ele>
        <time>2024-09-13T10:53:46.000Z</time>
      </trkpt>
      <trkpt lat="44.38249" lon="7.05298">
        <ele>2437.6000976562</ele>
        <time>2024-09-13T10:53:47.000Z</time>
      </trkpt>
      <trkpt lat="44.38245" lon="7.05307">
        <ele>2438.3999023438</ele>
        <time>2024-09-13T10:53:51.000Z</time>
      </trkpt>
      <trkpt lat="44.38244" lon="7.05309">
        <ele>2438.8000488281</ele>
        <time>2024-09-13T10:53:52.000Z</time>
      </trkpt>
      <trkpt lat="44.38243" lon="7.05311">
        <ele>2438.8000488281</ele>
        <time>2024-09-13T10:53:53.000Z</time>
      </trkpt>
      <trkpt lat="44.38242" lon="7.05313">
        <ele>2439</ele>
        <time>2024-09-13T10:53:54.000Z</time>
      </trkpt>
      <trkpt lat="44.38239" lon="7.05317">
        <ele>2439.6000976562</ele>
        <time>2024-09-13T10:53:56.000Z</time>
      </trkpt>
      <trkpt lat="44.38238" lon="7.05319">
        <ele>2439.6000976562</ele>
        <time>2024-09-13T10:53:57.000Z</time>
      </trkpt>
      <trkpt lat="44.38237" lon="7.05321">
        <ele>2440</ele>
        <time>2024-09-13T10:53:58.000Z</time>
      </trkpt>
      <trkpt lat="44.38236" lon="7.05323">
        <ele>2440.3999023438</ele>
        <time>2024-09-13T10:53:59.000Z</time>
      </trkpt>
      <trkpt lat="44.38235" lon="7.05325">
        <ele>2440.6000976562</ele>
        <time>2024-09-13T10:54:00.000Z</time>
      </trkpt>
      <trkpt lat="44.38233" lon="7.05328">
        <ele>2440.8000488281</ele>
        <time>2024-09-13T10:54:01.000Z</time>
      </trkpt>
      <trkpt lat="44.38233" lon="7.0533">
        <ele>2441</ele>
        <time>2024-09-13T10:54:02.000Z</time>
      </trkpt>
      <trkpt lat="44.38232" lon="7.05332">
        <ele>2441</ele>
        <time>2024-09-13T10:54:03.000Z</time>
      </trkpt>
      <trkpt lat="44.38231" lon="7.05334">
        <ele>2441.1999511719</ele>
        <time>2024-09-13T10:54:04.000Z</time>
      </trkpt>
      <trkpt lat="44.38231" lon="7.05336">
        <ele>2441.6000976562</ele>
        <time>2024-09-13T10:54:05.000Z</time>
      </trkpt>
      <trkpt lat="44.3823" lon="7.05338">
        <ele>2441.8000488281</ele>
        <time>2024-09-13T10:54:06.000Z</time>
      </trkpt>
      <trkpt lat="44.3823" lon="7.0534">
        <ele>2441.8000488281</ele>
        <time>2024-09-13T10:54:07.000Z</time>
      </trkpt>
      <trkpt lat="44.3823" lon="7.05342">
        <ele>2441.8000488281</ele>
        <time>2024-09-13T10:54:08.000Z</time>
      </trkpt>
      <trkpt lat="44.3823" lon="7.05344">
        <ele>2441.8000488281</ele>
        <time>2024-09-13T10:54:09.000Z</time>
      </trkpt>
      <trkpt lat="44.38229" lon="7.05347">
        <ele>2441.8000488281</ele>
        <time>2024-09-13T10:54:10.000Z</time>
      </trkpt>
      <trkpt lat="44.38229" lon="7.05349">
        <ele>2442</ele>
        <time>2024-09-13T10:54:11.000Z</time>
      </trkpt>
      <trkpt lat="44.38229" lon="7.0535">
        <ele>2442</ele>
        <time>2024-09-13T10:54:12.000Z</time>
      </trkpt>
      <trkpt lat="44.38229" lon="7.05352">
        <ele>2442</ele>
        <time>2024-09-13T10:54:13.000Z</time>
      </trkpt>
      <trkpt lat="44.38229" lon="7.05355">
        <ele>2442</ele>
        <time>2024-09-13T10:54:14.000Z</time>
      </trkpt>
      <trkpt lat="44.38228" lon="7.05358">
        <ele>2442.1999511719</ele>
        <time>2024-09-13T10:54:15.000Z</time>
      </trkpt>
      <trkpt lat="44.38228" lon="7.05361">
        <ele>2442.1999511719</ele>
        <time>2024-09-13T10:54:16.000Z</time>
      </trkpt>
      <trkpt lat="44.38227" lon="7.05363">
        <ele>2442.1999511719</ele>
        <time>2024-09-13T10:54:17.000Z</time>
      </trkpt>
      <trkpt lat="44.38226" lon="7.05365">
        <ele>2442.3999023438</ele>
        <time>2024-09-13T10:54:18.000Z</time>
      </trkpt>
      <trkpt lat="44.38225" lon="7.05367">
        <ele>2442.6000976562</ele>
        <time>2024-09-13T10:54:19.000Z</time>
      </trkpt>
      <trkpt lat="44.38223" lon="7.0537">
        <ele>2442.6000976562</ele>
        <time>2024-09-13T10:54:20.000Z</time>
      </trkpt>
      <trkpt lat="44.38222" lon="7.05372">
        <ele>2442.6000976562</ele>
        <time>2024-09-13T10:54:21.000Z</time>
      </trkpt>
      <trkpt lat="44.3822" lon="7.05373">
        <ele>2442.6000976562</ele>
        <time>2024-09-13T10:54:22.000Z</time>
      </trkpt>
      <trkpt lat="44.38218" lon="7.05375">
        <ele>2442.6000976562</ele>
        <time>2024-09-13T10:54:23.000Z</time>
      </trkpt>
      <trkpt lat="44.38216" lon="7.05375">
        <ele>2442.6000976562</ele>
        <time>2024-09-13T10:54:24.000Z</time>
      </trkpt>
      <trkpt lat="44.38214" lon="7.05375">
        <ele>2442.3999023438</ele>
        <time>2024-09-13T10:54:25.000Z</time>
      </trkpt>
      <trkpt lat="44.38212" lon="7.05375">
        <ele>2442.3999023438</ele>
        <time>2024-09-13T10:54:26.000Z</time>
      </trkpt>
      <trkpt lat="44.3821" lon="7.05375">
        <ele>2442.1999511719</ele>
        <time>2024-09-13T10:54:27.000Z</time>
      </trkpt>
      <trkpt lat="44.38208" lon="7.05375">
        <ele>2442</ele>
        <time>2024-09-13T10:54:28.000Z</time>
      </trkpt>
      <trkpt lat="44.38206" lon="7.05375">
        <ele>2441.8000488281</ele>
        <time>2024-09-13T10:54:29.000Z</time>
      </trkpt>
      <trkpt lat="44.38196" lon="7.05372">
        <ele>2441.8000488281</ele>
        <time>2024-09-13T10:54:33.000Z</time>
      </trkpt>
      <trkpt lat="44.38194" lon="7.0537">
        <ele>2441.8000488281</ele>
        <time>2024-09-13T10:54:34.000Z</time>
      </trkpt>
      <trkpt lat="44.38191" lon="7.05368">
        <ele>2441.8000488281</ele>
        <time>2024-09-13T10:54:35.000Z</time>
      </trkpt>
      <trkpt lat="44.38189" lon="7.05366">
        <ele>2441.8000488281</ele>
        <time>2024-09-13T10:54:36.000Z</time>
      </trkpt>
      <trkpt lat="44.38188" lon="7.05363">
        <ele>2441.8000488281</ele>
        <time>2024-09-13T10:54:37.000Z</time>
      </trkpt>
      <trkpt lat="44.38187" lon="7.0536">
        <ele>2441.8000488281</ele>
        <time>2024-09-13T10:54:38.000Z</time>
      </trkpt>
      <trkpt lat="44.38186" lon="7.05357">
        <ele>2441.8000488281</ele>
        <time>2024-09-13T10:54:39.000Z</time>
      </trkpt>
      <trkpt lat="44.38185" lon="7.05354">
        <ele>2441.6000976562</ele>
        <time>2024-09-13T10:54:40.000Z</time>
      </trkpt>
      <trkpt lat="44.38184" lon="7.0535">
        <ele>2441.8000488281</ele>
        <time>2024-09-13T10:54:41.000Z</time>
      </trkpt>
      <trkpt lat="44.38183" lon="7.05347">
        <ele>2441.6000976562</ele>
        <time>2024-09-13T10:54:42.000Z</time>
      </trkpt>
      <trkpt lat="44.3818" lon="7.05345">
        <ele>2441.6000976562</ele>
        <time>2024-09-13T10:54:43.000Z</time>
      </trkpt>
      <trkpt lat="44.38178" lon="7.05344">
        <ele>2441.6000976562</ele>
        <time>2024-09-13T10:54:44.000Z</time>
      </trkpt>
      <trkpt lat="44.38172" lon="7.05343">
        <ele>2441.1999511719</ele>
        <time>2024-09-13T10:54:46.000Z</time>
      </trkpt>
      <trkpt lat="44.38169" lon="7.05343">
        <ele>2441</ele>
        <time>2024-09-13T10:54:47.000Z</time>
      </trkpt>
      <trkpt lat="44.38166" lon="7.05343">
        <ele>2440.8000488281</ele>
        <time>2024-09-13T10:54:48.000Z</time>
      </trkpt>
      <trkpt lat="44.38154" lon="7.05344">
        <ele>2440.1999511719</ele>
        <time>2024-09-13T10:54:52.000Z</time>
      </trkpt>
      <trkpt lat="44.38148" lon="7.05346">
        <ele>2440.1999511719</ele>
        <time>2024-09-13T10:54:54.000Z</time>
      </trkpt>
      <trkpt lat="44.38147" lon="7.05348">
        <ele>2440</ele>
        <time>2024-09-13T10:54:55.000Z</time>
      </trkpt>
      <trkpt lat="44.38144" lon="7.05356">
        <ele>2439.3999023438</ele>
        <time>2024-09-13T10:54:57.000Z</time>
      </trkpt>
      <trkpt lat="44.38145" lon="7.0536">
        <ele>2439</ele>
        <time>2024-09-13T10:54:58.000Z</time>
      </trkpt>
      <trkpt lat="44.38146" lon="7.05364">
        <ele>2439</ele>
        <time>2024-09-13T10:54:59.000Z</time>
      </trkpt>
      <trkpt lat="44.38146" lon="7.05367">
        <ele>2438.8000488281</ele>
        <time>2024-09-13T10:55:00.000Z</time>
      </trkpt>
      <trkpt lat="44.38146" lon="7.05371">
        <ele>2438.8000488281</ele>
        <time>2024-09-13T10:55:01.000Z</time>
      </trkpt>
      <trkpt lat="44.38146" lon="7.05375">
        <ele>2438.8000488281</ele>
        <time>2024-09-13T10:55:02.000Z</time>
      </trkpt>
      <trkpt lat="44.38145" lon="7.05378">
        <ele>2439</ele>
        <time>2024-09-13T10:55:03.000Z</time>
      </trkpt>
      <trkpt lat="44.38144" lon="7.05382">
        <ele>2439.3999023438</ele>
        <time>2024-09-13T10:55:04.000Z</time>
      </trkpt>
      <trkpt lat="44.38143" lon="7.05385">
        <ele>2439.6000976562</ele>
        <time>2024-09-13T10:55:05.000Z</time>
      </trkpt>
      <trkpt lat="44.38139" lon="7.05391">
        <ele>2440</ele>
        <time>2024-09-13T10:55:07.000Z</time>
      </trkpt>
      <trkpt lat="44.38138" lon="7.05393">
        <ele>2440.1999511719</ele>
        <time>2024-09-13T10:55:08.000Z</time>
      </trkpt>
      <trkpt lat="44.38136" lon="7.05395">
        <ele>2440.3999023438</ele>
        <time>2024-09-13T10:55:09.000Z</time>
      </trkpt>
      <trkpt lat="44.38129" lon="7.05401">
        <ele>2441.1999511719</ele>
        <time>2024-09-13T10:55:12.000Z</time>
      </trkpt>
      <trkpt lat="44.38124" lon="7.05404">
        <ele>2441.3999023438</ele>
        <time>2024-09-13T10:55:14.000Z</time>
      </trkpt>
      <trkpt lat="44.38121" lon="7.05405">
        <ele>2441.6000976562</ele>
        <time>2024-09-13T10:55:15.000Z</time>
      </trkpt>
      <trkpt lat="44.38118" lon="7.05406">
        <ele>2441.6000976562</ele>
        <time>2024-09-13T10:55:16.000Z</time>
      </trkpt>
      <trkpt lat="44.38105" lon="7.05413">
        <ele>2441.6000976562</ele>
        <time>2024-09-13T10:55:21.000Z</time>
      </trkpt>
      <trkpt lat="44.381" lon="7.0542">
        <ele>2441.3999023438</ele>
        <time>2024-09-13T10:55:23.000Z</time>
      </trkpt>
      <trkpt lat="44.38099" lon="7.05423">
        <ele>2441.6000976562</ele>
        <time>2024-09-13T10:55:24.000Z</time>
      </trkpt>
      <trkpt lat="44.38093" lon="7.05433">
        <ele>2441.1999511719</ele>
        <time>2024-09-13T10:55:27.000Z</time>
      </trkpt>
      <trkpt lat="44.38084" lon="7.05439">
        <ele>2441.1999511719</ele>
        <time>2024-09-13T10:55:30.000Z</time>
      </trkpt>
      <trkpt lat="44.38081" lon="7.05441">
        <ele>2441</ele>
        <time>2024-09-13T10:55:31.000Z</time>
      </trkpt>
      <trkpt lat="44.38078" lon="7.05442">
        <ele>2441</ele>
        <time>2024-09-13T10:55:32.000Z</time>
      </trkpt>
      <trkpt lat="44.38075" lon="7.05444">
        <ele>2441</ele>
        <time>2024-09-13T10:55:33.000Z</time>
      </trkpt>
      <trkpt lat="44.38069" lon="7.05447">
        <ele>2441</ele>
        <time>2024-09-13T10:55:35.000Z</time>
      </trkpt>
      <trkpt lat="44.38066" lon="7.0545">
        <ele>2441</ele>
        <time>2024-09-13T10:55:36.000Z</time>
      </trkpt>
      <trkpt lat="44.38063" lon="7.05452">
        <ele>2441</ele>
        <time>2024-09-13T10:55:37.000Z</time>
      </trkpt>
      <trkpt lat="44.38061" lon="7.05456">
        <ele>2441</ele>
        <time>2024-09-13T10:55:38.000Z</time>
      </trkpt>
      <trkpt lat="44.38043" lon="7.05477">
        <ele>2442</ele>
        <time>2024-09-13T10:55:45.000Z</time>
      </trkpt>
      <trkpt lat="44.38041" lon="7.0548">
        <ele>2442</ele>
        <time>2024-09-13T10:55:46.000Z</time>
      </trkpt>
      <trkpt lat="44.38038" lon="7.05487">
        <ele>2441.8000488281</ele>
        <time>2024-09-13T10:55:48.000Z</time>
      </trkpt>
      <trkpt lat="44.38036" lon="7.05491">
        <ele>2441.8000488281</ele>
        <time>2024-09-13T10:55:49.000Z</time>
      </trkpt>
      <trkpt lat="44.38033" lon="7.05499">
        <ele>2441.3999023438</ele>
        <time>2024-09-13T10:55:51.000Z</time>
      </trkpt>
      <trkpt lat="44.38022" lon="7.05524">
        <ele>2441.6000976562</ele>
        <time>2024-09-13T10:55:57.000Z</time>
      </trkpt>
      <trkpt lat="44.3802" lon="7.05528">
        <ele>2441.6000976562</ele>
        <time>2024-09-13T10:55:58.000Z</time>
      </trkpt>
      <trkpt lat="44.38018" lon="7.05532">
        <ele>2441.6000976562</ele>
        <time>2024-09-13T10:55:59.000Z</time>
      </trkpt>
      <trkpt lat="44.38017" lon="7.05536">
        <ele>2441.6000976562</ele>
        <time>2024-09-13T10:56:00.000Z</time>
      </trkpt>
      <trkpt lat="44.38016" lon="7.0554">
        <ele>2441.6000976562</ele>
        <time>2024-09-13T10:56:01.000Z</time>
      </trkpt>
      <trkpt lat="44.38013" lon="7.05559">
        <ele>2441.6000976562</ele>
        <time>2024-09-13T10:56:05.000Z</time>
      </trkpt>
      <trkpt lat="44.38015" lon="7.05564">
        <ele>2441.6000976562</ele>
        <time>2024-09-13T10:56:06.000Z</time>
      </trkpt>
      <trkpt lat="44.38017" lon="7.0557">
        <ele>2440.8000488281</ele>
        <time>2024-09-13T10:56:07.000Z</time>
      </trkpt>
      <trkpt lat="44.3802" lon="7.05575">
        <ele>2439.8000488281</ele>
        <time>2024-09-13T10:56:08.000Z</time>
      </trkpt>
      <trkpt lat="44.38021" lon="7.0558">
        <ele>2438.8000488281</ele>
        <time>2024-09-13T10:56:09.000Z</time>
      </trkpt>
      <trkpt lat="44.38022" lon="7.05586">
        <ele>2438.3999023438</ele>
        <time>2024-09-13T10:56:10.000Z</time>
      </trkpt>
      <trkpt lat="44.38022" lon="7.05592">
        <ele>2438.3999023438</ele>
        <time>2024-09-13T10:56:11.000Z</time>
      </trkpt>
      <trkpt lat="44.38023" lon="7.05598">
        <ele>2437.8000488281</ele>
        <time>2024-09-13T10:56:12.000Z</time>
      </trkpt>
      <trkpt lat="44.38023" lon="7.05604">
        <ele>2437.6000976562</ele>
        <time>2024-09-13T10:56:13.000Z</time>
      </trkpt>
      <trkpt lat="44.38025" lon="7.0561">
        <ele>2437.3999023438</ele>
        <time>2024-09-13T10:56:14.000Z</time>
      </trkpt>
      <trkpt lat="44.38032" lon="7.05628">
        <ele>2436.1999511719</ele>
        <time>2024-09-13T10:56:17.000Z</time>
      </trkpt>
      <trkpt lat="44.38039" lon="7.05645">
        <ele>2436.3999023438</ele>
        <time>2024-09-13T10:56:20.000Z</time>
      </trkpt>
      <trkpt lat="44.3804" lon="7.05651">
        <ele>2436.1999511719</ele>
        <time>2024-09-13T10:56:21.000Z</time>
      </trkpt>
      <trkpt lat="44.38041" lon="7.05656">
        <ele>2436.1999511719</ele>
        <time>2024-09-13T10:56:22.000Z</time>
      </trkpt>
      <trkpt lat="44.38043" lon="7.05662">
        <ele>2436.1999511719</ele>
        <time>2024-09-13T10:56:23.000Z</time>
      </trkpt>
      <trkpt lat="44.38045" lon="7.05666">
        <ele>2436</ele>
        <time>2024-09-13T10:56:24.000Z</time>
      </trkpt>
      <trkpt lat="44.38048" lon="7.05669">
        <ele>2435.8000488281</ele>
        <time>2024-09-13T10:56:25.000Z</time>
      </trkpt>
      <trkpt lat="44.38052" lon="7.05672">
        <ele>2435.1999511719</ele>
        <time>2024-09-13T10:56:26.000Z</time>
      </trkpt>
      <trkpt lat="44.38055" lon="7.05676">
        <ele>2435</ele>
        <time>2024-09-13T10:56:27.000Z</time>
      </trkpt>
      <trkpt lat="44.38058" lon="7.0568">
        <ele>2434.6000976562</ele>
        <time>2024-09-13T10:56:28.000Z</time>
      </trkpt>
      <trkpt lat="44.3806" lon="7.05685">
        <ele>2434.1999511719</ele>
        <time>2024-09-13T10:56:29.000Z</time>
      </trkpt>
      <trkpt lat="44.38062" lon="7.05691">
        <ele>2434</ele>
        <time>2024-09-13T10:56:30.000Z</time>
      </trkpt>
      <trkpt lat="44.38064" lon="7.05696">
        <ele>2433.6000976562</ele>
        <time>2024-09-13T10:56:31.000Z</time>
      </trkpt>
      <trkpt lat="44.38066" lon="7.05702">
        <ele>2433.6000976562</ele>
        <time>2024-09-13T10:56:32.000Z</time>
      </trkpt>
      <trkpt lat="44.3807" lon="7.05715">
        <ele>2433</ele>
        <time>2024-09-13T10:56:34.000Z</time>
      </trkpt>
      <trkpt lat="44.38072" lon="7.05729">
        <ele>2432</ele>
        <time>2024-09-13T10:56:36.000Z</time>
      </trkpt>
      <trkpt lat="44.38075" lon="7.05735">
        <ele>2431.8000488281</ele>
        <time>2024-09-13T10:56:37.000Z</time>
      </trkpt>
      <trkpt lat="44.38083" lon="7.05746">
        <ele>2430.6000976562</ele>
        <time>2024-09-13T10:56:39.000Z</time>
      </trkpt>
      <trkpt lat="44.38084" lon="7.05753">
        <ele>2430.6000976562</ele>
        <time>2024-09-13T10:56:40.000Z</time>
      </trkpt>
      <trkpt lat="44.38079" lon="7.05768">
        <ele>2430</ele>
        <time>2024-09-13T10:56:42.000Z</time>
      </trkpt>
      <trkpt lat="44.38077" lon="7.05776">
        <ele>2430.1999511719</ele>
        <time>2024-09-13T10:56:43.000Z</time>
      </trkpt>
      <trkpt lat="44.38077" lon="7.05785">
        <ele>2430</ele>
        <time>2024-09-13T10:56:44.000Z</time>
      </trkpt>
      <trkpt lat="44.3808" lon="7.05792">
        <ele>2430</ele>
        <time>2024-09-13T10:56:45.000Z</time>
      </trkpt>
      <trkpt lat="44.38092" lon="7.05795">
        <ele>2429.6000976562</ele>
        <time>2024-09-13T10:56:47.000Z</time>
      </trkpt>
      <trkpt lat="44.38104" lon="7.05794">
        <ele>2428.6000976562</ele>
        <time>2024-09-13T10:56:49.000Z</time>
      </trkpt>
      <trkpt lat="44.3811" lon="7.05793">
        <ele>2428</ele>
        <time>2024-09-13T10:56:50.000Z</time>
      </trkpt>
      <trkpt lat="44.3813" lon="7.05787">
        <ele>2426.8000488281</ele>
        <time>2024-09-13T10:56:53.000Z</time>
      </trkpt>
      <trkpt lat="44.38143" lon="7.05779">
        <ele>2426.1999511719</ele>
        <time>2024-09-13T10:56:55.000Z</time>
      </trkpt>
      <trkpt lat="44.38149" lon="7.05782">
        <ele>2424.8000488281</ele>
        <time>2024-09-13T10:56:56.000Z</time>
      </trkpt>
      <trkpt lat="44.38153" lon="7.05789">
        <ele>2424</ele>
        <time>2024-09-13T10:56:57.000Z</time>
      </trkpt>
      <trkpt lat="44.38155" lon="7.05795">
        <ele>2423.8000488281</ele>
        <time>2024-09-13T10:56:58.000Z</time>
      </trkpt>
      <trkpt lat="44.38158" lon="7.058">
        <ele>2423.8000488281</ele>
        <time>2024-09-13T10:56:59.000Z</time>
      </trkpt>
      <trkpt lat="44.3816" lon="7.05802">
        <ele>2423.6000976562</ele>
        <time>2024-09-13T10:57:00.000Z</time>
      </trkpt>
      <trkpt lat="44.38162" lon="7.05804">
        <ele>2423.8000488281</ele>
        <time>2024-09-13T10:57:01.000Z</time>
      </trkpt>
      <trkpt lat="44.38164" lon="7.05805">
        <ele>2423.8000488281</ele>
        <time>2024-09-13T10:57:02.000Z</time>
      </trkpt>
      <trkpt lat="44.38165" lon="7.05806">
        <ele>2423.8000488281</ele>
        <time>2024-09-13T10:57:03.000Z</time>
      </trkpt>
      <trkpt lat="44.38166" lon="7.05806">
        <ele>2424</ele>
        <time>2024-09-13T10:57:04.000Z</time>
      </trkpt>
      <trkpt lat="44.38166" lon="7.05806">
        <ele>2424</ele>
        <time>2024-09-13T10:57:05.000Z</time>
      </trkpt>
      <trkpt lat="44.38166" lon="7.05806">
        <ele>2424</ele>
        <time>2024-09-13T10:57:06.000Z</time>
      </trkpt>
      <trkpt lat="44.38166" lon="7.05806">
        <ele>2424</ele>
        <time>2024-09-13T10:57:12.000Z</time>
      </trkpt>
      <trkpt lat="44.38166" lon="7.05806">
        <ele>2423.8000488281</ele>
        <time>2024-09-13T10:57:20.000Z</time>
      </trkpt>
      <trkpt lat="44.38166" lon="7.05806">
        <ele>2423.8000488281</ele>
        <time>2024-09-13T10:57:21.000Z</time>
      </trkpt>
      <trkpt lat="44.38166" lon="7.05806">
        <ele>2423.6000976562</ele>
        <time>2024-09-13T10:57:29.000Z</time>
      </trkpt>
      <trkpt lat="44.38166" lon="7.05806">
        <ele>2423.6000976562</ele>
        <time>2024-09-13T10:57:30.000Z</time>
      </trkpt>
      <trkpt lat="44.38166" lon="7.05806">
        <ele>2423.6000976562</ele>
        <time>2024-09-13T10:57:31.000Z</time>
      </trkpt>
      <trkpt lat="44.38167" lon="7.05806">
        <ele>2423.3999023438</ele>
        <time>2024-09-13T10:57:32.000Z</time>
      </trkpt>
      <trkpt lat="44.38166" lon="7.05806">
        <ele>2423.1999511719</ele>
        <time>2024-09-13T10:57:34.000Z</time>
      </trkpt>
      <trkpt lat="44.38166" lon="7.05806">
        <ele>2422.8000488281</ele>
        <time>2024-09-13T10:57:46.000Z</time>
      </trkpt>
      <trkpt lat="44.38166" lon="7.05806">
        <ele>2422.8000488281</ele>
        <time>2024-09-13T10:57:52.000Z</time>
      </trkpt>
      <trkpt lat="44.38166" lon="7.05806">
        <ele>2422.6000976562</ele>
        <time>2024-09-13T10:57:58.000Z</time>
      </trkpt>
      <trkpt lat="44.38166" lon="7.05806">
        <ele>2422.6000976562</ele>
        <time>2024-09-13T10:57:59.000Z</time>
      </trkpt>
      <trkpt lat="44.38166" lon="7.05806">
        <ele>2422.6000976562</ele>
        <time>2024-09-13T10:58:02.000Z</time>
      </trkpt>
      <trkpt lat="44.38166" lon="7.05807">
        <ele>2422.3999023438</ele>
        <time>2024-09-13T10:58:10.000Z</time>
      </trkpt>
      <trkpt lat="44.38166" lon="7.05808">
        <ele>2422.3999023438</ele>
        <time>2024-09-13T10:58:11.000Z</time>
      </trkpt>
      <trkpt lat="44.38166" lon="7.05807">
        <ele>2422.3999023438</ele>
        <time>2024-09-13T10:58:12.000Z</time>
      </trkpt>
      <trkpt lat="44.38166" lon="7.05807">
        <ele>2422.3999023438</ele>
        <time>2024-09-13T10:58:21.000Z</time>
      </trkpt>
      <trkpt lat="44.38166" lon="7.05809">
        <ele>2422.1999511719</ele>
        <time>2024-09-13T10:58:24.000Z</time>
      </trkpt>
      <trkpt lat="44.38166" lon="7.05817">
        <ele>2422</ele>
        <time>2024-09-13T10:58:27.000Z</time>
      </trkpt>
      <trkpt lat="44.38166" lon="7.05831">
        <ele>2421.6000976562</ele>
        <time>2024-09-13T10:58:30.000Z</time>
      </trkpt>
      <trkpt lat="44.38167" lon="7.05837">
        <ele>2421.6000976562</ele>
        <time>2024-09-13T10:58:31.000Z</time>
      </trkpt>
      <trkpt lat="44.3817" lon="7.05842">
        <ele>2421</ele>
        <time>2024-09-13T10:58:32.000Z</time>
      </trkpt>
      <trkpt lat="44.38173" lon="7.05846">
        <ele>2420.6000976562</ele>
        <time>2024-09-13T10:58:33.000Z</time>
      </trkpt>
      <trkpt lat="44.38176" lon="7.05851">
        <ele>2420</ele>
        <time>2024-09-13T10:58:34.000Z</time>
      </trkpt>
      <trkpt lat="44.3818" lon="7.05855">
        <ele>2419.8000488281</ele>
        <time>2024-09-13T10:58:35.000Z</time>
      </trkpt>
      <trkpt lat="44.38184" lon="7.05861">
        <ele>2419.6000976562</ele>
        <time>2024-09-13T10:58:36.000Z</time>
      </trkpt>
      <trkpt lat="44.38188" lon="7.05875">
        <ele>2419</ele>
        <time>2024-09-13T10:58:38.000Z</time>
      </trkpt>
      <trkpt lat="44.38191" lon="7.05881">
        <ele>2418.1999511719</ele>
        <time>2024-09-13T10:58:39.000Z</time>
      </trkpt>
      <trkpt lat="44.38197" lon="7.05894">
        <ele>2417.1999511719</ele>
        <time>2024-09-13T10:58:41.000Z</time>
      </trkpt>
      <trkpt lat="44.38202" lon="7.05907">
        <ele>2417</ele>
        <time>2024-09-13T10:58:43.000Z</time>
      </trkpt>
      <trkpt lat="44.38205" lon="7.05912">
        <ele>2416.8000488281</ele>
        <time>2024-09-13T10:58:44.000Z</time>
      </trkpt>
      <trkpt lat="44.38212" lon="7.05925">
        <ele>2416.3999023438</ele>
        <time>2024-09-13T10:58:46.000Z</time>
      </trkpt>
      <trkpt lat="44.38217" lon="7.0594">
        <ele>2416.1999511719</ele>
        <time>2024-09-13T10:58:48.000Z</time>
      </trkpt>
      <trkpt lat="44.38218" lon="7.05949">
        <ele>2416</ele>
        <time>2024-09-13T10:58:49.000Z</time>
      </trkpt>
      <trkpt lat="44.38217" lon="7.05958">
        <ele>2415.6000976562</ele>
        <time>2024-09-13T10:58:50.000Z</time>
      </trkpt>
      <trkpt lat="44.38216" lon="7.05966">
        <ele>2415.1999511719</ele>
        <time>2024-09-13T10:58:51.000Z</time>
      </trkpt>
      <trkpt lat="44.38215" lon="7.05973">
        <ele>2415</ele>
        <time>2024-09-13T10:58:52.000Z</time>
      </trkpt>
      <trkpt lat="44.38216" lon="7.0598">
        <ele>2415</ele>
        <time>2024-09-13T10:58:53.000Z</time>
      </trkpt>
      <trkpt lat="44.38218" lon="7.05985">
        <ele>2415.1999511719</ele>
        <time>2024-09-13T10:58:54.000Z</time>
      </trkpt>
      <trkpt lat="44.3822" lon="7.0599">
        <ele>2415.3999023438</ele>
        <time>2024-09-13T10:58:55.000Z</time>
      </trkpt>
      <trkpt lat="44.38221" lon="7.05995">
        <ele>2415.3999023438</ele>
        <time>2024-09-13T10:58:56.000Z</time>
      </trkpt>
      <trkpt lat="44.38223" lon="7.06001">
        <ele>2415.3999023438</ele>
        <time>2024-09-13T10:58:57.000Z</time>
      </trkpt>
      <trkpt lat="44.38228" lon="7.06013">
        <ele>2415.1999511719</ele>
        <time>2024-09-13T10:58:59.000Z</time>
      </trkpt>
      <trkpt lat="44.38233" lon="7.06018">
        <ele>2415</ele>
        <time>2024-09-13T10:59:00.000Z</time>
      </trkpt>
      <trkpt lat="44.38238" lon="7.06019">
        <ele>2414.6000976562</ele>
        <time>2024-09-13T10:59:01.000Z</time>
      </trkpt>
      <trkpt lat="44.38243" lon="7.06016">
        <ele>2413.3999023438</ele>
        <time>2024-09-13T10:59:02.000Z</time>
      </trkpt>
      <trkpt lat="44.38247" lon="7.06014">
        <ele>2413</ele>
        <time>2024-09-13T10:59:03.000Z</time>
      </trkpt>
      <trkpt lat="44.38253" lon="7.06013">
        <ele>2412.8000488281</ele>
        <time>2024-09-13T10:59:04.000Z</time>
      </trkpt>
      <trkpt lat="44.38258" lon="7.06016">
        <ele>2412.6000976562</ele>
        <time>2024-09-13T10:59:05.000Z</time>
      </trkpt>
      <trkpt lat="44.38264" lon="7.06018">
        <ele>2412.1999511719</ele>
        <time>2024-09-13T10:59:06.000Z</time>
      </trkpt>
      <trkpt lat="44.38271" lon="7.0602">
        <ele>2411</ele>
        <time>2024-09-13T10:59:07.000Z</time>
      </trkpt>
      <trkpt lat="44.38277" lon="7.06023">
        <ele>2410.6000976562</ele>
        <time>2024-09-13T10:59:08.000Z</time>
      </trkpt>
      <trkpt lat="44.38285" lon="7.06038">
        <ele>2410</ele>
        <time>2024-09-13T10:59:10.000Z</time>
      </trkpt>
      <trkpt lat="44.38287" lon="7.06048">
        <ele>2409.8000488281</ele>
        <time>2024-09-13T10:59:11.000Z</time>
      </trkpt>
      <trkpt lat="44.3829" lon="7.06054">
        <ele>2409.1999511719</ele>
        <time>2024-09-13T10:59:12.000Z</time>
      </trkpt>
      <trkpt lat="44.38296" lon="7.06058">
        <ele>2409</ele>
        <time>2024-09-13T10:59:13.000Z</time>
      </trkpt>
      <trkpt lat="44.38301" lon="7.06057">
        <ele>2408.6000976562</ele>
        <time>2024-09-13T10:59:14.000Z</time>
      </trkpt>
      <trkpt lat="44.38311" lon="7.0606">
        <ele>2407.3999023438</ele>
        <time>2024-09-13T10:59:16.000Z</time>
      </trkpt>
      <trkpt lat="44.38315" lon="7.06065">
        <ele>2406.3999023438</ele>
        <time>2024-09-13T10:59:17.000Z</time>
      </trkpt>
      <trkpt lat="44.38319" lon="7.0607">
        <ele>2405.8000488281</ele>
        <time>2024-09-13T10:59:18.000Z</time>
      </trkpt>
      <trkpt lat="44.38323" lon="7.06075">
        <ele>2405.8000488281</ele>
        <time>2024-09-13T10:59:19.000Z</time>
      </trkpt>
      <trkpt lat="44.38328" lon="7.0608">
        <ele>2405.3999023438</ele>
        <time>2024-09-13T10:59:20.000Z</time>
      </trkpt>
      <trkpt lat="44.38332" lon="7.06086">
        <ele>2405.1999511719</ele>
        <time>2024-09-13T10:59:21.000Z</time>
      </trkpt>
      <trkpt lat="44.3834" lon="7.061">
        <ele>2405</ele>
        <time>2024-09-13T10:59:23.000Z</time>
      </trkpt>
      <trkpt lat="44.38346" lon="7.06105">
        <ele>2404.8000488281</ele>
        <time>2024-09-13T10:59:24.000Z</time>
      </trkpt>
      <trkpt lat="44.38352" lon="7.06108">
        <ele>2404.6000976562</ele>
        <time>2024-09-13T10:59:25.000Z</time>
      </trkpt>
      <trkpt lat="44.38358" lon="7.0611">
        <ele>2404.3999023438</ele>
        <time>2024-09-13T10:59:26.000Z</time>
      </trkpt>
      <trkpt lat="44.38363" lon="7.06114">
        <ele>2404.3999023438</ele>
        <time>2024-09-13T10:59:27.000Z</time>
      </trkpt>
      <trkpt lat="44.38369" lon="7.06117">
        <ele>2402.6000976562</ele>
        <time>2024-09-13T10:59:28.000Z</time>
      </trkpt>
      <trkpt lat="44.38381" lon="7.06123">
        <ele>2401.3999023438</ele>
        <time>2024-09-13T10:59:30.000Z</time>
      </trkpt>
      <trkpt lat="44.38387" lon="7.06127">
        <ele>2401</ele>
        <time>2024-09-13T10:59:31.000Z</time>
      </trkpt>
      <trkpt lat="44.38391" lon="7.06133">
        <ele>2400.3999023438</ele>
        <time>2024-09-13T10:59:32.000Z</time>
      </trkpt>
      <trkpt lat="44.38395" lon="7.0614">
        <ele>2400.1999511719</ele>
        <time>2024-09-13T10:59:33.000Z</time>
      </trkpt>
      <trkpt lat="44.38399" lon="7.06148">
        <ele>2400</ele>
        <time>2024-09-13T10:59:34.000Z</time>
      </trkpt>
      <trkpt lat="44.38403" lon="7.06156">
        <ele>2399.6000976562</ele>
        <time>2024-09-13T10:59:35.000Z</time>
      </trkpt>
      <trkpt lat="44.38406" lon="7.06165">
        <ele>2399.1999511719</ele>
        <time>2024-09-13T10:59:36.000Z</time>
      </trkpt>
      <trkpt lat="44.38411" lon="7.06183">
        <ele>2399</ele>
        <time>2024-09-13T10:59:38.000Z</time>
      </trkpt>
      <trkpt lat="44.38415" lon="7.06191">
        <ele>2398.8000488281</ele>
        <time>2024-09-13T10:59:39.000Z</time>
      </trkpt>
      <trkpt lat="44.38418" lon="7.06199">
        <ele>2398.6000976562</ele>
        <time>2024-09-13T10:59:40.000Z</time>
      </trkpt>
      <trkpt lat="44.3842" lon="7.06206">
        <ele>2398.3999023438</ele>
        <time>2024-09-13T10:59:41.000Z</time>
      </trkpt>
      <trkpt lat="44.38423" lon="7.06213">
        <ele>2397.8000488281</ele>
        <time>2024-09-13T10:59:42.000Z</time>
      </trkpt>
      <trkpt lat="44.38426" lon="7.06219">
        <ele>2397.1999511719</ele>
        <time>2024-09-13T10:59:43.000Z</time>
      </trkpt>
      <trkpt lat="44.38428" lon="7.06226">
        <ele>2397.1999511719</ele>
        <time>2024-09-13T10:59:44.000Z</time>
      </trkpt>
      <trkpt lat="44.3843" lon="7.06232">
        <ele>2396.8000488281</ele>
        <time>2024-09-13T10:59:45.000Z</time>
      </trkpt>
      <trkpt lat="44.38431" lon="7.06238">
        <ele>2396.3999023438</ele>
        <time>2024-09-13T10:59:46.000Z</time>
      </trkpt>
      <trkpt lat="44.38432" lon="7.06243">
        <ele>2396.3999023438</ele>
        <time>2024-09-13T10:59:47.000Z</time>
      </trkpt>
      <trkpt lat="44.38434" lon="7.06248">
        <ele>2397.1999511719</ele>
        <time>2024-09-13T10:59:48.000Z</time>
      </trkpt>
      <trkpt lat="44.38435" lon="7.06253">
        <ele>2397.3999023438</ele>
        <time>2024-09-13T10:59:49.000Z</time>
      </trkpt>
      <trkpt lat="44.38437" lon="7.06257">
        <ele>2397.6000976562</ele>
        <time>2024-09-13T10:59:50.000Z</time>
      </trkpt>
      <trkpt lat="44.38438" lon="7.06261">
        <ele>2397.6000976562</ele>
        <time>2024-09-13T10:59:51.000Z</time>
      </trkpt>
      <trkpt lat="44.3844" lon="7.06265">
        <ele>2397.6000976562</ele>
        <time>2024-09-13T10:59:52.000Z</time>
      </trkpt>
      <trkpt lat="44.38441" lon="7.06268">
        <ele>2397.8000488281</ele>
        <time>2024-09-13T10:59:53.000Z</time>
      </trkpt>
      <trkpt lat="44.38443" lon="7.06272">
        <ele>2397.8000488281</ele>
        <time>2024-09-13T10:59:54.000Z</time>
      </trkpt>
      <trkpt lat="44.38444" lon="7.06275">
        <ele>2398</ele>
        <time>2024-09-13T10:59:55.000Z</time>
      </trkpt>
      <trkpt lat="44.38446" lon="7.06278">
        <ele>2398.1999511719</ele>
        <time>2024-09-13T10:59:56.000Z</time>
      </trkpt>
      <trkpt lat="44.38447" lon="7.06281">
        <ele>2398.6000976562</ele>
        <time>2024-09-13T10:59:57.000Z</time>
      </trkpt>
      <trkpt lat="44.38449" lon="7.06284">
        <ele>2398.8000488281</ele>
        <time>2024-09-13T10:59:58.000Z</time>
      </trkpt>
      <trkpt lat="44.3845" lon="7.06287">
        <ele>2398.8000488281</ele>
        <time>2024-09-13T10:59:59.000Z</time>
      </trkpt>
      <trkpt lat="44.38454" lon="7.063">
        <ele>2398.3999023438</ele>
        <time>2024-09-13T11:00:03.000Z</time>
      </trkpt>
      <trkpt lat="44.38455" lon="7.06303">
        <ele>2398.3999023438</ele>
        <time>2024-09-13T11:00:04.000Z</time>
      </trkpt>
      <trkpt lat="44.38456" lon="7.06307">
        <ele>2398.3999023438</ele>
        <time>2024-09-13T11:00:05.000Z</time>
      </trkpt>
      <trkpt lat="44.38457" lon="7.0631">
        <ele>2398.3999023438</ele>
        <time>2024-09-13T11:00:06.000Z</time>
      </trkpt>
      <trkpt lat="44.38459" lon="7.06313">
        <ele>2398.3999023438</ele>
        <time>2024-09-13T11:00:07.000Z</time>
      </trkpt>
      <trkpt lat="44.3846" lon="7.06316">
        <ele>2398.3999023438</ele>
        <time>2024-09-13T11:00:08.000Z</time>
      </trkpt>
      <trkpt lat="44.38461" lon="7.06319">
        <ele>2398.3999023438</ele>
        <time>2024-09-13T11:00:09.000Z</time>
      </trkpt>
      <trkpt lat="44.38462" lon="7.06322">
        <ele>2398.6000976562</ele>
        <time>2024-09-13T11:00:10.000Z</time>
      </trkpt>
      <trkpt lat="44.38464" lon="7.06327">
        <ele>2398.3999023438</ele>
        <time>2024-09-13T11:00:12.000Z</time>
      </trkpt>
      <trkpt lat="44.38466" lon="7.06333">
        <ele>2398.3999023438</ele>
        <time>2024-09-13T11:00:14.000Z</time>
      </trkpt>
      <trkpt lat="44.38469" lon="7.06339">
        <ele>2398.3999023438</ele>
        <time>2024-09-13T11:00:16.000Z</time>
      </trkpt>
      <trkpt lat="44.3847" lon="7.06341">
        <ele>2398.3999023438</ele>
        <time>2024-09-13T11:00:17.000Z</time>
      </trkpt>
      <trkpt lat="44.38472" lon="7.06347">
        <ele>2398.8000488281</ele>
        <time>2024-09-13T11:00:19.000Z</time>
      </trkpt>
      <trkpt lat="44.38475" lon="7.06352">
        <ele>2398.8000488281</ele>
        <time>2024-09-13T11:00:21.000Z</time>
      </trkpt>
      <trkpt lat="44.3848" lon="7.06364">
        <ele>2399.1999511719</ele>
        <time>2024-09-13T11:00:25.000Z</time>
      </trkpt>
      <trkpt lat="44.38483" lon="7.06374">
        <ele>2399.1999511719</ele>
        <time>2024-09-13T11:00:28.000Z</time>
      </trkpt>
      <trkpt lat="44.38485" lon="7.06377">
        <ele>2399.3999023438</ele>
        <time>2024-09-13T11:00:29.000Z</time>
      </trkpt>
      <trkpt lat="44.38486" lon="7.0638">
        <ele>2399.3999023438</ele>
        <time>2024-09-13T11:00:30.000Z</time>
      </trkpt>
      <trkpt lat="44.38486" lon="7.06383">
        <ele>2399.3999023438</ele>
        <time>2024-09-13T11:00:31.000Z</time>
      </trkpt>
      <trkpt lat="44.38487" lon="7.06386">
        <ele>2399.1999511719</ele>
        <time>2024-09-13T11:00:32.000Z</time>
      </trkpt>
      <trkpt lat="44.38487" lon="7.06389">
        <ele>2399.1999511719</ele>
        <time>2024-09-13T11:00:33.000Z</time>
      </trkpt>
      <trkpt lat="44.38487" lon="7.06392">
        <ele>2399.1999511719</ele>
        <time>2024-09-13T11:00:34.000Z</time>
      </trkpt>
      <trkpt lat="44.38487" lon="7.06395">
        <ele>2399.1999511719</ele>
        <time>2024-09-13T11:00:35.000Z</time>
      </trkpt>
      <trkpt lat="44.38485" lon="7.06408">
        <ele>2399.3999023438</ele>
        <time>2024-09-13T11:00:39.000Z</time>
      </trkpt>
      <trkpt lat="44.38485" lon="7.06411">
        <ele>2399.6000976562</ele>
        <time>2024-09-13T11:00:40.000Z</time>
      </trkpt>
      <trkpt lat="44.38484" lon="7.06418">
        <ele>2399.3999023438</ele>
        <time>2024-09-13T11:00:42.000Z</time>
      </trkpt>
      <trkpt lat="44.38483" lon="7.06421">
        <ele>2399.6000976562</ele>
        <time>2024-09-13T11:00:43.000Z</time>
      </trkpt>
      <trkpt lat="44.38483" lon="7.06424">
        <ele>2399.6000976562</ele>
        <time>2024-09-13T11:00:44.000Z</time>
      </trkpt>
      <trkpt lat="44.38481" lon="7.06431">
        <ele>2400</ele>
        <time>2024-09-13T11:00:46.000Z</time>
      </trkpt>
      <trkpt lat="44.3848" lon="7.06437">
        <ele>2400.1999511719</ele>
        <time>2024-09-13T11:00:48.000Z</time>
      </trkpt>
      <trkpt lat="44.38478" lon="7.06447">
        <ele>2400.3999023438</ele>
        <time>2024-09-13T11:00:51.000Z</time>
      </trkpt>
      <trkpt lat="44.38477" lon="7.06451">
        <ele>2400.6000976562</ele>
        <time>2024-09-13T11:00:52.000Z</time>
      </trkpt>
      <trkpt lat="44.38477" lon="7.06457">
        <ele>2401</ele>
        <time>2024-09-13T11:00:54.000Z</time>
      </trkpt>
      <trkpt lat="44.38476" lon="7.06459">
        <ele>2401.1999511719</ele>
        <time>2024-09-13T11:00:55.000Z</time>
      </trkpt>
      <trkpt lat="44.38477" lon="7.06461">
        <ele>2401.3999023438</ele>
        <time>2024-09-13T11:00:56.000Z</time>
      </trkpt>
      <trkpt lat="44.38478" lon="7.06463">
        <ele>2401.3999023438</ele>
        <time>2024-09-13T11:00:57.000Z</time>
      </trkpt>
      <trkpt lat="44.3848" lon="7.06466">
        <ele>2401.6000976562</ele>
        <time>2024-09-13T11:00:58.000Z</time>
      </trkpt>
      <trkpt lat="44.38482" lon="7.06468">
        <ele>2401.8000488281</ele>
        <time>2024-09-13T11:00:59.000Z</time>
      </trkpt>
      <trkpt lat="44.38484" lon="7.06469">
        <ele>2401.8000488281</ele>
        <time>2024-09-13T11:01:00.000Z</time>
      </trkpt>
      <trkpt lat="44.38486" lon="7.06468">
        <ele>2402</ele>
        <time>2024-09-13T11:01:01.000Z</time>
      </trkpt>
      <trkpt lat="44.38491" lon="7.06468">
        <ele>2401.8000488281</ele>
        <time>2024-09-13T11:01:03.000Z</time>
      </trkpt>
      <trkpt lat="44.38493" lon="7.06469">
        <ele>2401.8000488281</ele>
        <time>2024-09-13T11:01:04.000Z</time>
      </trkpt>
      <trkpt lat="44.38495" lon="7.06468">
        <ele>2401.8000488281</ele>
        <time>2024-09-13T11:01:05.000Z</time>
      </trkpt>
      <trkpt lat="44.38501" lon="7.0647">
        <ele>2401.8000488281</ele>
        <time>2024-09-13T11:01:08.000Z</time>
      </trkpt>
      <trkpt lat="44.38503" lon="7.06472">
        <ele>2401.8000488281</ele>
        <time>2024-09-13T11:01:09.000Z</time>
      </trkpt>
      <trkpt lat="44.38505" lon="7.06472">
        <ele>2401.8000488281</ele>
        <time>2024-09-13T11:01:10.000Z</time>
      </trkpt>
      <trkpt lat="44.38509" lon="7.06473">
        <ele>2401.6000976562</ele>
        <time>2024-09-13T11:01:12.000Z</time>
      </trkpt>
      <trkpt lat="44.38511" lon="7.06473">
        <ele>2401.6000976562</ele>
        <time>2024-09-13T11:01:13.000Z</time>
      </trkpt>
      <trkpt lat="44.38515" lon="7.06474">
        <ele>2401.8000488281</ele>
        <time>2024-09-13T11:01:15.000Z</time>
      </trkpt>
      <trkpt lat="44.38522" lon="7.06476">
        <ele>2402.1999511719</ele>
        <time>2024-09-13T11:01:18.000Z</time>
      </trkpt>
      <trkpt lat="44.38524" lon="7.06477">
        <ele>2402.1999511719</ele>
        <time>2024-09-13T11:01:19.000Z</time>
      </trkpt>
      <trkpt lat="44.38526" lon="7.06479">
        <ele>2402.3999023438</ele>
        <time>2024-09-13T11:01:20.000Z</time>
      </trkpt>
      <trkpt lat="44.38528" lon="7.06481">
        <ele>2402.3999023438</ele>
        <time>2024-09-13T11:01:21.000Z</time>
      </trkpt>
      <trkpt lat="44.3853" lon="7.06482">
        <ele>2402.3999023438</ele>
        <time>2024-09-13T11:01:22.000Z</time>
      </trkpt>
      <trkpt lat="44.38531" lon="7.06484">
        <ele>2402.6000976562</ele>
        <time>2024-09-13T11:01:23.000Z</time>
      </trkpt>
      <trkpt lat="44.38534" lon="7.06487">
        <ele>2402.8000488281</ele>
        <time>2024-09-13T11:01:25.000Z</time>
      </trkpt>
      <trkpt lat="44.38538" lon="7.0649">
        <ele>2403</ele>
        <time>2024-09-13T11:01:27.000Z</time>
      </trkpt>
      <trkpt lat="44.38541" lon="7.06494">
        <ele>2403.1999511719</ele>
        <time>2024-09-13T11:01:29.000Z</time>
      </trkpt>
      <trkpt lat="44.38543" lon="7.06494">
        <ele>2403.1999511719</ele>
        <time>2024-09-13T11:01:30.000Z</time>
      </trkpt>
      <trkpt lat="44.38544" lon="7.06496">
        <ele>2403.3999023438</ele>
        <time>2024-09-13T11:01:31.000Z</time>
      </trkpt>
      <trkpt lat="44.38558" lon="7.06508">
        <ele>2403.6000976562</ele>
        <time>2024-09-13T11:01:39.000Z</time>
      </trkpt>
      <trkpt lat="44.38561" lon="7.0651">
        <ele>2403.8000488281</ele>
        <time>2024-09-13T11:01:41.000Z</time>
      </trkpt>
      <trkpt lat="44.38564" lon="7.06514">
        <ele>2404</ele>
        <time>2024-09-13T11:01:43.000Z</time>
      </trkpt>
      <trkpt lat="44.38566" lon="7.06516">
        <ele>2404.1999511719</ele>
        <time>2024-09-13T11:01:44.000Z</time>
      </trkpt>
      <trkpt lat="44.38567" lon="7.06517">
        <ele>2404.3999023438</ele>
        <time>2024-09-13T11:01:45.000Z</time>
      </trkpt>
      <trkpt lat="44.3857" lon="7.06517">
        <ele>2404.6000976562</ele>
        <time>2024-09-13T11:01:46.000Z</time>
      </trkpt>
      <trkpt lat="44.38572" lon="7.06518">
        <ele>2404.8000488281</ele>
        <time>2024-09-13T11:01:47.000Z</time>
      </trkpt>
      <trkpt lat="44.38574" lon="7.06518">
        <ele>2405.1999511719</ele>
        <time>2024-09-13T11:01:48.000Z</time>
      </trkpt>
      <trkpt lat="44.38576" lon="7.0652">
        <ele>2405.1999511719</ele>
        <time>2024-09-13T11:01:49.000Z</time>
      </trkpt>
      <trkpt lat="44.38578" lon="7.06521">
        <ele>2405.6000976562</ele>
        <time>2024-09-13T11:01:50.000Z</time>
      </trkpt>
      <trkpt lat="44.3858" lon="7.06521">
        <ele>2406</ele>
        <time>2024-09-13T11:01:51.000Z</time>
      </trkpt>
      <trkpt lat="44.38582" lon="7.06522">
        <ele>2406</ele>
        <time>2024-09-13T11:01:52.000Z</time>
      </trkpt>
      <trkpt lat="44.38584" lon="7.06522">
        <ele>2406.1999511719</ele>
        <time>2024-09-13T11:01:53.000Z</time>
      </trkpt>
      <trkpt lat="44.38586" lon="7.06523">
        <ele>2406.3999023438</ele>
        <time>2024-09-13T11:01:54.000Z</time>
      </trkpt>
      <trkpt lat="44.38588" lon="7.06524">
        <ele>2406.3999023438</ele>
        <time>2024-09-13T11:01:55.000Z</time>
      </trkpt>
      <trkpt lat="44.3859" lon="7.06524">
        <ele>2406.8000488281</ele>
        <time>2024-09-13T11:01:56.000Z</time>
      </trkpt>
      <trkpt lat="44.38592" lon="7.06525">
        <ele>2407.1999511719</ele>
        <time>2024-09-13T11:01:57.000Z</time>
      </trkpt>
      <trkpt lat="44.38594" lon="7.06526">
        <ele>2407.3999023438</ele>
        <time>2024-09-13T11:01:58.000Z</time>
      </trkpt>
      <trkpt lat="44.38596" lon="7.06527">
        <ele>2407.3999023438</ele>
        <time>2024-09-13T11:01:59.000Z</time>
      </trkpt>
      <trkpt lat="44.38598" lon="7.06528">
        <ele>2407.1999511719</ele>
        <time>2024-09-13T11:02:00.000Z</time>
      </trkpt>
      <trkpt lat="44.386" lon="7.06529">
        <ele>2407</ele>
        <time>2024-09-13T11:02:01.000Z</time>
      </trkpt>
      <trkpt lat="44.38602" lon="7.06529">
        <ele>2406.8000488281</ele>
        <time>2024-09-13T11:02:02.000Z</time>
      </trkpt>
      <trkpt lat="44.38604" lon="7.0653">
        <ele>2406.6000976562</ele>
        <time>2024-09-13T11:02:03.000Z</time>
      </trkpt>
      <trkpt lat="44.38606" lon="7.0653">
        <ele>2406.6000976562</ele>
        <time>2024-09-13T11:02:04.000Z</time>
      </trkpt>
      <trkpt lat="44.38608" lon="7.0653">
        <ele>2406.3999023438</ele>
        <time>2024-09-13T11:02:05.000Z</time>
      </trkpt>
      <trkpt lat="44.3861" lon="7.06531">
        <ele>2406.6000976562</ele>
        <time>2024-09-13T11:02:06.000Z</time>
      </trkpt>
      <trkpt lat="44.38612" lon="7.06531">
        <ele>2406.6000976562</ele>
        <time>2024-09-13T11:02:07.000Z</time>
      </trkpt>
      <trkpt lat="44.38614" lon="7.06531">
        <ele>2406.8000488281</ele>
        <time>2024-09-13T11:02:08.000Z</time>
      </trkpt>
      <trkpt lat="44.38616" lon="7.06532">
        <ele>2407</ele>
        <time>2024-09-13T11:02:09.000Z</time>
      </trkpt>
      <trkpt lat="44.3862" lon="7.06533">
        <ele>2407.3999023438</ele>
        <time>2024-09-13T11:02:11.000Z</time>
      </trkpt>
      <trkpt lat="44.38624" lon="7.06535">
        <ele>2408</ele>
        <time>2024-09-13T11:02:13.000Z</time>
      </trkpt>
      <trkpt lat="44.38626" lon="7.06537">
        <ele>2408.1999511719</ele>
        <time>2024-09-13T11:02:14.000Z</time>
      </trkpt>
      <trkpt lat="44.38628" lon="7.06539">
        <ele>2408.1999511719</ele>
        <time>2024-09-13T11:02:15.000Z</time>
      </trkpt>
      <trkpt lat="44.38629" lon="7.06541">
        <ele>2408.3999023438</ele>
        <time>2024-09-13T11:02:16.000Z</time>
      </trkpt>
      <trkpt lat="44.3863" lon="7.0655">
        <ele>2408.3999023438</ele>
        <time>2024-09-13T11:02:19.000Z</time>
      </trkpt>
      <trkpt lat="44.3863" lon="7.06554">
        <ele>2408.3999023438</ele>
        <time>2024-09-13T11:02:20.000Z</time>
      </trkpt>
      <trkpt lat="44.38629" lon="7.06556">
        <ele>2408.6000976562</ele>
        <time>2024-09-13T11:02:21.000Z</time>
      </trkpt>
      <trkpt lat="44.38629" lon="7.06559">
        <ele>2408.6000976562</ele>
        <time>2024-09-13T11:02:22.000Z</time>
      </trkpt>
      <trkpt lat="44.38628" lon="7.06562">
        <ele>2408.6000976562</ele>
        <time>2024-09-13T11:02:23.000Z</time>
      </trkpt>
      <trkpt lat="44.38627" lon="7.06565">
        <ele>2408.6000976562</ele>
        <time>2024-09-13T11:02:24.000Z</time>
      </trkpt>
      <trkpt lat="44.38625" lon="7.06571">
        <ele>2408.6000976562</ele>
        <time>2024-09-13T11:02:26.000Z</time>
      </trkpt>
      <trkpt lat="44.38624" lon="7.06582">
        <ele>2408.3999023438</ele>
        <time>2024-09-13T11:02:29.000Z</time>
      </trkpt>
      <trkpt lat="44.38625" lon="7.06585">
        <ele>2408.6000976562</ele>
        <time>2024-09-13T11:02:30.000Z</time>
      </trkpt>
      <trkpt lat="44.38625" lon="7.06588">
        <ele>2408.6000976562</ele>
        <time>2024-09-13T11:02:31.000Z</time>
      </trkpt>
      <trkpt lat="44.38626" lon="7.06591">
        <ele>2408.3999023438</ele>
        <time>2024-09-13T11:02:32.000Z</time>
      </trkpt>
      <trkpt lat="44.3863" lon="7.06616">
        <ele>2408.3999023438</ele>
        <time>2024-09-13T11:02:38.000Z</time>
      </trkpt>
      <trkpt lat="44.38631" lon="7.0662">
        <ele>2408.3999023438</ele>
        <time>2024-09-13T11:02:39.000Z</time>
      </trkpt>
      <trkpt lat="44.38633" lon="7.06624">
        <ele>2408.1999511719</ele>
        <time>2024-09-13T11:02:40.000Z</time>
      </trkpt>
      <trkpt lat="44.38638" lon="7.06629">
        <ele>2408</ele>
        <time>2024-09-13T11:02:42.000Z</time>
      </trkpt>
      <trkpt lat="44.38641" lon="7.06632">
        <ele>2408</ele>
        <time>2024-09-13T11:02:43.000Z</time>
      </trkpt>
      <trkpt lat="44.38644" lon="7.06634">
        <ele>2408</ele>
        <time>2024-09-13T11:02:44.000Z</time>
      </trkpt>
      <trkpt lat="44.38653" lon="7.06648">
        <ele>2408.1999511719</ele>
        <time>2024-09-13T11:02:48.000Z</time>
      </trkpt>
      <trkpt lat="44.38655" lon="7.06652">
        <ele>2408.3999023438</ele>
        <time>2024-09-13T11:02:49.000Z</time>
      </trkpt>
      <trkpt lat="44.38658" lon="7.06655">
        <ele>2408.3999023438</ele>
        <time>2024-09-13T11:02:50.000Z</time>
      </trkpt>
      <trkpt lat="44.38663" lon="7.06661">
        <ele>2408.3999023438</ele>
        <time>2024-09-13T11:02:52.000Z</time>
      </trkpt>
      <trkpt lat="44.38666" lon="7.06664">
        <ele>2408.3999023438</ele>
        <time>2024-09-13T11:02:53.000Z</time>
      </trkpt>
      <trkpt lat="44.38668" lon="7.06667">
        <ele>2408.3999023438</ele>
        <time>2024-09-13T11:02:54.000Z</time>
      </trkpt>
      <trkpt lat="44.3867" lon="7.06669">
        <ele>2408.6000976562</ele>
        <time>2024-09-13T11:02:55.000Z</time>
      </trkpt>
      <trkpt lat="44.38673" lon="7.06672">
        <ele>2408.6000976562</ele>
        <time>2024-09-13T11:02:56.000Z</time>
      </trkpt>
      <trkpt lat="44.38675" lon="7.06675">
        <ele>2408.8000488281</ele>
        <time>2024-09-13T11:02:57.000Z</time>
      </trkpt>
      <trkpt lat="44.38683" lon="7.06682">
        <ele>2408.8000488281</ele>
        <time>2024-09-13T11:03:00.000Z</time>
      </trkpt>
      <trkpt lat="44.38688" lon="7.06687">
        <ele>2409</ele>
        <time>2024-09-13T11:03:02.000Z</time>
      </trkpt>
      <trkpt lat="44.38693" lon="7.06692">
        <ele>2409.3999023438</ele>
        <time>2024-09-13T11:03:04.000Z</time>
      </trkpt>
      <trkpt lat="44.38695" lon="7.06696">
        <ele>2409.6000976562</ele>
        <time>2024-09-13T11:03:05.000Z</time>
      </trkpt>
      <trkpt lat="44.38697" lon="7.06699">
        <ele>2409.6000976562</ele>
        <time>2024-09-13T11:03:06.000Z</time>
      </trkpt>
      <trkpt lat="44.38704" lon="7.06708">
        <ele>2409.3999023438</ele>
        <time>2024-09-13T11:03:09.000Z</time>
      </trkpt>
      <trkpt lat="44.38706" lon="7.06711">
        <ele>2409</ele>
        <time>2024-09-13T11:03:10.000Z</time>
      </trkpt>
      <trkpt lat="44.38709" lon="7.06714">
        <ele>2409</ele>
        <time>2024-09-13T11:03:11.000Z</time>
      </trkpt>
      <trkpt lat="44.38716" lon="7.06724">
        <ele>2409</ele>
        <time>2024-09-13T11:03:14.000Z</time>
      </trkpt>
      <trkpt lat="44.38719" lon="7.06726">
        <ele>2409</ele>
        <time>2024-09-13T11:03:15.000Z</time>
      </trkpt>
      <trkpt lat="44.38721" lon="7.06728">
        <ele>2409.1999511719</ele>
        <time>2024-09-13T11:03:16.000Z</time>
      </trkpt>
      <trkpt lat="44.38723" lon="7.06728">
        <ele>2409.3999023438</ele>
        <time>2024-09-13T11:03:17.000Z</time>
      </trkpt>
      <trkpt lat="44.38726" lon="7.06728">
        <ele>2409.6000976562</ele>
        <time>2024-09-13T11:03:18.000Z</time>
      </trkpt>
      <trkpt lat="44.38729" lon="7.06726">
        <ele>2409.8000488281</ele>
        <time>2024-09-13T11:03:19.000Z</time>
      </trkpt>
      <trkpt lat="44.38732" lon="7.06725">
        <ele>2410</ele>
        <time>2024-09-13T11:03:20.000Z</time>
      </trkpt>
      <trkpt lat="44.38735" lon="7.06724">
        <ele>2410</ele>
        <time>2024-09-13T11:03:21.000Z</time>
      </trkpt>
      <trkpt lat="44.38742" lon="7.06725">
        <ele>2410</ele>
        <time>2024-09-13T11:03:23.000Z</time>
      </trkpt>
      <trkpt lat="44.38745" lon="7.06726">
        <ele>2409.8000488281</ele>
        <time>2024-09-13T11:03:24.000Z</time>
      </trkpt>
      <trkpt lat="44.38748" lon="7.06729">
        <ele>2409.1999511719</ele>
        <time>2024-09-13T11:03:25.000Z</time>
      </trkpt>
      <trkpt lat="44.38751" lon="7.06732">
        <ele>2408.8000488281</ele>
        <time>2024-09-13T11:03:26.000Z</time>
      </trkpt>
      <trkpt lat="44.38753" lon="7.06736">
        <ele>2408.8000488281</ele>
        <time>2024-09-13T11:03:27.000Z</time>
      </trkpt>
      <trkpt lat="44.38754" lon="7.06741">
        <ele>2408.6000976562</ele>
        <time>2024-09-13T11:03:28.000Z</time>
      </trkpt>
      <trkpt lat="44.38755" lon="7.06746">
        <ele>2408.6000976562</ele>
        <time>2024-09-13T11:03:29.000Z</time>
      </trkpt>
      <trkpt lat="44.38753" lon="7.06756">
        <ele>2408.8000488281</ele>
        <time>2024-09-13T11:03:31.000Z</time>
      </trkpt>
      <trkpt lat="44.38752" lon="7.0676">
        <ele>2408.8000488281</ele>
        <time>2024-09-13T11:03:32.000Z</time>
      </trkpt>
      <trkpt lat="44.38751" lon="7.06764">
        <ele>2408.8000488281</ele>
        <time>2024-09-13T11:03:33.000Z</time>
      </trkpt>
      <trkpt lat="44.38751" lon="7.06769">
        <ele>2408.8000488281</ele>
        <time>2024-09-13T11:03:34.000Z</time>
      </trkpt>
      <trkpt lat="44.38752" lon="7.06774">
        <ele>2408.8000488281</ele>
        <time>2024-09-13T11:03:35.000Z</time>
      </trkpt>
      <trkpt lat="44.38753" lon="7.06778">
        <ele>2408.8000488281</ele>
        <time>2024-09-13T11:03:36.000Z</time>
      </trkpt>
      <trkpt lat="44.38756" lon="7.06781">
        <ele>2408.8000488281</ele>
        <time>2024-09-13T11:03:37.000Z</time>
      </trkpt>
      <trkpt lat="44.38759" lon="7.06785">
        <ele>2408.8000488281</ele>
        <time>2024-09-13T11:03:38.000Z</time>
      </trkpt>
      <trkpt lat="44.38762" lon="7.06787">
        <ele>2408.6000976562</ele>
        <time>2024-09-13T11:03:39.000Z</time>
      </trkpt>
      <trkpt lat="44.38766" lon="7.06788">
        <ele>2408.6000976562</ele>
        <time>2024-09-13T11:03:40.000Z</time>
      </trkpt>
      <trkpt lat="44.38769" lon="7.06788">
        <ele>2408.6000976562</ele>
        <time>2024-09-13T11:03:41.000Z</time>
      </trkpt>
      <trkpt lat="44.38773" lon="7.0679">
        <ele>2408.3999023438</ele>
        <time>2024-09-13T11:03:42.000Z</time>
      </trkpt>
      <trkpt lat="44.38779" lon="7.06795">
        <ele>2407.8000488281</ele>
        <time>2024-09-13T11:03:44.000Z</time>
      </trkpt>
      <trkpt lat="44.38781" lon="7.06797">
        <ele>2407.3999023438</ele>
        <time>2024-09-13T11:03:45.000Z</time>
      </trkpt>
      <trkpt lat="44.38784" lon="7.068">
        <ele>2407.1999511719</ele>
        <time>2024-09-13T11:03:46.000Z</time>
      </trkpt>
      <trkpt lat="44.38786" lon="7.06804">
        <ele>2407</ele>
        <time>2024-09-13T11:03:47.000Z</time>
      </trkpt>
      <trkpt lat="44.38787" lon="7.06809">
        <ele>2407.1999511719</ele>
        <time>2024-09-13T11:03:48.000Z</time>
      </trkpt>
      <trkpt lat="44.38788" lon="7.06814">
        <ele>2407.1999511719</ele>
        <time>2024-09-13T11:03:49.000Z</time>
      </trkpt>
      <trkpt lat="44.38789" lon="7.06819">
        <ele>2407.3999023438</ele>
        <time>2024-09-13T11:03:50.000Z</time>
      </trkpt>
      <trkpt lat="44.38789" lon="7.06824">
        <ele>2408.1999511719</ele>
        <time>2024-09-13T11:03:51.000Z</time>
      </trkpt>
      <trkpt lat="44.38788" lon="7.0683">
        <ele>2408.3999023438</ele>
        <time>2024-09-13T11:03:52.000Z</time>
      </trkpt>
      <trkpt lat="44.38786" lon="7.06834">
        <ele>2408.3999023438</ele>
        <time>2024-09-13T11:03:53.000Z</time>
      </trkpt>
      <trkpt lat="44.38785" lon="7.06839">
        <ele>2408.3999023438</ele>
        <time>2024-09-13T11:03:54.000Z</time>
      </trkpt>
      <trkpt lat="44.38784" lon="7.06844">
        <ele>2408.1999511719</ele>
        <time>2024-09-13T11:03:55.000Z</time>
      </trkpt>
      <trkpt lat="44.38784" lon="7.06849">
        <ele>2408.1999511719</ele>
        <time>2024-09-13T11:03:56.000Z</time>
      </trkpt>
      <trkpt lat="44.38785" lon="7.06854">
        <ele>2408</ele>
        <time>2024-09-13T11:03:57.000Z</time>
      </trkpt>
      <trkpt lat="44.38784" lon="7.06859">
        <ele>2408</ele>
        <time>2024-09-13T11:03:58.000Z</time>
      </trkpt>
      <trkpt lat="44.38784" lon="7.06865">
        <ele>2407.8000488281</ele>
        <time>2024-09-13T11:03:59.000Z</time>
      </trkpt>
      <trkpt lat="44.38783" lon="7.06871">
        <ele>2407.6000976562</ele>
        <time>2024-09-13T11:04:00.000Z</time>
      </trkpt>
      <trkpt lat="44.38781" lon="7.06878">
        <ele>2407.3999023438</ele>
        <time>2024-09-13T11:04:01.000Z</time>
      </trkpt>
      <trkpt lat="44.38779" lon="7.06884">
        <ele>2407.1999511719</ele>
        <time>2024-09-13T11:04:02.000Z</time>
      </trkpt>
      <trkpt lat="44.38776" lon="7.0689">
        <ele>2406.8000488281</ele>
        <time>2024-09-13T11:04:03.000Z</time>
      </trkpt>
      <trkpt lat="44.38768" lon="7.0691">
        <ele>2406.3999023438</ele>
        <time>2024-09-13T11:04:06.000Z</time>
      </trkpt>
      <trkpt lat="44.38767" lon="7.06918">
        <ele>2406</ele>
        <time>2024-09-13T11:04:07.000Z</time>
      </trkpt>
      <trkpt lat="44.38766" lon="7.06927">
        <ele>2405.6000976562</ele>
        <time>2024-09-13T11:04:08.000Z</time>
      </trkpt>
      <trkpt lat="44.38765" lon="7.06936">
        <ele>2405.1999511719</ele>
        <time>2024-09-13T11:04:09.000Z</time>
      </trkpt>
      <trkpt lat="44.38762" lon="7.06944">
        <ele>2404.3999023438</ele>
        <time>2024-09-13T11:04:10.000Z</time>
      </trkpt>
      <trkpt lat="44.38755" lon="7.0696">
        <ele>2403.1999511719</ele>
        <time>2024-09-13T11:04:12.000Z</time>
      </trkpt>
      <trkpt lat="44.3875" lon="7.06967">
        <ele>2402.6000976562</ele>
        <time>2024-09-13T11:04:13.000Z</time>
      </trkpt>
      <trkpt lat="44.38745" lon="7.06974">
        <ele>2402.3999023438</ele>
        <time>2024-09-13T11:04:14.000Z</time>
      </trkpt>
      <trkpt lat="44.38739" lon="7.06979">
        <ele>2402.3999023438</ele>
        <time>2024-09-13T11:04:15.000Z</time>
      </trkpt>
      <trkpt lat="44.38734" lon="7.06983">
        <ele>2402.3999023438</ele>
        <time>2024-09-13T11:04:16.000Z</time>
      </trkpt>
      <trkpt lat="44.38729" lon="7.06987">
        <ele>2402.3999023438</ele>
        <time>2024-09-13T11:04:17.000Z</time>
      </trkpt>
      <trkpt lat="44.38726" lon="7.0699">
        <ele>2402.6000976562</ele>
        <time>2024-09-13T11:04:18.000Z</time>
      </trkpt>
      <trkpt lat="44.38723" lon="7.06994">
        <ele>2403.1999511719</ele>
        <time>2024-09-13T11:04:19.000Z</time>
      </trkpt>
      <trkpt lat="44.3872" lon="7.06997">
        <ele>2403.3999023438</ele>
        <time>2024-09-13T11:04:20.000Z</time>
      </trkpt>
      <trkpt lat="44.38717" lon="7.07001">
        <ele>2403.6000976562</ele>
        <time>2024-09-13T11:04:21.000Z</time>
      </trkpt>
      <trkpt lat="44.38714" lon="7.07004">
        <ele>2403.8000488281</ele>
        <time>2024-09-13T11:04:22.000Z</time>
      </trkpt>
      <trkpt lat="44.38711" lon="7.07008">
        <ele>2403.8000488281</ele>
        <time>2024-09-13T11:04:23.000Z</time>
      </trkpt>
      <trkpt lat="44.38708" lon="7.07011">
        <ele>2404</ele>
        <time>2024-09-13T11:04:24.000Z</time>
      </trkpt>
      <trkpt lat="44.38706" lon="7.07014">
        <ele>2404.6000976562</ele>
        <time>2024-09-13T11:04:25.000Z</time>
      </trkpt>
      <trkpt lat="44.38705" lon="7.07017">
        <ele>2404.8000488281</ele>
        <time>2024-09-13T11:04:26.000Z</time>
      </trkpt>
      <trkpt lat="44.38703" lon="7.07021">
        <ele>2405</ele>
        <time>2024-09-13T11:04:27.000Z</time>
      </trkpt>
      <trkpt lat="44.38697" lon="7.07031">
        <ele>2405.1999511719</ele>
        <time>2024-09-13T11:04:30.000Z</time>
      </trkpt>
      <trkpt lat="44.38694" lon="7.07039">
        <ele>2405.8000488281</ele>
        <time>2024-09-13T11:04:32.000Z</time>
      </trkpt>
      <trkpt lat="44.3869" lon="7.07045">
        <ele>2406.6000976562</ele>
        <time>2024-09-13T11:04:34.000Z</time>
      </trkpt>
      <trkpt lat="44.38688" lon="7.07048">
        <ele>2406.6000976562</ele>
        <time>2024-09-13T11:04:35.000Z</time>
      </trkpt>
      <trkpt lat="44.38686" lon="7.07051">
        <ele>2406.6000976562</ele>
        <time>2024-09-13T11:04:36.000Z</time>
      </trkpt>
      <trkpt lat="44.38684" lon="7.07054">
        <ele>2406.6000976562</ele>
        <time>2024-09-13T11:04:37.000Z</time>
      </trkpt>
      <trkpt lat="44.38682" lon="7.07056">
        <ele>2406.6000976562</ele>
        <time>2024-09-13T11:04:38.000Z</time>
      </trkpt>
      <trkpt lat="44.38675" lon="7.07064">
        <ele>2406.8000488281</ele>
        <time>2024-09-13T11:04:41.000Z</time>
      </trkpt>
      <trkpt lat="44.38673" lon="7.07066">
        <ele>2406.8000488281</ele>
        <time>2024-09-13T11:04:42.000Z</time>
      </trkpt>
      <trkpt lat="44.3867" lon="7.07067">
        <ele>2406.8000488281</ele>
        <time>2024-09-13T11:04:43.000Z</time>
      </trkpt>
      <trkpt lat="44.38668" lon="7.07069">
        <ele>2407</ele>
        <time>2024-09-13T11:04:44.000Z</time>
      </trkpt>
      <trkpt lat="44.38666" lon="7.07072">
        <ele>2407</ele>
        <time>2024-09-13T11:04:45.000Z</time>
      </trkpt>
      <trkpt lat="44.38664" lon="7.07075">
        <ele>2407</ele>
        <time>2024-09-13T11:04:46.000Z</time>
      </trkpt>
      <trkpt lat="44.38662" lon="7.07079">
        <ele>2407</ele>
        <time>2024-09-13T11:04:47.000Z</time>
      </trkpt>
      <trkpt lat="44.3866" lon="7.07081">
        <ele>2407</ele>
        <time>2024-09-13T11:04:48.000Z</time>
      </trkpt>
      <trkpt lat="44.38658" lon="7.07083">
        <ele>2407</ele>
        <time>2024-09-13T11:04:49.000Z</time>
      </trkpt>
      <trkpt lat="44.38652" lon="7.07093">
        <ele>2406.8000488281</ele>
        <time>2024-09-13T11:04:52.000Z</time>
      </trkpt>
      <trkpt lat="44.38646" lon="7.07115">
        <ele>2406.1999511719</ele>
        <time>2024-09-13T11:04:57.000Z</time>
      </trkpt>
      <trkpt lat="44.38645" lon="7.0712">
        <ele>2406</ele>
        <time>2024-09-13T11:04:58.000Z</time>
      </trkpt>
      <trkpt lat="44.3864" lon="7.07134">
        <ele>2405.8000488281</ele>
        <time>2024-09-13T11:05:01.000Z</time>
      </trkpt>
      <trkpt lat="44.38637" lon="7.07139">
        <ele>2405.8000488281</ele>
        <time>2024-09-13T11:05:02.000Z</time>
      </trkpt>
      <trkpt lat="44.38635" lon="7.07142">
        <ele>2405.8000488281</ele>
        <time>2024-09-13T11:05:03.000Z</time>
      </trkpt>
      <trkpt lat="44.38632" lon="7.07145">
        <ele>2405.8000488281</ele>
        <time>2024-09-13T11:05:04.000Z</time>
      </trkpt>
      <trkpt lat="44.38629" lon="7.07148">
        <ele>2405.8000488281</ele>
        <time>2024-09-13T11:05:05.000Z</time>
      </trkpt>
      <trkpt lat="44.38625" lon="7.07149">
        <ele>2406</ele>
        <time>2024-09-13T11:05:06.000Z</time>
      </trkpt>
      <trkpt lat="44.38622" lon="7.07151">
        <ele>2406</ele>
        <time>2024-09-13T11:05:07.000Z</time>
      </trkpt>
      <trkpt lat="44.3862" lon="7.07153">
        <ele>2406</ele>
        <time>2024-09-13T11:05:08.000Z</time>
      </trkpt>
      <trkpt lat="44.38618" lon="7.07156">
        <ele>2406.1999511719</ele>
        <time>2024-09-13T11:05:09.000Z</time>
      </trkpt>
      <trkpt lat="44.38616" lon="7.0716">
        <ele>2406.1999511719</ele>
        <time>2024-09-13T11:05:10.000Z</time>
      </trkpt>
      <trkpt lat="44.38614" lon="7.07164">
        <ele>2406</ele>
        <time>2024-09-13T11:05:11.000Z</time>
      </trkpt>
      <trkpt lat="44.38612" lon="7.07168">
        <ele>2405.8000488281</ele>
        <time>2024-09-13T11:05:12.000Z</time>
      </trkpt>
      <trkpt lat="44.38606" lon="7.07176">
        <ele>2405.8000488281</ele>
        <time>2024-09-13T11:05:14.000Z</time>
      </trkpt>
      <trkpt lat="44.38604" lon="7.0718">
        <ele>2405.6000976562</ele>
        <time>2024-09-13T11:05:15.000Z</time>
      </trkpt>
      <trkpt lat="44.38598" lon="7.07185">
        <ele>2405.6000976562</ele>
        <time>2024-09-13T11:05:17.000Z</time>
      </trkpt>
      <trkpt lat="44.38596" lon="7.07188">
        <ele>2405.8000488281</ele>
        <time>2024-09-13T11:05:18.000Z</time>
      </trkpt>
      <trkpt lat="44.38593" lon="7.07191">
        <ele>2406</ele>
        <time>2024-09-13T11:05:19.000Z</time>
      </trkpt>
      <trkpt lat="44.38591" lon="7.07195">
        <ele>2405.8000488281</ele>
        <time>2024-09-13T11:05:20.000Z</time>
      </trkpt>
      <trkpt lat="44.38589" lon="7.07204">
        <ele>2405.8000488281</ele>
        <time>2024-09-13T11:05:22.000Z</time>
      </trkpt>
      <trkpt lat="44.3859" lon="7.0721">
        <ele>2405.8000488281</ele>
        <time>2024-09-13T11:05:23.000Z</time>
      </trkpt>
      <trkpt lat="44.38588" lon="7.07219">
        <ele>2405.6000976562</ele>
        <time>2024-09-13T11:05:25.000Z</time>
      </trkpt>
      <trkpt lat="44.38586" lon="7.07224">
        <ele>2405.6000976562</ele>
        <time>2024-09-13T11:05:26.000Z</time>
      </trkpt>
      <trkpt lat="44.38584" lon="7.07228">
        <ele>2405.6000976562</ele>
        <time>2024-09-13T11:05:27.000Z</time>
      </trkpt>
      <trkpt lat="44.38582" lon="7.07232">
        <ele>2405.3999023438</ele>
        <time>2024-09-13T11:05:28.000Z</time>
      </trkpt>
      <trkpt lat="44.38576" lon="7.07239">
        <ele>2405.6000976562</ele>
        <time>2024-09-13T11:05:30.000Z</time>
      </trkpt>
      <trkpt lat="44.38573" lon="7.07242">
        <ele>2405.6000976562</ele>
        <time>2024-09-13T11:05:31.000Z</time>
      </trkpt>
      <trkpt lat="44.38571" lon="7.07245">
        <ele>2405.6000976562</ele>
        <time>2024-09-13T11:05:32.000Z</time>
      </trkpt>
      <trkpt lat="44.38558" lon="7.0727">
        <ele>2406</ele>
        <time>2024-09-13T11:05:38.000Z</time>
      </trkpt>
      <trkpt lat="44.38556" lon="7.07274">
        <ele>2406</ele>
        <time>2024-09-13T11:05:39.000Z</time>
      </trkpt>
      <trkpt lat="44.38554" lon="7.07278">
        <ele>2406</ele>
        <time>2024-09-13T11:05:40.000Z</time>
      </trkpt>
      <trkpt lat="44.3855" lon="7.07286">
        <ele>2406</ele>
        <time>2024-09-13T11:05:42.000Z</time>
      </trkpt>
      <trkpt lat="44.38542" lon="7.07305">
        <ele>2405.3999023438</ele>
        <time>2024-09-13T11:05:46.000Z</time>
      </trkpt>
      <trkpt lat="44.38523" lon="7.07328">
        <ele>2405</ele>
        <time>2024-09-13T11:05:52.000Z</time>
      </trkpt>
      <trkpt lat="44.3852" lon="7.07332">
        <ele>2405</ele>
        <time>2024-09-13T11:05:53.000Z</time>
      </trkpt>
      <trkpt lat="44.38516" lon="7.07335">
        <ele>2405.1999511719</ele>
        <time>2024-09-13T11:05:54.000Z</time>
      </trkpt>
      <trkpt lat="44.38511" lon="7.07337">
        <ele>2405</ele>
        <time>2024-09-13T11:05:55.000Z</time>
      </trkpt>
      <trkpt lat="44.38508" lon="7.07338">
        <ele>2405.1999511719</ele>
        <time>2024-09-13T11:05:56.000Z</time>
      </trkpt>
      <trkpt lat="44.38504" lon="7.07339">
        <ele>2405.1999511719</ele>
        <time>2024-09-13T11:05:57.000Z</time>
      </trkpt>
      <trkpt lat="44.38501" lon="7.0734">
        <ele>2405.1999511719</ele>
        <time>2024-09-13T11:05:58.000Z</time>
      </trkpt>
      <trkpt lat="44.38498" lon="7.07343">
        <ele>2405.1999511719</ele>
        <time>2024-09-13T11:05:59.000Z</time>
      </trkpt>
      <trkpt lat="44.38495" lon="7.07346">
        <ele>2405.1999511719</ele>
        <time>2024-09-13T11:06:00.000Z</time>
      </trkpt>
      <trkpt lat="44.38492" lon="7.0735">
        <ele>2405.1999511719</ele>
        <time>2024-09-13T11:06:01.000Z</time>
      </trkpt>
      <trkpt lat="44.3849" lon="7.07355">
        <ele>2405.3999023438</ele>
        <time>2024-09-13T11:06:02.000Z</time>
      </trkpt>
      <trkpt lat="44.38488" lon="7.0736">
        <ele>2405.1999511719</ele>
        <time>2024-09-13T11:06:03.000Z</time>
      </trkpt>
      <trkpt lat="44.38488" lon="7.07366">
        <ele>2405.3999023438</ele>
        <time>2024-09-13T11:06:04.000Z</time>
      </trkpt>
      <trkpt lat="44.38487" lon="7.07372">
        <ele>2405.1999511719</ele>
        <time>2024-09-13T11:06:05.000Z</time>
      </trkpt>
      <trkpt lat="44.38484" lon="7.07377">
        <ele>2405</ele>
        <time>2024-09-13T11:06:06.000Z</time>
      </trkpt>
      <trkpt lat="44.3848" lon="7.07381">
        <ele>2405</ele>
        <time>2024-09-13T11:06:07.000Z</time>
      </trkpt>
      <trkpt lat="44.38477" lon="7.07385">
        <ele>2404.8000488281</ele>
        <time>2024-09-13T11:06:08.000Z</time>
      </trkpt>
      <trkpt lat="44.38474" lon="7.07388">
        <ele>2404.8000488281</ele>
        <time>2024-09-13T11:06:09.000Z</time>
      </trkpt>
      <trkpt lat="44.38471" lon="7.07392">
        <ele>2404.8000488281</ele>
        <time>2024-09-13T11:06:10.000Z</time>
      </trkpt>
      <trkpt lat="44.38468" lon="7.07395">
        <ele>2404.8000488281</ele>
        <time>2024-09-13T11:06:11.000Z</time>
      </trkpt>
      <trkpt lat="44.38462" lon="7.07404">
        <ele>2405</ele>
        <time>2024-09-13T11:06:13.000Z</time>
      </trkpt>
      <trkpt lat="44.38461" lon="7.0741">
        <ele>2405</ele>
        <time>2024-09-13T11:06:14.000Z</time>
      </trkpt>
      <trkpt lat="44.3846" lon="7.07417">
        <ele>2405</ele>
        <time>2024-09-13T11:06:15.000Z</time>
      </trkpt>
      <trkpt lat="44.38458" lon="7.07422">
        <ele>2405</ele>
        <time>2024-09-13T11:06:16.000Z</time>
      </trkpt>
      <trkpt lat="44.38455" lon="7.07427">
        <ele>2405</ele>
        <time>2024-09-13T11:06:17.000Z</time>
      </trkpt>
      <trkpt lat="44.38451" lon="7.07429">
        <ele>2405</ele>
        <time>2024-09-13T11:06:18.000Z</time>
      </trkpt>
      <trkpt lat="44.38448" lon="7.07433">
        <ele>2405</ele>
        <time>2024-09-13T11:06:19.000Z</time>
      </trkpt>
      <trkpt lat="44.38445" lon="7.07438">
        <ele>2405</ele>
        <time>2024-09-13T11:06:20.000Z</time>
      </trkpt>
      <trkpt lat="44.38442" lon="7.07443">
        <ele>2404.8000488281</ele>
        <time>2024-09-13T11:06:21.000Z</time>
      </trkpt>
      <trkpt lat="44.38439" lon="7.07447">
        <ele>2404.8000488281</ele>
        <time>2024-09-13T11:06:22.000Z</time>
      </trkpt>
      <trkpt lat="44.38436" lon="7.07451">
        <ele>2404.8000488281</ele>
        <time>2024-09-13T11:06:23.000Z</time>
      </trkpt>
      <trkpt lat="44.38434" lon="7.07457">
        <ele>2404.8000488281</ele>
        <time>2024-09-13T11:06:24.000Z</time>
      </trkpt>
      <trkpt lat="44.38433" lon="7.07463">
        <ele>2404.8000488281</ele>
        <time>2024-09-13T11:06:25.000Z</time>
      </trkpt>
      <trkpt lat="44.38431" lon="7.07469">
        <ele>2404.8000488281</ele>
        <time>2024-09-13T11:06:26.000Z</time>
      </trkpt>
      <trkpt lat="44.3843" lon="7.07475">
        <ele>2404.6000976562</ele>
        <time>2024-09-13T11:06:27.000Z</time>
      </trkpt>
      <trkpt lat="44.38427" lon="7.07487">
        <ele>2404.6000976562</ele>
        <time>2024-09-13T11:06:29.000Z</time>
      </trkpt>
      <trkpt lat="44.38424" lon="7.07492">
        <ele>2404.3999023438</ele>
        <time>2024-09-13T11:06:30.000Z</time>
      </trkpt>
      <trkpt lat="44.38422" lon="7.07497">
        <ele>2404.3999023438</ele>
        <time>2024-09-13T11:06:31.000Z</time>
      </trkpt>
      <trkpt lat="44.38419" lon="7.07503">
        <ele>2404.3999023438</ele>
        <time>2024-09-13T11:06:32.000Z</time>
      </trkpt>
      <trkpt lat="44.38417" lon="7.07507">
        <ele>2404.3999023438</ele>
        <time>2024-09-13T11:06:33.000Z</time>
      </trkpt>
      <trkpt lat="44.38415" lon="7.07512">
        <ele>2404.6000976562</ele>
        <time>2024-09-13T11:06:34.000Z</time>
      </trkpt>
      <trkpt lat="44.38413" lon="7.07518">
        <ele>2404.8000488281</ele>
        <time>2024-09-13T11:06:35.000Z</time>
      </trkpt>
      <trkpt lat="44.38411" lon="7.07522">
        <ele>2404.8000488281</ele>
        <time>2024-09-13T11:06:36.000Z</time>
      </trkpt>
      <trkpt lat="44.38409" lon="7.07527">
        <ele>2404.8000488281</ele>
        <time>2024-09-13T11:06:37.000Z</time>
      </trkpt>
      <trkpt lat="44.38407" lon="7.07532">
        <ele>2405</ele>
        <time>2024-09-13T11:06:38.000Z</time>
      </trkpt>
      <trkpt lat="44.38391" lon="7.07567">
        <ele>2404.3999023438</ele>
        <time>2024-09-13T11:06:45.000Z</time>
      </trkpt>
      <trkpt lat="44.38388" lon="7.07571">
        <ele>2404.3999023438</ele>
        <time>2024-09-13T11:06:46.000Z</time>
      </trkpt>
      <trkpt lat="44.38385" lon="7.07576">
        <ele>2404.3999023438</ele>
        <time>2024-09-13T11:06:47.000Z</time>
      </trkpt>
      <trkpt lat="44.38383" lon="7.07581">
        <ele>2404.3999023438</ele>
        <time>2024-09-13T11:06:48.000Z</time>
      </trkpt>
      <trkpt lat="44.38381" lon="7.07586">
        <ele>2404.3999023438</ele>
        <time>2024-09-13T11:06:49.000Z</time>
      </trkpt>
      <trkpt lat="44.38378" lon="7.07591">
        <ele>2404.3999023438</ele>
        <time>2024-09-13T11:06:50.000Z</time>
      </trkpt>
      <trkpt lat="44.38376" lon="7.07596">
        <ele>2404.3999023438</ele>
        <time>2024-09-13T11:06:51.000Z</time>
      </trkpt>
      <trkpt lat="44.3837" lon="7.07604">
        <ele>2404.6000976562</ele>
        <time>2024-09-13T11:06:53.000Z</time>
      </trkpt>
      <trkpt lat="44.38367" lon="7.07607">
        <ele>2404.6000976562</ele>
        <time>2024-09-13T11:06:54.000Z</time>
      </trkpt>
      <trkpt lat="44.38364" lon="7.07611">
        <ele>2404.8000488281</ele>
        <time>2024-09-13T11:06:55.000Z</time>
      </trkpt>
      <trkpt lat="44.38362" lon="7.07615">
        <ele>2404.8000488281</ele>
        <time>2024-09-13T11:06:56.000Z</time>
      </trkpt>
      <trkpt lat="44.38358" lon="7.07626">
        <ele>2404.6000976562</ele>
        <time>2024-09-13T11:06:58.000Z</time>
      </trkpt>
      <trkpt lat="44.38351" lon="7.0764">
        <ele>2404.1999511719</ele>
        <time>2024-09-13T11:07:00.000Z</time>
      </trkpt>
      <trkpt lat="44.38348" lon="7.07648">
        <ele>2403.1999511719</ele>
        <time>2024-09-13T11:07:01.000Z</time>
      </trkpt>
      <trkpt lat="44.38346" lon="7.07655">
        <ele>2402.6000976562</ele>
        <time>2024-09-13T11:07:02.000Z</time>
      </trkpt>
      <trkpt lat="44.38343" lon="7.07662">
        <ele>2402.6000976562</ele>
        <time>2024-09-13T11:07:03.000Z</time>
      </trkpt>
      <trkpt lat="44.38342" lon="7.07668">
        <ele>2402.6000976562</ele>
        <time>2024-09-13T11:07:04.000Z</time>
      </trkpt>
      <trkpt lat="44.38342" lon="7.07671">
        <ele>2402.6000976562</ele>
        <time>2024-09-13T11:07:05.000Z</time>
      </trkpt>
      <trkpt lat="44.38342" lon="7.07675">
        <ele>2403.6000976562</ele>
        <time>2024-09-13T11:07:06.000Z</time>
      </trkpt>
      <trkpt lat="44.38342" lon="7.07678">
        <ele>2404.6000976562</ele>
        <time>2024-09-13T11:07:07.000Z</time>
      </trkpt>
      <trkpt lat="44.38342" lon="7.07682">
        <ele>2404.8000488281</ele>
        <time>2024-09-13T11:07:08.000Z</time>
      </trkpt>
      <trkpt lat="44.38341" lon="7.07688">
        <ele>2405.6000976562</ele>
        <time>2024-09-13T11:07:10.000Z</time>
      </trkpt>
      <trkpt lat="44.38341" lon="7.07692">
        <ele>2406</ele>
        <time>2024-09-13T11:07:11.000Z</time>
      </trkpt>
      <trkpt lat="44.3834" lon="7.07695">
        <ele>2406.3999023438</ele>
        <time>2024-09-13T11:07:12.000Z</time>
      </trkpt>
      <trkpt lat="44.38338" lon="7.07698">
        <ele>2406.6000976562</ele>
        <time>2024-09-13T11:07:13.000Z</time>
      </trkpt>
      <trkpt lat="44.38332" lon="7.07711">
        <ele>2406.6000976562</ele>
        <time>2024-09-13T11:07:16.000Z</time>
      </trkpt>
      <trkpt lat="44.3833" lon="7.0772">
        <ele>2405.8000488281</ele>
        <time>2024-09-13T11:07:18.000Z</time>
      </trkpt>
      <trkpt lat="44.38328" lon="7.07725">
        <ele>2405.6000976562</ele>
        <time>2024-09-13T11:07:19.000Z</time>
      </trkpt>
      <trkpt lat="44.38327" lon="7.07729">
        <ele>2405.6000976562</ele>
        <time>2024-09-13T11:07:20.000Z</time>
      </trkpt>
      <trkpt lat="44.38326" lon="7.07733">
        <ele>2405.6000976562</ele>
        <time>2024-09-13T11:07:21.000Z</time>
      </trkpt>
      <trkpt lat="44.38325" lon="7.07737">
        <ele>2405.8000488281</ele>
        <time>2024-09-13T11:07:22.000Z</time>
      </trkpt>
      <trkpt lat="44.38324" lon="7.07741">
        <ele>2405.8000488281</ele>
        <time>2024-09-13T11:07:23.000Z</time>
      </trkpt>
      <trkpt lat="44.3832" lon="7.07754">
        <ele>2405.8000488281</ele>
        <time>2024-09-13T11:07:26.000Z</time>
      </trkpt>
      <trkpt lat="44.38318" lon="7.07758">
        <ele>2405.6000976562</ele>
        <time>2024-09-13T11:07:27.000Z</time>
      </trkpt>
      <trkpt lat="44.38317" lon="7.07762">
        <ele>2405.6000976562</ele>
        <time>2024-09-13T11:07:28.000Z</time>
      </trkpt>
      <trkpt lat="44.38315" lon="7.0778">
        <ele>2405.8000488281</ele>
        <time>2024-09-13T11:07:32.000Z</time>
      </trkpt>
      <trkpt lat="44.38315" lon="7.07784">
        <ele>2406</ele>
        <time>2024-09-13T11:07:33.000Z</time>
      </trkpt>
      <trkpt lat="44.38316" lon="7.07788">
        <ele>2406.1999511719</ele>
        <time>2024-09-13T11:07:34.000Z</time>
      </trkpt>
      <trkpt lat="44.38318" lon="7.07793">
        <ele>2406.1999511719</ele>
        <time>2024-09-13T11:07:35.000Z</time>
      </trkpt>
      <trkpt lat="44.38319" lon="7.07797">
        <ele>2406.3999023438</ele>
        <time>2024-09-13T11:07:36.000Z</time>
      </trkpt>
      <trkpt lat="44.3832" lon="7.07801">
        <ele>2406.3999023438</ele>
        <time>2024-09-13T11:07:37.000Z</time>
      </trkpt>
      <trkpt lat="44.38322" lon="7.07809">
        <ele>2406.3999023438</ele>
        <time>2024-09-13T11:07:39.000Z</time>
      </trkpt>
      <trkpt lat="44.38323" lon="7.07812">
        <ele>2406.3999023438</ele>
        <time>2024-09-13T11:07:40.000Z</time>
      </trkpt>
      <trkpt lat="44.38325" lon="7.07825">
        <ele>2406.6000976562</ele>
        <time>2024-09-13T11:07:43.000Z</time>
      </trkpt>
      <trkpt lat="44.38322" lon="7.07843">
        <ele>2406.6000976562</ele>
        <time>2024-09-13T11:07:47.000Z</time>
      </trkpt>
      <trkpt lat="44.38321" lon="7.07847">
        <ele>2406.6000976562</ele>
        <time>2024-09-13T11:07:48.000Z</time>
      </trkpt>
      <trkpt lat="44.38321" lon="7.07851">
        <ele>2406.6000976562</ele>
        <time>2024-09-13T11:07:49.000Z</time>
      </trkpt>
      <trkpt lat="44.38321" lon="7.07855">
        <ele>2406.6000976562</ele>
        <time>2024-09-13T11:07:50.000Z</time>
      </trkpt>
      <trkpt lat="44.38322" lon="7.07859">
        <ele>2406.6000976562</ele>
        <time>2024-09-13T11:07:51.000Z</time>
      </trkpt>
      <trkpt lat="44.38322" lon="7.07864">
        <ele>2406.6000976562</ele>
        <time>2024-09-13T11:07:52.000Z</time>
      </trkpt>
      <trkpt lat="44.38322" lon="7.07873">
        <ele>2406.8000488281</ele>
        <time>2024-09-13T11:07:54.000Z</time>
      </trkpt>
      <trkpt lat="44.3832" lon="7.07877">
        <ele>2406.8000488281</ele>
        <time>2024-09-13T11:07:55.000Z</time>
      </trkpt>
      <trkpt lat="44.38319" lon="7.0788">
        <ele>2406.8000488281</ele>
        <time>2024-09-13T11:07:56.000Z</time>
      </trkpt>
      <trkpt lat="44.38317" lon="7.07884">
        <ele>2406.8000488281</ele>
        <time>2024-09-13T11:07:57.000Z</time>
      </trkpt>
      <trkpt lat="44.38316" lon="7.07887">
        <ele>2406.8000488281</ele>
        <time>2024-09-13T11:07:58.000Z</time>
      </trkpt>
      <trkpt lat="44.38315" lon="7.07899">
        <ele>2406.6000976562</ele>
        <time>2024-09-13T11:08:01.000Z</time>
      </trkpt>
      <trkpt lat="44.38315" lon="7.07903">
        <ele>2406.3999023438</ele>
        <time>2024-09-13T11:08:02.000Z</time>
      </trkpt>
      <trkpt lat="44.38315" lon="7.07912">
        <ele>2405.6000976562</ele>
        <time>2024-09-13T11:08:04.000Z</time>
      </trkpt>
      <trkpt lat="44.38314" lon="7.07927">
        <ele>2405.6000976562</ele>
        <time>2024-09-13T11:08:07.000Z</time>
      </trkpt>
      <trkpt lat="44.38313" lon="7.07936">
        <ele>2406.6000976562</ele>
        <time>2024-09-13T11:08:09.000Z</time>
      </trkpt>
      <trkpt lat="44.38312" lon="7.0794">
        <ele>2406.8000488281</ele>
        <time>2024-09-13T11:08:10.000Z</time>
      </trkpt>
      <trkpt lat="44.3831" lon="7.07963">
        <ele>2406.6000976562</ele>
        <time>2024-09-13T11:08:15.000Z</time>
      </trkpt>
      <trkpt lat="44.38309" lon="7.07967">
        <ele>2406.6000976562</ele>
        <time>2024-09-13T11:08:16.000Z</time>
      </trkpt>
      <trkpt lat="44.38312" lon="7.07991">
        <ele>2406.6000976562</ele>
        <time>2024-09-13T11:08:21.000Z</time>
      </trkpt>
      <trkpt lat="44.38314" lon="7.07995">
        <ele>2406.8000488281</ele>
        <time>2024-09-13T11:08:22.000Z</time>
      </trkpt>
      <trkpt lat="44.38316" lon="7.07999">
        <ele>2407.1999511719</ele>
        <time>2024-09-13T11:08:23.000Z</time>
      </trkpt>
      <trkpt lat="44.38326" lon="7.08014">
        <ele>2408.1999511719</ele>
        <time>2024-09-13T11:08:27.000Z</time>
      </trkpt>
      <trkpt lat="44.38339" lon="7.08031">
        <ele>2407.8000488281</ele>
        <time>2024-09-13T11:08:32.000Z</time>
      </trkpt>
      <trkpt lat="44.38341" lon="7.08035">
        <ele>2407.6000976562</ele>
        <time>2024-09-13T11:08:33.000Z</time>
      </trkpt>
      <trkpt lat="44.38342" lon="7.08051">
        <ele>2407.3999023438</ele>
        <time>2024-09-13T11:08:36.000Z</time>
      </trkpt>
      <trkpt lat="44.38342" lon="7.08056">
        <ele>2407.6000976562</ele>
        <time>2024-09-13T11:08:37.000Z</time>
      </trkpt>
      <trkpt lat="44.38343" lon="7.08061">
        <ele>2407.6000976562</ele>
        <time>2024-09-13T11:08:38.000Z</time>
      </trkpt>
      <trkpt lat="44.38346" lon="7.08072">
        <ele>2407.3999023438</ele>
        <time>2024-09-13T11:08:40.000Z</time>
      </trkpt>
      <trkpt lat="44.38345" lon="7.08078">
        <ele>2407.1999511719</ele>
        <time>2024-09-13T11:08:41.000Z</time>
      </trkpt>
      <trkpt lat="44.38344" lon="7.08089">
        <ele>2406.8000488281</ele>
        <time>2024-09-13T11:08:43.000Z</time>
      </trkpt>
      <trkpt lat="44.38344" lon="7.08095">
        <ele>2406.8000488281</ele>
        <time>2024-09-13T11:08:44.000Z</time>
      </trkpt>
      <trkpt lat="44.38344" lon="7.081">
        <ele>2407</ele>
        <time>2024-09-13T11:08:45.000Z</time>
      </trkpt>
      <trkpt lat="44.38343" lon="7.08117">
        <ele>2407.3999023438</ele>
        <time>2024-09-13T11:08:48.000Z</time>
      </trkpt>
      <trkpt lat="44.38342" lon="7.08123">
        <ele>2407.3999023438</ele>
        <time>2024-09-13T11:08:49.000Z</time>
      </trkpt>
      <trkpt lat="44.38341" lon="7.08128">
        <ele>2407.6000976562</ele>
        <time>2024-09-13T11:08:50.000Z</time>
      </trkpt>
      <trkpt lat="44.38337" lon="7.08137">
        <ele>2407.6000976562</ele>
        <time>2024-09-13T11:08:52.000Z</time>
      </trkpt>
      <trkpt lat="44.38335" lon="7.08141">
        <ele>2407.1999511719</ele>
        <time>2024-09-13T11:08:53.000Z</time>
      </trkpt>
      <trkpt lat="44.38333" lon="7.08145">
        <ele>2407.1999511719</ele>
        <time>2024-09-13T11:08:54.000Z</time>
      </trkpt>
      <trkpt lat="44.3833" lon="7.08148">
        <ele>2407.1999511719</ele>
        <time>2024-09-13T11:08:55.000Z</time>
      </trkpt>
      <trkpt lat="44.38327" lon="7.0815">
        <ele>2407.1999511719</ele>
        <time>2024-09-13T11:08:56.000Z</time>
      </trkpt>
      <trkpt lat="44.38324" lon="7.08152">
        <ele>2407.1999511719</ele>
        <time>2024-09-13T11:08:57.000Z</time>
      </trkpt>
      <trkpt lat="44.38321" lon="7.08154">
        <ele>2407.3999023438</ele>
        <time>2024-09-13T11:08:58.000Z</time>
      </trkpt>
      <trkpt lat="44.38316" lon="7.08158">
        <ele>2407.8000488281</ele>
        <time>2024-09-13T11:09:00.000Z</time>
      </trkpt>
      <trkpt lat="44.38312" lon="7.08165">
        <ele>2407.8000488281</ele>
        <time>2024-09-13T11:09:02.000Z</time>
      </trkpt>
      <trkpt lat="44.38307" lon="7.08173">
        <ele>2407.6000976562</ele>
        <time>2024-09-13T11:09:04.000Z</time>
      </trkpt>
      <trkpt lat="44.38306" lon="7.08177">
        <ele>2407.6000976562</ele>
        <time>2024-09-13T11:09:05.000Z</time>
      </trkpt>
      <trkpt lat="44.38305" lon="7.08181">
        <ele>2407.3999023438</ele>
        <time>2024-09-13T11:09:06.000Z</time>
      </trkpt>
      <trkpt lat="44.38304" lon="7.08185">
        <ele>2407.3999023438</ele>
        <time>2024-09-13T11:09:07.000Z</time>
      </trkpt>
      <trkpt lat="44.38303" lon="7.0819">
        <ele>2407.3999023438</ele>
        <time>2024-09-13T11:09:08.000Z</time>
      </trkpt>
      <trkpt lat="44.38302" lon="7.08194">
        <ele>2407.3999023438</ele>
        <time>2024-09-13T11:09:09.000Z</time>
      </trkpt>
      <trkpt lat="44.38302" lon="7.08198">
        <ele>2407.3999023438</ele>
        <time>2024-09-13T11:09:10.000Z</time>
      </trkpt>
      <trkpt lat="44.383" lon="7.08209">
        <ele>2406.6000976562</ele>
        <time>2024-09-13T11:09:13.000Z</time>
      </trkpt>
      <trkpt lat="44.38299" lon="7.08213">
        <ele>2406.6000976562</ele>
        <time>2024-09-13T11:09:14.000Z</time>
      </trkpt>
      <trkpt lat="44.38296" lon="7.08229">
        <ele>2406.8000488281</ele>
        <time>2024-09-13T11:09:18.000Z</time>
      </trkpt>
      <trkpt lat="44.38294" lon="7.08236">
        <ele>2407.1999511719</ele>
        <time>2024-09-13T11:09:20.000Z</time>
      </trkpt>
      <trkpt lat="44.38292" lon="7.08239">
        <ele>2407.1999511719</ele>
        <time>2024-09-13T11:09:21.000Z</time>
      </trkpt>
      <trkpt lat="44.3829" lon="7.08252">
        <ele>2407.3999023438</ele>
        <time>2024-09-13T11:09:24.000Z</time>
      </trkpt>
      <trkpt lat="44.38289" lon="7.08255">
        <ele>2407.3999023438</ele>
        <time>2024-09-13T11:09:25.000Z</time>
      </trkpt>
      <trkpt lat="44.38289" lon="7.08259">
        <ele>2407.3999023438</ele>
        <time>2024-09-13T11:09:26.000Z</time>
      </trkpt>
      <trkpt lat="44.38289" lon="7.08262">
        <ele>2407.3999023438</ele>
        <time>2024-09-13T11:09:27.000Z</time>
      </trkpt>
      <trkpt lat="44.38288" lon="7.08265">
        <ele>2407.3999023438</ele>
        <time>2024-09-13T11:09:28.000Z</time>
      </trkpt>
      <trkpt lat="44.38288" lon="7.08268">
        <ele>2407.6000976562</ele>
        <time>2024-09-13T11:09:29.000Z</time>
      </trkpt>
      <trkpt lat="44.38288" lon="7.08271">
        <ele>2407.6000976562</ele>
        <time>2024-09-13T11:09:30.000Z</time>
      </trkpt>
      <trkpt lat="44.38288" lon="7.08274">
        <ele>2407.6000976562</ele>
        <time>2024-09-13T11:09:31.000Z</time>
      </trkpt>
      <trkpt lat="44.38288" lon="7.08277">
        <ele>2407.6000976562</ele>
        <time>2024-09-13T11:09:32.000Z</time>
      </trkpt>
      <trkpt lat="44.38283" lon="7.08284">
        <ele>2407.1999511719</ele>
        <time>2024-09-13T11:09:35.000Z</time>
      </trkpt>
      <trkpt lat="44.38281" lon="7.08287">
        <ele>2406.3999023438</ele>
        <time>2024-09-13T11:09:36.000Z</time>
      </trkpt>
      <trkpt lat="44.38278" lon="7.08289">
        <ele>2406.3999023438</ele>
        <time>2024-09-13T11:09:37.000Z</time>
      </trkpt>
      <trkpt lat="44.38276" lon="7.08291">
        <ele>2406.3999023438</ele>
        <time>2024-09-13T11:09:38.000Z</time>
      </trkpt>
      <trkpt lat="44.38274" lon="7.08292">
        <ele>2406.3999023438</ele>
        <time>2024-09-13T11:09:39.000Z</time>
      </trkpt>
      <trkpt lat="44.38272" lon="7.08293">
        <ele>2407.3999023438</ele>
        <time>2024-09-13T11:09:40.000Z</time>
      </trkpt>
      <trkpt lat="44.38271" lon="7.08294">
        <ele>2408.6000976562</ele>
        <time>2024-09-13T11:09:41.000Z</time>
      </trkpt>
      <trkpt lat="44.38269" lon="7.08296">
        <ele>2408.6000976562</ele>
        <time>2024-09-13T11:09:42.000Z</time>
      </trkpt>
      <trkpt lat="44.38267" lon="7.08298">
        <ele>2408.6000976562</ele>
        <time>2024-09-13T11:09:44.000Z</time>
      </trkpt>
      <trkpt lat="44.38267" lon="7.08299">
        <ele>2408.6000976562</ele>
        <time>2024-09-13T11:09:45.000Z</time>
      </trkpt>
      <trkpt lat="44.38267" lon="7.08298">
        <ele>2408.3999023438</ele>
        <time>2024-09-13T11:09:46.000Z</time>
      </trkpt>
      <trkpt lat="44.38267" lon="7.08298">
        <ele>2408.3999023438</ele>
        <time>2024-09-13T11:09:47.000Z</time>
      </trkpt>
      <trkpt lat="44.38267" lon="7.08298">
        <ele>2408.3999023438</ele>
        <time>2024-09-13T11:09:48.000Z</time>
      </trkpt>
      <trkpt lat="44.38265" lon="7.08302">
        <ele>2408.6000976562</ele>
        <time>2024-09-13T11:09:51.000Z</time>
      </trkpt>
      <trkpt lat="44.38265" lon="7.08308">
        <ele>2408.8000488281</ele>
        <time>2024-09-13T11:09:54.000Z</time>
      </trkpt>
      <trkpt lat="44.38264" lon="7.0831">
        <ele>2409.1999511719</ele>
        <time>2024-09-13T11:09:55.000Z</time>
      </trkpt>
      <trkpt lat="44.38264" lon="7.08314">
        <ele>2409.1999511719</ele>
        <time>2024-09-13T11:09:57.000Z</time>
      </trkpt>
      <trkpt lat="44.38262" lon="7.08319">
        <ele>2408</ele>
        <time>2024-09-13T11:10:00.000Z</time>
      </trkpt>
      <trkpt lat="44.38261" lon="7.08321">
        <ele>2408</ele>
        <time>2024-09-13T11:10:01.000Z</time>
      </trkpt>
      <trkpt lat="44.3826" lon="7.08323">
        <ele>2407.8000488281</ele>
        <time>2024-09-13T11:10:02.000Z</time>
      </trkpt>
      <trkpt lat="44.3826" lon="7.08324">
        <ele>2407.6000976562</ele>
        <time>2024-09-13T11:10:03.000Z</time>
      </trkpt>
      <trkpt lat="44.38259" lon="7.08329">
        <ele>2408</ele>
        <time>2024-09-13T11:10:06.000Z</time>
      </trkpt>
      <trkpt lat="44.38258" lon="7.0833">
        <ele>2408.1999511719</ele>
        <time>2024-09-13T11:10:07.000Z</time>
      </trkpt>
      <trkpt lat="44.38257" lon="7.08332">
        <ele>2409</ele>
        <time>2024-09-13T11:10:09.000Z</time>
      </trkpt>
      <trkpt lat="44.38257" lon="7.08333">
        <ele>2409.1999511719</ele>
        <time>2024-09-13T11:10:10.000Z</time>
      </trkpt>
      <trkpt lat="44.38257" lon="7.08334">
        <ele>2409.3999023438</ele>
        <time>2024-09-13T11:10:11.000Z</time>
      </trkpt>
      <trkpt lat="44.38257" lon="7.08335">
        <ele>2409.6000976562</ele>
        <time>2024-09-13T11:10:12.000Z</time>
      </trkpt>
      <trkpt lat="44.38257" lon="7.08336">
        <ele>2409.8000488281</ele>
        <time>2024-09-13T11:10:13.000Z</time>
      </trkpt>
      <trkpt lat="44.38257" lon="7.08337">
        <ele>2409.8000488281</ele>
        <time>2024-09-13T11:10:14.000Z</time>
      </trkpt>
      <trkpt lat="44.38258" lon="7.08337">
        <ele>2409.8000488281</ele>
        <time>2024-09-13T11:10:15.000Z</time>
      </trkpt>
      <trkpt lat="44.38257" lon="7.08337">
        <ele>2409.8000488281</ele>
        <time>2024-09-13T11:10:16.000Z</time>
      </trkpt>
      <trkpt lat="44.38257" lon="7.08336">
        <ele>2410</ele>
        <time>2024-09-13T11:10:18.000Z</time>
      </trkpt>
      <trkpt lat="44.38257" lon="7.08337">
        <ele>2410</ele>
        <time>2024-09-13T11:10:19.000Z</time>
      </trkpt>
      <trkpt lat="44.38258" lon="7.08336">
        <ele>2409.6000976562</ele>
        <time>2024-09-13T11:10:22.000Z</time>
      </trkpt>
      <trkpt lat="44.38258" lon="7.08336">
        <ele>2409.6000976562</ele>
        <time>2024-09-13T11:10:23.000Z</time>
      </trkpt>
      <trkpt lat="44.38258" lon="7.08336">
        <ele>2409.3999023438</ele>
        <time>2024-09-13T11:10:24.000Z</time>
      </trkpt>
      <trkpt lat="44.38258" lon="7.08335">
        <ele>2409.6000976562</ele>
        <time>2024-09-13T11:10:31.000Z</time>
      </trkpt>
      <trkpt lat="44.38257" lon="7.08332">
        <ele>2409.3999023438</ele>
        <time>2024-09-13T11:10:36.000Z</time>
      </trkpt>
      <trkpt lat="44.38257" lon="7.08332">
        <ele>2409.1999511719</ele>
        <time>2024-09-13T11:10:37.000Z</time>
      </trkpt>
      <trkpt lat="44.38256" lon="7.08329">
        <ele>2409</ele>
        <time>2024-09-13T11:10:39.000Z</time>
      </trkpt>
      <trkpt lat="44.38256" lon="7.08329">
        <ele>2408.8000488281</ele>
        <time>2024-09-13T11:10:40.000Z</time>
      </trkpt>
      <trkpt lat="44.38255" lon="7.08327">
        <ele>2408.3999023438</ele>
        <time>2024-09-13T11:10:41.000Z</time>
      </trkpt>
      <trkpt lat="44.38255" lon="7.08326">
        <ele>2408</ele>
        <time>2024-09-13T11:10:42.000Z</time>
      </trkpt>
      <trkpt lat="44.38255" lon="7.08326">
        <ele>2407.8000488281</ele>
        <time>2024-09-13T11:10:43.000Z</time>
      </trkpt>
      <trkpt lat="44.38255" lon="7.08326">
        <ele>2407.6000976562</ele>
        <time>2024-09-13T11:10:44.000Z</time>
      </trkpt>
      <trkpt lat="44.38255" lon="7.08326">
        <ele>2407.3999023438</ele>
        <time>2024-09-13T11:10:47.000Z</time>
      </trkpt>
      <trkpt lat="44.38255" lon="7.08326">
        <ele>2407.3999023438</ele>
        <time>2024-09-13T11:10:51.000Z</time>
      </trkpt>
      <trkpt lat="44.38255" lon="7.08326">
        <ele>2407.3999023438</ele>
        <time>2024-09-13T11:10:52.000Z</time>
      </trkpt>
      <trkpt lat="44.38255" lon="7.08326">
        <ele>2406.8000488281</ele>
        <time>2024-09-13T11:11:04.000Z</time>
      </trkpt>
      <trkpt lat="44.38255" lon="7.08326">
        <ele>2406.8000488281</ele>
        <time>2024-09-13T11:11:08.000Z</time>
      </trkpt>
      <trkpt lat="44.38254" lon="7.08327">
        <ele>2406.3999023438</ele>
        <time>2024-09-13T11:11:12.000Z</time>
      </trkpt>
      <trkpt lat="44.38254" lon="7.08327">
        <ele>2406</ele>
        <time>2024-09-13T11:11:26.000Z</time>
      </trkpt>
      <trkpt lat="44.38253" lon="7.08328">
        <ele>2406</ele>
        <time>2024-09-13T11:11:27.000Z</time>
      </trkpt>
      <trkpt lat="44.38254" lon="7.08332">
        <ele>2405.8000488281</ele>
        <time>2024-09-13T11:11:31.000Z</time>
      </trkpt>
      <trkpt lat="44.38255" lon="7.08332">
        <ele>2405.8000488281</ele>
        <time>2024-09-13T11:11:32.000Z</time>
      </trkpt>
      <trkpt lat="44.38255" lon="7.08333">
        <ele>2406.1999511719</ele>
        <time>2024-09-13T11:11:33.000Z</time>
      </trkpt>
      <trkpt lat="44.38256" lon="7.08334">
        <ele>2406.3999023438</ele>
        <time>2024-09-13T11:11:34.000Z</time>
      </trkpt>
      <trkpt lat="44.38257" lon="7.08334">
        <ele>2406.3999023438</ele>
        <time>2024-09-13T11:11:35.000Z</time>
      </trkpt>
      <trkpt lat="44.38257" lon="7.08335">
        <ele>2406.3999023438</ele>
        <time>2024-09-13T11:11:36.000Z</time>
      </trkpt>
      <trkpt lat="44.38258" lon="7.08335">
        <ele>2407</ele>
        <time>2024-09-13T11:11:40.000Z</time>
      </trkpt>
      <trkpt lat="44.38258" lon="7.08334">
        <ele>2407</ele>
        <time>2024-09-13T11:11:41.000Z</time>
      </trkpt>
      <trkpt lat="44.38258" lon="7.08333">
        <ele>2407.1999511719</ele>
        <time>2024-09-13T11:11:42.000Z</time>
      </trkpt>
      <trkpt lat="44.38258" lon="7.08331">
        <ele>2407</ele>
        <time>2024-09-13T11:11:43.000Z</time>
      </trkpt>
      <trkpt lat="44.38259" lon="7.08331">
        <ele>2407.1999511719</ele>
        <time>2024-09-13T11:11:44.000Z</time>
      </trkpt>
      <trkpt lat="44.38259" lon="7.08328">
        <ele>2407.3999023438</ele>
        <time>2024-09-13T11:11:46.000Z</time>
      </trkpt>
      <trkpt lat="44.3826" lon="7.08327">
        <ele>2407.3999023438</ele>
        <time>2024-09-13T11:11:47.000Z</time>
      </trkpt>
      <trkpt lat="44.3826" lon="7.08326">
        <ele>2407.1999511719</ele>
        <time>2024-09-13T11:11:48.000Z</time>
      </trkpt>
      <trkpt lat="44.38261" lon="7.08325">
        <ele>2407</ele>
        <time>2024-09-13T11:11:49.000Z</time>
      </trkpt>
      <trkpt lat="44.38261" lon="7.08326">
        <ele>2407</ele>
        <time>2024-09-13T11:11:50.000Z</time>
      </trkpt>
      <trkpt lat="44.38261" lon="7.08325">
        <ele>2406.1999511719</ele>
        <time>2024-09-13T11:11:51.000Z</time>
      </trkpt>
      <trkpt lat="44.38258" lon="7.08332">
        <ele>2405.8000488281</ele>
        <time>2024-09-13T11:11:57.000Z</time>
      </trkpt>
      <trkpt lat="44.38258" lon="7.08334">
        <ele>2406.1999511719</ele>
        <time>2024-09-13T11:11:58.000Z</time>
      </trkpt>
      <trkpt lat="44.38259" lon="7.08336">
        <ele>2406.8000488281</ele>
        <time>2024-09-13T11:11:59.000Z</time>
      </trkpt>
      <trkpt lat="44.38259" lon="7.08337">
        <ele>2407.1999511719</ele>
        <time>2024-09-13T11:12:00.000Z</time>
      </trkpt>
      <trkpt lat="44.38259" lon="7.08338">
        <ele>2407.1999511719</ele>
        <time>2024-09-13T11:12:01.000Z</time>
      </trkpt>
      <trkpt lat="44.38259" lon="7.08339">
        <ele>2407.1999511719</ele>
        <time>2024-09-13T11:12:02.000Z</time>
      </trkpt>
      <trkpt lat="44.38259" lon="7.08339">
        <ele>2407.1999511719</ele>
        <time>2024-09-13T11:12:03.000Z</time>
      </trkpt>
      <trkpt lat="44.38259" lon="7.08339">
        <ele>2407</ele>
        <time>2024-09-13T11:12:04.000Z</time>
      </trkpt>
      <trkpt lat="44.3826" lon="7.08339">
        <ele>2406.6000976562</ele>
        <time>2024-09-13T11:12:06.000Z</time>
      </trkpt>
      <trkpt lat="44.38261" lon="7.08338">
        <ele>2406</ele>
        <time>2024-09-13T11:12:10.000Z</time>
      </trkpt>
      <trkpt lat="44.38261" lon="7.08339">
        <ele>2405.8000488281</ele>
        <time>2024-09-13T11:12:16.000Z</time>
      </trkpt>
      <trkpt lat="44.38262" lon="7.0834">
        <ele>2405.8000488281</ele>
        <time>2024-09-13T11:12:17.000Z</time>
      </trkpt>
      <trkpt lat="44.38262" lon="7.0834">
        <ele>2405.8000488281</ele>
        <time>2024-09-13T11:12:18.000Z</time>
      </trkpt>
      <trkpt lat="44.38262" lon="7.08339">
        <ele>2406.1999511719</ele>
        <time>2024-09-13T11:12:22.000Z</time>
      </trkpt>
      <trkpt lat="44.38262" lon="7.08338">
        <ele>2406.1999511719</ele>
        <time>2024-09-13T11:12:23.000Z</time>
      </trkpt>
      <trkpt lat="44.38262" lon="7.08339">
        <ele>2405.8000488281</ele>
        <time>2024-09-13T11:12:24.000Z</time>
      </trkpt>
      <trkpt lat="44.38262" lon="7.08337">
        <ele>2405.3999023438</ele>
        <time>2024-09-13T11:12:29.000Z</time>
      </trkpt>
      <trkpt lat="44.38262" lon="7.08338">
        <ele>2405.3999023438</ele>
        <time>2024-09-13T11:12:31.000Z</time>
      </trkpt>
      <trkpt lat="44.38262" lon="7.08337">
        <ele>2405.6000976562</ele>
        <time>2024-09-13T11:12:37.000Z</time>
      </trkpt>
      <trkpt lat="44.38261" lon="7.08337">
        <ele>2405.3999023438</ele>
        <time>2024-09-13T11:12:38.000Z</time>
      </trkpt>
      <trkpt lat="44.38261" lon="7.08337">
        <ele>2405.3999023438</ele>
        <time>2024-09-13T11:12:40.000Z</time>
      </trkpt>
      <trkpt lat="44.38258" lon="7.08337">
        <ele>2404</ele>
        <time>2024-09-13T11:42:47.000Z</time>
      </trkpt>
      <trkpt lat="44.38258" lon="7.08337">
        <ele>2404</ele>
        <time>2024-09-13T11:42:48.000Z</time>
      </trkpt>
      <trkpt lat="44.38257" lon="7.08337">
        <ele>2404</ele>
        <time>2024-09-13T11:42:49.000Z</time>
      </trkpt>
      <trkpt lat="44.38257" lon="7.08338">
        <ele>2404</ele>
        <time>2024-09-13T11:42:51.000Z</time>
      </trkpt>
      <trkpt lat="44.38257" lon="7.08337">
        <ele>2404</ele>
        <time>2024-09-13T11:42:53.000Z</time>
      </trkpt>
      <trkpt lat="44.38257" lon="7.08337">
        <ele>2404</ele>
        <time>2024-09-13T11:42:55.000Z</time>
      </trkpt>
      <trkpt lat="44.38257" lon="7.08337">
        <ele>2404</ele>
        <time>2024-09-13T11:42:56.000Z</time>
      </trkpt>
      <trkpt lat="44.38257" lon="7.08337">
        <ele>2404</ele>
        <time>2024-09-13T11:42:57.000Z</time>
      </trkpt>
      <trkpt lat="44.38257" lon="7.08335">
        <ele>2404</ele>
        <time>2024-09-13T11:43:00.000Z</time>
      </trkpt>
      <trkpt lat="44.38257" lon="7.08334">
        <ele>2404</ele>
        <time>2024-09-13T11:43:02.000Z</time>
      </trkpt>
      <trkpt lat="44.38257" lon="7.0833">
        <ele>2404</ele>
        <time>2024-09-13T11:43:05.000Z</time>
      </trkpt>
      <trkpt lat="44.38257" lon="7.08329">
        <ele>2404</ele>
        <time>2024-09-13T11:43:06.000Z</time>
      </trkpt>
      <trkpt lat="44.38257" lon="7.08329">
        <ele>2404</ele>
        <time>2024-09-13T11:43:08.000Z</time>
      </trkpt>
      <trkpt lat="44.38256" lon="7.08332">
        <ele>2404</ele>
        <time>2024-09-13T11:43:11.000Z</time>
      </trkpt>
      <trkpt lat="44.38256" lon="7.08335">
        <ele>2404</ele>
        <time>2024-09-13T11:43:13.000Z</time>
      </trkpt>
      <trkpt lat="44.38257" lon="7.08336">
        <ele>2404</ele>
        <time>2024-09-13T11:43:14.000Z</time>
      </trkpt>
      <trkpt lat="44.38257" lon="7.08337">
        <ele>2404</ele>
        <time>2024-09-13T11:43:15.000Z</time>
      </trkpt>
      <trkpt lat="44.38257" lon="7.0834">
        <ele>2404.1999511719</ele>
        <time>2024-09-13T11:43:19.000Z</time>
      </trkpt>
      <trkpt lat="44.38257" lon="7.08341">
        <ele>2404.1999511719</ele>
        <time>2024-09-13T11:43:20.000Z</time>
      </trkpt>
      <trkpt lat="44.38257" lon="7.08341">
        <ele>2404.1999511719</ele>
        <time>2024-09-13T11:43:21.000Z</time>
      </trkpt>
      <trkpt lat="44.38256" lon="7.0834">
        <ele>2404.3999023438</ele>
        <time>2024-09-13T11:43:22.000Z</time>
      </trkpt>
      <trkpt lat="44.38256" lon="7.0834">
        <ele>2404.3999023438</ele>
        <time>2024-09-13T11:43:23.000Z</time>
      </trkpt>
      <trkpt lat="44.38256" lon="7.08341">
        <ele>2404.3999023438</ele>
        <time>2024-09-13T11:43:24.000Z</time>
      </trkpt>
      <trkpt lat="44.38257" lon="7.08341">
        <ele>2404.1999511719</ele>
        <time>2024-09-13T11:43:27.000Z</time>
      </trkpt>
      <trkpt lat="44.38256" lon="7.08341">
        <ele>2403.8000488281</ele>
        <time>2024-09-13T11:43:33.000Z</time>
      </trkpt>
      <trkpt lat="44.38257" lon="7.08354">
        <ele>2403.6000976562</ele>
        <time>2024-09-13T11:43:39.000Z</time>
      </trkpt>
      <trkpt lat="44.38257" lon="7.08357">
        <ele>2403.3999023438</ele>
        <time>2024-09-13T11:43:40.000Z</time>
      </trkpt>
      <trkpt lat="44.38257" lon="7.08358">
        <ele>2402.8000488281</ele>
        <time>2024-09-13T11:43:41.000Z</time>
      </trkpt>
      <trkpt lat="44.3826" lon="7.08369">
        <ele>2401.6000976562</ele>
        <time>2024-09-13T11:43:44.000Z</time>
      </trkpt>
      <trkpt lat="44.38262" lon="7.08376">
        <ele>2401.3999023438</ele>
        <time>2024-09-13T11:43:45.000Z</time>
      </trkpt>
      <trkpt lat="44.38261" lon="7.08382">
        <ele>2399.3999023438</ele>
        <time>2024-09-13T11:43:46.000Z</time>
      </trkpt>
      <trkpt lat="44.3826" lon="7.08388">
        <ele>2398.6000976562</ele>
        <time>2024-09-13T11:43:47.000Z</time>
      </trkpt>
      <trkpt lat="44.38258" lon="7.08394">
        <ele>2398.3999023438</ele>
        <time>2024-09-13T11:43:48.000Z</time>
      </trkpt>
      <trkpt lat="44.38255" lon="7.084">
        <ele>2398.3999023438</ele>
        <time>2024-09-13T11:43:49.000Z</time>
      </trkpt>
      <trkpt lat="44.38253" lon="7.08405">
        <ele>2398.6000976562</ele>
        <time>2024-09-13T11:43:50.000Z</time>
      </trkpt>
      <trkpt lat="44.38239" lon="7.08432">
        <ele>2398.8000488281</ele>
        <time>2024-09-13T11:43:55.000Z</time>
      </trkpt>
      <trkpt lat="44.38236" lon="7.08437">
        <ele>2398.6000976562</ele>
        <time>2024-09-13T11:43:56.000Z</time>
      </trkpt>
      <trkpt lat="44.38234" lon="7.08441">
        <ele>2398.6000976562</ele>
        <time>2024-09-13T11:43:57.000Z</time>
      </trkpt>
      <trkpt lat="44.38231" lon="7.08446">
        <ele>2398.8000488281</ele>
        <time>2024-09-13T11:43:58.000Z</time>
      </trkpt>
      <trkpt lat="44.38228" lon="7.0845">
        <ele>2399</ele>
        <time>2024-09-13T11:43:59.000Z</time>
      </trkpt>
      <trkpt lat="44.38227" lon="7.08454">
        <ele>2399</ele>
        <time>2024-09-13T11:44:00.000Z</time>
      </trkpt>
      <trkpt lat="44.38225" lon="7.08458">
        <ele>2399.1999511719</ele>
        <time>2024-09-13T11:44:01.000Z</time>
      </trkpt>
      <trkpt lat="44.38224" lon="7.08461">
        <ele>2399.1999511719</ele>
        <time>2024-09-13T11:44:02.000Z</time>
      </trkpt>
      <trkpt lat="44.38222" lon="7.08464">
        <ele>2399.1999511719</ele>
        <time>2024-09-13T11:44:03.000Z</time>
      </trkpt>
      <trkpt lat="44.38221" lon="7.08467">
        <ele>2399.1999511719</ele>
        <time>2024-09-13T11:44:04.000Z</time>
      </trkpt>
      <trkpt lat="44.3822" lon="7.08471">
        <ele>2399.1999511719</ele>
        <time>2024-09-13T11:44:05.000Z</time>
      </trkpt>
      <trkpt lat="44.38217" lon="7.08476">
        <ele>2399.3999023438</ele>
        <time>2024-09-13T11:44:07.000Z</time>
      </trkpt>
      <trkpt lat="44.38216" lon="7.08479">
        <ele>2399.6000976562</ele>
        <time>2024-09-13T11:44:08.000Z</time>
      </trkpt>
      <trkpt lat="44.38215" lon="7.08482">
        <ele>2400</ele>
        <time>2024-09-13T11:44:09.000Z</time>
      </trkpt>
      <trkpt lat="44.38214" lon="7.08485">
        <ele>2400</ele>
        <time>2024-09-13T11:44:10.000Z</time>
      </trkpt>
      <trkpt lat="44.38214" lon="7.08488">
        <ele>2400.1999511719</ele>
        <time>2024-09-13T11:44:11.000Z</time>
      </trkpt>
      <trkpt lat="44.38213" lon="7.08491">
        <ele>2400.1999511719</ele>
        <time>2024-09-13T11:44:12.000Z</time>
      </trkpt>
      <trkpt lat="44.38212" lon="7.08494">
        <ele>2400.6000976562</ele>
        <time>2024-09-13T11:44:13.000Z</time>
      </trkpt>
      <trkpt lat="44.38211" lon="7.08503">
        <ele>2401</ele>
        <time>2024-09-13T11:44:16.000Z</time>
      </trkpt>
      <trkpt lat="44.38208" lon="7.08528">
        <ele>2400.8000488281</ele>
        <time>2024-09-13T11:44:23.000Z</time>
      </trkpt>
      <trkpt lat="44.38208" lon="7.08531">
        <ele>2400.8000488281</ele>
        <time>2024-09-13T11:44:24.000Z</time>
      </trkpt>
      <trkpt lat="44.38207" lon="7.08538">
        <ele>2400.8000488281</ele>
        <time>2024-09-13T11:44:26.000Z</time>
      </trkpt>
      <trkpt lat="44.38206" lon="7.08545">
        <ele>2400.6000976562</ele>
        <time>2024-09-13T11:44:28.000Z</time>
      </trkpt>
      <trkpt lat="44.38205" lon="7.08548">
        <ele>2401</ele>
        <time>2024-09-13T11:44:29.000Z</time>
      </trkpt>
      <trkpt lat="44.38204" lon="7.08551">
        <ele>2401.1999511719</ele>
        <time>2024-09-13T11:44:30.000Z</time>
      </trkpt>
      <trkpt lat="44.38203" lon="7.08554">
        <ele>2401.3999023438</ele>
        <time>2024-09-13T11:44:31.000Z</time>
      </trkpt>
      <trkpt lat="44.38202" lon="7.08557">
        <ele>2401.3999023438</ele>
        <time>2024-09-13T11:44:32.000Z</time>
      </trkpt>
      <trkpt lat="44.38202" lon="7.0856">
        <ele>2401.6000976562</ele>
        <time>2024-09-13T11:44:33.000Z</time>
      </trkpt>
      <trkpt lat="44.38201" lon="7.08563">
        <ele>2402.1999511719</ele>
        <time>2024-09-13T11:44:34.000Z</time>
      </trkpt>
      <trkpt lat="44.38201" lon="7.08566">
        <ele>2402.3999023438</ele>
        <time>2024-09-13T11:44:35.000Z</time>
      </trkpt>
      <trkpt lat="44.382" lon="7.08577">
        <ele>2403.1999511719</ele>
        <time>2024-09-13T11:44:38.000Z</time>
      </trkpt>
      <trkpt lat="44.382" lon="7.08579">
        <ele>2403.3999023438</ele>
        <time>2024-09-13T11:44:39.000Z</time>
      </trkpt>
      <trkpt lat="44.38199" lon="7.08582">
        <ele>2403.8000488281</ele>
        <time>2024-09-13T11:44:40.000Z</time>
      </trkpt>
      <trkpt lat="44.38199" lon="7.08585">
        <ele>2404</ele>
        <time>2024-09-13T11:44:41.000Z</time>
      </trkpt>
      <trkpt lat="44.38199" lon="7.08588">
        <ele>2404</ele>
        <time>2024-09-13T11:44:42.000Z</time>
      </trkpt>
      <trkpt lat="44.38199" lon="7.0859">
        <ele>2404</ele>
        <time>2024-09-13T11:44:43.000Z</time>
      </trkpt>
      <trkpt lat="44.382" lon="7.08593">
        <ele>2404</ele>
        <time>2024-09-13T11:44:44.000Z</time>
      </trkpt>
      <trkpt lat="44.382" lon="7.08596">
        <ele>2404</ele>
        <time>2024-09-13T11:44:45.000Z</time>
      </trkpt>
      <trkpt lat="44.382" lon="7.08599">
        <ele>2404</ele>
        <time>2024-09-13T11:44:46.000Z</time>
      </trkpt>
      <trkpt lat="44.382" lon="7.08602">
        <ele>2404</ele>
        <time>2024-09-13T11:44:47.000Z</time>
      </trkpt>
      <trkpt lat="44.382" lon="7.08604">
        <ele>2404.1999511719</ele>
        <time>2024-09-13T11:44:48.000Z</time>
      </trkpt>
      <trkpt lat="44.382" lon="7.08607">
        <ele>2404.3999023438</ele>
        <time>2024-09-13T11:44:49.000Z</time>
      </trkpt>
      <trkpt lat="44.38201" lon="7.0861">
        <ele>2404.8000488281</ele>
        <time>2024-09-13T11:44:50.000Z</time>
      </trkpt>
      <trkpt lat="44.38201" lon="7.08612">
        <ele>2404.8000488281</ele>
        <time>2024-09-13T11:44:51.000Z</time>
      </trkpt>
      <trkpt lat="44.38201" lon="7.08615">
        <ele>2405</ele>
        <time>2024-09-13T11:44:52.000Z</time>
      </trkpt>
      <trkpt lat="44.38202" lon="7.08618">
        <ele>2405.1999511719</ele>
        <time>2024-09-13T11:44:53.000Z</time>
      </trkpt>
      <trkpt lat="44.38202" lon="7.08621">
        <ele>2405.3999023438</ele>
        <time>2024-09-13T11:44:54.000Z</time>
      </trkpt>
      <trkpt lat="44.38202" lon="7.08624">
        <ele>2406.6000976562</ele>
        <time>2024-09-13T11:44:55.000Z</time>
      </trkpt>
      <trkpt lat="44.38202" lon="7.08626">
        <ele>2407.1999511719</ele>
        <time>2024-09-13T11:44:56.000Z</time>
      </trkpt>
      <trkpt lat="44.38202" lon="7.08628">
        <ele>2407.3999023438</ele>
        <time>2024-09-13T11:44:57.000Z</time>
      </trkpt>
      <trkpt lat="44.38203" lon="7.0863">
        <ele>2407.6000976562</ele>
        <time>2024-09-13T11:44:58.000Z</time>
      </trkpt>
      <trkpt lat="44.38203" lon="7.08632">
        <ele>2407.6000976562</ele>
        <time>2024-09-13T11:44:59.000Z</time>
      </trkpt>
      <trkpt lat="44.38204" lon="7.08635">
        <ele>2407.8000488281</ele>
        <time>2024-09-13T11:45:00.000Z</time>
      </trkpt>
      <trkpt lat="44.38205" lon="7.08638">
        <ele>2407.8000488281</ele>
        <time>2024-09-13T11:45:01.000Z</time>
      </trkpt>
      <trkpt lat="44.38205" lon="7.0864">
        <ele>2407.8000488281</ele>
        <time>2024-09-13T11:45:02.000Z</time>
      </trkpt>
      <trkpt lat="44.38206" lon="7.08643">
        <ele>2407.8000488281</ele>
        <time>2024-09-13T11:45:03.000Z</time>
      </trkpt>
      <trkpt lat="44.38206" lon="7.08646">
        <ele>2407.8000488281</ele>
        <time>2024-09-13T11:45:04.000Z</time>
      </trkpt>
      <trkpt lat="44.38207" lon="7.08648">
        <ele>2407.6000976562</ele>
        <time>2024-09-13T11:45:05.000Z</time>
      </trkpt>
      <trkpt lat="44.38207" lon="7.08651">
        <ele>2407.6000976562</ele>
        <time>2024-09-13T11:45:06.000Z</time>
      </trkpt>
      <trkpt lat="44.38208" lon="7.08654">
        <ele>2407.6000976562</ele>
        <time>2024-09-13T11:45:07.000Z</time>
      </trkpt>
      <trkpt lat="44.38209" lon="7.08656">
        <ele>2407.8000488281</ele>
        <time>2024-09-13T11:45:08.000Z</time>
      </trkpt>
      <trkpt lat="44.3821" lon="7.08658">
        <ele>2408.1999511719</ele>
        <time>2024-09-13T11:45:09.000Z</time>
      </trkpt>
      <trkpt lat="44.38212" lon="7.0866">
        <ele>2408.3999023438</ele>
        <time>2024-09-13T11:45:10.000Z</time>
      </trkpt>
      <trkpt lat="44.38213" lon="7.08662">
        <ele>2408.8000488281</ele>
        <time>2024-09-13T11:45:11.000Z</time>
      </trkpt>
      <trkpt lat="44.38215" lon="7.08663">
        <ele>2409</ele>
        <time>2024-09-13T11:45:12.000Z</time>
      </trkpt>
      <trkpt lat="44.38217" lon="7.08665">
        <ele>2409</ele>
        <time>2024-09-13T11:45:13.000Z</time>
      </trkpt>
      <trkpt lat="44.38218" lon="7.08667">
        <ele>2409</ele>
        <time>2024-09-13T11:45:14.000Z</time>
      </trkpt>
      <trkpt lat="44.3822" lon="7.08668">
        <ele>2409.1999511719</ele>
        <time>2024-09-13T11:45:15.000Z</time>
      </trkpt>
      <trkpt lat="44.38222" lon="7.0867">
        <ele>2408.8000488281</ele>
        <time>2024-09-13T11:45:16.000Z</time>
      </trkpt>
      <trkpt lat="44.38224" lon="7.08672">
        <ele>2409</ele>
        <time>2024-09-13T11:45:17.000Z</time>
      </trkpt>
      <trkpt lat="44.38225" lon="7.08675">
        <ele>2409.1999511719</ele>
        <time>2024-09-13T11:45:18.000Z</time>
      </trkpt>
      <trkpt lat="44.38227" lon="7.08677">
        <ele>2409.1999511719</ele>
        <time>2024-09-13T11:45:19.000Z</time>
      </trkpt>
      <trkpt lat="44.38228" lon="7.08679">
        <ele>2409.1999511719</ele>
        <time>2024-09-13T11:45:20.000Z</time>
      </trkpt>
      <trkpt lat="44.3823" lon="7.08682">
        <ele>2409.1999511719</ele>
        <time>2024-09-13T11:45:21.000Z</time>
      </trkpt>
      <trkpt lat="44.38231" lon="7.08684">
        <ele>2409.1999511719</ele>
        <time>2024-09-13T11:45:22.000Z</time>
      </trkpt>
      <trkpt lat="44.38233" lon="7.08687">
        <ele>2409.3999023438</ele>
        <time>2024-09-13T11:45:23.000Z</time>
      </trkpt>
      <trkpt lat="44.38235" lon="7.08689">
        <ele>2409.3999023438</ele>
        <time>2024-09-13T11:45:24.000Z</time>
      </trkpt>
      <trkpt lat="44.38236" lon="7.08692">
        <ele>2409.3999023438</ele>
        <time>2024-09-13T11:45:25.000Z</time>
      </trkpt>
      <trkpt lat="44.38238" lon="7.08694">
        <ele>2409.6000976562</ele>
        <time>2024-09-13T11:45:26.000Z</time>
      </trkpt>
      <trkpt lat="44.3824" lon="7.08697">
        <ele>2409.6000976562</ele>
        <time>2024-09-13T11:45:27.000Z</time>
      </trkpt>
      <trkpt lat="44.38242" lon="7.08699">
        <ele>2409.6000976562</ele>
        <time>2024-09-13T11:45:28.000Z</time>
      </trkpt>
      <trkpt lat="44.38246" lon="7.08704">
        <ele>2409.6000976562</ele>
        <time>2024-09-13T11:45:30.000Z</time>
      </trkpt>
      <trkpt lat="44.38247" lon="7.08706">
        <ele>2409.6000976562</ele>
        <time>2024-09-13T11:45:31.000Z</time>
      </trkpt>
      <trkpt lat="44.38249" lon="7.08708">
        <ele>2409.6000976562</ele>
        <time>2024-09-13T11:45:32.000Z</time>
      </trkpt>
      <trkpt lat="44.38251" lon="7.08709">
        <ele>2409.6000976562</ele>
        <time>2024-09-13T11:45:33.000Z</time>
      </trkpt>
      <trkpt lat="44.38252" lon="7.08711">
        <ele>2409.6000976562</ele>
        <time>2024-09-13T11:45:34.000Z</time>
      </trkpt>
      <trkpt lat="44.38256" lon="7.08715">
        <ele>2410</ele>
        <time>2024-09-13T11:45:36.000Z</time>
      </trkpt>
      <trkpt lat="44.38258" lon="7.08718">
        <ele>2410</ele>
        <time>2024-09-13T11:45:37.000Z</time>
      </trkpt>
      <trkpt lat="44.38267" lon="7.08728">
        <ele>2410.1999511719</ele>
        <time>2024-09-13T11:45:41.000Z</time>
      </trkpt>
      <trkpt lat="44.38268" lon="7.0873">
        <ele>2410.3999023438</ele>
        <time>2024-09-13T11:45:42.000Z</time>
      </trkpt>
      <trkpt lat="44.38269" lon="7.08733">
        <ele>2410.1999511719</ele>
        <time>2024-09-13T11:45:43.000Z</time>
      </trkpt>
      <trkpt lat="44.3827" lon="7.08736">
        <ele>2410</ele>
        <time>2024-09-13T11:45:44.000Z</time>
      </trkpt>
      <trkpt lat="44.38273" lon="7.08742">
        <ele>2409.8000488281</ele>
        <time>2024-09-13T11:45:46.000Z</time>
      </trkpt>
      <trkpt lat="44.38275" lon="7.08746">
        <ele>2410</ele>
        <time>2024-09-13T11:45:47.000Z</time>
      </trkpt>
      <trkpt lat="44.38278" lon="7.08753">
        <ele>2410</ele>
        <time>2024-09-13T11:45:49.000Z</time>
      </trkpt>
      <trkpt lat="44.38279" lon="7.08756">
        <ele>2410.1999511719</ele>
        <time>2024-09-13T11:45:50.000Z</time>
      </trkpt>
      <trkpt lat="44.38281" lon="7.08759">
        <ele>2410.3999023438</ele>
        <time>2024-09-13T11:45:51.000Z</time>
      </trkpt>
      <trkpt lat="44.38283" lon="7.08762">
        <ele>2410.6000976562</ele>
        <time>2024-09-13T11:45:52.000Z</time>
      </trkpt>
      <trkpt lat="44.38297" lon="7.08778">
        <ele>2411</ele>
        <time>2024-09-13T11:45:58.000Z</time>
      </trkpt>
      <trkpt lat="44.38305" lon="7.08785">
        <ele>2411</ele>
        <time>2024-09-13T11:46:01.000Z</time>
      </trkpt>
      <trkpt lat="44.38307" lon="7.08788">
        <ele>2411.1999511719</ele>
        <time>2024-09-13T11:46:02.000Z</time>
      </trkpt>
      <trkpt lat="44.3831" lon="7.0879">
        <ele>2411.1999511719</ele>
        <time>2024-09-13T11:46:03.000Z</time>
      </trkpt>
      <trkpt lat="44.38312" lon="7.08793">
        <ele>2411.1999511719</ele>
        <time>2024-09-13T11:46:04.000Z</time>
      </trkpt>
      <trkpt lat="44.38314" lon="7.08795">
        <ele>2411.3999023438</ele>
        <time>2024-09-13T11:46:05.000Z</time>
      </trkpt>
      <trkpt lat="44.38316" lon="7.08797">
        <ele>2411.6000976562</ele>
        <time>2024-09-13T11:46:06.000Z</time>
      </trkpt>
      <trkpt lat="44.38318" lon="7.088">
        <ele>2412</ele>
        <time>2024-09-13T11:46:07.000Z</time>
      </trkpt>
      <trkpt lat="44.38319" lon="7.08802">
        <ele>2412.3999023438</ele>
        <time>2024-09-13T11:46:08.000Z</time>
      </trkpt>
      <trkpt lat="44.38321" lon="7.08804">
        <ele>2412.6000976562</ele>
        <time>2024-09-13T11:46:09.000Z</time>
      </trkpt>
      <trkpt lat="44.38323" lon="7.08806">
        <ele>2412.8000488281</ele>
        <time>2024-09-13T11:46:10.000Z</time>
      </trkpt>
      <trkpt lat="44.38325" lon="7.08808">
        <ele>2412.8000488281</ele>
        <time>2024-09-13T11:46:11.000Z</time>
      </trkpt>
      <trkpt lat="44.38327" lon="7.0881">
        <ele>2412.8000488281</ele>
        <time>2024-09-13T11:46:12.000Z</time>
      </trkpt>
      <trkpt lat="44.38331" lon="7.08815">
        <ele>2412.8000488281</ele>
        <time>2024-09-13T11:46:14.000Z</time>
      </trkpt>
      <trkpt lat="44.38332" lon="7.08818">
        <ele>2412.6000976562</ele>
        <time>2024-09-13T11:46:15.000Z</time>
      </trkpt>
      <trkpt lat="44.38334" lon="7.08821">
        <ele>2411.3999023438</ele>
        <time>2024-09-13T11:46:16.000Z</time>
      </trkpt>
      <trkpt lat="44.38335" lon="7.08825">
        <ele>2411.1999511719</ele>
        <time>2024-09-13T11:46:17.000Z</time>
      </trkpt>
      <trkpt lat="44.38337" lon="7.08828">
        <ele>2411.1999511719</ele>
        <time>2024-09-13T11:46:18.000Z</time>
      </trkpt>
      <trkpt lat="44.38338" lon="7.08832">
        <ele>2411.1999511719</ele>
        <time>2024-09-13T11:46:19.000Z</time>
      </trkpt>
      <trkpt lat="44.38339" lon="7.08835">
        <ele>2411</ele>
        <time>2024-09-13T11:46:20.000Z</time>
      </trkpt>
      <trkpt lat="44.38342" lon="7.08841">
        <ele>2411.3999023438</ele>
        <time>2024-09-13T11:46:22.000Z</time>
      </trkpt>
      <trkpt lat="44.38343" lon="7.08844">
        <ele>2411.6000976562</ele>
        <time>2024-09-13T11:46:23.000Z</time>
      </trkpt>
      <trkpt lat="44.38344" lon="7.08847">
        <ele>2411.6000976562</ele>
        <time>2024-09-13T11:46:24.000Z</time>
      </trkpt>
      <trkpt lat="44.38345" lon="7.0885">
        <ele>2411.3999023438</ele>
        <time>2024-09-13T11:46:25.000Z</time>
      </trkpt>
      <trkpt lat="44.38347" lon="7.08853">
        <ele>2411.3999023438</ele>
        <time>2024-09-13T11:46:26.000Z</time>
      </trkpt>
      <trkpt lat="44.38348" lon="7.08855">
        <ele>2411.3999023438</ele>
        <time>2024-09-13T11:46:27.000Z</time>
      </trkpt>
      <trkpt lat="44.38353" lon="7.08866">
        <ele>2411.8000488281</ele>
        <time>2024-09-13T11:46:31.000Z</time>
      </trkpt>
      <trkpt lat="44.38354" lon="7.08869">
        <ele>2412.1999511719</ele>
        <time>2024-09-13T11:46:32.000Z</time>
      </trkpt>
      <trkpt lat="44.38356" lon="7.08871">
        <ele>2412.6000976562</ele>
        <time>2024-09-13T11:46:33.000Z</time>
      </trkpt>
      <trkpt lat="44.3836" lon="7.08876">
        <ele>2413.6000976562</ele>
        <time>2024-09-13T11:46:35.000Z</time>
      </trkpt>
      <trkpt lat="44.38361" lon="7.08877">
        <ele>2413.8000488281</ele>
        <time>2024-09-13T11:46:36.000Z</time>
      </trkpt>
      <trkpt lat="44.38364" lon="7.08882">
        <ele>2413.8000488281</ele>
        <time>2024-09-13T11:46:38.000Z</time>
      </trkpt>
      <trkpt lat="44.38366" lon="7.08884">
        <ele>2414</ele>
        <time>2024-09-13T11:46:39.000Z</time>
      </trkpt>
      <trkpt lat="44.38374" lon="7.08894">
        <ele>2414</ele>
        <time>2024-09-13T11:46:43.000Z</time>
      </trkpt>
      <trkpt lat="44.38376" lon="7.08896">
        <ele>2414</ele>
        <time>2024-09-13T11:46:44.000Z</time>
      </trkpt>
      <trkpt lat="44.38377" lon="7.08899">
        <ele>2414</ele>
        <time>2024-09-13T11:46:45.000Z</time>
      </trkpt>
      <trkpt lat="44.38379" lon="7.08902">
        <ele>2413.8000488281</ele>
        <time>2024-09-13T11:46:46.000Z</time>
      </trkpt>
      <trkpt lat="44.3838" lon="7.08905">
        <ele>2413.6000976562</ele>
        <time>2024-09-13T11:46:47.000Z</time>
      </trkpt>
      <trkpt lat="44.3838" lon="7.08909">
        <ele>2413.8000488281</ele>
        <time>2024-09-13T11:46:48.000Z</time>
      </trkpt>
      <trkpt lat="44.38381" lon="7.08912">
        <ele>2413.8000488281</ele>
        <time>2024-09-13T11:46:49.000Z</time>
      </trkpt>
      <trkpt lat="44.38381" lon="7.08916">
        <ele>2413.8000488281</ele>
        <time>2024-09-13T11:46:50.000Z</time>
      </trkpt>
      <trkpt lat="44.3838" lon="7.08919">
        <ele>2414</ele>
        <time>2024-09-13T11:46:51.000Z</time>
      </trkpt>
      <trkpt lat="44.3838" lon="7.08922">
        <ele>2414.1999511719</ele>
        <time>2024-09-13T11:46:52.000Z</time>
      </trkpt>
      <trkpt lat="44.38379" lon="7.08926">
        <ele>2414.1999511719</ele>
        <time>2024-09-13T11:46:53.000Z</time>
      </trkpt>
      <trkpt lat="44.38378" lon="7.08928">
        <ele>2414.3999023438</ele>
        <time>2024-09-13T11:46:54.000Z</time>
      </trkpt>
      <trkpt lat="44.38377" lon="7.08931">
        <ele>2414.3999023438</ele>
        <time>2024-09-13T11:46:55.000Z</time>
      </trkpt>
      <trkpt lat="44.38376" lon="7.08934">
        <ele>2414.6000976562</ele>
        <time>2024-09-13T11:46:56.000Z</time>
      </trkpt>
      <trkpt lat="44.38377" lon="7.08936">
        <ele>2414.6000976562</ele>
        <time>2024-09-13T11:46:57.000Z</time>
      </trkpt>
      <trkpt lat="44.38377" lon="7.08939">
        <ele>2414.3999023438</ele>
        <time>2024-09-13T11:46:58.000Z</time>
      </trkpt>
      <trkpt lat="44.38377" lon="7.08941">
        <ele>2414.3999023438</ele>
        <time>2024-09-13T11:46:59.000Z</time>
      </trkpt>
      <trkpt lat="44.38378" lon="7.08943">
        <ele>2414.6000976562</ele>
        <time>2024-09-13T11:47:00.000Z</time>
      </trkpt>
      <trkpt lat="44.3838" lon="7.08945">
        <ele>2414.6000976562</ele>
        <time>2024-09-13T11:47:01.000Z</time>
      </trkpt>
      <trkpt lat="44.38381" lon="7.08947">
        <ele>2415</ele>
        <time>2024-09-13T11:47:02.000Z</time>
      </trkpt>
      <trkpt lat="44.38383" lon="7.08948">
        <ele>2415.3999023438</ele>
        <time>2024-09-13T11:47:03.000Z</time>
      </trkpt>
      <trkpt lat="44.38385" lon="7.0895">
        <ele>2415.3999023438</ele>
        <time>2024-09-13T11:47:04.000Z</time>
      </trkpt>
      <trkpt lat="44.38387" lon="7.0895">
        <ele>2415.6000976562</ele>
        <time>2024-09-13T11:47:05.000Z</time>
      </trkpt>
      <trkpt lat="44.38389" lon="7.08951">
        <ele>2416</ele>
        <time>2024-09-13T11:47:06.000Z</time>
      </trkpt>
      <trkpt lat="44.38391" lon="7.08951">
        <ele>2417</ele>
        <time>2024-09-13T11:47:07.000Z</time>
      </trkpt>
      <trkpt lat="44.38393" lon="7.08951">
        <ele>2417.6000976562</ele>
        <time>2024-09-13T11:47:08.000Z</time>
      </trkpt>
      <trkpt lat="44.38395" lon="7.08951">
        <ele>2417.8000488281</ele>
        <time>2024-09-13T11:47:09.000Z</time>
      </trkpt>
      <trkpt lat="44.38397" lon="7.08951">
        <ele>2418</ele>
        <time>2024-09-13T11:47:10.000Z</time>
      </trkpt>
      <trkpt lat="44.38399" lon="7.08951">
        <ele>2418.1999511719</ele>
        <time>2024-09-13T11:47:11.000Z</time>
      </trkpt>
      <trkpt lat="44.38401" lon="7.08951">
        <ele>2418.1999511719</ele>
        <time>2024-09-13T11:47:12.000Z</time>
      </trkpt>
      <trkpt lat="44.38403" lon="7.08951">
        <ele>2418.1999511719</ele>
        <time>2024-09-13T11:47:13.000Z</time>
      </trkpt>
      <trkpt lat="44.38405" lon="7.08951">
        <ele>2418.1999511719</ele>
        <time>2024-09-13T11:47:14.000Z</time>
      </trkpt>
      <trkpt lat="44.38408" lon="7.0895">
        <ele>2418.1999511719</ele>
        <time>2024-09-13T11:47:15.000Z</time>
      </trkpt>
      <trkpt lat="44.38409" lon="7.08949">
        <ele>2418.3999023438</ele>
        <time>2024-09-13T11:47:16.000Z</time>
      </trkpt>
      <trkpt lat="44.38411" lon="7.08949">
        <ele>2418.3999023438</ele>
        <time>2024-09-13T11:47:17.000Z</time>
      </trkpt>
      <trkpt lat="44.38413" lon="7.08947">
        <ele>2418.1999511719</ele>
        <time>2024-09-13T11:47:18.000Z</time>
      </trkpt>
      <trkpt lat="44.38414" lon="7.08946">
        <ele>2418.1999511719</ele>
        <time>2024-09-13T11:47:19.000Z</time>
      </trkpt>
      <trkpt lat="44.38416" lon="7.08944">
        <ele>2418.1999511719</ele>
        <time>2024-09-13T11:47:20.000Z</time>
      </trkpt>
      <trkpt lat="44.38417" lon="7.08943">
        <ele>2418</ele>
        <time>2024-09-13T11:47:21.000Z</time>
      </trkpt>
      <trkpt lat="44.38418" lon="7.08941">
        <ele>2418</ele>
        <time>2024-09-13T11:47:22.000Z</time>
      </trkpt>
      <trkpt lat="44.38419" lon="7.08938">
        <ele>2418</ele>
        <time>2024-09-13T11:47:23.000Z</time>
      </trkpt>
      <trkpt lat="44.3842" lon="7.08936">
        <ele>2418</ele>
        <time>2024-09-13T11:47:24.000Z</time>
      </trkpt>
      <trkpt lat="44.38421" lon="7.08933">
        <ele>2418</ele>
        <time>2024-09-13T11:47:25.000Z</time>
      </trkpt>
      <trkpt lat="44.38422" lon="7.08931">
        <ele>2418</ele>
        <time>2024-09-13T11:47:26.000Z</time>
      </trkpt>
      <trkpt lat="44.38424" lon="7.08929">
        <ele>2418</ele>
        <time>2024-09-13T11:47:27.000Z</time>
      </trkpt>
      <trkpt lat="44.38425" lon="7.08927">
        <ele>2418</ele>
        <time>2024-09-13T11:47:28.000Z</time>
      </trkpt>
      <trkpt lat="44.38428" lon="7.08923">
        <ele>2418</ele>
        <time>2024-09-13T11:47:30.000Z</time>
      </trkpt>
      <trkpt lat="44.3843" lon="7.08921">
        <ele>2418</ele>
        <time>2024-09-13T11:47:31.000Z</time>
      </trkpt>
      <trkpt lat="44.38432" lon="7.0892">
        <ele>2418.1999511719</ele>
        <time>2024-09-13T11:47:32.000Z</time>
      </trkpt>
      <trkpt lat="44.38433" lon="7.08918">
        <ele>2418.3999023438</ele>
        <time>2024-09-13T11:47:33.000Z</time>
      </trkpt>
      <trkpt lat="44.38441" lon="7.08917">
        <ele>2418.8000488281</ele>
        <time>2024-09-13T11:47:37.000Z</time>
      </trkpt>
      <trkpt lat="44.38443" lon="7.08917">
        <ele>2418.8000488281</ele>
        <time>2024-09-13T11:47:38.000Z</time>
      </trkpt>
      <trkpt lat="44.38445" lon="7.08918">
        <ele>2418.8000488281</ele>
        <time>2024-09-13T11:47:39.000Z</time>
      </trkpt>
      <trkpt lat="44.38447" lon="7.0892">
        <ele>2418.8000488281</ele>
        <time>2024-09-13T11:47:40.000Z</time>
      </trkpt>
      <trkpt lat="44.38449" lon="7.08922">
        <ele>2418.6000976562</ele>
        <time>2024-09-13T11:47:41.000Z</time>
      </trkpt>
      <trkpt lat="44.3845" lon="7.08924">
        <ele>2418</ele>
        <time>2024-09-13T11:47:42.000Z</time>
      </trkpt>
      <trkpt lat="44.38451" lon="7.08927">
        <ele>2418</ele>
        <time>2024-09-13T11:47:43.000Z</time>
      </trkpt>
      <trkpt lat="44.38454" lon="7.08931">
        <ele>2418</ele>
        <time>2024-09-13T11:47:45.000Z</time>
      </trkpt>
      <trkpt lat="44.38455" lon="7.08934">
        <ele>2418</ele>
        <time>2024-09-13T11:47:46.000Z</time>
      </trkpt>
      <trkpt lat="44.38458" lon="7.08938">
        <ele>2418.1999511719</ele>
        <time>2024-09-13T11:47:48.000Z</time>
      </trkpt>
      <trkpt lat="44.38461" lon="7.08943">
        <ele>2418.6000976562</ele>
        <time>2024-09-13T11:47:50.000Z</time>
      </trkpt>
      <trkpt lat="44.38463" lon="7.08945">
        <ele>2418.6000976562</ele>
        <time>2024-09-13T11:47:51.000Z</time>
      </trkpt>
      <trkpt lat="44.38464" lon="7.08947">
        <ele>2418.6000976562</ele>
        <time>2024-09-13T11:47:52.000Z</time>
      </trkpt>
      <trkpt lat="44.38465" lon="7.08948">
        <ele>2418.6000976562</ele>
        <time>2024-09-13T11:47:53.000Z</time>
      </trkpt>
      <trkpt lat="44.38467" lon="7.08951">
        <ele>2418.8000488281</ele>
        <time>2024-09-13T11:47:54.000Z</time>
      </trkpt>
      <trkpt lat="44.38468" lon="7.08953">
        <ele>2419.1999511719</ele>
        <time>2024-09-13T11:47:55.000Z</time>
      </trkpt>
      <trkpt lat="44.3847" lon="7.08958">
        <ele>2419.1999511719</ele>
        <time>2024-09-13T11:47:57.000Z</time>
      </trkpt>
      <trkpt lat="44.38471" lon="7.0896">
        <ele>2419</ele>
        <time>2024-09-13T11:47:58.000Z</time>
      </trkpt>
      <trkpt lat="44.38472" lon="7.08963">
        <ele>2418.8000488281</ele>
        <time>2024-09-13T11:47:59.000Z</time>
      </trkpt>
      <trkpt lat="44.38473" lon="7.08966">
        <ele>2417.6000976562</ele>
        <time>2024-09-13T11:48:00.000Z</time>
      </trkpt>
      <trkpt lat="44.38473" lon="7.08968">
        <ele>2417.6000976562</ele>
        <time>2024-09-13T11:48:01.000Z</time>
      </trkpt>
      <trkpt lat="44.38474" lon="7.08971">
        <ele>2417.3999023438</ele>
        <time>2024-09-13T11:48:02.000Z</time>
      </trkpt>
      <trkpt lat="44.38475" lon="7.08973">
        <ele>2417.3999023438</ele>
        <time>2024-09-13T11:48:03.000Z</time>
      </trkpt>
      <trkpt lat="44.38476" lon="7.08976">
        <ele>2417.8000488281</ele>
        <time>2024-09-13T11:48:04.000Z</time>
      </trkpt>
      <trkpt lat="44.38476" lon="7.08978">
        <ele>2418</ele>
        <time>2024-09-13T11:48:05.000Z</time>
      </trkpt>
      <trkpt lat="44.38479" lon="7.08983">
        <ele>2419</ele>
        <time>2024-09-13T11:48:07.000Z</time>
      </trkpt>
      <trkpt lat="44.38481" lon="7.08988">
        <ele>2420</ele>
        <time>2024-09-13T11:48:09.000Z</time>
      </trkpt>
      <trkpt lat="44.38482" lon="7.0899">
        <ele>2420.1999511719</ele>
        <time>2024-09-13T11:48:10.000Z</time>
      </trkpt>
      <trkpt lat="44.38484" lon="7.08994">
        <ele>2420.6000976562</ele>
        <time>2024-09-13T11:48:12.000Z</time>
      </trkpt>
      <trkpt lat="44.38486" lon="7.08996">
        <ele>2421</ele>
        <time>2024-09-13T11:48:13.000Z</time>
      </trkpt>
      <trkpt lat="44.38487" lon="7.08997">
        <ele>2421.1999511719</ele>
        <time>2024-09-13T11:48:14.000Z</time>
      </trkpt>
      <trkpt lat="44.38491" lon="7.09003">
        <ele>2421.6000976562</ele>
        <time>2024-09-13T11:48:17.000Z</time>
      </trkpt>
      <trkpt lat="44.38492" lon="7.09005">
        <ele>2421.8000488281</ele>
        <time>2024-09-13T11:48:18.000Z</time>
      </trkpt>
      <trkpt lat="44.38494" lon="7.09007">
        <ele>2421.8000488281</ele>
        <time>2024-09-13T11:48:19.000Z</time>
      </trkpt>
      <trkpt lat="44.38495" lon="7.09008">
        <ele>2421.8000488281</ele>
        <time>2024-09-13T11:48:20.000Z</time>
      </trkpt>
      <trkpt lat="44.38497" lon="7.0901">
        <ele>2422</ele>
        <time>2024-09-13T11:48:21.000Z</time>
      </trkpt>
      <trkpt lat="44.38499" lon="7.09012">
        <ele>2422.1999511719</ele>
        <time>2024-09-13T11:48:22.000Z</time>
      </trkpt>
      <trkpt lat="44.385" lon="7.09014">
        <ele>2422.3999023438</ele>
        <time>2024-09-13T11:48:23.000Z</time>
      </trkpt>
      <trkpt lat="44.38502" lon="7.09016">
        <ele>2423</ele>
        <time>2024-09-13T11:48:24.000Z</time>
      </trkpt>
      <trkpt lat="44.38503" lon="7.09018">
        <ele>2423</ele>
        <time>2024-09-13T11:48:25.000Z</time>
      </trkpt>
      <trkpt lat="44.38505" lon="7.0902">
        <ele>2423</ele>
        <time>2024-09-13T11:48:26.000Z</time>
      </trkpt>
      <trkpt lat="44.38506" lon="7.09022">
        <ele>2423</ele>
        <time>2024-09-13T11:48:27.000Z</time>
      </trkpt>
      <trkpt lat="44.38508" lon="7.09024">
        <ele>2423.1999511719</ele>
        <time>2024-09-13T11:48:28.000Z</time>
      </trkpt>
      <trkpt lat="44.38509" lon="7.09025">
        <ele>2423</ele>
        <time>2024-09-13T11:48:29.000Z</time>
      </trkpt>
      <trkpt lat="44.3851" lon="7.09028">
        <ele>2423</ele>
        <time>2024-09-13T11:48:30.000Z</time>
      </trkpt>
      <trkpt lat="44.38511" lon="7.09029">
        <ele>2423.1999511719</ele>
        <time>2024-09-13T11:48:31.000Z</time>
      </trkpt>
      <trkpt lat="44.38513" lon="7.0903">
        <ele>2423.1999511719</ele>
        <time>2024-09-13T11:48:32.000Z</time>
      </trkpt>
      <trkpt lat="44.38515" lon="7.09032">
        <ele>2423.1999511719</ele>
        <time>2024-09-13T11:48:33.000Z</time>
      </trkpt>
      <trkpt lat="44.38516" lon="7.09033">
        <ele>2423.6000976562</ele>
        <time>2024-09-13T11:48:34.000Z</time>
      </trkpt>
      <trkpt lat="44.38519" lon="7.09034">
        <ele>2423.6000976562</ele>
        <time>2024-09-13T11:48:35.000Z</time>
      </trkpt>
      <trkpt lat="44.3852" lon="7.09034">
        <ele>2423.6000976562</ele>
        <time>2024-09-13T11:48:36.000Z</time>
      </trkpt>
      <trkpt lat="44.38522" lon="7.09035">
        <ele>2423.6000976562</ele>
        <time>2024-09-13T11:48:37.000Z</time>
      </trkpt>
      <trkpt lat="44.38525" lon="7.09035">
        <ele>2423.6000976562</ele>
        <time>2024-09-13T11:48:38.000Z</time>
      </trkpt>
      <trkpt lat="44.38527" lon="7.09036">
        <ele>2423.6000976562</ele>
        <time>2024-09-13T11:48:39.000Z</time>
      </trkpt>
      <trkpt lat="44.38529" lon="7.09036">
        <ele>2423.6000976562</ele>
        <time>2024-09-13T11:48:40.000Z</time>
      </trkpt>
      <trkpt lat="44.38531" lon="7.09036">
        <ele>2423.8000488281</ele>
        <time>2024-09-13T11:48:41.000Z</time>
      </trkpt>
      <trkpt lat="44.38534" lon="7.09036">
        <ele>2424</ele>
        <time>2024-09-13T11:48:42.000Z</time>
      </trkpt>
      <trkpt lat="44.38536" lon="7.09037">
        <ele>2424</ele>
        <time>2024-09-13T11:48:43.000Z</time>
      </trkpt>
      <trkpt lat="44.38538" lon="7.09037">
        <ele>2424</ele>
        <time>2024-09-13T11:48:44.000Z</time>
      </trkpt>
      <trkpt lat="44.3854" lon="7.09038">
        <ele>2424</ele>
        <time>2024-09-13T11:48:45.000Z</time>
      </trkpt>
      <trkpt lat="44.38542" lon="7.09038">
        <ele>2424</ele>
        <time>2024-09-13T11:48:46.000Z</time>
      </trkpt>
      <trkpt lat="44.38544" lon="7.09038">
        <ele>2423.8000488281</ele>
        <time>2024-09-13T11:48:47.000Z</time>
      </trkpt>
      <trkpt lat="44.38546" lon="7.09039">
        <ele>2423.8000488281</ele>
        <time>2024-09-13T11:48:48.000Z</time>
      </trkpt>
      <trkpt lat="44.38548" lon="7.09039">
        <ele>2423.8000488281</ele>
        <time>2024-09-13T11:48:49.000Z</time>
      </trkpt>
      <trkpt lat="44.38549" lon="7.0904">
        <ele>2423.8000488281</ele>
        <time>2024-09-13T11:48:50.000Z</time>
      </trkpt>
      <trkpt lat="44.3856" lon="7.09045">
        <ele>2424.1999511719</ele>
        <time>2024-09-13T11:48:55.000Z</time>
      </trkpt>
      <trkpt lat="44.38564" lon="7.09049">
        <ele>2424.1999511719</ele>
        <time>2024-09-13T11:48:57.000Z</time>
      </trkpt>
      <trkpt lat="44.38568" lon="7.09054">
        <ele>2424</ele>
        <time>2024-09-13T11:48:59.000Z</time>
      </trkpt>
      <trkpt lat="44.38572" lon="7.09059">
        <ele>2424</ele>
        <time>2024-09-13T11:49:01.000Z</time>
      </trkpt>
      <trkpt lat="44.38574" lon="7.09061">
        <ele>2424</ele>
        <time>2024-09-13T11:49:02.000Z</time>
      </trkpt>
      <trkpt lat="44.38576" lon="7.09064">
        <ele>2424</ele>
        <time>2024-09-13T11:49:03.000Z</time>
      </trkpt>
      <trkpt lat="44.3858" lon="7.09081">
        <ele>2424</ele>
        <time>2024-09-13T11:49:08.000Z</time>
      </trkpt>
      <trkpt lat="44.3858" lon="7.09084">
        <ele>2424.1999511719</ele>
        <time>2024-09-13T11:49:09.000Z</time>
      </trkpt>
      <trkpt lat="44.38581" lon="7.09088">
        <ele>2424.3999023438</ele>
        <time>2024-09-13T11:49:10.000Z</time>
      </trkpt>
      <trkpt lat="44.38581" lon="7.09091">
        <ele>2424.6000976562</ele>
        <time>2024-09-13T11:49:11.000Z</time>
      </trkpt>
      <trkpt lat="44.38581" lon="7.09095">
        <ele>2424.8000488281</ele>
        <time>2024-09-13T11:49:12.000Z</time>
      </trkpt>
      <trkpt lat="44.38581" lon="7.09098">
        <ele>2425.1999511719</ele>
        <time>2024-09-13T11:49:13.000Z</time>
      </trkpt>
      <trkpt lat="44.38582" lon="7.09101">
        <ele>2426</ele>
        <time>2024-09-13T11:49:14.000Z</time>
      </trkpt>
      <trkpt lat="44.38583" lon="7.09107">
        <ele>2426</ele>
        <time>2024-09-13T11:49:16.000Z</time>
      </trkpt>
      <trkpt lat="44.38584" lon="7.0911">
        <ele>2426</ele>
        <time>2024-09-13T11:49:17.000Z</time>
      </trkpt>
      <trkpt lat="44.38585" lon="7.09113">
        <ele>2426</ele>
        <time>2024-09-13T11:49:18.000Z</time>
      </trkpt>
      <trkpt lat="44.38586" lon="7.09116">
        <ele>2425.8000488281</ele>
        <time>2024-09-13T11:49:19.000Z</time>
      </trkpt>
      <trkpt lat="44.38588" lon="7.09122">
        <ele>2425.6000976562</ele>
        <time>2024-09-13T11:49:21.000Z</time>
      </trkpt>
      <trkpt lat="44.3859" lon="7.0913">
        <ele>2425.3999023438</ele>
        <time>2024-09-13T11:49:24.000Z</time>
      </trkpt>
      <trkpt lat="44.38591" lon="7.09133">
        <ele>2425.3999023438</ele>
        <time>2024-09-13T11:49:25.000Z</time>
      </trkpt>
      <trkpt lat="44.38592" lon="7.0914">
        <ele>2425.3999023438</ele>
        <time>2024-09-13T11:49:27.000Z</time>
      </trkpt>
      <trkpt lat="44.38593" lon="7.09151">
        <ele>2425.6000976562</ele>
        <time>2024-09-13T11:49:30.000Z</time>
      </trkpt>
      <trkpt lat="44.38594" lon="7.09155">
        <ele>2425.6000976562</ele>
        <time>2024-09-13T11:49:31.000Z</time>
      </trkpt>
      <trkpt lat="44.38595" lon="7.09158">
        <ele>2425.6000976562</ele>
        <time>2024-09-13T11:49:32.000Z</time>
      </trkpt>
      <trkpt lat="44.38595" lon="7.09165">
        <ele>2425.8000488281</ele>
        <time>2024-09-13T11:49:34.000Z</time>
      </trkpt>
      <trkpt lat="44.38595" lon="7.09169">
        <ele>2425.8000488281</ele>
        <time>2024-09-13T11:49:35.000Z</time>
      </trkpt>
      <trkpt lat="44.38596" lon="7.09172">
        <ele>2425.8000488281</ele>
        <time>2024-09-13T11:49:36.000Z</time>
      </trkpt>
      <trkpt lat="44.38599" lon="7.09185">
        <ele>2426</ele>
        <time>2024-09-13T11:49:40.000Z</time>
      </trkpt>
      <trkpt lat="44.386" lon="7.09192">
        <ele>2426</ele>
        <time>2024-09-13T11:49:42.000Z</time>
      </trkpt>
      <trkpt lat="44.38602" lon="7.09199">
        <ele>2426.3999023438</ele>
        <time>2024-09-13T11:49:44.000Z</time>
      </trkpt>
      <trkpt lat="44.38605" lon="7.09205">
        <ele>2426.6000976562</ele>
        <time>2024-09-13T11:49:46.000Z</time>
      </trkpt>
      <trkpt lat="44.38606" lon="7.09208">
        <ele>2426.6000976562</ele>
        <time>2024-09-13T11:49:47.000Z</time>
      </trkpt>
      <trkpt lat="44.38607" lon="7.09211">
        <ele>2426.8000488281</ele>
        <time>2024-09-13T11:49:48.000Z</time>
      </trkpt>
      <trkpt lat="44.38608" lon="7.09214">
        <ele>2427.1999511719</ele>
        <time>2024-09-13T11:49:49.000Z</time>
      </trkpt>
      <trkpt lat="44.38611" lon="7.09221">
        <ele>2427.6000976562</ele>
        <time>2024-09-13T11:49:51.000Z</time>
      </trkpt>
      <trkpt lat="44.38611" lon="7.09224">
        <ele>2427.8000488281</ele>
        <time>2024-09-13T11:49:52.000Z</time>
      </trkpt>
      <trkpt lat="44.38611" lon="7.09227">
        <ele>2428</ele>
        <time>2024-09-13T11:49:53.000Z</time>
      </trkpt>
      <trkpt lat="44.38611" lon="7.0923">
        <ele>2428.3999023438</ele>
        <time>2024-09-13T11:49:54.000Z</time>
      </trkpt>
      <trkpt lat="44.38611" lon="7.09233">
        <ele>2428.8000488281</ele>
        <time>2024-09-13T11:49:55.000Z</time>
      </trkpt>
      <trkpt lat="44.3861" lon="7.09235">
        <ele>2428.8000488281</ele>
        <time>2024-09-13T11:49:56.000Z</time>
      </trkpt>
      <trkpt lat="44.3861" lon="7.09237">
        <ele>2428.8000488281</ele>
        <time>2024-09-13T11:49:57.000Z</time>
      </trkpt>
      <trkpt lat="44.38609" lon="7.0924">
        <ele>2429</ele>
        <time>2024-09-13T11:49:58.000Z</time>
      </trkpt>
      <trkpt lat="44.38608" lon="7.09242">
        <ele>2428.8000488281</ele>
        <time>2024-09-13T11:49:59.000Z</time>
      </trkpt>
      <trkpt lat="44.38607" lon="7.09245">
        <ele>2428.8000488281</ele>
        <time>2024-09-13T11:50:00.000Z</time>
      </trkpt>
      <trkpt lat="44.38605" lon="7.09248">
        <ele>2428.6000976562</ele>
        <time>2024-09-13T11:50:01.000Z</time>
      </trkpt>
      <trkpt lat="44.38604" lon="7.09251">
        <ele>2428</ele>
        <time>2024-09-13T11:50:02.000Z</time>
      </trkpt>
      <trkpt lat="44.38603" lon="7.09253">
        <ele>2427.1999511719</ele>
        <time>2024-09-13T11:50:03.000Z</time>
      </trkpt>
      <trkpt lat="44.38602" lon="7.09256">
        <ele>2427</ele>
        <time>2024-09-13T11:50:04.000Z</time>
      </trkpt>
      <trkpt lat="44.38597" lon="7.09264">
        <ele>2426.8000488281</ele>
        <time>2024-09-13T11:50:07.000Z</time>
      </trkpt>
      <trkpt lat="44.38594" lon="7.09266">
        <ele>2426.8000488281</ele>
        <time>2024-09-13T11:50:08.000Z</time>
      </trkpt>
      <trkpt lat="44.38586" lon="7.09269">
        <ele>2426.3999023438</ele>
        <time>2024-09-13T11:50:10.000Z</time>
      </trkpt>
      <trkpt lat="44.38581" lon="7.09271">
        <ele>2425.8000488281</ele>
        <time>2024-09-13T11:50:11.000Z</time>
      </trkpt>
      <trkpt lat="44.38578" lon="7.09275">
        <ele>2425.6000976562</ele>
        <time>2024-09-13T11:50:12.000Z</time>
      </trkpt>
      <trkpt lat="44.3857" lon="7.09285">
        <ele>2423.8000488281</ele>
        <time>2024-09-13T11:50:14.000Z</time>
      </trkpt>
      <trkpt lat="44.38565" lon="7.0929">
        <ele>2422.1999511719</ele>
        <time>2024-09-13T11:50:15.000Z</time>
      </trkpt>
      <trkpt lat="44.3856" lon="7.09295">
        <ele>2419.1999511719</ele>
        <time>2024-09-13T11:50:16.000Z</time>
      </trkpt>
      <trkpt lat="44.38556" lon="7.09302">
        <ele>2418</ele>
        <time>2024-09-13T11:50:17.000Z</time>
      </trkpt>
      <trkpt lat="44.38552" lon="7.09307">
        <ele>2417</ele>
        <time>2024-09-13T11:50:18.000Z</time>
      </trkpt>
      <trkpt lat="44.38547" lon="7.0931">
        <ele>2416.8000488281</ele>
        <time>2024-09-13T11:50:19.000Z</time>
      </trkpt>
      <trkpt lat="44.38542" lon="7.09315">
        <ele>2416</ele>
        <time>2024-09-13T11:50:20.000Z</time>
      </trkpt>
      <trkpt lat="44.38539" lon="7.09321">
        <ele>2415</ele>
        <time>2024-09-13T11:50:21.000Z</time>
      </trkpt>
      <trkpt lat="44.38535" lon="7.09327">
        <ele>2414.3999023438</ele>
        <time>2024-09-13T11:50:22.000Z</time>
      </trkpt>
      <trkpt lat="44.38531" lon="7.09333">
        <ele>2413.1999511719</ele>
        <time>2024-09-13T11:50:23.000Z</time>
      </trkpt>
      <trkpt lat="44.3852" lon="7.09344">
        <ele>2412.3999023438</ele>
        <time>2024-09-13T11:50:25.000Z</time>
      </trkpt>
      <trkpt lat="44.38515" lon="7.09348">
        <ele>2411.8000488281</ele>
        <time>2024-09-13T11:50:26.000Z</time>
      </trkpt>
      <trkpt lat="44.38512" lon="7.09353">
        <ele>2411.6000976562</ele>
        <time>2024-09-13T11:50:27.000Z</time>
      </trkpt>
      <trkpt lat="44.38508" lon="7.09354">
        <ele>2411.6000976562</ele>
        <time>2024-09-13T11:50:28.000Z</time>
      </trkpt>
      <trkpt lat="44.38506" lon="7.09355">
        <ele>2411.3999023438</ele>
        <time>2024-09-13T11:50:29.000Z</time>
      </trkpt>
      <trkpt lat="44.38507" lon="7.09356">
        <ele>2411.3999023438</ele>
        <time>2024-09-13T11:50:30.000Z</time>
      </trkpt>
      <trkpt lat="44.38507" lon="7.09356">
        <ele>2411.3999023438</ele>
        <time>2024-09-13T11:50:31.000Z</time>
      </trkpt>
      <trkpt lat="44.38509" lon="7.09355">
        <ele>2411.3999023438</ele>
        <time>2024-09-13T11:50:32.000Z</time>
      </trkpt>
      <trkpt lat="44.38509" lon="7.09354">
        <ele>2411.3999023438</ele>
        <time>2024-09-13T11:50:33.000Z</time>
      </trkpt>
      <trkpt lat="44.3851" lon="7.09353">
        <ele>2411.3999023438</ele>
        <time>2024-09-13T11:50:34.000Z</time>
      </trkpt>
      <trkpt lat="44.38511" lon="7.09353">
        <ele>2411.3999023438</ele>
        <time>2024-09-13T11:50:35.000Z</time>
      </trkpt>
      <trkpt lat="44.38511" lon="7.09352">
        <ele>2411.3999023438</ele>
        <time>2024-09-13T11:50:36.000Z</time>
      </trkpt>
      <trkpt lat="44.38511" lon="7.09352">
        <ele>2411.6000976562</ele>
        <time>2024-09-13T11:50:37.000Z</time>
      </trkpt>
      <trkpt lat="44.38511" lon="7.09351">
        <ele>2412</ele>
        <time>2024-09-13T11:50:39.000Z</time>
      </trkpt>
      <trkpt lat="44.38511" lon="7.09351">
        <ele>2412</ele>
        <time>2024-09-13T11:50:40.000Z</time>
      </trkpt>
      <trkpt lat="44.38511" lon="7.09351">
        <ele>2412</ele>
        <time>2024-09-13T11:50:41.000Z</time>
      </trkpt>
      <trkpt lat="44.38511" lon="7.09351">
        <ele>2412</ele>
        <time>2024-09-13T11:50:44.000Z</time>
      </trkpt>
      <trkpt lat="44.38511" lon="7.09352">
        <ele>2412</ele>
        <time>2024-09-13T11:50:48.000Z</time>
      </trkpt>
      <trkpt lat="44.38512" lon="7.09351">
        <ele>2411.8000488281</ele>
        <time>2024-09-13T11:50:49.000Z</time>
      </trkpt>
      <trkpt lat="44.38512" lon="7.09352">
        <ele>2411.8000488281</ele>
        <time>2024-09-13T11:50:50.000Z</time>
      </trkpt>
      <trkpt lat="44.38511" lon="7.09352">
        <ele>2411.8000488281</ele>
        <time>2024-09-13T11:50:51.000Z</time>
      </trkpt>
      <trkpt lat="44.38511" lon="7.0935">
        <ele>2411.8000488281</ele>
        <time>2024-09-13T11:50:52.000Z</time>
      </trkpt>
      <trkpt lat="44.38511" lon="7.0935">
        <ele>2411.8000488281</ele>
        <time>2024-09-13T11:50:53.000Z</time>
      </trkpt>
      <trkpt lat="44.38511" lon="7.09349">
        <ele>2411.8000488281</ele>
        <time>2024-09-13T11:50:54.000Z</time>
      </trkpt>
      <trkpt lat="44.38511" lon="7.09349">
        <ele>2411.8000488281</ele>
        <time>2024-09-13T11:50:55.000Z</time>
      </trkpt>
      <trkpt lat="44.38511" lon="7.09349">
        <ele>2411.6000976562</ele>
        <time>2024-09-13T11:50:56.000Z</time>
      </trkpt>
      <trkpt lat="44.38512" lon="7.09348">
        <ele>2411.3999023438</ele>
        <time>2024-09-13T11:50:59.000Z</time>
      </trkpt>
      <trkpt lat="44.38512" lon="7.09348">
        <ele>2411.1999511719</ele>
        <time>2024-09-13T11:51:00.000Z</time>
      </trkpt>
      <trkpt lat="44.38514" lon="7.09347">
        <ele>2411</ele>
        <time>2024-09-13T11:51:02.000Z</time>
      </trkpt>
      <trkpt lat="44.38514" lon="7.09347">
        <ele>2411</ele>
        <time>2024-09-13T11:51:03.000Z</time>
      </trkpt>
      <trkpt lat="44.38513" lon="7.09348">
        <ele>2411.1999511719</ele>
        <time>2024-09-13T11:51:06.000Z</time>
      </trkpt>
      <trkpt lat="44.38512" lon="7.09349">
        <ele>2411.1999511719</ele>
        <time>2024-09-13T11:51:07.000Z</time>
      </trkpt>
      <trkpt lat="44.38511" lon="7.09349">
        <ele>2411.1999511719</ele>
        <time>2024-09-13T11:51:08.000Z</time>
      </trkpt>
      <trkpt lat="44.38511" lon="7.09351">
        <ele>2411</ele>
        <time>2024-09-13T11:51:09.000Z</time>
      </trkpt>
      <trkpt lat="44.38511" lon="7.09351">
        <ele>2410.8000488281</ele>
        <time>2024-09-13T11:51:10.000Z</time>
      </trkpt>
      <trkpt lat="44.3851" lon="7.09352">
        <ele>2410.8000488281</ele>
        <time>2024-09-13T11:51:12.000Z</time>
      </trkpt>
      <trkpt lat="44.38515" lon="7.09353">
        <ele>2410.8000488281</ele>
        <time>2024-09-13T11:51:18.000Z</time>
      </trkpt>
      <trkpt lat="44.38515" lon="7.09353">
        <ele>2411</ele>
        <time>2024-09-13T11:51:19.000Z</time>
      </trkpt>
      <trkpt lat="44.38515" lon="7.09353">
        <ele>2411</ele>
        <time>2024-09-13T11:51:20.000Z</time>
      </trkpt>
      <trkpt lat="44.38515" lon="7.09352">
        <ele>2411.8000488281</ele>
        <time>2024-09-13T11:51:21.000Z</time>
      </trkpt>
      <trkpt lat="44.38515" lon="7.09352">
        <ele>2412</ele>
        <time>2024-09-13T11:51:22.000Z</time>
      </trkpt>
      <trkpt lat="44.38515" lon="7.09352">
        <ele>2412</ele>
        <time>2024-09-13T11:51:24.000Z</time>
      </trkpt>
      <trkpt lat="44.38515" lon="7.09352">
        <ele>2411</ele>
        <time>2024-09-13T11:51:33.000Z</time>
      </trkpt>
      <trkpt lat="44.38514" lon="7.09352">
        <ele>2410.3999023438</ele>
        <time>2024-09-13T11:51:36.000Z</time>
      </trkpt>
      <trkpt lat="44.38512" lon="7.09351">
        <ele>2410.1999511719</ele>
        <time>2024-09-13T11:51:38.000Z</time>
      </trkpt>
      <trkpt lat="44.3851" lon="7.09352">
        <ele>2410</ele>
        <time>2024-09-13T11:51:40.000Z</time>
      </trkpt>
      <trkpt lat="44.38509" lon="7.09353">
        <ele>2409.8000488281</ele>
        <time>2024-09-13T11:51:41.000Z</time>
      </trkpt>
      <trkpt lat="44.38508" lon="7.09354">
        <ele>2409.6000976562</ele>
        <time>2024-09-13T11:51:42.000Z</time>
      </trkpt>
      <trkpt lat="44.38508" lon="7.09354">
        <ele>2409.1999511719</ele>
        <time>2024-09-13T11:51:43.000Z</time>
      </trkpt>
      <trkpt lat="44.38507" lon="7.09355">
        <ele>2408.8000488281</ele>
        <time>2024-09-13T11:51:44.000Z</time>
      </trkpt>
      <trkpt lat="44.38507" lon="7.09357">
        <ele>2408.6000976562</ele>
        <time>2024-09-13T11:51:45.000Z</time>
      </trkpt>
      <trkpt lat="44.38506" lon="7.09359">
        <ele>2408.6000976562</ele>
        <time>2024-09-13T11:51:46.000Z</time>
      </trkpt>
      <trkpt lat="44.38505" lon="7.09362">
        <ele>2408.3999023438</ele>
        <time>2024-09-13T11:51:47.000Z</time>
      </trkpt>
      <trkpt lat="44.38499" lon="7.09373">
        <ele>2407.8000488281</ele>
        <time>2024-09-13T11:51:50.000Z</time>
      </trkpt>
      <trkpt lat="44.38495" lon="7.09377">
        <ele>2407.3999023438</ele>
        <time>2024-09-13T11:51:51.000Z</time>
      </trkpt>
      <trkpt lat="44.38493" lon="7.09383">
        <ele>2407</ele>
        <time>2024-09-13T11:51:52.000Z</time>
      </trkpt>
      <trkpt lat="44.38491" lon="7.09398">
        <ele>2406.6000976562</ele>
        <time>2024-09-13T11:51:54.000Z</time>
      </trkpt>
      <trkpt lat="44.38492" lon="7.09405">
        <ele>2406</ele>
        <time>2024-09-13T11:51:55.000Z</time>
      </trkpt>
      <trkpt lat="44.38493" lon="7.09413">
        <ele>2405.3999023438</ele>
        <time>2024-09-13T11:51:56.000Z</time>
      </trkpt>
      <trkpt lat="44.38494" lon="7.0942">
        <ele>2404.6000976562</ele>
        <time>2024-09-13T11:51:57.000Z</time>
      </trkpt>
      <trkpt lat="44.38495" lon="7.09429">
        <ele>2404</ele>
        <time>2024-09-13T11:51:58.000Z</time>
      </trkpt>
      <trkpt lat="44.38495" lon="7.09436">
        <ele>2403.8000488281</ele>
        <time>2024-09-13T11:51:59.000Z</time>
      </trkpt>
      <trkpt lat="44.38495" lon="7.09453">
        <ele>2402.8000488281</ele>
        <time>2024-09-13T11:52:01.000Z</time>
      </trkpt>
      <trkpt lat="44.3849" lon="7.09471">
        <ele>2402.6000976562</ele>
        <time>2024-09-13T11:52:03.000Z</time>
      </trkpt>
      <trkpt lat="44.38468" lon="7.09524">
        <ele>2402.6000976562</ele>
        <time>2024-09-13T11:52:09.000Z</time>
      </trkpt>
      <trkpt lat="44.38464" lon="7.09534">
        <ele>2402.3999023438</ele>
        <time>2024-09-13T11:52:10.000Z</time>
      </trkpt>
      <trkpt lat="44.38463" lon="7.09555">
        <ele>2402</ele>
        <time>2024-09-13T11:52:12.000Z</time>
      </trkpt>
      <trkpt lat="44.38466" lon="7.09565">
        <ele>2401.8000488281</ele>
        <time>2024-09-13T11:52:13.000Z</time>
      </trkpt>
      <trkpt lat="44.38469" lon="7.09576">
        <ele>2401.8000488281</ele>
        <time>2024-09-13T11:52:14.000Z</time>
      </trkpt>
      <trkpt lat="44.3847" lon="7.09587">
        <ele>2401.6000976562</ele>
        <time>2024-09-13T11:52:15.000Z</time>
      </trkpt>
      <trkpt lat="44.38469" lon="7.09598">
        <ele>2401.3999023438</ele>
        <time>2024-09-13T11:52:16.000Z</time>
      </trkpt>
      <trkpt lat="44.38468" lon="7.09609">
        <ele>2401</ele>
        <time>2024-09-13T11:52:17.000Z</time>
      </trkpt>
      <trkpt lat="44.38466" lon="7.09619">
        <ele>2400.8000488281</ele>
        <time>2024-09-13T11:52:18.000Z</time>
      </trkpt>
      <trkpt lat="44.38462" lon="7.09628">
        <ele>2400.8000488281</ele>
        <time>2024-09-13T11:52:19.000Z</time>
      </trkpt>
      <trkpt lat="44.38458" lon="7.09635">
        <ele>2400.8000488281</ele>
        <time>2024-09-13T11:52:20.000Z</time>
      </trkpt>
      <trkpt lat="44.38453" lon="7.09641">
        <ele>2400.8000488281</ele>
        <time>2024-09-13T11:52:21.000Z</time>
      </trkpt>
      <trkpt lat="44.38449" lon="7.09647">
        <ele>2401</ele>
        <time>2024-09-13T11:52:22.000Z</time>
      </trkpt>
      <trkpt lat="44.38445" lon="7.09652">
        <ele>2401.1999511719</ele>
        <time>2024-09-13T11:52:23.000Z</time>
      </trkpt>
      <trkpt lat="44.38441" lon="7.09657">
        <ele>2401.6000976562</ele>
        <time>2024-09-13T11:52:24.000Z</time>
      </trkpt>
      <trkpt lat="44.38439" lon="7.09662">
        <ele>2402.1999511719</ele>
        <time>2024-09-13T11:52:25.000Z</time>
      </trkpt>
      <trkpt lat="44.38439" lon="7.09668">
        <ele>2402.6000976562</ele>
        <time>2024-09-13T11:52:26.000Z</time>
      </trkpt>
      <trkpt lat="44.3844" lon="7.09673">
        <ele>2402.8000488281</ele>
        <time>2024-09-13T11:52:27.000Z</time>
      </trkpt>
      <trkpt lat="44.38442" lon="7.09676">
        <ele>2403</ele>
        <time>2024-09-13T11:52:28.000Z</time>
      </trkpt>
      <trkpt lat="44.38445" lon="7.09679">
        <ele>2403.6000976562</ele>
        <time>2024-09-13T11:52:29.000Z</time>
      </trkpt>
      <trkpt lat="44.38448" lon="7.09683">
        <ele>2405</ele>
        <time>2024-09-13T11:52:30.000Z</time>
      </trkpt>
      <trkpt lat="44.38449" lon="7.09687">
        <ele>2405</ele>
        <time>2024-09-13T11:52:31.000Z</time>
      </trkpt>
      <trkpt lat="44.3845" lon="7.09691">
        <ele>2405</ele>
        <time>2024-09-13T11:52:32.000Z</time>
      </trkpt>
      <trkpt lat="44.3845" lon="7.09696">
        <ele>2405</ele>
        <time>2024-09-13T11:52:33.000Z</time>
      </trkpt>
      <trkpt lat="44.38449" lon="7.097">
        <ele>2404.3999023438</ele>
        <time>2024-09-13T11:52:34.000Z</time>
      </trkpt>
      <trkpt lat="44.38449" lon="7.09704">
        <ele>2403.1999511719</ele>
        <time>2024-09-13T11:52:35.000Z</time>
      </trkpt>
      <trkpt lat="44.38451" lon="7.09719">
        <ele>2403.1999511719</ele>
        <time>2024-09-13T11:52:38.000Z</time>
      </trkpt>
      <trkpt lat="44.38451" lon="7.09725">
        <ele>2403.1999511719</ele>
        <time>2024-09-13T11:52:39.000Z</time>
      </trkpt>
      <trkpt lat="44.38449" lon="7.09737">
        <ele>2403.1999511719</ele>
        <time>2024-09-13T11:52:41.000Z</time>
      </trkpt>
      <trkpt lat="44.38447" lon="7.09743">
        <ele>2402.6000976562</ele>
        <time>2024-09-13T11:52:42.000Z</time>
      </trkpt>
      <trkpt lat="44.38446" lon="7.09749">
        <ele>2402.3999023438</ele>
        <time>2024-09-13T11:52:43.000Z</time>
      </trkpt>
      <trkpt lat="44.38444" lon="7.09755">
        <ele>2402.1999511719</ele>
        <time>2024-09-13T11:52:44.000Z</time>
      </trkpt>
      <trkpt lat="44.38438" lon="7.09767">
        <ele>2401.1999511719</ele>
        <time>2024-09-13T11:52:46.000Z</time>
      </trkpt>
      <trkpt lat="44.38434" lon="7.09772">
        <ele>2400.8000488281</ele>
        <time>2024-09-13T11:52:47.000Z</time>
      </trkpt>
      <trkpt lat="44.38427" lon="7.09783">
        <ele>2399.8000488281</ele>
        <time>2024-09-13T11:52:49.000Z</time>
      </trkpt>
      <trkpt lat="44.38417" lon="7.09802">
        <ele>2398.1999511719</ele>
        <time>2024-09-13T11:52:52.000Z</time>
      </trkpt>
      <trkpt lat="44.38411" lon="7.09816">
        <ele>2397.3999023438</ele>
        <time>2024-09-13T11:52:54.000Z</time>
      </trkpt>
      <trkpt lat="44.38408" lon="7.09823">
        <ele>2396.3999023438</ele>
        <time>2024-09-13T11:52:55.000Z</time>
      </trkpt>
      <trkpt lat="44.38401" lon="7.09838">
        <ele>2394.6000976562</ele>
        <time>2024-09-13T11:52:57.000Z</time>
      </trkpt>
      <trkpt lat="44.38394" lon="7.09852">
        <ele>2394</ele>
        <time>2024-09-13T11:52:59.000Z</time>
      </trkpt>
      <trkpt lat="44.38386" lon="7.09866">
        <ele>2393.3999023438</ele>
        <time>2024-09-13T11:53:01.000Z</time>
      </trkpt>
      <trkpt lat="44.38383" lon="7.09872">
        <ele>2393</ele>
        <time>2024-09-13T11:53:02.000Z</time>
      </trkpt>
      <trkpt lat="44.38374" lon="7.09894">
        <ele>2392</ele>
        <time>2024-09-13T11:53:05.000Z</time>
      </trkpt>
      <trkpt lat="44.38367" lon="7.09909">
        <ele>2391</ele>
        <time>2024-09-13T11:53:07.000Z</time>
      </trkpt>
      <trkpt lat="44.38357" lon="7.09935">
        <ele>2389.3999023438</ele>
        <time>2024-09-13T11:53:10.000Z</time>
      </trkpt>
      <trkpt lat="44.38348" lon="7.09953">
        <ele>2388.8000488281</ele>
        <time>2024-09-13T11:53:12.000Z</time>
      </trkpt>
      <trkpt lat="44.38341" lon="7.0996">
        <ele>2388.8000488281</ele>
        <time>2024-09-13T11:53:13.000Z</time>
      </trkpt>
      <trkpt lat="44.38333" lon="7.09962">
        <ele>2389</ele>
        <time>2024-09-13T11:53:14.000Z</time>
      </trkpt>
      <trkpt lat="44.38325" lon="7.09962">
        <ele>2388.6000976562</ele>
        <time>2024-09-13T11:53:15.000Z</time>
      </trkpt>
      <trkpt lat="44.38318" lon="7.09962">
        <ele>2388.3999023438</ele>
        <time>2024-09-13T11:53:16.000Z</time>
      </trkpt>
      <trkpt lat="44.38312" lon="7.09962">
        <ele>2388.8000488281</ele>
        <time>2024-09-13T11:53:17.000Z</time>
      </trkpt>
      <trkpt lat="44.38306" lon="7.09964">
        <ele>2389.1999511719</ele>
        <time>2024-09-13T11:53:18.000Z</time>
      </trkpt>
      <trkpt lat="44.38301" lon="7.09965">
        <ele>2389.3999023438</ele>
        <time>2024-09-13T11:53:19.000Z</time>
      </trkpt>
      <trkpt lat="44.38295" lon="7.09966">
        <ele>2389.3999023438</ele>
        <time>2024-09-13T11:53:20.000Z</time>
      </trkpt>
      <trkpt lat="44.3829" lon="7.09967">
        <ele>2389.3999023438</ele>
        <time>2024-09-13T11:53:21.000Z</time>
      </trkpt>
      <trkpt lat="44.38286" lon="7.09968">
        <ele>2389.3999023438</ele>
        <time>2024-09-13T11:53:22.000Z</time>
      </trkpt>
      <trkpt lat="44.38282" lon="7.09968">
        <ele>2389.6000976562</ele>
        <time>2024-09-13T11:53:23.000Z</time>
      </trkpt>
      <trkpt lat="44.38279" lon="7.09969">
        <ele>2389.6000976562</ele>
        <time>2024-09-13T11:53:24.000Z</time>
      </trkpt>
      <trkpt lat="44.38276" lon="7.0997">
        <ele>2389.8000488281</ele>
        <time>2024-09-13T11:53:25.000Z</time>
      </trkpt>
      <trkpt lat="44.38274" lon="7.09971">
        <ele>2390</ele>
        <time>2024-09-13T11:53:26.000Z</time>
      </trkpt>
      <trkpt lat="44.38272" lon="7.09974">
        <ele>2390.3999023438</ele>
        <time>2024-09-13T11:53:27.000Z</time>
      </trkpt>
      <trkpt lat="44.38269" lon="7.09976">
        <ele>2390.6000976562</ele>
        <time>2024-09-13T11:53:28.000Z</time>
      </trkpt>
      <trkpt lat="44.38267" lon="7.09978">
        <ele>2390.6000976562</ele>
        <time>2024-09-13T11:53:29.000Z</time>
      </trkpt>
      <trkpt lat="44.38264" lon="7.0998">
        <ele>2390.8000488281</ele>
        <time>2024-09-13T11:53:30.000Z</time>
      </trkpt>
      <trkpt lat="44.38253" lon="7.09989">
        <ele>2390.8000488281</ele>
        <time>2024-09-13T11:53:34.000Z</time>
      </trkpt>
      <trkpt lat="44.3825" lon="7.09991">
        <ele>2390.8000488281</ele>
        <time>2024-09-13T11:53:35.000Z</time>
      </trkpt>
      <trkpt lat="44.38241" lon="7.09995">
        <ele>2391</ele>
        <time>2024-09-13T11:53:38.000Z</time>
      </trkpt>
      <trkpt lat="44.38238" lon="7.09997">
        <ele>2391.1999511719</ele>
        <time>2024-09-13T11:53:39.000Z</time>
      </trkpt>
      <trkpt lat="44.38235" lon="7.09997">
        <ele>2391.1999511719</ele>
        <time>2024-09-13T11:53:40.000Z</time>
      </trkpt>
      <trkpt lat="44.38228" lon="7.09998">
        <ele>2391.1999511719</ele>
        <time>2024-09-13T11:53:42.000Z</time>
      </trkpt>
      <trkpt lat="44.38226" lon="7.09998">
        <ele>2391</ele>
        <time>2024-09-13T11:53:43.000Z</time>
      </trkpt>
      <trkpt lat="44.38223" lon="7.09998">
        <ele>2391</ele>
        <time>2024-09-13T11:53:44.000Z</time>
      </trkpt>
      <trkpt lat="44.3822" lon="7.09998">
        <ele>2391</ele>
        <time>2024-09-13T11:53:45.000Z</time>
      </trkpt>
      <trkpt lat="44.38218" lon="7.09998">
        <ele>2391</ele>
        <time>2024-09-13T11:53:46.000Z</time>
      </trkpt>
      <trkpt lat="44.38216" lon="7.09999">
        <ele>2391</ele>
        <time>2024-09-13T11:53:47.000Z</time>
      </trkpt>
      <trkpt lat="44.38214" lon="7.09999">
        <ele>2391.1999511719</ele>
        <time>2024-09-13T11:53:48.000Z</time>
      </trkpt>
      <trkpt lat="44.38212" lon="7.09998">
        <ele>2391.1999511719</ele>
        <time>2024-09-13T11:53:49.000Z</time>
      </trkpt>
      <trkpt lat="44.3821" lon="7.09998">
        <ele>2391.3999023438</ele>
        <time>2024-09-13T11:53:50.000Z</time>
      </trkpt>
      <trkpt lat="44.38209" lon="7.09999">
        <ele>2391.6000976562</ele>
        <time>2024-09-13T11:53:51.000Z</time>
      </trkpt>
      <trkpt lat="44.38207" lon="7.1">
        <ele>2391.6000976562</ele>
        <time>2024-09-13T11:53:52.000Z</time>
      </trkpt>
      <trkpt lat="44.38203" lon="7.10001">
        <ele>2391.6000976562</ele>
        <time>2024-09-13T11:53:54.000Z</time>
      </trkpt>
      <trkpt lat="44.38202" lon="7.10002">
        <ele>2391.8000488281</ele>
        <time>2024-09-13T11:53:55.000Z</time>
      </trkpt>
      <trkpt lat="44.382" lon="7.10003">
        <ele>2391.8000488281</ele>
        <time>2024-09-13T11:53:56.000Z</time>
      </trkpt>
      <trkpt lat="44.38197" lon="7.10005">
        <ele>2392.8000488281</ele>
        <time>2024-09-13T11:53:58.000Z</time>
      </trkpt>
      <trkpt lat="44.38191" lon="7.10009">
        <ele>2392.8000488281</ele>
        <time>2024-09-13T11:54:01.000Z</time>
      </trkpt>
      <trkpt lat="44.38189" lon="7.1001">
        <ele>2392.8000488281</ele>
        <time>2024-09-13T11:54:02.000Z</time>
      </trkpt>
      <trkpt lat="44.38188" lon="7.10011">
        <ele>2392.6000976562</ele>
        <time>2024-09-13T11:54:03.000Z</time>
      </trkpt>
      <trkpt lat="44.38186" lon="7.10012">
        <ele>2392.6000976562</ele>
        <time>2024-09-13T11:54:04.000Z</time>
      </trkpt>
      <trkpt lat="44.38185" lon="7.10012">
        <ele>2392.6000976562</ele>
        <time>2024-09-13T11:54:05.000Z</time>
      </trkpt>
      <trkpt lat="44.38182" lon="7.10013">
        <ele>2392.6000976562</ele>
        <time>2024-09-13T11:54:07.000Z</time>
      </trkpt>
      <trkpt lat="44.38179" lon="7.10015">
        <ele>2392.8000488281</ele>
        <time>2024-09-13T11:54:09.000Z</time>
      </trkpt>
      <trkpt lat="44.38175" lon="7.10016">
        <ele>2393</ele>
        <time>2024-09-13T11:54:11.000Z</time>
      </trkpt>
      <trkpt lat="44.38168" lon="7.10017">
        <ele>2393.3999023438</ele>
        <time>2024-09-13T11:54:15.000Z</time>
      </trkpt>
      <trkpt lat="44.38166" lon="7.10017">
        <ele>2393.8000488281</ele>
        <time>2024-09-13T11:54:16.000Z</time>
      </trkpt>
      <trkpt lat="44.38164" lon="7.10017">
        <ele>2393.8000488281</ele>
        <time>2024-09-13T11:54:17.000Z</time>
      </trkpt>
      <trkpt lat="44.38163" lon="7.10017">
        <ele>2394</ele>
        <time>2024-09-13T11:54:18.000Z</time>
      </trkpt>
      <trkpt lat="44.38161" lon="7.10017">
        <ele>2394</ele>
        <time>2024-09-13T11:54:19.000Z</time>
      </trkpt>
      <trkpt lat="44.38158" lon="7.10017">
        <ele>2394.3999023438</ele>
        <time>2024-09-13T11:54:21.000Z</time>
      </trkpt>
      <trkpt lat="44.38154" lon="7.10017">
        <ele>2395</ele>
        <time>2024-09-13T11:54:23.000Z</time>
      </trkpt>
      <trkpt lat="44.38151" lon="7.10017">
        <ele>2395.3999023438</ele>
        <time>2024-09-13T11:54:25.000Z</time>
      </trkpt>
      <trkpt lat="44.38149" lon="7.10018">
        <ele>2395.3999023438</ele>
        <time>2024-09-13T11:54:26.000Z</time>
      </trkpt>
      <trkpt lat="44.38147" lon="7.10018">
        <ele>2395.6000976562</ele>
        <time>2024-09-13T11:54:27.000Z</time>
      </trkpt>
      <trkpt lat="44.38145" lon="7.10018">
        <ele>2395.8000488281</ele>
        <time>2024-09-13T11:54:28.000Z</time>
      </trkpt>
      <trkpt lat="44.38144" lon="7.10018">
        <ele>2396</ele>
        <time>2024-09-13T11:54:29.000Z</time>
      </trkpt>
      <trkpt lat="44.38142" lon="7.10019">
        <ele>2396.1999511719</ele>
        <time>2024-09-13T11:54:30.000Z</time>
      </trkpt>
      <trkpt lat="44.38141" lon="7.10018">
        <ele>2396.3999023438</ele>
        <time>2024-09-13T11:54:31.000Z</time>
      </trkpt>
      <trkpt lat="44.38139" lon="7.10018">
        <ele>2396.6000976562</ele>
        <time>2024-09-13T11:54:32.000Z</time>
      </trkpt>
      <trkpt lat="44.38137" lon="7.10019">
        <ele>2396.8000488281</ele>
        <time>2024-09-13T11:54:33.000Z</time>
      </trkpt>
      <trkpt lat="44.38136" lon="7.1002">
        <ele>2397</ele>
        <time>2024-09-13T11:54:34.000Z</time>
      </trkpt>
      <trkpt lat="44.38134" lon="7.10021">
        <ele>2397</ele>
        <time>2024-09-13T11:54:35.000Z</time>
      </trkpt>
      <trkpt lat="44.38133" lon="7.10022">
        <ele>2397</ele>
        <time>2024-09-13T11:54:36.000Z</time>
      </trkpt>
      <trkpt lat="44.38131" lon="7.10023">
        <ele>2397</ele>
        <time>2024-09-13T11:54:37.000Z</time>
      </trkpt>
      <trkpt lat="44.38129" lon="7.10023">
        <ele>2397</ele>
        <time>2024-09-13T11:54:38.000Z</time>
      </trkpt>
      <trkpt lat="44.38127" lon="7.10024">
        <ele>2397.1999511719</ele>
        <time>2024-09-13T11:54:39.000Z</time>
      </trkpt>
      <trkpt lat="44.38126" lon="7.10024">
        <ele>2397.3999023438</ele>
        <time>2024-09-13T11:54:40.000Z</time>
      </trkpt>
      <trkpt lat="44.38125" lon="7.10024">
        <ele>2397.3999023438</ele>
        <time>2024-09-13T11:54:41.000Z</time>
      </trkpt>
      <trkpt lat="44.38123" lon="7.10023">
        <ele>2397.8000488281</ele>
        <time>2024-09-13T11:54:42.000Z</time>
      </trkpt>
      <trkpt lat="44.38121" lon="7.10023">
        <ele>2398.1999511719</ele>
        <time>2024-09-13T11:54:43.000Z</time>
      </trkpt>
      <trkpt lat="44.38121" lon="7.10022">
        <ele>2398.3999023438</ele>
        <time>2024-09-13T11:54:44.000Z</time>
      </trkpt>
      <trkpt lat="44.3812" lon="7.10021">
        <ele>2398.3999023438</ele>
        <time>2024-09-13T11:54:45.000Z</time>
      </trkpt>
      <trkpt lat="44.3812" lon="7.10022">
        <ele>2398.6000976562</ele>
        <time>2024-09-13T11:54:46.000Z</time>
      </trkpt>
      <trkpt lat="44.38119" lon="7.10023">
        <ele>2398.6000976562</ele>
        <time>2024-09-13T11:54:47.000Z</time>
      </trkpt>
      <trkpt lat="44.38118" lon="7.10024">
        <ele>2398.8000488281</ele>
        <time>2024-09-13T11:54:48.000Z</time>
      </trkpt>
      <trkpt lat="44.38117" lon="7.10025">
        <ele>2399</ele>
        <time>2024-09-13T11:54:49.000Z</time>
      </trkpt>
      <trkpt lat="44.38116" lon="7.10027">
        <ele>2399.1999511719</ele>
        <time>2024-09-13T11:54:50.000Z</time>
      </trkpt>
      <trkpt lat="44.38116" lon="7.10027">
        <ele>2399.1999511719</ele>
        <time>2024-09-13T11:54:51.000Z</time>
      </trkpt>
      <trkpt lat="44.38115" lon="7.10027">
        <ele>2399.3999023438</ele>
        <time>2024-09-13T11:54:52.000Z</time>
      </trkpt>
      <trkpt lat="44.38115" lon="7.10028">
        <ele>2399.3999023438</ele>
        <time>2024-09-13T11:54:53.000Z</time>
      </trkpt>
      <trkpt lat="44.38115" lon="7.10028">
        <ele>2399.6000976562</ele>
        <time>2024-09-13T11:54:54.000Z</time>
      </trkpt>
      <trkpt lat="44.38114" lon="7.10029">
        <ele>2399.6000976562</ele>
        <time>2024-09-13T11:54:55.000Z</time>
      </trkpt>
      <trkpt lat="44.38115" lon="7.10029">
        <ele>2399.8000488281</ele>
        <time>2024-09-13T11:54:56.000Z</time>
      </trkpt>
      <trkpt lat="44.38115" lon="7.10029">
        <ele>2400</ele>
        <time>2024-09-13T11:54:57.000Z</time>
      </trkpt>
      <trkpt lat="44.38115" lon="7.10027">
        <ele>2400.6000976562</ele>
        <time>2024-09-13T11:54:58.000Z</time>
      </trkpt>
      <trkpt lat="44.38115" lon="7.10026">
        <ele>2400.6000976562</ele>
        <time>2024-09-13T11:54:59.000Z</time>
      </trkpt>
      <trkpt lat="44.38115" lon="7.10026">
        <ele>2400.8000488281</ele>
        <time>2024-09-13T11:55:00.000Z</time>
      </trkpt>
      <trkpt lat="44.38115" lon="7.10026">
        <ele>2400.8000488281</ele>
        <time>2024-09-13T11:55:01.000Z</time>
      </trkpt>
      <trkpt lat="44.38115" lon="7.10026">
        <ele>2400.8000488281</ele>
        <time>2024-09-13T11:55:02.000Z</time>
      </trkpt>
      <trkpt lat="44.38115" lon="7.10026">
        <ele>2400.8000488281</ele>
        <time>2024-09-13T11:55:06.000Z</time>
      </trkpt>
      <trkpt lat="44.38115" lon="7.10026">
        <ele>2400.8000488281</ele>
        <time>2024-09-13T11:55:10.000Z</time>
      </trkpt>
      <trkpt lat="44.38116" lon="7.10025">
        <ele>2400.6000976562</ele>
        <time>2024-09-13T11:55:18.000Z</time>
      </trkpt>
      <trkpt lat="44.38116" lon="7.10025">
        <ele>2400.3999023438</ele>
        <time>2024-09-13T11:55:19.000Z</time>
      </trkpt>
      <trkpt lat="44.38116" lon="7.10024">
        <ele>2400.3999023438</ele>
        <time>2024-09-13T11:55:22.000Z</time>
      </trkpt>
      <trkpt lat="44.38116" lon="7.10024">
        <ele>2400.3999023438</ele>
        <time>2024-09-13T11:55:23.000Z</time>
      </trkpt>
      <trkpt lat="44.38116" lon="7.10024">
        <ele>2400.3999023438</ele>
        <time>2024-09-13T11:55:25.000Z</time>
      </trkpt>
      <trkpt lat="44.38116" lon="7.10024">
        <ele>2400.3999023438</ele>
        <time>2024-09-13T11:55:26.000Z</time>
      </trkpt>
      <trkpt lat="44.38116" lon="7.10025">
        <ele>2400.3999023438</ele>
        <time>2024-09-13T11:55:28.000Z</time>
      </trkpt>
      <trkpt lat="44.38114" lon="7.10027">
        <ele>2400.6000976562</ele>
        <time>2024-09-13T11:55:31.000Z</time>
      </trkpt>
      <trkpt lat="44.38114" lon="7.10028">
        <ele>2400.8000488281</ele>
        <time>2024-09-13T11:55:32.000Z</time>
      </trkpt>
      <trkpt lat="44.38114" lon="7.10028">
        <ele>2400.8000488281</ele>
        <time>2024-09-13T11:55:33.000Z</time>
      </trkpt>
      <trkpt lat="44.38115" lon="7.10028">
        <ele>2400.8000488281</ele>
        <time>2024-09-13T11:55:34.000Z</time>
      </trkpt>
      <trkpt lat="44.38114" lon="7.10031">
        <ele>2401</ele>
        <time>2024-09-13T11:55:37.000Z</time>
      </trkpt>
      <trkpt lat="44.38114" lon="7.10034">
        <ele>2401</ele>
        <time>2024-09-13T11:55:38.000Z</time>
      </trkpt>
      <trkpt lat="44.38112" lon="7.10046">
        <ele>2400.8000488281</ele>
        <time>2024-09-13T11:55:42.000Z</time>
      </trkpt>
      <trkpt lat="44.3811" lon="7.10051">
        <ele>2400.8000488281</ele>
        <time>2024-09-13T11:55:44.000Z</time>
      </trkpt>
      <trkpt lat="44.38108" lon="7.10053">
        <ele>2401</ele>
        <time>2024-09-13T11:55:45.000Z</time>
      </trkpt>
      <trkpt lat="44.38106" lon="7.10055">
        <ele>2401.1999511719</ele>
        <time>2024-09-13T11:55:46.000Z</time>
      </trkpt>
      <trkpt lat="44.38104" lon="7.10056">
        <ele>2401.1999511719</ele>
        <time>2024-09-13T11:55:47.000Z</time>
      </trkpt>
      <trkpt lat="44.38101" lon="7.10055">
        <ele>2401.1999511719</ele>
        <time>2024-09-13T11:55:48.000Z</time>
      </trkpt>
      <trkpt lat="44.38099" lon="7.10055">
        <ele>2401.3999023438</ele>
        <time>2024-09-13T11:55:49.000Z</time>
      </trkpt>
      <trkpt lat="44.38097" lon="7.10054">
        <ele>2401.3999023438</ele>
        <time>2024-09-13T11:55:50.000Z</time>
      </trkpt>
      <trkpt lat="44.38094" lon="7.10053">
        <ele>2401.6000976562</ele>
        <time>2024-09-13T11:55:51.000Z</time>
      </trkpt>
      <trkpt lat="44.38092" lon="7.10052">
        <ele>2401.8000488281</ele>
        <time>2024-09-13T11:55:52.000Z</time>
      </trkpt>
      <trkpt lat="44.3809" lon="7.10051">
        <ele>2402</ele>
        <time>2024-09-13T11:55:53.000Z</time>
      </trkpt>
      <trkpt lat="44.38089" lon="7.10049">
        <ele>2402.6000976562</ele>
        <time>2024-09-13T11:55:54.000Z</time>
      </trkpt>
      <trkpt lat="44.38087" lon="7.10047">
        <ele>2403</ele>
        <time>2024-09-13T11:55:55.000Z</time>
      </trkpt>
      <trkpt lat="44.38085" lon="7.10045">
        <ele>2403.1999511719</ele>
        <time>2024-09-13T11:55:56.000Z</time>
      </trkpt>
      <trkpt lat="44.38084" lon="7.10044">
        <ele>2403.1999511719</ele>
        <time>2024-09-13T11:55:57.000Z</time>
      </trkpt>
      <trkpt lat="44.38082" lon="7.10042">
        <ele>2403.3999023438</ele>
        <time>2024-09-13T11:55:58.000Z</time>
      </trkpt>
      <trkpt lat="44.38081" lon="7.1004">
        <ele>2403.3999023438</ele>
        <time>2024-09-13T11:55:59.000Z</time>
      </trkpt>
      <trkpt lat="44.3808" lon="7.10039">
        <ele>2403.3999023438</ele>
        <time>2024-09-13T11:56:00.000Z</time>
      </trkpt>
      <trkpt lat="44.38079" lon="7.10037">
        <ele>2403.6000976562</ele>
        <time>2024-09-13T11:56:01.000Z</time>
      </trkpt>
      <trkpt lat="44.38077" lon="7.10036">
        <ele>2403.8000488281</ele>
        <time>2024-09-13T11:56:02.000Z</time>
      </trkpt>
      <trkpt lat="44.38076" lon="7.10034">
        <ele>2404</ele>
        <time>2024-09-13T11:56:03.000Z</time>
      </trkpt>
      <trkpt lat="44.38075" lon="7.10033">
        <ele>2404</ele>
        <time>2024-09-13T11:56:04.000Z</time>
      </trkpt>
      <trkpt lat="44.38074" lon="7.10032">
        <ele>2404</ele>
        <time>2024-09-13T11:56:05.000Z</time>
      </trkpt>
      <trkpt lat="44.38073" lon="7.10031">
        <ele>2404</ele>
        <time>2024-09-13T11:56:06.000Z</time>
      </trkpt>
      <trkpt lat="44.38072" lon="7.1003">
        <ele>2404</ele>
        <time>2024-09-13T11:56:07.000Z</time>
      </trkpt>
      <trkpt lat="44.3807" lon="7.1003">
        <ele>2404.1999511719</ele>
        <time>2024-09-13T11:56:08.000Z</time>
      </trkpt>
      <trkpt lat="44.38068" lon="7.10032">
        <ele>2404.1999511719</ele>
        <time>2024-09-13T11:56:09.000Z</time>
      </trkpt>
      <trkpt lat="44.38067" lon="7.10035">
        <ele>2404.1999511719</ele>
        <time>2024-09-13T11:56:10.000Z</time>
      </trkpt>
      <trkpt lat="44.38067" lon="7.10038">
        <ele>2405.1999511719</ele>
        <time>2024-09-13T11:56:11.000Z</time>
      </trkpt>
      <trkpt lat="44.38069" lon="7.10039">
        <ele>2405.8000488281</ele>
        <time>2024-09-13T11:56:12.000Z</time>
      </trkpt>
      <trkpt lat="44.38071" lon="7.10041">
        <ele>2405.8000488281</ele>
        <time>2024-09-13T11:56:13.000Z</time>
      </trkpt>
      <trkpt lat="44.38073" lon="7.10042">
        <ele>2405.8000488281</ele>
        <time>2024-09-13T11:56:14.000Z</time>
      </trkpt>
      <trkpt lat="44.38074" lon="7.10043">
        <ele>2406</ele>
        <time>2024-09-13T11:56:15.000Z</time>
      </trkpt>
      <trkpt lat="44.38076" lon="7.10045">
        <ele>2406</ele>
        <time>2024-09-13T11:56:16.000Z</time>
      </trkpt>
      <trkpt lat="44.38078" lon="7.10046">
        <ele>2406</ele>
        <time>2024-09-13T11:56:17.000Z</time>
      </trkpt>
      <trkpt lat="44.38079" lon="7.10048">
        <ele>2406</ele>
        <time>2024-09-13T11:56:18.000Z</time>
      </trkpt>
      <trkpt lat="44.38081" lon="7.1005">
        <ele>2406</ele>
        <time>2024-09-13T11:56:19.000Z</time>
      </trkpt>
      <trkpt lat="44.38082" lon="7.10052">
        <ele>2406.1999511719</ele>
        <time>2024-09-13T11:56:20.000Z</time>
      </trkpt>
      <trkpt lat="44.38083" lon="7.10054">
        <ele>2406.1999511719</ele>
        <time>2024-09-13T11:56:21.000Z</time>
      </trkpt>
      <trkpt lat="44.38085" lon="7.10056">
        <ele>2406.1999511719</ele>
        <time>2024-09-13T11:56:22.000Z</time>
      </trkpt>
      <trkpt lat="44.38085" lon="7.10057">
        <ele>2406.1999511719</ele>
        <time>2024-09-13T11:56:23.000Z</time>
      </trkpt>
      <trkpt lat="44.38087" lon="7.10059">
        <ele>2406.1999511719</ele>
        <time>2024-09-13T11:56:24.000Z</time>
      </trkpt>
      <trkpt lat="44.38088" lon="7.10061">
        <ele>2406.1999511719</ele>
        <time>2024-09-13T11:56:25.000Z</time>
      </trkpt>
      <trkpt lat="44.38089" lon="7.10062">
        <ele>2406.3999023438</ele>
        <time>2024-09-13T11:56:26.000Z</time>
      </trkpt>
      <trkpt lat="44.3809" lon="7.10064">
        <ele>2406.3999023438</ele>
        <time>2024-09-13T11:56:27.000Z</time>
      </trkpt>
      <trkpt lat="44.38091" lon="7.10065">
        <ele>2406.6000976562</ele>
        <time>2024-09-13T11:56:28.000Z</time>
      </trkpt>
      <trkpt lat="44.38092" lon="7.10067">
        <ele>2406.6000976562</ele>
        <time>2024-09-13T11:56:29.000Z</time>
      </trkpt>
      <trkpt lat="44.38094" lon="7.10068">
        <ele>2406.6000976562</ele>
        <time>2024-09-13T11:56:30.000Z</time>
      </trkpt>
      <trkpt lat="44.38095" lon="7.10069">
        <ele>2406.8000488281</ele>
        <time>2024-09-13T11:56:31.000Z</time>
      </trkpt>
      <trkpt lat="44.38097" lon="7.1007">
        <ele>2407</ele>
        <time>2024-09-13T11:56:32.000Z</time>
      </trkpt>
      <trkpt lat="44.38098" lon="7.10071">
        <ele>2407.3999023438</ele>
        <time>2024-09-13T11:56:33.000Z</time>
      </trkpt>
      <trkpt lat="44.381" lon="7.10072">
        <ele>2407.6000976562</ele>
        <time>2024-09-13T11:56:34.000Z</time>
      </trkpt>
      <trkpt lat="44.38101" lon="7.10073">
        <ele>2407.6000976562</ele>
        <time>2024-09-13T11:56:35.000Z</time>
      </trkpt>
      <trkpt lat="44.38103" lon="7.10073">
        <ele>2407.6000976562</ele>
        <time>2024-09-13T11:56:36.000Z</time>
      </trkpt>
      <trkpt lat="44.38105" lon="7.10072">
        <ele>2407.8000488281</ele>
        <time>2024-09-13T11:56:37.000Z</time>
      </trkpt>
      <trkpt lat="44.38107" lon="7.10072">
        <ele>2408</ele>
        <time>2024-09-13T11:56:38.000Z</time>
      </trkpt>
      <trkpt lat="44.38109" lon="7.10071">
        <ele>2408</ele>
        <time>2024-09-13T11:56:39.000Z</time>
      </trkpt>
      <trkpt lat="44.3811" lon="7.10071">
        <ele>2408.1999511719</ele>
        <time>2024-09-13T11:56:40.000Z</time>
      </trkpt>
      <trkpt lat="44.38112" lon="7.1007">
        <ele>2408.3999023438</ele>
        <time>2024-09-13T11:56:41.000Z</time>
      </trkpt>
      <trkpt lat="44.38113" lon="7.1007">
        <ele>2408.6000976562</ele>
        <time>2024-09-13T11:56:42.000Z</time>
      </trkpt>
      <trkpt lat="44.38115" lon="7.10069">
        <ele>2408.8000488281</ele>
        <time>2024-09-13T11:56:43.000Z</time>
      </trkpt>
      <trkpt lat="44.38117" lon="7.10068">
        <ele>2408.8000488281</ele>
        <time>2024-09-13T11:56:44.000Z</time>
      </trkpt>
      <trkpt lat="44.38119" lon="7.10067">
        <ele>2409.1999511719</ele>
        <time>2024-09-13T11:56:45.000Z</time>
      </trkpt>
      <trkpt lat="44.38121" lon="7.10067">
        <ele>2409.1999511719</ele>
        <time>2024-09-13T11:56:46.000Z</time>
      </trkpt>
      <trkpt lat="44.38122" lon="7.10067">
        <ele>2409.3999023438</ele>
        <time>2024-09-13T11:56:47.000Z</time>
      </trkpt>
      <trkpt lat="44.38124" lon="7.10067">
        <ele>2409.6000976562</ele>
        <time>2024-09-13T11:56:48.000Z</time>
      </trkpt>
      <trkpt lat="44.38126" lon="7.10067">
        <ele>2409.8000488281</ele>
        <time>2024-09-13T11:56:49.000Z</time>
      </trkpt>
      <trkpt lat="44.38127" lon="7.10067">
        <ele>2409.8000488281</ele>
        <time>2024-09-13T11:56:50.000Z</time>
      </trkpt>
      <trkpt lat="44.38129" lon="7.10068">
        <ele>2410</ele>
        <time>2024-09-13T11:56:51.000Z</time>
      </trkpt>
      <trkpt lat="44.3813" lon="7.10069">
        <ele>2410</ele>
        <time>2024-09-13T11:56:52.000Z</time>
      </trkpt>
      <trkpt lat="44.38131" lon="7.10069">
        <ele>2410.1999511719</ele>
        <time>2024-09-13T11:56:53.000Z</time>
      </trkpt>
      <trkpt lat="44.38133" lon="7.1007">
        <ele>2410.3999023438</ele>
        <time>2024-09-13T11:56:54.000Z</time>
      </trkpt>
      <trkpt lat="44.38134" lon="7.10071">
        <ele>2410.6000976562</ele>
        <time>2024-09-13T11:56:55.000Z</time>
      </trkpt>
      <trkpt lat="44.38135" lon="7.10072">
        <ele>2410.6000976562</ele>
        <time>2024-09-13T11:56:56.000Z</time>
      </trkpt>
      <trkpt lat="44.38137" lon="7.10073">
        <ele>2410.8000488281</ele>
        <time>2024-09-13T11:56:57.000Z</time>
      </trkpt>
      <trkpt lat="44.38138" lon="7.10074">
        <ele>2411</ele>
        <time>2024-09-13T11:56:58.000Z</time>
      </trkpt>
      <trkpt lat="44.38139" lon="7.10074">
        <ele>2411.1999511719</ele>
        <time>2024-09-13T11:56:59.000Z</time>
      </trkpt>
      <trkpt lat="44.3814" lon="7.10075">
        <ele>2411.3999023438</ele>
        <time>2024-09-13T11:57:00.000Z</time>
      </trkpt>
      <trkpt lat="44.38142" lon="7.10076">
        <ele>2411.6000976562</ele>
        <time>2024-09-13T11:57:01.000Z</time>
      </trkpt>
      <trkpt lat="44.38143" lon="7.10077">
        <ele>2411.8000488281</ele>
        <time>2024-09-13T11:57:02.000Z</time>
      </trkpt>
      <trkpt lat="44.38144" lon="7.10078">
        <ele>2412</ele>
        <time>2024-09-13T11:57:03.000Z</time>
      </trkpt>
      <trkpt lat="44.38146" lon="7.10079">
        <ele>2412.1999511719</ele>
        <time>2024-09-13T11:57:04.000Z</time>
      </trkpt>
      <trkpt lat="44.38147" lon="7.1008">
        <ele>2412.1999511719</ele>
        <time>2024-09-13T11:57:05.000Z</time>
      </trkpt>
      <trkpt lat="44.38148" lon="7.1008">
        <ele>2412.6000976562</ele>
        <time>2024-09-13T11:57:06.000Z</time>
      </trkpt>
      <trkpt lat="44.38149" lon="7.10081">
        <ele>2412.6000976562</ele>
        <time>2024-09-13T11:57:07.000Z</time>
      </trkpt>
      <trkpt lat="44.3815" lon="7.10082">
        <ele>2412.8000488281</ele>
        <time>2024-09-13T11:57:08.000Z</time>
      </trkpt>
      <trkpt lat="44.38151" lon="7.10083">
        <ele>2413</ele>
        <time>2024-09-13T11:57:09.000Z</time>
      </trkpt>
      <trkpt lat="44.38152" lon="7.10084">
        <ele>2413</ele>
        <time>2024-09-13T11:57:10.000Z</time>
      </trkpt>
      <trkpt lat="44.38153" lon="7.10084">
        <ele>2413.1999511719</ele>
        <time>2024-09-13T11:57:11.000Z</time>
      </trkpt>
      <trkpt lat="44.38155" lon="7.10085">
        <ele>2413.1999511719</ele>
        <time>2024-09-13T11:57:12.000Z</time>
      </trkpt>
      <trkpt lat="44.38156" lon="7.10087">
        <ele>2413.1999511719</ele>
        <time>2024-09-13T11:57:13.000Z</time>
      </trkpt>
      <trkpt lat="44.38157" lon="7.10088">
        <ele>2413.1999511719</ele>
        <time>2024-09-13T11:57:14.000Z</time>
      </trkpt>
      <trkpt lat="44.38157" lon="7.10089">
        <ele>2413.1999511719</ele>
        <time>2024-09-13T11:57:15.000Z</time>
      </trkpt>
      <trkpt lat="44.38159" lon="7.1009">
        <ele>2413.1999511719</ele>
        <time>2024-09-13T11:57:16.000Z</time>
      </trkpt>
      <trkpt lat="44.3816" lon="7.10091">
        <ele>2413.3999023438</ele>
        <time>2024-09-13T11:57:17.000Z</time>
      </trkpt>
      <trkpt lat="44.38161" lon="7.10093">
        <ele>2413.6000976562</ele>
        <time>2024-09-13T11:57:18.000Z</time>
      </trkpt>
      <trkpt lat="44.38162" lon="7.10094">
        <ele>2414.1999511719</ele>
        <time>2024-09-13T11:57:19.000Z</time>
      </trkpt>
      <trkpt lat="44.38163" lon="7.10096">
        <ele>2414.6000976562</ele>
        <time>2024-09-13T11:57:20.000Z</time>
      </trkpt>
      <trkpt lat="44.38164" lon="7.10098">
        <ele>2415</ele>
        <time>2024-09-13T11:57:21.000Z</time>
      </trkpt>
      <trkpt lat="44.38165" lon="7.10099">
        <ele>2415.1999511719</ele>
        <time>2024-09-13T11:57:22.000Z</time>
      </trkpt>
      <trkpt lat="44.38166" lon="7.10102">
        <ele>2415.1999511719</ele>
        <time>2024-09-13T11:57:23.000Z</time>
      </trkpt>
      <trkpt lat="44.38167" lon="7.10104">
        <ele>2415.1999511719</ele>
        <time>2024-09-13T11:57:24.000Z</time>
      </trkpt>
      <trkpt lat="44.38167" lon="7.10106">
        <ele>2415.1999511719</ele>
        <time>2024-09-13T11:57:25.000Z</time>
      </trkpt>
      <trkpt lat="44.38167" lon="7.10109">
        <ele>2415.1999511719</ele>
        <time>2024-09-13T11:57:26.000Z</time>
      </trkpt>
      <trkpt lat="44.38167" lon="7.10111">
        <ele>2415.1999511719</ele>
        <time>2024-09-13T11:57:27.000Z</time>
      </trkpt>
      <trkpt lat="44.38167" lon="7.10113">
        <ele>2415.1999511719</ele>
        <time>2024-09-13T11:57:28.000Z</time>
      </trkpt>
      <trkpt lat="44.38167" lon="7.10115">
        <ele>2415.3999023438</ele>
        <time>2024-09-13T11:57:29.000Z</time>
      </trkpt>
      <trkpt lat="44.38167" lon="7.10117">
        <ele>2415.8000488281</ele>
        <time>2024-09-13T11:57:30.000Z</time>
      </trkpt>
      <trkpt lat="44.38167" lon="7.10118">
        <ele>2416</ele>
        <time>2024-09-13T11:57:31.000Z</time>
      </trkpt>
      <trkpt lat="44.38166" lon="7.1012">
        <ele>2416.1999511719</ele>
        <time>2024-09-13T11:57:32.000Z</time>
      </trkpt>
      <trkpt lat="44.38166" lon="7.10121">
        <ele>2416.3999023438</ele>
        <time>2024-09-13T11:57:33.000Z</time>
      </trkpt>
      <trkpt lat="44.38166" lon="7.10122">
        <ele>2416.3999023438</ele>
        <time>2024-09-13T11:57:34.000Z</time>
      </trkpt>
      <trkpt lat="44.38165" lon="7.10123">
        <ele>2416.6000976562</ele>
        <time>2024-09-13T11:57:35.000Z</time>
      </trkpt>
      <trkpt lat="44.38165" lon="7.10125">
        <ele>2416.6000976562</ele>
        <time>2024-09-13T11:57:36.000Z</time>
      </trkpt>
      <trkpt lat="44.38165" lon="7.10126">
        <ele>2416.6000976562</ele>
        <time>2024-09-13T11:57:37.000Z</time>
      </trkpt>
      <trkpt lat="44.38164" lon="7.10127">
        <ele>2416.3999023438</ele>
        <time>2024-09-13T11:57:38.000Z</time>
      </trkpt>
      <trkpt lat="44.38163" lon="7.10128">
        <ele>2416.3999023438</ele>
        <time>2024-09-13T11:57:39.000Z</time>
      </trkpt>
      <trkpt lat="44.38163" lon="7.10129">
        <ele>2416.1999511719</ele>
        <time>2024-09-13T11:57:40.000Z</time>
      </trkpt>
      <trkpt lat="44.38162" lon="7.1013">
        <ele>2416.1999511719</ele>
        <time>2024-09-13T11:57:41.000Z</time>
      </trkpt>
      <trkpt lat="44.38162" lon="7.10132">
        <ele>2416.1999511719</ele>
        <time>2024-09-13T11:57:42.000Z</time>
      </trkpt>
      <trkpt lat="44.38161" lon="7.10134">
        <ele>2416</ele>
        <time>2024-09-13T11:57:43.000Z</time>
      </trkpt>
      <trkpt lat="44.3816" lon="7.10136">
        <ele>2416</ele>
        <time>2024-09-13T11:57:44.000Z</time>
      </trkpt>
      <trkpt lat="44.3816" lon="7.10139">
        <ele>2416.1999511719</ele>
        <time>2024-09-13T11:57:45.000Z</time>
      </trkpt>
      <trkpt lat="44.38159" lon="7.10141">
        <ele>2416.1999511719</ele>
        <time>2024-09-13T11:57:46.000Z</time>
      </trkpt>
      <trkpt lat="44.38159" lon="7.10143">
        <ele>2416.1999511719</ele>
        <time>2024-09-13T11:57:47.000Z</time>
      </trkpt>
      <trkpt lat="44.38158" lon="7.10147">
        <ele>2416.6000976562</ele>
        <time>2024-09-13T11:57:49.000Z</time>
      </trkpt>
      <trkpt lat="44.38156" lon="7.10151">
        <ele>2417.6000976562</ele>
        <time>2024-09-13T11:57:51.000Z</time>
      </trkpt>
      <trkpt lat="44.38155" lon="7.10153">
        <ele>2417.8000488281</ele>
        <time>2024-09-13T11:57:52.000Z</time>
      </trkpt>
      <trkpt lat="44.38149" lon="7.10162">
        <ele>2418</ele>
        <time>2024-09-13T11:57:57.000Z</time>
      </trkpt>
      <trkpt lat="44.38145" lon="7.10169">
        <ele>2418</ele>
        <time>2024-09-13T11:58:00.000Z</time>
      </trkpt>
      <trkpt lat="44.38144" lon="7.10171">
        <ele>2418</ele>
        <time>2024-09-13T11:58:01.000Z</time>
      </trkpt>
      <trkpt lat="44.38144" lon="7.10174">
        <ele>2418</ele>
        <time>2024-09-13T11:58:02.000Z</time>
      </trkpt>
      <trkpt lat="44.38141" lon="7.10182">
        <ele>2418.1999511719</ele>
        <time>2024-09-13T11:58:05.000Z</time>
      </trkpt>
      <trkpt lat="44.3814" lon="7.10184">
        <ele>2418.3999023438</ele>
        <time>2024-09-13T11:58:06.000Z</time>
      </trkpt>
      <trkpt lat="44.38139" lon="7.10186">
        <ele>2418.3999023438</ele>
        <time>2024-09-13T11:58:07.000Z</time>
      </trkpt>
      <trkpt lat="44.38138" lon="7.10187">
        <ele>2418.6000976562</ele>
        <time>2024-09-13T11:58:08.000Z</time>
      </trkpt>
      <trkpt lat="44.38137" lon="7.10189">
        <ele>2418.6000976562</ele>
        <time>2024-09-13T11:58:09.000Z</time>
      </trkpt>
      <trkpt lat="44.38135" lon="7.10193">
        <ele>2418.3999023438</ele>
        <time>2024-09-13T11:58:11.000Z</time>
      </trkpt>
      <trkpt lat="44.38134" lon="7.10196">
        <ele>2418.6000976562</ele>
        <time>2024-09-13T11:58:12.000Z</time>
      </trkpt>
      <trkpt lat="44.38133" lon="7.10197">
        <ele>2418.8000488281</ele>
        <time>2024-09-13T11:58:13.000Z</time>
      </trkpt>
      <trkpt lat="44.38133" lon="7.10199">
        <ele>2418.8000488281</ele>
        <time>2024-09-13T11:58:14.000Z</time>
      </trkpt>
      <trkpt lat="44.38132" lon="7.102">
        <ele>2418.6000976562</ele>
        <time>2024-09-13T11:58:15.000Z</time>
      </trkpt>
      <trkpt lat="44.38132" lon="7.102">
        <ele>2418.6000976562</ele>
        <time>2024-09-13T11:58:16.000Z</time>
      </trkpt>
      <trkpt lat="44.38132" lon="7.102">
        <ele>2418.6000976562</ele>
        <time>2024-09-13T11:58:17.000Z</time>
      </trkpt>
      <trkpt lat="44.38132" lon="7.102">
        <ele>2418.1999511719</ele>
        <time>2024-09-13T11:58:19.000Z</time>
      </trkpt>
      <trkpt lat="44.38132" lon="7.102">
        <ele>2418.1999511719</ele>
        <time>2024-09-13T11:58:26.000Z</time>
      </trkpt>
      <trkpt lat="44.38132" lon="7.102">
        <ele>2417.8000488281</ele>
        <time>2024-09-13T11:58:38.000Z</time>
      </trkpt>
      <trkpt lat="44.38132" lon="7.102">
        <ele>2417.6000976562</ele>
        <time>2024-09-13T11:58:39.000Z</time>
      </trkpt>
      <trkpt lat="44.38132" lon="7.102">
        <ele>2417.1999511719</ele>
        <time>2024-09-13T11:58:56.000Z</time>
      </trkpt>
      <trkpt lat="44.38133" lon="7.10198">
        <ele>2416.8000488281</ele>
        <time>2024-09-13T11:59:05.000Z</time>
      </trkpt>
      <trkpt lat="44.38133" lon="7.10198">
        <ele>2416.6000976562</ele>
        <time>2024-09-13T11:59:09.000Z</time>
      </trkpt>
      <trkpt lat="44.38133" lon="7.10198">
        <ele>2416.8000488281</ele>
        <time>2024-09-13T11:59:11.000Z</time>
      </trkpt>
      <trkpt lat="44.38133" lon="7.10198">
        <ele>2416.8000488281</ele>
        <time>2024-09-13T11:59:21.000Z</time>
      </trkpt>
      <trkpt lat="44.38132" lon="7.102">
        <ele>2416.8000488281</ele>
        <time>2024-09-13T11:59:28.000Z</time>
      </trkpt>
      <trkpt lat="44.38132" lon="7.102">
        <ele>2416.6000976562</ele>
        <time>2024-09-13T11:59:32.000Z</time>
      </trkpt>
      <trkpt lat="44.38132" lon="7.102">
        <ele>2416.8000488281</ele>
        <time>2024-09-13T11:59:41.000Z</time>
      </trkpt>
      <trkpt lat="44.38132" lon="7.102">
        <ele>2416.6000976562</ele>
        <time>2024-09-13T11:59:45.000Z</time>
      </trkpt>
      <trkpt lat="44.38132" lon="7.102">
        <ele>2416.6000976562</ele>
        <time>2024-09-13T11:59:46.000Z</time>
      </trkpt>
      <trkpt lat="44.38132" lon="7.102">
        <ele>2416.6000976562</ele>
        <time>2024-09-13T11:59:47.000Z</time>
      </trkpt>
      <trkpt lat="44.38132" lon="7.102">
        <ele>2416.8000488281</ele>
        <time>2024-09-13T12:00:04.000Z</time>
      </trkpt>
      <trkpt lat="44.38132" lon="7.102">
        <ele>2416.8000488281</ele>
        <time>2024-09-13T12:00:05.000Z</time>
      </trkpt>
      <trkpt lat="44.38132" lon="7.102">
        <ele>2416.8000488281</ele>
        <time>2024-09-13T12:00:06.000Z</time>
      </trkpt>
      <trkpt lat="44.38132" lon="7.102">
        <ele>2416.8000488281</ele>
        <time>2024-09-13T12:00:07.000Z</time>
      </trkpt>
      <trkpt lat="44.38132" lon="7.102">
        <ele>2416.8000488281</ele>
        <time>2024-09-13T12:00:12.000Z</time>
      </trkpt>
      <trkpt lat="44.38134" lon="7.10198">
        <ele>2416.8000488281</ele>
        <time>2024-09-13T12:00:15.000Z</time>
      </trkpt>
      <trkpt lat="44.38134" lon="7.10198">
        <ele>2416.8000488281</ele>
        <time>2024-09-13T12:00:17.000Z</time>
      </trkpt>
      <trkpt lat="44.38132" lon="7.102">
        <ele>2416.3999023438</ele>
        <time>2024-09-13T12:00:19.000Z</time>
      </trkpt>
      <trkpt lat="44.38132" lon="7.102">
        <ele>2416.3999023438</ele>
        <time>2024-09-13T12:00:22.000Z</time>
      </trkpt>
      <trkpt lat="44.38132" lon="7.102">
        <ele>2416.3999023438</ele>
        <time>2024-09-13T12:00:35.000Z</time>
      </trkpt>
      <trkpt lat="44.38132" lon="7.102">
        <ele>2416.3999023438</ele>
        <time>2024-09-13T12:01:00.000Z</time>
      </trkpt>
      <trkpt lat="44.38131" lon="7.10199">
        <ele>2416.3999023438</ele>
        <time>2024-09-13T12:01:25.000Z</time>
      </trkpt>
      <trkpt lat="44.3813" lon="7.10199">
        <ele>2416.3999023438</ele>
        <time>2024-09-13T12:01:31.000Z</time>
      </trkpt>
      <trkpt lat="44.38127" lon="7.10197">
        <ele>2417.1999511719</ele>
        <time>2024-09-13T12:01:33.000Z</time>
      </trkpt>
      <trkpt lat="44.38115" lon="7.1019">
        <ele>2415.1999511719</ele>
        <time>2024-09-13T12:01:37.000Z</time>
      </trkpt>
      <trkpt lat="44.38112" lon="7.10189">
        <ele>2415</ele>
        <time>2024-09-13T12:01:38.000Z</time>
      </trkpt>
      <trkpt lat="44.3811" lon="7.10189">
        <ele>2415</ele>
        <time>2024-09-13T12:01:39.000Z</time>
      </trkpt>
      <trkpt lat="44.38104" lon="7.1019">
        <ele>2415</ele>
        <time>2024-09-13T12:01:41.000Z</time>
      </trkpt>
      <trkpt lat="44.38082" lon="7.102">
        <ele>2414.3999023438</ele>
        <time>2024-09-13T12:01:47.000Z</time>
      </trkpt>
      <trkpt lat="44.38078" lon="7.10203">
        <ele>2414.1999511719</ele>
        <time>2024-09-13T12:01:48.000Z</time>
      </trkpt>
      <trkpt lat="44.38075" lon="7.10209">
        <ele>2414</ele>
        <time>2024-09-13T12:01:49.000Z</time>
      </trkpt>
      <trkpt lat="44.38071" lon="7.10214">
        <ele>2413.8000488281</ele>
        <time>2024-09-13T12:01:50.000Z</time>
      </trkpt>
      <trkpt lat="44.38067" lon="7.10219">
        <ele>2413.6000976562</ele>
        <time>2024-09-13T12:01:51.000Z</time>
      </trkpt>
      <trkpt lat="44.38062" lon="7.10222">
        <ele>2412.8000488281</ele>
        <time>2024-09-13T12:01:52.000Z</time>
      </trkpt>
      <trkpt lat="44.38052" lon="7.10228">
        <ele>2412.1999511719</ele>
        <time>2024-09-13T12:01:54.000Z</time>
      </trkpt>
      <trkpt lat="44.38048" lon="7.10231">
        <ele>2411.8000488281</ele>
        <time>2024-09-13T12:01:55.000Z</time>
      </trkpt>
      <trkpt lat="44.38044" lon="7.10233">
        <ele>2411.8000488281</ele>
        <time>2024-09-13T12:01:56.000Z</time>
      </trkpt>
      <trkpt lat="44.38041" lon="7.10233">
        <ele>2411.8000488281</ele>
        <time>2024-09-13T12:01:57.000Z</time>
      </trkpt>
      <trkpt lat="44.38038" lon="7.10236">
        <ele>2411.3999023438</ele>
        <time>2024-09-13T12:01:58.000Z</time>
      </trkpt>
      <trkpt lat="44.38036" lon="7.10241">
        <ele>2411.1999511719</ele>
        <time>2024-09-13T12:01:59.000Z</time>
      </trkpt>
      <trkpt lat="44.38034" lon="7.10245">
        <ele>2410.8000488281</ele>
        <time>2024-09-13T12:02:00.000Z</time>
      </trkpt>
      <trkpt lat="44.38033" lon="7.10247">
        <ele>2410.3999023438</ele>
        <time>2024-09-13T12:02:01.000Z</time>
      </trkpt>
      <trkpt lat="44.38031" lon="7.10248">
        <ele>2410.3999023438</ele>
        <time>2024-09-13T12:02:02.000Z</time>
      </trkpt>
      <trkpt lat="44.3803" lon="7.10249">
        <ele>2410.3999023438</ele>
        <time>2024-09-13T12:02:03.000Z</time>
      </trkpt>
      <trkpt lat="44.38029" lon="7.1025">
        <ele>2410.3999023438</ele>
        <time>2024-09-13T12:02:04.000Z</time>
      </trkpt>
      <trkpt lat="44.38025" lon="7.10256">
        <ele>2410.6000976562</ele>
        <time>2024-09-13T12:02:06.000Z</time>
      </trkpt>
      <trkpt lat="44.38023" lon="7.10259">
        <ele>2410.6000976562</ele>
        <time>2024-09-13T12:02:07.000Z</time>
      </trkpt>
      <trkpt lat="44.38022" lon="7.10261">
        <ele>2410.6000976562</ele>
        <time>2024-09-13T12:02:08.000Z</time>
      </trkpt>
      <trkpt lat="44.3802" lon="7.10263">
        <ele>2411</ele>
        <time>2024-09-13T12:02:09.000Z</time>
      </trkpt>
      <trkpt lat="44.38017" lon="7.10267">
        <ele>2411.1999511719</ele>
        <time>2024-09-13T12:02:11.000Z</time>
      </trkpt>
      <trkpt lat="44.38016" lon="7.10269">
        <ele>2411.1999511719</ele>
        <time>2024-09-13T12:02:12.000Z</time>
      </trkpt>
      <trkpt lat="44.38006" lon="7.10278">
        <ele>2411.6000976562</ele>
        <time>2024-09-13T12:02:17.000Z</time>
      </trkpt>
      <trkpt lat="44.38004" lon="7.1028">
        <ele>2411.6000976562</ele>
        <time>2024-09-13T12:02:18.000Z</time>
      </trkpt>
      <trkpt lat="44.38002" lon="7.10282">
        <ele>2411.6000976562</ele>
        <time>2024-09-13T12:02:19.000Z</time>
      </trkpt>
      <trkpt lat="44.37998" lon="7.10287">
        <ele>2411.8000488281</ele>
        <time>2024-09-13T12:02:21.000Z</time>
      </trkpt>
      <trkpt lat="44.37994" lon="7.10291">
        <ele>2411.8000488281</ele>
        <time>2024-09-13T12:02:23.000Z</time>
      </trkpt>
      <trkpt lat="44.37992" lon="7.10294">
        <ele>2411.8000488281</ele>
        <time>2024-09-13T12:02:24.000Z</time>
      </trkpt>
      <trkpt lat="44.3799" lon="7.10296">
        <ele>2411.6000976562</ele>
        <time>2024-09-13T12:02:25.000Z</time>
      </trkpt>
      <trkpt lat="44.37986" lon="7.10298">
        <ele>2411.8000488281</ele>
        <time>2024-09-13T12:02:27.000Z</time>
      </trkpt>
      <trkpt lat="44.37982" lon="7.10303">
        <ele>2411.8000488281</ele>
        <time>2024-09-13T12:02:29.000Z</time>
      </trkpt>
      <trkpt lat="44.37981" lon="7.10305">
        <ele>2411.6000976562</ele>
        <time>2024-09-13T12:02:30.000Z</time>
      </trkpt>
      <trkpt lat="44.37976" lon="7.10309">
        <ele>2411.8000488281</ele>
        <time>2024-09-13T12:02:32.000Z</time>
      </trkpt>
      <trkpt lat="44.37975" lon="7.1031">
        <ele>2411.8000488281</ele>
        <time>2024-09-13T12:02:33.000Z</time>
      </trkpt>
      <trkpt lat="44.37973" lon="7.10311">
        <ele>2411.8000488281</ele>
        <time>2024-09-13T12:02:34.000Z</time>
      </trkpt>
      <trkpt lat="44.3797" lon="7.10313">
        <ele>2411.8000488281</ele>
        <time>2024-09-13T12:02:35.000Z</time>
      </trkpt>
      <trkpt lat="44.37963" lon="7.1032">
        <ele>2411.6000976562</ele>
        <time>2024-09-13T12:02:38.000Z</time>
      </trkpt>
      <trkpt lat="44.37961" lon="7.10322">
        <ele>2411</ele>
        <time>2024-09-13T12:02:39.000Z</time>
      </trkpt>
      <trkpt lat="44.37956" lon="7.10326">
        <ele>2410.8000488281</ele>
        <time>2024-09-13T12:02:41.000Z</time>
      </trkpt>
      <trkpt lat="44.37955" lon="7.10327">
        <ele>2410.8000488281</ele>
        <time>2024-09-13T12:02:42.000Z</time>
      </trkpt>
      <trkpt lat="44.37953" lon="7.10329">
        <ele>2411</ele>
        <time>2024-09-13T12:02:43.000Z</time>
      </trkpt>
      <trkpt lat="44.37952" lon="7.1033">
        <ele>2411.1999511719</ele>
        <time>2024-09-13T12:02:44.000Z</time>
      </trkpt>
      <trkpt lat="44.37951" lon="7.10332">
        <ele>2411.1999511719</ele>
        <time>2024-09-13T12:02:45.000Z</time>
      </trkpt>
      <trkpt lat="44.37947" lon="7.10335">
        <ele>2411.6000976562</ele>
        <time>2024-09-13T12:02:47.000Z</time>
      </trkpt>
      <trkpt lat="44.37946" lon="7.10336">
        <ele>2411.6000976562</ele>
        <time>2024-09-13T12:02:48.000Z</time>
      </trkpt>
      <trkpt lat="44.37944" lon="7.10338">
        <ele>2411.8000488281</ele>
        <time>2024-09-13T12:02:49.000Z</time>
      </trkpt>
      <trkpt lat="44.37942" lon="7.10343">
        <ele>2411.6000976562</ele>
        <time>2024-09-13T12:02:52.000Z</time>
      </trkpt>
      <trkpt lat="44.37941" lon="7.10345">
        <ele>2411.6000976562</ele>
        <time>2024-09-13T12:02:53.000Z</time>
      </trkpt>
      <trkpt lat="44.3794" lon="7.10346">
        <ele>2411.6000976562</ele>
        <time>2024-09-13T12:02:54.000Z</time>
      </trkpt>
      <trkpt lat="44.37939" lon="7.10346">
        <ele>2411.6000976562</ele>
        <time>2024-09-13T12:02:56.000Z</time>
      </trkpt>
      <trkpt lat="44.37938" lon="7.10349">
        <ele>2411.6000976562</ele>
        <time>2024-09-13T12:03:02.000Z</time>
      </trkpt>
      <trkpt lat="44.37936" lon="7.1035">
        <ele>2411.6000976562</ele>
        <time>2024-09-13T12:03:04.000Z</time>
      </trkpt>
      <trkpt lat="44.37936" lon="7.10351">
        <ele>2411.8000488281</ele>
        <time>2024-09-13T12:03:05.000Z</time>
      </trkpt>
      <trkpt lat="44.37934" lon="7.10353">
        <ele>2412</ele>
        <time>2024-09-13T12:03:07.000Z</time>
      </trkpt>
      <trkpt lat="44.37933" lon="7.10353">
        <ele>2412</ele>
        <time>2024-09-13T12:03:08.000Z</time>
      </trkpt>
      <trkpt lat="44.37931" lon="7.10354">
        <ele>2412</ele>
        <time>2024-09-13T12:03:10.000Z</time>
      </trkpt>
      <trkpt lat="44.3793" lon="7.10355">
        <ele>2412.1999511719</ele>
        <time>2024-09-13T12:03:11.000Z</time>
      </trkpt>
      <trkpt lat="44.37929" lon="7.10355">
        <ele>2412.1999511719</ele>
        <time>2024-09-13T12:03:12.000Z</time>
      </trkpt>
      <trkpt lat="44.37929" lon="7.10356">
        <ele>2412.3999023438</ele>
        <time>2024-09-13T12:03:13.000Z</time>
      </trkpt>
      <trkpt lat="44.37928" lon="7.10357">
        <ele>2412.3999023438</ele>
        <time>2024-09-13T12:03:14.000Z</time>
      </trkpt>
      <trkpt lat="44.37928" lon="7.10356">
        <ele>2412.6000976562</ele>
        <time>2024-09-13T12:03:15.000Z</time>
      </trkpt>
      <trkpt lat="44.37927" lon="7.10356">
        <ele>2413</ele>
        <time>2024-09-13T12:03:18.000Z</time>
      </trkpt>
      <trkpt lat="44.37927" lon="7.10356">
        <ele>2413</ele>
        <time>2024-09-13T12:03:22.000Z</time>
      </trkpt>
      <trkpt lat="44.37926" lon="7.10357">
        <ele>2413</ele>
        <time>2024-09-13T12:03:23.000Z</time>
      </trkpt>
      <trkpt lat="44.37925" lon="7.10358">
        <ele>2412.8000488281</ele>
        <time>2024-09-13T12:03:24.000Z</time>
      </trkpt>
      <trkpt lat="44.37924" lon="7.10359">
        <ele>2412.6000976562</ele>
        <time>2024-09-13T12:03:25.000Z</time>
      </trkpt>
      <trkpt lat="44.3792" lon="7.10362">
        <ele>2412.8000488281</ele>
        <time>2024-09-13T12:03:28.000Z</time>
      </trkpt>
      <trkpt lat="44.37914" lon="7.1037">
        <ele>2412.8000488281</ele>
        <time>2024-09-13T12:03:33.000Z</time>
      </trkpt>
      <trkpt lat="44.37912" lon="7.10371">
        <ele>2412.8000488281</ele>
        <time>2024-09-13T12:03:34.000Z</time>
      </trkpt>
      <trkpt lat="44.37911" lon="7.10372">
        <ele>2413</ele>
        <time>2024-09-13T12:03:35.000Z</time>
      </trkpt>
      <trkpt lat="44.37909" lon="7.10373">
        <ele>2413</ele>
        <time>2024-09-13T12:03:36.000Z</time>
      </trkpt>
      <trkpt lat="44.37908" lon="7.10374">
        <ele>2413</ele>
        <time>2024-09-13T12:03:37.000Z</time>
      </trkpt>
      <trkpt lat="44.37906" lon="7.10376">
        <ele>2413.8000488281</ele>
        <time>2024-09-13T12:03:39.000Z</time>
      </trkpt>
      <trkpt lat="44.37905" lon="7.10377">
        <ele>2413.8000488281</ele>
        <time>2024-09-13T12:03:40.000Z</time>
      </trkpt>
      <trkpt lat="44.379" lon="7.10382">
        <ele>2414.1999511719</ele>
        <time>2024-09-13T12:03:44.000Z</time>
      </trkpt>
      <trkpt lat="44.37898" lon="7.10383">
        <ele>2414.1999511719</ele>
        <time>2024-09-13T12:03:45.000Z</time>
      </trkpt>
      <trkpt lat="44.37897" lon="7.10384">
        <ele>2414.3999023438</ele>
        <time>2024-09-13T12:03:46.000Z</time>
      </trkpt>
      <trkpt lat="44.37895" lon="7.10387">
        <ele>2414.6000976562</ele>
        <time>2024-09-13T12:03:48.000Z</time>
      </trkpt>
      <trkpt lat="44.37893" lon="7.10387">
        <ele>2414.8000488281</ele>
        <time>2024-09-13T12:03:49.000Z</time>
      </trkpt>
      <trkpt lat="44.37891" lon="7.10387">
        <ele>2414.8000488281</ele>
        <time>2024-09-13T12:03:50.000Z</time>
      </trkpt>
      <trkpt lat="44.3789" lon="7.10388">
        <ele>2414.8000488281</ele>
        <time>2024-09-13T12:03:51.000Z</time>
      </trkpt>
      <trkpt lat="44.37889" lon="7.10388">
        <ele>2414.8000488281</ele>
        <time>2024-09-13T12:03:52.000Z</time>
      </trkpt>
      <trkpt lat="44.37886" lon="7.1039">
        <ele>2414.8000488281</ele>
        <time>2024-09-13T12:03:54.000Z</time>
      </trkpt>
      <trkpt lat="44.37884" lon="7.10391">
        <ele>2415</ele>
        <time>2024-09-13T12:03:55.000Z</time>
      </trkpt>
      <trkpt lat="44.3788" lon="7.10393">
        <ele>2415</ele>
        <time>2024-09-13T12:03:57.000Z</time>
      </trkpt>
      <trkpt lat="44.37872" lon="7.10401">
        <ele>2414.6000976562</ele>
        <time>2024-09-13T12:04:00.000Z</time>
      </trkpt>
      <trkpt lat="44.3787" lon="7.10403">
        <ele>2414.3999023438</ele>
        <time>2024-09-13T12:04:01.000Z</time>
      </trkpt>
      <trkpt lat="44.37868" lon="7.10404">
        <ele>2414.3999023438</ele>
        <time>2024-09-13T12:04:02.000Z</time>
      </trkpt>
      <trkpt lat="44.37867" lon="7.10405">
        <ele>2414.3999023438</ele>
        <time>2024-09-13T12:04:03.000Z</time>
      </trkpt>
      <trkpt lat="44.37865" lon="7.10406">
        <ele>2414.3999023438</ele>
        <time>2024-09-13T12:04:04.000Z</time>
      </trkpt>
      <trkpt lat="44.37863" lon="7.10407">
        <ele>2414.3999023438</ele>
        <time>2024-09-13T12:04:05.000Z</time>
      </trkpt>
      <trkpt lat="44.37862" lon="7.10408">
        <ele>2414.6000976562</ele>
        <time>2024-09-13T12:04:06.000Z</time>
      </trkpt>
      <trkpt lat="44.37856" lon="7.10411">
        <ele>2414.8000488281</ele>
        <time>2024-09-13T12:04:09.000Z</time>
      </trkpt>
      <trkpt lat="44.37855" lon="7.10413">
        <ele>2415</ele>
        <time>2024-09-13T12:04:10.000Z</time>
      </trkpt>
      <trkpt lat="44.37849" lon="7.10418">
        <ele>2415</ele>
        <time>2024-09-13T12:04:13.000Z</time>
      </trkpt>
      <trkpt lat="44.37847" lon="7.10419">
        <ele>2415.1999511719</ele>
        <time>2024-09-13T12:04:14.000Z</time>
      </trkpt>
      <trkpt lat="44.37839" lon="7.10426">
        <ele>2415.3999023438</ele>
        <time>2024-09-13T12:04:18.000Z</time>
      </trkpt>
      <trkpt lat="44.37837" lon="7.10427">
        <ele>2415.3999023438</ele>
        <time>2024-09-13T12:04:19.000Z</time>
      </trkpt>
      <trkpt lat="44.37835" lon="7.10429">
        <ele>2415.1999511719</ele>
        <time>2024-09-13T12:04:20.000Z</time>
      </trkpt>
      <trkpt lat="44.37831" lon="7.10432">
        <ele>2415.3999023438</ele>
        <time>2024-09-13T12:04:22.000Z</time>
      </trkpt>
      <trkpt lat="44.37828" lon="7.10434">
        <ele>2415.1999511719</ele>
        <time>2024-09-13T12:04:24.000Z</time>
      </trkpt>
      <trkpt lat="44.37826" lon="7.10435">
        <ele>2415</ele>
        <time>2024-09-13T12:04:25.000Z</time>
      </trkpt>
      <trkpt lat="44.37822" lon="7.10438">
        <ele>2415</ele>
        <time>2024-09-13T12:04:27.000Z</time>
      </trkpt>
      <trkpt lat="44.3782" lon="7.1044">
        <ele>2415</ele>
        <time>2024-09-13T12:04:28.000Z</time>
      </trkpt>
      <trkpt lat="44.37812" lon="7.10444">
        <ele>2415</ele>
        <time>2024-09-13T12:04:31.000Z</time>
      </trkpt>
      <trkpt lat="44.3781" lon="7.10445">
        <ele>2415.1999511719</ele>
        <time>2024-09-13T12:04:32.000Z</time>
      </trkpt>
      <trkpt lat="44.37808" lon="7.10446">
        <ele>2415.1999511719</ele>
        <time>2024-09-13T12:04:33.000Z</time>
      </trkpt>
      <trkpt lat="44.37806" lon="7.10447">
        <ele>2415.3999023438</ele>
        <time>2024-09-13T12:04:34.000Z</time>
      </trkpt>
      <trkpt lat="44.37804" lon="7.10449">
        <ele>2415.3999023438</ele>
        <time>2024-09-13T12:04:35.000Z</time>
      </trkpt>
      <trkpt lat="44.37802" lon="7.10451">
        <ele>2415.3999023438</ele>
        <time>2024-09-13T12:04:36.000Z</time>
      </trkpt>
      <trkpt lat="44.378" lon="7.10453">
        <ele>2415.3999023438</ele>
        <time>2024-09-13T12:04:37.000Z</time>
      </trkpt>
      <trkpt lat="44.37799" lon="7.10455">
        <ele>2415.3999023438</ele>
        <time>2024-09-13T12:04:38.000Z</time>
      </trkpt>
      <trkpt lat="44.37794" lon="7.10459">
        <ele>2414.8000488281</ele>
        <time>2024-09-13T12:04:41.000Z</time>
      </trkpt>
      <trkpt lat="44.37791" lon="7.1046">
        <ele>2414.8000488281</ele>
        <time>2024-09-13T12:04:42.000Z</time>
      </trkpt>
      <trkpt lat="44.37789" lon="7.10462">
        <ele>2414.8000488281</ele>
        <time>2024-09-13T12:04:43.000Z</time>
      </trkpt>
      <trkpt lat="44.37786" lon="7.10466">
        <ele>2414.8000488281</ele>
        <time>2024-09-13T12:04:45.000Z</time>
      </trkpt>
      <trkpt lat="44.37784" lon="7.10469">
        <ele>2414.8000488281</ele>
        <time>2024-09-13T12:04:46.000Z</time>
      </trkpt>
      <trkpt lat="44.37779" lon="7.10473">
        <ele>2414.6000976562</ele>
        <time>2024-09-13T12:04:48.000Z</time>
      </trkpt>
      <trkpt lat="44.37771" lon="7.10482">
        <ele>2414.3999023438</ele>
        <time>2024-09-13T12:04:51.000Z</time>
      </trkpt>
      <trkpt lat="44.37769" lon="7.10484">
        <ele>2414.3999023438</ele>
        <time>2024-09-13T12:04:52.000Z</time>
      </trkpt>
      <trkpt lat="44.37766" lon="7.10486">
        <ele>2414.3999023438</ele>
        <time>2024-09-13T12:04:53.000Z</time>
      </trkpt>
      <trkpt lat="44.3776" lon="7.10492">
        <ele>2414</ele>
        <time>2024-09-13T12:04:55.000Z</time>
      </trkpt>
      <trkpt lat="44.37758" lon="7.10498">
        <ele>2413.8000488281</ele>
        <time>2024-09-13T12:04:56.000Z</time>
      </trkpt>
      <trkpt lat="44.37756" lon="7.10503">
        <ele>2413.8000488281</ele>
        <time>2024-09-13T12:04:57.000Z</time>
      </trkpt>
      <trkpt lat="44.37753" lon="7.10506">
        <ele>2413.8000488281</ele>
        <time>2024-09-13T12:04:58.000Z</time>
      </trkpt>
      <trkpt lat="44.3775" lon="7.10507">
        <ele>2413.3999023438</ele>
        <time>2024-09-13T12:04:59.000Z</time>
      </trkpt>
      <trkpt lat="44.37746" lon="7.10509">
        <ele>2413.1999511719</ele>
        <time>2024-09-13T12:05:00.000Z</time>
      </trkpt>
      <trkpt lat="44.37744" lon="7.10512">
        <ele>2413.1999511719</ele>
        <time>2024-09-13T12:05:01.000Z</time>
      </trkpt>
      <trkpt lat="44.37742" lon="7.10516">
        <ele>2413.1999511719</ele>
        <time>2024-09-13T12:05:02.000Z</time>
      </trkpt>
      <trkpt lat="44.3774" lon="7.1052">
        <ele>2413.1999511719</ele>
        <time>2024-09-13T12:05:03.000Z</time>
      </trkpt>
      <trkpt lat="44.37737" lon="7.10524">
        <ele>2412.8000488281</ele>
        <time>2024-09-13T12:05:04.000Z</time>
      </trkpt>
      <trkpt lat="44.37736" lon="7.10529">
        <ele>2412.3999023438</ele>
        <time>2024-09-13T12:05:05.000Z</time>
      </trkpt>
      <trkpt lat="44.37735" lon="7.10533">
        <ele>2412.1999511719</ele>
        <time>2024-09-13T12:05:06.000Z</time>
      </trkpt>
      <trkpt lat="44.37734" lon="7.10536">
        <ele>2412</ele>
        <time>2024-09-13T12:05:07.000Z</time>
      </trkpt>
      <trkpt lat="44.37732" lon="7.1054">
        <ele>2412</ele>
        <time>2024-09-13T12:05:08.000Z</time>
      </trkpt>
      <trkpt lat="44.3773" lon="7.10543">
        <ele>2412</ele>
        <time>2024-09-13T12:05:09.000Z</time>
      </trkpt>
      <trkpt lat="44.37727" lon="7.10546">
        <ele>2412</ele>
        <time>2024-09-13T12:05:10.000Z</time>
      </trkpt>
      <trkpt lat="44.37725" lon="7.10548">
        <ele>2412.1999511719</ele>
        <time>2024-09-13T12:05:11.000Z</time>
      </trkpt>
      <trkpt lat="44.37722" lon="7.1055">
        <ele>2412.6000976562</ele>
        <time>2024-09-13T12:05:12.000Z</time>
      </trkpt>
      <trkpt lat="44.37719" lon="7.10551">
        <ele>2413.1999511719</ele>
        <time>2024-09-13T12:05:13.000Z</time>
      </trkpt>
      <trkpt lat="44.37718" lon="7.1055">
        <ele>2413.3999023438</ele>
        <time>2024-09-13T12:05:14.000Z</time>
      </trkpt>
      <trkpt lat="44.37718" lon="7.1055">
        <ele>2413.8000488281</ele>
        <time>2024-09-13T12:05:15.000Z</time>
      </trkpt>
      <trkpt lat="44.37717" lon="7.10552">
        <ele>2413.6000976562</ele>
        <time>2024-09-13T12:05:20.000Z</time>
      </trkpt>
      <trkpt lat="44.37717" lon="7.10552">
        <ele>2413.1999511719</ele>
        <time>2024-09-13T12:05:21.000Z</time>
      </trkpt>
      <trkpt lat="44.37717" lon="7.10553">
        <ele>2413.1999511719</ele>
        <time>2024-09-13T12:05:26.000Z</time>
      </trkpt>
      <trkpt lat="44.37717" lon="7.10552">
        <ele>2413</ele>
        <time>2024-09-13T12:05:32.000Z</time>
      </trkpt>
      <trkpt lat="44.37717" lon="7.10552">
        <ele>2412.6000976562</ele>
        <time>2024-09-13T12:05:37.000Z</time>
      </trkpt>
      <trkpt lat="44.37719" lon="7.10551">
        <ele>2412.3999023438</ele>
        <time>2024-09-13T12:05:40.000Z</time>
      </trkpt>
      <trkpt lat="44.3772" lon="7.10551">
        <ele>2412.3999023438</ele>
        <time>2024-09-13T12:05:41.000Z</time>
      </trkpt>
      <trkpt lat="44.37722" lon="7.1055">
        <ele>2412.6000976562</ele>
        <time>2024-09-13T12:05:43.000Z</time>
      </trkpt>
      <trkpt lat="44.37723" lon="7.10549">
        <ele>2412.8000488281</ele>
        <time>2024-09-13T12:05:44.000Z</time>
      </trkpt>
      <trkpt lat="44.37726" lon="7.10547">
        <ele>2412.8000488281</ele>
        <time>2024-09-13T12:05:47.000Z</time>
      </trkpt>
      <trkpt lat="44.37726" lon="7.10547">
        <ele>2412.8000488281</ele>
        <time>2024-09-13T12:05:48.000Z</time>
      </trkpt>
      <trkpt lat="44.37727" lon="7.10544">
        <ele>2412.8000488281</ele>
        <time>2024-09-13T12:05:49.000Z</time>
      </trkpt>
      <trkpt lat="44.37728" lon="7.1054">
        <ele>2412.6000976562</ele>
        <time>2024-09-13T12:05:52.000Z</time>
      </trkpt>
      <trkpt lat="44.37728" lon="7.1054">
        <ele>2412.6000976562</ele>
        <time>2024-09-13T12:05:54.000Z</time>
      </trkpt>
      <trkpt lat="44.37729" lon="7.10539">
        <ele>2412.6000976562</ele>
        <time>2024-09-13T12:05:56.000Z</time>
      </trkpt>
      <trkpt lat="44.3773" lon="7.10539">
        <ele>2412.6000976562</ele>
        <time>2024-09-13T12:06:00.000Z</time>
      </trkpt>
      <trkpt lat="44.3773" lon="7.10539">
        <ele>2412.8000488281</ele>
        <time>2024-09-13T12:06:04.000Z</time>
      </trkpt>
      <trkpt lat="44.3773" lon="7.10539">
        <ele>2412.8000488281</ele>
        <time>2024-09-13T12:06:05.000Z</time>
      </trkpt>
      <trkpt lat="44.37727" lon="7.10545">
        <ele>2412.8000488281</ele>
        <time>2024-09-13T12:06:08.000Z</time>
      </trkpt>
      <trkpt lat="44.37725" lon="7.10548">
        <ele>2412.8000488281</ele>
        <time>2024-09-13T12:06:10.000Z</time>
      </trkpt>
      <trkpt lat="44.37725" lon="7.10548">
        <ele>2412.8000488281</ele>
        <time>2024-09-13T12:06:11.000Z</time>
      </trkpt>
      <trkpt lat="44.37725" lon="7.10548">
        <ele>2412.8000488281</ele>
        <time>2024-09-13T12:06:12.000Z</time>
      </trkpt>
      <trkpt lat="44.37724" lon="7.10549">
        <ele>2412.8000488281</ele>
        <time>2024-09-13T12:06:13.000Z</time>
      </trkpt>
      <trkpt lat="44.37718" lon="7.10551">
        <ele>2411.8000488281</ele>
        <time>2024-09-13T12:06:16.000Z</time>
      </trkpt>
      <trkpt lat="44.37717" lon="7.10551">
        <ele>2411.8000488281</ele>
        <time>2024-09-13T12:06:17.000Z</time>
      </trkpt>
      <trkpt lat="44.37717" lon="7.10552">
        <ele>2412</ele>
        <time>2024-09-13T12:06:26.000Z</time>
      </trkpt>
      <trkpt lat="44.37719" lon="7.10552">
        <ele>2412</ele>
        <time>2024-09-13T12:06:30.000Z</time>
      </trkpt>
      <trkpt lat="44.37719" lon="7.10551">
        <ele>2412.3999023438</ele>
        <time>2024-09-13T12:06:32.000Z</time>
      </trkpt>
      <trkpt lat="44.37719" lon="7.10551">
        <ele>2412.3999023438</ele>
        <time>2024-09-13T12:06:33.000Z</time>
      </trkpt>
      <trkpt lat="44.37718" lon="7.10551">
        <ele>2412.3999023438</ele>
        <time>2024-09-13T12:06:34.000Z</time>
      </trkpt>
      <trkpt lat="44.37718" lon="7.10551">
        <ele>2412.3999023438</ele>
        <time>2024-09-13T12:06:35.000Z</time>
      </trkpt>
      <trkpt lat="44.37718" lon="7.10551">
        <ele>2412.3999023438</ele>
        <time>2024-09-13T12:06:36.000Z</time>
      </trkpt>
      <trkpt lat="44.37714" lon="7.10555">
        <ele>2411.3999023438</ele>
        <time>2024-09-13T12:06:39.000Z</time>
      </trkpt>
      <trkpt lat="44.37713" lon="7.10557">
        <ele>2411.1999511719</ele>
        <time>2024-09-13T12:06:40.000Z</time>
      </trkpt>
      <trkpt lat="44.37706" lon="7.10565">
        <ele>2410.1999511719</ele>
        <time>2024-09-13T12:06:44.000Z</time>
      </trkpt>
      <trkpt lat="44.377" lon="7.10574">
        <ele>2409.3999023438</ele>
        <time>2024-09-13T12:06:47.000Z</time>
      </trkpt>
      <trkpt lat="44.37698" lon="7.10575">
        <ele>2409.3999023438</ele>
        <time>2024-09-13T12:06:48.000Z</time>
      </trkpt>
      <trkpt lat="44.37696" lon="7.10576">
        <ele>2409.1999511719</ele>
        <time>2024-09-13T12:06:49.000Z</time>
      </trkpt>
      <trkpt lat="44.37693" lon="7.10578">
        <ele>2409</ele>
        <time>2024-09-13T12:06:50.000Z</time>
      </trkpt>
      <trkpt lat="44.37689" lon="7.10582">
        <ele>2409</ele>
        <time>2024-09-13T12:06:51.000Z</time>
      </trkpt>
      <trkpt lat="44.37686" lon="7.10586">
        <ele>2408.6000976562</ele>
        <time>2024-09-13T12:06:52.000Z</time>
      </trkpt>
      <trkpt lat="44.37683" lon="7.10591">
        <ele>2408</ele>
        <time>2024-09-13T12:06:53.000Z</time>
      </trkpt>
      <trkpt lat="44.37679" lon="7.10597">
        <ele>2407.3999023438</ele>
        <time>2024-09-13T12:06:54.000Z</time>
      </trkpt>
      <trkpt lat="44.37676" lon="7.10602">
        <ele>2406.1999511719</ele>
        <time>2024-09-13T12:06:55.000Z</time>
      </trkpt>
      <trkpt lat="44.37673" lon="7.10607">
        <ele>2405.6000976562</ele>
        <time>2024-09-13T12:06:56.000Z</time>
      </trkpt>
      <trkpt lat="44.37669" lon="7.10612">
        <ele>2405</ele>
        <time>2024-09-13T12:06:57.000Z</time>
      </trkpt>
      <trkpt lat="44.37667" lon="7.10614">
        <ele>2405</ele>
        <time>2024-09-13T12:06:58.000Z</time>
      </trkpt>
      <trkpt lat="44.37665" lon="7.10618">
        <ele>2405.1999511719</ele>
        <time>2024-09-13T12:06:59.000Z</time>
      </trkpt>
      <trkpt lat="44.37663" lon="7.10622">
        <ele>2405.6000976562</ele>
        <time>2024-09-13T12:07:00.000Z</time>
      </trkpt>
      <trkpt lat="44.37662" lon="7.10625">
        <ele>2405.6000976562</ele>
        <time>2024-09-13T12:07:01.000Z</time>
      </trkpt>
      <trkpt lat="44.3766" lon="7.10626">
        <ele>2406</ele>
        <time>2024-09-13T12:07:02.000Z</time>
      </trkpt>
      <trkpt lat="44.37659" lon="7.10628">
        <ele>2406.1999511719</ele>
        <time>2024-09-13T12:07:03.000Z</time>
      </trkpt>
      <trkpt lat="44.37658" lon="7.1063">
        <ele>2406.6000976562</ele>
        <time>2024-09-13T12:07:04.000Z</time>
      </trkpt>
      <trkpt lat="44.37656" lon="7.10633">
        <ele>2407</ele>
        <time>2024-09-13T12:07:05.000Z</time>
      </trkpt>
      <trkpt lat="44.37654" lon="7.10636">
        <ele>2407.1999511719</ele>
        <time>2024-09-13T12:07:06.000Z</time>
      </trkpt>
      <trkpt lat="44.37653" lon="7.10638">
        <ele>2407.3999023438</ele>
        <time>2024-09-13T12:07:07.000Z</time>
      </trkpt>
      <trkpt lat="44.37651" lon="7.1064">
        <ele>2407.3999023438</ele>
        <time>2024-09-13T12:07:08.000Z</time>
      </trkpt>
      <trkpt lat="44.3765" lon="7.10642">
        <ele>2407.3999023438</ele>
        <time>2024-09-13T12:07:09.000Z</time>
      </trkpt>
      <trkpt lat="44.37649" lon="7.10645">
        <ele>2407.3999023438</ele>
        <time>2024-09-13T12:07:10.000Z</time>
      </trkpt>
      <trkpt lat="44.37646" lon="7.10646">
        <ele>2407.3999023438</ele>
        <time>2024-09-13T12:07:11.000Z</time>
      </trkpt>
      <trkpt lat="44.37645" lon="7.10648">
        <ele>2407.1999511719</ele>
        <time>2024-09-13T12:07:12.000Z</time>
      </trkpt>
      <trkpt lat="44.37644" lon="7.1065">
        <ele>2407</ele>
        <time>2024-09-13T12:07:13.000Z</time>
      </trkpt>
      <trkpt lat="44.37644" lon="7.10652">
        <ele>2407</ele>
        <time>2024-09-13T12:07:14.000Z</time>
      </trkpt>
      <trkpt lat="44.37642" lon="7.10655">
        <ele>2407</ele>
        <time>2024-09-13T12:07:16.000Z</time>
      </trkpt>
      <trkpt lat="44.37639" lon="7.10661">
        <ele>2407.1999511719</ele>
        <time>2024-09-13T12:07:18.000Z</time>
      </trkpt>
      <trkpt lat="44.37638" lon="7.10663">
        <ele>2407.1999511719</ele>
        <time>2024-09-13T12:07:19.000Z</time>
      </trkpt>
      <trkpt lat="44.37637" lon="7.10664">
        <ele>2407.3999023438</ele>
        <time>2024-09-13T12:07:20.000Z</time>
      </trkpt>
      <trkpt lat="44.37636" lon="7.10665">
        <ele>2407.3999023438</ele>
        <time>2024-09-13T12:07:21.000Z</time>
      </trkpt>
      <trkpt lat="44.37635" lon="7.10666">
        <ele>2407.3999023438</ele>
        <time>2024-09-13T12:07:22.000Z</time>
      </trkpt>
      <trkpt lat="44.37634" lon="7.10667">
        <ele>2407.8000488281</ele>
        <time>2024-09-13T12:07:23.000Z</time>
      </trkpt>
      <trkpt lat="44.3763" lon="7.10675">
        <ele>2407.8000488281</ele>
        <time>2024-09-13T12:07:26.000Z</time>
      </trkpt>
      <trkpt lat="44.37628" lon="7.10677">
        <ele>2407.8000488281</ele>
        <time>2024-09-13T12:07:27.000Z</time>
      </trkpt>
      <trkpt lat="44.37627" lon="7.10679">
        <ele>2407.8000488281</ele>
        <time>2024-09-13T12:07:28.000Z</time>
      </trkpt>
      <trkpt lat="44.37626" lon="7.10681">
        <ele>2407.8000488281</ele>
        <time>2024-09-13T12:07:29.000Z</time>
      </trkpt>
      <trkpt lat="44.37624" lon="7.10683">
        <ele>2407.8000488281</ele>
        <time>2024-09-13T12:07:30.000Z</time>
      </trkpt>
      <trkpt lat="44.37623" lon="7.10685">
        <ele>2407.8000488281</ele>
        <time>2024-09-13T12:07:31.000Z</time>
      </trkpt>
      <trkpt lat="44.37621" lon="7.10688">
        <ele>2408</ele>
        <time>2024-09-13T12:07:33.000Z</time>
      </trkpt>
      <trkpt lat="44.3762" lon="7.10689">
        <ele>2408.3999023438</ele>
        <time>2024-09-13T12:07:34.000Z</time>
      </trkpt>
      <trkpt lat="44.37618" lon="7.10691">
        <ele>2408.6000976562</ele>
        <time>2024-09-13T12:07:35.000Z</time>
      </trkpt>
      <trkpt lat="44.37617" lon="7.10693">
        <ele>2408.6000976562</ele>
        <time>2024-09-13T12:07:36.000Z</time>
      </trkpt>
      <trkpt lat="44.37617" lon="7.10695">
        <ele>2408.8000488281</ele>
        <time>2024-09-13T12:07:37.000Z</time>
      </trkpt>
      <trkpt lat="44.37614" lon="7.10698">
        <ele>2408.8000488281</ele>
        <time>2024-09-13T12:07:39.000Z</time>
      </trkpt>
      <trkpt lat="44.37613" lon="7.107">
        <ele>2408.8000488281</ele>
        <time>2024-09-13T12:07:40.000Z</time>
      </trkpt>
      <trkpt lat="44.37612" lon="7.10703">
        <ele>2408.8000488281</ele>
        <time>2024-09-13T12:07:41.000Z</time>
      </trkpt>
      <trkpt lat="44.37608" lon="7.10712">
        <ele>2409.1999511719</ele>
        <time>2024-09-13T12:07:46.000Z</time>
      </trkpt>
      <trkpt lat="44.37607" lon="7.10714">
        <ele>2409.3999023438</ele>
        <time>2024-09-13T12:07:47.000Z</time>
      </trkpt>
      <trkpt lat="44.37607" lon="7.10715">
        <ele>2409.6000976562</ele>
        <time>2024-09-13T12:07:48.000Z</time>
      </trkpt>
      <trkpt lat="44.37604" lon="7.10719">
        <ele>2410.1999511719</ele>
        <time>2024-09-13T12:07:50.000Z</time>
      </trkpt>
      <trkpt lat="44.37603" lon="7.10721">
        <ele>2410.3999023438</ele>
        <time>2024-09-13T12:07:51.000Z</time>
      </trkpt>
      <trkpt lat="44.37603" lon="7.10722">
        <ele>2410.6000976562</ele>
        <time>2024-09-13T12:07:52.000Z</time>
      </trkpt>
      <trkpt lat="44.37602" lon="7.10723">
        <ele>2410.6000976562</ele>
        <time>2024-09-13T12:07:53.000Z</time>
      </trkpt>
      <trkpt lat="44.37601" lon="7.10725">
        <ele>2410.8000488281</ele>
        <time>2024-09-13T12:07:54.000Z</time>
      </trkpt>
      <trkpt lat="44.376" lon="7.10726">
        <ele>2411</ele>
        <time>2024-09-13T12:07:55.000Z</time>
      </trkpt>
      <trkpt lat="44.376" lon="7.10728">
        <ele>2411.1999511719</ele>
        <time>2024-09-13T12:07:56.000Z</time>
      </trkpt>
      <trkpt lat="44.37599" lon="7.1073">
        <ele>2411.3999023438</ele>
        <time>2024-09-13T12:07:57.000Z</time>
      </trkpt>
      <trkpt lat="44.37598" lon="7.10732">
        <ele>2411.3999023438</ele>
        <time>2024-09-13T12:07:58.000Z</time>
      </trkpt>
      <trkpt lat="44.37597" lon="7.10733">
        <ele>2411.3999023438</ele>
        <time>2024-09-13T12:07:59.000Z</time>
      </trkpt>
      <trkpt lat="44.37597" lon="7.10735">
        <ele>2411.6000976562</ele>
        <time>2024-09-13T12:08:00.000Z</time>
      </trkpt>
      <trkpt lat="44.37596" lon="7.10737">
        <ele>2411.6000976562</ele>
        <time>2024-09-13T12:08:01.000Z</time>
      </trkpt>
      <trkpt lat="44.37595" lon="7.10739">
        <ele>2411.6000976562</ele>
        <time>2024-09-13T12:08:02.000Z</time>
      </trkpt>
      <trkpt lat="44.37595" lon="7.1074">
        <ele>2411.6000976562</ele>
        <time>2024-09-13T12:08:03.000Z</time>
      </trkpt>
      <trkpt lat="44.37594" lon="7.10742">
        <ele>2411.8000488281</ele>
        <time>2024-09-13T12:08:04.000Z</time>
      </trkpt>
      <trkpt lat="44.37593" lon="7.10745">
        <ele>2412</ele>
        <time>2024-09-13T12:08:05.000Z</time>
      </trkpt>
      <trkpt lat="44.37592" lon="7.10747">
        <ele>2412.1999511719</ele>
        <time>2024-09-13T12:08:06.000Z</time>
      </trkpt>
      <trkpt lat="44.37591" lon="7.10749">
        <ele>2412.1999511719</ele>
        <time>2024-09-13T12:08:07.000Z</time>
      </trkpt>
      <trkpt lat="44.3759" lon="7.10751">
        <ele>2412.3999023438</ele>
        <time>2024-09-13T12:08:08.000Z</time>
      </trkpt>
      <trkpt lat="44.37589" lon="7.10752">
        <ele>2412.6000976562</ele>
        <time>2024-09-13T12:08:09.000Z</time>
      </trkpt>
      <trkpt lat="44.37589" lon="7.10754">
        <ele>2412.8000488281</ele>
        <time>2024-09-13T12:08:10.000Z</time>
      </trkpt>
      <trkpt lat="44.37588" lon="7.10756">
        <ele>2413</ele>
        <time>2024-09-13T12:08:11.000Z</time>
      </trkpt>
      <trkpt lat="44.37587" lon="7.10758">
        <ele>2413.1999511719</ele>
        <time>2024-09-13T12:08:12.000Z</time>
      </trkpt>
      <trkpt lat="44.37586" lon="7.1076">
        <ele>2413.3999023438</ele>
        <time>2024-09-13T12:08:13.000Z</time>
      </trkpt>
      <trkpt lat="44.37585" lon="7.10762">
        <ele>2413.3999023438</ele>
        <time>2024-09-13T12:08:14.000Z</time>
      </trkpt>
      <trkpt lat="44.37585" lon="7.10764">
        <ele>2413.3999023438</ele>
        <time>2024-09-13T12:08:15.000Z</time>
      </trkpt>
      <trkpt lat="44.37584" lon="7.10766">
        <ele>2413.3999023438</ele>
        <time>2024-09-13T12:08:16.000Z</time>
      </trkpt>
      <trkpt lat="44.37583" lon="7.10769">
        <ele>2413.6000976562</ele>
        <time>2024-09-13T12:08:17.000Z</time>
      </trkpt>
      <trkpt lat="44.37583" lon="7.10771">
        <ele>2413.6000976562</ele>
        <time>2024-09-13T12:08:18.000Z</time>
      </trkpt>
      <trkpt lat="44.37582" lon="7.10772">
        <ele>2413.6000976562</ele>
        <time>2024-09-13T12:08:19.000Z</time>
      </trkpt>
      <trkpt lat="44.37582" lon="7.10774">
        <ele>2413.8000488281</ele>
        <time>2024-09-13T12:08:20.000Z</time>
      </trkpt>
      <trkpt lat="44.37581" lon="7.10776">
        <ele>2413.8000488281</ele>
        <time>2024-09-13T12:08:21.000Z</time>
      </trkpt>
      <trkpt lat="44.3758" lon="7.10777">
        <ele>2414</ele>
        <time>2024-09-13T12:08:22.000Z</time>
      </trkpt>
      <trkpt lat="44.37579" lon="7.10779">
        <ele>2414.1999511719</ele>
        <time>2024-09-13T12:08:23.000Z</time>
      </trkpt>
      <trkpt lat="44.37578" lon="7.10782">
        <ele>2414.1999511719</ele>
        <time>2024-09-13T12:08:24.000Z</time>
      </trkpt>
      <trkpt lat="44.37577" lon="7.10785">
        <ele>2414.1999511719</ele>
        <time>2024-09-13T12:08:25.000Z</time>
      </trkpt>
      <trkpt lat="44.37577" lon="7.10788">
        <ele>2414.1999511719</ele>
        <time>2024-09-13T12:08:26.000Z</time>
      </trkpt>
      <trkpt lat="44.37576" lon="7.10791">
        <ele>2414.1999511719</ele>
        <time>2024-09-13T12:08:27.000Z</time>
      </trkpt>
      <trkpt lat="44.37576" lon="7.10794">
        <ele>2414</ele>
        <time>2024-09-13T12:08:28.000Z</time>
      </trkpt>
      <trkpt lat="44.37575" lon="7.10796">
        <ele>2414</ele>
        <time>2024-09-13T12:08:29.000Z</time>
      </trkpt>
      <trkpt lat="44.37575" lon="7.10799">
        <ele>2414</ele>
        <time>2024-09-13T12:08:30.000Z</time>
      </trkpt>
      <trkpt lat="44.37574" lon="7.10801">
        <ele>2414</ele>
        <time>2024-09-13T12:08:31.000Z</time>
      </trkpt>
      <trkpt lat="44.37573" lon="7.10806">
        <ele>2414.1999511719</ele>
        <time>2024-09-13T12:08:33.000Z</time>
      </trkpt>
      <trkpt lat="44.37572" lon="7.10808">
        <ele>2414.3999023438</ele>
        <time>2024-09-13T12:08:34.000Z</time>
      </trkpt>
      <trkpt lat="44.37572" lon="7.10809">
        <ele>2415</ele>
        <time>2024-09-13T12:08:35.000Z</time>
      </trkpt>
      <trkpt lat="44.37571" lon="7.10813">
        <ele>2415.3999023438</ele>
        <time>2024-09-13T12:08:37.000Z</time>
      </trkpt>
      <trkpt lat="44.3757" lon="7.10816">
        <ele>2415.3999023438</ele>
        <time>2024-09-13T12:08:38.000Z</time>
      </trkpt>
      <trkpt lat="44.37569" lon="7.10824">
        <ele>2415.3999023438</ele>
        <time>2024-09-13T12:08:40.000Z</time>
      </trkpt>
      <trkpt lat="44.37568" lon="7.10827">
        <ele>2415.3999023438</ele>
        <time>2024-09-13T12:08:41.000Z</time>
      </trkpt>
      <trkpt lat="44.37568" lon="7.10829">
        <ele>2415.3999023438</ele>
        <time>2024-09-13T12:08:42.000Z</time>
      </trkpt>
      <trkpt lat="44.37567" lon="7.1083">
        <ele>2415.3999023438</ele>
        <time>2024-09-13T12:08:43.000Z</time>
      </trkpt>
      <trkpt lat="44.37566" lon="7.10833">
        <ele>2416</ele>
        <time>2024-09-13T12:08:45.000Z</time>
      </trkpt>
      <trkpt lat="44.37562" lon="7.1085">
        <ele>2416.1999511719</ele>
        <time>2024-09-13T12:08:50.000Z</time>
      </trkpt>
      <trkpt lat="44.37561" lon="7.10852">
        <ele>2416</ele>
        <time>2024-09-13T12:08:51.000Z</time>
      </trkpt>
      <trkpt lat="44.3756" lon="7.10855">
        <ele>2416</ele>
        <time>2024-09-13T12:08:52.000Z</time>
      </trkpt>
      <trkpt lat="44.37559" lon="7.10857">
        <ele>2416</ele>
        <time>2024-09-13T12:08:53.000Z</time>
      </trkpt>
      <trkpt lat="44.37558" lon="7.1086">
        <ele>2416</ele>
        <time>2024-09-13T12:08:54.000Z</time>
      </trkpt>
      <trkpt lat="44.37557" lon="7.10862">
        <ele>2416.1999511719</ele>
        <time>2024-09-13T12:08:55.000Z</time>
      </trkpt>
      <trkpt lat="44.37557" lon="7.10864">
        <ele>2416.6000976562</ele>
        <time>2024-09-13T12:08:56.000Z</time>
      </trkpt>
      <trkpt lat="44.37556" lon="7.10866">
        <ele>2416.8000488281</ele>
        <time>2024-09-13T12:08:57.000Z</time>
      </trkpt>
      <trkpt lat="44.37556" lon="7.10868">
        <ele>2416.8000488281</ele>
        <time>2024-09-13T12:08:58.000Z</time>
      </trkpt>
      <trkpt lat="44.37554" lon="7.10879">
        <ele>2417</ele>
        <time>2024-09-13T12:09:00.000Z</time>
      </trkpt>
      <trkpt lat="44.37551" lon="7.10889">
        <ele>2416.6000976562</ele>
        <time>2024-09-13T12:09:02.000Z</time>
      </trkpt>
      <trkpt lat="44.37551" lon="7.10894">
        <ele>2416.3999023438</ele>
        <time>2024-09-13T12:09:03.000Z</time>
      </trkpt>
      <trkpt lat="44.37551" lon="7.10898">
        <ele>2416.1999511719</ele>
        <time>2024-09-13T12:09:04.000Z</time>
      </trkpt>
      <trkpt lat="44.3755" lon="7.10901">
        <ele>2416.1999511719</ele>
        <time>2024-09-13T12:09:05.000Z</time>
      </trkpt>
      <trkpt lat="44.3755" lon="7.10903">
        <ele>2416.3999023438</ele>
        <time>2024-09-13T12:09:06.000Z</time>
      </trkpt>
      <trkpt lat="44.37545" lon="7.10915">
        <ele>2416.3999023438</ele>
        <time>2024-09-13T12:09:09.000Z</time>
      </trkpt>
      <trkpt lat="44.37544" lon="7.10919">
        <ele>2416.3999023438</ele>
        <time>2024-09-13T12:09:10.000Z</time>
      </trkpt>
      <trkpt lat="44.37544" lon="7.10922">
        <ele>2416.6000976562</ele>
        <time>2024-09-13T12:09:11.000Z</time>
      </trkpt>
      <trkpt lat="44.37543" lon="7.10925">
        <ele>2416.6000976562</ele>
        <time>2024-09-13T12:09:12.000Z</time>
      </trkpt>
      <trkpt lat="44.37543" lon="7.10928">
        <ele>2416.6000976562</ele>
        <time>2024-09-13T12:09:13.000Z</time>
      </trkpt>
      <trkpt lat="44.37542" lon="7.10931">
        <ele>2416.6000976562</ele>
        <time>2024-09-13T12:09:14.000Z</time>
      </trkpt>
      <trkpt lat="44.37542" lon="7.10933">
        <ele>2416.6000976562</ele>
        <time>2024-09-13T12:09:15.000Z</time>
      </trkpt>
      <trkpt lat="44.37541" lon="7.10939">
        <ele>2416.6000976562</ele>
        <time>2024-09-13T12:09:17.000Z</time>
      </trkpt>
      <trkpt lat="44.3754" lon="7.10942">
        <ele>2416.8000488281</ele>
        <time>2024-09-13T12:09:18.000Z</time>
      </trkpt>
      <trkpt lat="44.37536" lon="7.10951">
        <ele>2416.8000488281</ele>
        <time>2024-09-13T12:09:21.000Z</time>
      </trkpt>
      <trkpt lat="44.37533" lon="7.10957">
        <ele>2416.8000488281</ele>
        <time>2024-09-13T12:09:23.000Z</time>
      </trkpt>
      <trkpt lat="44.37532" lon="7.10959">
        <ele>2416.8000488281</ele>
        <time>2024-09-13T12:09:24.000Z</time>
      </trkpt>
      <trkpt lat="44.37532" lon="7.10962">
        <ele>2416.8000488281</ele>
        <time>2024-09-13T12:09:25.000Z</time>
      </trkpt>
      <trkpt lat="44.37532" lon="7.10967">
        <ele>2417</ele>
        <time>2024-09-13T12:09:27.000Z</time>
      </trkpt>
      <trkpt lat="44.3753" lon="7.10973">
        <ele>2417</ele>
        <time>2024-09-13T12:09:29.000Z</time>
      </trkpt>
      <trkpt lat="44.37529" lon="7.10976">
        <ele>2416.8000488281</ele>
        <time>2024-09-13T12:09:30.000Z</time>
      </trkpt>
      <trkpt lat="44.37528" lon="7.10978">
        <ele>2417</ele>
        <time>2024-09-13T12:09:31.000Z</time>
      </trkpt>
      <trkpt lat="44.37528" lon="7.10981">
        <ele>2417</ele>
        <time>2024-09-13T12:09:32.000Z</time>
      </trkpt>
      <trkpt lat="44.37527" lon="7.10984">
        <ele>2417</ele>
        <time>2024-09-13T12:09:33.000Z</time>
      </trkpt>
      <trkpt lat="44.37526" lon="7.10986">
        <ele>2417.1999511719</ele>
        <time>2024-09-13T12:09:34.000Z</time>
      </trkpt>
      <trkpt lat="44.37526" lon="7.10989">
        <ele>2417.1999511719</ele>
        <time>2024-09-13T12:09:35.000Z</time>
      </trkpt>
      <trkpt lat="44.3752" lon="7.11003">
        <ele>2417</ele>
        <time>2024-09-13T12:09:40.000Z</time>
      </trkpt>
      <trkpt lat="44.37519" lon="7.11006">
        <ele>2417</ele>
        <time>2024-09-13T12:09:41.000Z</time>
      </trkpt>
      <trkpt lat="44.37518" lon="7.11009">
        <ele>2417</ele>
        <time>2024-09-13T12:09:42.000Z</time>
      </trkpt>
      <trkpt lat="44.37517" lon="7.11012">
        <ele>2417.1999511719</ele>
        <time>2024-09-13T12:09:43.000Z</time>
      </trkpt>
      <trkpt lat="44.37516" lon="7.11015">
        <ele>2417.3999023438</ele>
        <time>2024-09-13T12:09:44.000Z</time>
      </trkpt>
      <trkpt lat="44.37515" lon="7.11018">
        <ele>2417.6000976562</ele>
        <time>2024-09-13T12:09:45.000Z</time>
      </trkpt>
      <trkpt lat="44.37515" lon="7.1102">
        <ele>2417.8000488281</ele>
        <time>2024-09-13T12:09:46.000Z</time>
      </trkpt>
      <trkpt lat="44.37512" lon="7.11027">
        <ele>2418</ele>
        <time>2024-09-13T12:09:49.000Z</time>
      </trkpt>
      <trkpt lat="44.37511" lon="7.1103">
        <ele>2418.1999511719</ele>
        <time>2024-09-13T12:09:50.000Z</time>
      </trkpt>
      <trkpt lat="44.37509" lon="7.11032">
        <ele>2418.1999511719</ele>
        <time>2024-09-13T12:09:51.000Z</time>
      </trkpt>
      <trkpt lat="44.37508" lon="7.11034">
        <ele>2418.3999023438</ele>
        <time>2024-09-13T12:09:52.000Z</time>
      </trkpt>
      <trkpt lat="44.37508" lon="7.11036">
        <ele>2418.3999023438</ele>
        <time>2024-09-13T12:09:53.000Z</time>
      </trkpt>
      <trkpt lat="44.37508" lon="7.11042">
        <ele>2418.3999023438</ele>
        <time>2024-09-13T12:09:55.000Z</time>
      </trkpt>
      <trkpt lat="44.37508" lon="7.11046">
        <ele>2418.3999023438</ele>
        <time>2024-09-13T12:09:56.000Z</time>
      </trkpt>
      <trkpt lat="44.37508" lon="7.11049">
        <ele>2418.3999023438</ele>
        <time>2024-09-13T12:09:57.000Z</time>
      </trkpt>
      <trkpt lat="44.37508" lon="7.11052">
        <ele>2418.3999023438</ele>
        <time>2024-09-13T12:09:58.000Z</time>
      </trkpt>
      <trkpt lat="44.37509" lon="7.11064">
        <ele>2418.6000976562</ele>
        <time>2024-09-13T12:10:02.000Z</time>
      </trkpt>
      <trkpt lat="44.37509" lon="7.11066">
        <ele>2419</ele>
        <time>2024-09-13T12:10:03.000Z</time>
      </trkpt>
      <trkpt lat="44.3751" lon="7.11068">
        <ele>2419.6000976562</ele>
        <time>2024-09-13T12:10:04.000Z</time>
      </trkpt>
      <trkpt lat="44.3751" lon="7.11079">
        <ele>2420.1999511719</ele>
        <time>2024-09-13T12:10:08.000Z</time>
      </trkpt>
      <trkpt lat="44.3751" lon="7.11082">
        <ele>2420.1999511719</ele>
        <time>2024-09-13T12:10:09.000Z</time>
      </trkpt>
      <trkpt lat="44.37511" lon="7.11093">
        <ele>2420.1999511719</ele>
        <time>2024-09-13T12:10:12.000Z</time>
      </trkpt>
      <trkpt lat="44.37511" lon="7.11096">
        <ele>2420.1999511719</ele>
        <time>2024-09-13T12:10:13.000Z</time>
      </trkpt>
      <trkpt lat="44.37512" lon="7.11099">
        <ele>2420.1999511719</ele>
        <time>2024-09-13T12:10:14.000Z</time>
      </trkpt>
      <trkpt lat="44.37513" lon="7.11102">
        <ele>2420.1999511719</ele>
        <time>2024-09-13T12:10:15.000Z</time>
      </trkpt>
      <trkpt lat="44.37514" lon="7.11104">
        <ele>2420.1999511719</ele>
        <time>2024-09-13T12:10:16.000Z</time>
      </trkpt>
      <trkpt lat="44.37515" lon="7.11106">
        <ele>2420.1999511719</ele>
        <time>2024-09-13T12:10:17.000Z</time>
      </trkpt>
      <trkpt lat="44.37516" lon="7.11109">
        <ele>2420.3999023438</ele>
        <time>2024-09-13T12:10:18.000Z</time>
      </trkpt>
      <trkpt lat="44.37516" lon="7.11111">
        <ele>2420.6000976562</ele>
        <time>2024-09-13T12:10:19.000Z</time>
      </trkpt>
      <trkpt lat="44.37516" lon="7.11113">
        <ele>2420.8000488281</ele>
        <time>2024-09-13T12:10:20.000Z</time>
      </trkpt>
      <trkpt lat="44.37517" lon="7.11114">
        <ele>2421</ele>
        <time>2024-09-13T12:10:21.000Z</time>
      </trkpt>
      <trkpt lat="44.37517" lon="7.11115">
        <ele>2421.1999511719</ele>
        <time>2024-09-13T12:10:22.000Z</time>
      </trkpt>
      <trkpt lat="44.37523" lon="7.11124">
        <ele>2421.3999023438</ele>
        <time>2024-09-13T12:10:27.000Z</time>
      </trkpt>
      <trkpt lat="44.37524" lon="7.11126">
        <ele>2421.3999023438</ele>
        <time>2024-09-13T12:10:28.000Z</time>
      </trkpt>
      <trkpt lat="44.37526" lon="7.11129">
        <ele>2421.3999023438</ele>
        <time>2024-09-13T12:10:30.000Z</time>
      </trkpt>
      <trkpt lat="44.37528" lon="7.1113">
        <ele>2421.3999023438</ele>
        <time>2024-09-13T12:10:31.000Z</time>
      </trkpt>
      <trkpt lat="44.3753" lon="7.11134">
        <ele>2421.6000976562</ele>
        <time>2024-09-13T12:10:33.000Z</time>
      </trkpt>
      <trkpt lat="44.37531" lon="7.11135">
        <ele>2421.6000976562</ele>
        <time>2024-09-13T12:10:34.000Z</time>
      </trkpt>
      <trkpt lat="44.37533" lon="7.11139">
        <ele>2421.8000488281</ele>
        <time>2024-09-13T12:10:36.000Z</time>
      </trkpt>
      <trkpt lat="44.37534" lon="7.1114">
        <ele>2422</ele>
        <time>2024-09-13T12:10:37.000Z</time>
      </trkpt>
      <trkpt lat="44.37537" lon="7.11143">
        <ele>2422.3999023438</ele>
        <time>2024-09-13T12:10:39.000Z</time>
      </trkpt>
      <trkpt lat="44.37538" lon="7.11144">
        <ele>2422.6000976562</ele>
        <time>2024-09-13T12:10:40.000Z</time>
      </trkpt>
      <trkpt lat="44.37539" lon="7.11145">
        <ele>2422.8000488281</ele>
        <time>2024-09-13T12:10:41.000Z</time>
      </trkpt>
      <trkpt lat="44.37541" lon="7.11148">
        <ele>2423.1999511719</ele>
        <time>2024-09-13T12:10:43.000Z</time>
      </trkpt>
      <trkpt lat="44.37543" lon="7.11151">
        <ele>2423.8000488281</ele>
        <time>2024-09-13T12:10:45.000Z</time>
      </trkpt>
      <trkpt lat="44.37544" lon="7.11152">
        <ele>2424.1999511719</ele>
        <time>2024-09-13T12:10:46.000Z</time>
      </trkpt>
      <trkpt lat="44.37546" lon="7.11154">
        <ele>2424.6000976562</ele>
        <time>2024-09-13T12:10:47.000Z</time>
      </trkpt>
      <trkpt lat="44.37547" lon="7.11155">
        <ele>2425</ele>
        <time>2024-09-13T12:10:48.000Z</time>
      </trkpt>
      <trkpt lat="44.37547" lon="7.11156">
        <ele>2425.1999511719</ele>
        <time>2024-09-13T12:10:49.000Z</time>
      </trkpt>
      <trkpt lat="44.37548" lon="7.11157">
        <ele>2425.6000976562</ele>
        <time>2024-09-13T12:10:50.000Z</time>
      </trkpt>
      <trkpt lat="44.37549" lon="7.11159">
        <ele>2425.8000488281</ele>
        <time>2024-09-13T12:10:51.000Z</time>
      </trkpt>
      <trkpt lat="44.3755" lon="7.1116">
        <ele>2425.8000488281</ele>
        <time>2024-09-13T12:10:52.000Z</time>
      </trkpt>
      <trkpt lat="44.37551" lon="7.11162">
        <ele>2425.8000488281</ele>
        <time>2024-09-13T12:10:53.000Z</time>
      </trkpt>
      <trkpt lat="44.37552" lon="7.11163">
        <ele>2425.8000488281</ele>
        <time>2024-09-13T12:10:54.000Z</time>
      </trkpt>
      <trkpt lat="44.37553" lon="7.11164">
        <ele>2425.8000488281</ele>
        <time>2024-09-13T12:10:55.000Z</time>
      </trkpt>
      <trkpt lat="44.37554" lon="7.11165">
        <ele>2425.8000488281</ele>
        <time>2024-09-13T12:10:56.000Z</time>
      </trkpt>
      <trkpt lat="44.37555" lon="7.11167">
        <ele>2426</ele>
        <time>2024-09-13T12:10:57.000Z</time>
      </trkpt>
      <trkpt lat="44.37556" lon="7.11168">
        <ele>2426</ele>
        <time>2024-09-13T12:10:58.000Z</time>
      </trkpt>
      <trkpt lat="44.37556" lon="7.1117">
        <ele>2426</ele>
        <time>2024-09-13T12:10:59.000Z</time>
      </trkpt>
      <trkpt lat="44.37557" lon="7.11171">
        <ele>2426</ele>
        <time>2024-09-13T12:11:00.000Z</time>
      </trkpt>
      <trkpt lat="44.37558" lon="7.11172">
        <ele>2426.1999511719</ele>
        <time>2024-09-13T12:11:01.000Z</time>
      </trkpt>
      <trkpt lat="44.37559" lon="7.11174">
        <ele>2426.3999023438</ele>
        <time>2024-09-13T12:11:02.000Z</time>
      </trkpt>
      <trkpt lat="44.3756" lon="7.11175">
        <ele>2426.6000976562</ele>
        <time>2024-09-13T12:11:03.000Z</time>
      </trkpt>
      <trkpt lat="44.37561" lon="7.11176">
        <ele>2427</ele>
        <time>2024-09-13T12:11:04.000Z</time>
      </trkpt>
      <trkpt lat="44.37562" lon="7.11178">
        <ele>2427.1999511719</ele>
        <time>2024-09-13T12:11:05.000Z</time>
      </trkpt>
      <trkpt lat="44.37563" lon="7.11179">
        <ele>2427.3999023438</ele>
        <time>2024-09-13T12:11:06.000Z</time>
      </trkpt>
      <trkpt lat="44.37564" lon="7.11181">
        <ele>2427.1999511719</ele>
        <time>2024-09-13T12:11:07.000Z</time>
      </trkpt>
      <trkpt lat="44.37566" lon="7.11183">
        <ele>2427.1999511719</ele>
        <time>2024-09-13T12:11:08.000Z</time>
      </trkpt>
      <trkpt lat="44.37568" lon="7.11186">
        <ele>2427.1999511719</ele>
        <time>2024-09-13T12:11:09.000Z</time>
      </trkpt>
      <trkpt lat="44.37569" lon="7.11187">
        <ele>2427</ele>
        <time>2024-09-13T12:11:10.000Z</time>
      </trkpt>
      <trkpt lat="44.3757" lon="7.11189">
        <ele>2427</ele>
        <time>2024-09-13T12:11:11.000Z</time>
      </trkpt>
      <trkpt lat="44.37571" lon="7.1119">
        <ele>2427</ele>
        <time>2024-09-13T12:11:12.000Z</time>
      </trkpt>
      <trkpt lat="44.37572" lon="7.11191">
        <ele>2427</ele>
        <time>2024-09-13T12:11:13.000Z</time>
      </trkpt>
      <trkpt lat="44.37573" lon="7.11193">
        <ele>2427</ele>
        <time>2024-09-13T12:11:14.000Z</time>
      </trkpt>
      <trkpt lat="44.37574" lon="7.11196">
        <ele>2427.1999511719</ele>
        <time>2024-09-13T12:11:15.000Z</time>
      </trkpt>
      <trkpt lat="44.37574" lon="7.11198">
        <ele>2427.1999511719</ele>
        <time>2024-09-13T12:11:16.000Z</time>
      </trkpt>
      <trkpt lat="44.37575" lon="7.112">
        <ele>2427.1999511719</ele>
        <time>2024-09-13T12:11:17.000Z</time>
      </trkpt>
      <trkpt lat="44.37575" lon="7.11202">
        <ele>2427.1999511719</ele>
        <time>2024-09-13T12:11:18.000Z</time>
      </trkpt>
      <trkpt lat="44.37576" lon="7.11204">
        <ele>2427.3999023438</ele>
        <time>2024-09-13T12:11:19.000Z</time>
      </trkpt>
      <trkpt lat="44.37576" lon="7.11206">
        <ele>2427.6000976562</ele>
        <time>2024-09-13T12:11:20.000Z</time>
      </trkpt>
      <trkpt lat="44.37577" lon="7.11208">
        <ele>2427.8000488281</ele>
        <time>2024-09-13T12:11:21.000Z</time>
      </trkpt>
      <trkpt lat="44.37577" lon="7.11209">
        <ele>2427.8000488281</ele>
        <time>2024-09-13T12:11:22.000Z</time>
      </trkpt>
      <trkpt lat="44.37578" lon="7.11211">
        <ele>2428</ele>
        <time>2024-09-13T12:11:23.000Z</time>
      </trkpt>
      <trkpt lat="44.37578" lon="7.11215">
        <ele>2428.3999023438</ele>
        <time>2024-09-13T12:11:25.000Z</time>
      </trkpt>
      <trkpt lat="44.37579" lon="7.11217">
        <ele>2428.8000488281</ele>
        <time>2024-09-13T12:11:26.000Z</time>
      </trkpt>
      <trkpt lat="44.37579" lon="7.11219">
        <ele>2429</ele>
        <time>2024-09-13T12:11:27.000Z</time>
      </trkpt>
      <trkpt lat="44.37578" lon="7.11222">
        <ele>2429.6000976562</ele>
        <time>2024-09-13T12:11:29.000Z</time>
      </trkpt>
      <trkpt lat="44.37578" lon="7.11224">
        <ele>2429.8000488281</ele>
        <time>2024-09-13T12:11:30.000Z</time>
      </trkpt>
      <trkpt lat="44.37578" lon="7.11226">
        <ele>2429.8000488281</ele>
        <time>2024-09-13T12:11:31.000Z</time>
      </trkpt>
      <trkpt lat="44.37578" lon="7.11228">
        <ele>2430</ele>
        <time>2024-09-13T12:11:32.000Z</time>
      </trkpt>
      <trkpt lat="44.37577" lon="7.1123">
        <ele>2430</ele>
        <time>2024-09-13T12:11:33.000Z</time>
      </trkpt>
      <trkpt lat="44.37577" lon="7.11232">
        <ele>2430.1999511719</ele>
        <time>2024-09-13T12:11:34.000Z</time>
      </trkpt>
      <trkpt lat="44.37577" lon="7.11233">
        <ele>2430.3999023438</ele>
        <time>2024-09-13T12:11:35.000Z</time>
      </trkpt>
      <trkpt lat="44.37576" lon="7.11235">
        <ele>2430.6000976562</ele>
        <time>2024-09-13T12:11:36.000Z</time>
      </trkpt>
      <trkpt lat="44.37576" lon="7.11237">
        <ele>2430.8000488281</ele>
        <time>2024-09-13T12:11:37.000Z</time>
      </trkpt>
      <trkpt lat="44.37575" lon="7.11239">
        <ele>2431</ele>
        <time>2024-09-13T12:11:38.000Z</time>
      </trkpt>
      <trkpt lat="44.37575" lon="7.1124">
        <ele>2431</ele>
        <time>2024-09-13T12:11:39.000Z</time>
      </trkpt>
      <trkpt lat="44.37574" lon="7.11241">
        <ele>2431</ele>
        <time>2024-09-13T12:11:40.000Z</time>
      </trkpt>
      <trkpt lat="44.37573" lon="7.11243">
        <ele>2431.8000488281</ele>
        <time>2024-09-13T12:11:41.000Z</time>
      </trkpt>
      <trkpt lat="44.37573" lon="7.11244">
        <ele>2432.6000976562</ele>
        <time>2024-09-13T12:11:42.000Z</time>
      </trkpt>
      <trkpt lat="44.37573" lon="7.11246">
        <ele>2432.8000488281</ele>
        <time>2024-09-13T12:11:43.000Z</time>
      </trkpt>
      <trkpt lat="44.37573" lon="7.11247">
        <ele>2433.1999511719</ele>
        <time>2024-09-13T12:11:44.000Z</time>
      </trkpt>
      <trkpt lat="44.37574" lon="7.11249">
        <ele>2433.8000488281</ele>
        <time>2024-09-13T12:11:45.000Z</time>
      </trkpt>
      <trkpt lat="44.37574" lon="7.11248">
        <ele>2433.8000488281</ele>
        <time>2024-09-13T12:11:46.000Z</time>
      </trkpt>
      <trkpt lat="44.37574" lon="7.11249">
        <ele>2434.1999511719</ele>
        <time>2024-09-13T12:11:47.000Z</time>
      </trkpt>
      <trkpt lat="44.37574" lon="7.11249">
        <ele>2434.6000976562</ele>
        <time>2024-09-13T12:11:48.000Z</time>
      </trkpt>
      <trkpt lat="44.37575" lon="7.11249">
        <ele>2435.1999511719</ele>
        <time>2024-09-13T12:11:49.000Z</time>
      </trkpt>
      <trkpt lat="44.37575" lon="7.11249">
        <ele>2435.1999511719</ele>
        <time>2024-09-13T12:11:50.000Z</time>
      </trkpt>
      <trkpt lat="44.37575" lon="7.1125">
        <ele>2435.3999023438</ele>
        <time>2024-09-13T12:11:51.000Z</time>
      </trkpt>
      <trkpt lat="44.37575" lon="7.1125">
        <ele>2435.3999023438</ele>
        <time>2024-09-13T12:11:52.000Z</time>
      </trkpt>
      <trkpt lat="44.37574" lon="7.11251">
        <ele>2435.6000976562</ele>
        <time>2024-09-13T12:11:53.000Z</time>
      </trkpt>
      <trkpt lat="44.37574" lon="7.11251">
        <ele>2435.3999023438</ele>
        <time>2024-09-13T12:11:54.000Z</time>
      </trkpt>
      <trkpt lat="44.37574" lon="7.11251">
        <ele>2435.3999023438</ele>
        <time>2024-09-13T12:11:56.000Z</time>
      </trkpt>
      <trkpt lat="44.37573" lon="7.11251">
        <ele>2435.3999023438</ele>
        <time>2024-09-13T12:11:57.000Z</time>
      </trkpt>
      <trkpt lat="44.37573" lon="7.11251">
        <ele>2435.3999023438</ele>
        <time>2024-09-13T12:11:58.000Z</time>
      </trkpt>
      <trkpt lat="44.37573" lon="7.11251">
        <ele>2435.3999023438</ele>
        <time>2024-09-13T12:11:59.000Z</time>
      </trkpt>
      <trkpt lat="44.37573" lon="7.11251">
        <ele>2435.3999023438</ele>
        <time>2024-09-13T12:12:00.000Z</time>
      </trkpt>
      <trkpt lat="44.37574" lon="7.11251">
        <ele>2435.3999023438</ele>
        <time>2024-09-13T12:12:03.000Z</time>
      </trkpt>
      <trkpt lat="44.37574" lon="7.11251">
        <ele>2435.1999511719</ele>
        <time>2024-09-13T12:12:04.000Z</time>
      </trkpt>
      <trkpt lat="44.37575" lon="7.11249">
        <ele>2435.1999511719</ele>
        <time>2024-09-13T12:12:05.000Z</time>
      </trkpt>
      <trkpt lat="44.37574" lon="7.1125">
        <ele>2435</ele>
        <time>2024-09-13T12:12:06.000Z</time>
      </trkpt>
      <trkpt lat="44.37575" lon="7.1125">
        <ele>2435</ele>
        <time>2024-09-13T12:12:07.000Z</time>
      </trkpt>
      <trkpt lat="44.37574" lon="7.1125">
        <ele>2435</ele>
        <time>2024-09-13T12:12:08.000Z</time>
      </trkpt>
      <trkpt lat="44.37574" lon="7.11249">
        <ele>2434.8000488281</ele>
        <time>2024-09-13T12:12:10.000Z</time>
      </trkpt>
      <trkpt lat="44.37574" lon="7.1125">
        <ele>2434.8000488281</ele>
        <time>2024-09-13T12:12:14.000Z</time>
      </trkpt>
      <trkpt lat="44.37574" lon="7.1125">
        <ele>2435.1999511719</ele>
        <time>2024-09-13T12:12:15.000Z</time>
      </trkpt>
      <trkpt lat="44.37574" lon="7.1125">
        <ele>2435.1999511719</ele>
        <time>2024-09-13T12:12:16.000Z</time>
      </trkpt>
      <trkpt lat="44.37574" lon="7.1125">
        <ele>2434.6000976562</ele>
        <time>2024-09-13T12:12:21.000Z</time>
      </trkpt>
      <trkpt lat="44.37574" lon="7.1125">
        <ele>2434.3999023438</ele>
        <time>2024-09-13T12:12:25.000Z</time>
      </trkpt>
      <trkpt lat="44.37574" lon="7.1125">
        <ele>2434.3999023438</ele>
        <time>2024-09-13T12:12:26.000Z</time>
      </trkpt>
      <trkpt lat="44.37574" lon="7.1125">
        <ele>2434.3999023438</ele>
        <time>2024-09-13T12:12:27.000Z</time>
      </trkpt>
      <trkpt lat="44.37574" lon="7.1125">
        <ele>2433.8000488281</ele>
        <time>2024-09-13T12:12:29.000Z</time>
      </trkpt>
      <trkpt lat="44.37574" lon="7.1125">
        <ele>2433.6000976562</ele>
        <time>2024-09-13T12:12:31.000Z</time>
      </trkpt>
      <trkpt lat="44.37574" lon="7.1125">
        <ele>2433.3999023438</ele>
        <time>2024-09-13T12:12:32.000Z</time>
      </trkpt>
      <trkpt lat="44.37574" lon="7.1125">
        <ele>2433.1999511719</ele>
        <time>2024-09-13T12:12:41.000Z</time>
      </trkpt>
      <trkpt lat="44.37574" lon="7.1125">
        <ele>2433.1999511719</ele>
        <time>2024-09-13T12:12:42.000Z</time>
      </trkpt>
      <trkpt lat="44.37574" lon="7.1125">
        <ele>2433.3999023438</ele>
        <time>2024-09-13T12:12:43.000Z</time>
      </trkpt>
      <trkpt lat="44.37574" lon="7.11251">
        <ele>2433.8000488281</ele>
        <time>2024-09-13T12:12:46.000Z</time>
      </trkpt>
      <trkpt lat="44.37574" lon="7.1125">
        <ele>2433.8000488281</ele>
        <time>2024-09-13T12:12:50.000Z</time>
      </trkpt>
      <trkpt lat="44.37574" lon="7.1125">
        <ele>2433.8000488281</ele>
        <time>2024-09-13T12:12:51.000Z</time>
      </trkpt>
      <trkpt lat="44.37574" lon="7.1125">
        <ele>2433.3999023438</ele>
        <time>2024-09-13T12:12:58.000Z</time>
      </trkpt>
      <trkpt lat="44.37575" lon="7.11251">
        <ele>2433.1999511719</ele>
        <time>2024-09-13T12:13:03.000Z</time>
      </trkpt>
      <trkpt lat="44.37575" lon="7.11251">
        <ele>2433</ele>
        <time>2024-09-13T12:13:07.000Z</time>
      </trkpt>
      <trkpt lat="44.37574" lon="7.1125">
        <ele>2433</ele>
        <time>2024-09-13T12:13:15.000Z</time>
      </trkpt>
      <trkpt lat="44.37574" lon="7.1125">
        <ele>2433</ele>
        <time>2024-09-13T12:13:16.000Z</time>
      </trkpt>
      <trkpt lat="44.37574" lon="7.1125">
        <ele>2432.8000488281</ele>
        <time>2024-09-13T12:13:20.000Z</time>
      </trkpt>
      <trkpt lat="44.37575" lon="7.11249">
        <ele>2432.8000488281</ele>
        <time>2024-09-13T12:13:21.000Z</time>
      </trkpt>
      <trkpt lat="44.37574" lon="7.1125">
        <ele>2432.8000488281</ele>
        <time>2024-09-13T12:13:25.000Z</time>
      </trkpt>
      <trkpt lat="44.37574" lon="7.11249">
        <ele>2432.6000976562</ele>
        <time>2024-09-13T12:13:29.000Z</time>
      </trkpt>
      <trkpt lat="44.37574" lon="7.11249">
        <ele>2432.3999023438</ele>
        <time>2024-09-13T12:13:32.000Z</time>
      </trkpt>
      <trkpt lat="44.37574" lon="7.11248">
        <ele>2432.1999511719</ele>
        <time>2024-09-13T12:13:35.000Z</time>
      </trkpt>
      <trkpt lat="44.37574" lon="7.11249">
        <ele>2432.1999511719</ele>
        <time>2024-09-13T12:13:36.000Z</time>
      </trkpt>
      <trkpt lat="44.37575" lon="7.11253">
        <ele>2432</ele>
        <time>2024-09-13T12:13:43.000Z</time>
      </trkpt>
      <trkpt lat="44.37575" lon="7.11255">
        <ele>2432</ele>
        <time>2024-09-13T12:13:44.000Z</time>
      </trkpt>
      <trkpt lat="44.37576" lon="7.11263">
        <ele>2431.6000976562</ele>
        <time>2024-09-13T12:13:48.000Z</time>
      </trkpt>
      <trkpt lat="44.37576" lon="7.11266">
        <ele>2431.3999023438</ele>
        <time>2024-09-13T12:13:49.000Z</time>
      </trkpt>
      <trkpt lat="44.37575" lon="7.11272">
        <ele>2431.3999023438</ele>
        <time>2024-09-13T12:13:51.000Z</time>
      </trkpt>
      <trkpt lat="44.37575" lon="7.11274">
        <ele>2431.6000976562</ele>
        <time>2024-09-13T12:13:52.000Z</time>
      </trkpt>
      <trkpt lat="44.37574" lon="7.1128">
        <ele>2431.8000488281</ele>
        <time>2024-09-13T12:13:55.000Z</time>
      </trkpt>
      <trkpt lat="44.37573" lon="7.11285">
        <ele>2432</ele>
        <time>2024-09-13T12:13:57.000Z</time>
      </trkpt>
      <trkpt lat="44.37572" lon="7.11287">
        <ele>2432.1999511719</ele>
        <time>2024-09-13T12:13:58.000Z</time>
      </trkpt>
      <trkpt lat="44.37571" lon="7.11295">
        <ele>2432.3999023438</ele>
        <time>2024-09-13T12:14:01.000Z</time>
      </trkpt>
      <trkpt lat="44.37571" lon="7.11297">
        <ele>2432.6000976562</ele>
        <time>2024-09-13T12:14:02.000Z</time>
      </trkpt>
      <trkpt lat="44.37571" lon="7.11299">
        <ele>2432.6000976562</ele>
        <time>2024-09-13T12:14:03.000Z</time>
      </trkpt>
      <trkpt lat="44.3757" lon="7.11301">
        <ele>2432.6000976562</ele>
        <time>2024-09-13T12:14:04.000Z</time>
      </trkpt>
      <trkpt lat="44.3757" lon="7.11303">
        <ele>2432.3999023438</ele>
        <time>2024-09-13T12:14:05.000Z</time>
      </trkpt>
      <trkpt lat="44.37569" lon="7.11305">
        <ele>2432.3999023438</ele>
        <time>2024-09-13T12:14:06.000Z</time>
      </trkpt>
      <trkpt lat="44.37569" lon="7.1131">
        <ele>2432.3999023438</ele>
        <time>2024-09-13T12:14:08.000Z</time>
      </trkpt>
      <trkpt lat="44.37568" lon="7.11312">
        <ele>2432.3999023438</ele>
        <time>2024-09-13T12:14:09.000Z</time>
      </trkpt>
      <trkpt lat="44.37568" lon="7.11314">
        <ele>2432.3999023438</ele>
        <time>2024-09-13T12:14:10.000Z</time>
      </trkpt>
      <trkpt lat="44.37568" lon="7.11322">
        <ele>2432.8000488281</ele>
        <time>2024-09-13T12:14:13.000Z</time>
      </trkpt>
      <trkpt lat="44.37566" lon="7.11327">
        <ele>2433</ele>
        <time>2024-09-13T12:14:15.000Z</time>
      </trkpt>
      <trkpt lat="44.37566" lon="7.11329">
        <ele>2433.1999511719</ele>
        <time>2024-09-13T12:14:16.000Z</time>
      </trkpt>
      <trkpt lat="44.37563" lon="7.11341">
        <ele>2433.6000976562</ele>
        <time>2024-09-13T12:14:20.000Z</time>
      </trkpt>
      <trkpt lat="44.37562" lon="7.11344">
        <ele>2433.8000488281</ele>
        <time>2024-09-13T12:14:21.000Z</time>
      </trkpt>
      <trkpt lat="44.3756" lon="7.11346">
        <ele>2433.8000488281</ele>
        <time>2024-09-13T12:14:22.000Z</time>
      </trkpt>
      <trkpt lat="44.37559" lon="7.11349">
        <ele>2433.6000976562</ele>
        <time>2024-09-13T12:14:23.000Z</time>
      </trkpt>
      <trkpt lat="44.37558" lon="7.11351">
        <ele>2433.8000488281</ele>
        <time>2024-09-13T12:14:24.000Z</time>
      </trkpt>
      <trkpt lat="44.37556" lon="7.11357">
        <ele>2433.8000488281</ele>
        <time>2024-09-13T12:14:26.000Z</time>
      </trkpt>
      <trkpt lat="44.37555" lon="7.11359">
        <ele>2434</ele>
        <time>2024-09-13T12:14:27.000Z</time>
      </trkpt>
      <trkpt lat="44.37554" lon="7.11361">
        <ele>2434</ele>
        <time>2024-09-13T12:14:28.000Z</time>
      </trkpt>
      <trkpt lat="44.3755" lon="7.11368">
        <ele>2434</ele>
        <time>2024-09-13T12:14:31.000Z</time>
      </trkpt>
      <trkpt lat="44.37549" lon="7.11372">
        <ele>2434</ele>
        <time>2024-09-13T12:14:32.000Z</time>
      </trkpt>
      <trkpt lat="44.37546" lon="7.11379">
        <ele>2433.6000976562</ele>
        <time>2024-09-13T12:14:34.000Z</time>
      </trkpt>
      <trkpt lat="44.37545" lon="7.11381">
        <ele>2433.6000976562</ele>
        <time>2024-09-13T12:14:35.000Z</time>
      </trkpt>
      <trkpt lat="44.37542" lon="7.11387">
        <ele>2433.3999023438</ele>
        <time>2024-09-13T12:14:37.000Z</time>
      </trkpt>
      <trkpt lat="44.3754" lon="7.11391">
        <ele>2433.3999023438</ele>
        <time>2024-09-13T12:14:39.000Z</time>
      </trkpt>
      <trkpt lat="44.37539" lon="7.11393">
        <ele>2433.8000488281</ele>
        <time>2024-09-13T12:14:40.000Z</time>
      </trkpt>
      <trkpt lat="44.37536" lon="7.11401">
        <ele>2434.1999511719</ele>
        <time>2024-09-13T12:14:43.000Z</time>
      </trkpt>
      <trkpt lat="44.37534" lon="7.11405">
        <ele>2434.1999511719</ele>
        <time>2024-09-13T12:14:45.000Z</time>
      </trkpt>
      <trkpt lat="44.3753" lon="7.11415">
        <ele>2434</ele>
        <time>2024-09-13T12:14:49.000Z</time>
      </trkpt>
      <trkpt lat="44.37528" lon="7.11418">
        <ele>2433.8000488281</ele>
        <time>2024-09-13T12:14:50.000Z</time>
      </trkpt>
      <trkpt lat="44.37527" lon="7.1142">
        <ele>2433.8000488281</ele>
        <time>2024-09-13T12:14:51.000Z</time>
      </trkpt>
      <trkpt lat="44.37526" lon="7.1142">
        <ele>2433.8000488281</ele>
        <time>2024-09-13T12:14:52.000Z</time>
      </trkpt>
      <trkpt lat="44.37525" lon="7.1142">
        <ele>2433.8000488281</ele>
        <time>2024-09-13T12:14:53.000Z</time>
      </trkpt>
      <trkpt lat="44.37524" lon="7.1142">
        <ele>2433.6000976562</ele>
        <time>2024-09-13T12:14:54.000Z</time>
      </trkpt>
      <trkpt lat="44.37521" lon="7.11413">
        <ele>2433.6000976562</ele>
        <time>2024-09-13T12:14:57.000Z</time>
      </trkpt>
      <trkpt lat="44.37518" lon="7.11409">
        <ele>2433.6000976562</ele>
        <time>2024-09-13T12:14:58.000Z</time>
      </trkpt>
      <trkpt lat="44.37508" lon="7.11395">
        <ele>2432.6000976562</ele>
        <time>2024-09-13T12:15:01.000Z</time>
      </trkpt>
      <trkpt lat="44.37505" lon="7.11392">
        <ele>2432.1999511719</ele>
        <time>2024-09-13T12:15:02.000Z</time>
      </trkpt>
      <trkpt lat="44.37503" lon="7.11389">
        <ele>2432.1999511719</ele>
        <time>2024-09-13T12:15:03.000Z</time>
      </trkpt>
      <trkpt lat="44.37501" lon="7.11386">
        <ele>2432.1999511719</ele>
        <time>2024-09-13T12:15:04.000Z</time>
      </trkpt>
      <trkpt lat="44.37499" lon="7.11384">
        <ele>2432.1999511719</ele>
        <time>2024-09-13T12:15:05.000Z</time>
      </trkpt>
      <trkpt lat="44.37497" lon="7.11383">
        <ele>2432</ele>
        <time>2024-09-13T12:15:06.000Z</time>
      </trkpt>
      <trkpt lat="44.37496" lon="7.11383">
        <ele>2432</ele>
        <time>2024-09-13T12:15:07.000Z</time>
      </trkpt>
      <trkpt lat="44.37494" lon="7.11382">
        <ele>2432</ele>
        <time>2024-09-13T12:15:08.000Z</time>
      </trkpt>
      <trkpt lat="44.37491" lon="7.11382">
        <ele>2431.8000488281</ele>
        <time>2024-09-13T12:15:09.000Z</time>
      </trkpt>
      <trkpt lat="44.37488" lon="7.11383">
        <ele>2431.6000976562</ele>
        <time>2024-09-13T12:15:10.000Z</time>
      </trkpt>
      <trkpt lat="44.37486" lon="7.11385">
        <ele>2431.1999511719</ele>
        <time>2024-09-13T12:15:11.000Z</time>
      </trkpt>
      <trkpt lat="44.37482" lon="7.11388">
        <ele>2430.3999023438</ele>
        <time>2024-09-13T12:15:12.000Z</time>
      </trkpt>
      <trkpt lat="44.37478" lon="7.1139">
        <ele>2429.8000488281</ele>
        <time>2024-09-13T12:15:13.000Z</time>
      </trkpt>
      <trkpt lat="44.37475" lon="7.11391">
        <ele>2429.8000488281</ele>
        <time>2024-09-13T12:15:14.000Z</time>
      </trkpt>
      <trkpt lat="44.37474" lon="7.11392">
        <ele>2429.8000488281</ele>
        <time>2024-09-13T12:15:15.000Z</time>
      </trkpt>
      <trkpt lat="44.37472" lon="7.11394">
        <ele>2429.8000488281</ele>
        <time>2024-09-13T12:15:16.000Z</time>
      </trkpt>
      <trkpt lat="44.37471" lon="7.11395">
        <ele>2430</ele>
        <time>2024-09-13T12:15:17.000Z</time>
      </trkpt>
      <trkpt lat="44.37469" lon="7.11396">
        <ele>2430</ele>
        <time>2024-09-13T12:15:18.000Z</time>
      </trkpt>
      <trkpt lat="44.37463" lon="7.11398">
        <ele>2430.6000976562</ele>
        <time>2024-09-13T12:15:21.000Z</time>
      </trkpt>
      <trkpt lat="44.37457" lon="7.11402">
        <ele>2431.1999511719</ele>
        <time>2024-09-13T12:15:24.000Z</time>
      </trkpt>
      <trkpt lat="44.37455" lon="7.11402">
        <ele>2431.3999023438</ele>
        <time>2024-09-13T12:15:25.000Z</time>
      </trkpt>
      <trkpt lat="44.37453" lon="7.11402">
        <ele>2431.3999023438</ele>
        <time>2024-09-13T12:15:26.000Z</time>
      </trkpt>
      <trkpt lat="44.37452" lon="7.11403">
        <ele>2431.6000976562</ele>
        <time>2024-09-13T12:15:27.000Z</time>
      </trkpt>
      <trkpt lat="44.37448" lon="7.11403">
        <ele>2431.8000488281</ele>
        <time>2024-09-13T12:15:29.000Z</time>
      </trkpt>
      <trkpt lat="44.37442" lon="7.11401">
        <ele>2432.1999511719</ele>
        <time>2024-09-13T12:15:31.000Z</time>
      </trkpt>
      <trkpt lat="44.37439" lon="7.114">
        <ele>2432.1999511719</ele>
        <time>2024-09-13T12:15:32.000Z</time>
      </trkpt>
      <trkpt lat="44.37437" lon="7.114">
        <ele>2432.3999023438</ele>
        <time>2024-09-13T12:15:33.000Z</time>
      </trkpt>
      <trkpt lat="44.37435" lon="7.11402">
        <ele>2432.3999023438</ele>
        <time>2024-09-13T12:15:34.000Z</time>
      </trkpt>
      <trkpt lat="44.37432" lon="7.11404">
        <ele>2432.3999023438</ele>
        <time>2024-09-13T12:15:35.000Z</time>
      </trkpt>
      <trkpt lat="44.3743" lon="7.11405">
        <ele>2432.3999023438</ele>
        <time>2024-09-13T12:15:36.000Z</time>
      </trkpt>
      <trkpt lat="44.37427" lon="7.11406">
        <ele>2432.3999023438</ele>
        <time>2024-09-13T12:15:37.000Z</time>
      </trkpt>
      <trkpt lat="44.37422" lon="7.11407">
        <ele>2432.3999023438</ele>
        <time>2024-09-13T12:15:39.000Z</time>
      </trkpt>
      <trkpt lat="44.37411" lon="7.11409">
        <ele>2432</ele>
        <time>2024-09-13T12:15:42.000Z</time>
      </trkpt>
      <trkpt lat="44.37405" lon="7.11412">
        <ele>2431.8000488281</ele>
        <time>2024-09-13T12:15:44.000Z</time>
      </trkpt>
      <trkpt lat="44.37403" lon="7.11416">
        <ele>2431.6000976562</ele>
        <time>2024-09-13T12:15:45.000Z</time>
      </trkpt>
      <trkpt lat="44.37401" lon="7.11419">
        <ele>2431.6000976562</ele>
        <time>2024-09-13T12:15:46.000Z</time>
      </trkpt>
      <trkpt lat="44.37399" lon="7.11422">
        <ele>2431.6000976562</ele>
        <time>2024-09-13T12:15:47.000Z</time>
      </trkpt>
      <trkpt lat="44.37393" lon="7.11423">
        <ele>2432</ele>
        <time>2024-09-13T12:15:49.000Z</time>
      </trkpt>
      <trkpt lat="44.37388" lon="7.11423">
        <ele>2432</ele>
        <time>2024-09-13T12:15:50.000Z</time>
      </trkpt>
      <trkpt lat="44.37383" lon="7.11422">
        <ele>2432</ele>
        <time>2024-09-13T12:15:51.000Z</time>
      </trkpt>
      <trkpt lat="44.37377" lon="7.1142">
        <ele>2432</ele>
        <time>2024-09-13T12:15:52.000Z</time>
      </trkpt>
      <trkpt lat="44.37372" lon="7.1142">
        <ele>2431.1999511719</ele>
        <time>2024-09-13T12:15:53.000Z</time>
      </trkpt>
      <trkpt lat="44.3736" lon="7.11419">
        <ele>2429.8000488281</ele>
        <time>2024-09-13T12:15:55.000Z</time>
      </trkpt>
      <trkpt lat="44.37347" lon="7.11418">
        <ele>2428.3999023438</ele>
        <time>2024-09-13T12:15:57.000Z</time>
      </trkpt>
      <trkpt lat="44.37341" lon="7.11419">
        <ele>2427.1999511719</ele>
        <time>2024-09-13T12:15:58.000Z</time>
      </trkpt>
      <trkpt lat="44.37335" lon="7.1142">
        <ele>2426.8000488281</ele>
        <time>2024-09-13T12:15:59.000Z</time>
      </trkpt>
      <trkpt lat="44.37322" lon="7.11421">
        <ele>2426.3999023438</ele>
        <time>2024-09-13T12:16:01.000Z</time>
      </trkpt>
      <trkpt lat="44.37316" lon="7.11423">
        <ele>2426</ele>
        <time>2024-09-13T12:16:02.000Z</time>
      </trkpt>
      <trkpt lat="44.3731" lon="7.11427">
        <ele>2426</ele>
        <time>2024-09-13T12:16:03.000Z</time>
      </trkpt>
      <trkpt lat="44.37305" lon="7.1143">
        <ele>2426</ele>
        <time>2024-09-13T12:16:04.000Z</time>
      </trkpt>
      <trkpt lat="44.37301" lon="7.11433">
        <ele>2425.8000488281</ele>
        <time>2024-09-13T12:16:05.000Z</time>
      </trkpt>
      <trkpt lat="44.37296" lon="7.11436">
        <ele>2425.8000488281</ele>
        <time>2024-09-13T12:16:06.000Z</time>
      </trkpt>
      <trkpt lat="44.37281" lon="7.11445">
        <ele>2425.1999511719</ele>
        <time>2024-09-13T12:16:09.000Z</time>
      </trkpt>
      <trkpt lat="44.37276" lon="7.11448">
        <ele>2424.1999511719</ele>
        <time>2024-09-13T12:16:10.000Z</time>
      </trkpt>
      <trkpt lat="44.37272" lon="7.11451">
        <ele>2423.6000976562</ele>
        <time>2024-09-13T12:16:11.000Z</time>
      </trkpt>
      <trkpt lat="44.37269" lon="7.11454">
        <ele>2423</ele>
        <time>2024-09-13T12:16:12.000Z</time>
      </trkpt>
      <trkpt lat="44.37265" lon="7.11457">
        <ele>2422.8000488281</ele>
        <time>2024-09-13T12:16:13.000Z</time>
      </trkpt>
      <trkpt lat="44.37262" lon="7.11461">
        <ele>2422.6000976562</ele>
        <time>2024-09-13T12:16:14.000Z</time>
      </trkpt>
      <trkpt lat="44.37259" lon="7.11464">
        <ele>2422.6000976562</ele>
        <time>2024-09-13T12:16:15.000Z</time>
      </trkpt>
      <trkpt lat="44.37256" lon="7.11469">
        <ele>2421.8000488281</ele>
        <time>2024-09-13T12:16:16.000Z</time>
      </trkpt>
      <trkpt lat="44.37253" lon="7.11473">
        <ele>2421.6000976562</ele>
        <time>2024-09-13T12:16:17.000Z</time>
      </trkpt>
      <trkpt lat="44.37247" lon="7.11483">
        <ele>2420.6000976562</ele>
        <time>2024-09-13T12:16:19.000Z</time>
      </trkpt>
      <trkpt lat="44.37244" lon="7.11488">
        <ele>2420</ele>
        <time>2024-09-13T12:16:20.000Z</time>
      </trkpt>
      <trkpt lat="44.37242" lon="7.11494">
        <ele>2419.1999511719</ele>
        <time>2024-09-13T12:16:21.000Z</time>
      </trkpt>
      <trkpt lat="44.37234" lon="7.11514">
        <ele>2418.8000488281</ele>
        <time>2024-09-13T12:16:24.000Z</time>
      </trkpt>
      <trkpt lat="44.3723" lon="7.1153">
        <ele>2418.6000976562</ele>
        <time>2024-09-13T12:16:26.000Z</time>
      </trkpt>
      <trkpt lat="44.37228" lon="7.11537">
        <ele>2418.3999023438</ele>
        <time>2024-09-13T12:16:27.000Z</time>
      </trkpt>
      <trkpt lat="44.37227" lon="7.11544">
        <ele>2417.3999023438</ele>
        <time>2024-09-13T12:16:28.000Z</time>
      </trkpt>
      <trkpt lat="44.37226" lon="7.11551">
        <ele>2417</ele>
        <time>2024-09-13T12:16:29.000Z</time>
      </trkpt>
      <trkpt lat="44.37225" lon="7.11558">
        <ele>2416.6000976562</ele>
        <time>2024-09-13T12:16:30.000Z</time>
      </trkpt>
      <trkpt lat="44.37223" lon="7.11566">
        <ele>2416.1999511719</ele>
        <time>2024-09-13T12:16:31.000Z</time>
      </trkpt>
      <trkpt lat="44.37222" lon="7.11573">
        <ele>2415.3999023438</ele>
        <time>2024-09-13T12:16:32.000Z</time>
      </trkpt>
      <trkpt lat="44.37222" lon="7.11579">
        <ele>2414.6000976562</ele>
        <time>2024-09-13T12:16:33.000Z</time>
      </trkpt>
      <trkpt lat="44.37222" lon="7.11584">
        <ele>2414.6000976562</ele>
        <time>2024-09-13T12:16:34.000Z</time>
      </trkpt>
      <trkpt lat="44.37221" lon="7.11597">
        <ele>2414.6000976562</ele>
        <time>2024-09-13T12:16:36.000Z</time>
      </trkpt>
      <trkpt lat="44.37221" lon="7.11605">
        <ele>2414.3999023438</ele>
        <time>2024-09-13T12:16:37.000Z</time>
      </trkpt>
      <trkpt lat="44.37221" lon="7.11612">
        <ele>2414.1999511719</ele>
        <time>2024-09-13T12:16:38.000Z</time>
      </trkpt>
      <trkpt lat="44.37221" lon="7.11619">
        <ele>2414.3999023438</ele>
        <time>2024-09-13T12:16:39.000Z</time>
      </trkpt>
      <trkpt lat="44.37222" lon="7.11624">
        <ele>2414.1999511719</ele>
        <time>2024-09-13T12:16:40.000Z</time>
      </trkpt>
      <trkpt lat="44.37221" lon="7.11629">
        <ele>2414.1999511719</ele>
        <time>2024-09-13T12:16:41.000Z</time>
      </trkpt>
      <trkpt lat="44.3722" lon="7.11633">
        <ele>2414.3999023438</ele>
        <time>2024-09-13T12:16:42.000Z</time>
      </trkpt>
      <trkpt lat="44.37219" lon="7.11639">
        <ele>2414.6000976562</ele>
        <time>2024-09-13T12:16:43.000Z</time>
      </trkpt>
      <trkpt lat="44.37219" lon="7.11647">
        <ele>2414.6000976562</ele>
        <time>2024-09-13T12:16:44.000Z</time>
      </trkpt>
      <trkpt lat="44.3722" lon="7.11667">
        <ele>2414.6000976562</ele>
        <time>2024-09-13T12:16:47.000Z</time>
      </trkpt>
      <trkpt lat="44.3722" lon="7.11673">
        <ele>2414.1999511719</ele>
        <time>2024-09-13T12:16:48.000Z</time>
      </trkpt>
      <trkpt lat="44.3722" lon="7.11679">
        <ele>2414.1999511719</ele>
        <time>2024-09-13T12:16:49.000Z</time>
      </trkpt>
      <trkpt lat="44.3722" lon="7.11685">
        <ele>2414.1999511719</ele>
        <time>2024-09-13T12:16:50.000Z</time>
      </trkpt>
      <trkpt lat="44.3722" lon="7.1169">
        <ele>2414</ele>
        <time>2024-09-13T12:16:51.000Z</time>
      </trkpt>
      <trkpt lat="44.3722" lon="7.11695">
        <ele>2413.8000488281</ele>
        <time>2024-09-13T12:16:52.000Z</time>
      </trkpt>
      <trkpt lat="44.3722" lon="7.11706">
        <ele>2413.8000488281</ele>
        <time>2024-09-13T12:16:54.000Z</time>
      </trkpt>
      <trkpt lat="44.3722" lon="7.11708">
        <ele>2413.8000488281</ele>
        <time>2024-09-13T12:16:55.000Z</time>
      </trkpt>
      <trkpt lat="44.3722" lon="7.11707">
        <ele>2414</ele>
        <time>2024-09-13T12:16:56.000Z</time>
      </trkpt>
      <trkpt lat="44.3722" lon="7.11707">
        <ele>2415.1999511719</ele>
        <time>2024-09-13T12:17:01.000Z</time>
      </trkpt>
      <trkpt lat="44.3722" lon="7.11707">
        <ele>2415.1999511719</ele>
        <time>2024-09-13T12:17:03.000Z</time>
      </trkpt>
      <trkpt lat="44.3722" lon="7.11708">
        <ele>2415.1999511719</ele>
        <time>2024-09-13T12:17:12.000Z</time>
      </trkpt>
      <trkpt lat="44.37219" lon="7.11709">
        <ele>2415</ele>
        <time>2024-09-13T12:17:18.000Z</time>
      </trkpt>
      <trkpt lat="44.3722" lon="7.11709">
        <ele>2414.8000488281</ele>
        <time>2024-09-13T12:17:24.000Z</time>
      </trkpt>
      <trkpt lat="44.3722" lon="7.11709">
        <ele>2414.8000488281</ele>
        <time>2024-09-13T12:17:25.000Z</time>
      </trkpt>
      <trkpt lat="44.37219" lon="7.11709">
        <ele>2414.8000488281</ele>
        <time>2024-09-13T12:17:26.000Z</time>
      </trkpt>
      <trkpt lat="44.37219" lon="7.11709">
        <ele>2414.6000976562</ele>
        <time>2024-09-13T12:17:27.000Z</time>
      </trkpt>
      <trkpt lat="44.3722" lon="7.11709">
        <ele>2414.6000976562</ele>
        <time>2024-09-13T12:17:28.000Z</time>
      </trkpt>
      <trkpt lat="44.3722" lon="7.11709">
        <ele>2414.3999023438</ele>
        <time>2024-09-13T12:17:29.000Z</time>
      </trkpt>
      <trkpt lat="44.37219" lon="7.11709">
        <ele>2414.1999511719</ele>
        <time>2024-09-13T12:17:31.000Z</time>
      </trkpt>
      <trkpt lat="44.3722" lon="7.11708">
        <ele>2414.1999511719</ele>
        <time>2024-09-13T12:17:34.000Z</time>
      </trkpt>
      <trkpt lat="44.3722" lon="7.11707">
        <ele>2414</ele>
        <time>2024-09-13T12:17:41.000Z</time>
      </trkpt>
      <trkpt lat="44.3722" lon="7.11707">
        <ele>2414</ele>
        <time>2024-09-13T12:17:46.000Z</time>
      </trkpt>
      <trkpt lat="44.3722" lon="7.11707">
        <ele>2414</ele>
        <time>2024-09-13T12:17:47.000Z</time>
      </trkpt>
      <trkpt lat="44.3722" lon="7.11707">
        <ele>2414</ele>
        <time>2024-09-13T12:17:48.000Z</time>
      </trkpt>
      <trkpt lat="44.37221" lon="7.11708">
        <ele>2413.8000488281</ele>
        <time>2024-09-13T12:17:49.000Z</time>
      </trkpt>
      <trkpt lat="44.37221" lon="7.11708">
        <ele>2413.8000488281</ele>
        <time>2024-09-13T12:17:50.000Z</time>
      </trkpt>
      <trkpt lat="44.37221" lon="7.11708">
        <ele>2413.6000976562</ele>
        <time>2024-09-13T12:17:51.000Z</time>
      </trkpt>
      <trkpt lat="44.37221" lon="7.11708">
        <ele>2413.6000976562</ele>
        <time>2024-09-13T12:17:52.000Z</time>
      </trkpt>
      <trkpt lat="44.3722" lon="7.11709">
        <ele>2413.6000976562</ele>
        <time>2024-09-13T12:17:56.000Z</time>
      </trkpt>
      <trkpt lat="44.37219" lon="7.11709">
        <ele>2413.8000488281</ele>
        <time>2024-09-13T12:17:59.000Z</time>
      </trkpt>
      <trkpt lat="44.37219" lon="7.1171">
        <ele>2413.6000976562</ele>
        <time>2024-09-13T12:18:03.000Z</time>
      </trkpt>
      <trkpt lat="44.37219" lon="7.1171">
        <ele>2413.6000976562</ele>
        <time>2024-09-13T12:18:04.000Z</time>
      </trkpt>
      <trkpt lat="44.37219" lon="7.1171">
        <ele>2413.3999023438</ele>
        <time>2024-09-13T12:18:05.000Z</time>
      </trkpt>
      <trkpt lat="44.3722" lon="7.11712">
        <ele>2413.3999023438</ele>
        <time>2024-09-13T12:18:06.000Z</time>
      </trkpt>
      <trkpt lat="44.3722" lon="7.11713">
        <ele>2413.1999511719</ele>
        <time>2024-09-13T12:18:07.000Z</time>
      </trkpt>
      <trkpt lat="44.3722" lon="7.11713">
        <ele>2413.1999511719</ele>
        <time>2024-09-13T12:18:08.000Z</time>
      </trkpt>
      <trkpt lat="44.37219" lon="7.11715">
        <ele>2413.1999511719</ele>
        <time>2024-09-13T12:18:09.000Z</time>
      </trkpt>
      <trkpt lat="44.37219" lon="7.11716">
        <ele>2413.1999511719</ele>
        <time>2024-09-13T12:18:10.000Z</time>
      </trkpt>
      <trkpt lat="44.37219" lon="7.11718">
        <ele>2413.1999511719</ele>
        <time>2024-09-13T12:18:12.000Z</time>
      </trkpt>
      <trkpt lat="44.37218" lon="7.11719">
        <ele>2413.1999511719</ele>
        <time>2024-09-13T12:18:13.000Z</time>
      </trkpt>
      <trkpt lat="44.37218" lon="7.11719">
        <ele>2413.1999511719</ele>
        <time>2024-09-13T12:18:14.000Z</time>
      </trkpt>
      <trkpt lat="44.37218" lon="7.11719">
        <ele>2413.6000976562</ele>
        <time>2024-09-13T12:18:22.000Z</time>
      </trkpt>
      <trkpt lat="44.37218" lon="7.11719">
        <ele>2413.6000976562</ele>
        <time>2024-09-13T12:18:29.000Z</time>
      </trkpt>
      <trkpt lat="44.37218" lon="7.11719">
        <ele>2413.3999023438</ele>
        <time>2024-09-13T12:18:32.000Z</time>
      </trkpt>
      <trkpt lat="44.37218" lon="7.11719">
        <ele>2413.3999023438</ele>
        <time>2024-09-13T12:18:33.000Z</time>
      </trkpt>
      <trkpt lat="44.37217" lon="7.1172">
        <ele>2413.3999023438</ele>
        <time>2024-09-13T12:18:35.000Z</time>
      </trkpt>
      <trkpt lat="44.37217" lon="7.1172">
        <ele>2413.1999511719</ele>
        <time>2024-09-13T12:18:37.000Z</time>
      </trkpt>
      <trkpt lat="44.37217" lon="7.1172">
        <ele>2413.3999023438</ele>
        <time>2024-09-13T12:18:45.000Z</time>
      </trkpt>
      <trkpt lat="44.37217" lon="7.1172">
        <ele>2413.3999023438</ele>
        <time>2024-09-13T12:18:48.000Z</time>
      </trkpt>
      <trkpt lat="44.37217" lon="7.1172">
        <ele>2413.3999023438</ele>
        <time>2024-09-13T12:18:52.000Z</time>
      </trkpt>
      <trkpt lat="44.37217" lon="7.1172">
        <ele>2413.1999511719</ele>
        <time>2024-09-13T12:18:56.000Z</time>
      </trkpt>
      <trkpt lat="44.37217" lon="7.11724">
        <ele>2413.1999511719</ele>
        <time>2024-09-13T12:18:58.000Z</time>
      </trkpt>
      <trkpt lat="44.37216" lon="7.11727">
        <ele>2413</ele>
        <time>2024-09-13T12:18:59.000Z</time>
      </trkpt>
      <trkpt lat="44.37216" lon="7.11731">
        <ele>2412.6000976562</ele>
        <time>2024-09-13T12:19:00.000Z</time>
      </trkpt>
      <trkpt lat="44.37215" lon="7.11742">
        <ele>2411.3999023438</ele>
        <time>2024-09-13T12:19:03.000Z</time>
      </trkpt>
      <trkpt lat="44.37215" lon="7.11744">
        <ele>2411.1999511719</ele>
        <time>2024-09-13T12:19:04.000Z</time>
      </trkpt>
      <trkpt lat="44.37215" lon="7.11747">
        <ele>2411.1999511719</ele>
        <time>2024-09-13T12:19:05.000Z</time>
      </trkpt>
      <trkpt lat="44.37213" lon="7.11756">
        <ele>2411.1999511719</ele>
        <time>2024-09-13T12:19:08.000Z</time>
      </trkpt>
      <trkpt lat="44.37213" lon="7.11759">
        <ele>2411.1999511719</ele>
        <time>2024-09-13T12:19:09.000Z</time>
      </trkpt>
      <trkpt lat="44.37208" lon="7.11772">
        <ele>2410.3999023438</ele>
        <time>2024-09-13T12:19:13.000Z</time>
      </trkpt>
      <trkpt lat="44.37206" lon="7.11777">
        <ele>2410.3999023438</ele>
        <time>2024-09-13T12:19:14.000Z</time>
      </trkpt>
      <trkpt lat="44.37204" lon="7.11787">
        <ele>2410.3999023438</ele>
        <time>2024-09-13T12:19:16.000Z</time>
      </trkpt>
      <trkpt lat="44.37204" lon="7.1179">
        <ele>2410.1999511719</ele>
        <time>2024-09-13T12:19:17.000Z</time>
      </trkpt>
      <trkpt lat="44.37204" lon="7.11794">
        <ele>2410</ele>
        <time>2024-09-13T12:19:18.000Z</time>
      </trkpt>
      <trkpt lat="44.37202" lon="7.118">
        <ele>2409.6000976562</ele>
        <time>2024-09-13T12:19:19.000Z</time>
      </trkpt>
      <trkpt lat="44.37202" lon="7.11806">
        <ele>2409.3999023438</ele>
        <time>2024-09-13T12:19:20.000Z</time>
      </trkpt>
      <trkpt lat="44.37203" lon="7.11816">
        <ele>2409</ele>
        <time>2024-09-13T12:19:22.000Z</time>
      </trkpt>
      <trkpt lat="44.37203" lon="7.11821">
        <ele>2409</ele>
        <time>2024-09-13T12:19:23.000Z</time>
      </trkpt>
      <trkpt lat="44.37202" lon="7.11825">
        <ele>2409</ele>
        <time>2024-09-13T12:19:24.000Z</time>
      </trkpt>
      <trkpt lat="44.37201" lon="7.1183">
        <ele>2408.8000488281</ele>
        <time>2024-09-13T12:19:25.000Z</time>
      </trkpt>
      <trkpt lat="44.372" lon="7.11839">
        <ele>2408.8000488281</ele>
        <time>2024-09-13T12:19:27.000Z</time>
      </trkpt>
      <trkpt lat="44.372" lon="7.11843">
        <ele>2408.8000488281</ele>
        <time>2024-09-13T12:19:28.000Z</time>
      </trkpt>
      <trkpt lat="44.372" lon="7.11846">
        <ele>2408.8000488281</ele>
        <time>2024-09-13T12:19:29.000Z</time>
      </trkpt>
      <trkpt lat="44.372" lon="7.11855">
        <ele>2408.3999023438</ele>
        <time>2024-09-13T12:19:31.000Z</time>
      </trkpt>
      <trkpt lat="44.37199" lon="7.11859">
        <ele>2408</ele>
        <time>2024-09-13T12:19:32.000Z</time>
      </trkpt>
      <trkpt lat="44.37199" lon="7.11863">
        <ele>2407.6000976562</ele>
        <time>2024-09-13T12:19:33.000Z</time>
      </trkpt>
      <trkpt lat="44.37199" lon="7.11873">
        <ele>2407.1999511719</ele>
        <time>2024-09-13T12:19:35.000Z</time>
      </trkpt>
      <trkpt lat="44.37198" lon="7.1188">
        <ele>2406.3999023438</ele>
        <time>2024-09-13T12:19:36.000Z</time>
      </trkpt>
      <trkpt lat="44.37198" lon="7.11887">
        <ele>2406.1999511719</ele>
        <time>2024-09-13T12:19:37.000Z</time>
      </trkpt>
      <trkpt lat="44.37197" lon="7.11894">
        <ele>2405.3999023438</ele>
        <time>2024-09-13T12:19:38.000Z</time>
      </trkpt>
      <trkpt lat="44.37197" lon="7.119">
        <ele>2405</ele>
        <time>2024-09-13T12:19:39.000Z</time>
      </trkpt>
      <trkpt lat="44.37196" lon="7.11905">
        <ele>2404.8000488281</ele>
        <time>2024-09-13T12:19:40.000Z</time>
      </trkpt>
      <trkpt lat="44.37197" lon="7.11908">
        <ele>2404.6000976562</ele>
        <time>2024-09-13T12:19:41.000Z</time>
      </trkpt>
      <trkpt lat="44.37198" lon="7.11912">
        <ele>2404.3999023438</ele>
        <time>2024-09-13T12:19:42.000Z</time>
      </trkpt>
      <trkpt lat="44.37198" lon="7.11915">
        <ele>2404.1999511719</ele>
        <time>2024-09-13T12:19:43.000Z</time>
      </trkpt>
      <trkpt lat="44.37199" lon="7.11925">
        <ele>2404</ele>
        <time>2024-09-13T12:19:45.000Z</time>
      </trkpt>
      <trkpt lat="44.37199" lon="7.1193">
        <ele>2403.6000976562</ele>
        <time>2024-09-13T12:19:46.000Z</time>
      </trkpt>
      <trkpt lat="44.37199" lon="7.11934">
        <ele>2403.3999023438</ele>
        <time>2024-09-13T12:19:47.000Z</time>
      </trkpt>
      <trkpt lat="44.37199" lon="7.11939">
        <ele>2403</ele>
        <time>2024-09-13T12:19:48.000Z</time>
      </trkpt>
      <trkpt lat="44.37201" lon="7.11953">
        <ele>2402.3999023438</ele>
        <time>2024-09-13T12:19:51.000Z</time>
      </trkpt>
      <trkpt lat="44.37203" lon="7.11957">
        <ele>2401.8000488281</ele>
        <time>2024-09-13T12:19:52.000Z</time>
      </trkpt>
      <trkpt lat="44.37206" lon="7.11972">
        <ele>2400.6000976562</ele>
        <time>2024-09-13T12:19:55.000Z</time>
      </trkpt>
      <trkpt lat="44.37205" lon="7.11977">
        <ele>2400.1999511719</ele>
        <time>2024-09-13T12:19:56.000Z</time>
      </trkpt>
      <trkpt lat="44.37204" lon="7.11981">
        <ele>2399.6000976562</ele>
        <time>2024-09-13T12:19:57.000Z</time>
      </trkpt>
      <trkpt lat="44.37204" lon="7.11985">
        <ele>2399.3999023438</ele>
        <time>2024-09-13T12:19:58.000Z</time>
      </trkpt>
      <trkpt lat="44.37206" lon="7.11988">
        <ele>2399</ele>
        <time>2024-09-13T12:19:59.000Z</time>
      </trkpt>
      <trkpt lat="44.37207" lon="7.11991">
        <ele>2398.8000488281</ele>
        <time>2024-09-13T12:20:00.000Z</time>
      </trkpt>
      <trkpt lat="44.37208" lon="7.11995">
        <ele>2398.3999023438</ele>
        <time>2024-09-13T12:20:01.000Z</time>
      </trkpt>
      <trkpt lat="44.3721" lon="7.12">
        <ele>2398.1999511719</ele>
        <time>2024-09-13T12:20:02.000Z</time>
      </trkpt>
      <trkpt lat="44.37214" lon="7.12011">
        <ele>2398</ele>
        <time>2024-09-13T12:20:04.000Z</time>
      </trkpt>
      <trkpt lat="44.37215" lon="7.12016">
        <ele>2397.6000976562</ele>
        <time>2024-09-13T12:20:05.000Z</time>
      </trkpt>
      <trkpt lat="44.37217" lon="7.1202">
        <ele>2396.6000976562</ele>
        <time>2024-09-13T12:20:06.000Z</time>
      </trkpt>
      <trkpt lat="44.37219" lon="7.12024">
        <ele>2395.8000488281</ele>
        <time>2024-09-13T12:20:07.000Z</time>
      </trkpt>
      <trkpt lat="44.37221" lon="7.12029">
        <ele>2395.6000976562</ele>
        <time>2024-09-13T12:20:08.000Z</time>
      </trkpt>
      <trkpt lat="44.37228" lon="7.12049">
        <ele>2394.6000976562</ele>
        <time>2024-09-13T12:20:12.000Z</time>
      </trkpt>
      <trkpt lat="44.37229" lon="7.12055">
        <ele>2394.3999023438</ele>
        <time>2024-09-13T12:20:13.000Z</time>
      </trkpt>
      <trkpt lat="44.37231" lon="7.12066">
        <ele>2393.1999511719</ele>
        <time>2024-09-13T12:20:15.000Z</time>
      </trkpt>
      <trkpt lat="44.37231" lon="7.12071">
        <ele>2393.1999511719</ele>
        <time>2024-09-13T12:20:16.000Z</time>
      </trkpt>
      <trkpt lat="44.37231" lon="7.12078">
        <ele>2393</ele>
        <time>2024-09-13T12:20:17.000Z</time>
      </trkpt>
      <trkpt lat="44.37231" lon="7.121">
        <ele>2391</ele>
        <time>2024-09-13T12:20:20.000Z</time>
      </trkpt>
      <trkpt lat="44.37232" lon="7.12107">
        <ele>2390.3999023438</ele>
        <time>2024-09-13T12:20:21.000Z</time>
      </trkpt>
      <trkpt lat="44.37231" lon="7.12114">
        <ele>2390</ele>
        <time>2024-09-13T12:20:22.000Z</time>
      </trkpt>
      <trkpt lat="44.37229" lon="7.12119">
        <ele>2389.6000976562</ele>
        <time>2024-09-13T12:20:23.000Z</time>
      </trkpt>
      <trkpt lat="44.37227" lon="7.12125">
        <ele>2389.3999023438</ele>
        <time>2024-09-13T12:20:24.000Z</time>
      </trkpt>
      <trkpt lat="44.37226" lon="7.12131">
        <ele>2389.1999511719</ele>
        <time>2024-09-13T12:20:25.000Z</time>
      </trkpt>
      <trkpt lat="44.37225" lon="7.12137">
        <ele>2389</ele>
        <time>2024-09-13T12:20:26.000Z</time>
      </trkpt>
      <trkpt lat="44.37227" lon="7.12144">
        <ele>2388.8000488281</ele>
        <time>2024-09-13T12:20:27.000Z</time>
      </trkpt>
      <trkpt lat="44.37228" lon="7.12151">
        <ele>2388.6000976562</ele>
        <time>2024-09-13T12:20:28.000Z</time>
      </trkpt>
      <trkpt lat="44.37231" lon="7.12155">
        <ele>2388.3999023438</ele>
        <time>2024-09-13T12:20:29.000Z</time>
      </trkpt>
      <trkpt lat="44.37234" lon="7.12158">
        <ele>2388</ele>
        <time>2024-09-13T12:20:30.000Z</time>
      </trkpt>
      <trkpt lat="44.37236" lon="7.12162">
        <ele>2388</ele>
        <time>2024-09-13T12:20:31.000Z</time>
      </trkpt>
      <trkpt lat="44.37237" lon="7.12166">
        <ele>2387.3999023438</ele>
        <time>2024-09-13T12:20:32.000Z</time>
      </trkpt>
      <trkpt lat="44.37238" lon="7.1217">
        <ele>2386.8000488281</ele>
        <time>2024-09-13T12:20:33.000Z</time>
      </trkpt>
      <trkpt lat="44.37238" lon="7.12173">
        <ele>2386.6000976562</ele>
        <time>2024-09-13T12:20:34.000Z</time>
      </trkpt>
      <trkpt lat="44.37238" lon="7.12176">
        <ele>2386.6000976562</ele>
        <time>2024-09-13T12:20:35.000Z</time>
      </trkpt>
      <trkpt lat="44.37238" lon="7.12179">
        <ele>2386.1999511719</ele>
        <time>2024-09-13T12:20:36.000Z</time>
      </trkpt>
      <trkpt lat="44.37237" lon="7.12184">
        <ele>2385.8000488281</ele>
        <time>2024-09-13T12:20:37.000Z</time>
      </trkpt>
      <trkpt lat="44.37236" lon="7.12189">
        <ele>2385.6000976562</ele>
        <time>2024-09-13T12:20:38.000Z</time>
      </trkpt>
      <trkpt lat="44.37237" lon="7.12195">
        <ele>2385.1999511719</ele>
        <time>2024-09-13T12:20:39.000Z</time>
      </trkpt>
      <trkpt lat="44.37238" lon="7.12202">
        <ele>2384</ele>
        <time>2024-09-13T12:20:40.000Z</time>
      </trkpt>
      <trkpt lat="44.37239" lon="7.12209">
        <ele>2383</ele>
        <time>2024-09-13T12:20:41.000Z</time>
      </trkpt>
      <trkpt lat="44.37242" lon="7.12215">
        <ele>2382.6000976562</ele>
        <time>2024-09-13T12:20:42.000Z</time>
      </trkpt>
      <trkpt lat="44.37246" lon="7.12219">
        <ele>2382.1999511719</ele>
        <time>2024-09-13T12:20:43.000Z</time>
      </trkpt>
      <trkpt lat="44.37249" lon="7.12223">
        <ele>2382</ele>
        <time>2024-09-13T12:20:44.000Z</time>
      </trkpt>
      <trkpt lat="44.37253" lon="7.12227">
        <ele>2381.8000488281</ele>
        <time>2024-09-13T12:20:45.000Z</time>
      </trkpt>
      <trkpt lat="44.37256" lon="7.12231">
        <ele>2381.8000488281</ele>
        <time>2024-09-13T12:20:46.000Z</time>
      </trkpt>
      <trkpt lat="44.37258" lon="7.12235">
        <ele>2381.6000976562</ele>
        <time>2024-09-13T12:20:47.000Z</time>
      </trkpt>
      <trkpt lat="44.37264" lon="7.12243">
        <ele>2381.6000976562</ele>
        <time>2024-09-13T12:20:49.000Z</time>
      </trkpt>
      <trkpt lat="44.37266" lon="7.12248">
        <ele>2381.6000976562</ele>
        <time>2024-09-13T12:20:50.000Z</time>
      </trkpt>
      <trkpt lat="44.37274" lon="7.12265">
        <ele>2381.8000488281</ele>
        <time>2024-09-13T12:20:53.000Z</time>
      </trkpt>
      <trkpt lat="44.37276" lon="7.12269">
        <ele>2381.8000488281</ele>
        <time>2024-09-13T12:20:54.000Z</time>
      </trkpt>
      <trkpt lat="44.37277" lon="7.12273">
        <ele>2382.1999511719</ele>
        <time>2024-09-13T12:20:55.000Z</time>
      </trkpt>
      <trkpt lat="44.37277" lon="7.12273">
        <ele>2382.1999511719</ele>
        <time>2024-09-13T12:20:56.000Z</time>
      </trkpt>
      <trkpt lat="44.37276" lon="7.12273">
        <ele>2382.3999023438</ele>
        <time>2024-09-13T12:20:57.000Z</time>
      </trkpt>
      <trkpt lat="44.37276" lon="7.12272">
        <ele>2383</ele>
        <time>2024-09-13T12:20:58.000Z</time>
      </trkpt>
      <trkpt lat="44.37277" lon="7.12273">
        <ele>2383</ele>
        <time>2024-09-13T12:21:07.000Z</time>
      </trkpt>
      <trkpt lat="44.37277" lon="7.12273">
        <ele>2382.8000488281</ele>
        <time>2024-09-13T12:21:15.000Z</time>
      </trkpt>
      <trkpt lat="44.37277" lon="7.12273">
        <ele>2382.8000488281</ele>
        <time>2024-09-13T12:21:18.000Z</time>
      </trkpt>
      <trkpt lat="44.37277" lon="7.12273">
        <ele>2382.1999511719</ele>
        <time>2024-09-13T12:21:29.000Z</time>
      </trkpt>
      <trkpt lat="44.37277" lon="7.12273">
        <ele>2382</ele>
        <time>2024-09-13T12:21:31.000Z</time>
      </trkpt>
      <trkpt lat="44.37277" lon="7.12273">
        <ele>2382</ele>
        <time>2024-09-13T12:21:33.000Z</time>
      </trkpt>
      <trkpt lat="44.37277" lon="7.12273">
        <ele>2381.8000488281</ele>
        <time>2024-09-13T12:21:36.000Z</time>
      </trkpt>
      <trkpt lat="44.37277" lon="7.12273">
        <ele>2381.8000488281</ele>
        <time>2024-09-13T12:21:37.000Z</time>
      </trkpt>
      <trkpt lat="44.37277" lon="7.12273">
        <ele>2381.8000488281</ele>
        <time>2024-09-13T12:21:38.000Z</time>
      </trkpt>
      <trkpt lat="44.37276" lon="7.12272">
        <ele>2381.6000976562</ele>
        <time>2024-09-13T12:21:43.000Z</time>
      </trkpt>
      <trkpt lat="44.37277" lon="7.12273">
        <ele>2381.3999023438</ele>
        <time>2024-09-13T12:21:49.000Z</time>
      </trkpt>
      <trkpt lat="44.37277" lon="7.12273">
        <ele>2381.3999023438</ele>
        <time>2024-09-13T12:21:51.000Z</time>
      </trkpt>
      <trkpt lat="44.37277" lon="7.12273">
        <ele>2381.3999023438</ele>
        <time>2024-09-13T12:21:52.000Z</time>
      </trkpt>
      <trkpt lat="44.37277" lon="7.12273">
        <ele>2381.1999511719</ele>
        <time>2024-09-13T12:21:54.000Z</time>
      </trkpt>
      <trkpt lat="44.37277" lon="7.12273">
        <ele>2381</ele>
        <time>2024-09-13T12:21:58.000Z</time>
      </trkpt>
      <trkpt lat="44.37277" lon="7.12273">
        <ele>2380.8000488281</ele>
        <time>2024-09-13T12:21:59.000Z</time>
      </trkpt>
      <trkpt lat="44.37277" lon="7.12273">
        <ele>2380.6000976562</ele>
        <time>2024-09-13T12:22:11.000Z</time>
      </trkpt>
      <trkpt lat="44.37277" lon="7.12273">
        <ele>2380.3999023438</ele>
        <time>2024-09-13T12:22:18.000Z</time>
      </trkpt>
      <trkpt lat="44.37278" lon="7.12273">
        <ele>2380.3999023438</ele>
        <time>2024-09-13T12:22:27.000Z</time>
      </trkpt>
      <trkpt lat="44.37278" lon="7.12273">
        <ele>2380.1999511719</ele>
        <time>2024-09-13T12:22:32.000Z</time>
      </trkpt>
      <trkpt lat="44.37278" lon="7.12273">
        <ele>2380.1999511719</ele>
        <time>2024-09-13T12:22:37.000Z</time>
      </trkpt>
      <trkpt lat="44.37277" lon="7.12272">
        <ele>2380.1999511719</ele>
        <time>2024-09-13T12:22:39.000Z</time>
      </trkpt>
      <trkpt lat="44.37277" lon="7.12273">
        <ele>2379.8000488281</ele>
        <time>2024-09-13T12:22:41.000Z</time>
      </trkpt>
      <trkpt lat="44.37277" lon="7.12273">
        <ele>2379.8000488281</ele>
        <time>2024-09-13T12:22:42.000Z</time>
      </trkpt>
      <trkpt lat="44.37278" lon="7.12278">
        <ele>2379.8000488281</ele>
        <time>2024-09-13T12:22:44.000Z</time>
      </trkpt>
      <trkpt lat="44.37278" lon="7.12282">
        <ele>2379.8000488281</ele>
        <time>2024-09-13T12:22:46.000Z</time>
      </trkpt>
      <trkpt lat="44.37279" lon="7.12284">
        <ele>2379.8000488281</ele>
        <time>2024-09-13T12:22:47.000Z</time>
      </trkpt>
      <trkpt lat="44.37279" lon="7.12286">
        <ele>2379.6000976562</ele>
        <time>2024-09-13T12:22:48.000Z</time>
      </trkpt>
      <trkpt lat="44.3728" lon="7.12287">
        <ele>2379.6000976562</ele>
        <time>2024-09-13T12:22:49.000Z</time>
      </trkpt>
      <trkpt lat="44.3728" lon="7.12287">
        <ele>2379.6000976562</ele>
        <time>2024-09-13T12:22:50.000Z</time>
      </trkpt>
      <trkpt lat="44.3728" lon="7.12288">
        <ele>2379.6000976562</ele>
        <time>2024-09-13T12:22:51.000Z</time>
      </trkpt>
      <trkpt lat="44.3728" lon="7.12289">
        <ele>2379.6000976562</ele>
        <time>2024-09-13T12:22:52.000Z</time>
      </trkpt>
      <trkpt lat="44.3728" lon="7.12289">
        <ele>2379.6000976562</ele>
        <time>2024-09-13T12:22:53.000Z</time>
      </trkpt>
      <trkpt lat="44.3728" lon="7.12289">
        <ele>2379.6000976562</ele>
        <time>2024-09-13T12:22:54.000Z</time>
      </trkpt>
      <trkpt lat="44.3728" lon="7.12289">
        <ele>2379.8000488281</ele>
        <time>2024-09-13T12:22:55.000Z</time>
      </trkpt>
      <trkpt lat="44.3728" lon="7.12289">
        <ele>2379.8000488281</ele>
        <time>2024-09-13T12:22:56.000Z</time>
      </trkpt>
      <trkpt lat="44.3728" lon="7.12289">
        <ele>2379.8000488281</ele>
        <time>2024-09-13T12:22:58.000Z</time>
      </trkpt>
      <trkpt lat="44.3728" lon="7.12289">
        <ele>2379.8000488281</ele>
        <time>2024-09-13T12:22:59.000Z</time>
      </trkpt>
      <trkpt lat="44.3728" lon="7.12289">
        <ele>2379.8000488281</ele>
        <time>2024-09-13T12:23:00.000Z</time>
      </trkpt>
      <trkpt lat="44.3728" lon="7.12289">
        <ele>2379.8000488281</ele>
        <time>2024-09-13T12:23:02.000Z</time>
      </trkpt>
      <trkpt lat="44.3728" lon="7.12289">
        <ele>2379.6000976562</ele>
        <time>2024-09-13T12:23:05.000Z</time>
      </trkpt>
      <trkpt lat="44.3728" lon="7.12289">
        <ele>2379.6000976562</ele>
        <time>2024-09-13T12:23:06.000Z</time>
      </trkpt>
      <trkpt lat="44.3728" lon="7.12289">
        <ele>2379.8000488281</ele>
        <time>2024-09-13T12:23:10.000Z</time>
      </trkpt>
      <trkpt lat="44.3728" lon="7.12289">
        <ele>2379.6000976562</ele>
        <time>2024-09-13T12:23:32.000Z</time>
      </trkpt>
      <trkpt lat="44.3728" lon="7.12289">
        <ele>2379.6000976562</ele>
        <time>2024-09-13T12:23:45.000Z</time>
      </trkpt>
      <trkpt lat="44.3728" lon="7.12289">
        <ele>2379.6000976562</ele>
        <time>2024-09-13T12:23:50.000Z</time>
      </trkpt>
      <trkpt lat="44.3728" lon="7.12289">
        <ele>2379.6000976562</ele>
        <time>2024-09-13T12:24:01.000Z</time>
      </trkpt>
      <trkpt lat="44.37281" lon="7.12289">
        <ele>2379.6000976562</ele>
        <time>2024-09-13T12:24:15.000Z</time>
      </trkpt>
      <trkpt lat="44.37281" lon="7.12289">
        <ele>2379.6000976562</ele>
        <time>2024-09-13T12:24:19.000Z</time>
      </trkpt>
      <trkpt lat="44.37281" lon="7.12289">
        <ele>2379.6000976562</ele>
        <time>2024-09-13T12:24:21.000Z</time>
      </trkpt>
      <trkpt lat="44.37281" lon="7.1229">
        <ele>2379.6000976562</ele>
        <time>2024-09-13T12:24:25.000Z</time>
      </trkpt>
      <trkpt lat="44.37281" lon="7.12296">
        <ele>2380.1999511719</ele>
        <time>2024-09-13T12:24:29.000Z</time>
      </trkpt>
      <trkpt lat="44.37282" lon="7.123">
        <ele>2379.8000488281</ele>
        <time>2024-09-13T12:24:31.000Z</time>
      </trkpt>
      <trkpt lat="44.37282" lon="7.12307">
        <ele>2379.3999023438</ele>
        <time>2024-09-13T12:24:34.000Z</time>
      </trkpt>
      <trkpt lat="44.37282" lon="7.12309">
        <ele>2379.3999023438</ele>
        <time>2024-09-13T12:24:35.000Z</time>
      </trkpt>
      <trkpt lat="44.37285" lon="7.12323">
        <ele>2378.1999511719</ele>
        <time>2024-09-13T12:24:38.000Z</time>
      </trkpt>
      <trkpt lat="44.37286" lon="7.12328">
        <ele>2377.3999023438</ele>
        <time>2024-09-13T12:24:39.000Z</time>
      </trkpt>
      <trkpt lat="44.37285" lon="7.12332">
        <ele>2376.8000488281</ele>
        <time>2024-09-13T12:24:40.000Z</time>
      </trkpt>
      <trkpt lat="44.37285" lon="7.12335">
        <ele>2376.8000488281</ele>
        <time>2024-09-13T12:24:41.000Z</time>
      </trkpt>
      <trkpt lat="44.37285" lon="7.12339">
        <ele>2376.8000488281</ele>
        <time>2024-09-13T12:24:42.000Z</time>
      </trkpt>
      <trkpt lat="44.37286" lon="7.12342">
        <ele>2376.8000488281</ele>
        <time>2024-09-13T12:24:43.000Z</time>
      </trkpt>
      <trkpt lat="44.37286" lon="7.12356">
        <ele>2377</ele>
        <time>2024-09-13T12:24:46.000Z</time>
      </trkpt>
      <trkpt lat="44.37286" lon="7.12361">
        <ele>2377</ele>
        <time>2024-09-13T12:24:47.000Z</time>
      </trkpt>
      <trkpt lat="44.37286" lon="7.12365">
        <ele>2377</ele>
        <time>2024-09-13T12:24:48.000Z</time>
      </trkpt>
      <trkpt lat="44.37286" lon="7.12368">
        <ele>2377.1999511719</ele>
        <time>2024-09-13T12:24:49.000Z</time>
      </trkpt>
      <trkpt lat="44.37287" lon="7.12374">
        <ele>2377.1999511719</ele>
        <time>2024-09-13T12:24:51.000Z</time>
      </trkpt>
      <trkpt lat="44.37289" lon="7.12386">
        <ele>2377</ele>
        <time>2024-09-13T12:24:54.000Z</time>
      </trkpt>
      <trkpt lat="44.37289" lon="7.1239">
        <ele>2376.6000976562</ele>
        <time>2024-09-13T12:24:55.000Z</time>
      </trkpt>
      <trkpt lat="44.37289" lon="7.12402">
        <ele>2375.8000488281</ele>
        <time>2024-09-13T12:24:58.000Z</time>
      </trkpt>
      <trkpt lat="44.3729" lon="7.12406">
        <ele>2375.8000488281</ele>
        <time>2024-09-13T12:24:59.000Z</time>
      </trkpt>
      <trkpt lat="44.3729" lon="7.12411">
        <ele>2375.6000976562</ele>
        <time>2024-09-13T12:25:00.000Z</time>
      </trkpt>
      <trkpt lat="44.37289" lon="7.1242">
        <ele>2375.1999511719</ele>
        <time>2024-09-13T12:25:02.000Z</time>
      </trkpt>
      <trkpt lat="44.3729" lon="7.12429">
        <ele>2375</ele>
        <time>2024-09-13T12:25:04.000Z</time>
      </trkpt>
      <trkpt lat="44.3729" lon="7.12433">
        <ele>2374.8000488281</ele>
        <time>2024-09-13T12:25:05.000Z</time>
      </trkpt>
      <trkpt lat="44.3729" lon="7.12438">
        <ele>2374.6000976562</ele>
        <time>2024-09-13T12:25:06.000Z</time>
      </trkpt>
      <trkpt lat="44.3729" lon="7.12442">
        <ele>2374.6000976562</ele>
        <time>2024-09-13T12:25:07.000Z</time>
      </trkpt>
      <trkpt lat="44.3729" lon="7.12451">
        <ele>2374.3999023438</ele>
        <time>2024-09-13T12:25:09.000Z</time>
      </trkpt>
      <trkpt lat="44.3729" lon="7.12456">
        <ele>2374.1999511719</ele>
        <time>2024-09-13T12:25:10.000Z</time>
      </trkpt>
      <trkpt lat="44.3729" lon="7.12466">
        <ele>2374</ele>
        <time>2024-09-13T12:25:12.000Z</time>
      </trkpt>
      <trkpt lat="44.3729" lon="7.1247">
        <ele>2374</ele>
        <time>2024-09-13T12:25:13.000Z</time>
      </trkpt>
      <trkpt lat="44.3729" lon="7.12484">
        <ele>2374</ele>
        <time>2024-09-13T12:25:16.000Z</time>
      </trkpt>
      <trkpt lat="44.3729" lon="7.12488">
        <ele>2374.1999511719</ele>
        <time>2024-09-13T12:25:17.000Z</time>
      </trkpt>
      <trkpt lat="44.3729" lon="7.12491">
        <ele>2374.1999511719</ele>
        <time>2024-09-13T12:25:18.000Z</time>
      </trkpt>
      <trkpt lat="44.3729" lon="7.12492">
        <ele>2374.6000976562</ele>
        <time>2024-09-13T12:25:19.000Z</time>
      </trkpt>
      <trkpt lat="44.3729" lon="7.12494">
        <ele>2374.8000488281</ele>
        <time>2024-09-13T12:25:20.000Z</time>
      </trkpt>
      <trkpt lat="44.37291" lon="7.12501">
        <ele>2375</ele>
        <time>2024-09-13T12:25:22.000Z</time>
      </trkpt>
      <trkpt lat="44.37293" lon="7.12506">
        <ele>2375</ele>
        <time>2024-09-13T12:25:23.000Z</time>
      </trkpt>
      <trkpt lat="44.37295" lon="7.12513">
        <ele>2374.8000488281</ele>
        <time>2024-09-13T12:25:25.000Z</time>
      </trkpt>
      <trkpt lat="44.37296" lon="7.12516">
        <ele>2374.3999023438</ele>
        <time>2024-09-13T12:25:26.000Z</time>
      </trkpt>
      <trkpt lat="44.37297" lon="7.12519">
        <ele>2374</ele>
        <time>2024-09-13T12:25:27.000Z</time>
      </trkpt>
      <trkpt lat="44.37298" lon="7.12523">
        <ele>2373.6000976562</ele>
        <time>2024-09-13T12:25:28.000Z</time>
      </trkpt>
      <trkpt lat="44.37299" lon="7.12526">
        <ele>2373.3999023438</ele>
        <time>2024-09-13T12:25:29.000Z</time>
      </trkpt>
      <trkpt lat="44.37298" lon="7.12528">
        <ele>2373.6000976562</ele>
        <time>2024-09-13T12:25:30.000Z</time>
      </trkpt>
      <trkpt lat="44.37298" lon="7.12531">
        <ele>2373.1999511719</ele>
        <time>2024-09-13T12:25:31.000Z</time>
      </trkpt>
      <trkpt lat="44.37298" lon="7.12535">
        <ele>2373.1999511719</ele>
        <time>2024-09-13T12:25:32.000Z</time>
      </trkpt>
      <trkpt lat="44.37298" lon="7.12538">
        <ele>2373.1999511719</ele>
        <time>2024-09-13T12:25:33.000Z</time>
      </trkpt>
      <trkpt lat="44.37297" lon="7.12537">
        <ele>2373.6000976562</ele>
        <time>2024-09-13T12:25:34.000Z</time>
      </trkpt>
      <trkpt lat="44.37297" lon="7.12537">
        <ele>2373.8000488281</ele>
        <time>2024-09-13T12:25:35.000Z</time>
      </trkpt>
      <trkpt lat="44.37298" lon="7.12535">
        <ele>2373.8000488281</ele>
        <time>2024-09-13T12:25:41.000Z</time>
      </trkpt>
      <trkpt lat="44.37298" lon="7.12536">
        <ele>2373.8000488281</ele>
        <time>2024-09-13T12:25:42.000Z</time>
      </trkpt>
      <trkpt lat="44.37298" lon="7.12537">
        <ele>2373.8000488281</ele>
        <time>2024-09-13T12:25:43.000Z</time>
      </trkpt>
      <trkpt lat="44.37299" lon="7.12542">
        <ele>2373.8000488281</ele>
        <time>2024-09-13T12:25:46.000Z</time>
      </trkpt>
      <trkpt lat="44.37298" lon="7.12541">
        <ele>2374</ele>
        <time>2024-09-13T12:25:52.000Z</time>
      </trkpt>
      <trkpt lat="44.37299" lon="7.12545">
        <ele>2374.3999023438</ele>
        <time>2024-09-13T12:26:01.000Z</time>
      </trkpt>
      <trkpt lat="44.37298" lon="7.12544">
        <ele>2373.8000488281</ele>
        <time>2024-09-13T12:26:02.000Z</time>
      </trkpt>
      <trkpt lat="44.37298" lon="7.12545">
        <ele>2373.8000488281</ele>
        <time>2024-09-13T12:26:03.000Z</time>
      </trkpt>
      <trkpt lat="44.37299" lon="7.12546">
        <ele>2373.6000976562</ele>
        <time>2024-09-13T12:26:04.000Z</time>
      </trkpt>
      <trkpt lat="44.37299" lon="7.12549">
        <ele>2373.6000976562</ele>
        <time>2024-09-13T12:26:05.000Z</time>
      </trkpt>
      <trkpt lat="44.37299" lon="7.12563">
        <ele>2372</ele>
        <time>2024-09-13T12:26:08.000Z</time>
      </trkpt>
      <trkpt lat="44.37298" lon="7.12566">
        <ele>2372</ele>
        <time>2024-09-13T12:26:09.000Z</time>
      </trkpt>
      <trkpt lat="44.37298" lon="7.12568">
        <ele>2372</ele>
        <time>2024-09-13T12:26:10.000Z</time>
      </trkpt>
      <trkpt lat="44.37297" lon="7.12572">
        <ele>2371.8000488281</ele>
        <time>2024-09-13T12:26:11.000Z</time>
      </trkpt>
      <trkpt lat="44.37296" lon="7.12583">
        <ele>2371.8000488281</ele>
        <time>2024-09-13T12:26:13.000Z</time>
      </trkpt>
      <trkpt lat="44.37295" lon="7.12588">
        <ele>2372</ele>
        <time>2024-09-13T12:26:14.000Z</time>
      </trkpt>
      <trkpt lat="44.37295" lon="7.12592">
        <ele>2372</ele>
        <time>2024-09-13T12:26:15.000Z</time>
      </trkpt>
      <trkpt lat="44.37296" lon="7.12597">
        <ele>2372</ele>
        <time>2024-09-13T12:26:16.000Z</time>
      </trkpt>
      <trkpt lat="44.37296" lon="7.126">
        <ele>2372</ele>
        <time>2024-09-13T12:26:17.000Z</time>
      </trkpt>
      <trkpt lat="44.37296" lon="7.12603">
        <ele>2372</ele>
        <time>2024-09-13T12:26:18.000Z</time>
      </trkpt>
      <trkpt lat="44.37295" lon="7.1261">
        <ele>2372.1999511719</ele>
        <time>2024-09-13T12:26:20.000Z</time>
      </trkpt>
      <trkpt lat="44.37295" lon="7.12614">
        <ele>2372</ele>
        <time>2024-09-13T12:26:21.000Z</time>
      </trkpt>
      <trkpt lat="44.37295" lon="7.1263">
        <ele>2371.8000488281</ele>
        <time>2024-09-13T12:26:24.000Z</time>
      </trkpt>
      <trkpt lat="44.37294" lon="7.12637">
        <ele>2371.3999023438</ele>
        <time>2024-09-13T12:26:25.000Z</time>
      </trkpt>
      <trkpt lat="44.37294" lon="7.12642">
        <ele>2370.8000488281</ele>
        <time>2024-09-13T12:26:26.000Z</time>
      </trkpt>
      <trkpt lat="44.37294" lon="7.12643">
        <ele>2370.1999511719</ele>
        <time>2024-09-13T12:26:27.000Z</time>
      </trkpt>
      <trkpt lat="44.37294" lon="7.12643">
        <ele>2369.8000488281</ele>
        <time>2024-09-13T12:26:28.000Z</time>
      </trkpt>
      <trkpt lat="44.37294" lon="7.12643">
        <ele>2369.6000976562</ele>
        <time>2024-09-13T12:26:29.000Z</time>
      </trkpt>
      <trkpt lat="44.37294" lon="7.12643">
        <ele>2370</ele>
        <time>2024-09-13T12:26:34.000Z</time>
      </trkpt>
      <trkpt lat="44.37294" lon="7.12643">
        <ele>2370</ele>
        <time>2024-09-13T12:26:36.000Z</time>
      </trkpt>
      <trkpt lat="44.37294" lon="7.12643">
        <ele>2370</ele>
        <time>2024-09-13T12:26:39.000Z</time>
      </trkpt>
      <trkpt lat="44.37294" lon="7.12643">
        <ele>2369.8000488281</ele>
        <time>2024-09-13T12:26:40.000Z</time>
      </trkpt>
      <trkpt lat="44.37294" lon="7.12643">
        <ele>2370</ele>
        <time>2024-09-13T12:26:43.000Z</time>
      </trkpt>
      <trkpt lat="44.37294" lon="7.12644">
        <ele>2370</ele>
        <time>2024-09-13T12:26:44.000Z</time>
      </trkpt>
      <trkpt lat="44.37294" lon="7.12645">
        <ele>2369.8000488281</ele>
        <time>2024-09-13T12:26:45.000Z</time>
      </trkpt>
      <trkpt lat="44.37294" lon="7.12648">
        <ele>2369.6000976562</ele>
        <time>2024-09-13T12:26:47.000Z</time>
      </trkpt>
      <trkpt lat="44.37294" lon="7.12649">
        <ele>2369.3999023438</ele>
        <time>2024-09-13T12:26:48.000Z</time>
      </trkpt>
      <trkpt lat="44.37294" lon="7.1265">
        <ele>2369.3999023438</ele>
        <time>2024-09-13T12:26:49.000Z</time>
      </trkpt>
      <trkpt lat="44.37293" lon="7.12649">
        <ele>2369.1999511719</ele>
        <time>2024-09-13T12:26:50.000Z</time>
      </trkpt>
      <trkpt lat="44.37293" lon="7.12649">
        <ele>2368.3999023438</ele>
        <time>2024-09-13T12:26:52.000Z</time>
      </trkpt>
      <trkpt lat="44.37294" lon="7.12649">
        <ele>2368.1999511719</ele>
        <time>2024-09-13T12:26:53.000Z</time>
      </trkpt>
      <trkpt lat="44.37294" lon="7.12649">
        <ele>2368.1999511719</ele>
        <time>2024-09-13T12:26:57.000Z</time>
      </trkpt>
      <trkpt lat="44.37294" lon="7.12649">
        <ele>2368.1999511719</ele>
        <time>2024-09-13T12:26:58.000Z</time>
      </trkpt>
      <trkpt lat="44.37294" lon="7.12649">
        <ele>2368.3999023438</ele>
        <time>2024-09-13T12:27:00.000Z</time>
      </trkpt>
      <trkpt lat="44.37293" lon="7.12648">
        <ele>2368.3999023438</ele>
        <time>2024-09-13T12:27:03.000Z</time>
      </trkpt>
      <trkpt lat="44.37293" lon="7.12648">
        <ele>2368.3999023438</ele>
        <time>2024-09-13T12:27:04.000Z</time>
      </trkpt>
      <trkpt lat="44.3729" lon="7.12646">
        <ele>2368.3999023438</ele>
        <time>2024-09-13T12:27:06.000Z</time>
      </trkpt>
      <trkpt lat="44.3729" lon="7.12646">
        <ele>2367.6000976562</ele>
        <time>2024-09-13T12:27:07.000Z</time>
      </trkpt>
      <trkpt lat="44.37288" lon="7.12645">
        <ele>2367</ele>
        <time>2024-09-13T12:27:08.000Z</time>
      </trkpt>
      <trkpt lat="44.37286" lon="7.12644">
        <ele>2366.3999023438</ele>
        <time>2024-09-13T12:27:09.000Z</time>
      </trkpt>
      <trkpt lat="44.37283" lon="7.12644">
        <ele>2366</ele>
        <time>2024-09-13T12:27:11.000Z</time>
      </trkpt>
      <trkpt lat="44.37282" lon="7.12644">
        <ele>2366</ele>
        <time>2024-09-13T12:27:12.000Z</time>
      </trkpt>
      <trkpt lat="44.37281" lon="7.12644">
        <ele>2366</ele>
        <time>2024-09-13T12:27:13.000Z</time>
      </trkpt>
      <trkpt lat="44.3728" lon="7.12644">
        <ele>2366</ele>
        <time>2024-09-13T12:27:14.000Z</time>
      </trkpt>
      <trkpt lat="44.37279" lon="7.12644">
        <ele>2366</ele>
        <time>2024-09-13T12:27:15.000Z</time>
      </trkpt>
      <trkpt lat="44.37279" lon="7.12644">
        <ele>2366</ele>
        <time>2024-09-13T12:27:16.000Z</time>
      </trkpt>
      <trkpt lat="44.37277" lon="7.12645">
        <ele>2366.6000976562</ele>
        <time>2024-09-13T12:27:24.000Z</time>
      </trkpt>
      <trkpt lat="44.37276" lon="7.12645">
        <ele>2366.6000976562</ele>
        <time>2024-09-13T12:27:25.000Z</time>
      </trkpt>
      <trkpt lat="44.37271" lon="7.12646">
        <ele>2367.1999511719</ele>
        <time>2024-09-13T12:27:29.000Z</time>
      </trkpt>
      <trkpt lat="44.37268" lon="7.12647">
        <ele>2367.8000488281</ele>
        <time>2024-09-13T12:27:32.000Z</time>
      </trkpt>
      <trkpt lat="44.37267" lon="7.12648">
        <ele>2368</ele>
        <time>2024-09-13T12:27:33.000Z</time>
      </trkpt>
      <trkpt lat="44.37266" lon="7.12649">
        <ele>2368.1999511719</ele>
        <time>2024-09-13T12:27:34.000Z</time>
      </trkpt>
      <trkpt lat="44.37265" lon="7.12649">
        <ele>2368.3999023438</ele>
        <time>2024-09-13T12:27:35.000Z</time>
      </trkpt>
      <trkpt lat="44.37264" lon="7.1265">
        <ele>2368.6000976562</ele>
        <time>2024-09-13T12:27:36.000Z</time>
      </trkpt>
      <trkpt lat="44.37263" lon="7.12651">
        <ele>2368.6000976562</ele>
        <time>2024-09-13T12:27:37.000Z</time>
      </trkpt>
      <trkpt lat="44.37262" lon="7.12652">
        <ele>2368.8000488281</ele>
        <time>2024-09-13T12:27:38.000Z</time>
      </trkpt>
      <trkpt lat="44.37261" lon="7.12652">
        <ele>2369</ele>
        <time>2024-09-13T12:27:39.000Z</time>
      </trkpt>
      <trkpt lat="44.37262" lon="7.12652">
        <ele>2369.1999511719</ele>
        <time>2024-09-13T12:27:40.000Z</time>
      </trkpt>
      <trkpt lat="44.37262" lon="7.12652">
        <ele>2369.3999023438</ele>
        <time>2024-09-13T12:27:42.000Z</time>
      </trkpt>
      <trkpt lat="44.37259" lon="7.12656">
        <ele>2369</ele>
        <time>2024-09-13T12:27:45.000Z</time>
      </trkpt>
      <trkpt lat="44.37256" lon="7.12659">
        <ele>2369</ele>
        <time>2024-09-13T12:27:46.000Z</time>
      </trkpt>
      <trkpt lat="44.37253" lon="7.12662">
        <ele>2368.6000976562</ele>
        <time>2024-09-13T12:27:47.000Z</time>
      </trkpt>
      <trkpt lat="44.37251" lon="7.12662">
        <ele>2368.1999511719</ele>
        <time>2024-09-13T12:27:48.000Z</time>
      </trkpt>
      <trkpt lat="44.37248" lon="7.12663">
        <ele>2368</ele>
        <time>2024-09-13T12:27:49.000Z</time>
      </trkpt>
      <trkpt lat="44.37245" lon="7.12664">
        <ele>2367.6000976562</ele>
        <time>2024-09-13T12:27:50.000Z</time>
      </trkpt>
      <trkpt lat="44.37242" lon="7.12666">
        <ele>2367.3999023438</ele>
        <time>2024-09-13T12:27:51.000Z</time>
      </trkpt>
      <trkpt lat="44.37238" lon="7.1267">
        <ele>2367.3999023438</ele>
        <time>2024-09-13T12:27:53.000Z</time>
      </trkpt>
      <trkpt lat="44.37236" lon="7.12672">
        <ele>2367.3999023438</ele>
        <time>2024-09-13T12:27:54.000Z</time>
      </trkpt>
      <trkpt lat="44.37234" lon="7.12674">
        <ele>2367.3999023438</ele>
        <time>2024-09-13T12:27:55.000Z</time>
      </trkpt>
      <trkpt lat="44.37227" lon="7.1268">
        <ele>2367.1999511719</ele>
        <time>2024-09-13T12:27:58.000Z</time>
      </trkpt>
      <trkpt lat="44.37225" lon="7.12683">
        <ele>2367.1999511719</ele>
        <time>2024-09-13T12:27:59.000Z</time>
      </trkpt>
      <trkpt lat="44.37223" lon="7.12684">
        <ele>2367</ele>
        <time>2024-09-13T12:28:00.000Z</time>
      </trkpt>
      <trkpt lat="44.3722" lon="7.12685">
        <ele>2367</ele>
        <time>2024-09-13T12:28:01.000Z</time>
      </trkpt>
      <trkpt lat="44.37216" lon="7.12691">
        <ele>2367</ele>
        <time>2024-09-13T12:28:03.000Z</time>
      </trkpt>
      <trkpt lat="44.37212" lon="7.12696">
        <ele>2366.8000488281</ele>
        <time>2024-09-13T12:28:05.000Z</time>
      </trkpt>
      <trkpt lat="44.3721" lon="7.12702">
        <ele>2366.6000976562</ele>
        <time>2024-09-13T12:28:07.000Z</time>
      </trkpt>
      <trkpt lat="44.37208" lon="7.12705">
        <ele>2366.6000976562</ele>
        <time>2024-09-13T12:28:08.000Z</time>
      </trkpt>
      <trkpt lat="44.37204" lon="7.12718">
        <ele>2366</ele>
        <time>2024-09-13T12:28:11.000Z</time>
      </trkpt>
      <trkpt lat="44.37204" lon="7.12721">
        <ele>2365.3999023438</ele>
        <time>2024-09-13T12:28:12.000Z</time>
      </trkpt>
      <trkpt lat="44.37204" lon="7.12725">
        <ele>2365</ele>
        <time>2024-09-13T12:28:13.000Z</time>
      </trkpt>
      <trkpt lat="44.37204" lon="7.12734">
        <ele>2364.8000488281</ele>
        <time>2024-09-13T12:28:15.000Z</time>
      </trkpt>
      <trkpt lat="44.37203" lon="7.12736">
        <ele>2364.3999023438</ele>
        <time>2024-09-13T12:28:16.000Z</time>
      </trkpt>
      <trkpt lat="44.37201" lon="7.12738">
        <ele>2363.8000488281</ele>
        <time>2024-09-13T12:28:17.000Z</time>
      </trkpt>
      <trkpt lat="44.37197" lon="7.12743">
        <ele>2362.8000488281</ele>
        <time>2024-09-13T12:28:19.000Z</time>
      </trkpt>
      <trkpt lat="44.37194" lon="7.12751">
        <ele>2362.3999023438</ele>
        <time>2024-09-13T12:28:21.000Z</time>
      </trkpt>
      <trkpt lat="44.37193" lon="7.12756">
        <ele>2362</ele>
        <time>2024-09-13T12:28:22.000Z</time>
      </trkpt>
      <trkpt lat="44.37191" lon="7.12763">
        <ele>2361.6000976562</ele>
        <time>2024-09-13T12:28:23.000Z</time>
      </trkpt>
      <trkpt lat="44.37187" lon="7.12775">
        <ele>2360</ele>
        <time>2024-09-13T12:28:25.000Z</time>
      </trkpt>
      <trkpt lat="44.37184" lon="7.12778">
        <ele>2359</ele>
        <time>2024-09-13T12:28:26.000Z</time>
      </trkpt>
      <trkpt lat="44.37181" lon="7.12781">
        <ele>2358.8000488281</ele>
        <time>2024-09-13T12:28:27.000Z</time>
      </trkpt>
      <trkpt lat="44.37179" lon="7.12784">
        <ele>2358.3999023438</ele>
        <time>2024-09-13T12:28:28.000Z</time>
      </trkpt>
      <trkpt lat="44.37178" lon="7.12788">
        <ele>2358.3999023438</ele>
        <time>2024-09-13T12:28:29.000Z</time>
      </trkpt>
      <trkpt lat="44.37173" lon="7.12802">
        <ele>2358.3999023438</ele>
        <time>2024-09-13T12:28:32.000Z</time>
      </trkpt>
      <trkpt lat="44.37172" lon="7.12809">
        <ele>2358</ele>
        <time>2024-09-13T12:28:33.000Z</time>
      </trkpt>
      <trkpt lat="44.37171" lon="7.12817">
        <ele>2357.3999023438</ele>
        <time>2024-09-13T12:28:34.000Z</time>
      </trkpt>
      <trkpt lat="44.37171" lon="7.12822">
        <ele>2356.1999511719</ele>
        <time>2024-09-13T12:28:35.000Z</time>
      </trkpt>
      <trkpt lat="44.37169" lon="7.12825">
        <ele>2356.1999511719</ele>
        <time>2024-09-13T12:28:36.000Z</time>
      </trkpt>
      <trkpt lat="44.37168" lon="7.12827">
        <ele>2356.1999511719</ele>
        <time>2024-09-13T12:28:37.000Z</time>
      </trkpt>
      <trkpt lat="44.37167" lon="7.12829">
        <ele>2356.1999511719</ele>
        <time>2024-09-13T12:28:38.000Z</time>
      </trkpt>
      <trkpt lat="44.37166" lon="7.12831">
        <ele>2356.3999023438</ele>
        <time>2024-09-13T12:28:39.000Z</time>
      </trkpt>
      <trkpt lat="44.37165" lon="7.12833">
        <ele>2357</ele>
        <time>2024-09-13T12:28:40.000Z</time>
      </trkpt>
      <trkpt lat="44.37164" lon="7.12835">
        <ele>2357.1999511719</ele>
        <time>2024-09-13T12:28:41.000Z</time>
      </trkpt>
      <trkpt lat="44.37163" lon="7.12838">
        <ele>2357.1999511719</ele>
        <time>2024-09-13T12:28:42.000Z</time>
      </trkpt>
      <trkpt lat="44.37162" lon="7.1284">
        <ele>2357.3999023438</ele>
        <time>2024-09-13T12:28:43.000Z</time>
      </trkpt>
      <trkpt lat="44.37161" lon="7.12842">
        <ele>2357.3999023438</ele>
        <time>2024-09-13T12:28:44.000Z</time>
      </trkpt>
      <trkpt lat="44.37161" lon="7.12844">
        <ele>2358</ele>
        <time>2024-09-13T12:28:45.000Z</time>
      </trkpt>
      <trkpt lat="44.37161" lon="7.12847">
        <ele>2358</ele>
        <time>2024-09-13T12:28:46.000Z</time>
      </trkpt>
      <trkpt lat="44.37158" lon="7.12855">
        <ele>2358.1999511719</ele>
        <time>2024-09-13T12:28:49.000Z</time>
      </trkpt>
      <trkpt lat="44.37158" lon="7.12857">
        <ele>2358.1999511719</ele>
        <time>2024-09-13T12:28:50.000Z</time>
      </trkpt>
      <trkpt lat="44.37156" lon="7.12862">
        <ele>2358</ele>
        <time>2024-09-13T12:28:52.000Z</time>
      </trkpt>
      <trkpt lat="44.37156" lon="7.12864">
        <ele>2358.1999511719</ele>
        <time>2024-09-13T12:28:53.000Z</time>
      </trkpt>
      <trkpt lat="44.37153" lon="7.12867">
        <ele>2358.3999023438</ele>
        <time>2024-09-13T12:28:55.000Z</time>
      </trkpt>
      <trkpt lat="44.37153" lon="7.12867">
        <ele>2358.8000488281</ele>
        <time>2024-09-13T12:28:56.000Z</time>
      </trkpt>
      <trkpt lat="44.37152" lon="7.12867">
        <ele>2359</ele>
        <time>2024-09-13T12:28:57.000Z</time>
      </trkpt>
      <trkpt lat="44.37151" lon="7.12867">
        <ele>2359</ele>
        <time>2024-09-13T12:28:58.000Z</time>
      </trkpt>
      <trkpt lat="44.37151" lon="7.12868">
        <ele>2359</ele>
        <time>2024-09-13T12:28:59.000Z</time>
      </trkpt>
      <trkpt lat="44.37151" lon="7.12869">
        <ele>2359.1999511719</ele>
        <time>2024-09-13T12:29:00.000Z</time>
      </trkpt>
      <trkpt lat="44.37151" lon="7.12872">
        <ele>2359</ele>
        <time>2024-09-13T12:29:02.000Z</time>
      </trkpt>
      <trkpt lat="44.37152" lon="7.12875">
        <ele>2359</ele>
        <time>2024-09-13T12:29:04.000Z</time>
      </trkpt>
      <trkpt lat="44.37152" lon="7.12875">
        <ele>2359</ele>
        <time>2024-09-13T12:29:05.000Z</time>
      </trkpt>
      <trkpt lat="44.37152" lon="7.12877">
        <ele>2358.8000488281</ele>
        <time>2024-09-13T12:29:06.000Z</time>
      </trkpt>
      <trkpt lat="44.37152" lon="7.12881">
        <ele>2358.6000976562</ele>
        <time>2024-09-13T12:29:07.000Z</time>
      </trkpt>
      <trkpt lat="44.37151" lon="7.12891">
        <ele>2358.3999023438</ele>
        <time>2024-09-13T12:29:09.000Z</time>
      </trkpt>
      <trkpt lat="44.3715" lon="7.12899">
        <ele>2357.6000976562</ele>
        <time>2024-09-13T12:29:10.000Z</time>
      </trkpt>
      <trkpt lat="44.37149" lon="7.12906">
        <ele>2356</ele>
        <time>2024-09-13T12:29:11.000Z</time>
      </trkpt>
      <trkpt lat="44.37148" lon="7.12913">
        <ele>2354.1999511719</ele>
        <time>2024-09-13T12:29:12.000Z</time>
      </trkpt>
      <trkpt lat="44.37147" lon="7.12921">
        <ele>2352.8000488281</ele>
        <time>2024-09-13T12:29:13.000Z</time>
      </trkpt>
      <trkpt lat="44.37144" lon="7.1293">
        <ele>2351.8000488281</ele>
        <time>2024-09-13T12:29:14.000Z</time>
      </trkpt>
      <trkpt lat="44.37142" lon="7.12936">
        <ele>2351.3999023438</ele>
        <time>2024-09-13T12:29:15.000Z</time>
      </trkpt>
      <trkpt lat="44.3714" lon="7.12942">
        <ele>2350.6000976562</ele>
        <time>2024-09-13T12:29:16.000Z</time>
      </trkpt>
      <trkpt lat="44.37138" lon="7.12946">
        <ele>2349.6000976562</ele>
        <time>2024-09-13T12:29:17.000Z</time>
      </trkpt>
      <trkpt lat="44.37137" lon="7.12951">
        <ele>2349.3999023438</ele>
        <time>2024-09-13T12:29:18.000Z</time>
      </trkpt>
      <trkpt lat="44.37135" lon="7.12955">
        <ele>2349.1999511719</ele>
        <time>2024-09-13T12:29:19.000Z</time>
      </trkpt>
      <trkpt lat="44.37133" lon="7.12959">
        <ele>2348.8000488281</ele>
        <time>2024-09-13T12:29:20.000Z</time>
      </trkpt>
      <trkpt lat="44.37132" lon="7.12964">
        <ele>2348.8000488281</ele>
        <time>2024-09-13T12:29:21.000Z</time>
      </trkpt>
      <trkpt lat="44.37132" lon="7.12969">
        <ele>2348.8000488281</ele>
        <time>2024-09-13T12:29:22.000Z</time>
      </trkpt>
      <trkpt lat="44.37131" lon="7.12972">
        <ele>2348.3999023438</ele>
        <time>2024-09-13T12:29:23.000Z</time>
      </trkpt>
      <trkpt lat="44.37131" lon="7.12976">
        <ele>2348.1999511719</ele>
        <time>2024-09-13T12:29:24.000Z</time>
      </trkpt>
      <trkpt lat="44.3713" lon="7.12977">
        <ele>2348.1999511719</ele>
        <time>2024-09-13T12:29:25.000Z</time>
      </trkpt>
      <trkpt lat="44.3713" lon="7.12979">
        <ele>2348.1999511719</ele>
        <time>2024-09-13T12:29:26.000Z</time>
      </trkpt>
      <trkpt lat="44.37129" lon="7.1298">
        <ele>2348.1999511719</ele>
        <time>2024-09-13T12:29:27.000Z</time>
      </trkpt>
      <trkpt lat="44.37129" lon="7.12982">
        <ele>2348.1999511719</ele>
        <time>2024-09-13T12:29:28.000Z</time>
      </trkpt>
      <trkpt lat="44.37126" lon="7.12998">
        <ele>2347.8000488281</ele>
        <time>2024-09-13T12:29:33.000Z</time>
      </trkpt>
      <trkpt lat="44.37122" lon="7.13013">
        <ele>2347.1999511719</ele>
        <time>2024-09-13T12:29:36.000Z</time>
      </trkpt>
      <trkpt lat="44.37122" lon="7.1302">
        <ele>2346.8000488281</ele>
        <time>2024-09-13T12:29:37.000Z</time>
      </trkpt>
      <trkpt lat="44.37124" lon="7.13028">
        <ele>2346.6000976562</ele>
        <time>2024-09-13T12:29:38.000Z</time>
      </trkpt>
      <trkpt lat="44.37125" lon="7.13035">
        <ele>2345.8000488281</ele>
        <time>2024-09-13T12:29:39.000Z</time>
      </trkpt>
      <trkpt lat="44.37127" lon="7.1304">
        <ele>2345.6000976562</ele>
        <time>2024-09-13T12:29:40.000Z</time>
      </trkpt>
      <trkpt lat="44.37127" lon="7.13043">
        <ele>2345.6000976562</ele>
        <time>2024-09-13T12:29:41.000Z</time>
      </trkpt>
      <trkpt lat="44.37127" lon="7.13047">
        <ele>2345.6000976562</ele>
        <time>2024-09-13T12:29:42.000Z</time>
      </trkpt>
      <trkpt lat="44.37127" lon="7.13051">
        <ele>2346</ele>
        <time>2024-09-13T12:29:43.000Z</time>
      </trkpt>
      <trkpt lat="44.37127" lon="7.13056">
        <ele>2346.6000976562</ele>
        <time>2024-09-13T12:29:44.000Z</time>
      </trkpt>
      <trkpt lat="44.37126" lon="7.13059">
        <ele>2346.8000488281</ele>
        <time>2024-09-13T12:29:45.000Z</time>
      </trkpt>
      <trkpt lat="44.37127" lon="7.13069">
        <ele>2346.8000488281</ele>
        <time>2024-09-13T12:29:47.000Z</time>
      </trkpt>
      <trkpt lat="44.37128" lon="7.13074">
        <ele>2346.8000488281</ele>
        <time>2024-09-13T12:29:48.000Z</time>
      </trkpt>
      <trkpt lat="44.37129" lon="7.13079">
        <ele>2346.8000488281</ele>
        <time>2024-09-13T12:29:49.000Z</time>
      </trkpt>
      <trkpt lat="44.37132" lon="7.131">
        <ele>2345.8000488281</ele>
        <time>2024-09-13T12:29:53.000Z</time>
      </trkpt>
      <trkpt lat="44.37135" lon="7.13113">
        <ele>2345.3999023438</ele>
        <time>2024-09-13T12:29:55.000Z</time>
      </trkpt>
      <trkpt lat="44.37134" lon="7.13117">
        <ele>2344.8000488281</ele>
        <time>2024-09-13T12:29:56.000Z</time>
      </trkpt>
      <trkpt lat="44.37135" lon="7.13121">
        <ele>2344.6000976562</ele>
        <time>2024-09-13T12:29:57.000Z</time>
      </trkpt>
      <trkpt lat="44.37136" lon="7.13126">
        <ele>2344.6000976562</ele>
        <time>2024-09-13T12:29:58.000Z</time>
      </trkpt>
      <trkpt lat="44.37136" lon="7.1313">
        <ele>2344.3999023438</ele>
        <time>2024-09-13T12:29:59.000Z</time>
      </trkpt>
      <trkpt lat="44.37138" lon="7.13139">
        <ele>2343.6000976562</ele>
        <time>2024-09-13T12:30:01.000Z</time>
      </trkpt>
      <trkpt lat="44.37138" lon="7.1315">
        <ele>2343</ele>
        <time>2024-09-13T12:30:03.000Z</time>
      </trkpt>
      <trkpt lat="44.37138" lon="7.13161">
        <ele>2342.3999023438</ele>
        <time>2024-09-13T12:30:05.000Z</time>
      </trkpt>
      <trkpt lat="44.37139" lon="7.13167">
        <ele>2342</ele>
        <time>2024-09-13T12:30:06.000Z</time>
      </trkpt>
      <trkpt lat="44.37138" lon="7.13173">
        <ele>2341.8000488281</ele>
        <time>2024-09-13T12:30:07.000Z</time>
      </trkpt>
      <trkpt lat="44.37137" lon="7.13177">
        <ele>2341.6000976562</ele>
        <time>2024-09-13T12:30:08.000Z</time>
      </trkpt>
      <trkpt lat="44.37137" lon="7.13181">
        <ele>2340</ele>
        <time>2024-09-13T12:30:09.000Z</time>
      </trkpt>
      <trkpt lat="44.37137" lon="7.13185">
        <ele>2340</ele>
        <time>2024-09-13T12:30:10.000Z</time>
      </trkpt>
      <trkpt lat="44.37137" lon="7.13189">
        <ele>2339.8000488281</ele>
        <time>2024-09-13T12:30:11.000Z</time>
      </trkpt>
      <trkpt lat="44.37136" lon="7.13203">
        <ele>2339</ele>
        <time>2024-09-13T12:30:14.000Z</time>
      </trkpt>
      <trkpt lat="44.37135" lon="7.13207">
        <ele>2338</ele>
        <time>2024-09-13T12:30:15.000Z</time>
      </trkpt>
      <trkpt lat="44.37134" lon="7.13211">
        <ele>2338</ele>
        <time>2024-09-13T12:30:16.000Z</time>
      </trkpt>
      <trkpt lat="44.37134" lon="7.13216">
        <ele>2338</ele>
        <time>2024-09-13T12:30:17.000Z</time>
      </trkpt>
      <trkpt lat="44.37133" lon="7.13226">
        <ele>2337.6000976562</ele>
        <time>2024-09-13T12:30:19.000Z</time>
      </trkpt>
      <trkpt lat="44.37132" lon="7.13242">
        <ele>2336.6000976562</ele>
        <time>2024-09-13T12:30:22.000Z</time>
      </trkpt>
      <trkpt lat="44.37132" lon="7.13245">
        <ele>2336.6000976562</ele>
        <time>2024-09-13T12:30:23.000Z</time>
      </trkpt>
      <trkpt lat="44.37131" lon="7.1325">
        <ele>2336.3999023438</ele>
        <time>2024-09-13T12:30:24.000Z</time>
      </trkpt>
      <trkpt lat="44.37129" lon="7.13263">
        <ele>2335.6000976562</ele>
        <time>2024-09-13T12:30:27.000Z</time>
      </trkpt>
      <trkpt lat="44.37129" lon="7.13267">
        <ele>2335</ele>
        <time>2024-09-13T12:30:28.000Z</time>
      </trkpt>
      <trkpt lat="44.37129" lon="7.13271">
        <ele>2334.6000976562</ele>
        <time>2024-09-13T12:30:29.000Z</time>
      </trkpt>
      <trkpt lat="44.37128" lon="7.13276">
        <ele>2334.6000976562</ele>
        <time>2024-09-13T12:30:30.000Z</time>
      </trkpt>
      <trkpt lat="44.37128" lon="7.13281">
        <ele>2334.3999023438</ele>
        <time>2024-09-13T12:30:31.000Z</time>
      </trkpt>
      <trkpt lat="44.37125" lon="7.13295">
        <ele>2333.6000976562</ele>
        <time>2024-09-13T12:30:34.000Z</time>
      </trkpt>
      <trkpt lat="44.37124" lon="7.13301">
        <ele>2333.6000976562</ele>
        <time>2024-09-13T12:30:35.000Z</time>
      </trkpt>
      <trkpt lat="44.37124" lon="7.13307">
        <ele>2333.1999511719</ele>
        <time>2024-09-13T12:30:36.000Z</time>
      </trkpt>
      <trkpt lat="44.37123" lon="7.13318">
        <ele>2332.8000488281</ele>
        <time>2024-09-13T12:30:38.000Z</time>
      </trkpt>
      <trkpt lat="44.37122" lon="7.13324">
        <ele>2332</ele>
        <time>2024-09-13T12:30:39.000Z</time>
      </trkpt>
      <trkpt lat="44.37121" lon="7.13327">
        <ele>2331.8000488281</ele>
        <time>2024-09-13T12:30:40.000Z</time>
      </trkpt>
      <trkpt lat="44.37121" lon="7.13331">
        <ele>2331.8000488281</ele>
        <time>2024-09-13T12:30:41.000Z</time>
      </trkpt>
      <trkpt lat="44.37121" lon="7.13334">
        <ele>2331.8000488281</ele>
        <time>2024-09-13T12:30:42.000Z</time>
      </trkpt>
      <trkpt lat="44.37122" lon="7.13336">
        <ele>2332</ele>
        <time>2024-09-13T12:30:43.000Z</time>
      </trkpt>
      <trkpt lat="44.37122" lon="7.1334">
        <ele>2332</ele>
        <time>2024-09-13T12:30:44.000Z</time>
      </trkpt>
      <trkpt lat="44.37123" lon="7.13354">
        <ele>2331.8000488281</ele>
        <time>2024-09-13T12:30:47.000Z</time>
      </trkpt>
      <trkpt lat="44.37123" lon="7.1336">
        <ele>2331</ele>
        <time>2024-09-13T12:30:48.000Z</time>
      </trkpt>
      <trkpt lat="44.37124" lon="7.13365">
        <ele>2330.3999023438</ele>
        <time>2024-09-13T12:30:49.000Z</time>
      </trkpt>
      <trkpt lat="44.37124" lon="7.1337">
        <ele>2329.6000976562</ele>
        <time>2024-09-13T12:30:50.000Z</time>
      </trkpt>
      <trkpt lat="44.37124" lon="7.13382">
        <ele>2329</ele>
        <time>2024-09-13T12:30:52.000Z</time>
      </trkpt>
      <trkpt lat="44.37124" lon="7.13389">
        <ele>2328.6000976562</ele>
        <time>2024-09-13T12:30:53.000Z</time>
      </trkpt>
      <trkpt lat="44.37125" lon="7.13395">
        <ele>2327.3999023438</ele>
        <time>2024-09-13T12:30:54.000Z</time>
      </trkpt>
      <trkpt lat="44.37126" lon="7.13402">
        <ele>2326.1999511719</ele>
        <time>2024-09-13T12:30:55.000Z</time>
      </trkpt>
      <trkpt lat="44.37126" lon="7.13406">
        <ele>2326</ele>
        <time>2024-09-13T12:30:56.000Z</time>
      </trkpt>
      <trkpt lat="44.37126" lon="7.1341">
        <ele>2325.8000488281</ele>
        <time>2024-09-13T12:30:57.000Z</time>
      </trkpt>
      <trkpt lat="44.37126" lon="7.13413">
        <ele>2325.6000976562</ele>
        <time>2024-09-13T12:30:58.000Z</time>
      </trkpt>
      <trkpt lat="44.37125" lon="7.13422">
        <ele>2325.3999023438</ele>
        <time>2024-09-13T12:31:00.000Z</time>
      </trkpt>
      <trkpt lat="44.37124" lon="7.13425">
        <ele>2325.3999023438</ele>
        <time>2024-09-13T12:31:01.000Z</time>
      </trkpt>
      <trkpt lat="44.37124" lon="7.13435">
        <ele>2325.1999511719</ele>
        <time>2024-09-13T12:31:03.000Z</time>
      </trkpt>
      <trkpt lat="44.37121" lon="7.1345">
        <ele>2324.1999511719</ele>
        <time>2024-09-13T12:31:06.000Z</time>
      </trkpt>
      <trkpt lat="44.3712" lon="7.13456">
        <ele>2324</ele>
        <time>2024-09-13T12:31:07.000Z</time>
      </trkpt>
      <trkpt lat="44.37118" lon="7.13469">
        <ele>2322.6000976562</ele>
        <time>2024-09-13T12:31:09.000Z</time>
      </trkpt>
      <trkpt lat="44.37117" lon="7.13474">
        <ele>2322.3999023438</ele>
        <time>2024-09-13T12:31:10.000Z</time>
      </trkpt>
      <trkpt lat="44.37115" lon="7.13479">
        <ele>2322.1999511719</ele>
        <time>2024-09-13T12:31:11.000Z</time>
      </trkpt>
      <trkpt lat="44.37113" lon="7.13484">
        <ele>2321.8000488281</ele>
        <time>2024-09-13T12:31:12.000Z</time>
      </trkpt>
      <trkpt lat="44.37112" lon="7.13489">
        <ele>2321.3999023438</ele>
        <time>2024-09-13T12:31:13.000Z</time>
      </trkpt>
      <trkpt lat="44.37109" lon="7.13493">
        <ele>2321</ele>
        <time>2024-09-13T12:31:14.000Z</time>
      </trkpt>
      <trkpt lat="44.37108" lon="7.13497">
        <ele>2320.8000488281</ele>
        <time>2024-09-13T12:31:15.000Z</time>
      </trkpt>
      <trkpt lat="44.37107" lon="7.135">
        <ele>2320.1999511719</ele>
        <time>2024-09-13T12:31:16.000Z</time>
      </trkpt>
      <trkpt lat="44.37105" lon="7.13504">
        <ele>2319.8000488281</ele>
        <time>2024-09-13T12:31:17.000Z</time>
      </trkpt>
      <trkpt lat="44.37103" lon="7.13511">
        <ele>2320</ele>
        <time>2024-09-13T12:31:19.000Z</time>
      </trkpt>
      <trkpt lat="44.37101" lon="7.13513">
        <ele>2320</ele>
        <time>2024-09-13T12:31:20.000Z</time>
      </trkpt>
      <trkpt lat="44.37099" lon="7.13515">
        <ele>2320.1999511719</ele>
        <time>2024-09-13T12:31:21.000Z</time>
      </trkpt>
      <trkpt lat="44.37099" lon="7.13515">
        <ele>2320.1999511719</ele>
        <time>2024-09-13T12:31:22.000Z</time>
      </trkpt>
      <trkpt lat="44.37099" lon="7.13515">
        <ele>2320.3999023438</ele>
        <time>2024-09-13T12:31:23.000Z</time>
      </trkpt>
      <trkpt lat="44.37099" lon="7.13515">
        <ele>2320.3999023438</ele>
        <time>2024-09-13T12:31:24.000Z</time>
      </trkpt>
      <trkpt lat="44.37099" lon="7.13515">
        <ele>2320.8000488281</ele>
        <time>2024-09-13T12:31:28.000Z</time>
      </trkpt>
      <trkpt lat="44.37098" lon="7.13516">
        <ele>2321.1999511719</ele>
        <time>2024-09-13T12:31:45.000Z</time>
      </trkpt>
      <trkpt lat="44.37098" lon="7.13516">
        <ele>2321.1999511719</ele>
        <time>2024-09-13T12:31:46.000Z</time>
      </trkpt>
      <trkpt lat="44.37093" lon="7.13521">
        <ele>2320</ele>
        <time>2024-09-13T12:31:50.000Z</time>
      </trkpt>
      <trkpt lat="44.37093" lon="7.13523">
        <ele>2320</ele>
        <time>2024-09-13T12:31:51.000Z</time>
      </trkpt>
      <trkpt lat="44.37092" lon="7.13524">
        <ele>2319.6000976562</ele>
        <time>2024-09-13T12:31:52.000Z</time>
      </trkpt>
      <trkpt lat="44.37092" lon="7.13525">
        <ele>2319.6000976562</ele>
        <time>2024-09-13T12:31:53.000Z</time>
      </trkpt>
      <trkpt lat="44.37092" lon="7.13525">
        <ele>2319</ele>
        <time>2024-09-13T12:31:54.000Z</time>
      </trkpt>
      <trkpt lat="44.37092" lon="7.13525">
        <ele>2319</ele>
        <time>2024-09-13T12:31:55.000Z</time>
      </trkpt>
      <trkpt lat="44.37092" lon="7.13525">
        <ele>2319</ele>
        <time>2024-09-13T12:31:56.000Z</time>
      </trkpt>
      <trkpt lat="44.37092" lon="7.13525">
        <ele>2319</ele>
        <time>2024-09-13T12:31:59.000Z</time>
      </trkpt>
      <trkpt lat="44.37093" lon="7.13524">
        <ele>2318.8000488281</ele>
        <time>2024-09-13T12:32:01.000Z</time>
      </trkpt>
      <trkpt lat="44.37094" lon="7.13523">
        <ele>2318.8000488281</ele>
        <time>2024-09-13T12:32:02.000Z</time>
      </trkpt>
      <trkpt lat="44.37094" lon="7.13522">
        <ele>2318.8000488281</ele>
        <time>2024-09-13T12:32:03.000Z</time>
      </trkpt>
      <trkpt lat="44.37095" lon="7.1352">
        <ele>2318.8000488281</ele>
        <time>2024-09-13T12:32:04.000Z</time>
      </trkpt>
      <trkpt lat="44.37095" lon="7.13519">
        <ele>2318.8000488281</ele>
        <time>2024-09-13T12:32:05.000Z</time>
      </trkpt>
      <trkpt lat="44.37095" lon="7.1352">
        <ele>2318.8000488281</ele>
        <time>2024-09-13T12:32:06.000Z</time>
      </trkpt>
      <trkpt lat="44.37095" lon="7.1352">
        <ele>2318.8000488281</ele>
        <time>2024-09-13T12:32:07.000Z</time>
      </trkpt>
      <trkpt lat="44.37095" lon="7.1352">
        <ele>2319</ele>
        <time>2024-09-13T12:32:08.000Z</time>
      </trkpt>
      <trkpt lat="44.37095" lon="7.13521">
        <ele>2319.3999023438</ele>
        <time>2024-09-13T12:32:09.000Z</time>
      </trkpt>
      <trkpt lat="44.37095" lon="7.13521">
        <ele>2319.3999023438</ele>
        <time>2024-09-13T12:32:10.000Z</time>
      </trkpt>
      <trkpt lat="44.37095" lon="7.13521">
        <ele>2319.3999023438</ele>
        <time>2024-09-13T12:32:12.000Z</time>
      </trkpt>
      <trkpt lat="44.37095" lon="7.13521">
        <ele>2319.3999023438</ele>
        <time>2024-09-13T12:32:13.000Z</time>
      </trkpt>
      <trkpt lat="44.37095" lon="7.13521">
        <ele>2319.3999023438</ele>
        <time>2024-09-13T12:32:14.000Z</time>
      </trkpt>
      <trkpt lat="44.37097" lon="7.13519">
        <ele>2319.3999023438</ele>
        <time>2024-09-13T12:32:16.000Z</time>
      </trkpt>
      <trkpt lat="44.37098" lon="7.13518">
        <ele>2319.3999023438</ele>
        <time>2024-09-13T12:32:17.000Z</time>
      </trkpt>
      <trkpt lat="44.37098" lon="7.13519">
        <ele>2319.3999023438</ele>
        <time>2024-09-13T12:32:18.000Z</time>
      </trkpt>
      <trkpt lat="44.37098" lon="7.13519">
        <ele>2319.3999023438</ele>
        <time>2024-09-13T12:32:19.000Z</time>
      </trkpt>
      <trkpt lat="44.37098" lon="7.13519">
        <ele>2319.6000976562</ele>
        <time>2024-09-13T12:32:23.000Z</time>
      </trkpt>
      <trkpt lat="44.37098" lon="7.13519">
        <ele>2319.8000488281</ele>
        <time>2024-09-13T12:32:36.000Z</time>
      </trkpt>
      <trkpt lat="44.37098" lon="7.13519">
        <ele>2319</ele>
        <time>2024-09-13T12:32:39.000Z</time>
      </trkpt>
      <trkpt lat="44.37098" lon="7.13518">
        <ele>2318.8000488281</ele>
        <time>2024-09-13T12:32:49.000Z</time>
      </trkpt>
      <trkpt lat="44.37097" lon="7.13518">
        <ele>2319</ele>
        <time>2024-09-13T12:32:50.000Z</time>
      </trkpt>
      <trkpt lat="44.37097" lon="7.13518">
        <ele>2320</ele>
        <time>2024-09-13T12:32:54.000Z</time>
      </trkpt>
      <trkpt lat="44.37097" lon="7.13518">
        <ele>2320</ele>
        <time>2024-09-13T12:32:55.000Z</time>
      </trkpt>
      <trkpt lat="44.37098" lon="7.13516">
        <ele>2320</ele>
        <time>2024-09-13T12:32:58.000Z</time>
      </trkpt>
      <trkpt lat="44.37099" lon="7.13515">
        <ele>2319.8000488281</ele>
        <time>2024-09-13T12:32:59.000Z</time>
      </trkpt>
      <trkpt lat="44.371" lon="7.13513">
        <ele>2319.6000976562</ele>
        <time>2024-09-13T12:33:01.000Z</time>
      </trkpt>
      <trkpt lat="44.371" lon="7.13513">
        <ele>2319.6000976562</ele>
        <time>2024-09-13T12:33:02.000Z</time>
      </trkpt>
      <trkpt lat="44.37102" lon="7.1351">
        <ele>2319.8000488281</ele>
        <time>2024-09-13T12:33:04.000Z</time>
      </trkpt>
      <trkpt lat="44.37108" lon="7.13497">
        <ele>2320</ele>
        <time>2024-09-13T12:33:09.000Z</time>
      </trkpt>
      <trkpt lat="44.37109" lon="7.13494">
        <ele>2320.1999511719</ele>
        <time>2024-09-13T12:33:10.000Z</time>
      </trkpt>
      <trkpt lat="44.3711" lon="7.13492">
        <ele>2320.3999023438</ele>
        <time>2024-09-13T12:33:11.000Z</time>
      </trkpt>
      <trkpt lat="44.37111" lon="7.1349">
        <ele>2320.3999023438</ele>
        <time>2024-09-13T12:33:12.000Z</time>
      </trkpt>
      <trkpt lat="44.37112" lon="7.13487">
        <ele>2320.3999023438</ele>
        <time>2024-09-13T12:33:13.000Z</time>
      </trkpt>
      <trkpt lat="44.37112" lon="7.13486">
        <ele>2320.3999023438</ele>
        <time>2024-09-13T12:33:14.000Z</time>
      </trkpt>
      <trkpt lat="44.37113" lon="7.13485">
        <ele>2320.6000976562</ele>
        <time>2024-09-13T12:33:15.000Z</time>
      </trkpt>
      <trkpt lat="44.37113" lon="7.13486">
        <ele>2320.6000976562</ele>
        <time>2024-09-13T12:33:16.000Z</time>
      </trkpt>
      <trkpt lat="44.37113" lon="7.13486">
        <ele>2320.6000976562</ele>
        <time>2024-09-13T12:33:17.000Z</time>
      </trkpt>
      <trkpt lat="44.37113" lon="7.13488">
        <ele>2320.8000488281</ele>
        <time>2024-09-13T12:33:18.000Z</time>
      </trkpt>
      <trkpt lat="44.37112" lon="7.13488">
        <ele>2320.8000488281</ele>
        <time>2024-09-13T12:33:20.000Z</time>
      </trkpt>
      <trkpt lat="44.37112" lon="7.13487">
        <ele>2320.6000976562</ele>
        <time>2024-09-13T12:33:24.000Z</time>
      </trkpt>
      <trkpt lat="44.37112" lon="7.13487">
        <ele>2320.6000976562</ele>
        <time>2024-09-13T12:33:25.000Z</time>
      </trkpt>
      <trkpt lat="44.37112" lon="7.13487">
        <ele>2320.6000976562</ele>
        <time>2024-09-13T12:33:26.000Z</time>
      </trkpt>
      <trkpt lat="44.37111" lon="7.13489">
        <ele>2320.8000488281</ele>
        <time>2024-09-13T12:33:27.000Z</time>
      </trkpt>
      <trkpt lat="44.37108" lon="7.13497">
        <ele>2320.6000976562</ele>
        <time>2024-09-13T12:33:34.000Z</time>
      </trkpt>
      <trkpt lat="44.37107" lon="7.13498">
        <ele>2320.6000976562</ele>
        <time>2024-09-13T12:33:36.000Z</time>
      </trkpt>
      <trkpt lat="44.37107" lon="7.13498">
        <ele>2320.3999023438</ele>
        <time>2024-09-13T12:33:38.000Z</time>
      </trkpt>
      <trkpt lat="44.37106" lon="7.135">
        <ele>2320.1999511719</ele>
        <time>2024-09-13T12:33:42.000Z</time>
      </trkpt>
      <trkpt lat="44.37106" lon="7.135">
        <ele>2320.1999511719</ele>
        <time>2024-09-13T12:33:43.000Z</time>
      </trkpt>
      <trkpt lat="44.37104" lon="7.13506">
        <ele>2320</ele>
        <time>2024-09-13T12:33:46.000Z</time>
      </trkpt>
      <trkpt lat="44.37104" lon="7.13508">
        <ele>2319.3999023438</ele>
        <time>2024-09-13T12:33:47.000Z</time>
      </trkpt>
      <trkpt lat="44.37104" lon="7.13508">
        <ele>2319.1999511719</ele>
        <time>2024-09-13T12:33:48.000Z</time>
      </trkpt>
      <trkpt lat="44.37102" lon="7.1351">
        <ele>2318.8000488281</ele>
        <time>2024-09-13T12:33:49.000Z</time>
      </trkpt>
      <trkpt lat="44.37101" lon="7.13511">
        <ele>2318.6000976562</ele>
        <time>2024-09-13T12:33:50.000Z</time>
      </trkpt>
      <trkpt lat="44.37101" lon="7.13511">
        <ele>2318.3999023438</ele>
        <time>2024-09-13T12:33:51.000Z</time>
      </trkpt>
      <trkpt lat="44.37101" lon="7.13512">
        <ele>2318.3999023438</ele>
        <time>2024-09-13T12:33:52.000Z</time>
      </trkpt>
      <trkpt lat="44.37101" lon="7.13512">
        <ele>2318.3999023438</ele>
        <time>2024-09-13T12:33:53.000Z</time>
      </trkpt>
      <trkpt lat="44.37101" lon="7.13512">
        <ele>2319</ele>
        <time>2024-09-13T12:34:03.000Z</time>
      </trkpt>
      <trkpt lat="44.37101" lon="7.13513">
        <ele>2319</ele>
        <time>2024-09-13T12:34:07.000Z</time>
      </trkpt>
      <trkpt lat="44.37101" lon="7.13513">
        <ele>2319.3999023438</ele>
        <time>2024-09-13T12:34:10.000Z</time>
      </trkpt>
      <trkpt lat="44.37101" lon="7.13512">
        <ele>2319.3999023438</ele>
        <time>2024-09-13T12:34:14.000Z</time>
      </trkpt>
      <trkpt lat="44.37101" lon="7.13512">
        <ele>2319.1999511719</ele>
        <time>2024-09-13T12:34:17.000Z</time>
      </trkpt>
      <trkpt lat="44.37101" lon="7.13513">
        <ele>2319.1999511719</ele>
        <time>2024-09-13T12:34:20.000Z</time>
      </trkpt>
      <trkpt lat="44.37101" lon="7.13513">
        <ele>2319.1999511719</ele>
        <time>2024-09-13T12:34:21.000Z</time>
      </trkpt>
      <trkpt lat="44.37101" lon="7.13513">
        <ele>2319.1999511719</ele>
        <time>2024-09-13T12:34:23.000Z</time>
      </trkpt>
      <trkpt lat="44.371" lon="7.13512">
        <ele>2319.1999511719</ele>
        <time>2024-09-13T12:34:29.000Z</time>
      </trkpt>
      <trkpt lat="44.371" lon="7.13512">
        <ele>2319.8000488281</ele>
        <time>2024-09-13T12:34:31.000Z</time>
      </trkpt>
      <trkpt lat="44.371" lon="7.13512">
        <ele>2319.3999023438</ele>
        <time>2024-09-13T12:34:38.000Z</time>
      </trkpt>
      <trkpt lat="44.371" lon="7.13512">
        <ele>2319.6000976562</ele>
        <time>2024-09-13T12:34:50.000Z</time>
      </trkpt>
      <trkpt lat="44.371" lon="7.13511">
        <ele>2319.6000976562</ele>
        <time>2024-09-13T12:34:51.000Z</time>
      </trkpt>
      <trkpt lat="44.371" lon="7.13511">
        <ele>2319.3999023438</ele>
        <time>2024-09-13T12:35:00.000Z</time>
      </trkpt>
      <trkpt lat="44.371" lon="7.13512">
        <ele>2319.3999023438</ele>
        <time>2024-09-13T12:35:01.000Z</time>
      </trkpt>
      <trkpt lat="44.371" lon="7.13512">
        <ele>2319.3999023438</ele>
        <time>2024-09-13T12:35:02.000Z</time>
      </trkpt>
      <trkpt lat="44.371" lon="7.13512">
        <ele>2319.1999511719</ele>
        <time>2024-09-13T12:35:03.000Z</time>
      </trkpt>
      <trkpt lat="44.371" lon="7.13512">
        <ele>2319</ele>
        <time>2024-09-13T12:35:06.000Z</time>
      </trkpt>
      <trkpt lat="44.371" lon="7.13512">
        <ele>2319.3999023438</ele>
        <time>2024-09-13T12:35:12.000Z</time>
      </trkpt>
      <trkpt lat="44.371" lon="7.13512">
        <ele>2319</ele>
        <time>2024-09-13T12:35:21.000Z</time>
      </trkpt>
      <trkpt lat="44.371" lon="7.13512">
        <ele>2320</ele>
        <time>2024-09-13T12:35:26.000Z</time>
      </trkpt>
      <trkpt lat="44.37101" lon="7.13512">
        <ele>2319.3999023438</ele>
        <time>2024-09-13T12:35:37.000Z</time>
      </trkpt>
      <trkpt lat="44.37101" lon="7.13512">
        <ele>2319.1999511719</ele>
        <time>2024-09-13T12:35:47.000Z</time>
      </trkpt>
      <trkpt lat="44.37101" lon="7.13512">
        <ele>2319.6000976562</ele>
        <time>2024-09-13T12:35:54.000Z</time>
      </trkpt>
      <trkpt lat="44.37101" lon="7.13512">
        <ele>2319.6000976562</ele>
        <time>2024-09-13T12:35:55.000Z</time>
      </trkpt>
      <trkpt lat="44.37101" lon="7.13512">
        <ele>2319.8000488281</ele>
        <time>2024-09-13T12:36:00.000Z</time>
      </trkpt>
      <trkpt lat="44.371" lon="7.13513">
        <ele>2319.6000976562</ele>
        <time>2024-09-13T12:36:02.000Z</time>
      </trkpt>
      <trkpt lat="44.37095" lon="7.13521">
        <ele>2318.8000488281</ele>
        <time>2024-09-13T12:36:06.000Z</time>
      </trkpt>
      <trkpt lat="44.37092" lon="7.13525">
        <ele>2318.1999511719</ele>
        <time>2024-09-13T12:36:07.000Z</time>
      </trkpt>
      <trkpt lat="44.37089" lon="7.13529">
        <ele>2317.6000976562</ele>
        <time>2024-09-13T12:36:08.000Z</time>
      </trkpt>
      <trkpt lat="44.37084" lon="7.13533">
        <ele>2317</ele>
        <time>2024-09-13T12:36:09.000Z</time>
      </trkpt>
      <trkpt lat="44.37079" lon="7.13535">
        <ele>2315.6000976562</ele>
        <time>2024-09-13T12:36:10.000Z</time>
      </trkpt>
      <trkpt lat="44.37073" lon="7.13535">
        <ele>2314</ele>
        <time>2024-09-13T12:36:11.000Z</time>
      </trkpt>
      <trkpt lat="44.37067" lon="7.13533">
        <ele>2313.1999511719</ele>
        <time>2024-09-13T12:36:12.000Z</time>
      </trkpt>
      <trkpt lat="44.37061" lon="7.13531">
        <ele>2312.6000976562</ele>
        <time>2024-09-13T12:36:13.000Z</time>
      </trkpt>
      <trkpt lat="44.37056" lon="7.13528">
        <ele>2312.3999023438</ele>
        <time>2024-09-13T12:36:14.000Z</time>
      </trkpt>
      <trkpt lat="44.3705" lon="7.13524">
        <ele>2311.8000488281</ele>
        <time>2024-09-13T12:36:15.000Z</time>
      </trkpt>
      <trkpt lat="44.37045" lon="7.13521">
        <ele>2311.6000976562</ele>
        <time>2024-09-13T12:36:16.000Z</time>
      </trkpt>
      <trkpt lat="44.3704" lon="7.13518">
        <ele>2311.8000488281</ele>
        <time>2024-09-13T12:36:17.000Z</time>
      </trkpt>
      <trkpt lat="44.37036" lon="7.13515">
        <ele>2311.8000488281</ele>
        <time>2024-09-13T12:36:18.000Z</time>
      </trkpt>
      <trkpt lat="44.37031" lon="7.13511">
        <ele>2311.8000488281</ele>
        <time>2024-09-13T12:36:19.000Z</time>
      </trkpt>
      <trkpt lat="44.37027" lon="7.13507">
        <ele>2311.8000488281</ele>
        <time>2024-09-13T12:36:20.000Z</time>
      </trkpt>
      <trkpt lat="44.37024" lon="7.13504">
        <ele>2311.8000488281</ele>
        <time>2024-09-13T12:36:21.000Z</time>
      </trkpt>
      <trkpt lat="44.37021" lon="7.13501">
        <ele>2312</ele>
        <time>2024-09-13T12:36:22.000Z</time>
      </trkpt>
      <trkpt lat="44.37019" lon="7.13499">
        <ele>2312.1999511719</ele>
        <time>2024-09-13T12:36:23.000Z</time>
      </trkpt>
      <trkpt lat="44.37018" lon="7.13498">
        <ele>2312.6000976562</ele>
        <time>2024-09-13T12:36:24.000Z</time>
      </trkpt>
      <trkpt lat="44.37015" lon="7.13496">
        <ele>2312.8000488281</ele>
        <time>2024-09-13T12:36:25.000Z</time>
      </trkpt>
      <trkpt lat="44.37014" lon="7.13494">
        <ele>2313</ele>
        <time>2024-09-13T12:36:26.000Z</time>
      </trkpt>
      <trkpt lat="44.37012" lon="7.13493">
        <ele>2313</ele>
        <time>2024-09-13T12:36:27.000Z</time>
      </trkpt>
      <trkpt lat="44.37007" lon="7.13486">
        <ele>2313</ele>
        <time>2024-09-13T12:36:30.000Z</time>
      </trkpt>
      <trkpt lat="44.37006" lon="7.13484">
        <ele>2313</ele>
        <time>2024-09-13T12:36:31.000Z</time>
      </trkpt>
      <trkpt lat="44.37002" lon="7.13481">
        <ele>2312.8000488281</ele>
        <time>2024-09-13T12:36:33.000Z</time>
      </trkpt>
      <trkpt lat="44.36999" lon="7.13481">
        <ele>2312.8000488281</ele>
        <time>2024-09-13T12:36:34.000Z</time>
      </trkpt>
      <trkpt lat="44.36997" lon="7.13482">
        <ele>2312.6000976562</ele>
        <time>2024-09-13T12:36:35.000Z</time>
      </trkpt>
      <trkpt lat="44.36995" lon="7.13482">
        <ele>2312.1999511719</ele>
        <time>2024-09-13T12:36:36.000Z</time>
      </trkpt>
      <trkpt lat="44.36994" lon="7.13479">
        <ele>2312</ele>
        <time>2024-09-13T12:36:37.000Z</time>
      </trkpt>
      <trkpt lat="44.36992" lon="7.13475">
        <ele>2311.8000488281</ele>
        <time>2024-09-13T12:36:38.000Z</time>
      </trkpt>
      <trkpt lat="44.36989" lon="7.13472">
        <ele>2311.6000976562</ele>
        <time>2024-09-13T12:36:39.000Z</time>
      </trkpt>
      <trkpt lat="44.36986" lon="7.13467">
        <ele>2311</ele>
        <time>2024-09-13T12:36:40.000Z</time>
      </trkpt>
      <trkpt lat="44.36983" lon="7.13464">
        <ele>2310.1999511719</ele>
        <time>2024-09-13T12:36:41.000Z</time>
      </trkpt>
      <trkpt lat="44.3698" lon="7.13462">
        <ele>2309.3999023438</ele>
        <time>2024-09-13T12:36:42.000Z</time>
      </trkpt>
      <trkpt lat="44.36977" lon="7.1346">
        <ele>2308.6000976562</ele>
        <time>2024-09-13T12:36:43.000Z</time>
      </trkpt>
      <trkpt lat="44.36974" lon="7.13459">
        <ele>2308.6000976562</ele>
        <time>2024-09-13T12:36:44.000Z</time>
      </trkpt>
      <trkpt lat="44.36971" lon="7.13458">
        <ele>2308.6000976562</ele>
        <time>2024-09-13T12:36:45.000Z</time>
      </trkpt>
      <trkpt lat="44.36969" lon="7.13458">
        <ele>2308.3999023438</ele>
        <time>2024-09-13T12:36:46.000Z</time>
      </trkpt>
      <trkpt lat="44.36967" lon="7.13458">
        <ele>2308.3999023438</ele>
        <time>2024-09-13T12:36:47.000Z</time>
      </trkpt>
      <trkpt lat="44.36958" lon="7.13458">
        <ele>2307.8000488281</ele>
        <time>2024-09-13T12:36:50.000Z</time>
      </trkpt>
      <trkpt lat="44.36956" lon="7.13456">
        <ele>2307.6000976562</ele>
        <time>2024-09-13T12:36:51.000Z</time>
      </trkpt>
      <trkpt lat="44.36946" lon="7.13451">
        <ele>2306</ele>
        <time>2024-09-13T12:36:54.000Z</time>
      </trkpt>
      <trkpt lat="44.36943" lon="7.13448">
        <ele>2305.1999511719</ele>
        <time>2024-09-13T12:36:55.000Z</time>
      </trkpt>
      <trkpt lat="44.3694" lon="7.13445">
        <ele>2304.6000976562</ele>
        <time>2024-09-13T12:36:56.000Z</time>
      </trkpt>
      <trkpt lat="44.36931" lon="7.13441">
        <ele>2303.3999023438</ele>
        <time>2024-09-13T12:36:58.000Z</time>
      </trkpt>
      <trkpt lat="44.36926" lon="7.13439">
        <ele>2302.8000488281</ele>
        <time>2024-09-13T12:36:59.000Z</time>
      </trkpt>
      <trkpt lat="44.36922" lon="7.13437">
        <ele>2302.1999511719</ele>
        <time>2024-09-13T12:37:00.000Z</time>
      </trkpt>
      <trkpt lat="44.36912" lon="7.13435">
        <ele>2301.3999023438</ele>
        <time>2024-09-13T12:37:02.000Z</time>
      </trkpt>
      <trkpt lat="44.36908" lon="7.13433">
        <ele>2301.3999023438</ele>
        <time>2024-09-13T12:37:03.000Z</time>
      </trkpt>
      <trkpt lat="44.36905" lon="7.1343">
        <ele>2301.1999511719</ele>
        <time>2024-09-13T12:37:04.000Z</time>
      </trkpt>
      <trkpt lat="44.36902" lon="7.13428">
        <ele>2301</ele>
        <time>2024-09-13T12:37:05.000Z</time>
      </trkpt>
      <trkpt lat="44.369" lon="7.13427">
        <ele>2301</ele>
        <time>2024-09-13T12:37:06.000Z</time>
      </trkpt>
      <trkpt lat="44.36898" lon="7.13428">
        <ele>2300.8000488281</ele>
        <time>2024-09-13T12:37:07.000Z</time>
      </trkpt>
      <trkpt lat="44.36895" lon="7.13428">
        <ele>2300.3999023438</ele>
        <time>2024-09-13T12:37:08.000Z</time>
      </trkpt>
      <trkpt lat="44.36893" lon="7.13427">
        <ele>2300</ele>
        <time>2024-09-13T12:37:09.000Z</time>
      </trkpt>
      <trkpt lat="44.36892" lon="7.13426">
        <ele>2299.6000976562</ele>
        <time>2024-09-13T12:37:10.000Z</time>
      </trkpt>
      <trkpt lat="44.36889" lon="7.13425">
        <ele>2298.3999023438</ele>
        <time>2024-09-13T12:37:11.000Z</time>
      </trkpt>
      <trkpt lat="44.36887" lon="7.13423">
        <ele>2297.8000488281</ele>
        <time>2024-09-13T12:37:12.000Z</time>
      </trkpt>
      <trkpt lat="44.36885" lon="7.1342">
        <ele>2297.1999511719</ele>
        <time>2024-09-13T12:37:13.000Z</time>
      </trkpt>
      <trkpt lat="44.36883" lon="7.13417">
        <ele>2296</ele>
        <time>2024-09-13T12:37:14.000Z</time>
      </trkpt>
      <trkpt lat="44.3688" lon="7.13412">
        <ele>2295.3999023438</ele>
        <time>2024-09-13T12:37:15.000Z</time>
      </trkpt>
      <trkpt lat="44.36877" lon="7.13407">
        <ele>2295.1999511719</ele>
        <time>2024-09-13T12:37:16.000Z</time>
      </trkpt>
      <trkpt lat="44.36875" lon="7.13403">
        <ele>2294.3999023438</ele>
        <time>2024-09-13T12:37:17.000Z</time>
      </trkpt>
      <trkpt lat="44.36873" lon="7.13399">
        <ele>2294.1999511719</ele>
        <time>2024-09-13T12:37:18.000Z</time>
      </trkpt>
      <trkpt lat="44.36872" lon="7.13396">
        <ele>2293.8000488281</ele>
        <time>2024-09-13T12:37:19.000Z</time>
      </trkpt>
      <trkpt lat="44.36871" lon="7.13393">
        <ele>2293.8000488281</ele>
        <time>2024-09-13T12:37:20.000Z</time>
      </trkpt>
      <trkpt lat="44.3687" lon="7.13391">
        <ele>2293.6000976562</ele>
        <time>2024-09-13T12:37:21.000Z</time>
      </trkpt>
      <trkpt lat="44.3687" lon="7.1339">
        <ele>2293.8000488281</ele>
        <time>2024-09-13T12:37:22.000Z</time>
      </trkpt>
      <trkpt lat="44.36869" lon="7.13388">
        <ele>2293.8000488281</ele>
        <time>2024-09-13T12:37:23.000Z</time>
      </trkpt>
      <trkpt lat="44.36865" lon="7.13377">
        <ele>2293.3999023438</ele>
        <time>2024-09-13T12:37:27.000Z</time>
      </trkpt>
      <trkpt lat="44.36863" lon="7.13375">
        <ele>2292.8000488281</ele>
        <time>2024-09-13T12:37:28.000Z</time>
      </trkpt>
      <trkpt lat="44.3686" lon="7.13364">
        <ele>2291.8000488281</ele>
        <time>2024-09-13T12:37:31.000Z</time>
      </trkpt>
      <trkpt lat="44.36859" lon="7.13359">
        <ele>2291.3999023438</ele>
        <time>2024-09-13T12:37:32.000Z</time>
      </trkpt>
      <trkpt lat="44.36858" lon="7.13354">
        <ele>2291.1999511719</ele>
        <time>2024-09-13T12:37:33.000Z</time>
      </trkpt>
      <trkpt lat="44.36857" lon="7.1335">
        <ele>2290.8000488281</ele>
        <time>2024-09-13T12:37:34.000Z</time>
      </trkpt>
      <trkpt lat="44.36857" lon="7.13346">
        <ele>2290.3999023438</ele>
        <time>2024-09-13T12:37:35.000Z</time>
      </trkpt>
      <trkpt lat="44.36857" lon="7.13343">
        <ele>2289.8000488281</ele>
        <time>2024-09-13T12:37:36.000Z</time>
      </trkpt>
      <trkpt lat="44.36857" lon="7.1334">
        <ele>2289</ele>
        <time>2024-09-13T12:37:37.000Z</time>
      </trkpt>
      <trkpt lat="44.36857" lon="7.13337">
        <ele>2288</ele>
        <time>2024-09-13T12:37:38.000Z</time>
      </trkpt>
      <trkpt lat="44.36857" lon="7.13338">
        <ele>2287.6000976562</ele>
        <time>2024-09-13T12:37:39.000Z</time>
      </trkpt>
      <trkpt lat="44.36857" lon="7.13338">
        <ele>2287.1999511719</ele>
        <time>2024-09-13T12:37:40.000Z</time>
      </trkpt>
      <trkpt lat="44.36857" lon="7.13338">
        <ele>2286.8000488281</ele>
        <time>2024-09-13T12:37:48.000Z</time>
      </trkpt>
      <trkpt lat="44.36857" lon="7.13338">
        <ele>2286.8000488281</ele>
        <time>2024-09-13T12:37:49.000Z</time>
      </trkpt>
      <trkpt lat="44.36857" lon="7.13338">
        <ele>2286.8000488281</ele>
        <time>2024-09-13T12:37:50.000Z</time>
      </trkpt>
      <trkpt lat="44.36857" lon="7.13338">
        <ele>2286.6000976562</ele>
        <time>2024-09-13T12:38:00.000Z</time>
      </trkpt>
      <trkpt lat="44.36857" lon="7.13338">
        <ele>2286.6000976562</ele>
        <time>2024-09-13T12:38:02.000Z</time>
      </trkpt>
      <trkpt lat="44.36857" lon="7.13338">
        <ele>2286.3999023438</ele>
        <time>2024-09-13T12:38:08.000Z</time>
      </trkpt>
      <trkpt lat="44.36857" lon="7.13338">
        <ele>2286.3999023438</ele>
        <time>2024-09-13T12:38:09.000Z</time>
      </trkpt>
      <trkpt lat="44.36856" lon="7.13339">
        <ele>2286.3999023438</ele>
        <time>2024-09-13T12:38:10.000Z</time>
      </trkpt>
      <trkpt lat="44.36857" lon="7.13339">
        <ele>2286.1999511719</ele>
        <time>2024-09-13T12:38:16.000Z</time>
      </trkpt>
      <trkpt lat="44.36857" lon="7.13339">
        <ele>2286.1999511719</ele>
        <time>2024-09-13T12:38:25.000Z</time>
      </trkpt>
      <trkpt lat="44.36857" lon="7.13334">
        <ele>2286</ele>
        <time>2024-09-13T12:38:28.000Z</time>
      </trkpt>
      <trkpt lat="44.36857" lon="7.13332">
        <ele>2285.8000488281</ele>
        <time>2024-09-13T12:38:29.000Z</time>
      </trkpt>
      <trkpt lat="44.36856" lon="7.1333">
        <ele>2285.6000976562</ele>
        <time>2024-09-13T12:38:30.000Z</time>
      </trkpt>
      <trkpt lat="44.36856" lon="7.13327">
        <ele>2285.3999023438</ele>
        <time>2024-09-13T12:38:31.000Z</time>
      </trkpt>
      <trkpt lat="44.36854" lon="7.13324">
        <ele>2285.3999023438</ele>
        <time>2024-09-13T12:38:32.000Z</time>
      </trkpt>
      <trkpt lat="44.36854" lon="7.13321">
        <ele>2285.1999511719</ele>
        <time>2024-09-13T12:38:33.000Z</time>
      </trkpt>
      <trkpt lat="44.36852" lon="7.13313">
        <ele>2284.3999023438</ele>
        <time>2024-09-13T12:38:35.000Z</time>
      </trkpt>
      <trkpt lat="44.36849" lon="7.13304">
        <ele>2283.8000488281</ele>
        <time>2024-09-13T12:38:37.000Z</time>
      </trkpt>
      <trkpt lat="44.36846" lon="7.13296">
        <ele>2282.1999511719</ele>
        <time>2024-09-13T12:38:39.000Z</time>
      </trkpt>
      <trkpt lat="44.36845" lon="7.13292">
        <ele>2281.6000976562</ele>
        <time>2024-09-13T12:38:40.000Z</time>
      </trkpt>
      <trkpt lat="44.36844" lon="7.13288">
        <ele>2280.6000976562</ele>
        <time>2024-09-13T12:38:41.000Z</time>
      </trkpt>
      <trkpt lat="44.36843" lon="7.13285">
        <ele>2280</ele>
        <time>2024-09-13T12:38:42.000Z</time>
      </trkpt>
      <trkpt lat="44.36841" lon="7.13282">
        <ele>2279.1999511719</ele>
        <time>2024-09-13T12:38:43.000Z</time>
      </trkpt>
      <trkpt lat="44.36834" lon="7.13267">
        <ele>2276.8000488281</ele>
        <time>2024-09-13T12:38:47.000Z</time>
      </trkpt>
      <trkpt lat="44.36832" lon="7.13266">
        <ele>2276.3999023438</ele>
        <time>2024-09-13T12:38:48.000Z</time>
      </trkpt>
      <trkpt lat="44.36831" lon="7.13267">
        <ele>2276.1999511719</ele>
        <time>2024-09-13T12:38:49.000Z</time>
      </trkpt>
      <trkpt lat="44.36831" lon="7.13269">
        <ele>2276</ele>
        <time>2024-09-13T12:38:50.000Z</time>
      </trkpt>
      <trkpt lat="44.36832" lon="7.1327">
        <ele>2275</ele>
        <time>2024-09-13T12:38:51.000Z</time>
      </trkpt>
      <trkpt lat="44.36833" lon="7.1328">
        <ele>2274.6000976562</ele>
        <time>2024-09-13T12:38:54.000Z</time>
      </trkpt>
      <trkpt lat="44.36833" lon="7.13294">
        <ele>2272</ele>
        <time>2024-09-13T12:38:57.000Z</time>
      </trkpt>
      <trkpt lat="44.36833" lon="7.13297">
        <ele>2270.8000488281</ele>
        <time>2024-09-13T12:38:58.000Z</time>
      </trkpt>
      <trkpt lat="44.36833" lon="7.13301">
        <ele>2270.3999023438</ele>
        <time>2024-09-13T12:38:59.000Z</time>
      </trkpt>
      <trkpt lat="44.36834" lon="7.13305">
        <ele>2270.1999511719</ele>
        <time>2024-09-13T12:39:00.000Z</time>
      </trkpt>
      <trkpt lat="44.36833" lon="7.13314">
        <ele>2269.8000488281</ele>
        <time>2024-09-13T12:39:02.000Z</time>
      </trkpt>
      <trkpt lat="44.36832" lon="7.1332">
        <ele>2269.3999023438</ele>
        <time>2024-09-13T12:39:03.000Z</time>
      </trkpt>
      <trkpt lat="44.3683" lon="7.13324">
        <ele>2268.8000488281</ele>
        <time>2024-09-13T12:39:04.000Z</time>
      </trkpt>
      <trkpt lat="44.36829" lon="7.13328">
        <ele>2268</ele>
        <time>2024-09-13T12:39:05.000Z</time>
      </trkpt>
      <trkpt lat="44.36828" lon="7.13338">
        <ele>2267</ele>
        <time>2024-09-13T12:39:07.000Z</time>
      </trkpt>
      <trkpt lat="44.36827" lon="7.13343">
        <ele>2266.6000976562</ele>
        <time>2024-09-13T12:39:08.000Z</time>
      </trkpt>
      <trkpt lat="44.36827" lon="7.13349">
        <ele>2265.6000976562</ele>
        <time>2024-09-13T12:39:09.000Z</time>
      </trkpt>
      <trkpt lat="44.36826" lon="7.13355">
        <ele>2264.1999511719</ele>
        <time>2024-09-13T12:39:10.000Z</time>
      </trkpt>
      <trkpt lat="44.36825" lon="7.13361">
        <ele>2263.1999511719</ele>
        <time>2024-09-13T12:39:11.000Z</time>
      </trkpt>
      <trkpt lat="44.36824" lon="7.13376">
        <ele>2260</ele>
        <time>2024-09-13T12:39:13.000Z</time>
      </trkpt>
      <trkpt lat="44.36824" lon="7.13382">
        <ele>2259.1999511719</ele>
        <time>2024-09-13T12:39:14.000Z</time>
      </trkpt>
      <trkpt lat="44.36824" lon="7.13388">
        <ele>2259</ele>
        <time>2024-09-13T12:39:15.000Z</time>
      </trkpt>
      <trkpt lat="44.36823" lon="7.13392">
        <ele>2258.8000488281</ele>
        <time>2024-09-13T12:39:16.000Z</time>
      </trkpt>
      <trkpt lat="44.36823" lon="7.13396">
        <ele>2258.8000488281</ele>
        <time>2024-09-13T12:39:17.000Z</time>
      </trkpt>
      <trkpt lat="44.36822" lon="7.13398">
        <ele>2259</ele>
        <time>2024-09-13T12:39:18.000Z</time>
      </trkpt>
      <trkpt lat="44.36821" lon="7.13398">
        <ele>2259</ele>
        <time>2024-09-13T12:39:19.000Z</time>
      </trkpt>
      <trkpt lat="44.36819" lon="7.13394">
        <ele>2258.8000488281</ele>
        <time>2024-09-13T12:39:21.000Z</time>
      </trkpt>
      <trkpt lat="44.36819" lon="7.13392">
        <ele>2258.8000488281</ele>
        <time>2024-09-13T12:39:22.000Z</time>
      </trkpt>
      <trkpt lat="44.36818" lon="7.13388">
        <ele>2258.3999023438</ele>
        <time>2024-09-13T12:39:23.000Z</time>
      </trkpt>
      <trkpt lat="44.36817" lon="7.13385">
        <ele>2258</ele>
        <time>2024-09-13T12:39:24.000Z</time>
      </trkpt>
      <trkpt lat="44.36816" lon="7.13383">
        <ele>2257.8000488281</ele>
        <time>2024-09-13T12:39:25.000Z</time>
      </trkpt>
      <trkpt lat="44.36815" lon="7.13379">
        <ele>2257.1999511719</ele>
        <time>2024-09-13T12:39:26.000Z</time>
      </trkpt>
      <trkpt lat="44.36813" lon="7.13375">
        <ele>2256.6000976562</ele>
        <time>2024-09-13T12:39:27.000Z</time>
      </trkpt>
      <trkpt lat="44.3681" lon="7.13366">
        <ele>2255.1999511719</ele>
        <time>2024-09-13T12:39:29.000Z</time>
      </trkpt>
      <trkpt lat="44.36808" lon="7.13361">
        <ele>2254</ele>
        <time>2024-09-13T12:39:30.000Z</time>
      </trkpt>
      <trkpt lat="44.36805" lon="7.13354">
        <ele>2253.8000488281</ele>
        <time>2024-09-13T12:39:31.000Z</time>
      </trkpt>
      <trkpt lat="44.36802" lon="7.13348">
        <ele>2252.3999023438</ele>
        <time>2024-09-13T12:39:32.000Z</time>
      </trkpt>
      <trkpt lat="44.368" lon="7.13343">
        <ele>2250.8000488281</ele>
        <time>2024-09-13T12:39:33.000Z</time>
      </trkpt>
      <trkpt lat="44.36797" lon="7.13337">
        <ele>2250.6000976562</ele>
        <time>2024-09-13T12:39:34.000Z</time>
      </trkpt>
      <trkpt lat="44.36795" lon="7.13331">
        <ele>2249</ele>
        <time>2024-09-13T12:39:35.000Z</time>
      </trkpt>
      <trkpt lat="44.36794" lon="7.13325">
        <ele>2248.3999023438</ele>
        <time>2024-09-13T12:39:36.000Z</time>
      </trkpt>
      <trkpt lat="44.36794" lon="7.13318">
        <ele>2246.6000976562</ele>
        <time>2024-09-13T12:39:37.000Z</time>
      </trkpt>
      <trkpt lat="44.36793" lon="7.1331">
        <ele>2246</ele>
        <time>2024-09-13T12:39:38.000Z</time>
      </trkpt>
      <trkpt lat="44.36792" lon="7.13303">
        <ele>2245.1999511719</ele>
        <time>2024-09-13T12:39:39.000Z</time>
      </trkpt>
      <trkpt lat="44.3679" lon="7.13296">
        <ele>2243.6000976562</ele>
        <time>2024-09-13T12:39:40.000Z</time>
      </trkpt>
      <trkpt lat="44.36787" lon="7.13289">
        <ele>2243.1999511719</ele>
        <time>2024-09-13T12:39:41.000Z</time>
      </trkpt>
      <trkpt lat="44.36783" lon="7.13284">
        <ele>2241.1999511719</ele>
        <time>2024-09-13T12:39:42.000Z</time>
      </trkpt>
      <trkpt lat="44.36779" lon="7.1328">
        <ele>2240.3999023438</ele>
        <time>2024-09-13T12:39:43.000Z</time>
      </trkpt>
      <trkpt lat="44.36775" lon="7.13277">
        <ele>2239.8000488281</ele>
        <time>2024-09-13T12:39:44.000Z</time>
      </trkpt>
      <trkpt lat="44.36772" lon="7.13275">
        <ele>2239</ele>
        <time>2024-09-13T12:39:45.000Z</time>
      </trkpt>
      <trkpt lat="44.3677" lon="7.13271">
        <ele>2238.1999511719</ele>
        <time>2024-09-13T12:39:46.000Z</time>
      </trkpt>
      <trkpt lat="44.36769" lon="7.13269">
        <ele>2236.6000976562</ele>
        <time>2024-09-13T12:39:47.000Z</time>
      </trkpt>
      <trkpt lat="44.3677" lon="7.13269">
        <ele>2236.1999511719</ele>
        <time>2024-09-13T12:39:48.000Z</time>
      </trkpt>
      <trkpt lat="44.3677" lon="7.13269">
        <ele>2236</ele>
        <time>2024-09-13T12:39:49.000Z</time>
      </trkpt>
      <trkpt lat="44.3677" lon="7.13269">
        <ele>2236</ele>
        <time>2024-09-13T12:39:50.000Z</time>
      </trkpt>
      <trkpt lat="44.36769" lon="7.13269">
        <ele>2236</ele>
        <time>2024-09-13T12:39:51.000Z</time>
      </trkpt>
      <trkpt lat="44.36769" lon="7.13269">
        <ele>2236</ele>
        <time>2024-09-13T12:39:53.000Z</time>
      </trkpt>
      <trkpt lat="44.36768" lon="7.13271">
        <ele>2236</ele>
        <time>2024-09-13T12:39:55.000Z</time>
      </trkpt>
      <trkpt lat="44.36769" lon="7.13272">
        <ele>2236</ele>
        <time>2024-09-13T12:39:56.000Z</time>
      </trkpt>
      <trkpt lat="44.36769" lon="7.13272">
        <ele>2236</ele>
        <time>2024-09-13T12:40:03.000Z</time>
      </trkpt>
      <trkpt lat="44.36769" lon="7.13272">
        <ele>2235.8000488281</ele>
        <time>2024-09-13T12:40:05.000Z</time>
      </trkpt>
      <trkpt lat="44.36769" lon="7.13272">
        <ele>2235.3999023438</ele>
        <time>2024-09-13T12:40:06.000Z</time>
      </trkpt>
      <trkpt lat="44.36769" lon="7.13271">
        <ele>2235</ele>
        <time>2024-09-13T12:40:14.000Z</time>
      </trkpt>
      <trkpt lat="44.36769" lon="7.13272">
        <ele>2235</ele>
        <time>2024-09-13T12:40:15.000Z</time>
      </trkpt>
      <trkpt lat="44.36769" lon="7.13272">
        <ele>2235.1999511719</ele>
        <time>2024-09-13T12:40:16.000Z</time>
      </trkpt>
      <trkpt lat="44.36768" lon="7.13271">
        <ele>2236</ele>
        <time>2024-09-13T12:40:21.000Z</time>
      </trkpt>
      <trkpt lat="44.36768" lon="7.13271">
        <ele>2236</ele>
        <time>2024-09-13T12:40:25.000Z</time>
      </trkpt>
      <trkpt lat="44.36767" lon="7.1327">
        <ele>2235.8000488281</ele>
        <time>2024-09-13T12:40:30.000Z</time>
      </trkpt>
      <trkpt lat="44.36768" lon="7.1327">
        <ele>2235.8000488281</ele>
        <time>2024-09-13T12:40:33.000Z</time>
      </trkpt>
      <trkpt lat="44.3677" lon="7.13269">
        <ele>2236</ele>
        <time>2024-09-13T12:40:35.000Z</time>
      </trkpt>
      <trkpt lat="44.3677" lon="7.1327">
        <ele>2236</ele>
        <time>2024-09-13T12:40:36.000Z</time>
      </trkpt>
      <trkpt lat="44.3677" lon="7.13272">
        <ele>2236</ele>
        <time>2024-09-13T12:40:37.000Z</time>
      </trkpt>
      <trkpt lat="44.36769" lon="7.13272">
        <ele>2236</ele>
        <time>2024-09-13T12:40:38.000Z</time>
      </trkpt>
      <trkpt lat="44.36769" lon="7.13273">
        <ele>2236</ele>
        <time>2024-09-13T12:40:39.000Z</time>
      </trkpt>
      <trkpt lat="44.36768" lon="7.13275">
        <ele>2236</ele>
        <time>2024-09-13T12:40:40.000Z</time>
      </trkpt>
      <trkpt lat="44.36767" lon="7.13278">
        <ele>2236</ele>
        <time>2024-09-13T12:40:41.000Z</time>
      </trkpt>
      <trkpt lat="44.36767" lon="7.1328">
        <ele>2235.6000976562</ele>
        <time>2024-09-13T12:40:42.000Z</time>
      </trkpt>
      <trkpt lat="44.36765" lon="7.13281">
        <ele>2235.1999511719</ele>
        <time>2024-09-13T12:40:43.000Z</time>
      </trkpt>
      <trkpt lat="44.36764" lon="7.13283">
        <ele>2235</ele>
        <time>2024-09-13T12:40:44.000Z</time>
      </trkpt>
      <trkpt lat="44.36763" lon="7.13287">
        <ele>2234.1999511719</ele>
        <time>2024-09-13T12:40:45.000Z</time>
      </trkpt>
      <trkpt lat="44.36763" lon="7.1329">
        <ele>2233.1999511719</ele>
        <time>2024-09-13T12:40:46.000Z</time>
      </trkpt>
      <trkpt lat="44.36762" lon="7.13292">
        <ele>2232.8000488281</ele>
        <time>2024-09-13T12:40:47.000Z</time>
      </trkpt>
      <trkpt lat="44.36762" lon="7.13294">
        <ele>2232.1999511719</ele>
        <time>2024-09-13T12:40:48.000Z</time>
      </trkpt>
      <trkpt lat="44.36762" lon="7.13296">
        <ele>2231.6000976562</ele>
        <time>2024-09-13T12:40:49.000Z</time>
      </trkpt>
      <trkpt lat="44.36762" lon="7.13299">
        <ele>2231.3999023438</ele>
        <time>2024-09-13T12:40:50.000Z</time>
      </trkpt>
      <trkpt lat="44.36761" lon="7.13317">
        <ele>2230.1999511719</ele>
        <time>2024-09-13T12:40:53.000Z</time>
      </trkpt>
      <trkpt lat="44.36758" lon="7.13331">
        <ele>2227.6000976562</ele>
        <time>2024-09-13T12:40:55.000Z</time>
      </trkpt>
      <trkpt lat="44.36756" lon="7.13338">
        <ele>2226.8000488281</ele>
        <time>2024-09-13T12:40:56.000Z</time>
      </trkpt>
      <trkpt lat="44.36755" lon="7.13344">
        <ele>2224.3999023438</ele>
        <time>2024-09-13T12:40:57.000Z</time>
      </trkpt>
      <trkpt lat="44.36754" lon="7.13349">
        <ele>2224</ele>
        <time>2024-09-13T12:40:58.000Z</time>
      </trkpt>
      <trkpt lat="44.36753" lon="7.13351">
        <ele>2223.8000488281</ele>
        <time>2024-09-13T12:40:59.000Z</time>
      </trkpt>
      <trkpt lat="44.36752" lon="7.1335">
        <ele>2223.6000976562</ele>
        <time>2024-09-13T12:41:00.000Z</time>
      </trkpt>
      <trkpt lat="44.36751" lon="7.13346">
        <ele>2223.3999023438</ele>
        <time>2024-09-13T12:41:01.000Z</time>
      </trkpt>
      <trkpt lat="44.3675" lon="7.13341">
        <ele>2223.1999511719</ele>
        <time>2024-09-13T12:41:03.000Z</time>
      </trkpt>
      <trkpt lat="44.3675" lon="7.1334">
        <ele>2223</ele>
        <time>2024-09-13T12:41:04.000Z</time>
      </trkpt>
      <trkpt lat="44.3675" lon="7.13339">
        <ele>2222.8000488281</ele>
        <time>2024-09-13T12:41:05.000Z</time>
      </trkpt>
      <trkpt lat="44.36749" lon="7.13336">
        <ele>2222.3999023438</ele>
        <time>2024-09-13T12:41:06.000Z</time>
      </trkpt>
      <trkpt lat="44.36747" lon="7.13329">
        <ele>2222.1999511719</ele>
        <time>2024-09-13T12:41:08.000Z</time>
      </trkpt>
      <trkpt lat="44.36745" lon="7.13322">
        <ele>2222</ele>
        <time>2024-09-13T12:41:09.000Z</time>
      </trkpt>
      <trkpt lat="44.36743" lon="7.13316">
        <ele>2221.1999511719</ele>
        <time>2024-09-13T12:41:10.000Z</time>
      </trkpt>
      <trkpt lat="44.3674" lon="7.13311">
        <ele>2220.1999511719</ele>
        <time>2024-09-13T12:41:11.000Z</time>
      </trkpt>
      <trkpt lat="44.36737" lon="7.13306">
        <ele>2219.8000488281</ele>
        <time>2024-09-13T12:41:12.000Z</time>
      </trkpt>
      <trkpt lat="44.36734" lon="7.13302">
        <ele>2219.1999511719</ele>
        <time>2024-09-13T12:41:13.000Z</time>
      </trkpt>
      <trkpt lat="44.36729" lon="7.13292">
        <ele>2218.1999511719</ele>
        <time>2024-09-13T12:41:15.000Z</time>
      </trkpt>
      <trkpt lat="44.36729" lon="7.13287">
        <ele>2217.8000488281</ele>
        <time>2024-09-13T12:41:16.000Z</time>
      </trkpt>
      <trkpt lat="44.3673" lon="7.13282">
        <ele>2217.3999023438</ele>
        <time>2024-09-13T12:41:17.000Z</time>
      </trkpt>
      <trkpt lat="44.3673" lon="7.13276">
        <ele>2216.8000488281</ele>
        <time>2024-09-13T12:41:18.000Z</time>
      </trkpt>
      <trkpt lat="44.3673" lon="7.13269">
        <ele>2216.3999023438</ele>
        <time>2024-09-13T12:41:19.000Z</time>
      </trkpt>
      <trkpt lat="44.36728" lon="7.13262">
        <ele>2215.6000976562</ele>
        <time>2024-09-13T12:41:20.000Z</time>
      </trkpt>
      <trkpt lat="44.36725" lon="7.13257">
        <ele>2214.3999023438</ele>
        <time>2024-09-13T12:41:21.000Z</time>
      </trkpt>
      <trkpt lat="44.36721" lon="7.13251">
        <ele>2214.1999511719</ele>
        <time>2024-09-13T12:41:22.000Z</time>
      </trkpt>
      <trkpt lat="44.36718" lon="7.13246">
        <ele>2213.6000976562</ele>
        <time>2024-09-13T12:41:23.000Z</time>
      </trkpt>
      <trkpt lat="44.36714" lon="7.1324">
        <ele>2212.8000488281</ele>
        <time>2024-09-13T12:41:24.000Z</time>
      </trkpt>
      <trkpt lat="44.36711" lon="7.13235">
        <ele>2212.1999511719</ele>
        <time>2024-09-13T12:41:25.000Z</time>
      </trkpt>
      <trkpt lat="44.36709" lon="7.13231">
        <ele>2212</ele>
        <time>2024-09-13T12:41:26.000Z</time>
      </trkpt>
      <trkpt lat="44.36707" lon="7.13227">
        <ele>2211.8000488281</ele>
        <time>2024-09-13T12:41:27.000Z</time>
      </trkpt>
      <trkpt lat="44.36705" lon="7.13223">
        <ele>2211.3999023438</ele>
        <time>2024-09-13T12:41:28.000Z</time>
      </trkpt>
      <trkpt lat="44.36702" lon="7.13219">
        <ele>2211</ele>
        <time>2024-09-13T12:41:29.000Z</time>
      </trkpt>
      <trkpt lat="44.36699" lon="7.13215">
        <ele>2210.1999511719</ele>
        <time>2024-09-13T12:41:30.000Z</time>
      </trkpt>
      <trkpt lat="44.36694" lon="7.13204">
        <ele>2209.1999511719</ele>
        <time>2024-09-13T12:41:32.000Z</time>
      </trkpt>
      <trkpt lat="44.36692" lon="7.132">
        <ele>2209.1999511719</ele>
        <time>2024-09-13T12:41:33.000Z</time>
      </trkpt>
      <trkpt lat="44.36691" lon="7.13196">
        <ele>2209</ele>
        <time>2024-09-13T12:41:34.000Z</time>
      </trkpt>
      <trkpt lat="44.3669" lon="7.13193">
        <ele>2208.8000488281</ele>
        <time>2024-09-13T12:41:35.000Z</time>
      </trkpt>
      <trkpt lat="44.36688" lon="7.1319">
        <ele>2208.6000976562</ele>
        <time>2024-09-13T12:41:36.000Z</time>
      </trkpt>
      <trkpt lat="44.36686" lon="7.13185">
        <ele>2208</ele>
        <time>2024-09-13T12:41:37.000Z</time>
      </trkpt>
      <trkpt lat="44.36682" lon="7.13169">
        <ele>2207</ele>
        <time>2024-09-13T12:41:40.000Z</time>
      </trkpt>
      <trkpt lat="44.36677" lon="7.13154">
        <ele>2206.1999511719</ele>
        <time>2024-09-13T12:41:43.000Z</time>
      </trkpt>
      <trkpt lat="44.36675" lon="7.13151">
        <ele>2206</ele>
        <time>2024-09-13T12:41:44.000Z</time>
      </trkpt>
      <trkpt lat="44.36673" lon="7.13146">
        <ele>2205.8000488281</ele>
        <time>2024-09-13T12:41:45.000Z</time>
      </trkpt>
      <trkpt lat="44.36669" lon="7.13136">
        <ele>2204.8000488281</ele>
        <time>2024-09-13T12:41:47.000Z</time>
      </trkpt>
      <trkpt lat="44.36668" lon="7.13132">
        <ele>2204</ele>
        <time>2024-09-13T12:41:48.000Z</time>
      </trkpt>
      <trkpt lat="44.36668" lon="7.13128">
        <ele>2203.1999511719</ele>
        <time>2024-09-13T12:41:49.000Z</time>
      </trkpt>
      <trkpt lat="44.36666" lon="7.13124">
        <ele>2202.6000976562</ele>
        <time>2024-09-13T12:41:50.000Z</time>
      </trkpt>
      <trkpt lat="44.36662" lon="7.13115">
        <ele>2202</ele>
        <time>2024-09-13T12:41:52.000Z</time>
      </trkpt>
      <trkpt lat="44.3666" lon="7.1311">
        <ele>2201.6000976562</ele>
        <time>2024-09-13T12:41:53.000Z</time>
      </trkpt>
      <trkpt lat="44.36659" lon="7.13105">
        <ele>2201.6000976562</ele>
        <time>2024-09-13T12:41:54.000Z</time>
      </trkpt>
      <trkpt lat="44.36657" lon="7.13101">
        <ele>2201.3999023438</ele>
        <time>2024-09-13T12:41:55.000Z</time>
      </trkpt>
      <trkpt lat="44.36657" lon="7.13097">
        <ele>2201</ele>
        <time>2024-09-13T12:41:56.000Z</time>
      </trkpt>
      <trkpt lat="44.36655" lon="7.13094">
        <ele>2200.1999511719</ele>
        <time>2024-09-13T12:41:57.000Z</time>
      </trkpt>
      <trkpt lat="44.36654" lon="7.1309">
        <ele>2199.3999023438</ele>
        <time>2024-09-13T12:41:58.000Z</time>
      </trkpt>
      <trkpt lat="44.36653" lon="7.13086">
        <ele>2198.8000488281</ele>
        <time>2024-09-13T12:41:59.000Z</time>
      </trkpt>
      <trkpt lat="44.36653" lon="7.13082">
        <ele>2197.3999023438</ele>
        <time>2024-09-13T12:42:00.000Z</time>
      </trkpt>
      <trkpt lat="44.36653" lon="7.13078">
        <ele>2196.8000488281</ele>
        <time>2024-09-13T12:42:01.000Z</time>
      </trkpt>
      <trkpt lat="44.36653" lon="7.13074">
        <ele>2196.3999023438</ele>
        <time>2024-09-13T12:42:02.000Z</time>
      </trkpt>
      <trkpt lat="44.36652" lon="7.13071">
        <ele>2196.1999511719</ele>
        <time>2024-09-13T12:42:03.000Z</time>
      </trkpt>
      <trkpt lat="44.36652" lon="7.1307">
        <ele>2196</ele>
        <time>2024-09-13T12:42:04.000Z</time>
      </trkpt>
      <trkpt lat="44.36651" lon="7.13067">
        <ele>2195.6000976562</ele>
        <time>2024-09-13T12:42:05.000Z</time>
      </trkpt>
      <trkpt lat="44.3665" lon="7.13064">
        <ele>2195.1999511719</ele>
        <time>2024-09-13T12:42:06.000Z</time>
      </trkpt>
      <trkpt lat="44.36647" lon="7.13052">
        <ele>2193.3999023438</ele>
        <time>2024-09-13T12:42:09.000Z</time>
      </trkpt>
      <trkpt lat="44.36646" lon="7.13048">
        <ele>2193.1999511719</ele>
        <time>2024-09-13T12:42:10.000Z</time>
      </trkpt>
      <trkpt lat="44.36644" lon="7.13044">
        <ele>2193.1999511719</ele>
        <time>2024-09-13T12:42:11.000Z</time>
      </trkpt>
      <trkpt lat="44.36642" lon="7.13041">
        <ele>2193</ele>
        <time>2024-09-13T12:42:12.000Z</time>
      </trkpt>
      <trkpt lat="44.3664" lon="7.13038">
        <ele>2192.8000488281</ele>
        <time>2024-09-13T12:42:13.000Z</time>
      </trkpt>
      <trkpt lat="44.36639" lon="7.13034">
        <ele>2192.6000976562</ele>
        <time>2024-09-13T12:42:14.000Z</time>
      </trkpt>
      <trkpt lat="44.36639" lon="7.13034">
        <ele>2192.3999023438</ele>
        <time>2024-09-13T12:42:15.000Z</time>
      </trkpt>
      <trkpt lat="44.36639" lon="7.13033">
        <ele>2192.3999023438</ele>
        <time>2024-09-13T12:42:16.000Z</time>
      </trkpt>
      <trkpt lat="44.36638" lon="7.13031">
        <ele>2192.3999023438</ele>
        <time>2024-09-13T12:42:17.000Z</time>
      </trkpt>
      <trkpt lat="44.36635" lon="7.13026">
        <ele>2192.6000976562</ele>
        <time>2024-09-13T12:42:22.000Z</time>
      </trkpt>
      <trkpt lat="44.36635" lon="7.13026">
        <ele>2192.8000488281</ele>
        <time>2024-09-13T12:42:23.000Z</time>
      </trkpt>
      <trkpt lat="44.36634" lon="7.13025">
        <ele>2192.8000488281</ele>
        <time>2024-09-13T12:42:27.000Z</time>
      </trkpt>
      <trkpt lat="44.36633" lon="7.13024">
        <ele>2192.8000488281</ele>
        <time>2024-09-13T12:42:30.000Z</time>
      </trkpt>
      <trkpt lat="44.36631" lon="7.13023">
        <ele>2192.8000488281</ele>
        <time>2024-09-13T12:42:31.000Z</time>
      </trkpt>
      <trkpt lat="44.36628" lon="7.1302">
        <ele>2192.8000488281</ele>
        <time>2024-09-13T12:42:33.000Z</time>
      </trkpt>
      <trkpt lat="44.36619" lon="7.13012">
        <ele>2193.6000976562</ele>
        <time>2024-09-13T12:42:38.000Z</time>
      </trkpt>
      <trkpt lat="44.36618" lon="7.13009">
        <ele>2193.6000976562</ele>
        <time>2024-09-13T12:42:39.000Z</time>
      </trkpt>
      <trkpt lat="44.36617" lon="7.13005">
        <ele>2193.8000488281</ele>
        <time>2024-09-13T12:42:40.000Z</time>
      </trkpt>
      <trkpt lat="44.36617" lon="7.13001">
        <ele>2193.8000488281</ele>
        <time>2024-09-13T12:42:41.000Z</time>
      </trkpt>
      <trkpt lat="44.36616" lon="7.12998">
        <ele>2193.6000976562</ele>
        <time>2024-09-13T12:42:42.000Z</time>
      </trkpt>
      <trkpt lat="44.36616" lon="7.12994">
        <ele>2193.3999023438</ele>
        <time>2024-09-13T12:42:43.000Z</time>
      </trkpt>
      <trkpt lat="44.36614" lon="7.12992">
        <ele>2193.3999023438</ele>
        <time>2024-09-13T12:42:44.000Z</time>
      </trkpt>
      <trkpt lat="44.36613" lon="7.12988">
        <ele>2193.3999023438</ele>
        <time>2024-09-13T12:42:45.000Z</time>
      </trkpt>
      <trkpt lat="44.36611" lon="7.1298">
        <ele>2193.1999511719</ele>
        <time>2024-09-13T12:42:47.000Z</time>
      </trkpt>
      <trkpt lat="44.3661" lon="7.12976">
        <ele>2193</ele>
        <time>2024-09-13T12:42:48.000Z</time>
      </trkpt>
      <trkpt lat="44.36607" lon="7.12973">
        <ele>2193</ele>
        <time>2024-09-13T12:42:49.000Z</time>
      </trkpt>
      <trkpt lat="44.36605" lon="7.1297">
        <ele>2193</ele>
        <time>2024-09-13T12:42:50.000Z</time>
      </trkpt>
      <trkpt lat="44.36603" lon="7.12969">
        <ele>2193</ele>
        <time>2024-09-13T12:42:51.000Z</time>
      </trkpt>
      <trkpt lat="44.36601" lon="7.12966">
        <ele>2193.1999511719</ele>
        <time>2024-09-13T12:42:52.000Z</time>
      </trkpt>
      <trkpt lat="44.36599" lon="7.12963">
        <ele>2193.3999023438</ele>
        <time>2024-09-13T12:42:53.000Z</time>
      </trkpt>
      <trkpt lat="44.36597" lon="7.12961">
        <ele>2193.3999023438</ele>
        <time>2024-09-13T12:42:54.000Z</time>
      </trkpt>
      <trkpt lat="44.36596" lon="7.12959">
        <ele>2193.6000976562</ele>
        <time>2024-09-13T12:42:55.000Z</time>
      </trkpt>
      <trkpt lat="44.3659" lon="7.12948">
        <ele>2193.1999511719</ele>
        <time>2024-09-13T12:42:58.000Z</time>
      </trkpt>
      <trkpt lat="44.36587" lon="7.1294">
        <ele>2193</ele>
        <time>2024-09-13T12:43:00.000Z</time>
      </trkpt>
      <trkpt lat="44.36587" lon="7.12938">
        <ele>2192.8000488281</ele>
        <time>2024-09-13T12:43:01.000Z</time>
      </trkpt>
      <trkpt lat="44.36587" lon="7.12935">
        <ele>2192.6000976562</ele>
        <time>2024-09-13T12:43:02.000Z</time>
      </trkpt>
      <trkpt lat="44.36587" lon="7.12931">
        <ele>2192.6000976562</ele>
        <time>2024-09-13T12:43:03.000Z</time>
      </trkpt>
      <trkpt lat="44.36586" lon="7.12926">
        <ele>2192.3999023438</ele>
        <time>2024-09-13T12:43:04.000Z</time>
      </trkpt>
      <trkpt lat="44.36586" lon="7.1291">
        <ele>2191</ele>
        <time>2024-09-13T12:43:07.000Z</time>
      </trkpt>
      <trkpt lat="44.36586" lon="7.12906">
        <ele>2191</ele>
        <time>2024-09-13T12:43:08.000Z</time>
      </trkpt>
      <trkpt lat="44.36586" lon="7.12901">
        <ele>2190.8000488281</ele>
        <time>2024-09-13T12:43:09.000Z</time>
      </trkpt>
      <trkpt lat="44.36585" lon="7.12897">
        <ele>2190.8000488281</ele>
        <time>2024-09-13T12:43:10.000Z</time>
      </trkpt>
      <trkpt lat="44.36585" lon="7.12894">
        <ele>2190.8000488281</ele>
        <time>2024-09-13T12:43:11.000Z</time>
      </trkpt>
      <trkpt lat="44.36584" lon="7.12891">
        <ele>2190.8000488281</ele>
        <time>2024-09-13T12:43:12.000Z</time>
      </trkpt>
      <trkpt lat="44.36579" lon="7.12879">
        <ele>2190.6000976562</ele>
        <time>2024-09-13T12:43:15.000Z</time>
      </trkpt>
      <trkpt lat="44.36578" lon="7.12873">
        <ele>2190</ele>
        <time>2024-09-13T12:43:16.000Z</time>
      </trkpt>
      <trkpt lat="44.36576" lon="7.12869">
        <ele>2190</ele>
        <time>2024-09-13T12:43:17.000Z</time>
      </trkpt>
      <trkpt lat="44.36575" lon="7.12865">
        <ele>2190</ele>
        <time>2024-09-13T12:43:18.000Z</time>
      </trkpt>
      <trkpt lat="44.36573" lon="7.1286">
        <ele>2190</ele>
        <time>2024-09-13T12:43:19.000Z</time>
      </trkpt>
      <trkpt lat="44.36571" lon="7.12855">
        <ele>2190</ele>
        <time>2024-09-13T12:43:20.000Z</time>
      </trkpt>
      <trkpt lat="44.36571" lon="7.12852">
        <ele>2190</ele>
        <time>2024-09-13T12:43:21.000Z</time>
      </trkpt>
      <trkpt lat="44.3657" lon="7.12849">
        <ele>2190</ele>
        <time>2024-09-13T12:43:22.000Z</time>
      </trkpt>
      <trkpt lat="44.36568" lon="7.12847">
        <ele>2190</ele>
        <time>2024-09-13T12:43:23.000Z</time>
      </trkpt>
      <trkpt lat="44.36567" lon="7.1284">
        <ele>2190.1999511719</ele>
        <time>2024-09-13T12:43:25.000Z</time>
      </trkpt>
      <trkpt lat="44.36564" lon="7.12833">
        <ele>2190.1999511719</ele>
        <time>2024-09-13T12:43:27.000Z</time>
      </trkpt>
      <trkpt lat="44.36563" lon="7.12831">
        <ele>2190.6000976562</ele>
        <time>2024-09-13T12:43:28.000Z</time>
      </trkpt>
      <trkpt lat="44.36561" lon="7.12828">
        <ele>2190.6000976562</ele>
        <time>2024-09-13T12:43:29.000Z</time>
      </trkpt>
      <trkpt lat="44.36556" lon="7.12817">
        <ele>2190.8000488281</ele>
        <time>2024-09-13T12:43:32.000Z</time>
      </trkpt>
      <trkpt lat="44.36555" lon="7.12814">
        <ele>2190.8000488281</ele>
        <time>2024-09-13T12:43:33.000Z</time>
      </trkpt>
      <trkpt lat="44.36554" lon="7.12812">
        <ele>2191</ele>
        <time>2024-09-13T12:43:34.000Z</time>
      </trkpt>
      <trkpt lat="44.36553" lon="7.1281">
        <ele>2191.1999511719</ele>
        <time>2024-09-13T12:43:35.000Z</time>
      </trkpt>
      <trkpt lat="44.36554" lon="7.12809">
        <ele>2191.1999511719</ele>
        <time>2024-09-13T12:43:36.000Z</time>
      </trkpt>
      <trkpt lat="44.36554" lon="7.12809">
        <ele>2191.6000976562</ele>
        <time>2024-09-13T12:43:37.000Z</time>
      </trkpt>
      <trkpt lat="44.36554" lon="7.12809">
        <ele>2191.8000488281</ele>
        <time>2024-09-13T12:43:38.000Z</time>
      </trkpt>
      <trkpt lat="44.36554" lon="7.12808">
        <ele>2192</ele>
        <time>2024-09-13T12:43:39.000Z</time>
      </trkpt>
      <trkpt lat="44.36553" lon="7.12807">
        <ele>2192</ele>
        <time>2024-09-13T12:43:42.000Z</time>
      </trkpt>
      <trkpt lat="44.36552" lon="7.12806">
        <ele>2192</ele>
        <time>2024-09-13T12:43:43.000Z</time>
      </trkpt>
      <trkpt lat="44.36552" lon="7.12804">
        <ele>2192</ele>
        <time>2024-09-13T12:43:44.000Z</time>
      </trkpt>
      <trkpt lat="44.36551" lon="7.12802">
        <ele>2191.3999023438</ele>
        <time>2024-09-13T12:43:45.000Z</time>
      </trkpt>
      <trkpt lat="44.3655" lon="7.12799">
        <ele>2191.6000976562</ele>
        <time>2024-09-13T12:43:46.000Z</time>
      </trkpt>
      <trkpt lat="44.36549" lon="7.12796">
        <ele>2191.3999023438</ele>
        <time>2024-09-13T12:43:47.000Z</time>
      </trkpt>
      <trkpt lat="44.36544" lon="7.12786">
        <ele>2190.8000488281</ele>
        <time>2024-09-13T12:43:50.000Z</time>
      </trkpt>
      <trkpt lat="44.36543" lon="7.12784">
        <ele>2190.8000488281</ele>
        <time>2024-09-13T12:43:51.000Z</time>
      </trkpt>
      <trkpt lat="44.36542" lon="7.12781">
        <ele>2190.8000488281</ele>
        <time>2024-09-13T12:43:52.000Z</time>
      </trkpt>
      <trkpt lat="44.36541" lon="7.12778">
        <ele>2190.6000976562</ele>
        <time>2024-09-13T12:43:53.000Z</time>
      </trkpt>
      <trkpt lat="44.36539" lon="7.12772">
        <ele>2190.6000976562</ele>
        <time>2024-09-13T12:43:55.000Z</time>
      </trkpt>
      <trkpt lat="44.36538" lon="7.12769">
        <ele>2190.3999023438</ele>
        <time>2024-09-13T12:43:56.000Z</time>
      </trkpt>
      <trkpt lat="44.36537" lon="7.12766">
        <ele>2190.3999023438</ele>
        <time>2024-09-13T12:43:57.000Z</time>
      </trkpt>
      <trkpt lat="44.36536" lon="7.12765">
        <ele>2190.3999023438</ele>
        <time>2024-09-13T12:43:58.000Z</time>
      </trkpt>
      <trkpt lat="44.36537" lon="7.12766">
        <ele>2191</ele>
        <time>2024-09-13T12:44:01.000Z</time>
      </trkpt>
      <trkpt lat="44.36536" lon="7.12765">
        <ele>2191</ele>
        <time>2024-09-13T12:44:02.000Z</time>
      </trkpt>
      <trkpt lat="44.36536" lon="7.12764">
        <ele>2191</ele>
        <time>2024-09-13T12:44:03.000Z</time>
      </trkpt>
      <trkpt lat="44.36533" lon="7.12755">
        <ele>2191</ele>
        <time>2024-09-13T12:44:07.000Z</time>
      </trkpt>
      <trkpt lat="44.36532" lon="7.12752">
        <ele>2190.8000488281</ele>
        <time>2024-09-13T12:44:08.000Z</time>
      </trkpt>
      <trkpt lat="44.3653" lon="7.1275">
        <ele>2190.8000488281</ele>
        <time>2024-09-13T12:44:09.000Z</time>
      </trkpt>
      <trkpt lat="44.36529" lon="7.12748">
        <ele>2190.6000976562</ele>
        <time>2024-09-13T12:44:10.000Z</time>
      </trkpt>
      <trkpt lat="44.36528" lon="7.12747">
        <ele>2190.6000976562</ele>
        <time>2024-09-13T12:44:11.000Z</time>
      </trkpt>
      <trkpt lat="44.36525" lon="7.12738">
        <ele>2190.6000976562</ele>
        <time>2024-09-13T12:44:14.000Z</time>
      </trkpt>
      <trkpt lat="44.36524" lon="7.12736">
        <ele>2190.6000976562</ele>
        <time>2024-09-13T12:44:15.000Z</time>
      </trkpt>
      <trkpt lat="44.36523" lon="7.12734">
        <ele>2190.6000976562</ele>
        <time>2024-09-13T12:44:16.000Z</time>
      </trkpt>
      <trkpt lat="44.36519" lon="7.12725">
        <ele>2190.3999023438</ele>
        <time>2024-09-13T12:44:19.000Z</time>
      </trkpt>
      <trkpt lat="44.36517" lon="7.12718">
        <ele>2190.3999023438</ele>
        <time>2024-09-13T12:44:21.000Z</time>
      </trkpt>
      <trkpt lat="44.36513" lon="7.12707">
        <ele>2190.1999511719</ele>
        <time>2024-09-13T12:44:24.000Z</time>
      </trkpt>
      <trkpt lat="44.36511" lon="7.12704">
        <ele>2190.1999511719</ele>
        <time>2024-09-13T12:44:25.000Z</time>
      </trkpt>
      <trkpt lat="44.36505" lon="7.12684">
        <ele>2190.1999511719</ele>
        <time>2024-09-13T12:44:30.000Z</time>
      </trkpt>
      <trkpt lat="44.36504" lon="7.1268">
        <ele>2190.1999511719</ele>
        <time>2024-09-13T12:44:31.000Z</time>
      </trkpt>
      <trkpt lat="44.36503" lon="7.12677">
        <ele>2189.8000488281</ele>
        <time>2024-09-13T12:44:32.000Z</time>
      </trkpt>
      <trkpt lat="44.36502" lon="7.12672">
        <ele>2189.6000976562</ele>
        <time>2024-09-13T12:44:33.000Z</time>
      </trkpt>
      <trkpt lat="44.36501" lon="7.12667">
        <ele>2189.6000976562</ele>
        <time>2024-09-13T12:44:34.000Z</time>
      </trkpt>
      <trkpt lat="44.36499" lon="7.12665">
        <ele>2189.3999023438</ele>
        <time>2024-09-13T12:44:35.000Z</time>
      </trkpt>
      <trkpt lat="44.36497" lon="7.12663">
        <ele>2189.3999023438</ele>
        <time>2024-09-13T12:44:36.000Z</time>
      </trkpt>
      <trkpt lat="44.36495" lon="7.1266">
        <ele>2189.3999023438</ele>
        <time>2024-09-13T12:44:37.000Z</time>
      </trkpt>
      <trkpt lat="44.36493" lon="7.12658">
        <ele>2189.3999023438</ele>
        <time>2024-09-13T12:44:38.000Z</time>
      </trkpt>
      <trkpt lat="44.36492" lon="7.12655">
        <ele>2189.3999023438</ele>
        <time>2024-09-13T12:44:39.000Z</time>
      </trkpt>
      <trkpt lat="44.36482" lon="7.12643">
        <ele>2189.1999511719</ele>
        <time>2024-09-13T12:44:43.000Z</time>
      </trkpt>
      <trkpt lat="44.36478" lon="7.12642">
        <ele>2189.1999511719</ele>
        <time>2024-09-13T12:44:44.000Z</time>
      </trkpt>
      <trkpt lat="44.36475" lon="7.12641">
        <ele>2189.1999511719</ele>
        <time>2024-09-13T12:44:45.000Z</time>
      </trkpt>
      <trkpt lat="44.36471" lon="7.12641">
        <ele>2189</ele>
        <time>2024-09-13T12:44:46.000Z</time>
      </trkpt>
      <trkpt lat="44.36464" lon="7.12638">
        <ele>2188.8000488281</ele>
        <time>2024-09-13T12:44:48.000Z</time>
      </trkpt>
      <trkpt lat="44.36455" lon="7.12632">
        <ele>2187.8000488281</ele>
        <time>2024-09-13T12:44:50.000Z</time>
      </trkpt>
      <trkpt lat="44.36449" lon="7.12627">
        <ele>2187</ele>
        <time>2024-09-13T12:44:52.000Z</time>
      </trkpt>
      <trkpt lat="44.36446" lon="7.12626">
        <ele>2187</ele>
        <time>2024-09-13T12:44:53.000Z</time>
      </trkpt>
      <trkpt lat="44.36444" lon="7.12626">
        <ele>2187</ele>
        <time>2024-09-13T12:44:54.000Z</time>
      </trkpt>
      <trkpt lat="44.36437" lon="7.12622">
        <ele>2187</ele>
        <time>2024-09-13T12:44:56.000Z</time>
      </trkpt>
      <trkpt lat="44.36434" lon="7.12618">
        <ele>2187</ele>
        <time>2024-09-13T12:44:57.000Z</time>
      </trkpt>
      <trkpt lat="44.36432" lon="7.12613">
        <ele>2187</ele>
        <time>2024-09-13T12:44:58.000Z</time>
      </trkpt>
      <trkpt lat="44.3643" lon="7.12607">
        <ele>2186.6000976562</ele>
        <time>2024-09-13T12:44:59.000Z</time>
      </trkpt>
      <trkpt lat="44.36428" lon="7.126">
        <ele>2186.3999023438</ele>
        <time>2024-09-13T12:45:00.000Z</time>
      </trkpt>
      <trkpt lat="44.36425" lon="7.12594">
        <ele>2186.1999511719</ele>
        <time>2024-09-13T12:45:01.000Z</time>
      </trkpt>
      <trkpt lat="44.36424" lon="7.12588">
        <ele>2186.1999511719</ele>
        <time>2024-09-13T12:45:02.000Z</time>
      </trkpt>
      <trkpt lat="44.36423" lon="7.12584">
        <ele>2185.8000488281</ele>
        <time>2024-09-13T12:45:03.000Z</time>
      </trkpt>
      <trkpt lat="44.36422" lon="7.12579">
        <ele>2185.6000976562</ele>
        <time>2024-09-13T12:45:04.000Z</time>
      </trkpt>
      <trkpt lat="44.3642" lon="7.12575">
        <ele>2185.3999023438</ele>
        <time>2024-09-13T12:45:05.000Z</time>
      </trkpt>
      <trkpt lat="44.36419" lon="7.12571">
        <ele>2185.3999023438</ele>
        <time>2024-09-13T12:45:06.000Z</time>
      </trkpt>
      <trkpt lat="44.36419" lon="7.12562">
        <ele>2185.3999023438</ele>
        <time>2024-09-13T12:45:08.000Z</time>
      </trkpt>
      <trkpt lat="44.36419" lon="7.12557">
        <ele>2185.3999023438</ele>
        <time>2024-09-13T12:45:09.000Z</time>
      </trkpt>
      <trkpt lat="44.36418" lon="7.12553">
        <ele>2185.6000976562</ele>
        <time>2024-09-13T12:45:10.000Z</time>
      </trkpt>
      <trkpt lat="44.36417" lon="7.12549">
        <ele>2185.6000976562</ele>
        <time>2024-09-13T12:45:11.000Z</time>
      </trkpt>
      <trkpt lat="44.36415" lon="7.12546">
        <ele>2185.6000976562</ele>
        <time>2024-09-13T12:45:12.000Z</time>
      </trkpt>
      <trkpt lat="44.36414" lon="7.12547">
        <ele>2185.6000976562</ele>
        <time>2024-09-13T12:45:13.000Z</time>
      </trkpt>
      <trkpt lat="44.36412" lon="7.1255">
        <ele>2185.6000976562</ele>
        <time>2024-09-13T12:45:14.000Z</time>
      </trkpt>
      <trkpt lat="44.36407" lon="7.12553">
        <ele>2185.3999023438</ele>
        <time>2024-09-13T12:45:16.000Z</time>
      </trkpt>
      <trkpt lat="44.36404" lon="7.12552">
        <ele>2185.1999511719</ele>
        <time>2024-09-13T12:45:17.000Z</time>
      </trkpt>
      <trkpt lat="44.36402" lon="7.12547">
        <ele>2185.1999511719</ele>
        <time>2024-09-13T12:45:18.000Z</time>
      </trkpt>
      <trkpt lat="44.36401" lon="7.12538">
        <ele>2185</ele>
        <time>2024-09-13T12:45:20.000Z</time>
      </trkpt>
      <trkpt lat="44.36401" lon="7.12533">
        <ele>2184.8000488281</ele>
        <time>2024-09-13T12:45:21.000Z</time>
      </trkpt>
      <trkpt lat="44.36401" lon="7.12527">
        <ele>2184.3999023438</ele>
        <time>2024-09-13T12:45:22.000Z</time>
      </trkpt>
      <trkpt lat="44.36401" lon="7.12522">
        <ele>2184</ele>
        <time>2024-09-13T12:45:23.000Z</time>
      </trkpt>
      <trkpt lat="44.364" lon="7.12515">
        <ele>2183.1999511719</ele>
        <time>2024-09-13T12:45:24.000Z</time>
      </trkpt>
      <trkpt lat="44.36397" lon="7.12512">
        <ele>2183.1999511719</ele>
        <time>2024-09-13T12:45:25.000Z</time>
      </trkpt>
      <trkpt lat="44.36394" lon="7.12513">
        <ele>2183</ele>
        <time>2024-09-13T12:45:26.000Z</time>
      </trkpt>
      <trkpt lat="44.36389" lon="7.12526">
        <ele>2182.6000976562</ele>
        <time>2024-09-13T12:45:29.000Z</time>
      </trkpt>
      <trkpt lat="44.36388" lon="7.12531">
        <ele>2182.1999511719</ele>
        <time>2024-09-13T12:45:30.000Z</time>
      </trkpt>
      <trkpt lat="44.36384" lon="7.12542">
        <ele>2180.8000488281</ele>
        <time>2024-09-13T12:45:32.000Z</time>
      </trkpt>
      <trkpt lat="44.36382" lon="7.12546">
        <ele>2180.3999023438</ele>
        <time>2024-09-13T12:45:33.000Z</time>
      </trkpt>
      <trkpt lat="44.3638" lon="7.12549">
        <ele>2180.1999511719</ele>
        <time>2024-09-13T12:45:34.000Z</time>
      </trkpt>
      <trkpt lat="44.36377" lon="7.12552">
        <ele>2180</ele>
        <time>2024-09-13T12:45:35.000Z</time>
      </trkpt>
      <trkpt lat="44.36376" lon="7.12555">
        <ele>2179.8000488281</ele>
        <time>2024-09-13T12:45:36.000Z</time>
      </trkpt>
      <trkpt lat="44.36367" lon="7.12567">
        <ele>2179.3999023438</ele>
        <time>2024-09-13T12:45:39.000Z</time>
      </trkpt>
      <trkpt lat="44.36365" lon="7.12569">
        <ele>2179.6000976562</ele>
        <time>2024-09-13T12:45:40.000Z</time>
      </trkpt>
      <trkpt lat="44.36363" lon="7.1257">
        <ele>2179.6000976562</ele>
        <time>2024-09-13T12:45:41.000Z</time>
      </trkpt>
      <trkpt lat="44.36363" lon="7.1257">
        <ele>2179.6000976562</ele>
        <time>2024-09-13T12:45:42.000Z</time>
      </trkpt>
      <trkpt lat="44.36363" lon="7.1257">
        <ele>2179.8000488281</ele>
        <time>2024-09-13T12:45:44.000Z</time>
      </trkpt>
      <trkpt lat="44.36362" lon="7.12569">
        <ele>2179.8000488281</ele>
        <time>2024-09-13T12:45:45.000Z</time>
      </trkpt>
      <trkpt lat="44.36362" lon="7.12569">
        <ele>2180</ele>
        <time>2024-09-13T12:45:48.000Z</time>
      </trkpt>
      <trkpt lat="44.36362" lon="7.12569">
        <ele>2180</ele>
        <time>2024-09-13T12:45:49.000Z</time>
      </trkpt>
      <trkpt lat="44.36362" lon="7.12569">
        <ele>2180.1999511719</ele>
        <time>2024-09-13T12:45:51.000Z</time>
      </trkpt>
      <trkpt lat="44.36362" lon="7.12569">
        <ele>2180</ele>
        <time>2024-09-13T12:45:55.000Z</time>
      </trkpt>
      <trkpt lat="44.3636" lon="7.12575">
        <ele>2180</ele>
        <time>2024-09-13T12:46:02.000Z</time>
      </trkpt>
      <trkpt lat="44.36358" lon="7.12577">
        <ele>2179.6000976562</ele>
        <time>2024-09-13T12:46:03.000Z</time>
      </trkpt>
      <trkpt lat="44.36357" lon="7.12579">
        <ele>2179.1999511719</ele>
        <time>2024-09-13T12:46:04.000Z</time>
      </trkpt>
      <trkpt lat="44.36356" lon="7.12579">
        <ele>2179</ele>
        <time>2024-09-13T12:46:05.000Z</time>
      </trkpt>
      <trkpt lat="44.36354" lon="7.1258">
        <ele>2178.6000976562</ele>
        <time>2024-09-13T12:46:06.000Z</time>
      </trkpt>
      <trkpt lat="44.36352" lon="7.12581">
        <ele>2178.6000976562</ele>
        <time>2024-09-13T12:46:07.000Z</time>
      </trkpt>
      <trkpt lat="44.3635" lon="7.12582">
        <ele>2178.3999023438</ele>
        <time>2024-09-13T12:46:08.000Z</time>
      </trkpt>
      <trkpt lat="44.36349" lon="7.12582">
        <ele>2178.3999023438</ele>
        <time>2024-09-13T12:46:09.000Z</time>
      </trkpt>
      <trkpt lat="44.36347" lon="7.12581">
        <ele>2178.3999023438</ele>
        <time>2024-09-13T12:46:10.000Z</time>
      </trkpt>
      <trkpt lat="44.36345" lon="7.1258">
        <ele>2178.3999023438</ele>
        <time>2024-09-13T12:46:11.000Z</time>
      </trkpt>
      <trkpt lat="44.36342" lon="7.12578">
        <ele>2178.1999511719</ele>
        <time>2024-09-13T12:46:12.000Z</time>
      </trkpt>
      <trkpt lat="44.3634" lon="7.12575">
        <ele>2178.1999511719</ele>
        <time>2024-09-13T12:46:13.000Z</time>
      </trkpt>
      <trkpt lat="44.36338" lon="7.12573">
        <ele>2178</ele>
        <time>2024-09-13T12:46:14.000Z</time>
      </trkpt>
      <trkpt lat="44.36336" lon="7.1257">
        <ele>2177.6000976562</ele>
        <time>2024-09-13T12:46:15.000Z</time>
      </trkpt>
      <trkpt lat="44.36331" lon="7.12564">
        <ele>2177.3999023438</ele>
        <time>2024-09-13T12:46:17.000Z</time>
      </trkpt>
      <trkpt lat="44.36327" lon="7.12561">
        <ele>2177.3999023438</ele>
        <time>2024-09-13T12:46:18.000Z</time>
      </trkpt>
      <trkpt lat="44.36323" lon="7.12562">
        <ele>2177.1999511719</ele>
        <time>2024-09-13T12:46:19.000Z</time>
      </trkpt>
      <trkpt lat="44.36321" lon="7.12565">
        <ele>2177</ele>
        <time>2024-09-13T12:46:20.000Z</time>
      </trkpt>
      <trkpt lat="44.36318" lon="7.12567">
        <ele>2176.3999023438</ele>
        <time>2024-09-13T12:46:21.000Z</time>
      </trkpt>
      <trkpt lat="44.36316" lon="7.12569">
        <ele>2176</ele>
        <time>2024-09-13T12:46:22.000Z</time>
      </trkpt>
      <trkpt lat="44.36314" lon="7.12571">
        <ele>2175.3999023438</ele>
        <time>2024-09-13T12:46:23.000Z</time>
      </trkpt>
      <trkpt lat="44.36311" lon="7.12572">
        <ele>2175</ele>
        <time>2024-09-13T12:46:24.000Z</time>
      </trkpt>
      <trkpt lat="44.36308" lon="7.12573">
        <ele>2175</ele>
        <time>2024-09-13T12:46:25.000Z</time>
      </trkpt>
      <trkpt lat="44.36306" lon="7.12574">
        <ele>2174.8000488281</ele>
        <time>2024-09-13T12:46:26.000Z</time>
      </trkpt>
      <trkpt lat="44.36303" lon="7.12575">
        <ele>2174.8000488281</ele>
        <time>2024-09-13T12:46:27.000Z</time>
      </trkpt>
      <trkpt lat="44.36296" lon="7.12575">
        <ele>2174.3999023438</ele>
        <time>2024-09-13T12:46:29.000Z</time>
      </trkpt>
      <trkpt lat="44.36291" lon="7.12575">
        <ele>2173.3999023438</ele>
        <time>2024-09-13T12:46:30.000Z</time>
      </trkpt>
      <trkpt lat="44.36287" lon="7.12575">
        <ele>2172.8000488281</ele>
        <time>2024-09-13T12:46:31.000Z</time>
      </trkpt>
      <trkpt lat="44.36281" lon="7.12577">
        <ele>2171.8000488281</ele>
        <time>2024-09-13T12:46:33.000Z</time>
      </trkpt>
      <trkpt lat="44.36277" lon="7.12578">
        <ele>2171.3999023438</ele>
        <time>2024-09-13T12:46:34.000Z</time>
      </trkpt>
      <trkpt lat="44.36274" lon="7.1258">
        <ele>2170.6000976562</ele>
        <time>2024-09-13T12:46:35.000Z</time>
      </trkpt>
      <trkpt lat="44.3627" lon="7.12582">
        <ele>2170.3999023438</ele>
        <time>2024-09-13T12:46:36.000Z</time>
      </trkpt>
      <trkpt lat="44.36261" lon="7.12588">
        <ele>2169.6000976562</ele>
        <time>2024-09-13T12:46:38.000Z</time>
      </trkpt>
      <trkpt lat="44.36258" lon="7.1259">
        <ele>2168.3999023438</ele>
        <time>2024-09-13T12:46:39.000Z</time>
      </trkpt>
      <trkpt lat="44.36254" lon="7.12593">
        <ele>2167.8000488281</ele>
        <time>2024-09-13T12:46:40.000Z</time>
      </trkpt>
      <trkpt lat="44.36248" lon="7.12599">
        <ele>2167</ele>
        <time>2024-09-13T12:46:42.000Z</time>
      </trkpt>
      <trkpt lat="44.3624" lon="7.12605">
        <ele>2166.6000976562</ele>
        <time>2024-09-13T12:46:44.000Z</time>
      </trkpt>
      <trkpt lat="44.36236" lon="7.12608">
        <ele>2165.3999023438</ele>
        <time>2024-09-13T12:46:45.000Z</time>
      </trkpt>
      <trkpt lat="44.36232" lon="7.12612">
        <ele>2164.8000488281</ele>
        <time>2024-09-13T12:46:46.000Z</time>
      </trkpt>
      <trkpt lat="44.36228" lon="7.12616">
        <ele>2164</ele>
        <time>2024-09-13T12:46:47.000Z</time>
      </trkpt>
      <trkpt lat="44.36225" lon="7.12621">
        <ele>2163.1999511719</ele>
        <time>2024-09-13T12:46:48.000Z</time>
      </trkpt>
      <trkpt lat="44.36222" lon="7.12626">
        <ele>2162.6000976562</ele>
        <time>2024-09-13T12:46:49.000Z</time>
      </trkpt>
      <trkpt lat="44.36219" lon="7.12629">
        <ele>2162</ele>
        <time>2024-09-13T12:46:50.000Z</time>
      </trkpt>
      <trkpt lat="44.36216" lon="7.12632">
        <ele>2161.6000976562</ele>
        <time>2024-09-13T12:46:51.000Z</time>
      </trkpt>
      <trkpt lat="44.36211" lon="7.12638">
        <ele>2160.8000488281</ele>
        <time>2024-09-13T12:46:53.000Z</time>
      </trkpt>
      <trkpt lat="44.36209" lon="7.12642">
        <ele>2160.3999023438</ele>
        <time>2024-09-13T12:46:54.000Z</time>
      </trkpt>
      <trkpt lat="44.36207" lon="7.12644">
        <ele>2159.6000976562</ele>
        <time>2024-09-13T12:46:55.000Z</time>
      </trkpt>
      <trkpt lat="44.36206" lon="7.12646">
        <ele>2159</ele>
        <time>2024-09-13T12:46:56.000Z</time>
      </trkpt>
      <trkpt lat="44.36205" lon="7.12647">
        <ele>2158.3999023438</ele>
        <time>2024-09-13T12:46:57.000Z</time>
      </trkpt>
      <trkpt lat="44.36204" lon="7.12648">
        <ele>2158</ele>
        <time>2024-09-13T12:46:58.000Z</time>
      </trkpt>
      <trkpt lat="44.36203" lon="7.1265">
        <ele>2157.6000976562</ele>
        <time>2024-09-13T12:46:59.000Z</time>
      </trkpt>
      <trkpt lat="44.36201" lon="7.12652">
        <ele>2157</ele>
        <time>2024-09-13T12:47:00.000Z</time>
      </trkpt>
      <trkpt lat="44.36194" lon="7.12655">
        <ele>2156</ele>
        <time>2024-09-13T12:47:02.000Z</time>
      </trkpt>
      <trkpt lat="44.3619" lon="7.12656">
        <ele>2155.3999023438</ele>
        <time>2024-09-13T12:47:03.000Z</time>
      </trkpt>
      <trkpt lat="44.36185" lon="7.12655">
        <ele>2155</ele>
        <time>2024-09-13T12:47:04.000Z</time>
      </trkpt>
      <trkpt lat="44.36181" lon="7.12655">
        <ele>2154.3999023438</ele>
        <time>2024-09-13T12:47:05.000Z</time>
      </trkpt>
      <trkpt lat="44.36178" lon="7.12656">
        <ele>2154.1999511719</ele>
        <time>2024-09-13T12:47:06.000Z</time>
      </trkpt>
      <trkpt lat="44.36175" lon="7.12656">
        <ele>2154</ele>
        <time>2024-09-13T12:47:07.000Z</time>
      </trkpt>
      <trkpt lat="44.36173" lon="7.12659">
        <ele>2153.6000976562</ele>
        <time>2024-09-13T12:47:08.000Z</time>
      </trkpt>
      <trkpt lat="44.3617" lon="7.12664">
        <ele>2153.1999511719</ele>
        <time>2024-09-13T12:47:09.000Z</time>
      </trkpt>
      <trkpt lat="44.36167" lon="7.12669">
        <ele>2153.1999511719</ele>
        <time>2024-09-13T12:47:10.000Z</time>
      </trkpt>
      <trkpt lat="44.36165" lon="7.12672">
        <ele>2153</ele>
        <time>2024-09-13T12:47:11.000Z</time>
      </trkpt>
      <trkpt lat="44.36162" lon="7.12677">
        <ele>2152</ele>
        <time>2024-09-13T12:47:12.000Z</time>
      </trkpt>
      <trkpt lat="44.36159" lon="7.12679">
        <ele>2151.6000976562</ele>
        <time>2024-09-13T12:47:13.000Z</time>
      </trkpt>
      <trkpt lat="44.36157" lon="7.12682">
        <ele>2151.6000976562</ele>
        <time>2024-09-13T12:47:14.000Z</time>
      </trkpt>
      <trkpt lat="44.36156" lon="7.12685">
        <ele>2151.3999023438</ele>
        <time>2024-09-13T12:47:15.000Z</time>
      </trkpt>
      <trkpt lat="44.36153" lon="7.12691">
        <ele>2151.6000976562</ele>
        <time>2024-09-13T12:47:17.000Z</time>
      </trkpt>
      <trkpt lat="44.36152" lon="7.12694">
        <ele>2151.8000488281</ele>
        <time>2024-09-13T12:47:18.000Z</time>
      </trkpt>
      <trkpt lat="44.36149" lon="7.12699">
        <ele>2152</ele>
        <time>2024-09-13T12:47:20.000Z</time>
      </trkpt>
      <trkpt lat="44.36148" lon="7.12702">
        <ele>2152.1999511719</ele>
        <time>2024-09-13T12:47:21.000Z</time>
      </trkpt>
      <trkpt lat="44.36147" lon="7.12705">
        <ele>2152.3999023438</ele>
        <time>2024-09-13T12:47:22.000Z</time>
      </trkpt>
      <trkpt lat="44.36146" lon="7.12708">
        <ele>2152.3999023438</ele>
        <time>2024-09-13T12:47:23.000Z</time>
      </trkpt>
      <trkpt lat="44.36146" lon="7.12711">
        <ele>2152.3999023438</ele>
        <time>2024-09-13T12:47:24.000Z</time>
      </trkpt>
      <trkpt lat="44.36144" lon="7.12713">
        <ele>2152.1999511719</ele>
        <time>2024-09-13T12:47:25.000Z</time>
      </trkpt>
      <trkpt lat="44.36141" lon="7.12717">
        <ele>2151.6000976562</ele>
        <time>2024-09-13T12:47:27.000Z</time>
      </trkpt>
      <trkpt lat="44.36139" lon="7.12717">
        <ele>2151.6000976562</ele>
        <time>2024-09-13T12:47:28.000Z</time>
      </trkpt>
      <trkpt lat="44.36137" lon="7.12718">
        <ele>2151.3999023438</ele>
        <time>2024-09-13T12:47:29.000Z</time>
      </trkpt>
      <trkpt lat="44.36134" lon="7.1272">
        <ele>2151</ele>
        <time>2024-09-13T12:47:30.000Z</time>
      </trkpt>
      <trkpt lat="44.36131" lon="7.12722">
        <ele>2150.8000488281</ele>
        <time>2024-09-13T12:47:31.000Z</time>
      </trkpt>
      <trkpt lat="44.36128" lon="7.12725">
        <ele>2150.6000976562</ele>
        <time>2024-09-13T12:47:32.000Z</time>
      </trkpt>
      <trkpt lat="44.36126" lon="7.12728">
        <ele>2149.6000976562</ele>
        <time>2024-09-13T12:47:33.000Z</time>
      </trkpt>
      <trkpt lat="44.36123" lon="7.12729">
        <ele>2149.6000976562</ele>
        <time>2024-09-13T12:47:34.000Z</time>
      </trkpt>
      <trkpt lat="44.36121" lon="7.12732">
        <ele>2149.6000976562</ele>
        <time>2024-09-13T12:47:35.000Z</time>
      </trkpt>
      <trkpt lat="44.3612" lon="7.12735">
        <ele>2149.6000976562</ele>
        <time>2024-09-13T12:47:36.000Z</time>
      </trkpt>
      <trkpt lat="44.36119" lon="7.12737">
        <ele>2149.8000488281</ele>
        <time>2024-09-13T12:47:37.000Z</time>
      </trkpt>
      <trkpt lat="44.36118" lon="7.12739">
        <ele>2150</ele>
        <time>2024-09-13T12:47:38.000Z</time>
      </trkpt>
      <trkpt lat="44.36117" lon="7.12741">
        <ele>2150.1999511719</ele>
        <time>2024-09-13T12:47:39.000Z</time>
      </trkpt>
      <trkpt lat="44.36113" lon="7.12745">
        <ele>2150.6000976562</ele>
        <time>2024-09-13T12:47:41.000Z</time>
      </trkpt>
      <trkpt lat="44.36112" lon="7.12746">
        <ele>2150.8000488281</ele>
        <time>2024-09-13T12:47:42.000Z</time>
      </trkpt>
      <trkpt lat="44.36111" lon="7.12747">
        <ele>2150.8000488281</ele>
        <time>2024-09-13T12:47:43.000Z</time>
      </trkpt>
      <trkpt lat="44.3611" lon="7.12748">
        <ele>2151.1999511719</ele>
        <time>2024-09-13T12:47:44.000Z</time>
      </trkpt>
      <trkpt lat="44.36109" lon="7.12749">
        <ele>2151.8000488281</ele>
        <time>2024-09-13T12:47:45.000Z</time>
      </trkpt>
      <trkpt lat="44.36109" lon="7.12751">
        <ele>2152</ele>
        <time>2024-09-13T12:47:46.000Z</time>
      </trkpt>
      <trkpt lat="44.36108" lon="7.12752">
        <ele>2152.6000976562</ele>
        <time>2024-09-13T12:47:48.000Z</time>
      </trkpt>
      <trkpt lat="44.36107" lon="7.12753">
        <ele>2152.8000488281</ele>
        <time>2024-09-13T12:47:49.000Z</time>
      </trkpt>
      <trkpt lat="44.36106" lon="7.12753">
        <ele>2152.8000488281</ele>
        <time>2024-09-13T12:47:50.000Z</time>
      </trkpt>
      <trkpt lat="44.36105" lon="7.12754">
        <ele>2152.8000488281</ele>
        <time>2024-09-13T12:47:51.000Z</time>
      </trkpt>
      <trkpt lat="44.36105" lon="7.12755">
        <ele>2153</ele>
        <time>2024-09-13T12:47:52.000Z</time>
      </trkpt>
      <trkpt lat="44.36104" lon="7.12755">
        <ele>2153</ele>
        <time>2024-09-13T12:47:53.000Z</time>
      </trkpt>
      <trkpt lat="44.36102" lon="7.12757">
        <ele>2153.1999511719</ele>
        <time>2024-09-13T12:47:55.000Z</time>
      </trkpt>
      <trkpt lat="44.361" lon="7.12759">
        <ele>2153.3999023438</ele>
        <time>2024-09-13T12:47:57.000Z</time>
      </trkpt>
      <trkpt lat="44.36099" lon="7.1276">
        <ele>2153.6000976562</ele>
        <time>2024-09-13T12:47:58.000Z</time>
      </trkpt>
      <trkpt lat="44.36096" lon="7.12763">
        <ele>2153.8000488281</ele>
        <time>2024-09-13T12:48:01.000Z</time>
      </trkpt>
      <trkpt lat="44.36095" lon="7.12763">
        <ele>2154</ele>
        <time>2024-09-13T12:48:02.000Z</time>
      </trkpt>
      <trkpt lat="44.36094" lon="7.12764">
        <ele>2154</ele>
        <time>2024-09-13T12:48:03.000Z</time>
      </trkpt>
      <trkpt lat="44.36093" lon="7.12765">
        <ele>2154.1999511719</ele>
        <time>2024-09-13T12:48:04.000Z</time>
      </trkpt>
      <trkpt lat="44.36092" lon="7.12765">
        <ele>2154.3999023438</ele>
        <time>2024-09-13T12:48:05.000Z</time>
      </trkpt>
      <trkpt lat="44.36091" lon="7.12766">
        <ele>2154.3999023438</ele>
        <time>2024-09-13T12:48:06.000Z</time>
      </trkpt>
      <trkpt lat="44.36089" lon="7.12768">
        <ele>2154.6000976562</ele>
        <time>2024-09-13T12:48:07.000Z</time>
      </trkpt>
      <trkpt lat="44.36088" lon="7.12767">
        <ele>2154.8000488281</ele>
        <time>2024-09-13T12:48:08.000Z</time>
      </trkpt>
      <trkpt lat="44.36086" lon="7.12768">
        <ele>2155</ele>
        <time>2024-09-13T12:48:09.000Z</time>
      </trkpt>
      <trkpt lat="44.36085" lon="7.12768">
        <ele>2155.1999511719</ele>
        <time>2024-09-13T12:48:10.000Z</time>
      </trkpt>
      <trkpt lat="44.36083" lon="7.12769">
        <ele>2155.1999511719</ele>
        <time>2024-09-13T12:48:11.000Z</time>
      </trkpt>
      <trkpt lat="44.36082" lon="7.1277">
        <ele>2155.6000976562</ele>
        <time>2024-09-13T12:48:12.000Z</time>
      </trkpt>
      <trkpt lat="44.36081" lon="7.1277">
        <ele>2155.8000488281</ele>
        <time>2024-09-13T12:48:13.000Z</time>
      </trkpt>
      <trkpt lat="44.36079" lon="7.12771">
        <ele>2156</ele>
        <time>2024-09-13T12:48:14.000Z</time>
      </trkpt>
      <trkpt lat="44.36078" lon="7.12771">
        <ele>2156.1999511719</ele>
        <time>2024-09-13T12:48:15.000Z</time>
      </trkpt>
      <trkpt lat="44.36077" lon="7.12772">
        <ele>2156.3999023438</ele>
        <time>2024-09-13T12:48:16.000Z</time>
      </trkpt>
      <trkpt lat="44.36076" lon="7.12773">
        <ele>2156.6000976562</ele>
        <time>2024-09-13T12:48:17.000Z</time>
      </trkpt>
      <trkpt lat="44.36074" lon="7.12773">
        <ele>2156.8000488281</ele>
        <time>2024-09-13T12:48:18.000Z</time>
      </trkpt>
      <trkpt lat="44.36073" lon="7.12774">
        <ele>2157</ele>
        <time>2024-09-13T12:48:19.000Z</time>
      </trkpt>
      <trkpt lat="44.36071" lon="7.12775">
        <ele>2157.1999511719</ele>
        <time>2024-09-13T12:48:20.000Z</time>
      </trkpt>
      <trkpt lat="44.3607" lon="7.12776">
        <ele>2157.1999511719</ele>
        <time>2024-09-13T12:48:21.000Z</time>
      </trkpt>
      <trkpt lat="44.36069" lon="7.12776">
        <ele>2157.3999023438</ele>
        <time>2024-09-13T12:48:22.000Z</time>
      </trkpt>
      <trkpt lat="44.36068" lon="7.12777">
        <ele>2157.6000976562</ele>
        <time>2024-09-13T12:48:23.000Z</time>
      </trkpt>
      <trkpt lat="44.36067" lon="7.12778">
        <ele>2158</ele>
        <time>2024-09-13T12:48:24.000Z</time>
      </trkpt>
      <trkpt lat="44.36065" lon="7.12779">
        <ele>2158.1999511719</ele>
        <time>2024-09-13T12:48:25.000Z</time>
      </trkpt>
      <trkpt lat="44.36064" lon="7.1278">
        <ele>2158.1999511719</ele>
        <time>2024-09-13T12:48:26.000Z</time>
      </trkpt>
      <trkpt lat="44.36063" lon="7.1278">
        <ele>2158.3999023438</ele>
        <time>2024-09-13T12:48:27.000Z</time>
      </trkpt>
      <trkpt lat="44.36061" lon="7.12781">
        <ele>2159</ele>
        <time>2024-09-13T12:48:28.000Z</time>
      </trkpt>
      <trkpt lat="44.3606" lon="7.12781">
        <ele>2159.1999511719</ele>
        <time>2024-09-13T12:48:29.000Z</time>
      </trkpt>
      <trkpt lat="44.36059" lon="7.12782">
        <ele>2159.3999023438</ele>
        <time>2024-09-13T12:48:30.000Z</time>
      </trkpt>
      <trkpt lat="44.36058" lon="7.12782">
        <ele>2159.6000976562</ele>
        <time>2024-09-13T12:48:31.000Z</time>
      </trkpt>
      <trkpt lat="44.36057" lon="7.12782">
        <ele>2160</ele>
        <time>2024-09-13T12:48:32.000Z</time>
      </trkpt>
      <trkpt lat="44.36055" lon="7.12783">
        <ele>2160.3999023438</ele>
        <time>2024-09-13T12:48:33.000Z</time>
      </trkpt>
      <trkpt lat="44.36054" lon="7.12784">
        <ele>2160.6000976562</ele>
        <time>2024-09-13T12:48:34.000Z</time>
      </trkpt>
      <trkpt lat="44.36053" lon="7.12784">
        <ele>2160.8000488281</ele>
        <time>2024-09-13T12:48:35.000Z</time>
      </trkpt>
      <trkpt lat="44.36052" lon="7.12784">
        <ele>2161</ele>
        <time>2024-09-13T12:48:36.000Z</time>
      </trkpt>
      <trkpt lat="44.3605" lon="7.12785">
        <ele>2161.1999511719</ele>
        <time>2024-09-13T12:48:37.000Z</time>
      </trkpt>
      <trkpt lat="44.36049" lon="7.12785">
        <ele>2161.1999511719</ele>
        <time>2024-09-13T12:48:38.000Z</time>
      </trkpt>
      <trkpt lat="44.36048" lon="7.12786">
        <ele>2161.6000976562</ele>
        <time>2024-09-13T12:48:39.000Z</time>
      </trkpt>
      <trkpt lat="44.36047" lon="7.12786">
        <ele>2162</ele>
        <time>2024-09-13T12:48:40.000Z</time>
      </trkpt>
      <trkpt lat="44.36046" lon="7.12787">
        <ele>2162.1999511719</ele>
        <time>2024-09-13T12:48:41.000Z</time>
      </trkpt>
      <trkpt lat="44.36045" lon="7.12787">
        <ele>2162.6000976562</ele>
        <time>2024-09-13T12:48:42.000Z</time>
      </trkpt>
      <trkpt lat="44.36044" lon="7.12787">
        <ele>2162.8000488281</ele>
        <time>2024-09-13T12:48:43.000Z</time>
      </trkpt>
      <trkpt lat="44.36043" lon="7.12788">
        <ele>2163</ele>
        <time>2024-09-13T12:48:44.000Z</time>
      </trkpt>
      <trkpt lat="44.36042" lon="7.12789">
        <ele>2163.1999511719</ele>
        <time>2024-09-13T12:48:45.000Z</time>
      </trkpt>
      <trkpt lat="44.36041" lon="7.12789">
        <ele>2163.3999023438</ele>
        <time>2024-09-13T12:48:46.000Z</time>
      </trkpt>
      <trkpt lat="44.3604" lon="7.12789">
        <ele>2163.3999023438</ele>
        <time>2024-09-13T12:48:47.000Z</time>
      </trkpt>
      <trkpt lat="44.36039" lon="7.1279">
        <ele>2163.8000488281</ele>
        <time>2024-09-13T12:48:48.000Z</time>
      </trkpt>
      <trkpt lat="44.36037" lon="7.1279">
        <ele>2164</ele>
        <time>2024-09-13T12:48:49.000Z</time>
      </trkpt>
      <trkpt lat="44.36036" lon="7.12791">
        <ele>2164</ele>
        <time>2024-09-13T12:48:50.000Z</time>
      </trkpt>
      <trkpt lat="44.36035" lon="7.12792">
        <ele>2164.1999511719</ele>
        <time>2024-09-13T12:48:51.000Z</time>
      </trkpt>
      <trkpt lat="44.36034" lon="7.12793">
        <ele>2164.1999511719</ele>
        <time>2024-09-13T12:48:52.000Z</time>
      </trkpt>
      <trkpt lat="44.36032" lon="7.12794">
        <ele>2164.6000976562</ele>
        <time>2024-09-13T12:48:53.000Z</time>
      </trkpt>
      <trkpt lat="44.36031" lon="7.12795">
        <ele>2165</ele>
        <time>2024-09-13T12:48:54.000Z</time>
      </trkpt>
      <trkpt lat="44.3603" lon="7.12796">
        <ele>2165</ele>
        <time>2024-09-13T12:48:55.000Z</time>
      </trkpt>
      <trkpt lat="44.36029" lon="7.12796">
        <ele>2165.1999511719</ele>
        <time>2024-09-13T12:48:56.000Z</time>
      </trkpt>
      <trkpt lat="44.36028" lon="7.12797">
        <ele>2165.3999023438</ele>
        <time>2024-09-13T12:48:57.000Z</time>
      </trkpt>
      <trkpt lat="44.36027" lon="7.12797">
        <ele>2165.6000976562</ele>
        <time>2024-09-13T12:48:58.000Z</time>
      </trkpt>
      <trkpt lat="44.36026" lon="7.12798">
        <ele>2165.8000488281</ele>
        <time>2024-09-13T12:48:59.000Z</time>
      </trkpt>
      <trkpt lat="44.36025" lon="7.12798">
        <ele>2165.8000488281</ele>
        <time>2024-09-13T12:49:00.000Z</time>
      </trkpt>
      <trkpt lat="44.36024" lon="7.12798">
        <ele>2166</ele>
        <time>2024-09-13T12:49:01.000Z</time>
      </trkpt>
      <trkpt lat="44.36023" lon="7.12798">
        <ele>2166.3999023438</ele>
        <time>2024-09-13T12:49:02.000Z</time>
      </trkpt>
      <trkpt lat="44.36022" lon="7.12799">
        <ele>2166.6000976562</ele>
        <time>2024-09-13T12:49:03.000Z</time>
      </trkpt>
      <trkpt lat="44.36021" lon="7.12799">
        <ele>2166.8000488281</ele>
        <time>2024-09-13T12:49:04.000Z</time>
      </trkpt>
      <trkpt lat="44.3602" lon="7.12798">
        <ele>2166.8000488281</ele>
        <time>2024-09-13T12:49:05.000Z</time>
      </trkpt>
      <trkpt lat="44.36019" lon="7.12798">
        <ele>2167</ele>
        <time>2024-09-13T12:49:06.000Z</time>
      </trkpt>
      <trkpt lat="44.36018" lon="7.12798">
        <ele>2167.3999023438</ele>
        <time>2024-09-13T12:49:07.000Z</time>
      </trkpt>
      <trkpt lat="44.36017" lon="7.12797">
        <ele>2167.6000976562</ele>
        <time>2024-09-13T12:49:08.000Z</time>
      </trkpt>
      <trkpt lat="44.36017" lon="7.12798">
        <ele>2167.6000976562</ele>
        <time>2024-09-13T12:49:09.000Z</time>
      </trkpt>
      <trkpt lat="44.36017" lon="7.12798">
        <ele>2167.8000488281</ele>
        <time>2024-09-13T12:49:10.000Z</time>
      </trkpt>
      <trkpt lat="44.36017" lon="7.12798">
        <ele>2168</ele>
        <time>2024-09-13T12:49:11.000Z</time>
      </trkpt>
      <trkpt lat="44.36017" lon="7.12798">
        <ele>2168</ele>
        <time>2024-09-13T12:49:12.000Z</time>
      </trkpt>
      <trkpt lat="44.36016" lon="7.12798">
        <ele>2168</ele>
        <time>2024-09-13T12:49:13.000Z</time>
      </trkpt>
      <trkpt lat="44.36016" lon="7.12798">
        <ele>2168.1999511719</ele>
        <time>2024-09-13T12:49:14.000Z</time>
      </trkpt>
      <trkpt lat="44.36016" lon="7.12798">
        <ele>2168.1999511719</ele>
        <time>2024-09-13T12:49:15.000Z</time>
      </trkpt>
      <trkpt lat="44.36016" lon="7.12797">
        <ele>2168.1999511719</ele>
        <time>2024-09-13T12:49:19.000Z</time>
      </trkpt>
      <trkpt lat="44.36016" lon="7.12797">
        <ele>2168.1999511719</ele>
        <time>2024-09-13T12:49:20.000Z</time>
      </trkpt>
      <trkpt lat="44.36016" lon="7.12797">
        <ele>2168.1999511719</ele>
        <time>2024-09-13T12:49:21.000Z</time>
      </trkpt>
      <trkpt lat="44.36016" lon="7.12797">
        <ele>2168.1999511719</ele>
        <time>2024-09-13T12:49:22.000Z</time>
      </trkpt>
      <trkpt lat="44.36016" lon="7.12798">
        <ele>2168.1999511719</ele>
        <time>2024-09-13T12:49:23.000Z</time>
      </trkpt>
      <trkpt lat="44.36017" lon="7.12798">
        <ele>2168.1999511719</ele>
        <time>2024-09-13T12:49:25.000Z</time>
      </trkpt>
      <trkpt lat="44.36017" lon="7.12799">
        <ele>2168.1999511719</ele>
        <time>2024-09-13T12:49:28.000Z</time>
      </trkpt>
      <trkpt lat="44.36018" lon="7.12799">
        <ele>2168.1999511719</ele>
        <time>2024-09-13T12:49:30.000Z</time>
      </trkpt>
      <trkpt lat="44.36018" lon="7.12799">
        <ele>2168.1999511719</ele>
        <time>2024-09-13T12:49:31.000Z</time>
      </trkpt>
      <trkpt lat="44.36018" lon="7.12799">
        <ele>2168.1999511719</ele>
        <time>2024-09-13T12:49:36.000Z</time>
      </trkpt>
      <trkpt lat="44.36018" lon="7.12799">
        <ele>2168.3999023438</ele>
        <time>2024-09-13T12:49:38.000Z</time>
      </trkpt>
      <trkpt lat="44.36018" lon="7.12799">
        <ele>2168.1999511719</ele>
        <time>2024-09-13T12:49:42.000Z</time>
      </trkpt>
      <trkpt lat="44.36018" lon="7.12799">
        <ele>2168</ele>
        <time>2024-09-13T12:49:47.000Z</time>
      </trkpt>
      <trkpt lat="44.36018" lon="7.12799">
        <ele>2168.1999511719</ele>
        <time>2024-09-13T12:49:48.000Z</time>
      </trkpt>
      <trkpt lat="44.36018" lon="7.12799">
        <ele>2168.1999511719</ele>
        <time>2024-09-13T12:49:49.000Z</time>
      </trkpt>
      <trkpt lat="44.36018" lon="7.12799">
        <ele>2168.1999511719</ele>
        <time>2024-09-13T12:49:50.000Z</time>
      </trkpt>
      <trkpt lat="44.36018" lon="7.12799">
        <ele>2168.1999511719</ele>
        <time>2024-09-13T12:49:51.000Z</time>
      </trkpt>
      <trkpt lat="44.36018" lon="7.12799">
        <ele>2168.8000488281</ele>
        <time>2024-09-13T12:49:57.000Z</time>
      </trkpt>
      <trkpt lat="44.36018" lon="7.12799">
        <ele>2168.8000488281</ele>
        <time>2024-09-13T12:49:58.000Z</time>
      </trkpt>
      <trkpt lat="44.36018" lon="7.12799">
        <ele>2168.8000488281</ele>
        <time>2024-09-13T12:50:00.000Z</time>
      </trkpt>
      <trkpt lat="44.36018" lon="7.12799">
        <ele>2168.8000488281</ele>
        <time>2024-09-13T12:50:01.000Z</time>
      </trkpt>
      <trkpt lat="44.36018" lon="7.12799">
        <ele>2168.8000488281</ele>
        <time>2024-09-13T12:50:05.000Z</time>
      </trkpt>
      <trkpt lat="44.36018" lon="7.12799">
        <ele>2169</ele>
        <time>2024-09-13T12:50:09.000Z</time>
      </trkpt>
      <trkpt lat="44.36018" lon="7.12799">
        <ele>2169</ele>
        <time>2024-09-13T12:50:11.000Z</time>
      </trkpt>
      <trkpt lat="44.36018" lon="7.12799">
        <ele>2169</ele>
        <time>2024-09-13T12:50:21.000Z</time>
      </trkpt>
      <trkpt lat="44.36018" lon="7.12799">
        <ele>2169</ele>
        <time>2024-09-13T12:50:26.000Z</time>
      </trkpt>
      <trkpt lat="44.36018" lon="7.128">
        <ele>2169.3999023438</ele>
        <time>2024-09-13T12:50:30.000Z</time>
      </trkpt>
      <trkpt lat="44.36018" lon="7.12799">
        <ele>2169.6000976562</ele>
        <time>2024-09-13T12:50:38.000Z</time>
      </trkpt>
      <trkpt lat="44.36018" lon="7.12799">
        <ele>2169.8000488281</ele>
        <time>2024-09-13T12:50:45.000Z</time>
      </trkpt>
      <trkpt lat="44.36018" lon="7.12799">
        <ele>2169.8000488281</ele>
        <time>2024-09-13T12:50:46.000Z</time>
      </trkpt>
      <trkpt lat="44.36018" lon="7.12799">
        <ele>2169.8000488281</ele>
        <time>2024-09-13T12:50:47.000Z</time>
      </trkpt>
      <trkpt lat="44.3602" lon="7.12801">
        <ele>2169.8000488281</ele>
        <time>2024-09-13T12:50:53.000Z</time>
      </trkpt>
      <trkpt lat="44.3602" lon="7.12801">
        <ele>2169.8000488281</ele>
        <time>2024-09-13T12:50:59.000Z</time>
      </trkpt>
      <trkpt lat="44.3602" lon="7.12801">
        <ele>2170.1999511719</ele>
        <time>2024-09-13T12:51:11.000Z</time>
      </trkpt>
      <trkpt lat="44.36023" lon="7.12799">
        <ele>2170.6000976562</ele>
        <time>2024-09-13T12:51:13.000Z</time>
      </trkpt>
      <trkpt lat="44.36023" lon="7.12799">
        <ele>2171</ele>
        <time>2024-09-13T12:51:21.000Z</time>
      </trkpt>
      <trkpt lat="44.36023" lon="7.12799">
        <ele>2170.8000488281</ele>
        <time>2024-09-13T12:51:31.000Z</time>
      </trkpt>
      <trkpt lat="44.36022" lon="7.12799">
        <ele>2171</ele>
        <time>2024-09-13T12:51:37.000Z</time>
      </trkpt>
      <trkpt lat="44.36022" lon="7.12799">
        <ele>2170.8000488281</ele>
        <time>2024-09-13T12:51:45.000Z</time>
      </trkpt>
      <trkpt lat="44.3602" lon="7.128">
        <ele>2170.8000488281</ele>
        <time>2024-09-13T12:51:55.000Z</time>
      </trkpt>
      <trkpt lat="44.3602" lon="7.128">
        <ele>2170.6000976562</ele>
        <time>2024-09-13T12:52:03.000Z</time>
      </trkpt>
      <trkpt lat="44.3602" lon="7.128">
        <ele>2170.6000976562</ele>
        <time>2024-09-13T12:52:06.000Z</time>
      </trkpt>
      <trkpt lat="44.3602" lon="7.128">
        <ele>2170.3999023438</ele>
        <time>2024-09-13T12:52:13.000Z</time>
      </trkpt>
      <trkpt lat="44.3602" lon="7.12799">
        <ele>2170.3999023438</ele>
        <time>2024-09-13T12:52:25.000Z</time>
      </trkpt>
      <trkpt lat="44.36018" lon="7.12799">
        <ele>2170.1999511719</ele>
        <time>2024-09-13T12:52:38.000Z</time>
      </trkpt>
      <trkpt lat="44.3602" lon="7.128">
        <ele>2170.3999023438</ele>
        <time>2024-09-13T12:52:49.000Z</time>
      </trkpt>
      <trkpt lat="44.3602" lon="7.128">
        <ele>2170.3999023438</ele>
        <time>2024-09-13T12:52:56.000Z</time>
      </trkpt>
      <trkpt lat="44.3602" lon="7.128">
        <ele>2170</ele>
        <time>2024-09-13T12:53:01.000Z</time>
      </trkpt>
      <trkpt lat="44.36021" lon="7.12798">
        <ele>2170.6000976562</ele>
        <time>2024-09-13T12:53:05.000Z</time>
      </trkpt>
      <trkpt lat="44.36021" lon="7.12798">
        <ele>2170.8000488281</ele>
        <time>2024-09-13T12:53:09.000Z</time>
      </trkpt>
      <trkpt lat="44.36021" lon="7.12798">
        <ele>2171.1999511719</ele>
        <time>2024-09-13T12:53:15.000Z</time>
      </trkpt>
      <trkpt lat="44.36021" lon="7.12798">
        <ele>2171.1999511719</ele>
        <time>2024-09-13T12:53:20.000Z</time>
      </trkpt>
      <trkpt lat="44.36021" lon="7.12798">
        <ele>2171.3999023438</ele>
        <time>2024-09-13T12:53:21.000Z</time>
      </trkpt>
      <trkpt lat="44.3602" lon="7.12799">
        <ele>2171.3999023438</ele>
        <time>2024-09-13T12:53:24.000Z</time>
      </trkpt>
      <trkpt lat="44.36021" lon="7.12798">
        <ele>2171.3999023438</ele>
        <time>2024-09-13T12:53:32.000Z</time>
      </trkpt>
      <trkpt lat="44.36021" lon="7.12798">
        <ele>2171.3999023438</ele>
        <time>2024-09-13T12:53:33.000Z</time>
      </trkpt>
      <trkpt lat="44.3602" lon="7.12797">
        <ele>2170.6000976562</ele>
        <time>2024-09-13T12:53:37.000Z</time>
      </trkpt>
      <trkpt lat="44.36019" lon="7.12796">
        <ele>2171.1999511719</ele>
        <time>2024-09-13T12:53:46.000Z</time>
      </trkpt>
      <trkpt lat="44.36019" lon="7.12797">
        <ele>2170.8000488281</ele>
        <time>2024-09-13T12:53:50.000Z</time>
      </trkpt>
      <trkpt lat="44.3602" lon="7.12797">
        <ele>2170.8000488281</ele>
        <time>2024-09-13T12:53:52.000Z</time>
      </trkpt>
      <trkpt lat="44.3602" lon="7.12798">
        <ele>2170.8000488281</ele>
        <time>2024-09-13T12:53:53.000Z</time>
      </trkpt>
      <trkpt lat="44.3602" lon="7.12798">
        <ele>2170.8000488281</ele>
        <time>2024-09-13T12:53:54.000Z</time>
      </trkpt>
      <trkpt lat="44.36018" lon="7.12796">
        <ele>2170.8000488281</ele>
        <time>2024-09-13T12:53:58.000Z</time>
      </trkpt>
      <trkpt lat="44.36019" lon="7.12796">
        <ele>2171</ele>
        <time>2024-09-13T12:54:01.000Z</time>
      </trkpt>
      <trkpt lat="44.36019" lon="7.12798">
        <ele>2171</ele>
        <time>2024-09-13T12:54:03.000Z</time>
      </trkpt>
      <trkpt lat="44.36019" lon="7.12799">
        <ele>2170.8000488281</ele>
        <time>2024-09-13T12:54:04.000Z</time>
      </trkpt>
      <trkpt lat="44.36019" lon="7.12799">
        <ele>2170.8000488281</ele>
        <time>2024-09-13T12:54:05.000Z</time>
      </trkpt>
      <trkpt lat="44.3602" lon="7.12799">
        <ele>2170.8000488281</ele>
        <time>2024-09-13T12:54:06.000Z</time>
      </trkpt>
      <trkpt lat="44.36019" lon="7.12799">
        <ele>2170.8000488281</ele>
        <time>2024-09-13T12:54:07.000Z</time>
      </trkpt>
      <trkpt lat="44.36018" lon="7.12798">
        <ele>2170.8000488281</ele>
        <time>2024-09-13T12:54:12.000Z</time>
      </trkpt>
      <trkpt lat="44.36017" lon="7.12798">
        <ele>2170.8000488281</ele>
        <time>2024-09-13T12:54:13.000Z</time>
      </trkpt>
      <trkpt lat="44.36017" lon="7.12797">
        <ele>2170.8000488281</ele>
        <time>2024-09-13T12:54:18.000Z</time>
      </trkpt>
      <trkpt lat="44.36017" lon="7.12798">
        <ele>2170.8000488281</ele>
        <time>2024-09-13T12:54:19.000Z</time>
      </trkpt>
      <trkpt lat="44.36018" lon="7.12798">
        <ele>2170.8000488281</ele>
        <time>2024-09-13T12:54:23.000Z</time>
      </trkpt>
      <trkpt lat="44.36018" lon="7.12797">
        <ele>2170.8000488281</ele>
        <time>2024-09-13T12:54:29.000Z</time>
      </trkpt>
      <trkpt lat="44.36018" lon="7.12798">
        <ele>2170.8000488281</ele>
        <time>2024-09-13T12:54:30.000Z</time>
      </trkpt>
      <trkpt lat="44.36018" lon="7.12798">
        <ele>2170.8000488281</ele>
        <time>2024-09-13T12:54:32.000Z</time>
      </trkpt>
      <trkpt lat="44.36018" lon="7.12798">
        <ele>2170.8000488281</ele>
        <time>2024-09-13T12:54:33.000Z</time>
      </trkpt>
      <trkpt lat="44.36017" lon="7.12798">
        <ele>2170.8000488281</ele>
        <time>2024-09-13T12:54:37.000Z</time>
      </trkpt>
      <trkpt lat="44.36016" lon="7.12798">
        <ele>2170.8000488281</ele>
        <time>2024-09-13T12:54:40.000Z</time>
      </trkpt>
      <trkpt lat="44.36016" lon="7.12798">
        <ele>2170.8000488281</ele>
        <time>2024-09-13T12:54:41.000Z</time>
      </trkpt>
      <trkpt lat="44.36018" lon="7.12798">
        <ele>2170.8000488281</ele>
        <time>2024-09-13T12:54:42.000Z</time>
      </trkpt>
      <trkpt lat="44.36017" lon="7.12798">
        <ele>2170.8000488281</ele>
        <time>2024-09-13T12:54:43.000Z</time>
      </trkpt>
      <trkpt lat="44.36018" lon="7.12798">
        <ele>2170.8000488281</ele>
        <time>2024-09-13T12:54:50.000Z</time>
      </trkpt>
      <trkpt lat="44.36017" lon="7.12798">
        <ele>2170.8000488281</ele>
        <time>2024-09-13T12:54:51.000Z</time>
      </trkpt>
      <trkpt lat="44.36016" lon="7.12799">
        <ele>2170.8000488281</ele>
        <time>2024-09-13T12:54:52.000Z</time>
      </trkpt>
      <trkpt lat="44.36016" lon="7.12798">
        <ele>2170.8000488281</ele>
        <time>2024-09-13T12:54:53.000Z</time>
      </trkpt>
      <trkpt lat="44.36016" lon="7.12798">
        <ele>2170.8000488281</ele>
        <time>2024-09-13T12:54:55.000Z</time>
      </trkpt>
      <trkpt lat="44.36017" lon="7.12797">
        <ele>2170.8000488281</ele>
        <time>2024-09-13T12:54:59.000Z</time>
      </trkpt>
      <trkpt lat="44.36017" lon="7.12796">
        <ele>2170.8000488281</ele>
        <time>2024-09-13T12:55:01.000Z</time>
      </trkpt>
      <trkpt lat="44.36017" lon="7.12797">
        <ele>2170.8000488281</ele>
        <time>2024-09-13T12:55:07.000Z</time>
      </trkpt>
      <trkpt lat="44.36017" lon="7.12797">
        <ele>2170.8000488281</ele>
        <time>2024-09-13T12:55:08.000Z</time>
      </trkpt>
      <trkpt lat="44.36016" lon="7.12797">
        <ele>2170.8000488281</ele>
        <time>2024-09-13T12:55:14.000Z</time>
      </trkpt>
      <trkpt lat="44.36016" lon="7.12798">
        <ele>2170.8000488281</ele>
        <time>2024-09-13T12:55:15.000Z</time>
      </trkpt>
      <trkpt lat="44.36016" lon="7.12798">
        <ele>2170.8000488281</ele>
        <time>2024-09-13T12:55:17.000Z</time>
      </trkpt>
      <trkpt lat="44.36017" lon="7.12798">
        <ele>2170.8000488281</ele>
        <time>2024-09-13T12:55:18.000Z</time>
      </trkpt>
      <trkpt lat="44.36017" lon="7.12798">
        <ele>2170.8000488281</ele>
        <time>2024-09-13T12:55:20.000Z</time>
      </trkpt>
      <trkpt lat="44.36017" lon="7.12797">
        <ele>2170.8000488281</ele>
        <time>2024-09-13T12:55:22.000Z</time>
      </trkpt>
      <trkpt lat="44.36017" lon="7.12797">
        <ele>2170.8000488281</ele>
        <time>2024-09-13T12:55:23.000Z</time>
      </trkpt>
      <trkpt lat="44.36016" lon="7.12798">
        <ele>2170.8000488281</ele>
        <time>2024-09-13T12:55:24.000Z</time>
      </trkpt>
      <trkpt lat="44.36016" lon="7.12798">
        <ele>2170.8000488281</ele>
        <time>2024-09-13T12:55:26.000Z</time>
      </trkpt>
      <trkpt lat="44.36016" lon="7.12796">
        <ele>2170.8000488281</ele>
        <time>2024-09-13T12:55:27.000Z</time>
      </trkpt>
      <trkpt lat="44.36016" lon="7.12798">
        <ele>2170.8000488281</ele>
        <time>2024-09-13T12:55:28.000Z</time>
      </trkpt>
      <trkpt lat="44.36016" lon="7.12796">
        <ele>2170.8000488281</ele>
        <time>2024-09-13T12:55:29.000Z</time>
      </trkpt>
      <trkpt lat="44.36016" lon="7.12798">
        <ele>2170.8000488281</ele>
        <time>2024-09-13T12:55:32.000Z</time>
      </trkpt>
      <trkpt lat="44.36016" lon="7.12797">
        <ele>2170.8000488281</ele>
        <time>2024-09-13T12:55:34.000Z</time>
      </trkpt>
      <trkpt lat="44.36016" lon="7.12797">
        <ele>2170.8000488281</ele>
        <time>2024-09-13T12:55:35.000Z</time>
      </trkpt>
      <trkpt lat="44.36016" lon="7.12798">
        <ele>2170.8000488281</ele>
        <time>2024-09-13T12:55:39.000Z</time>
      </trkpt>
      <trkpt lat="44.36016" lon="7.12798">
        <ele>2170.8000488281</ele>
        <time>2024-09-13T12:55:42.000Z</time>
      </trkpt>
      <trkpt lat="44.36016" lon="7.12797">
        <ele>2170.8000488281</ele>
        <time>2024-09-13T12:55:49.000Z</time>
      </trkpt>
      <trkpt lat="44.36016" lon="7.12798">
        <ele>2170.8000488281</ele>
        <time>2024-09-13T12:55:55.000Z</time>
      </trkpt>
      <trkpt lat="44.36016" lon="7.12798">
        <ele>2170.8000488281</ele>
        <time>2024-09-13T12:55:57.000Z</time>
      </trkpt>
      <trkpt lat="44.36016" lon="7.12797">
        <ele>2170.8000488281</ele>
        <time>2024-09-13T12:55:58.000Z</time>
      </trkpt>
      <trkpt lat="44.36016" lon="7.12797">
        <ele>2170.8000488281</ele>
        <time>2024-09-13T12:55:59.000Z</time>
      </trkpt>
      <trkpt lat="44.36017" lon="7.12797">
        <ele>2170.8000488281</ele>
        <time>2024-09-13T12:56:00.000Z</time>
      </trkpt>
      <trkpt lat="44.36017" lon="7.12797">
        <ele>2170.8000488281</ele>
        <time>2024-09-13T12:56:01.000Z</time>
      </trkpt>
      <trkpt lat="44.36017" lon="7.12797">
        <ele>2170.8000488281</ele>
        <time>2024-09-13T12:56:02.000Z</time>
      </trkpt>
      <trkpt lat="44.36017" lon="7.12797">
        <ele>2170.8000488281</ele>
        <time>2024-09-13T12:56:03.000Z</time>
      </trkpt>
      <trkpt lat="44.36016" lon="7.12797">
        <ele>2170.8000488281</ele>
        <time>2024-09-13T12:56:06.000Z</time>
      </trkpt>
      <trkpt lat="44.36016" lon="7.12797">
        <ele>2170.8000488281</ele>
        <time>2024-09-13T12:56:08.000Z</time>
      </trkpt>
      <trkpt lat="44.36016" lon="7.12798">
        <ele>2170.8000488281</ele>
        <time>2024-09-13T12:56:10.000Z</time>
      </trkpt>
      <trkpt lat="44.36015" lon="7.12797">
        <ele>2170.8000488281</ele>
        <time>2024-09-13T12:56:11.000Z</time>
      </trkpt>
      <trkpt lat="44.36015" lon="7.12798">
        <ele>2170.8000488281</ele>
        <time>2024-09-13T12:56:13.000Z</time>
      </trkpt>
      <trkpt lat="44.36014" lon="7.12797">
        <ele>2170.8000488281</ele>
        <time>2024-09-13T12:56:16.000Z</time>
      </trkpt>
      <trkpt lat="44.36014" lon="7.12797">
        <ele>2170.8000488281</ele>
        <time>2024-09-13T12:56:19.000Z</time>
      </trkpt>
      <trkpt lat="44.36014" lon="7.12797">
        <ele>2170.8000488281</ele>
        <time>2024-09-13T12:56:21.000Z</time>
      </trkpt>
      <trkpt lat="44.36013" lon="7.12797">
        <ele>2170.8000488281</ele>
        <time>2024-09-13T12:56:22.000Z</time>
      </trkpt>
      <trkpt lat="44.36013" lon="7.12797">
        <ele>2170.8000488281</ele>
        <time>2024-09-13T12:56:23.000Z</time>
      </trkpt>
      <trkpt lat="44.36012" lon="7.12797">
        <ele>2170.8000488281</ele>
        <time>2024-09-13T12:56:25.000Z</time>
      </trkpt>
      <trkpt lat="44.36011" lon="7.12797">
        <ele>2170.8000488281</ele>
        <time>2024-09-13T12:56:26.000Z</time>
      </trkpt>
      <trkpt lat="44.36011" lon="7.12797">
        <ele>2170.8000488281</ele>
        <time>2024-09-13T12:56:27.000Z</time>
      </trkpt>
      <trkpt lat="44.3601" lon="7.12797">
        <ele>2170.8000488281</ele>
        <time>2024-09-13T12:56:28.000Z</time>
      </trkpt>
      <trkpt lat="44.3601" lon="7.12797">
        <ele>2170.8000488281</ele>
        <time>2024-09-13T12:56:29.000Z</time>
      </trkpt>
      <trkpt lat="44.3601" lon="7.12797">
        <ele>2170.8000488281</ele>
        <time>2024-09-13T12:56:30.000Z</time>
      </trkpt>
      <trkpt lat="44.3601" lon="7.12798">
        <ele>2170.8000488281</ele>
        <time>2024-09-13T12:56:31.000Z</time>
      </trkpt>
      <trkpt lat="44.3601" lon="7.12797">
        <ele>2170.8000488281</ele>
        <time>2024-09-13T12:56:32.000Z</time>
      </trkpt>
      <trkpt lat="44.36009" lon="7.12797">
        <ele>2170.8000488281</ele>
        <time>2024-09-13T12:56:34.000Z</time>
      </trkpt>
      <trkpt lat="44.36009" lon="7.12797">
        <ele>2170.8000488281</ele>
        <time>2024-09-13T12:56:36.000Z</time>
      </trkpt>
      <trkpt lat="44.3601" lon="7.12797">
        <ele>2170.8000488281</ele>
        <time>2024-09-13T12:56:40.000Z</time>
      </trkpt>
      <trkpt lat="44.3601" lon="7.12797">
        <ele>2170.8000488281</ele>
        <time>2024-09-13T12:56:41.000Z</time>
      </trkpt>
      <trkpt lat="44.36011" lon="7.12798">
        <ele>2173</ele>
        <time>2024-09-13T12:56:45.000Z</time>
      </trkpt>
      <trkpt lat="44.36011" lon="7.12798">
        <ele>2173</ele>
        <time>2024-09-13T12:56:46.000Z</time>
      </trkpt>
      <trkpt lat="44.36011" lon="7.12798">
        <ele>2173.1999511719</ele>
        <time>2024-09-13T12:56:47.000Z</time>
      </trkpt>
      <trkpt lat="44.36011" lon="7.12797">
        <ele>2173.1999511719</ele>
        <time>2024-09-13T12:56:48.000Z</time>
      </trkpt>
      <trkpt lat="44.36011" lon="7.12797">
        <ele>2173.3999023438</ele>
        <time>2024-09-13T12:56:53.000Z</time>
      </trkpt>
      <trkpt lat="44.36012" lon="7.12797">
        <ele>2173.3999023438</ele>
        <time>2024-09-13T12:56:54.000Z</time>
      </trkpt>
      <trkpt lat="44.36012" lon="7.12797">
        <ele>2173.1999511719</ele>
        <time>2024-09-13T12:56:55.000Z</time>
      </trkpt>
      <trkpt lat="44.36011" lon="7.12797">
        <ele>2173</ele>
        <time>2024-09-13T12:56:56.000Z</time>
      </trkpt>
      <trkpt lat="44.36011" lon="7.12797">
        <ele>2173</ele>
        <time>2024-09-13T12:56:57.000Z</time>
      </trkpt>
      <trkpt lat="44.36011" lon="7.12797">
        <ele>2172.8000488281</ele>
        <time>2024-09-13T12:56:58.000Z</time>
      </trkpt>
      <trkpt lat="44.36011" lon="7.12797">
        <ele>2172.8000488281</ele>
        <time>2024-09-13T12:56:59.000Z</time>
      </trkpt>
      <trkpt lat="44.36011" lon="7.12797">
        <ele>2172.8000488281</ele>
        <time>2024-09-13T12:57:00.000Z</time>
      </trkpt>
      <trkpt lat="44.36011" lon="7.12797">
        <ele>2172.8000488281</ele>
        <time>2024-09-13T12:57:01.000Z</time>
      </trkpt>
      <trkpt lat="44.36012" lon="7.12799">
        <ele>2172.8000488281</ele>
        <time>2024-09-13T12:57:03.000Z</time>
      </trkpt>
      <trkpt lat="44.36013" lon="7.12799">
        <ele>2173.1999511719</ele>
        <time>2024-09-13T12:57:04.000Z</time>
      </trkpt>
      <trkpt lat="44.36014" lon="7.12799">
        <ele>2173.1999511719</ele>
        <time>2024-09-13T12:57:05.000Z</time>
      </trkpt>
      <trkpt lat="44.36016" lon="7.12798">
        <ele>2173.1999511719</ele>
        <time>2024-09-13T12:57:08.000Z</time>
      </trkpt>
      <trkpt lat="44.36017" lon="7.12798">
        <ele>2173</ele>
        <time>2024-09-13T12:57:09.000Z</time>
      </trkpt>
      <trkpt lat="44.36017" lon="7.12798">
        <ele>2172.6000976562</ele>
        <time>2024-09-13T12:57:11.000Z</time>
      </trkpt>
      <trkpt lat="44.36017" lon="7.12798">
        <ele>2172.3999023438</ele>
        <time>2024-09-13T12:57:12.000Z</time>
      </trkpt>
      <trkpt lat="44.36017" lon="7.12798">
        <ele>2172.1999511719</ele>
        <time>2024-09-13T12:57:16.000Z</time>
      </trkpt>
      <trkpt lat="44.36017" lon="7.12797">
        <ele>2172.1999511719</ele>
        <time>2024-09-13T12:57:18.000Z</time>
      </trkpt>
      <trkpt lat="44.36016" lon="7.12797">
        <ele>2172.1999511719</ele>
        <time>2024-09-13T12:57:20.000Z</time>
      </trkpt>
      <trkpt lat="44.36016" lon="7.12797">
        <ele>2172.1999511719</ele>
        <time>2024-09-13T12:57:21.000Z</time>
      </trkpt>
      <trkpt lat="44.36016" lon="7.12797">
        <ele>2172.1999511719</ele>
        <time>2024-09-13T12:57:24.000Z</time>
      </trkpt>
      <trkpt lat="44.36015" lon="7.12797">
        <ele>2172.1999511719</ele>
        <time>2024-09-13T12:57:25.000Z</time>
      </trkpt>
      <trkpt lat="44.36014" lon="7.12797">
        <ele>2172.1999511719</ele>
        <time>2024-09-13T12:57:26.000Z</time>
      </trkpt>
      <trkpt lat="44.36012" lon="7.12797">
        <ele>2172.1999511719</ele>
        <time>2024-09-13T12:57:28.000Z</time>
      </trkpt>
      <trkpt lat="44.36011" lon="7.12797">
        <ele>2172.1999511719</ele>
        <time>2024-09-13T12:57:29.000Z</time>
      </trkpt>
      <trkpt lat="44.36011" lon="7.12797">
        <ele>2172.3999023438</ele>
        <time>2024-09-13T12:57:30.000Z</time>
      </trkpt>
      <trkpt lat="44.3601" lon="7.12797">
        <ele>2172.3999023438</ele>
        <time>2024-09-13T12:57:31.000Z</time>
      </trkpt>
      <trkpt lat="44.3601" lon="7.12797">
        <ele>2172.8000488281</ele>
        <time>2024-09-13T12:57:32.000Z</time>
      </trkpt>
      <trkpt lat="44.3601" lon="7.12797">
        <ele>2173</ele>
        <time>2024-09-13T12:57:33.000Z</time>
      </trkpt>
      <trkpt lat="44.3601" lon="7.12797">
        <ele>2173</ele>
        <time>2024-09-13T12:57:34.000Z</time>
      </trkpt>
      <trkpt lat="44.36005" lon="7.12797">
        <ele>2173.6000976562</ele>
        <time>2024-09-13T12:57:39.000Z</time>
      </trkpt>
      <trkpt lat="44.36004" lon="7.12797">
        <ele>2173.6000976562</ele>
        <time>2024-09-13T12:57:40.000Z</time>
      </trkpt>
      <trkpt lat="44.36003" lon="7.12797">
        <ele>2174</ele>
        <time>2024-09-13T12:57:41.000Z</time>
      </trkpt>
      <trkpt lat="44.36003" lon="7.12798">
        <ele>2174.1999511719</ele>
        <time>2024-09-13T12:57:42.000Z</time>
      </trkpt>
      <trkpt lat="44.36002" lon="7.12798">
        <ele>2174.6000976562</ele>
        <time>2024-09-13T12:57:44.000Z</time>
      </trkpt>
      <trkpt lat="44.36001" lon="7.12798">
        <ele>2174.6000976562</ele>
        <time>2024-09-13T12:57:45.000Z</time>
      </trkpt>
      <trkpt lat="44.36" lon="7.12798">
        <ele>2174.8000488281</ele>
        <time>2024-09-13T12:57:46.000Z</time>
      </trkpt>
      <trkpt lat="44.35998" lon="7.12798">
        <ele>2175</ele>
        <time>2024-09-13T12:57:47.000Z</time>
      </trkpt>
      <trkpt lat="44.35997" lon="7.12798">
        <ele>2175.1999511719</ele>
        <time>2024-09-13T12:57:48.000Z</time>
      </trkpt>
      <trkpt lat="44.35996" lon="7.12798">
        <ele>2175.6000976562</ele>
        <time>2024-09-13T12:57:49.000Z</time>
      </trkpt>
      <trkpt lat="44.35996" lon="7.12798">
        <ele>2175.8000488281</ele>
        <time>2024-09-13T12:57:50.000Z</time>
      </trkpt>
      <trkpt lat="44.35994" lon="7.12798">
        <ele>2176</ele>
        <time>2024-09-13T12:57:51.000Z</time>
      </trkpt>
      <trkpt lat="44.35993" lon="7.12798">
        <ele>2176</ele>
        <time>2024-09-13T12:57:52.000Z</time>
      </trkpt>
      <trkpt lat="44.35992" lon="7.12798">
        <ele>2176.1999511719</ele>
        <time>2024-09-13T12:57:53.000Z</time>
      </trkpt>
      <trkpt lat="44.35991" lon="7.12798">
        <ele>2176.1999511719</ele>
        <time>2024-09-13T12:57:54.000Z</time>
      </trkpt>
      <trkpt lat="44.35991" lon="7.12799">
        <ele>2176.1999511719</ele>
        <time>2024-09-13T12:57:55.000Z</time>
      </trkpt>
      <trkpt lat="44.35989" lon="7.12798">
        <ele>2176.3999023438</ele>
        <time>2024-09-13T12:57:56.000Z</time>
      </trkpt>
      <trkpt lat="44.35988" lon="7.12798">
        <ele>2176.6000976562</ele>
        <time>2024-09-13T12:57:57.000Z</time>
      </trkpt>
      <trkpt lat="44.35988" lon="7.12799">
        <ele>2176.6000976562</ele>
        <time>2024-09-13T12:57:58.000Z</time>
      </trkpt>
      <trkpt lat="44.35988" lon="7.12799">
        <ele>2176.8000488281</ele>
        <time>2024-09-13T12:57:59.000Z</time>
      </trkpt>
      <trkpt lat="44.35988" lon="7.12799">
        <ele>2177</ele>
        <time>2024-09-13T12:58:00.000Z</time>
      </trkpt>
      <trkpt lat="44.35988" lon="7.12799">
        <ele>2177</ele>
        <time>2024-09-13T12:58:01.000Z</time>
      </trkpt>
      <trkpt lat="44.35988" lon="7.128">
        <ele>2177</ele>
        <time>2024-09-13T12:58:02.000Z</time>
      </trkpt>
      <trkpt lat="44.35988" lon="7.128">
        <ele>2176.6000976562</ele>
        <time>2024-09-13T12:58:08.000Z</time>
      </trkpt>
      <trkpt lat="44.35988" lon="7.12798">
        <ele>2176.6000976562</ele>
        <time>2024-09-13T12:58:09.000Z</time>
      </trkpt>
      <trkpt lat="44.35988" lon="7.12798">
        <ele>2176.6000976562</ele>
        <time>2024-09-13T12:58:10.000Z</time>
      </trkpt>
      <trkpt lat="44.35985" lon="7.128">
        <ele>2176.8000488281</ele>
        <time>2024-09-13T12:58:14.000Z</time>
      </trkpt>
      <trkpt lat="44.35983" lon="7.12804">
        <ele>2176.8000488281</ele>
        <time>2024-09-13T12:58:17.000Z</time>
      </trkpt>
      <trkpt lat="44.35982" lon="7.12806">
        <ele>2176.8000488281</ele>
        <time>2024-09-13T12:58:18.000Z</time>
      </trkpt>
      <trkpt lat="44.3598" lon="7.12809">
        <ele>2177</ele>
        <time>2024-09-13T12:58:20.000Z</time>
      </trkpt>
      <trkpt lat="44.3598" lon="7.1281">
        <ele>2177</ele>
        <time>2024-09-13T12:58:21.000Z</time>
      </trkpt>
      <trkpt lat="44.35979" lon="7.12812">
        <ele>2177.1999511719</ele>
        <time>2024-09-13T12:58:22.000Z</time>
      </trkpt>
      <trkpt lat="44.35978" lon="7.12813">
        <ele>2177.3999023438</ele>
        <time>2024-09-13T12:58:23.000Z</time>
      </trkpt>
      <trkpt lat="44.35977" lon="7.12816">
        <ele>2177.8000488281</ele>
        <time>2024-09-13T12:58:25.000Z</time>
      </trkpt>
      <trkpt lat="44.35976" lon="7.12818">
        <ele>2178.1999511719</ele>
        <time>2024-09-13T12:58:27.000Z</time>
      </trkpt>
      <trkpt lat="44.35974" lon="7.12819">
        <ele>2178.3999023438</ele>
        <time>2024-09-13T12:58:28.000Z</time>
      </trkpt>
      <trkpt lat="44.35974" lon="7.1282">
        <ele>2178.6000976562</ele>
        <time>2024-09-13T12:58:29.000Z</time>
      </trkpt>
      <trkpt lat="44.35973" lon="7.12821">
        <ele>2179</ele>
        <time>2024-09-13T12:58:30.000Z</time>
      </trkpt>
      <trkpt lat="44.35971" lon="7.12823">
        <ele>2179.3999023438</ele>
        <time>2024-09-13T12:58:32.000Z</time>
      </trkpt>
      <trkpt lat="44.3597" lon="7.12824">
        <ele>2179.6000976562</ele>
        <time>2024-09-13T12:58:33.000Z</time>
      </trkpt>
      <trkpt lat="44.35969" lon="7.12824">
        <ele>2179.8000488281</ele>
        <time>2024-09-13T12:58:34.000Z</time>
      </trkpt>
      <trkpt lat="44.35968" lon="7.12824">
        <ele>2180.1999511719</ele>
        <time>2024-09-13T12:58:35.000Z</time>
      </trkpt>
      <trkpt lat="44.35967" lon="7.12823">
        <ele>2180.6000976562</ele>
        <time>2024-09-13T12:58:36.000Z</time>
      </trkpt>
      <trkpt lat="44.35966" lon="7.12823">
        <ele>2180.8000488281</ele>
        <time>2024-09-13T12:58:37.000Z</time>
      </trkpt>
      <trkpt lat="44.35966" lon="7.12823">
        <ele>2181</ele>
        <time>2024-09-13T12:58:38.000Z</time>
      </trkpt>
      <trkpt lat="44.35965" lon="7.12822">
        <ele>2181.3999023438</ele>
        <time>2024-09-13T12:58:39.000Z</time>
      </trkpt>
      <trkpt lat="44.35965" lon="7.12822">
        <ele>2181.3999023438</ele>
        <time>2024-09-13T12:58:40.000Z</time>
      </trkpt>
      <trkpt lat="44.35964" lon="7.12821">
        <ele>2181.6000976562</ele>
        <time>2024-09-13T12:58:41.000Z</time>
      </trkpt>
      <trkpt lat="44.35963" lon="7.12821">
        <ele>2181.8000488281</ele>
        <time>2024-09-13T12:58:42.000Z</time>
      </trkpt>
      <trkpt lat="44.35963" lon="7.1282">
        <ele>2182.1999511719</ele>
        <time>2024-09-13T12:58:43.000Z</time>
      </trkpt>
      <trkpt lat="44.35962" lon="7.12819">
        <ele>2182.3999023438</ele>
        <time>2024-09-13T12:58:44.000Z</time>
      </trkpt>
      <trkpt lat="44.35961" lon="7.12819">
        <ele>2182.6000976562</ele>
        <time>2024-09-13T12:58:45.000Z</time>
      </trkpt>
      <trkpt lat="44.35961" lon="7.12819">
        <ele>2182.8000488281</ele>
        <time>2024-09-13T12:58:46.000Z</time>
      </trkpt>
      <trkpt lat="44.3596" lon="7.12818">
        <ele>2183</ele>
        <time>2024-09-13T12:58:47.000Z</time>
      </trkpt>
      <trkpt lat="44.35959" lon="7.12817">
        <ele>2183.1999511719</ele>
        <time>2024-09-13T12:58:48.000Z</time>
      </trkpt>
      <trkpt lat="44.35959" lon="7.12817">
        <ele>2183.6000976562</ele>
        <time>2024-09-13T12:58:49.000Z</time>
      </trkpt>
      <trkpt lat="44.35958" lon="7.12817">
        <ele>2183.8000488281</ele>
        <time>2024-09-13T12:58:50.000Z</time>
      </trkpt>
      <trkpt lat="44.35958" lon="7.12817">
        <ele>2184</ele>
        <time>2024-09-13T12:58:51.000Z</time>
      </trkpt>
      <trkpt lat="44.35957" lon="7.12817">
        <ele>2184.3999023438</ele>
        <time>2024-09-13T12:58:52.000Z</time>
      </trkpt>
      <trkpt lat="44.35956" lon="7.12817">
        <ele>2184.3999023438</ele>
        <time>2024-09-13T12:58:53.000Z</time>
      </trkpt>
      <trkpt lat="44.35956" lon="7.12816">
        <ele>2184.6000976562</ele>
        <time>2024-09-13T12:58:54.000Z</time>
      </trkpt>
      <trkpt lat="44.35955" lon="7.12816">
        <ele>2184.8000488281</ele>
        <time>2024-09-13T12:58:55.000Z</time>
      </trkpt>
      <trkpt lat="44.35953" lon="7.12816">
        <ele>2184.8000488281</ele>
        <time>2024-09-13T12:58:56.000Z</time>
      </trkpt>
      <trkpt lat="44.35952" lon="7.12816">
        <ele>2185</ele>
        <time>2024-09-13T12:58:57.000Z</time>
      </trkpt>
      <trkpt lat="44.35951" lon="7.12816">
        <ele>2185.1999511719</ele>
        <time>2024-09-13T12:58:58.000Z</time>
      </trkpt>
      <trkpt lat="44.35951" lon="7.12816">
        <ele>2185.3999023438</ele>
        <time>2024-09-13T12:58:59.000Z</time>
      </trkpt>
      <trkpt lat="44.3595" lon="7.12816">
        <ele>2185.6000976562</ele>
        <time>2024-09-13T12:59:00.000Z</time>
      </trkpt>
      <trkpt lat="44.35949" lon="7.12815">
        <ele>2185.8000488281</ele>
        <time>2024-09-13T12:59:01.000Z</time>
      </trkpt>
      <trkpt lat="44.35949" lon="7.12815">
        <ele>2185.8000488281</ele>
        <time>2024-09-13T12:59:02.000Z</time>
      </trkpt>
      <trkpt lat="44.35948" lon="7.12815">
        <ele>2186</ele>
        <time>2024-09-13T12:59:03.000Z</time>
      </trkpt>
      <trkpt lat="44.35947" lon="7.12815">
        <ele>2186.1999511719</ele>
        <time>2024-09-13T12:59:04.000Z</time>
      </trkpt>
      <trkpt lat="44.35946" lon="7.12816">
        <ele>2186.3999023438</ele>
        <time>2024-09-13T12:59:05.000Z</time>
      </trkpt>
      <trkpt lat="44.35946" lon="7.12815">
        <ele>2186.6000976562</ele>
        <time>2024-09-13T12:59:06.000Z</time>
      </trkpt>
      <trkpt lat="44.35945" lon="7.12815">
        <ele>2186.8000488281</ele>
        <time>2024-09-13T12:59:07.000Z</time>
      </trkpt>
      <trkpt lat="44.35945" lon="7.12814">
        <ele>2187</ele>
        <time>2024-09-13T12:59:08.000Z</time>
      </trkpt>
      <trkpt lat="44.35944" lon="7.12813">
        <ele>2187.1999511719</ele>
        <time>2024-09-13T12:59:09.000Z</time>
      </trkpt>
      <trkpt lat="44.35944" lon="7.12813">
        <ele>2187.3999023438</ele>
        <time>2024-09-13T12:59:10.000Z</time>
      </trkpt>
      <trkpt lat="44.35944" lon="7.12812">
        <ele>2187.3999023438</ele>
        <time>2024-09-13T12:59:11.000Z</time>
      </trkpt>
      <trkpt lat="44.35944" lon="7.12812">
        <ele>2187.3999023438</ele>
        <time>2024-09-13T12:59:12.000Z</time>
      </trkpt>
      <trkpt lat="44.35943" lon="7.12811">
        <ele>2187.6000976562</ele>
        <time>2024-09-13T12:59:13.000Z</time>
      </trkpt>
      <trkpt lat="44.35943" lon="7.1281">
        <ele>2187.6000976562</ele>
        <time>2024-09-13T12:59:14.000Z</time>
      </trkpt>
      <trkpt lat="44.35942" lon="7.12809">
        <ele>2187.8000488281</ele>
        <time>2024-09-13T12:59:15.000Z</time>
      </trkpt>
      <trkpt lat="44.35942" lon="7.12809">
        <ele>2187.8000488281</ele>
        <time>2024-09-13T12:59:16.000Z</time>
      </trkpt>
      <trkpt lat="44.35942" lon="7.12809">
        <ele>2188</ele>
        <time>2024-09-13T12:59:17.000Z</time>
      </trkpt>
      <trkpt lat="44.35942" lon="7.12808">
        <ele>2188.3999023438</ele>
        <time>2024-09-13T12:59:18.000Z</time>
      </trkpt>
      <trkpt lat="44.35942" lon="7.12808">
        <ele>2188.3999023438</ele>
        <time>2024-09-13T12:59:19.000Z</time>
      </trkpt>
      <trkpt lat="44.35942" lon="7.12807">
        <ele>2188.6000976562</ele>
        <time>2024-09-13T12:59:20.000Z</time>
      </trkpt>
      <trkpt lat="44.35943" lon="7.12806">
        <ele>2188.8000488281</ele>
        <time>2024-09-13T12:59:21.000Z</time>
      </trkpt>
      <trkpt lat="44.35943" lon="7.12804">
        <ele>2189.1999511719</ele>
        <time>2024-09-13T12:59:22.000Z</time>
      </trkpt>
      <trkpt lat="44.35943" lon="7.12803">
        <ele>2189.1999511719</ele>
        <time>2024-09-13T12:59:23.000Z</time>
      </trkpt>
      <trkpt lat="44.35943" lon="7.12802">
        <ele>2189.6000976562</ele>
        <time>2024-09-13T12:59:24.000Z</time>
      </trkpt>
      <trkpt lat="44.35943" lon="7.12801">
        <ele>2189.8000488281</ele>
        <time>2024-09-13T12:59:25.000Z</time>
      </trkpt>
      <trkpt lat="44.35942" lon="7.128">
        <ele>2189.8000488281</ele>
        <time>2024-09-13T12:59:26.000Z</time>
      </trkpt>
      <trkpt lat="44.35942" lon="7.12799">
        <ele>2190.1999511719</ele>
        <time>2024-09-13T12:59:27.000Z</time>
      </trkpt>
      <trkpt lat="44.35942" lon="7.12797">
        <ele>2190.3999023438</ele>
        <time>2024-09-13T12:59:28.000Z</time>
      </trkpt>
      <trkpt lat="44.35942" lon="7.12796">
        <ele>2190.3999023438</ele>
        <time>2024-09-13T12:59:29.000Z</time>
      </trkpt>
      <trkpt lat="44.35941" lon="7.12795">
        <ele>2190.6000976562</ele>
        <time>2024-09-13T12:59:30.000Z</time>
      </trkpt>
      <trkpt lat="44.35941" lon="7.12794">
        <ele>2190.6000976562</ele>
        <time>2024-09-13T12:59:31.000Z</time>
      </trkpt>
      <trkpt lat="44.35941" lon="7.12794">
        <ele>2191</ele>
        <time>2024-09-13T12:59:32.000Z</time>
      </trkpt>
      <trkpt lat="44.35941" lon="7.12793">
        <ele>2191</ele>
        <time>2024-09-13T12:59:33.000Z</time>
      </trkpt>
      <trkpt lat="44.3594" lon="7.12792">
        <ele>2191.1999511719</ele>
        <time>2024-09-13T12:59:34.000Z</time>
      </trkpt>
      <trkpt lat="44.3594" lon="7.12791">
        <ele>2191.3999023438</ele>
        <time>2024-09-13T12:59:35.000Z</time>
      </trkpt>
      <trkpt lat="44.3594" lon="7.1279">
        <ele>2191.6000976562</ele>
        <time>2024-09-13T12:59:36.000Z</time>
      </trkpt>
      <trkpt lat="44.3594" lon="7.12789">
        <ele>2191.6000976562</ele>
        <time>2024-09-13T12:59:37.000Z</time>
      </trkpt>
      <trkpt lat="44.35939" lon="7.12788">
        <ele>2192</ele>
        <time>2024-09-13T12:59:38.000Z</time>
      </trkpt>
      <trkpt lat="44.35939" lon="7.12787">
        <ele>2192.1999511719</ele>
        <time>2024-09-13T12:59:39.000Z</time>
      </trkpt>
      <trkpt lat="44.35939" lon="7.12786">
        <ele>2192.1999511719</ele>
        <time>2024-09-13T12:59:40.000Z</time>
      </trkpt>
      <trkpt lat="44.35939" lon="7.12785">
        <ele>2192.3999023438</ele>
        <time>2024-09-13T12:59:41.000Z</time>
      </trkpt>
      <trkpt lat="44.35939" lon="7.12783">
        <ele>2192.6000976562</ele>
        <time>2024-09-13T12:59:42.000Z</time>
      </trkpt>
      <trkpt lat="44.35939" lon="7.12783">
        <ele>2192.8000488281</ele>
        <time>2024-09-13T12:59:43.000Z</time>
      </trkpt>
      <trkpt lat="44.35939" lon="7.12781">
        <ele>2193</ele>
        <time>2024-09-13T12:59:44.000Z</time>
      </trkpt>
      <trkpt lat="44.35939" lon="7.1278">
        <ele>2193.1999511719</ele>
        <time>2024-09-13T12:59:45.000Z</time>
      </trkpt>
      <trkpt lat="44.35939" lon="7.12779">
        <ele>2193.3999023438</ele>
        <time>2024-09-13T12:59:46.000Z</time>
      </trkpt>
      <trkpt lat="44.35939" lon="7.12778">
        <ele>2193.6000976562</ele>
        <time>2024-09-13T12:59:47.000Z</time>
      </trkpt>
      <trkpt lat="44.35939" lon="7.12777">
        <ele>2193.8000488281</ele>
        <time>2024-09-13T12:59:48.000Z</time>
      </trkpt>
      <trkpt lat="44.3594" lon="7.12776">
        <ele>2193.8000488281</ele>
        <time>2024-09-13T12:59:49.000Z</time>
      </trkpt>
      <trkpt lat="44.3594" lon="7.12775">
        <ele>2194</ele>
        <time>2024-09-13T12:59:50.000Z</time>
      </trkpt>
      <trkpt lat="44.3594" lon="7.12774">
        <ele>2194.1999511719</ele>
        <time>2024-09-13T12:59:51.000Z</time>
      </trkpt>
      <trkpt lat="44.3594" lon="7.12774">
        <ele>2194.6000976562</ele>
        <time>2024-09-13T12:59:52.000Z</time>
      </trkpt>
      <trkpt lat="44.3594" lon="7.12773">
        <ele>2194.8000488281</ele>
        <time>2024-09-13T12:59:53.000Z</time>
      </trkpt>
      <trkpt lat="44.3594" lon="7.12772">
        <ele>2194.8000488281</ele>
        <time>2024-09-13T12:59:54.000Z</time>
      </trkpt>
      <trkpt lat="44.35941" lon="7.12771">
        <ele>2195.1999511719</ele>
        <time>2024-09-13T12:59:55.000Z</time>
      </trkpt>
      <trkpt lat="44.35941" lon="7.1277">
        <ele>2195.3999023438</ele>
        <time>2024-09-13T12:59:56.000Z</time>
      </trkpt>
      <trkpt lat="44.35941" lon="7.12769">
        <ele>2195.6000976562</ele>
        <time>2024-09-13T12:59:57.000Z</time>
      </trkpt>
      <trkpt lat="44.3594" lon="7.12768">
        <ele>2196</ele>
        <time>2024-09-13T12:59:58.000Z</time>
      </trkpt>
      <trkpt lat="44.3594" lon="7.12767">
        <ele>2196.1999511719</ele>
        <time>2024-09-13T12:59:59.000Z</time>
      </trkpt>
      <trkpt lat="44.35939" lon="7.12766">
        <ele>2196.1999511719</ele>
        <time>2024-09-13T13:00:00.000Z</time>
      </trkpt>
      <trkpt lat="44.35939" lon="7.12765">
        <ele>2196.3999023438</ele>
        <time>2024-09-13T13:00:01.000Z</time>
      </trkpt>
      <trkpt lat="44.35939" lon="7.12764">
        <ele>2196.3999023438</ele>
        <time>2024-09-13T13:00:02.000Z</time>
      </trkpt>
      <trkpt lat="44.35939" lon="7.12763">
        <ele>2196.3999023438</ele>
        <time>2024-09-13T13:00:03.000Z</time>
      </trkpt>
      <trkpt lat="44.35939" lon="7.12762">
        <ele>2196.8000488281</ele>
        <time>2024-09-13T13:00:04.000Z</time>
      </trkpt>
      <trkpt lat="44.35938" lon="7.12761">
        <ele>2196.8000488281</ele>
        <time>2024-09-13T13:00:05.000Z</time>
      </trkpt>
      <trkpt lat="44.35937" lon="7.1276">
        <ele>2197</ele>
        <time>2024-09-13T13:00:06.000Z</time>
      </trkpt>
      <trkpt lat="44.35936" lon="7.12761">
        <ele>2197.1999511719</ele>
        <time>2024-09-13T13:00:07.000Z</time>
      </trkpt>
      <trkpt lat="44.35936" lon="7.12761">
        <ele>2197.1999511719</ele>
        <time>2024-09-13T13:00:08.000Z</time>
      </trkpt>
      <trkpt lat="44.35935" lon="7.12762">
        <ele>2197.1999511719</ele>
        <time>2024-09-13T13:00:09.000Z</time>
      </trkpt>
      <trkpt lat="44.35934" lon="7.12763">
        <ele>2197.6000976562</ele>
        <time>2024-09-13T13:00:10.000Z</time>
      </trkpt>
      <trkpt lat="44.35933" lon="7.12763">
        <ele>2197.8000488281</ele>
        <time>2024-09-13T13:00:11.000Z</time>
      </trkpt>
      <trkpt lat="44.35932" lon="7.12763">
        <ele>2198</ele>
        <time>2024-09-13T13:00:12.000Z</time>
      </trkpt>
      <trkpt lat="44.35931" lon="7.12764">
        <ele>2198.1999511719</ele>
        <time>2024-09-13T13:00:13.000Z</time>
      </trkpt>
      <trkpt lat="44.3593" lon="7.12764">
        <ele>2198.3999023438</ele>
        <time>2024-09-13T13:00:14.000Z</time>
      </trkpt>
      <trkpt lat="44.3593" lon="7.12764">
        <ele>2198.6000976562</ele>
        <time>2024-09-13T13:00:15.000Z</time>
      </trkpt>
      <trkpt lat="44.3593" lon="7.12764">
        <ele>2198.8000488281</ele>
        <time>2024-09-13T13:00:16.000Z</time>
      </trkpt>
      <trkpt lat="44.35929" lon="7.12765">
        <ele>2199</ele>
        <time>2024-09-13T13:00:17.000Z</time>
      </trkpt>
      <trkpt lat="44.35928" lon="7.12765">
        <ele>2199.1999511719</ele>
        <time>2024-09-13T13:00:18.000Z</time>
      </trkpt>
      <trkpt lat="44.35928" lon="7.12765">
        <ele>2199.3999023438</ele>
        <time>2024-09-13T13:00:19.000Z</time>
      </trkpt>
      <trkpt lat="44.35927" lon="7.12766">
        <ele>2199.3999023438</ele>
        <time>2024-09-13T13:00:20.000Z</time>
      </trkpt>
      <trkpt lat="44.35927" lon="7.12766">
        <ele>2199.8000488281</ele>
        <time>2024-09-13T13:00:21.000Z</time>
      </trkpt>
      <trkpt lat="44.35926" lon="7.12766">
        <ele>2200</ele>
        <time>2024-09-13T13:00:22.000Z</time>
      </trkpt>
      <trkpt lat="44.35925" lon="7.12765">
        <ele>2200.1999511719</ele>
        <time>2024-09-13T13:00:23.000Z</time>
      </trkpt>
      <trkpt lat="44.35924" lon="7.12766">
        <ele>2200.3999023438</ele>
        <time>2024-09-13T13:00:24.000Z</time>
      </trkpt>
      <trkpt lat="44.35922" lon="7.12766">
        <ele>2200.3999023438</ele>
        <time>2024-09-13T13:00:25.000Z</time>
      </trkpt>
      <trkpt lat="44.35922" lon="7.12766">
        <ele>2200.6000976562</ele>
        <time>2024-09-13T13:00:26.000Z</time>
      </trkpt>
      <trkpt lat="44.3592" lon="7.12766">
        <ele>2200.8000488281</ele>
        <time>2024-09-13T13:00:27.000Z</time>
      </trkpt>
      <trkpt lat="44.35919" lon="7.12766">
        <ele>2201</ele>
        <time>2024-09-13T13:00:28.000Z</time>
      </trkpt>
      <trkpt lat="44.35918" lon="7.12767">
        <ele>2201.1999511719</ele>
        <time>2024-09-13T13:00:29.000Z</time>
      </trkpt>
      <trkpt lat="44.35917" lon="7.12767">
        <ele>2201.3999023438</ele>
        <time>2024-09-13T13:00:30.000Z</time>
      </trkpt>
      <trkpt lat="44.35917" lon="7.12767">
        <ele>2201.6000976562</ele>
        <time>2024-09-13T13:00:31.000Z</time>
      </trkpt>
      <trkpt lat="44.35916" lon="7.12768">
        <ele>2201.6000976562</ele>
        <time>2024-09-13T13:00:32.000Z</time>
      </trkpt>
      <trkpt lat="44.35915" lon="7.12769">
        <ele>2201.6000976562</ele>
        <time>2024-09-13T13:00:33.000Z</time>
      </trkpt>
      <trkpt lat="44.35913" lon="7.12769">
        <ele>2201.8000488281</ele>
        <time>2024-09-13T13:00:34.000Z</time>
      </trkpt>
      <trkpt lat="44.35912" lon="7.1277">
        <ele>2202</ele>
        <time>2024-09-13T13:00:35.000Z</time>
      </trkpt>
      <trkpt lat="44.35912" lon="7.1277">
        <ele>2202</ele>
        <time>2024-09-13T13:00:36.000Z</time>
      </trkpt>
      <trkpt lat="44.35911" lon="7.1277">
        <ele>2202.1999511719</ele>
        <time>2024-09-13T13:00:37.000Z</time>
      </trkpt>
      <trkpt lat="44.3591" lon="7.1277">
        <ele>2202.1999511719</ele>
        <time>2024-09-13T13:00:38.000Z</time>
      </trkpt>
      <trkpt lat="44.35908" lon="7.1277">
        <ele>2202.3999023438</ele>
        <time>2024-09-13T13:00:39.000Z</time>
      </trkpt>
      <trkpt lat="44.35907" lon="7.12771">
        <ele>2202.3999023438</ele>
        <time>2024-09-13T13:00:40.000Z</time>
      </trkpt>
      <trkpt lat="44.35906" lon="7.12771">
        <ele>2202.6000976562</ele>
        <time>2024-09-13T13:00:41.000Z</time>
      </trkpt>
      <trkpt lat="44.35905" lon="7.12771">
        <ele>2202.6000976562</ele>
        <time>2024-09-13T13:00:42.000Z</time>
      </trkpt>
      <trkpt lat="44.35904" lon="7.12771">
        <ele>2202.8000488281</ele>
        <time>2024-09-13T13:00:43.000Z</time>
      </trkpt>
      <trkpt lat="44.35903" lon="7.12771">
        <ele>2203</ele>
        <time>2024-09-13T13:00:44.000Z</time>
      </trkpt>
      <trkpt lat="44.35903" lon="7.12771">
        <ele>2203</ele>
        <time>2024-09-13T13:00:45.000Z</time>
      </trkpt>
      <trkpt lat="44.35902" lon="7.12771">
        <ele>2203.1999511719</ele>
        <time>2024-09-13T13:00:46.000Z</time>
      </trkpt>
      <trkpt lat="44.35901" lon="7.12771">
        <ele>2203.3999023438</ele>
        <time>2024-09-13T13:00:47.000Z</time>
      </trkpt>
      <trkpt lat="44.359" lon="7.12771">
        <ele>2203.3999023438</ele>
        <time>2024-09-13T13:00:48.000Z</time>
      </trkpt>
      <trkpt lat="44.35899" lon="7.1277">
        <ele>2203.8000488281</ele>
        <time>2024-09-13T13:00:49.000Z</time>
      </trkpt>
      <trkpt lat="44.35899" lon="7.1277">
        <ele>2203.8000488281</ele>
        <time>2024-09-13T13:00:50.000Z</time>
      </trkpt>
      <trkpt lat="44.359" lon="7.12769">
        <ele>2204</ele>
        <time>2024-09-13T13:00:51.000Z</time>
      </trkpt>
      <trkpt lat="44.359" lon="7.12768">
        <ele>2204.1999511719</ele>
        <time>2024-09-13T13:00:52.000Z</time>
      </trkpt>
      <trkpt lat="44.35901" lon="7.12767">
        <ele>2204.3999023438</ele>
        <time>2024-09-13T13:00:53.000Z</time>
      </trkpt>
      <trkpt lat="44.35902" lon="7.12767">
        <ele>2204.3999023438</ele>
        <time>2024-09-13T13:00:54.000Z</time>
      </trkpt>
      <trkpt lat="44.35902" lon="7.12766">
        <ele>2204.6000976562</ele>
        <time>2024-09-13T13:00:55.000Z</time>
      </trkpt>
      <trkpt lat="44.35903" lon="7.12766">
        <ele>2204.8000488281</ele>
        <time>2024-09-13T13:00:56.000Z</time>
      </trkpt>
      <trkpt lat="44.35903" lon="7.12766">
        <ele>2205</ele>
        <time>2024-09-13T13:00:57.000Z</time>
      </trkpt>
      <trkpt lat="44.35904" lon="7.12764">
        <ele>2205</ele>
        <time>2024-09-13T13:00:58.000Z</time>
      </trkpt>
      <trkpt lat="44.35904" lon="7.12764">
        <ele>2205.1999511719</ele>
        <time>2024-09-13T13:00:59.000Z</time>
      </trkpt>
      <trkpt lat="44.35904" lon="7.12763">
        <ele>2205.3999023438</ele>
        <time>2024-09-13T13:01:00.000Z</time>
      </trkpt>
      <trkpt lat="44.35904" lon="7.12764">
        <ele>2205.6000976562</ele>
        <time>2024-09-13T13:01:01.000Z</time>
      </trkpt>
      <trkpt lat="44.35904" lon="7.12763">
        <ele>2205.8000488281</ele>
        <time>2024-09-13T13:01:02.000Z</time>
      </trkpt>
      <trkpt lat="44.35904" lon="7.12763">
        <ele>2206</ele>
        <time>2024-09-13T13:01:03.000Z</time>
      </trkpt>
      <trkpt lat="44.35904" lon="7.12762">
        <ele>2206</ele>
        <time>2024-09-13T13:01:04.000Z</time>
      </trkpt>
      <trkpt lat="44.35904" lon="7.12761">
        <ele>2206</ele>
        <time>2024-09-13T13:01:05.000Z</time>
      </trkpt>
      <trkpt lat="44.35904" lon="7.1276">
        <ele>2206.1999511719</ele>
        <time>2024-09-13T13:01:06.000Z</time>
      </trkpt>
      <trkpt lat="44.35905" lon="7.12759">
        <ele>2206.3999023438</ele>
        <time>2024-09-13T13:01:07.000Z</time>
      </trkpt>
      <trkpt lat="44.35906" lon="7.12757">
        <ele>2206.6000976562</ele>
        <time>2024-09-13T13:01:08.000Z</time>
      </trkpt>
      <trkpt lat="44.35906" lon="7.12756">
        <ele>2206.8000488281</ele>
        <time>2024-09-13T13:01:09.000Z</time>
      </trkpt>
      <trkpt lat="44.35906" lon="7.12754">
        <ele>2207</ele>
        <time>2024-09-13T13:01:10.000Z</time>
      </trkpt>
      <trkpt lat="44.35907" lon="7.12754">
        <ele>2207.3999023438</ele>
        <time>2024-09-13T13:01:11.000Z</time>
      </trkpt>
      <trkpt lat="44.35907" lon="7.12754">
        <ele>2207.6000976562</ele>
        <time>2024-09-13T13:01:12.000Z</time>
      </trkpt>
      <trkpt lat="44.35907" lon="7.12754">
        <ele>2207.8000488281</ele>
        <time>2024-09-13T13:01:15.000Z</time>
      </trkpt>
      <trkpt lat="44.35908" lon="7.12753">
        <ele>2207.8000488281</ele>
        <time>2024-09-13T13:01:16.000Z</time>
      </trkpt>
      <trkpt lat="44.35908" lon="7.12753">
        <ele>2207.8000488281</ele>
        <time>2024-09-13T13:01:17.000Z</time>
      </trkpt>
      <trkpt lat="44.35908" lon="7.12752">
        <ele>2208</ele>
        <time>2024-09-13T13:01:18.000Z</time>
      </trkpt>
      <trkpt lat="44.35908" lon="7.12751">
        <ele>2208.1999511719</ele>
        <time>2024-09-13T13:01:19.000Z</time>
      </trkpt>
      <trkpt lat="44.35909" lon="7.1275">
        <ele>2208.3999023438</ele>
        <time>2024-09-13T13:01:20.000Z</time>
      </trkpt>
      <trkpt lat="44.35909" lon="7.12749">
        <ele>2208.6000976562</ele>
        <time>2024-09-13T13:01:21.000Z</time>
      </trkpt>
      <trkpt lat="44.35909" lon="7.12749">
        <ele>2208.8000488281</ele>
        <time>2024-09-13T13:01:22.000Z</time>
      </trkpt>
      <trkpt lat="44.35909" lon="7.12749">
        <ele>2209.1999511719</ele>
        <time>2024-09-13T13:01:23.000Z</time>
      </trkpt>
      <trkpt lat="44.3591" lon="7.12748">
        <ele>2209.6000976562</ele>
        <time>2024-09-13T13:01:24.000Z</time>
      </trkpt>
      <trkpt lat="44.3591" lon="7.12747">
        <ele>2209.6000976562</ele>
        <time>2024-09-13T13:01:25.000Z</time>
      </trkpt>
      <trkpt lat="44.35911" lon="7.12746">
        <ele>2209.8000488281</ele>
        <time>2024-09-13T13:01:26.000Z</time>
      </trkpt>
      <trkpt lat="44.35911" lon="7.12745">
        <ele>2209.8000488281</ele>
        <time>2024-09-13T13:01:27.000Z</time>
      </trkpt>
      <trkpt lat="44.35912" lon="7.12744">
        <ele>2210</ele>
        <time>2024-09-13T13:01:28.000Z</time>
      </trkpt>
      <trkpt lat="44.35912" lon="7.12743">
        <ele>2210.1999511719</ele>
        <time>2024-09-13T13:01:29.000Z</time>
      </trkpt>
      <trkpt lat="44.35913" lon="7.12742">
        <ele>2210.3999023438</ele>
        <time>2024-09-13T13:01:30.000Z</time>
      </trkpt>
      <trkpt lat="44.35913" lon="7.1274">
        <ele>2210.6000976562</ele>
        <time>2024-09-13T13:01:31.000Z</time>
      </trkpt>
      <trkpt lat="44.35914" lon="7.12739">
        <ele>2210.8000488281</ele>
        <time>2024-09-13T13:01:32.000Z</time>
      </trkpt>
      <trkpt lat="44.35914" lon="7.12739">
        <ele>2211</ele>
        <time>2024-09-13T13:01:33.000Z</time>
      </trkpt>
      <trkpt lat="44.35915" lon="7.12738">
        <ele>2211</ele>
        <time>2024-09-13T13:01:34.000Z</time>
      </trkpt>
      <trkpt lat="44.35915" lon="7.12738">
        <ele>2211.1999511719</ele>
        <time>2024-09-13T13:01:35.000Z</time>
      </trkpt>
      <trkpt lat="44.35915" lon="7.12738">
        <ele>2211.3999023438</ele>
        <time>2024-09-13T13:01:37.000Z</time>
      </trkpt>
      <trkpt lat="44.35915" lon="7.12738">
        <ele>2211.6000976562</ele>
        <time>2024-09-13T13:01:38.000Z</time>
      </trkpt>
      <trkpt lat="44.35916" lon="7.12737">
        <ele>2211.6000976562</ele>
        <time>2024-09-13T13:01:39.000Z</time>
      </trkpt>
      <trkpt lat="44.35917" lon="7.12736">
        <ele>2211.6000976562</ele>
        <time>2024-09-13T13:01:40.000Z</time>
      </trkpt>
      <trkpt lat="44.35917" lon="7.12734">
        <ele>2211.8000488281</ele>
        <time>2024-09-13T13:01:41.000Z</time>
      </trkpt>
      <trkpt lat="44.35917" lon="7.12733">
        <ele>2211.8000488281</ele>
        <time>2024-09-13T13:01:42.000Z</time>
      </trkpt>
      <trkpt lat="44.35917" lon="7.12732">
        <ele>2212</ele>
        <time>2024-09-13T13:01:43.000Z</time>
      </trkpt>
      <trkpt lat="44.35917" lon="7.12732">
        <ele>2212.1999511719</ele>
        <time>2024-09-13T13:01:44.000Z</time>
      </trkpt>
      <trkpt lat="44.35915" lon="7.12731">
        <ele>2212.3999023438</ele>
        <time>2024-09-13T13:01:45.000Z</time>
      </trkpt>
      <trkpt lat="44.35914" lon="7.12731">
        <ele>2212.6000976562</ele>
        <time>2024-09-13T13:01:46.000Z</time>
      </trkpt>
      <trkpt lat="44.35913" lon="7.12731">
        <ele>2213</ele>
        <time>2024-09-13T13:01:47.000Z</time>
      </trkpt>
      <trkpt lat="44.35913" lon="7.12732">
        <ele>2213.1999511719</ele>
        <time>2024-09-13T13:01:48.000Z</time>
      </trkpt>
      <trkpt lat="44.35911" lon="7.12732">
        <ele>2213.3999023438</ele>
        <time>2024-09-13T13:01:49.000Z</time>
      </trkpt>
      <trkpt lat="44.3591" lon="7.12732">
        <ele>2213.6000976562</ele>
        <time>2024-09-13T13:01:50.000Z</time>
      </trkpt>
      <trkpt lat="44.35909" lon="7.12732">
        <ele>2213.8000488281</ele>
        <time>2024-09-13T13:01:51.000Z</time>
      </trkpt>
      <trkpt lat="44.35908" lon="7.12732">
        <ele>2214</ele>
        <time>2024-09-13T13:01:52.000Z</time>
      </trkpt>
      <trkpt lat="44.35907" lon="7.12732">
        <ele>2214.1999511719</ele>
        <time>2024-09-13T13:01:53.000Z</time>
      </trkpt>
      <trkpt lat="44.35906" lon="7.12732">
        <ele>2214.3999023438</ele>
        <time>2024-09-13T13:01:54.000Z</time>
      </trkpt>
      <trkpt lat="44.35905" lon="7.12732">
        <ele>2214.6000976562</ele>
        <time>2024-09-13T13:01:55.000Z</time>
      </trkpt>
      <trkpt lat="44.35904" lon="7.12732">
        <ele>2214.8000488281</ele>
        <time>2024-09-13T13:01:56.000Z</time>
      </trkpt>
      <trkpt lat="44.35904" lon="7.12732">
        <ele>2215</ele>
        <time>2024-09-13T13:01:57.000Z</time>
      </trkpt>
      <trkpt lat="44.35903" lon="7.12731">
        <ele>2215.1999511719</ele>
        <time>2024-09-13T13:01:58.000Z</time>
      </trkpt>
      <trkpt lat="44.35902" lon="7.12731">
        <ele>2215.3999023438</ele>
        <time>2024-09-13T13:01:59.000Z</time>
      </trkpt>
      <trkpt lat="44.35901" lon="7.12731">
        <ele>2215.6000976562</ele>
        <time>2024-09-13T13:02:00.000Z</time>
      </trkpt>
      <trkpt lat="44.359" lon="7.1273">
        <ele>2215.6000976562</ele>
        <time>2024-09-13T13:02:01.000Z</time>
      </trkpt>
      <trkpt lat="44.35899" lon="7.12731">
        <ele>2215.8000488281</ele>
        <time>2024-09-13T13:02:02.000Z</time>
      </trkpt>
      <trkpt lat="44.35897" lon="7.12731">
        <ele>2216</ele>
        <time>2024-09-13T13:02:03.000Z</time>
      </trkpt>
      <trkpt lat="44.35896" lon="7.12732">
        <ele>2216.1999511719</ele>
        <time>2024-09-13T13:02:04.000Z</time>
      </trkpt>
      <trkpt lat="44.35895" lon="7.12732">
        <ele>2216.3999023438</ele>
        <time>2024-09-13T13:02:05.000Z</time>
      </trkpt>
      <trkpt lat="44.35894" lon="7.12732">
        <ele>2216.6000976562</ele>
        <time>2024-09-13T13:02:06.000Z</time>
      </trkpt>
      <trkpt lat="44.35893" lon="7.12732">
        <ele>2216.8000488281</ele>
        <time>2024-09-13T13:02:07.000Z</time>
      </trkpt>
      <trkpt lat="44.35892" lon="7.12733">
        <ele>2217</ele>
        <time>2024-09-13T13:02:08.000Z</time>
      </trkpt>
      <trkpt lat="44.35891" lon="7.12733">
        <ele>2217.1999511719</ele>
        <time>2024-09-13T13:02:09.000Z</time>
      </trkpt>
      <trkpt lat="44.3589" lon="7.12734">
        <ele>2217.3999023438</ele>
        <time>2024-09-13T13:02:10.000Z</time>
      </trkpt>
      <trkpt lat="44.35889" lon="7.12734">
        <ele>2217.8000488281</ele>
        <time>2024-09-13T13:02:11.000Z</time>
      </trkpt>
      <trkpt lat="44.35889" lon="7.12735">
        <ele>2217.8000488281</ele>
        <time>2024-09-13T13:02:12.000Z</time>
      </trkpt>
      <trkpt lat="44.35888" lon="7.12736">
        <ele>2218.1999511719</ele>
        <time>2024-09-13T13:02:13.000Z</time>
      </trkpt>
      <trkpt lat="44.35887" lon="7.12737">
        <ele>2218.3999023438</ele>
        <time>2024-09-13T13:02:14.000Z</time>
      </trkpt>
      <trkpt lat="44.35886" lon="7.12738">
        <ele>2218.3999023438</ele>
        <time>2024-09-13T13:02:15.000Z</time>
      </trkpt>
      <trkpt lat="44.35885" lon="7.12738">
        <ele>2218.6000976562</ele>
        <time>2024-09-13T13:02:16.000Z</time>
      </trkpt>
      <trkpt lat="44.35884" lon="7.12738">
        <ele>2218.8000488281</ele>
        <time>2024-09-13T13:02:17.000Z</time>
      </trkpt>
      <trkpt lat="44.35883" lon="7.12739">
        <ele>2218.8000488281</ele>
        <time>2024-09-13T13:02:18.000Z</time>
      </trkpt>
      <trkpt lat="44.35883" lon="7.1274">
        <ele>2219</ele>
        <time>2024-09-13T13:02:19.000Z</time>
      </trkpt>
      <trkpt lat="44.35882" lon="7.12741">
        <ele>2219.1999511719</ele>
        <time>2024-09-13T13:02:20.000Z</time>
      </trkpt>
      <trkpt lat="44.35881" lon="7.12742">
        <ele>2219.3999023438</ele>
        <time>2024-09-13T13:02:21.000Z</time>
      </trkpt>
      <trkpt lat="44.3588" lon="7.12743">
        <ele>2219.6000976562</ele>
        <time>2024-09-13T13:02:22.000Z</time>
      </trkpt>
      <trkpt lat="44.3588" lon="7.12744">
        <ele>2219.6000976562</ele>
        <time>2024-09-13T13:02:23.000Z</time>
      </trkpt>
      <trkpt lat="44.3588" lon="7.12745">
        <ele>2219.8000488281</ele>
        <time>2024-09-13T13:02:24.000Z</time>
      </trkpt>
      <trkpt lat="44.35879" lon="7.12746">
        <ele>2220</ele>
        <time>2024-09-13T13:02:25.000Z</time>
      </trkpt>
      <trkpt lat="44.35878" lon="7.12747">
        <ele>2220.1999511719</ele>
        <time>2024-09-13T13:02:26.000Z</time>
      </trkpt>
      <trkpt lat="44.35878" lon="7.12748">
        <ele>2220.3999023438</ele>
        <time>2024-09-13T13:02:27.000Z</time>
      </trkpt>
      <trkpt lat="44.35877" lon="7.12749">
        <ele>2220.3999023438</ele>
        <time>2024-09-13T13:02:28.000Z</time>
      </trkpt>
      <trkpt lat="44.35876" lon="7.1275">
        <ele>2220.6000976562</ele>
        <time>2024-09-13T13:02:29.000Z</time>
      </trkpt>
      <trkpt lat="44.35876" lon="7.12751">
        <ele>2220.8000488281</ele>
        <time>2024-09-13T13:02:30.000Z</time>
      </trkpt>
      <trkpt lat="44.35875" lon="7.12752">
        <ele>2221</ele>
        <time>2024-09-13T13:02:31.000Z</time>
      </trkpt>
      <trkpt lat="44.35875" lon="7.12753">
        <ele>2221</ele>
        <time>2024-09-13T13:02:32.000Z</time>
      </trkpt>
      <trkpt lat="44.35874" lon="7.12754">
        <ele>2221.1999511719</ele>
        <time>2024-09-13T13:02:33.000Z</time>
      </trkpt>
      <trkpt lat="44.35873" lon="7.12755">
        <ele>2221.3999023438</ele>
        <time>2024-09-13T13:02:34.000Z</time>
      </trkpt>
      <trkpt lat="44.35872" lon="7.12756">
        <ele>2221.6000976562</ele>
        <time>2024-09-13T13:02:35.000Z</time>
      </trkpt>
      <trkpt lat="44.35871" lon="7.12757">
        <ele>2221.8000488281</ele>
        <time>2024-09-13T13:02:36.000Z</time>
      </trkpt>
      <trkpt lat="44.3587" lon="7.12758">
        <ele>2221.8000488281</ele>
        <time>2024-09-13T13:02:37.000Z</time>
      </trkpt>
      <trkpt lat="44.35869" lon="7.12759">
        <ele>2222</ele>
        <time>2024-09-13T13:02:38.000Z</time>
      </trkpt>
      <trkpt lat="44.35868" lon="7.12759">
        <ele>2222.3999023438</ele>
        <time>2024-09-13T13:02:39.000Z</time>
      </trkpt>
      <trkpt lat="44.35867" lon="7.12759">
        <ele>2222.6000976562</ele>
        <time>2024-09-13T13:02:40.000Z</time>
      </trkpt>
      <trkpt lat="44.35866" lon="7.12759">
        <ele>2222.6000976562</ele>
        <time>2024-09-13T13:02:41.000Z</time>
      </trkpt>
      <trkpt lat="44.35865" lon="7.12759">
        <ele>2222.8000488281</ele>
        <time>2024-09-13T13:02:42.000Z</time>
      </trkpt>
      <trkpt lat="44.35864" lon="7.12758">
        <ele>2222.8000488281</ele>
        <time>2024-09-13T13:02:43.000Z</time>
      </trkpt>
      <trkpt lat="44.35863" lon="7.12758">
        <ele>2223.1999511719</ele>
        <time>2024-09-13T13:02:44.000Z</time>
      </trkpt>
      <trkpt lat="44.35862" lon="7.12758">
        <ele>2223.3999023438</ele>
        <time>2024-09-13T13:02:45.000Z</time>
      </trkpt>
      <trkpt lat="44.35861" lon="7.12758">
        <ele>2223.6000976562</ele>
        <time>2024-09-13T13:02:46.000Z</time>
      </trkpt>
      <trkpt lat="44.35859" lon="7.12758">
        <ele>2223.8000488281</ele>
        <time>2024-09-13T13:02:47.000Z</time>
      </trkpt>
      <trkpt lat="44.35858" lon="7.12758">
        <ele>2224</ele>
        <time>2024-09-13T13:02:48.000Z</time>
      </trkpt>
      <trkpt lat="44.35856" lon="7.12758">
        <ele>2224.1999511719</ele>
        <time>2024-09-13T13:02:49.000Z</time>
      </trkpt>
      <trkpt lat="44.35855" lon="7.12758">
        <ele>2224.1999511719</ele>
        <time>2024-09-13T13:02:50.000Z</time>
      </trkpt>
      <trkpt lat="44.35854" lon="7.12758">
        <ele>2224.6000976562</ele>
        <time>2024-09-13T13:02:51.000Z</time>
      </trkpt>
      <trkpt lat="44.35853" lon="7.12757">
        <ele>2224.6000976562</ele>
        <time>2024-09-13T13:02:52.000Z</time>
      </trkpt>
      <trkpt lat="44.35852" lon="7.12758">
        <ele>2224.8000488281</ele>
        <time>2024-09-13T13:02:53.000Z</time>
      </trkpt>
      <trkpt lat="44.35851" lon="7.12757">
        <ele>2225</ele>
        <time>2024-09-13T13:02:54.000Z</time>
      </trkpt>
      <trkpt lat="44.3585" lon="7.12757">
        <ele>2225.1999511719</ele>
        <time>2024-09-13T13:02:55.000Z</time>
      </trkpt>
      <trkpt lat="44.35849" lon="7.12757">
        <ele>2225.3999023438</ele>
        <time>2024-09-13T13:02:56.000Z</time>
      </trkpt>
      <trkpt lat="44.35848" lon="7.12757">
        <ele>2225.8000488281</ele>
        <time>2024-09-13T13:02:57.000Z</time>
      </trkpt>
      <trkpt lat="44.35847" lon="7.12757">
        <ele>2226</ele>
        <time>2024-09-13T13:02:58.000Z</time>
      </trkpt>
      <trkpt lat="44.35846" lon="7.12756">
        <ele>2226.1999511719</ele>
        <time>2024-09-13T13:02:59.000Z</time>
      </trkpt>
      <trkpt lat="44.35844" lon="7.12756">
        <ele>2226.3999023438</ele>
        <time>2024-09-13T13:03:00.000Z</time>
      </trkpt>
      <trkpt lat="44.35843" lon="7.12756">
        <ele>2226.6000976562</ele>
        <time>2024-09-13T13:03:01.000Z</time>
      </trkpt>
      <trkpt lat="44.35842" lon="7.12756">
        <ele>2226.8000488281</ele>
        <time>2024-09-13T13:03:02.000Z</time>
      </trkpt>
      <trkpt lat="44.35842" lon="7.12756">
        <ele>2227</ele>
        <time>2024-09-13T13:03:03.000Z</time>
      </trkpt>
      <trkpt lat="44.35841" lon="7.12757">
        <ele>2227.1999511719</ele>
        <time>2024-09-13T13:03:04.000Z</time>
      </trkpt>
      <trkpt lat="44.35842" lon="7.12757">
        <ele>2227.3999023438</ele>
        <time>2024-09-13T13:03:05.000Z</time>
      </trkpt>
      <trkpt lat="44.35841" lon="7.12756">
        <ele>2227.6000976562</ele>
        <time>2024-09-13T13:03:06.000Z</time>
      </trkpt>
      <trkpt lat="44.35841" lon="7.12756">
        <ele>2227.8000488281</ele>
        <time>2024-09-13T13:03:07.000Z</time>
      </trkpt>
      <trkpt lat="44.35841" lon="7.12754">
        <ele>2228</ele>
        <time>2024-09-13T13:03:08.000Z</time>
      </trkpt>
      <trkpt lat="44.35842" lon="7.12753">
        <ele>2228.1999511719</ele>
        <time>2024-09-13T13:03:09.000Z</time>
      </trkpt>
      <trkpt lat="44.35844" lon="7.12752">
        <ele>2228.3999023438</ele>
        <time>2024-09-13T13:03:10.000Z</time>
      </trkpt>
      <trkpt lat="44.35844" lon="7.12751">
        <ele>2228.6000976562</ele>
        <time>2024-09-13T13:03:11.000Z</time>
      </trkpt>
      <trkpt lat="44.35845" lon="7.1275">
        <ele>2229</ele>
        <time>2024-09-13T13:03:12.000Z</time>
      </trkpt>
      <trkpt lat="44.35846" lon="7.12749">
        <ele>2229</ele>
        <time>2024-09-13T13:03:13.000Z</time>
      </trkpt>
      <trkpt lat="44.35847" lon="7.12748">
        <ele>2229.1999511719</ele>
        <time>2024-09-13T13:03:14.000Z</time>
      </trkpt>
      <trkpt lat="44.35848" lon="7.12747">
        <ele>2229.6000976562</ele>
        <time>2024-09-13T13:03:15.000Z</time>
      </trkpt>
      <trkpt lat="44.35848" lon="7.12746">
        <ele>2229.8000488281</ele>
        <time>2024-09-13T13:03:16.000Z</time>
      </trkpt>
      <trkpt lat="44.35849" lon="7.12744">
        <ele>2229.8000488281</ele>
        <time>2024-09-13T13:03:17.000Z</time>
      </trkpt>
      <trkpt lat="44.3585" lon="7.12743">
        <ele>2230</ele>
        <time>2024-09-13T13:03:18.000Z</time>
      </trkpt>
      <trkpt lat="44.35851" lon="7.12742">
        <ele>2230.1999511719</ele>
        <time>2024-09-13T13:03:19.000Z</time>
      </trkpt>
      <trkpt lat="44.35851" lon="7.12741">
        <ele>2230.1999511719</ele>
        <time>2024-09-13T13:03:20.000Z</time>
      </trkpt>
      <trkpt lat="44.35851" lon="7.1274">
        <ele>2230.1999511719</ele>
        <time>2024-09-13T13:03:21.000Z</time>
      </trkpt>
      <trkpt lat="44.3585" lon="7.1274">
        <ele>2230.1999511719</ele>
        <time>2024-09-13T13:03:22.000Z</time>
      </trkpt>
      <trkpt lat="44.35849" lon="7.12739">
        <ele>2230.6000976562</ele>
        <time>2024-09-13T13:03:23.000Z</time>
      </trkpt>
      <trkpt lat="44.35849" lon="7.12739">
        <ele>2230.6000976562</ele>
        <time>2024-09-13T13:03:24.000Z</time>
      </trkpt>
      <trkpt lat="44.35848" lon="7.12739">
        <ele>2230.8000488281</ele>
        <time>2024-09-13T13:03:25.000Z</time>
      </trkpt>
      <trkpt lat="44.35847" lon="7.12739">
        <ele>2231</ele>
        <time>2024-09-13T13:03:26.000Z</time>
      </trkpt>
      <trkpt lat="44.35847" lon="7.12739">
        <ele>2231</ele>
        <time>2024-09-13T13:03:27.000Z</time>
      </trkpt>
      <trkpt lat="44.35846" lon="7.1274">
        <ele>2231.3999023438</ele>
        <time>2024-09-13T13:03:28.000Z</time>
      </trkpt>
      <trkpt lat="44.35845" lon="7.12739">
        <ele>2231.8000488281</ele>
        <time>2024-09-13T13:03:29.000Z</time>
      </trkpt>
      <trkpt lat="44.35844" lon="7.1274">
        <ele>2231.8000488281</ele>
        <time>2024-09-13T13:03:30.000Z</time>
      </trkpt>
      <trkpt lat="44.35843" lon="7.1274">
        <ele>2232</ele>
        <time>2024-09-13T13:03:31.000Z</time>
      </trkpt>
      <trkpt lat="44.35841" lon="7.1274">
        <ele>2232.3999023438</ele>
        <time>2024-09-13T13:03:32.000Z</time>
      </trkpt>
      <trkpt lat="44.3584" lon="7.1274">
        <ele>2232.3999023438</ele>
        <time>2024-09-13T13:03:33.000Z</time>
      </trkpt>
      <trkpt lat="44.35839" lon="7.1274">
        <ele>2232.6000976562</ele>
        <time>2024-09-13T13:03:34.000Z</time>
      </trkpt>
      <trkpt lat="44.35839" lon="7.12741">
        <ele>2232.6000976562</ele>
        <time>2024-09-13T13:03:35.000Z</time>
      </trkpt>
      <trkpt lat="44.35838" lon="7.12741">
        <ele>2232.8000488281</ele>
        <time>2024-09-13T13:03:36.000Z</time>
      </trkpt>
      <trkpt lat="44.35838" lon="7.12741">
        <ele>2233</ele>
        <time>2024-09-13T13:03:37.000Z</time>
      </trkpt>
      <trkpt lat="44.35838" lon="7.1274">
        <ele>2233</ele>
        <time>2024-09-13T13:03:38.000Z</time>
      </trkpt>
      <trkpt lat="44.35839" lon="7.1274">
        <ele>2233.1999511719</ele>
        <time>2024-09-13T13:03:39.000Z</time>
      </trkpt>
      <trkpt lat="44.35839" lon="7.1274">
        <ele>2233.3999023438</ele>
        <time>2024-09-13T13:03:40.000Z</time>
      </trkpt>
      <trkpt lat="44.3584" lon="7.12739">
        <ele>2233.6000976562</ele>
        <time>2024-09-13T13:03:41.000Z</time>
      </trkpt>
      <trkpt lat="44.35841" lon="7.12738">
        <ele>2233.8000488281</ele>
        <time>2024-09-13T13:03:42.000Z</time>
      </trkpt>
      <trkpt lat="44.35843" lon="7.12737">
        <ele>2233.8000488281</ele>
        <time>2024-09-13T13:03:43.000Z</time>
      </trkpt>
      <trkpt lat="44.35844" lon="7.12736">
        <ele>2234</ele>
        <time>2024-09-13T13:03:44.000Z</time>
      </trkpt>
      <trkpt lat="44.35845" lon="7.12735">
        <ele>2234</ele>
        <time>2024-09-13T13:03:45.000Z</time>
      </trkpt>
      <trkpt lat="44.35846" lon="7.12734">
        <ele>2234</ele>
        <time>2024-09-13T13:03:46.000Z</time>
      </trkpt>
      <trkpt lat="44.35846" lon="7.12732">
        <ele>2234.1999511719</ele>
        <time>2024-09-13T13:03:47.000Z</time>
      </trkpt>
      <trkpt lat="44.35847" lon="7.12731">
        <ele>2234.1999511719</ele>
        <time>2024-09-13T13:03:48.000Z</time>
      </trkpt>
      <trkpt lat="44.35847" lon="7.12729">
        <ele>2234.3999023438</ele>
        <time>2024-09-13T13:03:49.000Z</time>
      </trkpt>
      <trkpt lat="44.35847" lon="7.12728">
        <ele>2234.6000976562</ele>
        <time>2024-09-13T13:03:50.000Z</time>
      </trkpt>
      <trkpt lat="44.35848" lon="7.12727">
        <ele>2234.8000488281</ele>
        <time>2024-09-13T13:03:51.000Z</time>
      </trkpt>
      <trkpt lat="44.35848" lon="7.12726">
        <ele>2235</ele>
        <time>2024-09-13T13:03:52.000Z</time>
      </trkpt>
      <trkpt lat="44.35847" lon="7.12725">
        <ele>2235.1999511719</ele>
        <time>2024-09-13T13:03:53.000Z</time>
      </trkpt>
      <trkpt lat="44.35848" lon="7.12724">
        <ele>2235.6000976562</ele>
        <time>2024-09-13T13:03:54.000Z</time>
      </trkpt>
      <trkpt lat="44.35848" lon="7.12723">
        <ele>2236</ele>
        <time>2024-09-13T13:03:55.000Z</time>
      </trkpt>
      <trkpt lat="44.35847" lon="7.12723">
        <ele>2236.1999511719</ele>
        <time>2024-09-13T13:03:56.000Z</time>
      </trkpt>
      <trkpt lat="44.35847" lon="7.12722">
        <ele>2236.3999023438</ele>
        <time>2024-09-13T13:03:57.000Z</time>
      </trkpt>
      <trkpt lat="44.35847" lon="7.12721">
        <ele>2236.8000488281</ele>
        <time>2024-09-13T13:03:58.000Z</time>
      </trkpt>
      <trkpt lat="44.35847" lon="7.1272">
        <ele>2237</ele>
        <time>2024-09-13T13:03:59.000Z</time>
      </trkpt>
      <trkpt lat="44.35848" lon="7.12719">
        <ele>2237.3999023438</ele>
        <time>2024-09-13T13:04:00.000Z</time>
      </trkpt>
      <trkpt lat="44.35848" lon="7.12719">
        <ele>2237.6000976562</ele>
        <time>2024-09-13T13:04:01.000Z</time>
      </trkpt>
      <trkpt lat="44.35848" lon="7.12718">
        <ele>2237.8000488281</ele>
        <time>2024-09-13T13:04:02.000Z</time>
      </trkpt>
      <trkpt lat="44.35848" lon="7.12718">
        <ele>2238.1999511719</ele>
        <time>2024-09-13T13:04:03.000Z</time>
      </trkpt>
      <trkpt lat="44.35848" lon="7.12717">
        <ele>2238.3999023438</ele>
        <time>2024-09-13T13:04:04.000Z</time>
      </trkpt>
      <trkpt lat="44.35847" lon="7.12716">
        <ele>2238.8000488281</ele>
        <time>2024-09-13T13:04:05.000Z</time>
      </trkpt>
      <trkpt lat="44.35847" lon="7.12715">
        <ele>2239.1999511719</ele>
        <time>2024-09-13T13:04:06.000Z</time>
      </trkpt>
      <trkpt lat="44.35846" lon="7.12715">
        <ele>2239.3999023438</ele>
        <time>2024-09-13T13:04:07.000Z</time>
      </trkpt>
      <trkpt lat="44.35845" lon="7.12714">
        <ele>2239.6000976562</ele>
        <time>2024-09-13T13:04:08.000Z</time>
      </trkpt>
      <trkpt lat="44.35844" lon="7.12714">
        <ele>2239.8000488281</ele>
        <time>2024-09-13T13:04:09.000Z</time>
      </trkpt>
      <trkpt lat="44.35844" lon="7.12713">
        <ele>2240</ele>
        <time>2024-09-13T13:04:10.000Z</time>
      </trkpt>
      <trkpt lat="44.35843" lon="7.12713">
        <ele>2240.1999511719</ele>
        <time>2024-09-13T13:04:11.000Z</time>
      </trkpt>
      <trkpt lat="44.35843" lon="7.12712">
        <ele>2240.1999511719</ele>
        <time>2024-09-13T13:04:12.000Z</time>
      </trkpt>
      <trkpt lat="44.35842" lon="7.12711">
        <ele>2240.3999023438</ele>
        <time>2024-09-13T13:04:13.000Z</time>
      </trkpt>
      <trkpt lat="44.35842" lon="7.12711">
        <ele>2240.3999023438</ele>
        <time>2024-09-13T13:04:14.000Z</time>
      </trkpt>
      <trkpt lat="44.35841" lon="7.1271">
        <ele>2240.6000976562</ele>
        <time>2024-09-13T13:04:15.000Z</time>
      </trkpt>
      <trkpt lat="44.35841" lon="7.1271">
        <ele>2240.6000976562</ele>
        <time>2024-09-13T13:04:16.000Z</time>
      </trkpt>
      <trkpt lat="44.3584" lon="7.12709">
        <ele>2240.8000488281</ele>
        <time>2024-09-13T13:04:17.000Z</time>
      </trkpt>
      <trkpt lat="44.35839" lon="7.12708">
        <ele>2241</ele>
        <time>2024-09-13T13:04:18.000Z</time>
      </trkpt>
      <trkpt lat="44.35839" lon="7.12707">
        <ele>2241.1999511719</ele>
        <time>2024-09-13T13:04:19.000Z</time>
      </trkpt>
      <trkpt lat="44.35838" lon="7.12706">
        <ele>2241.3999023438</ele>
        <time>2024-09-13T13:04:20.000Z</time>
      </trkpt>
      <trkpt lat="44.35838" lon="7.12705">
        <ele>2241.6000976562</ele>
        <time>2024-09-13T13:04:21.000Z</time>
      </trkpt>
      <trkpt lat="44.35837" lon="7.12705">
        <ele>2241.8000488281</ele>
        <time>2024-09-13T13:04:22.000Z</time>
      </trkpt>
      <trkpt lat="44.35836" lon="7.12706">
        <ele>2241.8000488281</ele>
        <time>2024-09-13T13:04:23.000Z</time>
      </trkpt>
      <trkpt lat="44.35836" lon="7.12705">
        <ele>2242</ele>
        <time>2024-09-13T13:04:24.000Z</time>
      </trkpt>
      <trkpt lat="44.35835" lon="7.12705">
        <ele>2242</ele>
        <time>2024-09-13T13:04:25.000Z</time>
      </trkpt>
      <trkpt lat="44.35834" lon="7.12705">
        <ele>2242.1999511719</ele>
        <time>2024-09-13T13:04:26.000Z</time>
      </trkpt>
      <trkpt lat="44.35833" lon="7.12704">
        <ele>2242.3999023438</ele>
        <time>2024-09-13T13:04:27.000Z</time>
      </trkpt>
      <trkpt lat="44.35833" lon="7.12703">
        <ele>2242.6000976562</ele>
        <time>2024-09-13T13:04:28.000Z</time>
      </trkpt>
      <trkpt lat="44.35832" lon="7.12703">
        <ele>2242.8000488281</ele>
        <time>2024-09-13T13:04:29.000Z</time>
      </trkpt>
      <trkpt lat="44.35832" lon="7.12703">
        <ele>2243</ele>
        <time>2024-09-13T13:04:30.000Z</time>
      </trkpt>
      <trkpt lat="44.35831" lon="7.12702">
        <ele>2243.1999511719</ele>
        <time>2024-09-13T13:04:31.000Z</time>
      </trkpt>
      <trkpt lat="44.35831" lon="7.12702">
        <ele>2243.1999511719</ele>
        <time>2024-09-13T13:04:32.000Z</time>
      </trkpt>
      <trkpt lat="44.35831" lon="7.12701">
        <ele>2243.3999023438</ele>
        <time>2024-09-13T13:04:33.000Z</time>
      </trkpt>
      <trkpt lat="44.35831" lon="7.127">
        <ele>2243.3999023438</ele>
        <time>2024-09-13T13:04:34.000Z</time>
      </trkpt>
      <trkpt lat="44.35831" lon="7.12699">
        <ele>2243.6000976562</ele>
        <time>2024-09-13T13:04:35.000Z</time>
      </trkpt>
      <trkpt lat="44.35831" lon="7.12698">
        <ele>2243.8000488281</ele>
        <time>2024-09-13T13:04:36.000Z</time>
      </trkpt>
      <trkpt lat="44.35832" lon="7.12697">
        <ele>2243.8000488281</ele>
        <time>2024-09-13T13:04:37.000Z</time>
      </trkpt>
      <trkpt lat="44.35832" lon="7.12697">
        <ele>2244.1999511719</ele>
        <time>2024-09-13T13:04:38.000Z</time>
      </trkpt>
      <trkpt lat="44.35832" lon="7.12695">
        <ele>2244.1999511719</ele>
        <time>2024-09-13T13:04:39.000Z</time>
      </trkpt>
      <trkpt lat="44.35832" lon="7.12694">
        <ele>2244.3999023438</ele>
        <time>2024-09-13T13:04:40.000Z</time>
      </trkpt>
      <trkpt lat="44.35832" lon="7.12693">
        <ele>2244.6000976562</ele>
        <time>2024-09-13T13:04:41.000Z</time>
      </trkpt>
      <trkpt lat="44.35832" lon="7.12692">
        <ele>2244.6000976562</ele>
        <time>2024-09-13T13:04:42.000Z</time>
      </trkpt>
      <trkpt lat="44.35832" lon="7.12691">
        <ele>2244.8000488281</ele>
        <time>2024-09-13T13:04:43.000Z</time>
      </trkpt>
      <trkpt lat="44.35832" lon="7.12689">
        <ele>2245</ele>
        <time>2024-09-13T13:04:44.000Z</time>
      </trkpt>
      <trkpt lat="44.35831" lon="7.12688">
        <ele>2245.1999511719</ele>
        <time>2024-09-13T13:04:45.000Z</time>
      </trkpt>
      <trkpt lat="44.35831" lon="7.12688">
        <ele>2245.3999023438</ele>
        <time>2024-09-13T13:04:46.000Z</time>
      </trkpt>
      <trkpt lat="44.35831" lon="7.12687">
        <ele>2245.6000976562</ele>
        <time>2024-09-13T13:04:47.000Z</time>
      </trkpt>
      <trkpt lat="44.35831" lon="7.12686">
        <ele>2245.8000488281</ele>
        <time>2024-09-13T13:04:48.000Z</time>
      </trkpt>
      <trkpt lat="44.35831" lon="7.12686">
        <ele>2246</ele>
        <time>2024-09-13T13:04:49.000Z</time>
      </trkpt>
      <trkpt lat="44.35831" lon="7.12685">
        <ele>2246</ele>
        <time>2024-09-13T13:04:50.000Z</time>
      </trkpt>
      <trkpt lat="44.35831" lon="7.12685">
        <ele>2246.8000488281</ele>
        <time>2024-09-13T13:04:53.000Z</time>
      </trkpt>
      <trkpt lat="44.3583" lon="7.12684">
        <ele>2246.8000488281</ele>
        <time>2024-09-13T13:04:54.000Z</time>
      </trkpt>
      <trkpt lat="44.3583" lon="7.12683">
        <ele>2246.8000488281</ele>
        <time>2024-09-13T13:04:55.000Z</time>
      </trkpt>
      <trkpt lat="44.35829" lon="7.12682">
        <ele>2246.8000488281</ele>
        <time>2024-09-13T13:04:56.000Z</time>
      </trkpt>
      <trkpt lat="44.35829" lon="7.12681">
        <ele>2247</ele>
        <time>2024-09-13T13:04:57.000Z</time>
      </trkpt>
      <trkpt lat="44.35829" lon="7.12681">
        <ele>2247.3999023438</ele>
        <time>2024-09-13T13:04:58.000Z</time>
      </trkpt>
      <trkpt lat="44.35829" lon="7.1268">
        <ele>2247.6000976562</ele>
        <time>2024-09-13T13:04:59.000Z</time>
      </trkpt>
      <trkpt lat="44.35828" lon="7.12679">
        <ele>2248</ele>
        <time>2024-09-13T13:05:00.000Z</time>
      </trkpt>
      <trkpt lat="44.35828" lon="7.12679">
        <ele>2248.1999511719</ele>
        <time>2024-09-13T13:05:01.000Z</time>
      </trkpt>
      <trkpt lat="44.35828" lon="7.12677">
        <ele>2248.3999023438</ele>
        <time>2024-09-13T13:05:02.000Z</time>
      </trkpt>
      <trkpt lat="44.35827" lon="7.12676">
        <ele>2248.6000976562</ele>
        <time>2024-09-13T13:05:03.000Z</time>
      </trkpt>
      <trkpt lat="44.35827" lon="7.12675">
        <ele>2248.8000488281</ele>
        <time>2024-09-13T13:05:04.000Z</time>
      </trkpt>
      <trkpt lat="44.35826" lon="7.12675">
        <ele>2249</ele>
        <time>2024-09-13T13:05:05.000Z</time>
      </trkpt>
      <trkpt lat="44.35826" lon="7.12674">
        <ele>2249.1999511719</ele>
        <time>2024-09-13T13:05:06.000Z</time>
      </trkpt>
      <trkpt lat="44.35825" lon="7.12673">
        <ele>2249.3999023438</ele>
        <time>2024-09-13T13:05:07.000Z</time>
      </trkpt>
      <trkpt lat="44.35825" lon="7.12672">
        <ele>2249.6000976562</ele>
        <time>2024-09-13T13:05:08.000Z</time>
      </trkpt>
      <trkpt lat="44.35825" lon="7.12672">
        <ele>2249.8000488281</ele>
        <time>2024-09-13T13:05:09.000Z</time>
      </trkpt>
      <trkpt lat="44.35824" lon="7.12671">
        <ele>2250.1999511719</ele>
        <time>2024-09-13T13:05:10.000Z</time>
      </trkpt>
      <trkpt lat="44.35824" lon="7.1267">
        <ele>2250.1999511719</ele>
        <time>2024-09-13T13:05:11.000Z</time>
      </trkpt>
      <trkpt lat="44.35824" lon="7.1267">
        <ele>2250.3999023438</ele>
        <time>2024-09-13T13:05:12.000Z</time>
      </trkpt>
      <trkpt lat="44.35824" lon="7.1267">
        <ele>2251</ele>
        <time>2024-09-13T13:05:16.000Z</time>
      </trkpt>
      <trkpt lat="44.35824" lon="7.1267">
        <ele>2251</ele>
        <time>2024-09-13T13:05:17.000Z</time>
      </trkpt>
      <trkpt lat="44.35824" lon="7.12668">
        <ele>2251</ele>
        <time>2024-09-13T13:05:18.000Z</time>
      </trkpt>
      <trkpt lat="44.35824" lon="7.12667">
        <ele>2251</ele>
        <time>2024-09-13T13:05:19.000Z</time>
      </trkpt>
      <trkpt lat="44.35823" lon="7.12666">
        <ele>2251</ele>
        <time>2024-09-13T13:05:20.000Z</time>
      </trkpt>
      <trkpt lat="44.35823" lon="7.12665">
        <ele>2251.1999511719</ele>
        <time>2024-09-13T13:05:21.000Z</time>
      </trkpt>
      <trkpt lat="44.35823" lon="7.12665">
        <ele>2251.3999023438</ele>
        <time>2024-09-13T13:05:22.000Z</time>
      </trkpt>
      <trkpt lat="44.35822" lon="7.12664">
        <ele>2251.8000488281</ele>
        <time>2024-09-13T13:05:23.000Z</time>
      </trkpt>
      <trkpt lat="44.35822" lon="7.12663">
        <ele>2252</ele>
        <time>2024-09-13T13:05:24.000Z</time>
      </trkpt>
      <trkpt lat="44.35821" lon="7.12662">
        <ele>2252.3999023438</ele>
        <time>2024-09-13T13:05:25.000Z</time>
      </trkpt>
      <trkpt lat="44.35821" lon="7.12661">
        <ele>2252.3999023438</ele>
        <time>2024-09-13T13:05:26.000Z</time>
      </trkpt>
      <trkpt lat="44.3582" lon="7.1266">
        <ele>2252.8000488281</ele>
        <time>2024-09-13T13:05:27.000Z</time>
      </trkpt>
      <trkpt lat="44.3582" lon="7.12659">
        <ele>2252.8000488281</ele>
        <time>2024-09-13T13:05:28.000Z</time>
      </trkpt>
      <trkpt lat="44.35819" lon="7.12658">
        <ele>2253</ele>
        <time>2024-09-13T13:05:29.000Z</time>
      </trkpt>
      <trkpt lat="44.35819" lon="7.12657">
        <ele>2253.1999511719</ele>
        <time>2024-09-13T13:05:30.000Z</time>
      </trkpt>
      <trkpt lat="44.35818" lon="7.12656">
        <ele>2253.3999023438</ele>
        <time>2024-09-13T13:05:31.000Z</time>
      </trkpt>
      <trkpt lat="44.35818" lon="7.12655">
        <ele>2253.6000976562</ele>
        <time>2024-09-13T13:05:32.000Z</time>
      </trkpt>
      <trkpt lat="44.35818" lon="7.12654">
        <ele>2253.8000488281</ele>
        <time>2024-09-13T13:05:33.000Z</time>
      </trkpt>
      <trkpt lat="44.35818" lon="7.12653">
        <ele>2253.8000488281</ele>
        <time>2024-09-13T13:05:34.000Z</time>
      </trkpt>
      <trkpt lat="44.35817" lon="7.12651">
        <ele>2253.8000488281</ele>
        <time>2024-09-13T13:05:35.000Z</time>
      </trkpt>
      <trkpt lat="44.35817" lon="7.1265">
        <ele>2254</ele>
        <time>2024-09-13T13:05:36.000Z</time>
      </trkpt>
      <trkpt lat="44.35817" lon="7.12649">
        <ele>2254</ele>
        <time>2024-09-13T13:05:37.000Z</time>
      </trkpt>
      <trkpt lat="44.35816" lon="7.12648">
        <ele>2254.1999511719</ele>
        <time>2024-09-13T13:05:38.000Z</time>
      </trkpt>
      <trkpt lat="44.35816" lon="7.12647">
        <ele>2254.6000976562</ele>
        <time>2024-09-13T13:05:39.000Z</time>
      </trkpt>
      <trkpt lat="44.35815" lon="7.12647">
        <ele>2254.6000976562</ele>
        <time>2024-09-13T13:05:40.000Z</time>
      </trkpt>
      <trkpt lat="44.35815" lon="7.12646">
        <ele>2254.8000488281</ele>
        <time>2024-09-13T13:05:41.000Z</time>
      </trkpt>
      <trkpt lat="44.35814" lon="7.12645">
        <ele>2255</ele>
        <time>2024-09-13T13:05:42.000Z</time>
      </trkpt>
      <trkpt lat="44.35814" lon="7.12644">
        <ele>2255.3999023438</ele>
        <time>2024-09-13T13:05:43.000Z</time>
      </trkpt>
      <trkpt lat="44.35813" lon="7.12643">
        <ele>2255.3999023438</ele>
        <time>2024-09-13T13:05:44.000Z</time>
      </trkpt>
      <trkpt lat="44.35813" lon="7.12643">
        <ele>2255.6000976562</ele>
        <time>2024-09-13T13:05:45.000Z</time>
      </trkpt>
      <trkpt lat="44.35812" lon="7.12642">
        <ele>2255.8000488281</ele>
        <time>2024-09-13T13:05:46.000Z</time>
      </trkpt>
      <trkpt lat="44.35812" lon="7.12641">
        <ele>2256</ele>
        <time>2024-09-13T13:05:47.000Z</time>
      </trkpt>
      <trkpt lat="44.35811" lon="7.12639">
        <ele>2256.1999511719</ele>
        <time>2024-09-13T13:05:48.000Z</time>
      </trkpt>
      <trkpt lat="44.35811" lon="7.12638">
        <ele>2256.3999023438</ele>
        <time>2024-09-13T13:05:49.000Z</time>
      </trkpt>
      <trkpt lat="44.3581" lon="7.12638">
        <ele>2256.3999023438</ele>
        <time>2024-09-13T13:05:50.000Z</time>
      </trkpt>
      <trkpt lat="44.3581" lon="7.12636">
        <ele>2256.8000488281</ele>
        <time>2024-09-13T13:05:51.000Z</time>
      </trkpt>
      <trkpt lat="44.35809" lon="7.12635">
        <ele>2256.8000488281</ele>
        <time>2024-09-13T13:05:52.000Z</time>
      </trkpt>
      <trkpt lat="44.35808" lon="7.12635">
        <ele>2256.8000488281</ele>
        <time>2024-09-13T13:05:53.000Z</time>
      </trkpt>
      <trkpt lat="44.35808" lon="7.12634">
        <ele>2257</ele>
        <time>2024-09-13T13:05:54.000Z</time>
      </trkpt>
      <trkpt lat="44.35807" lon="7.12633">
        <ele>2257.3999023438</ele>
        <time>2024-09-13T13:05:55.000Z</time>
      </trkpt>
      <trkpt lat="44.35806" lon="7.12632">
        <ele>2257.3999023438</ele>
        <time>2024-09-13T13:05:56.000Z</time>
      </trkpt>
      <trkpt lat="44.35805" lon="7.12631">
        <ele>2257.6000976562</ele>
        <time>2024-09-13T13:05:57.000Z</time>
      </trkpt>
      <trkpt lat="44.35805" lon="7.12631">
        <ele>2257.6000976562</ele>
        <time>2024-09-13T13:05:58.000Z</time>
      </trkpt>
      <trkpt lat="44.35804" lon="7.1263">
        <ele>2257.6000976562</ele>
        <time>2024-09-13T13:05:59.000Z</time>
      </trkpt>
      <trkpt lat="44.35803" lon="7.1263">
        <ele>2257.8000488281</ele>
        <time>2024-09-13T13:06:00.000Z</time>
      </trkpt>
      <trkpt lat="44.35803" lon="7.12628">
        <ele>2258</ele>
        <time>2024-09-13T13:06:01.000Z</time>
      </trkpt>
      <trkpt lat="44.35802" lon="7.12626">
        <ele>2258.1999511719</ele>
        <time>2024-09-13T13:06:02.000Z</time>
      </trkpt>
      <trkpt lat="44.35801" lon="7.12625">
        <ele>2258.1999511719</ele>
        <time>2024-09-13T13:06:03.000Z</time>
      </trkpt>
      <trkpt lat="44.358" lon="7.12625">
        <ele>2258.3999023438</ele>
        <time>2024-09-13T13:06:04.000Z</time>
      </trkpt>
      <trkpt lat="44.35799" lon="7.12624">
        <ele>2258.6000976562</ele>
        <time>2024-09-13T13:06:05.000Z</time>
      </trkpt>
      <trkpt lat="44.358" lon="7.12624">
        <ele>2258.8000488281</ele>
        <time>2024-09-13T13:06:06.000Z</time>
      </trkpt>
      <trkpt lat="44.35799" lon="7.12622">
        <ele>2259</ele>
        <time>2024-09-13T13:06:07.000Z</time>
      </trkpt>
      <trkpt lat="44.35799" lon="7.12621">
        <ele>2259</ele>
        <time>2024-09-13T13:06:08.000Z</time>
      </trkpt>
      <trkpt lat="44.35799" lon="7.12621">
        <ele>2259.1999511719</ele>
        <time>2024-09-13T13:06:09.000Z</time>
      </trkpt>
      <trkpt lat="44.35798" lon="7.12621">
        <ele>2259.3999023438</ele>
        <time>2024-09-13T13:06:10.000Z</time>
      </trkpt>
      <trkpt lat="44.35797" lon="7.1262">
        <ele>2259.6000976562</ele>
        <time>2024-09-13T13:06:11.000Z</time>
      </trkpt>
      <trkpt lat="44.35797" lon="7.12619">
        <ele>2259.6000976562</ele>
        <time>2024-09-13T13:06:12.000Z</time>
      </trkpt>
      <trkpt lat="44.35797" lon="7.12618">
        <ele>2260</ele>
        <time>2024-09-13T13:06:13.000Z</time>
      </trkpt>
      <trkpt lat="44.35797" lon="7.12617">
        <ele>2260.1999511719</ele>
        <time>2024-09-13T13:06:14.000Z</time>
      </trkpt>
      <trkpt lat="44.35797" lon="7.12615">
        <ele>2260.3999023438</ele>
        <time>2024-09-13T13:06:15.000Z</time>
      </trkpt>
      <trkpt lat="44.35797" lon="7.12614">
        <ele>2260.3999023438</ele>
        <time>2024-09-13T13:06:16.000Z</time>
      </trkpt>
      <trkpt lat="44.35796" lon="7.12612">
        <ele>2260.6000976562</ele>
        <time>2024-09-13T13:06:17.000Z</time>
      </trkpt>
      <trkpt lat="44.35796" lon="7.12611">
        <ele>2260.6000976562</ele>
        <time>2024-09-13T13:06:18.000Z</time>
      </trkpt>
      <trkpt lat="44.35795" lon="7.12611">
        <ele>2261</ele>
        <time>2024-09-13T13:06:19.000Z</time>
      </trkpt>
      <trkpt lat="44.35795" lon="7.12611">
        <ele>2261.1999511719</ele>
        <time>2024-09-13T13:06:20.000Z</time>
      </trkpt>
      <trkpt lat="44.35794" lon="7.1261">
        <ele>2261.3999023438</ele>
        <time>2024-09-13T13:06:21.000Z</time>
      </trkpt>
      <trkpt lat="44.35793" lon="7.12609">
        <ele>2261.3999023438</ele>
        <time>2024-09-13T13:06:22.000Z</time>
      </trkpt>
      <trkpt lat="44.35792" lon="7.12609">
        <ele>2261.6000976562</ele>
        <time>2024-09-13T13:06:23.000Z</time>
      </trkpt>
      <trkpt lat="44.35791" lon="7.12608">
        <ele>2261.8000488281</ele>
        <time>2024-09-13T13:06:24.000Z</time>
      </trkpt>
      <trkpt lat="44.3579" lon="7.12608">
        <ele>2262</ele>
        <time>2024-09-13T13:06:25.000Z</time>
      </trkpt>
      <trkpt lat="44.35789" lon="7.12607">
        <ele>2262.1999511719</ele>
        <time>2024-09-13T13:06:26.000Z</time>
      </trkpt>
      <trkpt lat="44.35789" lon="7.12607">
        <ele>2262.1999511719</ele>
        <time>2024-09-13T13:06:27.000Z</time>
      </trkpt>
      <trkpt lat="44.35788" lon="7.12606">
        <ele>2262.3999023438</ele>
        <time>2024-09-13T13:06:28.000Z</time>
      </trkpt>
      <trkpt lat="44.35787" lon="7.12605">
        <ele>2262.6000976562</ele>
        <time>2024-09-13T13:06:29.000Z</time>
      </trkpt>
      <trkpt lat="44.35787" lon="7.12604">
        <ele>2262.8000488281</ele>
        <time>2024-09-13T13:06:30.000Z</time>
      </trkpt>
      <trkpt lat="44.35787" lon="7.12604">
        <ele>2263</ele>
        <time>2024-09-13T13:06:31.000Z</time>
      </trkpt>
      <trkpt lat="44.35786" lon="7.12603">
        <ele>2263.1999511719</ele>
        <time>2024-09-13T13:06:32.000Z</time>
      </trkpt>
      <trkpt lat="44.35786" lon="7.12602">
        <ele>2263.3999023438</ele>
        <time>2024-09-13T13:06:33.000Z</time>
      </trkpt>
      <trkpt lat="44.35785" lon="7.12602">
        <ele>2263.6000976562</ele>
        <time>2024-09-13T13:06:34.000Z</time>
      </trkpt>
      <trkpt lat="44.35785" lon="7.12601">
        <ele>2263.8000488281</ele>
        <time>2024-09-13T13:06:35.000Z</time>
      </trkpt>
      <trkpt lat="44.35784" lon="7.126">
        <ele>2263.8000488281</ele>
        <time>2024-09-13T13:06:36.000Z</time>
      </trkpt>
      <trkpt lat="44.35784" lon="7.126">
        <ele>2264</ele>
        <time>2024-09-13T13:06:37.000Z</time>
      </trkpt>
      <trkpt lat="44.35783" lon="7.12599">
        <ele>2264.1999511719</ele>
        <time>2024-09-13T13:06:38.000Z</time>
      </trkpt>
      <trkpt lat="44.35783" lon="7.12599">
        <ele>2264.1999511719</ele>
        <time>2024-09-13T13:06:39.000Z</time>
      </trkpt>
      <trkpt lat="44.35782" lon="7.12598">
        <ele>2264.3999023438</ele>
        <time>2024-09-13T13:06:40.000Z</time>
      </trkpt>
      <trkpt lat="44.35782" lon="7.12597">
        <ele>2264.6000976562</ele>
        <time>2024-09-13T13:06:41.000Z</time>
      </trkpt>
      <trkpt lat="44.35782" lon="7.12597">
        <ele>2264.6000976562</ele>
        <time>2024-09-13T13:06:42.000Z</time>
      </trkpt>
      <trkpt lat="44.35781" lon="7.12596">
        <ele>2265</ele>
        <time>2024-09-13T13:06:43.000Z</time>
      </trkpt>
      <trkpt lat="44.35781" lon="7.12595">
        <ele>2265.1999511719</ele>
        <time>2024-09-13T13:06:44.000Z</time>
      </trkpt>
      <trkpt lat="44.3578" lon="7.12594">
        <ele>2265.3999023438</ele>
        <time>2024-09-13T13:06:45.000Z</time>
      </trkpt>
      <trkpt lat="44.3578" lon="7.12594">
        <ele>2265.3999023438</ele>
        <time>2024-09-13T13:06:46.000Z</time>
      </trkpt>
      <trkpt lat="44.35779" lon="7.12594">
        <ele>2265.6000976562</ele>
        <time>2024-09-13T13:06:47.000Z</time>
      </trkpt>
      <trkpt lat="44.35779" lon="7.12593">
        <ele>2265.8000488281</ele>
        <time>2024-09-13T13:06:48.000Z</time>
      </trkpt>
      <trkpt lat="44.35778" lon="7.12593">
        <ele>2266</ele>
        <time>2024-09-13T13:06:49.000Z</time>
      </trkpt>
      <trkpt lat="44.35777" lon="7.12593">
        <ele>2266.1999511719</ele>
        <time>2024-09-13T13:06:50.000Z</time>
      </trkpt>
      <trkpt lat="44.35776" lon="7.12593">
        <ele>2266.3999023438</ele>
        <time>2024-09-13T13:06:51.000Z</time>
      </trkpt>
      <trkpt lat="44.35775" lon="7.12593">
        <ele>2266.6000976562</ele>
        <time>2024-09-13T13:06:52.000Z</time>
      </trkpt>
      <trkpt lat="44.35774" lon="7.12592">
        <ele>2266.6000976562</ele>
        <time>2024-09-13T13:06:53.000Z</time>
      </trkpt>
      <trkpt lat="44.35773" lon="7.12592">
        <ele>2266.8000488281</ele>
        <time>2024-09-13T13:06:54.000Z</time>
      </trkpt>
      <trkpt lat="44.35772" lon="7.12591">
        <ele>2267</ele>
        <time>2024-09-13T13:06:55.000Z</time>
      </trkpt>
      <trkpt lat="44.35771" lon="7.12591">
        <ele>2267.1999511719</ele>
        <time>2024-09-13T13:06:56.000Z</time>
      </trkpt>
      <trkpt lat="44.3577" lon="7.12591">
        <ele>2267.1999511719</ele>
        <time>2024-09-13T13:06:57.000Z</time>
      </trkpt>
      <trkpt lat="44.3577" lon="7.1259">
        <ele>2267.3999023438</ele>
        <time>2024-09-13T13:06:58.000Z</time>
      </trkpt>
      <trkpt lat="44.35769" lon="7.1259">
        <ele>2267.6000976562</ele>
        <time>2024-09-13T13:06:59.000Z</time>
      </trkpt>
      <trkpt lat="44.35768" lon="7.1259">
        <ele>2267.8000488281</ele>
        <time>2024-09-13T13:07:00.000Z</time>
      </trkpt>
      <trkpt lat="44.35767" lon="7.1259">
        <ele>2268</ele>
        <time>2024-09-13T13:07:01.000Z</time>
      </trkpt>
      <trkpt lat="44.35766" lon="7.12589">
        <ele>2268.3999023438</ele>
        <time>2024-09-13T13:07:02.000Z</time>
      </trkpt>
      <trkpt lat="44.35765" lon="7.12589">
        <ele>2268.3999023438</ele>
        <time>2024-09-13T13:07:03.000Z</time>
      </trkpt>
      <trkpt lat="44.35764" lon="7.12589">
        <ele>2268.3999023438</ele>
        <time>2024-09-13T13:07:04.000Z</time>
      </trkpt>
      <trkpt lat="44.35763" lon="7.12588">
        <ele>2268.6000976562</ele>
        <time>2024-09-13T13:07:05.000Z</time>
      </trkpt>
      <trkpt lat="44.35763" lon="7.12589">
        <ele>2268.8000488281</ele>
        <time>2024-09-13T13:07:06.000Z</time>
      </trkpt>
      <trkpt lat="44.35762" lon="7.12588">
        <ele>2268.8000488281</ele>
        <time>2024-09-13T13:07:07.000Z</time>
      </trkpt>
      <trkpt lat="44.35761" lon="7.12588">
        <ele>2269</ele>
        <time>2024-09-13T13:07:08.000Z</time>
      </trkpt>
      <trkpt lat="44.35761" lon="7.12588">
        <ele>2269.3999023438</ele>
        <time>2024-09-13T13:07:09.000Z</time>
      </trkpt>
      <trkpt lat="44.3576" lon="7.12587">
        <ele>2269.6000976562</ele>
        <time>2024-09-13T13:07:10.000Z</time>
      </trkpt>
      <trkpt lat="44.3576" lon="7.12587">
        <ele>2269.6000976562</ele>
        <time>2024-09-13T13:07:11.000Z</time>
      </trkpt>
      <trkpt lat="44.35759" lon="7.12588">
        <ele>2270</ele>
        <time>2024-09-13T13:07:12.000Z</time>
      </trkpt>
      <trkpt lat="44.35758" lon="7.12588">
        <ele>2270.1999511719</ele>
        <time>2024-09-13T13:07:13.000Z</time>
      </trkpt>
      <trkpt lat="44.35757" lon="7.12588">
        <ele>2270.1999511719</ele>
        <time>2024-09-13T13:07:14.000Z</time>
      </trkpt>
      <trkpt lat="44.35757" lon="7.12588">
        <ele>2270.1999511719</ele>
        <time>2024-09-13T13:07:15.000Z</time>
      </trkpt>
      <trkpt lat="44.35756" lon="7.12588">
        <ele>2270.6000976562</ele>
        <time>2024-09-13T13:07:16.000Z</time>
      </trkpt>
      <trkpt lat="44.35756" lon="7.12589">
        <ele>2270.8000488281</ele>
        <time>2024-09-13T13:07:17.000Z</time>
      </trkpt>
      <trkpt lat="44.35755" lon="7.12589">
        <ele>2271</ele>
        <time>2024-09-13T13:07:18.000Z</time>
      </trkpt>
      <trkpt lat="44.35754" lon="7.1259">
        <ele>2271.1999511719</ele>
        <time>2024-09-13T13:07:19.000Z</time>
      </trkpt>
      <trkpt lat="44.35753" lon="7.1259">
        <ele>2271.3999023438</ele>
        <time>2024-09-13T13:07:20.000Z</time>
      </trkpt>
      <trkpt lat="44.35752" lon="7.12591">
        <ele>2271.6000976562</ele>
        <time>2024-09-13T13:07:21.000Z</time>
      </trkpt>
      <trkpt lat="44.35752" lon="7.12591">
        <ele>2271.8000488281</ele>
        <time>2024-09-13T13:07:22.000Z</time>
      </trkpt>
      <trkpt lat="44.35751" lon="7.12591">
        <ele>2272</ele>
        <time>2024-09-13T13:07:23.000Z</time>
      </trkpt>
      <trkpt lat="44.3575" lon="7.12592">
        <ele>2272.1999511719</ele>
        <time>2024-09-13T13:07:24.000Z</time>
      </trkpt>
      <trkpt lat="44.3575" lon="7.12592">
        <ele>2272.1999511719</ele>
        <time>2024-09-13T13:07:25.000Z</time>
      </trkpt>
      <trkpt lat="44.35749" lon="7.12593">
        <ele>2272.3999023438</ele>
        <time>2024-09-13T13:07:26.000Z</time>
      </trkpt>
      <trkpt lat="44.35748" lon="7.12593">
        <ele>2272.3999023438</ele>
        <time>2024-09-13T13:07:27.000Z</time>
      </trkpt>
      <trkpt lat="44.35747" lon="7.12593">
        <ele>2272.6000976562</ele>
        <time>2024-09-13T13:07:28.000Z</time>
      </trkpt>
      <trkpt lat="44.35747" lon="7.12594">
        <ele>2272.6000976562</ele>
        <time>2024-09-13T13:07:29.000Z</time>
      </trkpt>
      <trkpt lat="44.35746" lon="7.12594">
        <ele>2272.8000488281</ele>
        <time>2024-09-13T13:07:30.000Z</time>
      </trkpt>
      <trkpt lat="44.35746" lon="7.12594">
        <ele>2273</ele>
        <time>2024-09-13T13:07:31.000Z</time>
      </trkpt>
      <trkpt lat="44.35745" lon="7.12595">
        <ele>2273.1999511719</ele>
        <time>2024-09-13T13:07:32.000Z</time>
      </trkpt>
      <trkpt lat="44.35744" lon="7.12595">
        <ele>2273.1999511719</ele>
        <time>2024-09-13T13:07:33.000Z</time>
      </trkpt>
      <trkpt lat="44.35743" lon="7.12595">
        <ele>2273.3999023438</ele>
        <time>2024-09-13T13:07:34.000Z</time>
      </trkpt>
      <trkpt lat="44.35743" lon="7.12595">
        <ele>2273.8000488281</ele>
        <time>2024-09-13T13:07:35.000Z</time>
      </trkpt>
      <trkpt lat="44.35742" lon="7.12595">
        <ele>2274</ele>
        <time>2024-09-13T13:07:36.000Z</time>
      </trkpt>
      <trkpt lat="44.35742" lon="7.12596">
        <ele>2274.1999511719</ele>
        <time>2024-09-13T13:07:37.000Z</time>
      </trkpt>
      <trkpt lat="44.35741" lon="7.12597">
        <ele>2274.3999023438</ele>
        <time>2024-09-13T13:07:38.000Z</time>
      </trkpt>
      <trkpt lat="44.35741" lon="7.12598">
        <ele>2274.6000976562</ele>
        <time>2024-09-13T13:07:39.000Z</time>
      </trkpt>
      <trkpt lat="44.3574" lon="7.12598">
        <ele>2274.8000488281</ele>
        <time>2024-09-13T13:07:40.000Z</time>
      </trkpt>
      <trkpt lat="44.35739" lon="7.12599">
        <ele>2275.1999511719</ele>
        <time>2024-09-13T13:07:41.000Z</time>
      </trkpt>
      <trkpt lat="44.35739" lon="7.126">
        <ele>2275.3999023438</ele>
        <time>2024-09-13T13:07:42.000Z</time>
      </trkpt>
      <trkpt lat="44.35738" lon="7.126">
        <ele>2275.6000976562</ele>
        <time>2024-09-13T13:07:43.000Z</time>
      </trkpt>
      <trkpt lat="44.35738" lon="7.12601">
        <ele>2275.8000488281</ele>
        <time>2024-09-13T13:07:44.000Z</time>
      </trkpt>
      <trkpt lat="44.35737" lon="7.12601">
        <ele>2276</ele>
        <time>2024-09-13T13:07:45.000Z</time>
      </trkpt>
      <trkpt lat="44.35736" lon="7.12601">
        <ele>2276.1999511719</ele>
        <time>2024-09-13T13:07:46.000Z</time>
      </trkpt>
      <trkpt lat="44.35735" lon="7.12602">
        <ele>2276.3999023438</ele>
        <time>2024-09-13T13:07:47.000Z</time>
      </trkpt>
      <trkpt lat="44.35734" lon="7.12603">
        <ele>2276.8000488281</ele>
        <time>2024-09-13T13:07:48.000Z</time>
      </trkpt>
      <trkpt lat="44.35734" lon="7.12604">
        <ele>2277</ele>
        <time>2024-09-13T13:07:49.000Z</time>
      </trkpt>
      <trkpt lat="44.35734" lon="7.12604">
        <ele>2277.1999511719</ele>
        <time>2024-09-13T13:07:50.000Z</time>
      </trkpt>
      <trkpt lat="44.35734" lon="7.12605">
        <ele>2277.3999023438</ele>
        <time>2024-09-13T13:07:51.000Z</time>
      </trkpt>
      <trkpt lat="44.35734" lon="7.12606">
        <ele>2277.6000976562</ele>
        <time>2024-09-13T13:07:52.000Z</time>
      </trkpt>
      <trkpt lat="44.35734" lon="7.12607">
        <ele>2277.8000488281</ele>
        <time>2024-09-13T13:07:53.000Z</time>
      </trkpt>
      <trkpt lat="44.35734" lon="7.12607">
        <ele>2278</ele>
        <time>2024-09-13T13:07:54.000Z</time>
      </trkpt>
      <trkpt lat="44.35734" lon="7.12607">
        <ele>2278.1999511719</ele>
        <time>2024-09-13T13:07:55.000Z</time>
      </trkpt>
      <trkpt lat="44.35734" lon="7.12608">
        <ele>2278.1999511719</ele>
        <time>2024-09-13T13:07:56.000Z</time>
      </trkpt>
      <trkpt lat="44.35733" lon="7.12609">
        <ele>2278.6000976562</ele>
        <time>2024-09-13T13:07:57.000Z</time>
      </trkpt>
      <trkpt lat="44.35733" lon="7.12609">
        <ele>2278.8000488281</ele>
        <time>2024-09-13T13:07:58.000Z</time>
      </trkpt>
      <trkpt lat="44.35732" lon="7.1261">
        <ele>2278.8000488281</ele>
        <time>2024-09-13T13:07:59.000Z</time>
      </trkpt>
      <trkpt lat="44.35732" lon="7.1261">
        <ele>2279</ele>
        <time>2024-09-13T13:08:00.000Z</time>
      </trkpt>
      <trkpt lat="44.35732" lon="7.12611">
        <ele>2279.3999023438</ele>
        <time>2024-09-13T13:08:01.000Z</time>
      </trkpt>
      <trkpt lat="44.35731" lon="7.12611">
        <ele>2279.6000976562</ele>
        <time>2024-09-13T13:08:02.000Z</time>
      </trkpt>
      <trkpt lat="44.35731" lon="7.12612">
        <ele>2279.8000488281</ele>
        <time>2024-09-13T13:08:03.000Z</time>
      </trkpt>
      <trkpt lat="44.3573" lon="7.12613">
        <ele>2280</ele>
        <time>2024-09-13T13:08:04.000Z</time>
      </trkpt>
      <trkpt lat="44.3573" lon="7.12613">
        <ele>2280.1999511719</ele>
        <time>2024-09-13T13:08:05.000Z</time>
      </trkpt>
      <trkpt lat="44.35729" lon="7.12614">
        <ele>2280.6000976562</ele>
        <time>2024-09-13T13:08:06.000Z</time>
      </trkpt>
      <trkpt lat="44.35729" lon="7.12614">
        <ele>2280.8000488281</ele>
        <time>2024-09-13T13:08:07.000Z</time>
      </trkpt>
      <trkpt lat="44.35728" lon="7.12615">
        <ele>2281</ele>
        <time>2024-09-13T13:08:08.000Z</time>
      </trkpt>
      <trkpt lat="44.35727" lon="7.12616">
        <ele>2281.3999023438</ele>
        <time>2024-09-13T13:08:09.000Z</time>
      </trkpt>
      <trkpt lat="44.35727" lon="7.12617">
        <ele>2281.6000976562</ele>
        <time>2024-09-13T13:08:10.000Z</time>
      </trkpt>
      <trkpt lat="44.35726" lon="7.12617">
        <ele>2282</ele>
        <time>2024-09-13T13:08:11.000Z</time>
      </trkpt>
      <trkpt lat="44.35726" lon="7.12617">
        <ele>2282.1999511719</ele>
        <time>2024-09-13T13:08:12.000Z</time>
      </trkpt>
      <trkpt lat="44.35726" lon="7.12618">
        <ele>2282.3999023438</ele>
        <time>2024-09-13T13:08:13.000Z</time>
      </trkpt>
      <trkpt lat="44.35725" lon="7.12619">
        <ele>2282.8000488281</ele>
        <time>2024-09-13T13:08:14.000Z</time>
      </trkpt>
      <trkpt lat="44.35724" lon="7.12619">
        <ele>2283</ele>
        <time>2024-09-13T13:08:15.000Z</time>
      </trkpt>
      <trkpt lat="44.35724" lon="7.1262">
        <ele>2283.1999511719</ele>
        <time>2024-09-13T13:08:16.000Z</time>
      </trkpt>
      <trkpt lat="44.35723" lon="7.12621">
        <ele>2283.1999511719</ele>
        <time>2024-09-13T13:08:17.000Z</time>
      </trkpt>
      <trkpt lat="44.35723" lon="7.1262">
        <ele>2283.6000976562</ele>
        <time>2024-09-13T13:08:18.000Z</time>
      </trkpt>
      <trkpt lat="44.35722" lon="7.12621">
        <ele>2283.6000976562</ele>
        <time>2024-09-13T13:08:19.000Z</time>
      </trkpt>
      <trkpt lat="44.35722" lon="7.12621">
        <ele>2283.8000488281</ele>
        <time>2024-09-13T13:08:20.000Z</time>
      </trkpt>
      <trkpt lat="44.35721" lon="7.12621">
        <ele>2284</ele>
        <time>2024-09-13T13:08:21.000Z</time>
      </trkpt>
      <trkpt lat="44.35721" lon="7.12621">
        <ele>2284.1999511719</ele>
        <time>2024-09-13T13:08:22.000Z</time>
      </trkpt>
      <trkpt lat="44.3572" lon="7.12621">
        <ele>2284.1999511719</ele>
        <time>2024-09-13T13:08:23.000Z</time>
      </trkpt>
      <trkpt lat="44.35719" lon="7.12622">
        <ele>2284.3999023438</ele>
        <time>2024-09-13T13:08:24.000Z</time>
      </trkpt>
      <trkpt lat="44.35719" lon="7.12622">
        <ele>2284.8000488281</ele>
        <time>2024-09-13T13:08:25.000Z</time>
      </trkpt>
      <trkpt lat="44.35718" lon="7.12623">
        <ele>2285</ele>
        <time>2024-09-13T13:08:26.000Z</time>
      </trkpt>
      <trkpt lat="44.35717" lon="7.12623">
        <ele>2285</ele>
        <time>2024-09-13T13:08:27.000Z</time>
      </trkpt>
      <trkpt lat="44.35717" lon="7.12624">
        <ele>2285.1999511719</ele>
        <time>2024-09-13T13:08:28.000Z</time>
      </trkpt>
      <trkpt lat="44.35716" lon="7.12624">
        <ele>2285.6000976562</ele>
        <time>2024-09-13T13:08:29.000Z</time>
      </trkpt>
      <trkpt lat="44.35715" lon="7.12624">
        <ele>2285.8000488281</ele>
        <time>2024-09-13T13:08:30.000Z</time>
      </trkpt>
      <trkpt lat="44.35714" lon="7.12624">
        <ele>2286</ele>
        <time>2024-09-13T13:08:31.000Z</time>
      </trkpt>
      <trkpt lat="44.35714" lon="7.12624">
        <ele>2286.1999511719</ele>
        <time>2024-09-13T13:08:32.000Z</time>
      </trkpt>
      <trkpt lat="44.35713" lon="7.12624">
        <ele>2286.6000976562</ele>
        <time>2024-09-13T13:08:33.000Z</time>
      </trkpt>
      <trkpt lat="44.35712" lon="7.12624">
        <ele>2286.8000488281</ele>
        <time>2024-09-13T13:08:34.000Z</time>
      </trkpt>
      <trkpt lat="44.35712" lon="7.12624">
        <ele>2287</ele>
        <time>2024-09-13T13:08:35.000Z</time>
      </trkpt>
      <trkpt lat="44.35711" lon="7.12624">
        <ele>2287</ele>
        <time>2024-09-13T13:08:36.000Z</time>
      </trkpt>
      <trkpt lat="44.3571" lon="7.12624">
        <ele>2287.1999511719</ele>
        <time>2024-09-13T13:08:37.000Z</time>
      </trkpt>
      <trkpt lat="44.35709" lon="7.12624">
        <ele>2287.3999023438</ele>
        <time>2024-09-13T13:08:38.000Z</time>
      </trkpt>
      <trkpt lat="44.35708" lon="7.12624">
        <ele>2287.6000976562</ele>
        <time>2024-09-13T13:08:39.000Z</time>
      </trkpt>
      <trkpt lat="44.35708" lon="7.12624">
        <ele>2287.8000488281</ele>
        <time>2024-09-13T13:08:40.000Z</time>
      </trkpt>
      <trkpt lat="44.35707" lon="7.12625">
        <ele>2288</ele>
        <time>2024-09-13T13:08:41.000Z</time>
      </trkpt>
      <trkpt lat="44.35706" lon="7.12625">
        <ele>2288.1999511719</ele>
        <time>2024-09-13T13:08:42.000Z</time>
      </trkpt>
      <trkpt lat="44.35705" lon="7.12625">
        <ele>2288.1999511719</ele>
        <time>2024-09-13T13:08:43.000Z</time>
      </trkpt>
      <trkpt lat="44.35705" lon="7.12624">
        <ele>2288.3999023438</ele>
        <time>2024-09-13T13:08:44.000Z</time>
      </trkpt>
      <trkpt lat="44.35704" lon="7.12624">
        <ele>2288.6000976562</ele>
        <time>2024-09-13T13:08:45.000Z</time>
      </trkpt>
      <trkpt lat="44.35704" lon="7.12624">
        <ele>2288.6000976562</ele>
        <time>2024-09-13T13:08:46.000Z</time>
      </trkpt>
      <trkpt lat="44.35703" lon="7.12624">
        <ele>2288.8000488281</ele>
        <time>2024-09-13T13:08:47.000Z</time>
      </trkpt>
      <trkpt lat="44.35703" lon="7.12624">
        <ele>2289</ele>
        <time>2024-09-13T13:08:48.000Z</time>
      </trkpt>
      <trkpt lat="44.35702" lon="7.12624">
        <ele>2289</ele>
        <time>2024-09-13T13:08:49.000Z</time>
      </trkpt>
      <trkpt lat="44.35702" lon="7.12623">
        <ele>2289.1999511719</ele>
        <time>2024-09-13T13:08:50.000Z</time>
      </trkpt>
      <trkpt lat="44.35702" lon="7.12622">
        <ele>2289.1999511719</ele>
        <time>2024-09-13T13:08:51.000Z</time>
      </trkpt>
      <trkpt lat="44.35701" lon="7.12622">
        <ele>2289.3999023438</ele>
        <time>2024-09-13T13:08:52.000Z</time>
      </trkpt>
      <trkpt lat="44.35701" lon="7.12621">
        <ele>2289.6000976562</ele>
        <time>2024-09-13T13:08:53.000Z</time>
      </trkpt>
      <trkpt lat="44.357" lon="7.12621">
        <ele>2289.8000488281</ele>
        <time>2024-09-13T13:08:54.000Z</time>
      </trkpt>
      <trkpt lat="44.35699" lon="7.12621">
        <ele>2290</ele>
        <time>2024-09-13T13:08:55.000Z</time>
      </trkpt>
      <trkpt lat="44.35699" lon="7.12621">
        <ele>2290.1999511719</ele>
        <time>2024-09-13T13:08:56.000Z</time>
      </trkpt>
      <trkpt lat="44.35699" lon="7.12621">
        <ele>2290.3999023438</ele>
        <time>2024-09-13T13:08:57.000Z</time>
      </trkpt>
      <trkpt lat="44.35698" lon="7.1262">
        <ele>2290.6000976562</ele>
        <time>2024-09-13T13:08:58.000Z</time>
      </trkpt>
      <trkpt lat="44.35697" lon="7.1262">
        <ele>2290.8000488281</ele>
        <time>2024-09-13T13:08:59.000Z</time>
      </trkpt>
      <trkpt lat="44.35697" lon="7.12619">
        <ele>2291</ele>
        <time>2024-09-13T13:09:00.000Z</time>
      </trkpt>
      <trkpt lat="44.35696" lon="7.12619">
        <ele>2291</ele>
        <time>2024-09-13T13:09:01.000Z</time>
      </trkpt>
      <trkpt lat="44.35695" lon="7.12618">
        <ele>2291.1999511719</ele>
        <time>2024-09-13T13:09:02.000Z</time>
      </trkpt>
      <trkpt lat="44.35695" lon="7.12617">
        <ele>2291.1999511719</ele>
        <time>2024-09-13T13:09:03.000Z</time>
      </trkpt>
      <trkpt lat="44.35695" lon="7.12617">
        <ele>2291.1999511719</ele>
        <time>2024-09-13T13:09:04.000Z</time>
      </trkpt>
      <trkpt lat="44.35695" lon="7.12617">
        <ele>2291.3999023438</ele>
        <time>2024-09-13T13:09:05.000Z</time>
      </trkpt>
      <trkpt lat="44.35695" lon="7.12617">
        <ele>2291.6000976562</ele>
        <time>2024-09-13T13:09:06.000Z</time>
      </trkpt>
      <trkpt lat="44.35695" lon="7.12615">
        <ele>2291.8000488281</ele>
        <time>2024-09-13T13:09:07.000Z</time>
      </trkpt>
      <trkpt lat="44.35694" lon="7.12615">
        <ele>2292</ele>
        <time>2024-09-13T13:09:08.000Z</time>
      </trkpt>
      <trkpt lat="44.35694" lon="7.12615">
        <ele>2292.1999511719</ele>
        <time>2024-09-13T13:09:09.000Z</time>
      </trkpt>
      <trkpt lat="44.35694" lon="7.12615">
        <ele>2292.3999023438</ele>
        <time>2024-09-13T13:09:10.000Z</time>
      </trkpt>
      <trkpt lat="44.35694" lon="7.12615">
        <ele>2292.3999023438</ele>
        <time>2024-09-13T13:09:11.000Z</time>
      </trkpt>
      <trkpt lat="44.35693" lon="7.12615">
        <ele>2292.6000976562</ele>
        <time>2024-09-13T13:09:12.000Z</time>
      </trkpt>
      <trkpt lat="44.35693" lon="7.12615">
        <ele>2293</ele>
        <time>2024-09-13T13:09:16.000Z</time>
      </trkpt>
      <trkpt lat="44.35693" lon="7.12615">
        <ele>2293.1999511719</ele>
        <time>2024-09-13T13:09:21.000Z</time>
      </trkpt>
      <trkpt lat="44.35693" lon="7.12615">
        <ele>2293.1999511719</ele>
        <time>2024-09-13T13:09:26.000Z</time>
      </trkpt>
      <trkpt lat="44.35693" lon="7.12615">
        <ele>2293</ele>
        <time>2024-09-13T13:09:39.000Z</time>
      </trkpt>
      <trkpt lat="44.35693" lon="7.12615">
        <ele>2293</ele>
        <time>2024-09-13T13:09:41.000Z</time>
      </trkpt>
      <trkpt lat="44.35693" lon="7.12615">
        <ele>2292.6000976562</ele>
        <time>2024-09-13T13:09:49.000Z</time>
      </trkpt>
      <trkpt lat="44.35693" lon="7.12615">
        <ele>2292.6000976562</ele>
        <time>2024-09-13T13:09:54.000Z</time>
      </trkpt>
      <trkpt lat="44.35693" lon="7.12615">
        <ele>2292.6000976562</ele>
        <time>2024-09-13T13:09:57.000Z</time>
      </trkpt>
      <trkpt lat="44.35693" lon="7.12615">
        <ele>2292.6000976562</ele>
        <time>2024-09-13T13:09:58.000Z</time>
      </trkpt>
      <trkpt lat="44.35693" lon="7.12615">
        <ele>2292.3999023438</ele>
        <time>2024-09-13T13:10:01.000Z</time>
      </trkpt>
      <trkpt lat="44.35693" lon="7.12615">
        <ele>2292.3999023438</ele>
        <time>2024-09-13T13:10:10.000Z</time>
      </trkpt>
      <trkpt lat="44.35693" lon="7.12615">
        <ele>2292.1999511719</ele>
        <time>2024-09-13T13:10:18.000Z</time>
      </trkpt>
      <trkpt lat="44.35693" lon="7.12615">
        <ele>2292.1999511719</ele>
        <time>2024-09-13T13:10:31.000Z</time>
      </trkpt>
      <trkpt lat="44.35693" lon="7.12615">
        <ele>2292.1999511719</ele>
        <time>2024-09-13T13:10:42.000Z</time>
      </trkpt>
      <trkpt lat="44.35693" lon="7.12617">
        <ele>2292.1999511719</ele>
        <time>2024-09-13T13:10:51.000Z</time>
      </trkpt>
      <trkpt lat="44.35693" lon="7.12615">
        <ele>2292.1999511719</ele>
        <time>2024-09-13T13:10:54.000Z</time>
      </trkpt>
      <trkpt lat="44.35693" lon="7.12615">
        <ele>2292</ele>
        <time>2024-09-13T13:11:00.000Z</time>
      </trkpt>
      <trkpt lat="44.35693" lon="7.12615">
        <ele>2292.1999511719</ele>
        <time>2024-09-13T13:11:07.000Z</time>
      </trkpt>
      <trkpt lat="44.35693" lon="7.12615">
        <ele>2292.1999511719</ele>
        <time>2024-09-13T13:11:16.000Z</time>
      </trkpt>
      <trkpt lat="44.35695" lon="7.12617">
        <ele>2292.1999511719</ele>
        <time>2024-09-13T13:11:29.000Z</time>
      </trkpt>
      <trkpt lat="44.35695" lon="7.12618">
        <ele>2292.1999511719</ele>
        <time>2024-09-13T13:11:45.000Z</time>
      </trkpt>
      <trkpt lat="44.35695" lon="7.12617">
        <ele>2292.1999511719</ele>
        <time>2024-09-13T13:11:52.000Z</time>
      </trkpt>
      <trkpt lat="44.35694" lon="7.12617">
        <ele>2292.1999511719</ele>
        <time>2024-09-13T13:12:00.000Z</time>
      </trkpt>
      <trkpt lat="44.35694" lon="7.12617">
        <ele>2292.1999511719</ele>
        <time>2024-09-13T13:12:12.000Z</time>
      </trkpt>
      <trkpt lat="44.35694" lon="7.12617">
        <ele>2292.1999511719</ele>
        <time>2024-09-13T13:12:26.000Z</time>
      </trkpt>
      <trkpt lat="44.35694" lon="7.12617">
        <ele>2292.1999511719</ele>
        <time>2024-09-13T13:12:29.000Z</time>
      </trkpt>
      <trkpt lat="44.35694" lon="7.12617">
        <ele>2292.1999511719</ele>
        <time>2024-09-13T13:12:32.000Z</time>
      </trkpt>
      <trkpt lat="44.35696" lon="7.12614">
        <ele>2292.1999511719</ele>
        <time>2024-09-13T13:12:40.000Z</time>
      </trkpt>
      <trkpt lat="44.35696" lon="7.12614">
        <ele>2292.1999511719</ele>
        <time>2024-09-13T13:12:44.000Z</time>
      </trkpt>
      <trkpt lat="44.35696" lon="7.12614">
        <ele>2292.1999511719</ele>
        <time>2024-09-13T13:12:47.000Z</time>
      </trkpt>
      <trkpt lat="44.35696" lon="7.12614">
        <ele>2292.1999511719</ele>
        <time>2024-09-13T13:12:49.000Z</time>
      </trkpt>
      <trkpt lat="44.35696" lon="7.12614">
        <ele>2292.1999511719</ele>
        <time>2024-09-13T13:12:58.000Z</time>
      </trkpt>
      <trkpt lat="44.35696" lon="7.12614">
        <ele>2292.1999511719</ele>
        <time>2024-09-13T13:13:01.000Z</time>
      </trkpt>
      <trkpt lat="44.35694" lon="7.12614">
        <ele>2292.1999511719</ele>
        <time>2024-09-13T13:13:22.000Z</time>
      </trkpt>
      <trkpt lat="44.35694" lon="7.12614">
        <ele>2292.1999511719</ele>
        <time>2024-09-13T13:13:29.000Z</time>
      </trkpt>
      <trkpt lat="44.35694" lon="7.12614">
        <ele>2292.1999511719</ele>
        <time>2024-09-13T13:13:36.000Z</time>
      </trkpt>
      <trkpt lat="44.35694" lon="7.12614">
        <ele>2292.1999511719</ele>
        <time>2024-09-13T13:13:44.000Z</time>
      </trkpt>
      <trkpt lat="44.35694" lon="7.12615">
        <ele>2292.1999511719</ele>
        <time>2024-09-13T13:14:01.000Z</time>
      </trkpt>
      <trkpt lat="44.35694" lon="7.12615">
        <ele>2292.1999511719</ele>
        <time>2024-09-13T13:14:03.000Z</time>
      </trkpt>
      <trkpt lat="44.35692" lon="7.12614">
        <ele>2292.1999511719</ele>
        <time>2024-09-13T13:14:16.000Z</time>
      </trkpt>
      <trkpt lat="44.3569" lon="7.12613">
        <ele>2292.1999511719</ele>
        <time>2024-09-13T13:14:19.000Z</time>
      </trkpt>
      <trkpt lat="44.3569" lon="7.12613">
        <ele>2292.1999511719</ele>
        <time>2024-09-13T13:14:20.000Z</time>
      </trkpt>
      <trkpt lat="44.3569" lon="7.12613">
        <ele>2292.6000976562</ele>
        <time>2024-09-13T13:14:22.000Z</time>
      </trkpt>
      <trkpt lat="44.3569" lon="7.12613">
        <ele>2292.8000488281</ele>
        <time>2024-09-13T13:14:23.000Z</time>
      </trkpt>
      <trkpt lat="44.3569" lon="7.12613">
        <ele>2293</ele>
        <time>2024-09-13T13:14:24.000Z</time>
      </trkpt>
      <trkpt lat="44.3569" lon="7.12613">
        <ele>2293.1999511719</ele>
        <time>2024-09-13T13:14:25.000Z</time>
      </trkpt>
      <trkpt lat="44.3569" lon="7.12613">
        <ele>2293.1999511719</ele>
        <time>2024-09-13T13:14:26.000Z</time>
      </trkpt>
      <trkpt lat="44.3569" lon="7.12613">
        <ele>2293.1999511719</ele>
        <time>2024-09-13T13:14:27.000Z</time>
      </trkpt>
      <trkpt lat="44.3569" lon="7.12613">
        <ele>2293.1999511719</ele>
        <time>2024-09-13T13:14:28.000Z</time>
      </trkpt>
      <trkpt lat="44.3569" lon="7.12613">
        <ele>2293.1999511719</ele>
        <time>2024-09-13T13:14:30.000Z</time>
      </trkpt>
      <trkpt lat="44.3569" lon="7.12613">
        <ele>2293</ele>
        <time>2024-09-13T13:14:31.000Z</time>
      </trkpt>
      <trkpt lat="44.3569" lon="7.12613">
        <ele>2293.1999511719</ele>
        <time>2024-09-13T13:14:43.000Z</time>
      </trkpt>
      <trkpt lat="44.3569" lon="7.12613">
        <ele>2293.1999511719</ele>
        <time>2024-09-13T13:14:44.000Z</time>
      </trkpt>
      <trkpt lat="44.3569" lon="7.12613">
        <ele>2293.1999511719</ele>
        <time>2024-09-13T13:14:53.000Z</time>
      </trkpt>
      <trkpt lat="44.3569" lon="7.12613">
        <ele>2293</ele>
        <time>2024-09-13T13:15:00.000Z</time>
      </trkpt>
      <trkpt lat="44.3569" lon="7.12613">
        <ele>2293</ele>
        <time>2024-09-13T13:15:04.000Z</time>
      </trkpt>
      <trkpt lat="44.3569" lon="7.12613">
        <ele>2293</ele>
        <time>2024-09-13T13:15:10.000Z</time>
      </trkpt>
      <trkpt lat="44.3569" lon="7.12613">
        <ele>2292.8000488281</ele>
        <time>2024-09-13T13:15:11.000Z</time>
      </trkpt>
      <trkpt lat="44.3569" lon="7.12613">
        <ele>2292.8000488281</ele>
        <time>2024-09-13T13:15:12.000Z</time>
      </trkpt>
      <trkpt lat="44.35691" lon="7.12614">
        <ele>2292.8000488281</ele>
        <time>2024-09-13T13:15:18.000Z</time>
      </trkpt>
      <trkpt lat="44.35691" lon="7.12614">
        <ele>2292.6000976562</ele>
        <time>2024-09-13T13:15:27.000Z</time>
      </trkpt>
      <trkpt lat="44.35687" lon="7.12618">
        <ele>2292.6000976562</ele>
        <time>2024-09-13T13:15:34.000Z</time>
      </trkpt>
      <trkpt lat="44.35686" lon="7.12618">
        <ele>2292.6000976562</ele>
        <time>2024-09-13T13:15:37.000Z</time>
      </trkpt>
      <trkpt lat="44.35688" lon="7.12615">
        <ele>2292.6000976562</ele>
        <time>2024-09-13T13:15:51.000Z</time>
      </trkpt>
      <trkpt lat="44.35688" lon="7.12615">
        <ele>2292.6000976562</ele>
        <time>2024-09-13T13:15:54.000Z</time>
      </trkpt>
      <trkpt lat="44.35688" lon="7.12615">
        <ele>2292.6000976562</ele>
        <time>2024-09-13T13:15:57.000Z</time>
      </trkpt>
      <trkpt lat="44.35688" lon="7.12615">
        <ele>2292.6000976562</ele>
        <time>2024-09-13T13:15:58.000Z</time>
      </trkpt>
      <trkpt lat="44.35688" lon="7.12614">
        <ele>2292.6000976562</ele>
        <time>2024-09-13T13:16:00.000Z</time>
      </trkpt>
      <trkpt lat="44.35685" lon="7.12611">
        <ele>2292.6000976562</ele>
        <time>2024-09-13T13:16:04.000Z</time>
      </trkpt>
      <trkpt lat="44.35685" lon="7.1261">
        <ele>2292.1999511719</ele>
        <time>2024-09-13T13:16:06.000Z</time>
      </trkpt>
      <trkpt lat="44.35687" lon="7.12607">
        <ele>2292.6000976562</ele>
        <time>2024-09-13T13:16:08.000Z</time>
      </trkpt>
      <trkpt lat="44.35687" lon="7.12607">
        <ele>2292.8000488281</ele>
        <time>2024-09-13T13:16:09.000Z</time>
      </trkpt>
      <trkpt lat="44.35688" lon="7.12606">
        <ele>2293</ele>
        <time>2024-09-13T13:16:10.000Z</time>
      </trkpt>
      <trkpt lat="44.35689" lon="7.12606">
        <ele>2293.1999511719</ele>
        <time>2024-09-13T13:16:11.000Z</time>
      </trkpt>
      <trkpt lat="44.35689" lon="7.12606">
        <ele>2293.1999511719</ele>
        <time>2024-09-13T13:16:12.000Z</time>
      </trkpt>
      <trkpt lat="44.35689" lon="7.12606">
        <ele>2294.1999511719</ele>
        <time>2024-09-13T13:16:15.000Z</time>
      </trkpt>
      <trkpt lat="44.35689" lon="7.12606">
        <ele>2294.6000976562</ele>
        <time>2024-09-13T13:16:18.000Z</time>
      </trkpt>
      <trkpt lat="44.35689" lon="7.12606">
        <ele>2294.8000488281</ele>
        <time>2024-09-13T13:16:24.000Z</time>
      </trkpt>
      <trkpt lat="44.35689" lon="7.12606">
        <ele>2294.8000488281</ele>
        <time>2024-09-13T13:16:26.000Z</time>
      </trkpt>
      <trkpt lat="44.3569" lon="7.12605">
        <ele>2294.3999023438</ele>
        <time>2024-09-13T13:16:33.000Z</time>
      </trkpt>
      <trkpt lat="44.35693" lon="7.12603">
        <ele>2295.1999511719</ele>
        <time>2024-09-13T13:16:48.000Z</time>
      </trkpt>
      <trkpt lat="44.35697" lon="7.126">
        <ele>2295.3999023438</ele>
        <time>2024-09-13T13:16:53.000Z</time>
      </trkpt>
      <trkpt lat="44.35699" lon="7.12598">
        <ele>2296</ele>
        <time>2024-09-13T13:16:56.000Z</time>
      </trkpt>
      <trkpt lat="44.35701" lon="7.12596">
        <ele>2296</ele>
        <time>2024-09-13T13:16:58.000Z</time>
      </trkpt>
      <trkpt lat="44.35703" lon="7.12594">
        <ele>2296.1999511719</ele>
        <time>2024-09-13T13:17:00.000Z</time>
      </trkpt>
      <trkpt lat="44.35704" lon="7.12593">
        <ele>2296.3999023438</ele>
        <time>2024-09-13T13:17:01.000Z</time>
      </trkpt>
      <trkpt lat="44.35705" lon="7.12592">
        <ele>2296.3999023438</ele>
        <time>2024-09-13T13:17:02.000Z</time>
      </trkpt>
      <trkpt lat="44.35705" lon="7.1259">
        <ele>2296.3999023438</ele>
        <time>2024-09-13T13:17:03.000Z</time>
      </trkpt>
      <trkpt lat="44.35704" lon="7.12587">
        <ele>2296.3999023438</ele>
        <time>2024-09-13T13:17:04.000Z</time>
      </trkpt>
      <trkpt lat="44.35703" lon="7.12586">
        <ele>2296.6000976562</ele>
        <time>2024-09-13T13:17:05.000Z</time>
      </trkpt>
      <trkpt lat="44.35702" lon="7.12585">
        <ele>2296.6000976562</ele>
        <time>2024-09-13T13:17:06.000Z</time>
      </trkpt>
      <trkpt lat="44.35701" lon="7.12584">
        <ele>2296.6000976562</ele>
        <time>2024-09-13T13:17:07.000Z</time>
      </trkpt>
      <trkpt lat="44.35701" lon="7.12583">
        <ele>2296.6000976562</ele>
        <time>2024-09-13T13:17:08.000Z</time>
      </trkpt>
      <trkpt lat="44.357" lon="7.12583">
        <ele>2296.6000976562</ele>
        <time>2024-09-13T13:17:09.000Z</time>
      </trkpt>
      <trkpt lat="44.35699" lon="7.12583">
        <ele>2297</ele>
        <time>2024-09-13T13:17:10.000Z</time>
      </trkpt>
      <trkpt lat="44.35698" lon="7.12582">
        <ele>2297.1999511719</ele>
        <time>2024-09-13T13:17:11.000Z</time>
      </trkpt>
      <trkpt lat="44.35698" lon="7.12582">
        <ele>2297.6000976562</ele>
        <time>2024-09-13T13:17:12.000Z</time>
      </trkpt>
      <trkpt lat="44.35697" lon="7.12582">
        <ele>2297.8000488281</ele>
        <time>2024-09-13T13:17:14.000Z</time>
      </trkpt>
      <trkpt lat="44.35696" lon="7.12582">
        <ele>2298.6000976562</ele>
        <time>2024-09-13T13:17:16.000Z</time>
      </trkpt>
      <trkpt lat="44.35695" lon="7.12582">
        <ele>2298.6000976562</ele>
        <time>2024-09-13T13:17:17.000Z</time>
      </trkpt>
      <trkpt lat="44.35695" lon="7.1258">
        <ele>2298.8000488281</ele>
        <time>2024-09-13T13:17:18.000Z</time>
      </trkpt>
      <trkpt lat="44.35695" lon="7.12579">
        <ele>2299</ele>
        <time>2024-09-13T13:17:19.000Z</time>
      </trkpt>
      <trkpt lat="44.35695" lon="7.12578">
        <ele>2299</ele>
        <time>2024-09-13T13:17:20.000Z</time>
      </trkpt>
      <trkpt lat="44.35695" lon="7.12576">
        <ele>2299.1999511719</ele>
        <time>2024-09-13T13:17:21.000Z</time>
      </trkpt>
      <trkpt lat="44.35694" lon="7.12575">
        <ele>2299.6000976562</ele>
        <time>2024-09-13T13:17:22.000Z</time>
      </trkpt>
      <trkpt lat="44.35694" lon="7.12574">
        <ele>2300</ele>
        <time>2024-09-13T13:17:23.000Z</time>
      </trkpt>
      <trkpt lat="44.35693" lon="7.12573">
        <ele>2300.1999511719</ele>
        <time>2024-09-13T13:17:24.000Z</time>
      </trkpt>
      <trkpt lat="44.35693" lon="7.12572">
        <ele>2300.6000976562</ele>
        <time>2024-09-13T13:17:25.000Z</time>
      </trkpt>
      <trkpt lat="44.35692" lon="7.12572">
        <ele>2300.6000976562</ele>
        <time>2024-09-13T13:17:26.000Z</time>
      </trkpt>
      <trkpt lat="44.35691" lon="7.12571">
        <ele>2300.8000488281</ele>
        <time>2024-09-13T13:17:27.000Z</time>
      </trkpt>
      <trkpt lat="44.3569" lon="7.1257">
        <ele>2300.8000488281</ele>
        <time>2024-09-13T13:17:28.000Z</time>
      </trkpt>
      <trkpt lat="44.35689" lon="7.1257">
        <ele>2301.1999511719</ele>
        <time>2024-09-13T13:17:29.000Z</time>
      </trkpt>
      <trkpt lat="44.35688" lon="7.12569">
        <ele>2301.1999511719</ele>
        <time>2024-09-13T13:17:30.000Z</time>
      </trkpt>
      <trkpt lat="44.35687" lon="7.12569">
        <ele>2301.3999023438</ele>
        <time>2024-09-13T13:17:31.000Z</time>
      </trkpt>
      <trkpt lat="44.35686" lon="7.12569">
        <ele>2301.3999023438</ele>
        <time>2024-09-13T13:17:32.000Z</time>
      </trkpt>
      <trkpt lat="44.35685" lon="7.12568">
        <ele>2301.8000488281</ele>
        <time>2024-09-13T13:17:33.000Z</time>
      </trkpt>
      <trkpt lat="44.35685" lon="7.12567">
        <ele>2301.8000488281</ele>
        <time>2024-09-13T13:17:34.000Z</time>
      </trkpt>
      <trkpt lat="44.35684" lon="7.12566">
        <ele>2302.1999511719</ele>
        <time>2024-09-13T13:17:35.000Z</time>
      </trkpt>
      <trkpt lat="44.35684" lon="7.12566">
        <ele>2302.1999511719</ele>
        <time>2024-09-13T13:17:36.000Z</time>
      </trkpt>
      <trkpt lat="44.35683" lon="7.12565">
        <ele>2302.3999023438</ele>
        <time>2024-09-13T13:17:37.000Z</time>
      </trkpt>
      <trkpt lat="44.35683" lon="7.12565">
        <ele>2302.6000976562</ele>
        <time>2024-09-13T13:17:38.000Z</time>
      </trkpt>
      <trkpt lat="44.35683" lon="7.12564">
        <ele>2302.6000976562</ele>
        <time>2024-09-13T13:17:39.000Z</time>
      </trkpt>
      <trkpt lat="44.35682" lon="7.12563">
        <ele>2303</ele>
        <time>2024-09-13T13:17:40.000Z</time>
      </trkpt>
      <trkpt lat="44.35681" lon="7.12562">
        <ele>2303.1999511719</ele>
        <time>2024-09-13T13:17:41.000Z</time>
      </trkpt>
      <trkpt lat="44.3568" lon="7.12561">
        <ele>2303.3999023438</ele>
        <time>2024-09-13T13:17:42.000Z</time>
      </trkpt>
      <trkpt lat="44.35679" lon="7.12561">
        <ele>2303.6000976562</ele>
        <time>2024-09-13T13:17:43.000Z</time>
      </trkpt>
      <trkpt lat="44.35679" lon="7.1256">
        <ele>2303.8000488281</ele>
        <time>2024-09-13T13:17:44.000Z</time>
      </trkpt>
      <trkpt lat="44.35678" lon="7.1256">
        <ele>2304.1999511719</ele>
        <time>2024-09-13T13:17:45.000Z</time>
      </trkpt>
      <trkpt lat="44.35677" lon="7.1256">
        <ele>2304.1999511719</ele>
        <time>2024-09-13T13:17:46.000Z</time>
      </trkpt>
      <trkpt lat="44.35676" lon="7.12559">
        <ele>2304.6000976562</ele>
        <time>2024-09-13T13:17:47.000Z</time>
      </trkpt>
      <trkpt lat="44.35676" lon="7.12559">
        <ele>2304.8000488281</ele>
        <time>2024-09-13T13:17:48.000Z</time>
      </trkpt>
      <trkpt lat="44.35675" lon="7.12558">
        <ele>2304.8000488281</ele>
        <time>2024-09-13T13:17:49.000Z</time>
      </trkpt>
      <trkpt lat="44.35675" lon="7.12557">
        <ele>2305.1999511719</ele>
        <time>2024-09-13T13:17:50.000Z</time>
      </trkpt>
      <trkpt lat="44.35675" lon="7.12556">
        <ele>2305.1999511719</ele>
        <time>2024-09-13T13:17:51.000Z</time>
      </trkpt>
      <trkpt lat="44.35675" lon="7.12555">
        <ele>2305.3999023438</ele>
        <time>2024-09-13T13:17:52.000Z</time>
      </trkpt>
      <trkpt lat="44.35675" lon="7.12554">
        <ele>2305.6000976562</ele>
        <time>2024-09-13T13:17:53.000Z</time>
      </trkpt>
      <trkpt lat="44.35674" lon="7.12553">
        <ele>2305.6000976562</ele>
        <time>2024-09-13T13:17:54.000Z</time>
      </trkpt>
      <trkpt lat="44.35674" lon="7.12552">
        <ele>2305.8000488281</ele>
        <time>2024-09-13T13:17:55.000Z</time>
      </trkpt>
      <trkpt lat="44.35674" lon="7.12551">
        <ele>2306</ele>
        <time>2024-09-13T13:17:56.000Z</time>
      </trkpt>
      <trkpt lat="44.35673" lon="7.1255">
        <ele>2306</ele>
        <time>2024-09-13T13:17:57.000Z</time>
      </trkpt>
      <trkpt lat="44.35672" lon="7.12549">
        <ele>2306.1999511719</ele>
        <time>2024-09-13T13:17:58.000Z</time>
      </trkpt>
      <trkpt lat="44.35672" lon="7.12548">
        <ele>2306.3999023438</ele>
        <time>2024-09-13T13:17:59.000Z</time>
      </trkpt>
      <trkpt lat="44.35672" lon="7.12546">
        <ele>2306.6000976562</ele>
        <time>2024-09-13T13:18:00.000Z</time>
      </trkpt>
      <trkpt lat="44.35671" lon="7.12545">
        <ele>2306.8000488281</ele>
        <time>2024-09-13T13:18:01.000Z</time>
      </trkpt>
      <trkpt lat="44.35671" lon="7.12544">
        <ele>2307</ele>
        <time>2024-09-13T13:18:02.000Z</time>
      </trkpt>
      <trkpt lat="44.3567" lon="7.12544">
        <ele>2307</ele>
        <time>2024-09-13T13:18:03.000Z</time>
      </trkpt>
      <trkpt lat="44.3567" lon="7.12543">
        <ele>2307.1999511719</ele>
        <time>2024-09-13T13:18:04.000Z</time>
      </trkpt>
      <trkpt lat="44.3567" lon="7.12542">
        <ele>2307.3999023438</ele>
        <time>2024-09-13T13:18:05.000Z</time>
      </trkpt>
      <trkpt lat="44.35669" lon="7.12541">
        <ele>2307.6000976562</ele>
        <time>2024-09-13T13:18:06.000Z</time>
      </trkpt>
      <trkpt lat="44.35669" lon="7.1254">
        <ele>2307.6000976562</ele>
        <time>2024-09-13T13:18:07.000Z</time>
      </trkpt>
      <trkpt lat="44.35669" lon="7.12538">
        <ele>2307.8000488281</ele>
        <time>2024-09-13T13:18:08.000Z</time>
      </trkpt>
      <trkpt lat="44.35668" lon="7.12538">
        <ele>2308</ele>
        <time>2024-09-13T13:18:09.000Z</time>
      </trkpt>
      <trkpt lat="44.35668" lon="7.12537">
        <ele>2308.1999511719</ele>
        <time>2024-09-13T13:18:10.000Z</time>
      </trkpt>
      <trkpt lat="44.35668" lon="7.12536">
        <ele>2308.3999023438</ele>
        <time>2024-09-13T13:18:11.000Z</time>
      </trkpt>
      <trkpt lat="44.35668" lon="7.12535">
        <ele>2308.3999023438</ele>
        <time>2024-09-13T13:18:12.000Z</time>
      </trkpt>
      <trkpt lat="44.35668" lon="7.12533">
        <ele>2308.6000976562</ele>
        <time>2024-09-13T13:18:13.000Z</time>
      </trkpt>
      <trkpt lat="44.35667" lon="7.12532">
        <ele>2308.8000488281</ele>
        <time>2024-09-13T13:18:14.000Z</time>
      </trkpt>
      <trkpt lat="44.35667" lon="7.12531">
        <ele>2309</ele>
        <time>2024-09-13T13:18:15.000Z</time>
      </trkpt>
      <trkpt lat="44.35666" lon="7.1253">
        <ele>2309.1999511719</ele>
        <time>2024-09-13T13:18:16.000Z</time>
      </trkpt>
      <trkpt lat="44.35666" lon="7.12529">
        <ele>2309.1999511719</ele>
        <time>2024-09-13T13:18:17.000Z</time>
      </trkpt>
      <trkpt lat="44.35665" lon="7.12528">
        <ele>2309.3999023438</ele>
        <time>2024-09-13T13:18:18.000Z</time>
      </trkpt>
      <trkpt lat="44.35665" lon="7.12527">
        <ele>2309.6000976562</ele>
        <time>2024-09-13T13:18:19.000Z</time>
      </trkpt>
      <trkpt lat="44.35665" lon="7.12526">
        <ele>2309.6000976562</ele>
        <time>2024-09-13T13:18:20.000Z</time>
      </trkpt>
      <trkpt lat="44.35665" lon="7.12525">
        <ele>2310</ele>
        <time>2024-09-13T13:18:21.000Z</time>
      </trkpt>
      <trkpt lat="44.35664" lon="7.12524">
        <ele>2310</ele>
        <time>2024-09-13T13:18:22.000Z</time>
      </trkpt>
      <trkpt lat="44.35664" lon="7.12523">
        <ele>2310.1999511719</ele>
        <time>2024-09-13T13:18:23.000Z</time>
      </trkpt>
      <trkpt lat="44.35664" lon="7.12521">
        <ele>2310.1999511719</ele>
        <time>2024-09-13T13:18:24.000Z</time>
      </trkpt>
      <trkpt lat="44.35664" lon="7.1252">
        <ele>2310.6000976562</ele>
        <time>2024-09-13T13:18:25.000Z</time>
      </trkpt>
      <trkpt lat="44.35664" lon="7.1252">
        <ele>2310.6000976562</ele>
        <time>2024-09-13T13:18:26.000Z</time>
      </trkpt>
      <trkpt lat="44.35663" lon="7.1252">
        <ele>2310.8000488281</ele>
        <time>2024-09-13T13:18:27.000Z</time>
      </trkpt>
      <trkpt lat="44.35663" lon="7.12519">
        <ele>2311</ele>
        <time>2024-09-13T13:18:28.000Z</time>
      </trkpt>
      <trkpt lat="44.35662" lon="7.12518">
        <ele>2311.1999511719</ele>
        <time>2024-09-13T13:18:29.000Z</time>
      </trkpt>
      <trkpt lat="44.35662" lon="7.12517">
        <ele>2311.3999023438</ele>
        <time>2024-09-13T13:18:30.000Z</time>
      </trkpt>
      <trkpt lat="44.35662" lon="7.12517">
        <ele>2311.6000976562</ele>
        <time>2024-09-13T13:18:31.000Z</time>
      </trkpt>
      <trkpt lat="44.35662" lon="7.12516">
        <ele>2312</ele>
        <time>2024-09-13T13:18:33.000Z</time>
      </trkpt>
      <trkpt lat="44.35662" lon="7.12516">
        <ele>2312.3999023438</ele>
        <time>2024-09-13T13:18:35.000Z</time>
      </trkpt>
      <trkpt lat="44.35662" lon="7.12515">
        <ele>2312.3999023438</ele>
        <time>2024-09-13T13:18:36.000Z</time>
      </trkpt>
      <trkpt lat="44.35662" lon="7.12515">
        <ele>2312.3999023438</ele>
        <time>2024-09-13T13:18:37.000Z</time>
      </trkpt>
      <trkpt lat="44.35661" lon="7.12514">
        <ele>2312.3999023438</ele>
        <time>2024-09-13T13:18:38.000Z</time>
      </trkpt>
      <trkpt lat="44.35661" lon="7.12513">
        <ele>2312.3999023438</ele>
        <time>2024-09-13T13:18:39.000Z</time>
      </trkpt>
      <trkpt lat="44.3566" lon="7.12513">
        <ele>2312.3999023438</ele>
        <time>2024-09-13T13:18:40.000Z</time>
      </trkpt>
      <trkpt lat="44.35659" lon="7.12512">
        <ele>2312.3999023438</ele>
        <time>2024-09-13T13:18:41.000Z</time>
      </trkpt>
      <trkpt lat="44.35659" lon="7.12511">
        <ele>2312.8000488281</ele>
        <time>2024-09-13T13:18:42.000Z</time>
      </trkpt>
      <trkpt lat="44.35658" lon="7.1251">
        <ele>2312.8000488281</ele>
        <time>2024-09-13T13:18:43.000Z</time>
      </trkpt>
      <trkpt lat="44.35658" lon="7.12509">
        <ele>2313</ele>
        <time>2024-09-13T13:18:44.000Z</time>
      </trkpt>
      <trkpt lat="44.35658" lon="7.12507">
        <ele>2313.1999511719</ele>
        <time>2024-09-13T13:18:45.000Z</time>
      </trkpt>
      <trkpt lat="44.35657" lon="7.12506">
        <ele>2313.3999023438</ele>
        <time>2024-09-13T13:18:46.000Z</time>
      </trkpt>
      <trkpt lat="44.35657" lon="7.12505">
        <ele>2314</ele>
        <time>2024-09-13T13:18:47.000Z</time>
      </trkpt>
      <trkpt lat="44.35656" lon="7.12505">
        <ele>2314</ele>
        <time>2024-09-13T13:18:48.000Z</time>
      </trkpt>
      <trkpt lat="44.35655" lon="7.12504">
        <ele>2314.1999511719</ele>
        <time>2024-09-13T13:18:49.000Z</time>
      </trkpt>
      <trkpt lat="44.35655" lon="7.12503">
        <ele>2314.6000976562</ele>
        <time>2024-09-13T13:18:50.000Z</time>
      </trkpt>
      <trkpt lat="44.35654" lon="7.12501">
        <ele>2314.6000976562</ele>
        <time>2024-09-13T13:18:51.000Z</time>
      </trkpt>
      <trkpt lat="44.35653" lon="7.12501">
        <ele>2314.8000488281</ele>
        <time>2024-09-13T13:18:52.000Z</time>
      </trkpt>
      <trkpt lat="44.35653" lon="7.12499">
        <ele>2314.8000488281</ele>
        <time>2024-09-13T13:18:53.000Z</time>
      </trkpt>
      <trkpt lat="44.35652" lon="7.12498">
        <ele>2315</ele>
        <time>2024-09-13T13:18:54.000Z</time>
      </trkpt>
      <trkpt lat="44.35652" lon="7.12497">
        <ele>2315.1999511719</ele>
        <time>2024-09-13T13:18:55.000Z</time>
      </trkpt>
      <trkpt lat="44.35651" lon="7.12496">
        <ele>2315.3999023438</ele>
        <time>2024-09-13T13:18:56.000Z</time>
      </trkpt>
      <trkpt lat="44.35651" lon="7.12495">
        <ele>2315.6000976562</ele>
        <time>2024-09-13T13:18:57.000Z</time>
      </trkpt>
      <trkpt lat="44.35651" lon="7.12494">
        <ele>2315.8000488281</ele>
        <time>2024-09-13T13:18:58.000Z</time>
      </trkpt>
      <trkpt lat="44.35651" lon="7.12493">
        <ele>2316</ele>
        <time>2024-09-13T13:18:59.000Z</time>
      </trkpt>
      <trkpt lat="44.3565" lon="7.12493">
        <ele>2316</ele>
        <time>2024-09-13T13:19:00.000Z</time>
      </trkpt>
      <trkpt lat="44.3565" lon="7.12492">
        <ele>2316.1999511719</ele>
        <time>2024-09-13T13:19:01.000Z</time>
      </trkpt>
      <trkpt lat="44.3565" lon="7.12491">
        <ele>2316.3999023438</ele>
        <time>2024-09-13T13:19:02.000Z</time>
      </trkpt>
      <trkpt lat="44.3565" lon="7.1249">
        <ele>2316.6000976562</ele>
        <time>2024-09-13T13:19:03.000Z</time>
      </trkpt>
      <trkpt lat="44.3565" lon="7.12489">
        <ele>2316.8000488281</ele>
        <time>2024-09-13T13:19:04.000Z</time>
      </trkpt>
      <trkpt lat="44.35649" lon="7.12488">
        <ele>2317</ele>
        <time>2024-09-13T13:19:05.000Z</time>
      </trkpt>
      <trkpt lat="44.35649" lon="7.12487">
        <ele>2317.1999511719</ele>
        <time>2024-09-13T13:19:06.000Z</time>
      </trkpt>
      <trkpt lat="44.35648" lon="7.12486">
        <ele>2317.3999023438</ele>
        <time>2024-09-13T13:19:07.000Z</time>
      </trkpt>
      <trkpt lat="44.35648" lon="7.12485">
        <ele>2317.3999023438</ele>
        <time>2024-09-13T13:19:08.000Z</time>
      </trkpt>
      <trkpt lat="44.35648" lon="7.12484">
        <ele>2317.6000976562</ele>
        <time>2024-09-13T13:19:09.000Z</time>
      </trkpt>
      <trkpt lat="44.35648" lon="7.12483">
        <ele>2317.8000488281</ele>
        <time>2024-09-13T13:19:10.000Z</time>
      </trkpt>
      <trkpt lat="44.35647" lon="7.12482">
        <ele>2318</ele>
        <time>2024-09-13T13:19:11.000Z</time>
      </trkpt>
      <trkpt lat="44.35647" lon="7.12482">
        <ele>2318.1999511719</ele>
        <time>2024-09-13T13:19:12.000Z</time>
      </trkpt>
      <trkpt lat="44.35647" lon="7.12481">
        <ele>2318.1999511719</ele>
        <time>2024-09-13T13:19:13.000Z</time>
      </trkpt>
      <trkpt lat="44.35647" lon="7.12481">
        <ele>2318.3999023438</ele>
        <time>2024-09-13T13:19:14.000Z</time>
      </trkpt>
      <trkpt lat="44.35646" lon="7.1248">
        <ele>2318.6000976562</ele>
        <time>2024-09-13T13:19:15.000Z</time>
      </trkpt>
      <trkpt lat="44.35646" lon="7.12479">
        <ele>2318.6000976562</ele>
        <time>2024-09-13T13:19:16.000Z</time>
      </trkpt>
      <trkpt lat="44.35646" lon="7.12478">
        <ele>2318.8000488281</ele>
        <time>2024-09-13T13:19:17.000Z</time>
      </trkpt>
      <trkpt lat="44.35646" lon="7.12477">
        <ele>2319</ele>
        <time>2024-09-13T13:19:18.000Z</time>
      </trkpt>
      <trkpt lat="44.35646" lon="7.12475">
        <ele>2319.3999023438</ele>
        <time>2024-09-13T13:19:19.000Z</time>
      </trkpt>
      <trkpt lat="44.35646" lon="7.12474">
        <ele>2319.3999023438</ele>
        <time>2024-09-13T13:19:20.000Z</time>
      </trkpt>
      <trkpt lat="44.35646" lon="7.12472">
        <ele>2319.6000976562</ele>
        <time>2024-09-13T13:19:21.000Z</time>
      </trkpt>
      <trkpt lat="44.35646" lon="7.12471">
        <ele>2319.6000976562</ele>
        <time>2024-09-13T13:19:22.000Z</time>
      </trkpt>
      <trkpt lat="44.35646" lon="7.1247">
        <ele>2319.8000488281</ele>
        <time>2024-09-13T13:19:23.000Z</time>
      </trkpt>
      <trkpt lat="44.35646" lon="7.1247">
        <ele>2320</ele>
        <time>2024-09-13T13:19:24.000Z</time>
      </trkpt>
      <trkpt lat="44.35646" lon="7.12469">
        <ele>2320.1999511719</ele>
        <time>2024-09-13T13:19:25.000Z</time>
      </trkpt>
      <trkpt lat="44.35645" lon="7.12468">
        <ele>2320.1999511719</ele>
        <time>2024-09-13T13:19:26.000Z</time>
      </trkpt>
      <trkpt lat="44.35645" lon="7.12468">
        <ele>2320.3999023438</ele>
        <time>2024-09-13T13:19:27.000Z</time>
      </trkpt>
      <trkpt lat="44.35645" lon="7.12467">
        <ele>2320.3999023438</ele>
        <time>2024-09-13T13:19:28.000Z</time>
      </trkpt>
      <trkpt lat="44.35645" lon="7.12466">
        <ele>2320.6000976562</ele>
        <time>2024-09-13T13:19:29.000Z</time>
      </trkpt>
      <trkpt lat="44.35645" lon="7.12465">
        <ele>2320.6000976562</ele>
        <time>2024-09-13T13:19:30.000Z</time>
      </trkpt>
      <trkpt lat="44.35645" lon="7.12464">
        <ele>2320.8000488281</ele>
        <time>2024-09-13T13:19:31.000Z</time>
      </trkpt>
      <trkpt lat="44.35645" lon="7.12463">
        <ele>2320.8000488281</ele>
        <time>2024-09-13T13:19:32.000Z</time>
      </trkpt>
      <trkpt lat="44.35645" lon="7.12462">
        <ele>2321</ele>
        <time>2024-09-13T13:19:33.000Z</time>
      </trkpt>
      <trkpt lat="44.35644" lon="7.12461">
        <ele>2321</ele>
        <time>2024-09-13T13:19:34.000Z</time>
      </trkpt>
      <trkpt lat="44.35644" lon="7.1246">
        <ele>2321</ele>
        <time>2024-09-13T13:19:35.000Z</time>
      </trkpt>
      <trkpt lat="44.35644" lon="7.12459">
        <ele>2321.1999511719</ele>
        <time>2024-09-13T13:19:36.000Z</time>
      </trkpt>
      <trkpt lat="44.35644" lon="7.12458">
        <ele>2321.3999023438</ele>
        <time>2024-09-13T13:19:37.000Z</time>
      </trkpt>
      <trkpt lat="44.35643" lon="7.12457">
        <ele>2321.6000976562</ele>
        <time>2024-09-13T13:19:38.000Z</time>
      </trkpt>
      <trkpt lat="44.35643" lon="7.12456">
        <ele>2321.8000488281</ele>
        <time>2024-09-13T13:19:39.000Z</time>
      </trkpt>
      <trkpt lat="44.35642" lon="7.12455">
        <ele>2321.8000488281</ele>
        <time>2024-09-13T13:19:40.000Z</time>
      </trkpt>
      <trkpt lat="44.35642" lon="7.12454">
        <ele>2322</ele>
        <time>2024-09-13T13:19:41.000Z</time>
      </trkpt>
      <trkpt lat="44.35641" lon="7.12452">
        <ele>2322</ele>
        <time>2024-09-13T13:19:42.000Z</time>
      </trkpt>
      <trkpt lat="44.35641" lon="7.12451">
        <ele>2322.1999511719</ele>
        <time>2024-09-13T13:19:43.000Z</time>
      </trkpt>
      <trkpt lat="44.35641" lon="7.1245">
        <ele>2322.3999023438</ele>
        <time>2024-09-13T13:19:44.000Z</time>
      </trkpt>
      <trkpt lat="44.35641" lon="7.12449">
        <ele>2322.3999023438</ele>
        <time>2024-09-13T13:19:45.000Z</time>
      </trkpt>
      <trkpt lat="44.35641" lon="7.12448">
        <ele>2322.6000976562</ele>
        <time>2024-09-13T13:19:46.000Z</time>
      </trkpt>
      <trkpt lat="44.3564" lon="7.12447">
        <ele>2322.8000488281</ele>
        <time>2024-09-13T13:19:47.000Z</time>
      </trkpt>
      <trkpt lat="44.3564" lon="7.12447">
        <ele>2323</ele>
        <time>2024-09-13T13:19:48.000Z</time>
      </trkpt>
      <trkpt lat="44.3564" lon="7.12445">
        <ele>2323</ele>
        <time>2024-09-13T13:19:49.000Z</time>
      </trkpt>
      <trkpt lat="44.3564" lon="7.12444">
        <ele>2323.1999511719</ele>
        <time>2024-09-13T13:19:50.000Z</time>
      </trkpt>
      <trkpt lat="44.3564" lon="7.12443">
        <ele>2323.6000976562</ele>
        <time>2024-09-13T13:19:51.000Z</time>
      </trkpt>
      <trkpt lat="44.3564" lon="7.12443">
        <ele>2324</ele>
        <time>2024-09-13T13:19:52.000Z</time>
      </trkpt>
      <trkpt lat="44.3564" lon="7.12442">
        <ele>2324.1999511719</ele>
        <time>2024-09-13T13:19:53.000Z</time>
      </trkpt>
      <trkpt lat="44.3564" lon="7.12441">
        <ele>2324.3999023438</ele>
        <time>2024-09-13T13:19:54.000Z</time>
      </trkpt>
      <trkpt lat="44.35641" lon="7.12441">
        <ele>2324.3999023438</ele>
        <time>2024-09-13T13:19:55.000Z</time>
      </trkpt>
      <trkpt lat="44.3564" lon="7.1244">
        <ele>2324.6000976562</ele>
        <time>2024-09-13T13:19:56.000Z</time>
      </trkpt>
      <trkpt lat="44.3564" lon="7.1244">
        <ele>2324.8000488281</ele>
        <time>2024-09-13T13:19:57.000Z</time>
      </trkpt>
      <trkpt lat="44.3564" lon="7.1244">
        <ele>2324.8000488281</ele>
        <time>2024-09-13T13:19:58.000Z</time>
      </trkpt>
      <trkpt lat="44.3564" lon="7.12439">
        <ele>2325</ele>
        <time>2024-09-13T13:19:59.000Z</time>
      </trkpt>
      <trkpt lat="44.3564" lon="7.12437">
        <ele>2325.1999511719</ele>
        <time>2024-09-13T13:20:00.000Z</time>
      </trkpt>
      <trkpt lat="44.3564" lon="7.12436">
        <ele>2325.1999511719</ele>
        <time>2024-09-13T13:20:01.000Z</time>
      </trkpt>
      <trkpt lat="44.3564" lon="7.12435">
        <ele>2325.3999023438</ele>
        <time>2024-09-13T13:20:02.000Z</time>
      </trkpt>
      <trkpt lat="44.3564" lon="7.12433">
        <ele>2325.6000976562</ele>
        <time>2024-09-13T13:20:03.000Z</time>
      </trkpt>
      <trkpt lat="44.3564" lon="7.12432">
        <ele>2325.8000488281</ele>
        <time>2024-09-13T13:20:04.000Z</time>
      </trkpt>
      <trkpt lat="44.3564" lon="7.12431">
        <ele>2326.1999511719</ele>
        <time>2024-09-13T13:20:05.000Z</time>
      </trkpt>
      <trkpt lat="44.3564" lon="7.12429">
        <ele>2326.3999023438</ele>
        <time>2024-09-13T13:20:06.000Z</time>
      </trkpt>
      <trkpt lat="44.35641" lon="7.12427">
        <ele>2326.6000976562</ele>
        <time>2024-09-13T13:20:07.000Z</time>
      </trkpt>
      <trkpt lat="44.35641" lon="7.12425">
        <ele>2326.8000488281</ele>
        <time>2024-09-13T13:20:08.000Z</time>
      </trkpt>
      <trkpt lat="44.35641" lon="7.12424">
        <ele>2326.8000488281</ele>
        <time>2024-09-13T13:20:09.000Z</time>
      </trkpt>
      <trkpt lat="44.35641" lon="7.12423">
        <ele>2327.1999511719</ele>
        <time>2024-09-13T13:20:10.000Z</time>
      </trkpt>
      <trkpt lat="44.35641" lon="7.12422">
        <ele>2327.1999511719</ele>
        <time>2024-09-13T13:20:11.000Z</time>
      </trkpt>
      <trkpt lat="44.35641" lon="7.12421">
        <ele>2327.3999023438</ele>
        <time>2024-09-13T13:20:12.000Z</time>
      </trkpt>
      <trkpt lat="44.35641" lon="7.1242">
        <ele>2327.3999023438</ele>
        <time>2024-09-13T13:20:13.000Z</time>
      </trkpt>
      <trkpt lat="44.35641" lon="7.12419">
        <ele>2327.6000976562</ele>
        <time>2024-09-13T13:20:14.000Z</time>
      </trkpt>
      <trkpt lat="44.35641" lon="7.12419">
        <ele>2327.6000976562</ele>
        <time>2024-09-13T13:20:15.000Z</time>
      </trkpt>
      <trkpt lat="44.35641" lon="7.12418">
        <ele>2327.8000488281</ele>
        <time>2024-09-13T13:20:16.000Z</time>
      </trkpt>
      <trkpt lat="44.3564" lon="7.12417">
        <ele>2328</ele>
        <time>2024-09-13T13:20:17.000Z</time>
      </trkpt>
      <trkpt lat="44.3564" lon="7.12416">
        <ele>2328.1999511719</ele>
        <time>2024-09-13T13:20:18.000Z</time>
      </trkpt>
      <trkpt lat="44.3564" lon="7.12416">
        <ele>2328.3999023438</ele>
        <time>2024-09-13T13:20:19.000Z</time>
      </trkpt>
      <trkpt lat="44.3564" lon="7.12415">
        <ele>2328.6000976562</ele>
        <time>2024-09-13T13:20:20.000Z</time>
      </trkpt>
      <trkpt lat="44.3564" lon="7.12415">
        <ele>2328.8000488281</ele>
        <time>2024-09-13T13:20:21.000Z</time>
      </trkpt>
      <trkpt lat="44.35639" lon="7.12415">
        <ele>2329</ele>
        <time>2024-09-13T13:20:22.000Z</time>
      </trkpt>
      <trkpt lat="44.35639" lon="7.12413">
        <ele>2329.1999511719</ele>
        <time>2024-09-13T13:20:23.000Z</time>
      </trkpt>
      <trkpt lat="44.35638" lon="7.12412">
        <ele>2329.3999023438</ele>
        <time>2024-09-13T13:20:24.000Z</time>
      </trkpt>
      <trkpt lat="44.35638" lon="7.12411">
        <ele>2329.6000976562</ele>
        <time>2024-09-13T13:20:25.000Z</time>
      </trkpt>
      <trkpt lat="44.35637" lon="7.12409">
        <ele>2329.8000488281</ele>
        <time>2024-09-13T13:20:26.000Z</time>
      </trkpt>
      <trkpt lat="44.35637" lon="7.12408">
        <ele>2330</ele>
        <time>2024-09-13T13:20:27.000Z</time>
      </trkpt>
      <trkpt lat="44.35636" lon="7.12408">
        <ele>2330.1999511719</ele>
        <time>2024-09-13T13:20:28.000Z</time>
      </trkpt>
      <trkpt lat="44.35636" lon="7.12407">
        <ele>2330.6000976562</ele>
        <time>2024-09-13T13:20:29.000Z</time>
      </trkpt>
      <trkpt lat="44.35635" lon="7.12406">
        <ele>2330.6000976562</ele>
        <time>2024-09-13T13:20:30.000Z</time>
      </trkpt>
      <trkpt lat="44.35635" lon="7.12405">
        <ele>2331</ele>
        <time>2024-09-13T13:20:31.000Z</time>
      </trkpt>
      <trkpt lat="44.35635" lon="7.12404">
        <ele>2331.1999511719</ele>
        <time>2024-09-13T13:20:32.000Z</time>
      </trkpt>
      <trkpt lat="44.35634" lon="7.12403">
        <ele>2331.3999023438</ele>
        <time>2024-09-13T13:20:33.000Z</time>
      </trkpt>
      <trkpt lat="44.35634" lon="7.12402">
        <ele>2331.6000976562</ele>
        <time>2024-09-13T13:20:34.000Z</time>
      </trkpt>
      <trkpt lat="44.35634" lon="7.12401">
        <ele>2331.8000488281</ele>
        <time>2024-09-13T13:20:35.000Z</time>
      </trkpt>
      <trkpt lat="44.35634" lon="7.124">
        <ele>2331.8000488281</ele>
        <time>2024-09-13T13:20:36.000Z</time>
      </trkpt>
      <trkpt lat="44.35633" lon="7.12399">
        <ele>2332.1999511719</ele>
        <time>2024-09-13T13:20:37.000Z</time>
      </trkpt>
      <trkpt lat="44.35633" lon="7.12398">
        <ele>2332.1999511719</ele>
        <time>2024-09-13T13:20:38.000Z</time>
      </trkpt>
      <trkpt lat="44.35633" lon="7.12398">
        <ele>2332.3999023438</ele>
        <time>2024-09-13T13:20:39.000Z</time>
      </trkpt>
      <trkpt lat="44.35632" lon="7.12397">
        <ele>2332.8000488281</ele>
        <time>2024-09-13T13:20:40.000Z</time>
      </trkpt>
      <trkpt lat="44.35632" lon="7.12396">
        <ele>2332.8000488281</ele>
        <time>2024-09-13T13:20:41.000Z</time>
      </trkpt>
      <trkpt lat="44.35631" lon="7.12395">
        <ele>2333</ele>
        <time>2024-09-13T13:20:42.000Z</time>
      </trkpt>
      <trkpt lat="44.35631" lon="7.12393">
        <ele>2333.1999511719</ele>
        <time>2024-09-13T13:20:43.000Z</time>
      </trkpt>
      <trkpt lat="44.35631" lon="7.12392">
        <ele>2333.3999023438</ele>
        <time>2024-09-13T13:20:44.000Z</time>
      </trkpt>
      <trkpt lat="44.35631" lon="7.12391">
        <ele>2333.6000976562</ele>
        <time>2024-09-13T13:20:45.000Z</time>
      </trkpt>
      <trkpt lat="44.35631" lon="7.1239">
        <ele>2333.6000976562</ele>
        <time>2024-09-13T13:20:46.000Z</time>
      </trkpt>
      <trkpt lat="44.35631" lon="7.12389">
        <ele>2333.8000488281</ele>
        <time>2024-09-13T13:20:47.000Z</time>
      </trkpt>
      <trkpt lat="44.35631" lon="7.12388">
        <ele>2334.1999511719</ele>
        <time>2024-09-13T13:20:48.000Z</time>
      </trkpt>
      <trkpt lat="44.35631" lon="7.12387">
        <ele>2334.3999023438</ele>
        <time>2024-09-13T13:20:49.000Z</time>
      </trkpt>
      <trkpt lat="44.35631" lon="7.12386">
        <ele>2334.3999023438</ele>
        <time>2024-09-13T13:20:50.000Z</time>
      </trkpt>
      <trkpt lat="44.35631" lon="7.12385">
        <ele>2334.8000488281</ele>
        <time>2024-09-13T13:20:51.000Z</time>
      </trkpt>
      <trkpt lat="44.35631" lon="7.12384">
        <ele>2335</ele>
        <time>2024-09-13T13:20:52.000Z</time>
      </trkpt>
      <trkpt lat="44.35631" lon="7.12382">
        <ele>2335.1999511719</ele>
        <time>2024-09-13T13:20:53.000Z</time>
      </trkpt>
      <trkpt lat="44.35631" lon="7.12381">
        <ele>2335.3999023438</ele>
        <time>2024-09-13T13:20:54.000Z</time>
      </trkpt>
      <trkpt lat="44.35631" lon="7.12381">
        <ele>2335.8000488281</ele>
        <time>2024-09-13T13:20:55.000Z</time>
      </trkpt>
      <trkpt lat="44.35631" lon="7.12379">
        <ele>2335.8000488281</ele>
        <time>2024-09-13T13:20:56.000Z</time>
      </trkpt>
      <trkpt lat="44.35631" lon="7.12378">
        <ele>2336</ele>
        <time>2024-09-13T13:20:57.000Z</time>
      </trkpt>
      <trkpt lat="44.3563" lon="7.12378">
        <ele>2336.1999511719</ele>
        <time>2024-09-13T13:20:58.000Z</time>
      </trkpt>
      <trkpt lat="44.3563" lon="7.12377">
        <ele>2336.3999023438</ele>
        <time>2024-09-13T13:20:59.000Z</time>
      </trkpt>
      <trkpt lat="44.3563" lon="7.12376">
        <ele>2336.6000976562</ele>
        <time>2024-09-13T13:21:00.000Z</time>
      </trkpt>
      <trkpt lat="44.3563" lon="7.12375">
        <ele>2336.8000488281</ele>
        <time>2024-09-13T13:21:01.000Z</time>
      </trkpt>
      <trkpt lat="44.3563" lon="7.12374">
        <ele>2337</ele>
        <time>2024-09-13T13:21:02.000Z</time>
      </trkpt>
      <trkpt lat="44.3563" lon="7.12373">
        <ele>2337.1999511719</ele>
        <time>2024-09-13T13:21:03.000Z</time>
      </trkpt>
      <trkpt lat="44.3563" lon="7.12372">
        <ele>2337.1999511719</ele>
        <time>2024-09-13T13:21:04.000Z</time>
      </trkpt>
      <trkpt lat="44.3563" lon="7.12371">
        <ele>2337.6000976562</ele>
        <time>2024-09-13T13:21:05.000Z</time>
      </trkpt>
      <trkpt lat="44.3563" lon="7.1237">
        <ele>2337.8000488281</ele>
        <time>2024-09-13T13:21:06.000Z</time>
      </trkpt>
      <trkpt lat="44.3563" lon="7.12369">
        <ele>2338</ele>
        <time>2024-09-13T13:21:07.000Z</time>
      </trkpt>
      <trkpt lat="44.35629" lon="7.12368">
        <ele>2338</ele>
        <time>2024-09-13T13:21:08.000Z</time>
      </trkpt>
      <trkpt lat="44.35628" lon="7.12367">
        <ele>2338.1999511719</ele>
        <time>2024-09-13T13:21:09.000Z</time>
      </trkpt>
      <trkpt lat="44.35628" lon="7.12366">
        <ele>2338.1999511719</ele>
        <time>2024-09-13T13:21:10.000Z</time>
      </trkpt>
      <trkpt lat="44.35627" lon="7.12365">
        <ele>2338.3999023438</ele>
        <time>2024-09-13T13:21:11.000Z</time>
      </trkpt>
      <trkpt lat="44.35627" lon="7.12365">
        <ele>2338.6000976562</ele>
        <time>2024-09-13T13:21:12.000Z</time>
      </trkpt>
      <trkpt lat="44.35626" lon="7.12364">
        <ele>2338.8000488281</ele>
        <time>2024-09-13T13:21:13.000Z</time>
      </trkpt>
      <trkpt lat="44.35626" lon="7.12364">
        <ele>2339</ele>
        <time>2024-09-13T13:21:14.000Z</time>
      </trkpt>
      <trkpt lat="44.35625" lon="7.12363">
        <ele>2339</ele>
        <time>2024-09-13T13:21:15.000Z</time>
      </trkpt>
      <trkpt lat="44.35625" lon="7.12362">
        <ele>2339</ele>
        <time>2024-09-13T13:21:16.000Z</time>
      </trkpt>
      <trkpt lat="44.35624" lon="7.12361">
        <ele>2339.1999511719</ele>
        <time>2024-09-13T13:21:17.000Z</time>
      </trkpt>
      <trkpt lat="44.35624" lon="7.12361">
        <ele>2339.1999511719</ele>
        <time>2024-09-13T13:21:18.000Z</time>
      </trkpt>
      <trkpt lat="44.35623" lon="7.1236">
        <ele>2339.3999023438</ele>
        <time>2024-09-13T13:21:19.000Z</time>
      </trkpt>
      <trkpt lat="44.35623" lon="7.12359">
        <ele>2339.6000976562</ele>
        <time>2024-09-13T13:21:20.000Z</time>
      </trkpt>
      <trkpt lat="44.35623" lon="7.12359">
        <ele>2339.8000488281</ele>
        <time>2024-09-13T13:21:21.000Z</time>
      </trkpt>
      <trkpt lat="44.35623" lon="7.12357">
        <ele>2340</ele>
        <time>2024-09-13T13:21:22.000Z</time>
      </trkpt>
      <trkpt lat="44.35622" lon="7.12356">
        <ele>2340.1999511719</ele>
        <time>2024-09-13T13:21:23.000Z</time>
      </trkpt>
      <trkpt lat="44.35622" lon="7.12355">
        <ele>2340.1999511719</ele>
        <time>2024-09-13T13:21:24.000Z</time>
      </trkpt>
      <trkpt lat="44.35622" lon="7.12354">
        <ele>2340.3999023438</ele>
        <time>2024-09-13T13:21:25.000Z</time>
      </trkpt>
      <trkpt lat="44.35622" lon="7.12353">
        <ele>2340.3999023438</ele>
        <time>2024-09-13T13:21:26.000Z</time>
      </trkpt>
      <trkpt lat="44.35622" lon="7.12353">
        <ele>2340.8000488281</ele>
        <time>2024-09-13T13:21:27.000Z</time>
      </trkpt>
      <trkpt lat="44.35621" lon="7.12352">
        <ele>2341</ele>
        <time>2024-09-13T13:21:28.000Z</time>
      </trkpt>
      <trkpt lat="44.35621" lon="7.12351">
        <ele>2341.1999511719</ele>
        <time>2024-09-13T13:21:29.000Z</time>
      </trkpt>
      <trkpt lat="44.3562" lon="7.1235">
        <ele>2341.3999023438</ele>
        <time>2024-09-13T13:21:30.000Z</time>
      </trkpt>
      <trkpt lat="44.35619" lon="7.1235">
        <ele>2341.6000976562</ele>
        <time>2024-09-13T13:21:31.000Z</time>
      </trkpt>
      <trkpt lat="44.35619" lon="7.12349">
        <ele>2342</ele>
        <time>2024-09-13T13:21:32.000Z</time>
      </trkpt>
      <trkpt lat="44.35619" lon="7.12348">
        <ele>2342.1999511719</ele>
        <time>2024-09-13T13:21:33.000Z</time>
      </trkpt>
      <trkpt lat="44.35618" lon="7.12347">
        <ele>2342.3999023438</ele>
        <time>2024-09-13T13:21:34.000Z</time>
      </trkpt>
      <trkpt lat="44.35618" lon="7.12346">
        <ele>2342.6000976562</ele>
        <time>2024-09-13T13:21:35.000Z</time>
      </trkpt>
      <trkpt lat="44.35617" lon="7.12346">
        <ele>2342.8000488281</ele>
        <time>2024-09-13T13:21:36.000Z</time>
      </trkpt>
      <trkpt lat="44.35617" lon="7.12345">
        <ele>2343</ele>
        <time>2024-09-13T13:21:37.000Z</time>
      </trkpt>
      <trkpt lat="44.35617" lon="7.12344">
        <ele>2343</ele>
        <time>2024-09-13T13:21:38.000Z</time>
      </trkpt>
      <trkpt lat="44.35617" lon="7.12343">
        <ele>2343.1999511719</ele>
        <time>2024-09-13T13:21:39.000Z</time>
      </trkpt>
      <trkpt lat="44.35617" lon="7.12343">
        <ele>2343.3999023438</ele>
        <time>2024-09-13T13:21:40.000Z</time>
      </trkpt>
      <trkpt lat="44.35616" lon="7.12342">
        <ele>2343.6000976562</ele>
        <time>2024-09-13T13:21:41.000Z</time>
      </trkpt>
      <trkpt lat="44.35616" lon="7.12342">
        <ele>2343.8000488281</ele>
        <time>2024-09-13T13:21:42.000Z</time>
      </trkpt>
      <trkpt lat="44.35615" lon="7.12341">
        <ele>2344</ele>
        <time>2024-09-13T13:21:43.000Z</time>
      </trkpt>
      <trkpt lat="44.35615" lon="7.12341">
        <ele>2344.1999511719</ele>
        <time>2024-09-13T13:21:44.000Z</time>
      </trkpt>
      <trkpt lat="44.35614" lon="7.1234">
        <ele>2344.1999511719</ele>
        <time>2024-09-13T13:21:45.000Z</time>
      </trkpt>
      <trkpt lat="44.35614" lon="7.1234">
        <ele>2344.3999023438</ele>
        <time>2024-09-13T13:21:46.000Z</time>
      </trkpt>
      <trkpt lat="44.35613" lon="7.1234">
        <ele>2344.6000976562</ele>
        <time>2024-09-13T13:21:47.000Z</time>
      </trkpt>
      <trkpt lat="44.35613" lon="7.1234">
        <ele>2345.1999511719</ele>
        <time>2024-09-13T13:21:49.000Z</time>
      </trkpt>
      <trkpt lat="44.35613" lon="7.12339">
        <ele>2345.1999511719</ele>
        <time>2024-09-13T13:21:50.000Z</time>
      </trkpt>
      <trkpt lat="44.35612" lon="7.12338">
        <ele>2345.1999511719</ele>
        <time>2024-09-13T13:21:51.000Z</time>
      </trkpt>
      <trkpt lat="44.35612" lon="7.12337">
        <ele>2345.3999023438</ele>
        <time>2024-09-13T13:21:52.000Z</time>
      </trkpt>
      <trkpt lat="44.35612" lon="7.12336">
        <ele>2345.3999023438</ele>
        <time>2024-09-13T13:21:53.000Z</time>
      </trkpt>
      <trkpt lat="44.35612" lon="7.12335">
        <ele>2345.3999023438</ele>
        <time>2024-09-13T13:21:54.000Z</time>
      </trkpt>
      <trkpt lat="44.35612" lon="7.12334">
        <ele>2345.6000976562</ele>
        <time>2024-09-13T13:21:55.000Z</time>
      </trkpt>
      <trkpt lat="44.35612" lon="7.12333">
        <ele>2345.6000976562</ele>
        <time>2024-09-13T13:21:56.000Z</time>
      </trkpt>
      <trkpt lat="44.35612" lon="7.12331">
        <ele>2345.8000488281</ele>
        <time>2024-09-13T13:21:57.000Z</time>
      </trkpt>
      <trkpt lat="44.35611" lon="7.1233">
        <ele>2345.8000488281</ele>
        <time>2024-09-13T13:21:58.000Z</time>
      </trkpt>
      <trkpt lat="44.35611" lon="7.1233">
        <ele>2346.1999511719</ele>
        <time>2024-09-13T13:21:59.000Z</time>
      </trkpt>
      <trkpt lat="44.35611" lon="7.12329">
        <ele>2346.3999023438</ele>
        <time>2024-09-13T13:22:00.000Z</time>
      </trkpt>
      <trkpt lat="44.3561" lon="7.12329">
        <ele>2346.6000976562</ele>
        <time>2024-09-13T13:22:01.000Z</time>
      </trkpt>
      <trkpt lat="44.35609" lon="7.12328">
        <ele>2346.6000976562</ele>
        <time>2024-09-13T13:22:02.000Z</time>
      </trkpt>
      <trkpt lat="44.35609" lon="7.12327">
        <ele>2346.8000488281</ele>
        <time>2024-09-13T13:22:03.000Z</time>
      </trkpt>
      <trkpt lat="44.35609" lon="7.12327">
        <ele>2347</ele>
        <time>2024-09-13T13:22:04.000Z</time>
      </trkpt>
      <trkpt lat="44.35608" lon="7.12326">
        <ele>2347.1999511719</ele>
        <time>2024-09-13T13:22:05.000Z</time>
      </trkpt>
      <trkpt lat="44.35608" lon="7.12326">
        <ele>2347.1999511719</ele>
        <time>2024-09-13T13:22:06.000Z</time>
      </trkpt>
      <trkpt lat="44.35608" lon="7.12325">
        <ele>2347.3999023438</ele>
        <time>2024-09-13T13:22:07.000Z</time>
      </trkpt>
      <trkpt lat="44.35607" lon="7.12324">
        <ele>2347.6000976562</ele>
        <time>2024-09-13T13:22:08.000Z</time>
      </trkpt>
      <trkpt lat="44.35607" lon="7.12323">
        <ele>2348</ele>
        <time>2024-09-13T13:22:09.000Z</time>
      </trkpt>
      <trkpt lat="44.35606" lon="7.12323">
        <ele>2348.1999511719</ele>
        <time>2024-09-13T13:22:10.000Z</time>
      </trkpt>
      <trkpt lat="44.35606" lon="7.12322">
        <ele>2348.3999023438</ele>
        <time>2024-09-13T13:22:11.000Z</time>
      </trkpt>
      <trkpt lat="44.35606" lon="7.12322">
        <ele>2348.3999023438</ele>
        <time>2024-09-13T13:22:12.000Z</time>
      </trkpt>
      <trkpt lat="44.35605" lon="7.12321">
        <ele>2348.6000976562</ele>
        <time>2024-09-13T13:22:13.000Z</time>
      </trkpt>
      <trkpt lat="44.35605" lon="7.1232">
        <ele>2348.6000976562</ele>
        <time>2024-09-13T13:22:14.000Z</time>
      </trkpt>
      <trkpt lat="44.35605" lon="7.12319">
        <ele>2348.8000488281</ele>
        <time>2024-09-13T13:22:15.000Z</time>
      </trkpt>
      <trkpt lat="44.35605" lon="7.12319">
        <ele>2348.8000488281</ele>
        <time>2024-09-13T13:22:16.000Z</time>
      </trkpt>
      <trkpt lat="44.35604" lon="7.12318">
        <ele>2349</ele>
        <time>2024-09-13T13:22:17.000Z</time>
      </trkpt>
      <trkpt lat="44.35604" lon="7.12317">
        <ele>2349.1999511719</ele>
        <time>2024-09-13T13:22:18.000Z</time>
      </trkpt>
      <trkpt lat="44.35604" lon="7.12316">
        <ele>2349.1999511719</ele>
        <time>2024-09-13T13:22:19.000Z</time>
      </trkpt>
      <trkpt lat="44.35604" lon="7.12315">
        <ele>2349.3999023438</ele>
        <time>2024-09-13T13:22:20.000Z</time>
      </trkpt>
      <trkpt lat="44.35603" lon="7.12314">
        <ele>2349.6000976562</ele>
        <time>2024-09-13T13:22:21.000Z</time>
      </trkpt>
      <trkpt lat="44.35603" lon="7.12314">
        <ele>2349.8000488281</ele>
        <time>2024-09-13T13:22:22.000Z</time>
      </trkpt>
      <trkpt lat="44.35603" lon="7.12313">
        <ele>2350</ele>
        <time>2024-09-13T13:22:23.000Z</time>
      </trkpt>
      <trkpt lat="44.35603" lon="7.12313">
        <ele>2350.1999511719</ele>
        <time>2024-09-13T13:22:24.000Z</time>
      </trkpt>
      <trkpt lat="44.35603" lon="7.12312">
        <ele>2350.3999023438</ele>
        <time>2024-09-13T13:22:25.000Z</time>
      </trkpt>
      <trkpt lat="44.35602" lon="7.12311">
        <ele>2350.3999023438</ele>
        <time>2024-09-13T13:22:26.000Z</time>
      </trkpt>
      <trkpt lat="44.35602" lon="7.1231">
        <ele>2350.6000976562</ele>
        <time>2024-09-13T13:22:27.000Z</time>
      </trkpt>
      <trkpt lat="44.35602" lon="7.12309">
        <ele>2350.8000488281</ele>
        <time>2024-09-13T13:22:28.000Z</time>
      </trkpt>
      <trkpt lat="44.35602" lon="7.12308">
        <ele>2350.8000488281</ele>
        <time>2024-09-13T13:22:29.000Z</time>
      </trkpt>
      <trkpt lat="44.35602" lon="7.12307">
        <ele>2351.1999511719</ele>
        <time>2024-09-13T13:22:30.000Z</time>
      </trkpt>
      <trkpt lat="44.35602" lon="7.12305">
        <ele>2351.3999023438</ele>
        <time>2024-09-13T13:22:31.000Z</time>
      </trkpt>
      <trkpt lat="44.35601" lon="7.12304">
        <ele>2351.6000976562</ele>
        <time>2024-09-13T13:22:32.000Z</time>
      </trkpt>
      <trkpt lat="44.35601" lon="7.12302">
        <ele>2351.8000488281</ele>
        <time>2024-09-13T13:22:33.000Z</time>
      </trkpt>
      <trkpt lat="44.35601" lon="7.12302">
        <ele>2352</ele>
        <time>2024-09-13T13:22:34.000Z</time>
      </trkpt>
      <trkpt lat="44.35601" lon="7.12301">
        <ele>2352.1999511719</ele>
        <time>2024-09-13T13:22:35.000Z</time>
      </trkpt>
      <trkpt lat="44.356" lon="7.12301">
        <ele>2352.6000976562</ele>
        <time>2024-09-13T13:22:36.000Z</time>
      </trkpt>
      <trkpt lat="44.356" lon="7.123">
        <ele>2352.6000976562</ele>
        <time>2024-09-13T13:22:37.000Z</time>
      </trkpt>
      <trkpt lat="44.35599" lon="7.123">
        <ele>2352.8000488281</ele>
        <time>2024-09-13T13:22:38.000Z</time>
      </trkpt>
      <trkpt lat="44.35598" lon="7.123">
        <ele>2353</ele>
        <time>2024-09-13T13:22:39.000Z</time>
      </trkpt>
      <trkpt lat="44.35598" lon="7.123">
        <ele>2353</ele>
        <time>2024-09-13T13:22:40.000Z</time>
      </trkpt>
      <trkpt lat="44.35597" lon="7.12299">
        <ele>2353.1999511719</ele>
        <time>2024-09-13T13:22:41.000Z</time>
      </trkpt>
      <trkpt lat="44.35597" lon="7.12298">
        <ele>2353.6000976562</ele>
        <time>2024-09-13T13:22:42.000Z</time>
      </trkpt>
      <trkpt lat="44.35597" lon="7.12297">
        <ele>2353.8000488281</ele>
        <time>2024-09-13T13:22:43.000Z</time>
      </trkpt>
      <trkpt lat="44.35597" lon="7.12296">
        <ele>2354</ele>
        <time>2024-09-13T13:22:44.000Z</time>
      </trkpt>
      <trkpt lat="44.35596" lon="7.12296">
        <ele>2354</ele>
        <time>2024-09-13T13:22:45.000Z</time>
      </trkpt>
      <trkpt lat="44.35595" lon="7.12296">
        <ele>2354.1999511719</ele>
        <time>2024-09-13T13:22:46.000Z</time>
      </trkpt>
      <trkpt lat="44.35595" lon="7.12294">
        <ele>2354.3999023438</ele>
        <time>2024-09-13T13:22:47.000Z</time>
      </trkpt>
      <trkpt lat="44.35595" lon="7.12293">
        <ele>2354.6000976562</ele>
        <time>2024-09-13T13:22:48.000Z</time>
      </trkpt>
      <trkpt lat="44.35595" lon="7.12293">
        <ele>2354.6000976562</ele>
        <time>2024-09-13T13:22:49.000Z</time>
      </trkpt>
      <trkpt lat="44.35594" lon="7.12292">
        <ele>2354.8000488281</ele>
        <time>2024-09-13T13:22:50.000Z</time>
      </trkpt>
      <trkpt lat="44.35594" lon="7.12291">
        <ele>2354.8000488281</ele>
        <time>2024-09-13T13:22:51.000Z</time>
      </trkpt>
      <trkpt lat="44.35594" lon="7.1229">
        <ele>2355.1999511719</ele>
        <time>2024-09-13T13:22:52.000Z</time>
      </trkpt>
      <trkpt lat="44.35593" lon="7.12289">
        <ele>2355.3999023438</ele>
        <time>2024-09-13T13:22:53.000Z</time>
      </trkpt>
      <trkpt lat="44.35593" lon="7.12288">
        <ele>2355.3999023438</ele>
        <time>2024-09-13T13:22:54.000Z</time>
      </trkpt>
      <trkpt lat="44.35593" lon="7.12287">
        <ele>2355.6000976562</ele>
        <time>2024-09-13T13:22:55.000Z</time>
      </trkpt>
      <trkpt lat="44.35592" lon="7.12286">
        <ele>2355.8000488281</ele>
        <time>2024-09-13T13:22:56.000Z</time>
      </trkpt>
      <trkpt lat="44.35592" lon="7.12285">
        <ele>2356</ele>
        <time>2024-09-13T13:22:57.000Z</time>
      </trkpt>
      <trkpt lat="44.35591" lon="7.12285">
        <ele>2356.1999511719</ele>
        <time>2024-09-13T13:22:58.000Z</time>
      </trkpt>
      <trkpt lat="44.35591" lon="7.12285">
        <ele>2356.1999511719</ele>
        <time>2024-09-13T13:22:59.000Z</time>
      </trkpt>
      <trkpt lat="44.35591" lon="7.12284">
        <ele>2356.3999023438</ele>
        <time>2024-09-13T13:23:00.000Z</time>
      </trkpt>
      <trkpt lat="44.3559" lon="7.12284">
        <ele>2356.3999023438</ele>
        <time>2024-09-13T13:23:01.000Z</time>
      </trkpt>
      <trkpt lat="44.3559" lon="7.12283">
        <ele>2356.6000976562</ele>
        <time>2024-09-13T13:23:02.000Z</time>
      </trkpt>
      <trkpt lat="44.3559" lon="7.12282">
        <ele>2356.8000488281</ele>
        <time>2024-09-13T13:23:03.000Z</time>
      </trkpt>
      <trkpt lat="44.3559" lon="7.12282">
        <ele>2357</ele>
        <time>2024-09-13T13:23:04.000Z</time>
      </trkpt>
      <trkpt lat="44.35589" lon="7.12281">
        <ele>2357</ele>
        <time>2024-09-13T13:23:05.000Z</time>
      </trkpt>
      <trkpt lat="44.35589" lon="7.1228">
        <ele>2357.1999511719</ele>
        <time>2024-09-13T13:23:06.000Z</time>
      </trkpt>
      <trkpt lat="44.35589" lon="7.12279">
        <ele>2357.3999023438</ele>
        <time>2024-09-13T13:23:07.000Z</time>
      </trkpt>
      <trkpt lat="44.35588" lon="7.12278">
        <ele>2357.3999023438</ele>
        <time>2024-09-13T13:23:08.000Z</time>
      </trkpt>
      <trkpt lat="44.35588" lon="7.12278">
        <ele>2357.3999023438</ele>
        <time>2024-09-13T13:23:09.000Z</time>
      </trkpt>
      <trkpt lat="44.35587" lon="7.12277">
        <ele>2357.6000976562</ele>
        <time>2024-09-13T13:23:10.000Z</time>
      </trkpt>
      <trkpt lat="44.35587" lon="7.12276">
        <ele>2357.8000488281</ele>
        <time>2024-09-13T13:23:11.000Z</time>
      </trkpt>
      <trkpt lat="44.35587" lon="7.12276">
        <ele>2357.8000488281</ele>
        <time>2024-09-13T13:23:12.000Z</time>
      </trkpt>
      <trkpt lat="44.35586" lon="7.12276">
        <ele>2358</ele>
        <time>2024-09-13T13:23:13.000Z</time>
      </trkpt>
      <trkpt lat="44.35585" lon="7.12276">
        <ele>2358.1999511719</ele>
        <time>2024-09-13T13:23:14.000Z</time>
      </trkpt>
      <trkpt lat="44.35585" lon="7.12276">
        <ele>2358.3999023438</ele>
        <time>2024-09-13T13:23:15.000Z</time>
      </trkpt>
      <trkpt lat="44.35584" lon="7.12275">
        <ele>2358.6000976562</ele>
        <time>2024-09-13T13:23:16.000Z</time>
      </trkpt>
      <trkpt lat="44.35584" lon="7.12274">
        <ele>2359</ele>
        <time>2024-09-13T13:23:17.000Z</time>
      </trkpt>
      <trkpt lat="44.35584" lon="7.12273">
        <ele>2359</ele>
        <time>2024-09-13T13:23:18.000Z</time>
      </trkpt>
      <trkpt lat="44.35583" lon="7.12272">
        <ele>2359.1999511719</ele>
        <time>2024-09-13T13:23:19.000Z</time>
      </trkpt>
      <trkpt lat="44.35583" lon="7.12271">
        <ele>2359.1999511719</ele>
        <time>2024-09-13T13:23:20.000Z</time>
      </trkpt>
      <trkpt lat="44.35583" lon="7.1227">
        <ele>2359.6000976562</ele>
        <time>2024-09-13T13:23:21.000Z</time>
      </trkpt>
      <trkpt lat="44.35583" lon="7.12268">
        <ele>2360</ele>
        <time>2024-09-13T13:23:22.000Z</time>
      </trkpt>
      <trkpt lat="44.35583" lon="7.12267">
        <ele>2360.1999511719</ele>
        <time>2024-09-13T13:23:23.000Z</time>
      </trkpt>
      <trkpt lat="44.35582" lon="7.12267">
        <ele>2360.3999023438</ele>
        <time>2024-09-13T13:23:24.000Z</time>
      </trkpt>
      <trkpt lat="44.35582" lon="7.12266">
        <ele>2360.3999023438</ele>
        <time>2024-09-13T13:23:25.000Z</time>
      </trkpt>
      <trkpt lat="44.35582" lon="7.12264">
        <ele>2360.6000976562</ele>
        <time>2024-09-13T13:23:26.000Z</time>
      </trkpt>
      <trkpt lat="44.35581" lon="7.12263">
        <ele>2360.8000488281</ele>
        <time>2024-09-13T13:23:27.000Z</time>
      </trkpt>
      <trkpt lat="44.35581" lon="7.12262">
        <ele>2361</ele>
        <time>2024-09-13T13:23:28.000Z</time>
      </trkpt>
      <trkpt lat="44.3558" lon="7.12262">
        <ele>2361.1999511719</ele>
        <time>2024-09-13T13:23:29.000Z</time>
      </trkpt>
      <trkpt lat="44.35579" lon="7.12261">
        <ele>2361.1999511719</ele>
        <time>2024-09-13T13:23:30.000Z</time>
      </trkpt>
      <trkpt lat="44.35579" lon="7.1226">
        <ele>2361.3999023438</ele>
        <time>2024-09-13T13:23:31.000Z</time>
      </trkpt>
      <trkpt lat="44.35578" lon="7.12259">
        <ele>2361.6000976562</ele>
        <time>2024-09-13T13:23:32.000Z</time>
      </trkpt>
      <trkpt lat="44.35577" lon="7.12258">
        <ele>2361.8000488281</ele>
        <time>2024-09-13T13:23:33.000Z</time>
      </trkpt>
      <trkpt lat="44.35577" lon="7.12258">
        <ele>2362.1999511719</ele>
        <time>2024-09-13T13:23:34.000Z</time>
      </trkpt>
      <trkpt lat="44.35577" lon="7.12258">
        <ele>2362.1999511719</ele>
        <time>2024-09-13T13:23:35.000Z</time>
      </trkpt>
      <trkpt lat="44.35576" lon="7.12257">
        <ele>2362.1999511719</ele>
        <time>2024-09-13T13:23:36.000Z</time>
      </trkpt>
      <trkpt lat="44.35576" lon="7.12257">
        <ele>2362.3999023438</ele>
        <time>2024-09-13T13:23:37.000Z</time>
      </trkpt>
      <trkpt lat="44.35576" lon="7.12256">
        <ele>2362.6000976562</ele>
        <time>2024-09-13T13:23:38.000Z</time>
      </trkpt>
      <trkpt lat="44.35575" lon="7.12255">
        <ele>2363</ele>
        <time>2024-09-13T13:23:39.000Z</time>
      </trkpt>
      <trkpt lat="44.35575" lon="7.12255">
        <ele>2363.1999511719</ele>
        <time>2024-09-13T13:23:40.000Z</time>
      </trkpt>
      <trkpt lat="44.35575" lon="7.12254">
        <ele>2363.1999511719</ele>
        <time>2024-09-13T13:23:41.000Z</time>
      </trkpt>
      <trkpt lat="44.35575" lon="7.12253">
        <ele>2363.3999023438</ele>
        <time>2024-09-13T13:23:42.000Z</time>
      </trkpt>
      <trkpt lat="44.35575" lon="7.12251">
        <ele>2363.6000976562</ele>
        <time>2024-09-13T13:23:43.000Z</time>
      </trkpt>
      <trkpt lat="44.35574" lon="7.12251">
        <ele>2363.8000488281</ele>
        <time>2024-09-13T13:23:44.000Z</time>
      </trkpt>
      <trkpt lat="44.35574" lon="7.1225">
        <ele>2364</ele>
        <time>2024-09-13T13:23:45.000Z</time>
      </trkpt>
      <trkpt lat="44.35573" lon="7.1225">
        <ele>2364</ele>
        <time>2024-09-13T13:23:46.000Z</time>
      </trkpt>
      <trkpt lat="44.35573" lon="7.1225">
        <ele>2364.1999511719</ele>
        <time>2024-09-13T13:23:47.000Z</time>
      </trkpt>
      <trkpt lat="44.35572" lon="7.1225">
        <ele>2364.1999511719</ele>
        <time>2024-09-13T13:23:48.000Z</time>
      </trkpt>
      <trkpt lat="44.35572" lon="7.12249">
        <ele>2364.3999023438</ele>
        <time>2024-09-13T13:23:49.000Z</time>
      </trkpt>
      <trkpt lat="44.35572" lon="7.12248">
        <ele>2364.6000976562</ele>
        <time>2024-09-13T13:23:50.000Z</time>
      </trkpt>
      <trkpt lat="44.35571" lon="7.12247">
        <ele>2364.8000488281</ele>
        <time>2024-09-13T13:23:51.000Z</time>
      </trkpt>
      <trkpt lat="44.35571" lon="7.12246">
        <ele>2365</ele>
        <time>2024-09-13T13:23:52.000Z</time>
      </trkpt>
      <trkpt lat="44.3557" lon="7.12245">
        <ele>2365.1999511719</ele>
        <time>2024-09-13T13:23:53.000Z</time>
      </trkpt>
      <trkpt lat="44.3557" lon="7.12244">
        <ele>2365.3999023438</ele>
        <time>2024-09-13T13:23:54.000Z</time>
      </trkpt>
      <trkpt lat="44.3557" lon="7.12243">
        <ele>2365.6000976562</ele>
        <time>2024-09-13T13:23:55.000Z</time>
      </trkpt>
      <trkpt lat="44.35569" lon="7.12241">
        <ele>2365.8000488281</ele>
        <time>2024-09-13T13:23:56.000Z</time>
      </trkpt>
      <trkpt lat="44.35569" lon="7.1224">
        <ele>2366</ele>
        <time>2024-09-13T13:23:57.000Z</time>
      </trkpt>
      <trkpt lat="44.35569" lon="7.12239">
        <ele>2366.1999511719</ele>
        <time>2024-09-13T13:23:58.000Z</time>
      </trkpt>
      <trkpt lat="44.35569" lon="7.12238">
        <ele>2366.3999023438</ele>
        <time>2024-09-13T13:23:59.000Z</time>
      </trkpt>
      <trkpt lat="44.35569" lon="7.12238">
        <ele>2366.3999023438</ele>
        <time>2024-09-13T13:24:00.000Z</time>
      </trkpt>
      <trkpt lat="44.35568" lon="7.12237">
        <ele>2366.3999023438</ele>
        <time>2024-09-13T13:24:01.000Z</time>
      </trkpt>
      <trkpt lat="44.35568" lon="7.12236">
        <ele>2366.6000976562</ele>
        <time>2024-09-13T13:24:02.000Z</time>
      </trkpt>
      <trkpt lat="44.35568" lon="7.12236">
        <ele>2366.8000488281</ele>
        <time>2024-09-13T13:24:03.000Z</time>
      </trkpt>
      <trkpt lat="44.35568" lon="7.12235">
        <ele>2367.1999511719</ele>
        <time>2024-09-13T13:24:04.000Z</time>
      </trkpt>
      <trkpt lat="44.35567" lon="7.12234">
        <ele>2367.3999023438</ele>
        <time>2024-09-13T13:24:05.000Z</time>
      </trkpt>
      <trkpt lat="44.35566" lon="7.12234">
        <ele>2367.3999023438</ele>
        <time>2024-09-13T13:24:06.000Z</time>
      </trkpt>
      <trkpt lat="44.35565" lon="7.12233">
        <ele>2367.8000488281</ele>
        <time>2024-09-13T13:24:07.000Z</time>
      </trkpt>
      <trkpt lat="44.35565" lon="7.12232">
        <ele>2367.8000488281</ele>
        <time>2024-09-13T13:24:08.000Z</time>
      </trkpt>
      <trkpt lat="44.35565" lon="7.12231">
        <ele>2368</ele>
        <time>2024-09-13T13:24:09.000Z</time>
      </trkpt>
      <trkpt lat="44.35564" lon="7.12231">
        <ele>2368</ele>
        <time>2024-09-13T13:24:10.000Z</time>
      </trkpt>
      <trkpt lat="44.35564" lon="7.1223">
        <ele>2368.1999511719</ele>
        <time>2024-09-13T13:24:11.000Z</time>
      </trkpt>
      <trkpt lat="44.35564" lon="7.1223">
        <ele>2368.1999511719</ele>
        <time>2024-09-13T13:24:12.000Z</time>
      </trkpt>
      <trkpt lat="44.35564" lon="7.12229">
        <ele>2368.1999511719</ele>
        <time>2024-09-13T13:24:13.000Z</time>
      </trkpt>
      <trkpt lat="44.35563" lon="7.12228">
        <ele>2368.3999023438</ele>
        <time>2024-09-13T13:24:14.000Z</time>
      </trkpt>
      <trkpt lat="44.35563" lon="7.12227">
        <ele>2368.6000976562</ele>
        <time>2024-09-13T13:24:15.000Z</time>
      </trkpt>
      <trkpt lat="44.35563" lon="7.12226">
        <ele>2368.8000488281</ele>
        <time>2024-09-13T13:24:16.000Z</time>
      </trkpt>
      <trkpt lat="44.35563" lon="7.12225">
        <ele>2368.8000488281</ele>
        <time>2024-09-13T13:24:17.000Z</time>
      </trkpt>
      <trkpt lat="44.35562" lon="7.12225">
        <ele>2369</ele>
        <time>2024-09-13T13:24:18.000Z</time>
      </trkpt>
      <trkpt lat="44.35562" lon="7.12225">
        <ele>2369.3999023438</ele>
        <time>2024-09-13T13:24:19.000Z</time>
      </trkpt>
      <trkpt lat="44.35562" lon="7.12224">
        <ele>2369.6000976562</ele>
        <time>2024-09-13T13:24:20.000Z</time>
      </trkpt>
      <trkpt lat="44.35562" lon="7.12223">
        <ele>2369.8000488281</ele>
        <time>2024-09-13T13:24:21.000Z</time>
      </trkpt>
      <trkpt lat="44.35562" lon="7.12223">
        <ele>2370</ele>
        <time>2024-09-13T13:24:22.000Z</time>
      </trkpt>
      <trkpt lat="44.35562" lon="7.12222">
        <ele>2370.1999511719</ele>
        <time>2024-09-13T13:24:23.000Z</time>
      </trkpt>
      <trkpt lat="44.35562" lon="7.12222">
        <ele>2370.3999023438</ele>
        <time>2024-09-13T13:24:24.000Z</time>
      </trkpt>
      <trkpt lat="44.35562" lon="7.12221">
        <ele>2370.6000976562</ele>
        <time>2024-09-13T13:24:25.000Z</time>
      </trkpt>
      <trkpt lat="44.35561" lon="7.12221">
        <ele>2370.8000488281</ele>
        <time>2024-09-13T13:24:26.000Z</time>
      </trkpt>
      <trkpt lat="44.35561" lon="7.1222">
        <ele>2371</ele>
        <time>2024-09-13T13:24:27.000Z</time>
      </trkpt>
      <trkpt lat="44.35561" lon="7.12219">
        <ele>2371.1999511719</ele>
        <time>2024-09-13T13:24:28.000Z</time>
      </trkpt>
      <trkpt lat="44.35561" lon="7.12218">
        <ele>2371.1999511719</ele>
        <time>2024-09-13T13:24:29.000Z</time>
      </trkpt>
      <trkpt lat="44.3556" lon="7.12217">
        <ele>2371.6000976562</ele>
        <time>2024-09-13T13:24:30.000Z</time>
      </trkpt>
      <trkpt lat="44.3556" lon="7.12216">
        <ele>2371.6000976562</ele>
        <time>2024-09-13T13:24:31.000Z</time>
      </trkpt>
      <trkpt lat="44.3556" lon="7.12215">
        <ele>2371.8000488281</ele>
        <time>2024-09-13T13:24:32.000Z</time>
      </trkpt>
      <trkpt lat="44.3556" lon="7.12214">
        <ele>2372</ele>
        <time>2024-09-13T13:24:33.000Z</time>
      </trkpt>
      <trkpt lat="44.3556" lon="7.12213">
        <ele>2372.3999023438</ele>
        <time>2024-09-13T13:24:34.000Z</time>
      </trkpt>
      <trkpt lat="44.3556" lon="7.12212">
        <ele>2372.6000976562</ele>
        <time>2024-09-13T13:24:35.000Z</time>
      </trkpt>
      <trkpt lat="44.35559" lon="7.1221">
        <ele>2372.6000976562</ele>
        <time>2024-09-13T13:24:36.000Z</time>
      </trkpt>
      <trkpt lat="44.35559" lon="7.1221">
        <ele>2372.8000488281</ele>
        <time>2024-09-13T13:24:37.000Z</time>
      </trkpt>
      <trkpt lat="44.35559" lon="7.12209">
        <ele>2373</ele>
        <time>2024-09-13T13:24:38.000Z</time>
      </trkpt>
      <trkpt lat="44.35558" lon="7.12208">
        <ele>2373.1999511719</ele>
        <time>2024-09-13T13:24:39.000Z</time>
      </trkpt>
      <trkpt lat="44.35558" lon="7.12208">
        <ele>2373.3999023438</ele>
        <time>2024-09-13T13:24:40.000Z</time>
      </trkpt>
      <trkpt lat="44.35558" lon="7.12207">
        <ele>2373.6000976562</ele>
        <time>2024-09-13T13:24:41.000Z</time>
      </trkpt>
      <trkpt lat="44.35558" lon="7.12207">
        <ele>2373.6000976562</ele>
        <time>2024-09-13T13:24:42.000Z</time>
      </trkpt>
      <trkpt lat="44.35557" lon="7.12206">
        <ele>2373.8000488281</ele>
        <time>2024-09-13T13:24:43.000Z</time>
      </trkpt>
      <trkpt lat="44.35557" lon="7.12205">
        <ele>2374</ele>
        <time>2024-09-13T13:24:44.000Z</time>
      </trkpt>
      <trkpt lat="44.35557" lon="7.12204">
        <ele>2374.1999511719</ele>
        <time>2024-09-13T13:24:45.000Z</time>
      </trkpt>
      <trkpt lat="44.35556" lon="7.12203">
        <ele>2374.6000976562</ele>
        <time>2024-09-13T13:24:46.000Z</time>
      </trkpt>
      <trkpt lat="44.35556" lon="7.12203">
        <ele>2374.8000488281</ele>
        <time>2024-09-13T13:24:47.000Z</time>
      </trkpt>
      <trkpt lat="44.35556" lon="7.12202">
        <ele>2374.8000488281</ele>
        <time>2024-09-13T13:24:48.000Z</time>
      </trkpt>
      <trkpt lat="44.35556" lon="7.12201">
        <ele>2374.8000488281</ele>
        <time>2024-09-13T13:24:49.000Z</time>
      </trkpt>
      <trkpt lat="44.35555" lon="7.12199">
        <ele>2375.1999511719</ele>
        <time>2024-09-13T13:24:50.000Z</time>
      </trkpt>
      <trkpt lat="44.35555" lon="7.12198">
        <ele>2375.3999023438</ele>
        <time>2024-09-13T13:24:51.000Z</time>
      </trkpt>
      <trkpt lat="44.35555" lon="7.12197">
        <ele>2375.6000976562</ele>
        <time>2024-09-13T13:24:52.000Z</time>
      </trkpt>
      <trkpt lat="44.35555" lon="7.12196">
        <ele>2375.6000976562</ele>
        <time>2024-09-13T13:24:53.000Z</time>
      </trkpt>
      <trkpt lat="44.35554" lon="7.12196">
        <ele>2375.8000488281</ele>
        <time>2024-09-13T13:24:54.000Z</time>
      </trkpt>
      <trkpt lat="44.35554" lon="7.12195">
        <ele>2375.8000488281</ele>
        <time>2024-09-13T13:24:55.000Z</time>
      </trkpt>
      <trkpt lat="44.35553" lon="7.12194">
        <ele>2376.1999511719</ele>
        <time>2024-09-13T13:24:56.000Z</time>
      </trkpt>
      <trkpt lat="44.35553" lon="7.12194">
        <ele>2376.1999511719</ele>
        <time>2024-09-13T13:24:57.000Z</time>
      </trkpt>
      <trkpt lat="44.35553" lon="7.12193">
        <ele>2376.3999023438</ele>
        <time>2024-09-13T13:24:58.000Z</time>
      </trkpt>
      <trkpt lat="44.35552" lon="7.12193">
        <ele>2376.6000976562</ele>
        <time>2024-09-13T13:24:59.000Z</time>
      </trkpt>
      <trkpt lat="44.35551" lon="7.12192">
        <ele>2376.8000488281</ele>
        <time>2024-09-13T13:25:00.000Z</time>
      </trkpt>
      <trkpt lat="44.35551" lon="7.12191">
        <ele>2377</ele>
        <time>2024-09-13T13:25:01.000Z</time>
      </trkpt>
      <trkpt lat="44.35551" lon="7.1219">
        <ele>2377</ele>
        <time>2024-09-13T13:25:02.000Z</time>
      </trkpt>
      <trkpt lat="44.3555" lon="7.12188">
        <ele>2377.1999511719</ele>
        <time>2024-09-13T13:25:03.000Z</time>
      </trkpt>
      <trkpt lat="44.3555" lon="7.12187">
        <ele>2377.1999511719</ele>
        <time>2024-09-13T13:25:04.000Z</time>
      </trkpt>
      <trkpt lat="44.3555" lon="7.12187">
        <ele>2377.1999511719</ele>
        <time>2024-09-13T13:25:05.000Z</time>
      </trkpt>
      <trkpt lat="44.35551" lon="7.12187">
        <ele>2377.3999023438</ele>
        <time>2024-09-13T13:25:06.000Z</time>
      </trkpt>
      <trkpt lat="44.35551" lon="7.12187">
        <ele>2377.6000976562</ele>
        <time>2024-09-13T13:25:07.000Z</time>
      </trkpt>
      <trkpt lat="44.35552" lon="7.12187">
        <ele>2377.8000488281</ele>
        <time>2024-09-13T13:25:08.000Z</time>
      </trkpt>
      <trkpt lat="44.35552" lon="7.12187">
        <ele>2377.8000488281</ele>
        <time>2024-09-13T13:25:09.000Z</time>
      </trkpt>
      <trkpt lat="44.35553" lon="7.12188">
        <ele>2378.1999511719</ele>
        <time>2024-09-13T13:25:10.000Z</time>
      </trkpt>
      <trkpt lat="44.35553" lon="7.12188">
        <ele>2378.3999023438</ele>
        <time>2024-09-13T13:25:11.000Z</time>
      </trkpt>
      <trkpt lat="44.35554" lon="7.12188">
        <ele>2378.6000976562</ele>
        <time>2024-09-13T13:25:12.000Z</time>
      </trkpt>
      <trkpt lat="44.35554" lon="7.12189">
        <ele>2378.6000976562</ele>
        <time>2024-09-13T13:25:13.000Z</time>
      </trkpt>
      <trkpt lat="44.35554" lon="7.12189">
        <ele>2378.8000488281</ele>
        <time>2024-09-13T13:25:14.000Z</time>
      </trkpt>
      <trkpt lat="44.35555" lon="7.12189">
        <ele>2379.1999511719</ele>
        <time>2024-09-13T13:25:15.000Z</time>
      </trkpt>
      <trkpt lat="44.35556" lon="7.12189">
        <ele>2379.3999023438</ele>
        <time>2024-09-13T13:25:16.000Z</time>
      </trkpt>
      <trkpt lat="44.35557" lon="7.12189">
        <ele>2379.6000976562</ele>
        <time>2024-09-13T13:25:17.000Z</time>
      </trkpt>
      <trkpt lat="44.35558" lon="7.1219">
        <ele>2379.8000488281</ele>
        <time>2024-09-13T13:25:18.000Z</time>
      </trkpt>
      <trkpt lat="44.35559" lon="7.1219">
        <ele>2380</ele>
        <time>2024-09-13T13:25:19.000Z</time>
      </trkpt>
      <trkpt lat="44.35559" lon="7.12191">
        <ele>2380.1999511719</ele>
        <time>2024-09-13T13:25:20.000Z</time>
      </trkpt>
      <trkpt lat="44.3556" lon="7.12191">
        <ele>2380.1999511719</ele>
        <time>2024-09-13T13:25:21.000Z</time>
      </trkpt>
      <trkpt lat="44.35561" lon="7.12192">
        <ele>2380.6000976562</ele>
        <time>2024-09-13T13:25:22.000Z</time>
      </trkpt>
      <trkpt lat="44.35561" lon="7.12192">
        <ele>2380.6000976562</ele>
        <time>2024-09-13T13:25:23.000Z</time>
      </trkpt>
      <trkpt lat="44.35562" lon="7.12192">
        <ele>2380.8000488281</ele>
        <time>2024-09-13T13:25:24.000Z</time>
      </trkpt>
      <trkpt lat="44.35562" lon="7.12193">
        <ele>2381</ele>
        <time>2024-09-13T13:25:25.000Z</time>
      </trkpt>
      <trkpt lat="44.35563" lon="7.12193">
        <ele>2381.1999511719</ele>
        <time>2024-09-13T13:25:26.000Z</time>
      </trkpt>
      <trkpt lat="44.35563" lon="7.12194">
        <ele>2381.3999023438</ele>
        <time>2024-09-13T13:25:27.000Z</time>
      </trkpt>
      <trkpt lat="44.35564" lon="7.12194">
        <ele>2381.3999023438</ele>
        <time>2024-09-13T13:25:28.000Z</time>
      </trkpt>
      <trkpt lat="44.35564" lon="7.12195">
        <ele>2381.3999023438</ele>
        <time>2024-09-13T13:25:29.000Z</time>
      </trkpt>
      <trkpt lat="44.35565" lon="7.12195">
        <ele>2381.3999023438</ele>
        <time>2024-09-13T13:25:30.000Z</time>
      </trkpt>
      <trkpt lat="44.35566" lon="7.12195">
        <ele>2381.8000488281</ele>
        <time>2024-09-13T13:25:31.000Z</time>
      </trkpt>
      <trkpt lat="44.35566" lon="7.12195">
        <ele>2382</ele>
        <time>2024-09-13T13:25:32.000Z</time>
      </trkpt>
      <trkpt lat="44.35567" lon="7.12196">
        <ele>2382.1999511719</ele>
        <time>2024-09-13T13:25:33.000Z</time>
      </trkpt>
      <trkpt lat="44.35567" lon="7.12196">
        <ele>2382.1999511719</ele>
        <time>2024-09-13T13:25:34.000Z</time>
      </trkpt>
      <trkpt lat="44.35568" lon="7.12196">
        <ele>2382.6000976562</ele>
        <time>2024-09-13T13:25:35.000Z</time>
      </trkpt>
      <trkpt lat="44.35569" lon="7.12197">
        <ele>2382.8000488281</ele>
        <time>2024-09-13T13:25:36.000Z</time>
      </trkpt>
      <trkpt lat="44.35569" lon="7.12197">
        <ele>2383</ele>
        <time>2024-09-13T13:25:37.000Z</time>
      </trkpt>
      <trkpt lat="44.3557" lon="7.12198">
        <ele>2383</ele>
        <time>2024-09-13T13:25:38.000Z</time>
      </trkpt>
      <trkpt lat="44.35571" lon="7.12198">
        <ele>2383.3999023438</ele>
        <time>2024-09-13T13:25:39.000Z</time>
      </trkpt>
      <trkpt lat="44.35572" lon="7.12199">
        <ele>2383.6000976562</ele>
        <time>2024-09-13T13:25:40.000Z</time>
      </trkpt>
      <trkpt lat="44.35573" lon="7.12199">
        <ele>2383.8000488281</ele>
        <time>2024-09-13T13:25:41.000Z</time>
      </trkpt>
      <trkpt lat="44.35573" lon="7.122">
        <ele>2384</ele>
        <time>2024-09-13T13:25:42.000Z</time>
      </trkpt>
      <trkpt lat="44.35574" lon="7.122">
        <ele>2384</ele>
        <time>2024-09-13T13:25:43.000Z</time>
      </trkpt>
      <trkpt lat="44.35574" lon="7.12201">
        <ele>2384.1999511719</ele>
        <time>2024-09-13T13:25:44.000Z</time>
      </trkpt>
      <trkpt lat="44.35575" lon="7.12201">
        <ele>2384.3999023438</ele>
        <time>2024-09-13T13:25:45.000Z</time>
      </trkpt>
      <trkpt lat="44.35576" lon="7.12201">
        <ele>2384.6000976562</ele>
        <time>2024-09-13T13:25:46.000Z</time>
      </trkpt>
      <trkpt lat="44.35576" lon="7.12202">
        <ele>2384.6000976562</ele>
        <time>2024-09-13T13:25:47.000Z</time>
      </trkpt>
      <trkpt lat="44.35577" lon="7.12202">
        <ele>2385</ele>
        <time>2024-09-13T13:25:48.000Z</time>
      </trkpt>
      <trkpt lat="44.35577" lon="7.12202">
        <ele>2385.1999511719</ele>
        <time>2024-09-13T13:25:49.000Z</time>
      </trkpt>
      <trkpt lat="44.35578" lon="7.12203">
        <ele>2385.3999023438</ele>
        <time>2024-09-13T13:25:50.000Z</time>
      </trkpt>
      <trkpt lat="44.35579" lon="7.12203">
        <ele>2385.3999023438</ele>
        <time>2024-09-13T13:25:51.000Z</time>
      </trkpt>
      <trkpt lat="44.35579" lon="7.12203">
        <ele>2385.6000976562</ele>
        <time>2024-09-13T13:25:52.000Z</time>
      </trkpt>
      <trkpt lat="44.3558" lon="7.12204">
        <ele>2385.6000976562</ele>
        <time>2024-09-13T13:25:53.000Z</time>
      </trkpt>
      <trkpt lat="44.3558" lon="7.12203">
        <ele>2385.8000488281</ele>
        <time>2024-09-13T13:25:54.000Z</time>
      </trkpt>
      <trkpt lat="44.35581" lon="7.12203">
        <ele>2386</ele>
        <time>2024-09-13T13:25:55.000Z</time>
      </trkpt>
      <trkpt lat="44.35582" lon="7.12202">
        <ele>2386.1999511719</ele>
        <time>2024-09-13T13:25:56.000Z</time>
      </trkpt>
      <trkpt lat="44.35582" lon="7.12202">
        <ele>2386.3999023438</ele>
        <time>2024-09-13T13:25:57.000Z</time>
      </trkpt>
      <trkpt lat="44.35583" lon="7.12201">
        <ele>2386.6000976562</ele>
        <time>2024-09-13T13:25:58.000Z</time>
      </trkpt>
      <trkpt lat="44.35582" lon="7.122">
        <ele>2386.6000976562</ele>
        <time>2024-09-13T13:25:59.000Z</time>
      </trkpt>
      <trkpt lat="44.35582" lon="7.12199">
        <ele>2386.6000976562</ele>
        <time>2024-09-13T13:26:00.000Z</time>
      </trkpt>
      <trkpt lat="44.35582" lon="7.12198">
        <ele>2386.8000488281</ele>
        <time>2024-09-13T13:26:01.000Z</time>
      </trkpt>
      <trkpt lat="44.35581" lon="7.12197">
        <ele>2387</ele>
        <time>2024-09-13T13:26:02.000Z</time>
      </trkpt>
      <trkpt lat="44.35581" lon="7.12197">
        <ele>2387.1999511719</ele>
        <time>2024-09-13T13:26:03.000Z</time>
      </trkpt>
      <trkpt lat="44.3558" lon="7.12196">
        <ele>2387.3999023438</ele>
        <time>2024-09-13T13:26:04.000Z</time>
      </trkpt>
      <trkpt lat="44.3558" lon="7.12196">
        <ele>2387.8000488281</ele>
        <time>2024-09-13T13:26:05.000Z</time>
      </trkpt>
      <trkpt lat="44.3558" lon="7.12195">
        <ele>2388</ele>
        <time>2024-09-13T13:26:06.000Z</time>
      </trkpt>
      <trkpt lat="44.35579" lon="7.12195">
        <ele>2388.1999511719</ele>
        <time>2024-09-13T13:26:07.000Z</time>
      </trkpt>
      <trkpt lat="44.35579" lon="7.12194">
        <ele>2388.3999023438</ele>
        <time>2024-09-13T13:26:08.000Z</time>
      </trkpt>
      <trkpt lat="44.35579" lon="7.12193">
        <ele>2388.6000976562</ele>
        <time>2024-09-13T13:26:09.000Z</time>
      </trkpt>
      <trkpt lat="44.35578" lon="7.12192">
        <ele>2388.8000488281</ele>
        <time>2024-09-13T13:26:10.000Z</time>
      </trkpt>
      <trkpt lat="44.35578" lon="7.12191">
        <ele>2389</ele>
        <time>2024-09-13T13:26:11.000Z</time>
      </trkpt>
      <trkpt lat="44.35578" lon="7.12191">
        <ele>2389.3999023438</ele>
        <time>2024-09-13T13:26:12.000Z</time>
      </trkpt>
      <trkpt lat="44.35578" lon="7.1219">
        <ele>2389.6000976562</ele>
        <time>2024-09-13T13:26:13.000Z</time>
      </trkpt>
      <trkpt lat="44.35577" lon="7.12189">
        <ele>2389.8000488281</ele>
        <time>2024-09-13T13:26:14.000Z</time>
      </trkpt>
      <trkpt lat="44.35577" lon="7.12188">
        <ele>2390</ele>
        <time>2024-09-13T13:26:15.000Z</time>
      </trkpt>
      <trkpt lat="44.35577" lon="7.12188">
        <ele>2390.3999023438</ele>
        <time>2024-09-13T13:26:16.000Z</time>
      </trkpt>
      <trkpt lat="44.35576" lon="7.12187">
        <ele>2390.3999023438</ele>
        <time>2024-09-13T13:26:17.000Z</time>
      </trkpt>
      <trkpt lat="44.35576" lon="7.12186">
        <ele>2390.6000976562</ele>
        <time>2024-09-13T13:26:18.000Z</time>
      </trkpt>
      <trkpt lat="44.35576" lon="7.12185">
        <ele>2390.8000488281</ele>
        <time>2024-09-13T13:26:19.000Z</time>
      </trkpt>
      <trkpt lat="44.35576" lon="7.12185">
        <ele>2391</ele>
        <time>2024-09-13T13:26:20.000Z</time>
      </trkpt>
      <trkpt lat="44.35575" lon="7.12184">
        <ele>2391</ele>
        <time>2024-09-13T13:26:21.000Z</time>
      </trkpt>
      <trkpt lat="44.35575" lon="7.12184">
        <ele>2391.3999023438</ele>
        <time>2024-09-13T13:26:22.000Z</time>
      </trkpt>
      <trkpt lat="44.35574" lon="7.12183">
        <ele>2391.3999023438</ele>
        <time>2024-09-13T13:26:23.000Z</time>
      </trkpt>
      <trkpt lat="44.35573" lon="7.12182">
        <ele>2391.8000488281</ele>
        <time>2024-09-13T13:26:24.000Z</time>
      </trkpt>
      <trkpt lat="44.35573" lon="7.12181">
        <ele>2391.8000488281</ele>
        <time>2024-09-13T13:26:25.000Z</time>
      </trkpt>
      <trkpt lat="44.35573" lon="7.12181">
        <ele>2392.1999511719</ele>
        <time>2024-09-13T13:26:26.000Z</time>
      </trkpt>
      <trkpt lat="44.35572" lon="7.1218">
        <ele>2392.3999023438</ele>
        <time>2024-09-13T13:26:27.000Z</time>
      </trkpt>
      <trkpt lat="44.35572" lon="7.12179">
        <ele>2392.3999023438</ele>
        <time>2024-09-13T13:26:28.000Z</time>
      </trkpt>
      <trkpt lat="44.35572" lon="7.12178">
        <ele>2392.6000976562</ele>
        <time>2024-09-13T13:26:29.000Z</time>
      </trkpt>
      <trkpt lat="44.35572" lon="7.12178">
        <ele>2392.8000488281</ele>
        <time>2024-09-13T13:26:30.000Z</time>
      </trkpt>
      <trkpt lat="44.35571" lon="7.12177">
        <ele>2393</ele>
        <time>2024-09-13T13:26:31.000Z</time>
      </trkpt>
      <trkpt lat="44.35571" lon="7.12176">
        <ele>2393.1999511719</ele>
        <time>2024-09-13T13:26:32.000Z</time>
      </trkpt>
      <trkpt lat="44.35571" lon="7.12175">
        <ele>2393.3999023438</ele>
        <time>2024-09-13T13:26:33.000Z</time>
      </trkpt>
      <trkpt lat="44.35571" lon="7.12174">
        <ele>2393.6000976562</ele>
        <time>2024-09-13T13:26:34.000Z</time>
      </trkpt>
      <trkpt lat="44.35571" lon="7.12173">
        <ele>2393.8000488281</ele>
        <time>2024-09-13T13:26:35.000Z</time>
      </trkpt>
      <trkpt lat="44.3557" lon="7.12172">
        <ele>2394</ele>
        <time>2024-09-13T13:26:36.000Z</time>
      </trkpt>
      <trkpt lat="44.3557" lon="7.12171">
        <ele>2394.1999511719</ele>
        <time>2024-09-13T13:26:37.000Z</time>
      </trkpt>
      <trkpt lat="44.3557" lon="7.1217">
        <ele>2394.1999511719</ele>
        <time>2024-09-13T13:26:38.000Z</time>
      </trkpt>
      <trkpt lat="44.3557" lon="7.12169">
        <ele>2394.3999023438</ele>
        <time>2024-09-13T13:26:39.000Z</time>
      </trkpt>
      <trkpt lat="44.3557" lon="7.12169">
        <ele>2394.3999023438</ele>
        <time>2024-09-13T13:26:40.000Z</time>
      </trkpt>
      <trkpt lat="44.35569" lon="7.12168">
        <ele>2394.8000488281</ele>
        <time>2024-09-13T13:26:41.000Z</time>
      </trkpt>
      <trkpt lat="44.35569" lon="7.12167">
        <ele>2395</ele>
        <time>2024-09-13T13:26:42.000Z</time>
      </trkpt>
      <trkpt lat="44.35569" lon="7.12166">
        <ele>2395</ele>
        <time>2024-09-13T13:26:43.000Z</time>
      </trkpt>
      <trkpt lat="44.35569" lon="7.12165">
        <ele>2395.1999511719</ele>
        <time>2024-09-13T13:26:44.000Z</time>
      </trkpt>
      <trkpt lat="44.35569" lon="7.12164">
        <ele>2395.3999023438</ele>
        <time>2024-09-13T13:26:45.000Z</time>
      </trkpt>
      <trkpt lat="44.35569" lon="7.12163">
        <ele>2395.3999023438</ele>
        <time>2024-09-13T13:26:46.000Z</time>
      </trkpt>
      <trkpt lat="44.35569" lon="7.12162">
        <ele>2395.6000976562</ele>
        <time>2024-09-13T13:26:47.000Z</time>
      </trkpt>
      <trkpt lat="44.35569" lon="7.12161">
        <ele>2395.6000976562</ele>
        <time>2024-09-13T13:26:48.000Z</time>
      </trkpt>
      <trkpt lat="44.35569" lon="7.1216">
        <ele>2395.8000488281</ele>
        <time>2024-09-13T13:26:49.000Z</time>
      </trkpt>
      <trkpt lat="44.35569" lon="7.12158">
        <ele>2396</ele>
        <time>2024-09-13T13:26:50.000Z</time>
      </trkpt>
      <trkpt lat="44.35569" lon="7.12157">
        <ele>2396.1999511719</ele>
        <time>2024-09-13T13:26:51.000Z</time>
      </trkpt>
      <trkpt lat="44.35569" lon="7.12156">
        <ele>2396.3999023438</ele>
        <time>2024-09-13T13:26:52.000Z</time>
      </trkpt>
      <trkpt lat="44.35569" lon="7.12155">
        <ele>2396.6000976562</ele>
        <time>2024-09-13T13:26:53.000Z</time>
      </trkpt>
      <trkpt lat="44.35569" lon="7.12154">
        <ele>2396.8000488281</ele>
        <time>2024-09-13T13:26:54.000Z</time>
      </trkpt>
      <trkpt lat="44.35568" lon="7.12153">
        <ele>2397</ele>
        <time>2024-09-13T13:26:55.000Z</time>
      </trkpt>
      <trkpt lat="44.35568" lon="7.12153">
        <ele>2397.1999511719</ele>
        <time>2024-09-13T13:26:56.000Z</time>
      </trkpt>
      <trkpt lat="44.35568" lon="7.12153">
        <ele>2397.3999023438</ele>
        <time>2024-09-13T13:26:57.000Z</time>
      </trkpt>
      <trkpt lat="44.35567" lon="7.12151">
        <ele>2397.6000976562</ele>
        <time>2024-09-13T13:26:58.000Z</time>
      </trkpt>
      <trkpt lat="44.35567" lon="7.1215">
        <ele>2398</ele>
        <time>2024-09-13T13:26:59.000Z</time>
      </trkpt>
      <trkpt lat="44.35566" lon="7.12149">
        <ele>2398</ele>
        <time>2024-09-13T13:27:00.000Z</time>
      </trkpt>
      <trkpt lat="44.35566" lon="7.12149">
        <ele>2398.1999511719</ele>
        <time>2024-09-13T13:27:01.000Z</time>
      </trkpt>
      <trkpt lat="44.35566" lon="7.12148">
        <ele>2398.3999023438</ele>
        <time>2024-09-13T13:27:02.000Z</time>
      </trkpt>
      <trkpt lat="44.35565" lon="7.12147">
        <ele>2398.6000976562</ele>
        <time>2024-09-13T13:27:03.000Z</time>
      </trkpt>
      <trkpt lat="44.35565" lon="7.12146">
        <ele>2398.8000488281</ele>
        <time>2024-09-13T13:27:04.000Z</time>
      </trkpt>
      <trkpt lat="44.35565" lon="7.12146">
        <ele>2399</ele>
        <time>2024-09-13T13:27:05.000Z</time>
      </trkpt>
      <trkpt lat="44.35565" lon="7.12146">
        <ele>2399</ele>
        <time>2024-09-13T13:27:06.000Z</time>
      </trkpt>
      <trkpt lat="44.35565" lon="7.12146">
        <ele>2399.1999511719</ele>
        <time>2024-09-13T13:27:07.000Z</time>
      </trkpt>
      <trkpt lat="44.35565" lon="7.12146">
        <ele>2399.3999023438</ele>
        <time>2024-09-13T13:27:08.000Z</time>
      </trkpt>
      <trkpt lat="44.35565" lon="7.12146">
        <ele>2399.3999023438</ele>
        <time>2024-09-13T13:27:10.000Z</time>
      </trkpt>
      <trkpt lat="44.35564" lon="7.12146">
        <ele>2399.3999023438</ele>
        <time>2024-09-13T13:27:12.000Z</time>
      </trkpt>
      <trkpt lat="44.35564" lon="7.12146">
        <ele>2399.3999023438</ele>
        <time>2024-09-13T13:27:13.000Z</time>
      </trkpt>
      <trkpt lat="44.35564" lon="7.12146">
        <ele>2399.3999023438</ele>
        <time>2024-09-13T13:27:16.000Z</time>
      </trkpt>
      <trkpt lat="44.35563" lon="7.12145">
        <ele>2399.3999023438</ele>
        <time>2024-09-13T13:27:17.000Z</time>
      </trkpt>
      <trkpt lat="44.35563" lon="7.12144">
        <ele>2399.6000976562</ele>
        <time>2024-09-13T13:27:18.000Z</time>
      </trkpt>
      <trkpt lat="44.35562" lon="7.12144">
        <ele>2399.6000976562</ele>
        <time>2024-09-13T13:27:19.000Z</time>
      </trkpt>
      <trkpt lat="44.35561" lon="7.12143">
        <ele>2399.6000976562</ele>
        <time>2024-09-13T13:27:20.000Z</time>
      </trkpt>
      <trkpt lat="44.3556" lon="7.12142">
        <ele>2399.8000488281</ele>
        <time>2024-09-13T13:27:21.000Z</time>
      </trkpt>
      <trkpt lat="44.35558" lon="7.12141">
        <ele>2399.8000488281</ele>
        <time>2024-09-13T13:27:22.000Z</time>
      </trkpt>
      <trkpt lat="44.35557" lon="7.1214">
        <ele>2400</ele>
        <time>2024-09-13T13:27:23.000Z</time>
      </trkpt>
      <trkpt lat="44.35556" lon="7.12139">
        <ele>2400</ele>
        <time>2024-09-13T13:27:24.000Z</time>
      </trkpt>
      <trkpt lat="44.35555" lon="7.12139">
        <ele>2400.3999023438</ele>
        <time>2024-09-13T13:27:25.000Z</time>
      </trkpt>
      <trkpt lat="44.35553" lon="7.12138">
        <ele>2400.8000488281</ele>
        <time>2024-09-13T13:27:27.000Z</time>
      </trkpt>
      <trkpt lat="44.3555" lon="7.12137">
        <ele>2401.3999023438</ele>
        <time>2024-09-13T13:27:29.000Z</time>
      </trkpt>
      <trkpt lat="44.35549" lon="7.12136">
        <ele>2401.6000976562</ele>
        <time>2024-09-13T13:27:30.000Z</time>
      </trkpt>
      <trkpt lat="44.35547" lon="7.12136">
        <ele>2401.8000488281</ele>
        <time>2024-09-13T13:27:31.000Z</time>
      </trkpt>
      <trkpt lat="44.35546" lon="7.12136">
        <ele>2402</ele>
        <time>2024-09-13T13:27:32.000Z</time>
      </trkpt>
      <trkpt lat="44.35545" lon="7.12136">
        <ele>2402.3999023438</ele>
        <time>2024-09-13T13:27:33.000Z</time>
      </trkpt>
      <trkpt lat="44.35544" lon="7.12136">
        <ele>2402.3999023438</ele>
        <time>2024-09-13T13:27:34.000Z</time>
      </trkpt>
      <trkpt lat="44.35543" lon="7.12136">
        <ele>2402.3999023438</ele>
        <time>2024-09-13T13:27:35.000Z</time>
      </trkpt>
      <trkpt lat="44.35542" lon="7.12137">
        <ele>2402.8000488281</ele>
        <time>2024-09-13T13:27:36.000Z</time>
      </trkpt>
      <trkpt lat="44.35541" lon="7.12137">
        <ele>2403.1999511719</ele>
        <time>2024-09-13T13:27:37.000Z</time>
      </trkpt>
      <trkpt lat="44.3554" lon="7.12138">
        <ele>2403.3999023438</ele>
        <time>2024-09-13T13:27:38.000Z</time>
      </trkpt>
      <trkpt lat="44.35539" lon="7.12138">
        <ele>2403.6000976562</ele>
        <time>2024-09-13T13:27:39.000Z</time>
      </trkpt>
      <trkpt lat="44.35538" lon="7.12138">
        <ele>2403.8000488281</ele>
        <time>2024-09-13T13:27:40.000Z</time>
      </trkpt>
      <trkpt lat="44.35537" lon="7.12139">
        <ele>2404</ele>
        <time>2024-09-13T13:27:41.000Z</time>
      </trkpt>
      <trkpt lat="44.35536" lon="7.12139">
        <ele>2404</ele>
        <time>2024-09-13T13:27:42.000Z</time>
      </trkpt>
      <trkpt lat="44.35535" lon="7.1214">
        <ele>2404.3999023438</ele>
        <time>2024-09-13T13:27:43.000Z</time>
      </trkpt>
      <trkpt lat="44.35533" lon="7.1214">
        <ele>2404.6000976562</ele>
        <time>2024-09-13T13:27:44.000Z</time>
      </trkpt>
      <trkpt lat="44.35532" lon="7.12141">
        <ele>2404.6000976562</ele>
        <time>2024-09-13T13:27:45.000Z</time>
      </trkpt>
      <trkpt lat="44.3553" lon="7.12141">
        <ele>2405</ele>
        <time>2024-09-13T13:27:46.000Z</time>
      </trkpt>
      <trkpt lat="44.35529" lon="7.12142">
        <ele>2405.1999511719</ele>
        <time>2024-09-13T13:27:47.000Z</time>
      </trkpt>
      <trkpt lat="44.35528" lon="7.12143">
        <ele>2405.3999023438</ele>
        <time>2024-09-13T13:27:48.000Z</time>
      </trkpt>
      <trkpt lat="44.35527" lon="7.12144">
        <ele>2405.3999023438</ele>
        <time>2024-09-13T13:27:49.000Z</time>
      </trkpt>
      <trkpt lat="44.35525" lon="7.12144">
        <ele>2405.6000976562</ele>
        <time>2024-09-13T13:27:50.000Z</time>
      </trkpt>
      <trkpt lat="44.35524" lon="7.12145">
        <ele>2405.6000976562</ele>
        <time>2024-09-13T13:27:51.000Z</time>
      </trkpt>
      <trkpt lat="44.35523" lon="7.12145">
        <ele>2405.6000976562</ele>
        <time>2024-09-13T13:27:52.000Z</time>
      </trkpt>
      <trkpt lat="44.35522" lon="7.12146">
        <ele>2405.8000488281</ele>
        <time>2024-09-13T13:27:53.000Z</time>
      </trkpt>
      <trkpt lat="44.3552" lon="7.12146">
        <ele>2406</ele>
        <time>2024-09-13T13:27:54.000Z</time>
      </trkpt>
      <trkpt lat="44.35519" lon="7.12147">
        <ele>2406.1999511719</ele>
        <time>2024-09-13T13:27:55.000Z</time>
      </trkpt>
      <trkpt lat="44.35517" lon="7.12147">
        <ele>2406.3999023438</ele>
        <time>2024-09-13T13:27:56.000Z</time>
      </trkpt>
      <trkpt lat="44.35516" lon="7.12147">
        <ele>2407</ele>
        <time>2024-09-13T13:27:57.000Z</time>
      </trkpt>
      <trkpt lat="44.35515" lon="7.12147">
        <ele>2407.1999511719</ele>
        <time>2024-09-13T13:27:58.000Z</time>
      </trkpt>
      <trkpt lat="44.35514" lon="7.12147">
        <ele>2407.6000976562</ele>
        <time>2024-09-13T13:27:59.000Z</time>
      </trkpt>
      <trkpt lat="44.35513" lon="7.12147">
        <ele>2407.8000488281</ele>
        <time>2024-09-13T13:28:00.000Z</time>
      </trkpt>
      <trkpt lat="44.35512" lon="7.12147">
        <ele>2408</ele>
        <time>2024-09-13T13:28:01.000Z</time>
      </trkpt>
      <trkpt lat="44.35511" lon="7.12147">
        <ele>2408.1999511719</ele>
        <time>2024-09-13T13:28:02.000Z</time>
      </trkpt>
      <trkpt lat="44.35509" lon="7.12147">
        <ele>2408.1999511719</ele>
        <time>2024-09-13T13:28:03.000Z</time>
      </trkpt>
      <trkpt lat="44.35508" lon="7.12147">
        <ele>2408.1999511719</ele>
        <time>2024-09-13T13:28:04.000Z</time>
      </trkpt>
      <trkpt lat="44.35507" lon="7.12147">
        <ele>2408.3999023438</ele>
        <time>2024-09-13T13:28:05.000Z</time>
      </trkpt>
      <trkpt lat="44.35506" lon="7.12146">
        <ele>2408.6000976562</ele>
        <time>2024-09-13T13:28:06.000Z</time>
      </trkpt>
      <trkpt lat="44.35505" lon="7.12146">
        <ele>2408.8000488281</ele>
        <time>2024-09-13T13:28:07.000Z</time>
      </trkpt>
      <trkpt lat="44.35504" lon="7.12146">
        <ele>2409</ele>
        <time>2024-09-13T13:28:08.000Z</time>
      </trkpt>
      <trkpt lat="44.35503" lon="7.12146">
        <ele>2409.1999511719</ele>
        <time>2024-09-13T13:28:09.000Z</time>
      </trkpt>
      <trkpt lat="44.35502" lon="7.12145">
        <ele>2409.1999511719</ele>
        <time>2024-09-13T13:28:10.000Z</time>
      </trkpt>
      <trkpt lat="44.35501" lon="7.12145">
        <ele>2409.3999023438</ele>
        <time>2024-09-13T13:28:11.000Z</time>
      </trkpt>
      <trkpt lat="44.35499" lon="7.12145">
        <ele>2409.6000976562</ele>
        <time>2024-09-13T13:28:12.000Z</time>
      </trkpt>
      <trkpt lat="44.35498" lon="7.12145">
        <ele>2410</ele>
        <time>2024-09-13T13:28:13.000Z</time>
      </trkpt>
      <trkpt lat="44.35497" lon="7.12144">
        <ele>2410.1999511719</ele>
        <time>2024-09-13T13:28:14.000Z</time>
      </trkpt>
      <trkpt lat="44.35496" lon="7.12143">
        <ele>2410.3999023438</ele>
        <time>2024-09-13T13:28:15.000Z</time>
      </trkpt>
      <trkpt lat="44.35496" lon="7.12142">
        <ele>2410.6000976562</ele>
        <time>2024-09-13T13:28:16.000Z</time>
      </trkpt>
      <trkpt lat="44.35495" lon="7.12142">
        <ele>2410.6000976562</ele>
        <time>2024-09-13T13:28:17.000Z</time>
      </trkpt>
      <trkpt lat="44.35494" lon="7.12141">
        <ele>2410.6000976562</ele>
        <time>2024-09-13T13:28:18.000Z</time>
      </trkpt>
      <trkpt lat="44.35493" lon="7.1214">
        <ele>2410.8000488281</ele>
        <time>2024-09-13T13:28:19.000Z</time>
      </trkpt>
      <trkpt lat="44.35492" lon="7.12138">
        <ele>2410.8000488281</ele>
        <time>2024-09-13T13:28:20.000Z</time>
      </trkpt>
      <trkpt lat="44.35492" lon="7.12137">
        <ele>2410.8000488281</ele>
        <time>2024-09-13T13:28:21.000Z</time>
      </trkpt>
      <trkpt lat="44.35491" lon="7.12136">
        <ele>2411</ele>
        <time>2024-09-13T13:28:22.000Z</time>
      </trkpt>
      <trkpt lat="44.3549" lon="7.12135">
        <ele>2411.1999511719</ele>
        <time>2024-09-13T13:28:23.000Z</time>
      </trkpt>
      <trkpt lat="44.35489" lon="7.12134">
        <ele>2411.3999023438</ele>
        <time>2024-09-13T13:28:24.000Z</time>
      </trkpt>
      <trkpt lat="44.35489" lon="7.12132">
        <ele>2411.3999023438</ele>
        <time>2024-09-13T13:28:25.000Z</time>
      </trkpt>
      <trkpt lat="44.35488" lon="7.12132">
        <ele>2411.6000976562</ele>
        <time>2024-09-13T13:28:26.000Z</time>
      </trkpt>
      <trkpt lat="44.35487" lon="7.12131">
        <ele>2411.8000488281</ele>
        <time>2024-09-13T13:28:27.000Z</time>
      </trkpt>
      <trkpt lat="44.35486" lon="7.12131">
        <ele>2412</ele>
        <time>2024-09-13T13:28:28.000Z</time>
      </trkpt>
      <trkpt lat="44.35485" lon="7.1213">
        <ele>2412.1999511719</ele>
        <time>2024-09-13T13:28:29.000Z</time>
      </trkpt>
      <trkpt lat="44.35484" lon="7.12129">
        <ele>2412.3999023438</ele>
        <time>2024-09-13T13:28:30.000Z</time>
      </trkpt>
      <trkpt lat="44.35482" lon="7.12128">
        <ele>2412.6000976562</ele>
        <time>2024-09-13T13:28:31.000Z</time>
      </trkpt>
      <trkpt lat="44.35481" lon="7.12128">
        <ele>2412.8000488281</ele>
        <time>2024-09-13T13:28:32.000Z</time>
      </trkpt>
      <trkpt lat="44.3548" lon="7.12129">
        <ele>2413</ele>
        <time>2024-09-13T13:28:33.000Z</time>
      </trkpt>
      <trkpt lat="44.35479" lon="7.12129">
        <ele>2413.1999511719</ele>
        <time>2024-09-13T13:28:34.000Z</time>
      </trkpt>
      <trkpt lat="44.35478" lon="7.12128">
        <ele>2413.3999023438</ele>
        <time>2024-09-13T13:28:35.000Z</time>
      </trkpt>
      <trkpt lat="44.35476" lon="7.12128">
        <ele>2413.6000976562</ele>
        <time>2024-09-13T13:28:36.000Z</time>
      </trkpt>
      <trkpt lat="44.35475" lon="7.12128">
        <ele>2413.8000488281</ele>
        <time>2024-09-13T13:28:37.000Z</time>
      </trkpt>
      <trkpt lat="44.35474" lon="7.12127">
        <ele>2414.1999511719</ele>
        <time>2024-09-13T13:28:38.000Z</time>
      </trkpt>
      <trkpt lat="44.35473" lon="7.12127">
        <ele>2414.3999023438</ele>
        <time>2024-09-13T13:28:39.000Z</time>
      </trkpt>
      <trkpt lat="44.35472" lon="7.12126">
        <ele>2414.8000488281</ele>
        <time>2024-09-13T13:28:40.000Z</time>
      </trkpt>
      <trkpt lat="44.35471" lon="7.12126">
        <ele>2415</ele>
        <time>2024-09-13T13:28:41.000Z</time>
      </trkpt>
      <trkpt lat="44.3547" lon="7.12126">
        <ele>2415.1999511719</ele>
        <time>2024-09-13T13:28:42.000Z</time>
      </trkpt>
      <trkpt lat="44.35469" lon="7.12126">
        <ele>2415.3999023438</ele>
        <time>2024-09-13T13:28:43.000Z</time>
      </trkpt>
      <trkpt lat="44.35469" lon="7.12126">
        <ele>2415.6000976562</ele>
        <time>2024-09-13T13:28:44.000Z</time>
      </trkpt>
      <trkpt lat="44.35467" lon="7.12126">
        <ele>2415.8000488281</ele>
        <time>2024-09-13T13:28:45.000Z</time>
      </trkpt>
      <trkpt lat="44.35466" lon="7.12126">
        <ele>2416</ele>
        <time>2024-09-13T13:28:46.000Z</time>
      </trkpt>
      <trkpt lat="44.35465" lon="7.12126">
        <ele>2416.1999511719</ele>
        <time>2024-09-13T13:28:47.000Z</time>
      </trkpt>
      <trkpt lat="44.35464" lon="7.12126">
        <ele>2416.3999023438</ele>
        <time>2024-09-13T13:28:48.000Z</time>
      </trkpt>
      <trkpt lat="44.35463" lon="7.12126">
        <ele>2416.6000976562</ele>
        <time>2024-09-13T13:28:49.000Z</time>
      </trkpt>
      <trkpt lat="44.35462" lon="7.12126">
        <ele>2416.8000488281</ele>
        <time>2024-09-13T13:28:50.000Z</time>
      </trkpt>
      <trkpt lat="44.35461" lon="7.12126">
        <ele>2417</ele>
        <time>2024-09-13T13:28:51.000Z</time>
      </trkpt>
      <trkpt lat="44.3546" lon="7.12125">
        <ele>2417.3999023438</ele>
        <time>2024-09-13T13:28:52.000Z</time>
      </trkpt>
      <trkpt lat="44.35459" lon="7.12125">
        <ele>2417.8000488281</ele>
        <time>2024-09-13T13:28:53.000Z</time>
      </trkpt>
      <trkpt lat="44.35458" lon="7.12124">
        <ele>2418</ele>
        <time>2024-09-13T13:28:54.000Z</time>
      </trkpt>
      <trkpt lat="44.35457" lon="7.12123">
        <ele>2418.1999511719</ele>
        <time>2024-09-13T13:28:55.000Z</time>
      </trkpt>
      <trkpt lat="44.35456" lon="7.12122">
        <ele>2418.3999023438</ele>
        <time>2024-09-13T13:28:56.000Z</time>
      </trkpt>
      <trkpt lat="44.35455" lon="7.12122">
        <ele>2418.3999023438</ele>
        <time>2024-09-13T13:28:57.000Z</time>
      </trkpt>
      <trkpt lat="44.35455" lon="7.12121">
        <ele>2418.3999023438</ele>
        <time>2024-09-13T13:28:58.000Z</time>
      </trkpt>
      <trkpt lat="44.35454" lon="7.12121">
        <ele>2418.6000976562</ele>
        <time>2024-09-13T13:28:59.000Z</time>
      </trkpt>
      <trkpt lat="44.35453" lon="7.12121">
        <ele>2419</ele>
        <time>2024-09-13T13:29:00.000Z</time>
      </trkpt>
      <trkpt lat="44.35452" lon="7.12121">
        <ele>2419.3999023438</ele>
        <time>2024-09-13T13:29:01.000Z</time>
      </trkpt>
      <trkpt lat="44.35451" lon="7.12121">
        <ele>2419.6000976562</ele>
        <time>2024-09-13T13:29:02.000Z</time>
      </trkpt>
      <trkpt lat="44.3545" lon="7.12121">
        <ele>2419.6000976562</ele>
        <time>2024-09-13T13:29:03.000Z</time>
      </trkpt>
      <trkpt lat="44.35449" lon="7.12121">
        <ele>2419.8000488281</ele>
        <time>2024-09-13T13:29:04.000Z</time>
      </trkpt>
      <trkpt lat="44.35448" lon="7.12122">
        <ele>2419.8000488281</ele>
        <time>2024-09-13T13:29:05.000Z</time>
      </trkpt>
      <trkpt lat="44.35447" lon="7.12122">
        <ele>2420</ele>
        <time>2024-09-13T13:29:06.000Z</time>
      </trkpt>
      <trkpt lat="44.35446" lon="7.12123">
        <ele>2420</ele>
        <time>2024-09-13T13:29:07.000Z</time>
      </trkpt>
      <trkpt lat="44.35445" lon="7.12123">
        <ele>2420</ele>
        <time>2024-09-13T13:29:08.000Z</time>
      </trkpt>
      <trkpt lat="44.35444" lon="7.12123">
        <ele>2420.1999511719</ele>
        <time>2024-09-13T13:29:09.000Z</time>
      </trkpt>
      <trkpt lat="44.35443" lon="7.12123">
        <ele>2420.6000976562</ele>
        <time>2024-09-13T13:29:10.000Z</time>
      </trkpt>
      <trkpt lat="44.35442" lon="7.12123">
        <ele>2420.8000488281</ele>
        <time>2024-09-13T13:29:11.000Z</time>
      </trkpt>
      <trkpt lat="44.35441" lon="7.12124">
        <ele>2421.1999511719</ele>
        <time>2024-09-13T13:29:12.000Z</time>
      </trkpt>
      <trkpt lat="44.3544" lon="7.12124">
        <ele>2421.1999511719</ele>
        <time>2024-09-13T13:29:13.000Z</time>
      </trkpt>
      <trkpt lat="44.35439" lon="7.12124">
        <ele>2421.6000976562</ele>
        <time>2024-09-13T13:29:14.000Z</time>
      </trkpt>
      <trkpt lat="44.35438" lon="7.12124">
        <ele>2421.8000488281</ele>
        <time>2024-09-13T13:29:15.000Z</time>
      </trkpt>
      <trkpt lat="44.35438" lon="7.12125">
        <ele>2422</ele>
        <time>2024-09-13T13:29:16.000Z</time>
      </trkpt>
      <trkpt lat="44.35438" lon="7.12125">
        <ele>2422.1999511719</ele>
        <time>2024-09-13T13:29:17.000Z</time>
      </trkpt>
      <trkpt lat="44.35438" lon="7.12125">
        <ele>2423</ele>
        <time>2024-09-13T13:29:19.000Z</time>
      </trkpt>
      <trkpt lat="44.35437" lon="7.12125">
        <ele>2423</ele>
        <time>2024-09-13T13:29:20.000Z</time>
      </trkpt>
      <trkpt lat="44.35437" lon="7.12125">
        <ele>2423.1999511719</ele>
        <time>2024-09-13T13:29:21.000Z</time>
      </trkpt>
      <trkpt lat="44.35436" lon="7.12125">
        <ele>2423.1999511719</ele>
        <time>2024-09-13T13:29:22.000Z</time>
      </trkpt>
      <trkpt lat="44.35435" lon="7.12125">
        <ele>2423.1999511719</ele>
        <time>2024-09-13T13:29:23.000Z</time>
      </trkpt>
      <trkpt lat="44.35434" lon="7.12124">
        <ele>2423.1999511719</ele>
        <time>2024-09-13T13:29:24.000Z</time>
      </trkpt>
      <trkpt lat="44.35433" lon="7.12123">
        <ele>2423.1999511719</ele>
        <time>2024-09-13T13:29:25.000Z</time>
      </trkpt>
      <trkpt lat="44.35432" lon="7.12123">
        <ele>2423.3999023438</ele>
        <time>2024-09-13T13:29:26.000Z</time>
      </trkpt>
      <trkpt lat="44.35432" lon="7.12123">
        <ele>2423.3999023438</ele>
        <time>2024-09-13T13:29:27.000Z</time>
      </trkpt>
      <trkpt lat="44.35431" lon="7.12123">
        <ele>2423.3999023438</ele>
        <time>2024-09-13T13:29:28.000Z</time>
      </trkpt>
      <trkpt lat="44.35431" lon="7.12123">
        <ele>2423.6000976562</ele>
        <time>2024-09-13T13:29:29.000Z</time>
      </trkpt>
      <trkpt lat="44.3543" lon="7.12123">
        <ele>2423.6000976562</ele>
        <time>2024-09-13T13:29:30.000Z</time>
      </trkpt>
      <trkpt lat="44.35429" lon="7.12123">
        <ele>2424</ele>
        <time>2024-09-13T13:29:31.000Z</time>
      </trkpt>
      <trkpt lat="44.35429" lon="7.12122">
        <ele>2424.3999023438</ele>
        <time>2024-09-13T13:29:32.000Z</time>
      </trkpt>
      <trkpt lat="44.35429" lon="7.12123">
        <ele>2424.8000488281</ele>
        <time>2024-09-13T13:29:33.000Z</time>
      </trkpt>
      <trkpt lat="44.35429" lon="7.12122">
        <ele>2425</ele>
        <time>2024-09-13T13:29:34.000Z</time>
      </trkpt>
      <trkpt lat="44.35428" lon="7.12122">
        <ele>2425.1999511719</ele>
        <time>2024-09-13T13:29:35.000Z</time>
      </trkpt>
      <trkpt lat="44.35427" lon="7.12122">
        <ele>2425.3999023438</ele>
        <time>2024-09-13T13:29:36.000Z</time>
      </trkpt>
      <trkpt lat="44.35427" lon="7.12122">
        <ele>2425.3999023438</ele>
        <time>2024-09-13T13:29:37.000Z</time>
      </trkpt>
      <trkpt lat="44.35425" lon="7.12123">
        <ele>2425.6000976562</ele>
        <time>2024-09-13T13:29:38.000Z</time>
      </trkpt>
      <trkpt lat="44.35425" lon="7.12123">
        <ele>2425.8000488281</ele>
        <time>2024-09-13T13:29:39.000Z</time>
      </trkpt>
      <trkpt lat="44.35424" lon="7.12124">
        <ele>2426</ele>
        <time>2024-09-13T13:29:40.000Z</time>
      </trkpt>
      <trkpt lat="44.35423" lon="7.12124">
        <ele>2426.1999511719</ele>
        <time>2024-09-13T13:29:41.000Z</time>
      </trkpt>
      <trkpt lat="44.35422" lon="7.12124">
        <ele>2426.6000976562</ele>
        <time>2024-09-13T13:29:42.000Z</time>
      </trkpt>
      <trkpt lat="44.35421" lon="7.12125">
        <ele>2426.8000488281</ele>
        <time>2024-09-13T13:29:43.000Z</time>
      </trkpt>
      <trkpt lat="44.3542" lon="7.12125">
        <ele>2426.8000488281</ele>
        <time>2024-09-13T13:29:44.000Z</time>
      </trkpt>
      <trkpt lat="44.3542" lon="7.12125">
        <ele>2427</ele>
        <time>2024-09-13T13:29:45.000Z</time>
      </trkpt>
      <trkpt lat="44.35419" lon="7.12126">
        <ele>2427</ele>
        <time>2024-09-13T13:29:46.000Z</time>
      </trkpt>
      <trkpt lat="44.35418" lon="7.12126">
        <ele>2427</ele>
        <time>2024-09-13T13:29:47.000Z</time>
      </trkpt>
      <trkpt lat="44.35418" lon="7.12126">
        <ele>2427</ele>
        <time>2024-09-13T13:29:48.000Z</time>
      </trkpt>
      <trkpt lat="44.35417" lon="7.12126">
        <ele>2427.1999511719</ele>
        <time>2024-09-13T13:29:49.000Z</time>
      </trkpt>
      <trkpt lat="44.35417" lon="7.12127">
        <ele>2427.1999511719</ele>
        <time>2024-09-13T13:29:50.000Z</time>
      </trkpt>
      <trkpt lat="44.35416" lon="7.12128">
        <ele>2427.3999023438</ele>
        <time>2024-09-13T13:29:51.000Z</time>
      </trkpt>
      <trkpt lat="44.35415" lon="7.12129">
        <ele>2427.6000976562</ele>
        <time>2024-09-13T13:29:52.000Z</time>
      </trkpt>
      <trkpt lat="44.35415" lon="7.12129">
        <ele>2427.8000488281</ele>
        <time>2024-09-13T13:29:53.000Z</time>
      </trkpt>
      <trkpt lat="44.35415" lon="7.1213">
        <ele>2428</ele>
        <time>2024-09-13T13:29:54.000Z</time>
      </trkpt>
      <trkpt lat="44.35414" lon="7.1213">
        <ele>2428.6000976562</ele>
        <time>2024-09-13T13:29:55.000Z</time>
      </trkpt>
      <trkpt lat="44.35413" lon="7.12131">
        <ele>2428.6000976562</ele>
        <time>2024-09-13T13:29:56.000Z</time>
      </trkpt>
      <trkpt lat="44.35412" lon="7.12131">
        <ele>2428.8000488281</ele>
        <time>2024-09-13T13:29:57.000Z</time>
      </trkpt>
      <trkpt lat="44.35412" lon="7.12131">
        <ele>2428.8000488281</ele>
        <time>2024-09-13T13:29:58.000Z</time>
      </trkpt>
      <trkpt lat="44.35411" lon="7.12132">
        <ele>2429</ele>
        <time>2024-09-13T13:29:59.000Z</time>
      </trkpt>
      <trkpt lat="44.3541" lon="7.12132">
        <ele>2429.1999511719</ele>
        <time>2024-09-13T13:30:00.000Z</time>
      </trkpt>
      <trkpt lat="44.3541" lon="7.12132">
        <ele>2429.3999023438</ele>
        <time>2024-09-13T13:30:01.000Z</time>
      </trkpt>
      <trkpt lat="44.35409" lon="7.12132">
        <ele>2429.6000976562</ele>
        <time>2024-09-13T13:30:02.000Z</time>
      </trkpt>
      <trkpt lat="44.35409" lon="7.12133">
        <ele>2430</ele>
        <time>2024-09-13T13:30:03.000Z</time>
      </trkpt>
      <trkpt lat="44.35408" lon="7.12133">
        <ele>2430.3999023438</ele>
        <time>2024-09-13T13:30:04.000Z</time>
      </trkpt>
      <trkpt lat="44.35407" lon="7.12133">
        <ele>2430.6000976562</ele>
        <time>2024-09-13T13:30:05.000Z</time>
      </trkpt>
      <trkpt lat="44.35407" lon="7.12133">
        <ele>2430.6000976562</ele>
        <time>2024-09-13T13:30:06.000Z</time>
      </trkpt>
      <trkpt lat="44.35407" lon="7.12132">
        <ele>2430.6000976562</ele>
        <time>2024-09-13T13:30:07.000Z</time>
      </trkpt>
      <trkpt lat="44.35407" lon="7.12133">
        <ele>2430.8000488281</ele>
        <time>2024-09-13T13:30:08.000Z</time>
      </trkpt>
      <trkpt lat="44.35406" lon="7.12133">
        <ele>2431</ele>
        <time>2024-09-13T13:30:09.000Z</time>
      </trkpt>
      <trkpt lat="44.35405" lon="7.12133">
        <ele>2431.1999511719</ele>
        <time>2024-09-13T13:30:10.000Z</time>
      </trkpt>
      <trkpt lat="44.35405" lon="7.12133">
        <ele>2431.3999023438</ele>
        <time>2024-09-13T13:30:11.000Z</time>
      </trkpt>
      <trkpt lat="44.35404" lon="7.12133">
        <ele>2431.6000976562</ele>
        <time>2024-09-13T13:30:12.000Z</time>
      </trkpt>
      <trkpt lat="44.35402" lon="7.12133">
        <ele>2431.8000488281</ele>
        <time>2024-09-13T13:30:13.000Z</time>
      </trkpt>
      <trkpt lat="44.35402" lon="7.12133">
        <ele>2432.1999511719</ele>
        <time>2024-09-13T13:30:14.000Z</time>
      </trkpt>
      <trkpt lat="44.35401" lon="7.12133">
        <ele>2432.1999511719</ele>
        <time>2024-09-13T13:30:15.000Z</time>
      </trkpt>
      <trkpt lat="44.354" lon="7.12133">
        <ele>2432.3999023438</ele>
        <time>2024-09-13T13:30:16.000Z</time>
      </trkpt>
      <trkpt lat="44.35398" lon="7.12134">
        <ele>2432.3999023438</ele>
        <time>2024-09-13T13:30:17.000Z</time>
      </trkpt>
      <trkpt lat="44.35397" lon="7.12134">
        <ele>2432.8000488281</ele>
        <time>2024-09-13T13:30:18.000Z</time>
      </trkpt>
      <trkpt lat="44.35397" lon="7.12135">
        <ele>2433</ele>
        <time>2024-09-13T13:30:19.000Z</time>
      </trkpt>
      <trkpt lat="44.35396" lon="7.12135">
        <ele>2433</ele>
        <time>2024-09-13T13:30:20.000Z</time>
      </trkpt>
      <trkpt lat="44.35396" lon="7.12135">
        <ele>2433.1999511719</ele>
        <time>2024-09-13T13:30:21.000Z</time>
      </trkpt>
      <trkpt lat="44.35395" lon="7.12135">
        <ele>2433.3999023438</ele>
        <time>2024-09-13T13:30:22.000Z</time>
      </trkpt>
      <trkpt lat="44.35394" lon="7.12135">
        <ele>2433.6000976562</ele>
        <time>2024-09-13T13:30:23.000Z</time>
      </trkpt>
      <trkpt lat="44.35393" lon="7.12135">
        <ele>2433.6000976562</ele>
        <time>2024-09-13T13:30:24.000Z</time>
      </trkpt>
      <trkpt lat="44.35392" lon="7.12135">
        <ele>2433.8000488281</ele>
        <time>2024-09-13T13:30:25.000Z</time>
      </trkpt>
      <trkpt lat="44.35391" lon="7.12135">
        <ele>2434</ele>
        <time>2024-09-13T13:30:26.000Z</time>
      </trkpt>
      <trkpt lat="44.3539" lon="7.12135">
        <ele>2434.1999511719</ele>
        <time>2024-09-13T13:30:27.000Z</time>
      </trkpt>
      <trkpt lat="44.35389" lon="7.12135">
        <ele>2434.3999023438</ele>
        <time>2024-09-13T13:30:28.000Z</time>
      </trkpt>
      <trkpt lat="44.35389" lon="7.12135">
        <ele>2434.3999023438</ele>
        <time>2024-09-13T13:30:29.000Z</time>
      </trkpt>
      <trkpt lat="44.35388" lon="7.12135">
        <ele>2434.8000488281</ele>
        <time>2024-09-13T13:30:30.000Z</time>
      </trkpt>
      <trkpt lat="44.35388" lon="7.12135">
        <ele>2434.8000488281</ele>
        <time>2024-09-13T13:30:31.000Z</time>
      </trkpt>
      <trkpt lat="44.35387" lon="7.12135">
        <ele>2435</ele>
        <time>2024-09-13T13:30:32.000Z</time>
      </trkpt>
      <trkpt lat="44.35387" lon="7.12136">
        <ele>2435.3999023438</ele>
        <time>2024-09-13T13:30:33.000Z</time>
      </trkpt>
      <trkpt lat="44.35386" lon="7.12136">
        <ele>2435.3999023438</ele>
        <time>2024-09-13T13:30:34.000Z</time>
      </trkpt>
      <trkpt lat="44.35385" lon="7.12136">
        <ele>2435.6000976562</ele>
        <time>2024-09-13T13:30:35.000Z</time>
      </trkpt>
      <trkpt lat="44.35385" lon="7.12136">
        <ele>2435.8000488281</ele>
        <time>2024-09-13T13:30:36.000Z</time>
      </trkpt>
      <trkpt lat="44.35384" lon="7.12137">
        <ele>2436</ele>
        <time>2024-09-13T13:30:37.000Z</time>
      </trkpt>
      <trkpt lat="44.35383" lon="7.12136">
        <ele>2436.1999511719</ele>
        <time>2024-09-13T13:30:38.000Z</time>
      </trkpt>
      <trkpt lat="44.35382" lon="7.12136">
        <ele>2436.6000976562</ele>
        <time>2024-09-13T13:30:39.000Z</time>
      </trkpt>
      <trkpt lat="44.35382" lon="7.12136">
        <ele>2436.6000976562</ele>
        <time>2024-09-13T13:30:40.000Z</time>
      </trkpt>
      <trkpt lat="44.35381" lon="7.12136">
        <ele>2436.8000488281</ele>
        <time>2024-09-13T13:30:41.000Z</time>
      </trkpt>
      <trkpt lat="44.3538" lon="7.12136">
        <ele>2436.8000488281</ele>
        <time>2024-09-13T13:30:42.000Z</time>
      </trkpt>
      <trkpt lat="44.35379" lon="7.12136">
        <ele>2437</ele>
        <time>2024-09-13T13:30:43.000Z</time>
      </trkpt>
      <trkpt lat="44.35378" lon="7.12136">
        <ele>2437.1999511719</ele>
        <time>2024-09-13T13:30:44.000Z</time>
      </trkpt>
      <trkpt lat="44.35378" lon="7.12136">
        <ele>2437.3999023438</ele>
        <time>2024-09-13T13:30:45.000Z</time>
      </trkpt>
      <trkpt lat="44.35377" lon="7.12136">
        <ele>2437.6000976562</ele>
        <time>2024-09-13T13:30:46.000Z</time>
      </trkpt>
      <trkpt lat="44.35376" lon="7.12136">
        <ele>2438</ele>
        <time>2024-09-13T13:30:47.000Z</time>
      </trkpt>
      <trkpt lat="44.35375" lon="7.12136">
        <ele>2438.1999511719</ele>
        <time>2024-09-13T13:30:48.000Z</time>
      </trkpt>
      <trkpt lat="44.35374" lon="7.12137">
        <ele>2438.8000488281</ele>
        <time>2024-09-13T13:30:49.000Z</time>
      </trkpt>
      <trkpt lat="44.35374" lon="7.12137">
        <ele>2439</ele>
        <time>2024-09-13T13:30:50.000Z</time>
      </trkpt>
      <trkpt lat="44.35372" lon="7.12137">
        <ele>2439.1999511719</ele>
        <time>2024-09-13T13:30:51.000Z</time>
      </trkpt>
      <trkpt lat="44.35371" lon="7.12137">
        <ele>2439.1999511719</ele>
        <time>2024-09-13T13:30:52.000Z</time>
      </trkpt>
      <trkpt lat="44.3537" lon="7.12137">
        <ele>2439.1999511719</ele>
        <time>2024-09-13T13:30:53.000Z</time>
      </trkpt>
      <trkpt lat="44.35369" lon="7.12137">
        <ele>2439.6000976562</ele>
        <time>2024-09-13T13:30:54.000Z</time>
      </trkpt>
      <trkpt lat="44.35368" lon="7.12137">
        <ele>2439.6000976562</ele>
        <time>2024-09-13T13:30:55.000Z</time>
      </trkpt>
      <trkpt lat="44.35366" lon="7.12137">
        <ele>2440</ele>
        <time>2024-09-13T13:30:56.000Z</time>
      </trkpt>
      <trkpt lat="44.35365" lon="7.12138">
        <ele>2440.1999511719</ele>
        <time>2024-09-13T13:30:57.000Z</time>
      </trkpt>
      <trkpt lat="44.35365" lon="7.12138">
        <ele>2440.1999511719</ele>
        <time>2024-09-13T13:30:58.000Z</time>
      </trkpt>
      <trkpt lat="44.35364" lon="7.12138">
        <ele>2440.3999023438</ele>
        <time>2024-09-13T13:30:59.000Z</time>
      </trkpt>
      <trkpt lat="44.35363" lon="7.12138">
        <ele>2440.3999023438</ele>
        <time>2024-09-13T13:31:00.000Z</time>
      </trkpt>
      <trkpt lat="44.35363" lon="7.12138">
        <ele>2440.6000976562</ele>
        <time>2024-09-13T13:31:01.000Z</time>
      </trkpt>
      <trkpt lat="44.35361" lon="7.12138">
        <ele>2440.6000976562</ele>
        <time>2024-09-13T13:31:02.000Z</time>
      </trkpt>
      <trkpt lat="44.3536" lon="7.12138">
        <ele>2440.6000976562</ele>
        <time>2024-09-13T13:31:03.000Z</time>
      </trkpt>
      <trkpt lat="44.3536" lon="7.12138">
        <ele>2440.8000488281</ele>
        <time>2024-09-13T13:31:04.000Z</time>
      </trkpt>
      <trkpt lat="44.35359" lon="7.12137">
        <ele>2440.8000488281</ele>
        <time>2024-09-13T13:31:05.000Z</time>
      </trkpt>
      <trkpt lat="44.35358" lon="7.12137">
        <ele>2440.8000488281</ele>
        <time>2024-09-13T13:31:06.000Z</time>
      </trkpt>
      <trkpt lat="44.35357" lon="7.12137">
        <ele>2441</ele>
        <time>2024-09-13T13:31:07.000Z</time>
      </trkpt>
      <trkpt lat="44.35356" lon="7.12137">
        <ele>2441</ele>
        <time>2024-09-13T13:31:08.000Z</time>
      </trkpt>
      <trkpt lat="44.35356" lon="7.12137">
        <ele>2441</ele>
        <time>2024-09-13T13:31:09.000Z</time>
      </trkpt>
      <trkpt lat="44.35355" lon="7.12138">
        <ele>2441</ele>
        <time>2024-09-13T13:31:10.000Z</time>
      </trkpt>
      <trkpt lat="44.35355" lon="7.12138">
        <ele>2441.1999511719</ele>
        <time>2024-09-13T13:31:11.000Z</time>
      </trkpt>
      <trkpt lat="44.35355" lon="7.12138">
        <ele>2441.3999023438</ele>
        <time>2024-09-13T13:31:12.000Z</time>
      </trkpt>
      <trkpt lat="44.35354" lon="7.12139">
        <ele>2441.3999023438</ele>
        <time>2024-09-13T13:31:13.000Z</time>
      </trkpt>
      <trkpt lat="44.35354" lon="7.1214">
        <ele>2441.3999023438</ele>
        <time>2024-09-13T13:31:14.000Z</time>
      </trkpt>
      <trkpt lat="44.35353" lon="7.12141">
        <ele>2441.6000976562</ele>
        <time>2024-09-13T13:31:15.000Z</time>
      </trkpt>
      <trkpt lat="44.35353" lon="7.12141">
        <ele>2441.6000976562</ele>
        <time>2024-09-13T13:31:16.000Z</time>
      </trkpt>
      <trkpt lat="44.35353" lon="7.12141">
        <ele>2441.6000976562</ele>
        <time>2024-09-13T13:31:18.000Z</time>
      </trkpt>
      <trkpt lat="44.35354" lon="7.12143">
        <ele>2441.3999023438</ele>
        <time>2024-09-13T13:31:22.000Z</time>
      </trkpt>
      <trkpt lat="44.35354" lon="7.12142">
        <ele>2441.1999511719</ele>
        <time>2024-09-13T13:31:28.000Z</time>
      </trkpt>
      <trkpt lat="44.35354" lon="7.12141">
        <ele>2441.1999511719</ele>
        <time>2024-09-13T13:31:32.000Z</time>
      </trkpt>
      <trkpt lat="44.35353" lon="7.12142">
        <ele>2441.1999511719</ele>
        <time>2024-09-13T13:31:35.000Z</time>
      </trkpt>
      <trkpt lat="44.35349" lon="7.12144">
        <ele>2441.1999511719</ele>
        <time>2024-09-13T13:31:38.000Z</time>
      </trkpt>
      <trkpt lat="44.35348" lon="7.12145">
        <ele>2441.3999023438</ele>
        <time>2024-09-13T13:31:39.000Z</time>
      </trkpt>
      <trkpt lat="44.35348" lon="7.12146">
        <ele>2441.3999023438</ele>
        <time>2024-09-13T13:31:40.000Z</time>
      </trkpt>
      <trkpt lat="44.35347" lon="7.12146">
        <ele>2441.6000976562</ele>
        <time>2024-09-13T13:31:41.000Z</time>
      </trkpt>
      <trkpt lat="44.35346" lon="7.12147">
        <ele>2441.6000976562</ele>
        <time>2024-09-13T13:31:42.000Z</time>
      </trkpt>
      <trkpt lat="44.35345" lon="7.12147">
        <ele>2442</ele>
        <time>2024-09-13T13:31:43.000Z</time>
      </trkpt>
      <trkpt lat="44.35344" lon="7.12148">
        <ele>2442.3999023438</ele>
        <time>2024-09-13T13:31:44.000Z</time>
      </trkpt>
      <trkpt lat="44.35343" lon="7.12148">
        <ele>2442.6000976562</ele>
        <time>2024-09-13T13:31:45.000Z</time>
      </trkpt>
      <trkpt lat="44.35343" lon="7.12149">
        <ele>2443</ele>
        <time>2024-09-13T13:31:46.000Z</time>
      </trkpt>
      <trkpt lat="44.35342" lon="7.12149">
        <ele>2443</ele>
        <time>2024-09-13T13:31:47.000Z</time>
      </trkpt>
      <trkpt lat="44.35342" lon="7.12149">
        <ele>2443.1999511719</ele>
        <time>2024-09-13T13:31:48.000Z</time>
      </trkpt>
      <trkpt lat="44.35342" lon="7.12148">
        <ele>2443.1999511719</ele>
        <time>2024-09-13T13:31:49.000Z</time>
      </trkpt>
      <trkpt lat="44.35342" lon="7.12147">
        <ele>2443.1999511719</ele>
        <time>2024-09-13T13:31:50.000Z</time>
      </trkpt>
      <trkpt lat="44.35343" lon="7.12149">
        <ele>2443.1999511719</ele>
        <time>2024-09-13T13:31:54.000Z</time>
      </trkpt>
      <trkpt lat="44.35344" lon="7.1215">
        <ele>2442.8000488281</ele>
        <time>2024-09-13T13:31:55.000Z</time>
      </trkpt>
      <trkpt lat="44.35341" lon="7.12152">
        <ele>2442.8000488281</ele>
        <time>2024-09-13T13:32:01.000Z</time>
      </trkpt>
      <trkpt lat="44.35339" lon="7.12154">
        <ele>2443</ele>
        <time>2024-09-13T13:32:03.000Z</time>
      </trkpt>
      <trkpt lat="44.35338" lon="7.12154">
        <ele>2443</ele>
        <time>2024-09-13T13:32:04.000Z</time>
      </trkpt>
      <trkpt lat="44.35337" lon="7.12155">
        <ele>2443</ele>
        <time>2024-09-13T13:32:05.000Z</time>
      </trkpt>
      <trkpt lat="44.35337" lon="7.12156">
        <ele>2443.3999023438</ele>
        <time>2024-09-13T13:32:06.000Z</time>
      </trkpt>
      <trkpt lat="44.35336" lon="7.12157">
        <ele>2443.6000976562</ele>
        <time>2024-09-13T13:32:07.000Z</time>
      </trkpt>
      <trkpt lat="44.35337" lon="7.12157">
        <ele>2443.6000976562</ele>
        <time>2024-09-13T13:32:08.000Z</time>
      </trkpt>
      <trkpt lat="44.35336" lon="7.12158">
        <ele>2443.6000976562</ele>
        <time>2024-09-13T13:32:09.000Z</time>
      </trkpt>
      <trkpt lat="44.35335" lon="7.12159">
        <ele>2443.8000488281</ele>
        <time>2024-09-13T13:32:11.000Z</time>
      </trkpt>
      <trkpt lat="44.35333" lon="7.1216">
        <ele>2444</ele>
        <time>2024-09-13T13:32:13.000Z</time>
      </trkpt>
      <trkpt lat="44.35331" lon="7.1216">
        <ele>2443.8000488281</ele>
        <time>2024-09-13T13:32:14.000Z</time>
      </trkpt>
      <trkpt lat="44.35331" lon="7.12161">
        <ele>2444</ele>
        <time>2024-09-13T13:32:15.000Z</time>
      </trkpt>
      <trkpt lat="44.3533" lon="7.12161">
        <ele>2444.3999023438</ele>
        <time>2024-09-13T13:32:16.000Z</time>
      </trkpt>
      <trkpt lat="44.35329" lon="7.12162">
        <ele>2445</ele>
        <time>2024-09-13T13:32:18.000Z</time>
      </trkpt>
      <trkpt lat="44.35328" lon="7.12163">
        <ele>2445.1999511719</ele>
        <time>2024-09-13T13:32:20.000Z</time>
      </trkpt>
      <trkpt lat="44.35327" lon="7.12164">
        <ele>2445.3999023438</ele>
        <time>2024-09-13T13:32:21.000Z</time>
      </trkpt>
      <trkpt lat="44.35327" lon="7.12164">
        <ele>2445.6000976562</ele>
        <time>2024-09-13T13:32:22.000Z</time>
      </trkpt>
      <trkpt lat="44.35326" lon="7.12164">
        <ele>2445.8000488281</ele>
        <time>2024-09-13T13:32:23.000Z</time>
      </trkpt>
      <trkpt lat="44.35325" lon="7.12165">
        <ele>2445.8000488281</ele>
        <time>2024-09-13T13:32:24.000Z</time>
      </trkpt>
      <trkpt lat="44.35324" lon="7.12165">
        <ele>2446.1999511719</ele>
        <time>2024-09-13T13:32:25.000Z</time>
      </trkpt>
      <trkpt lat="44.35323" lon="7.12166">
        <ele>2446.1999511719</ele>
        <time>2024-09-13T13:32:26.000Z</time>
      </trkpt>
      <trkpt lat="44.35323" lon="7.12167">
        <ele>2446.1999511719</ele>
        <time>2024-09-13T13:32:27.000Z</time>
      </trkpt>
      <trkpt lat="44.35322" lon="7.12167">
        <ele>2446.1999511719</ele>
        <time>2024-09-13T13:32:28.000Z</time>
      </trkpt>
      <trkpt lat="44.35322" lon="7.12168">
        <ele>2446.1999511719</ele>
        <time>2024-09-13T13:32:29.000Z</time>
      </trkpt>
      <trkpt lat="44.35322" lon="7.12168">
        <ele>2446.3999023438</ele>
        <time>2024-09-13T13:32:30.000Z</time>
      </trkpt>
      <trkpt lat="44.35321" lon="7.12168">
        <ele>2446.6000976562</ele>
        <time>2024-09-13T13:32:31.000Z</time>
      </trkpt>
      <trkpt lat="44.35321" lon="7.12169">
        <ele>2446.8000488281</ele>
        <time>2024-09-13T13:32:32.000Z</time>
      </trkpt>
      <trkpt lat="44.3532" lon="7.12169">
        <ele>2446.8000488281</ele>
        <time>2024-09-13T13:32:33.000Z</time>
      </trkpt>
      <trkpt lat="44.35319" lon="7.12169">
        <ele>2447</ele>
        <time>2024-09-13T13:32:34.000Z</time>
      </trkpt>
      <trkpt lat="44.35318" lon="7.1217">
        <ele>2447.1999511719</ele>
        <time>2024-09-13T13:32:35.000Z</time>
      </trkpt>
      <trkpt lat="44.35317" lon="7.1217">
        <ele>2447.1999511719</ele>
        <time>2024-09-13T13:32:36.000Z</time>
      </trkpt>
      <trkpt lat="44.35317" lon="7.1217">
        <ele>2447.1999511719</ele>
        <time>2024-09-13T13:32:37.000Z</time>
      </trkpt>
      <trkpt lat="44.35317" lon="7.12171">
        <ele>2447.6000976562</ele>
        <time>2024-09-13T13:32:38.000Z</time>
      </trkpt>
      <trkpt lat="44.35316" lon="7.1217">
        <ele>2447.8000488281</ele>
        <time>2024-09-13T13:32:39.000Z</time>
      </trkpt>
      <trkpt lat="44.35315" lon="7.1217">
        <ele>2447.8000488281</ele>
        <time>2024-09-13T13:32:40.000Z</time>
      </trkpt>
      <trkpt lat="44.35314" lon="7.1217">
        <ele>2447.8000488281</ele>
        <time>2024-09-13T13:32:41.000Z</time>
      </trkpt>
      <trkpt lat="44.35314" lon="7.12171">
        <ele>2447.8000488281</ele>
        <time>2024-09-13T13:32:42.000Z</time>
      </trkpt>
      <trkpt lat="44.35313" lon="7.12171">
        <ele>2447.8000488281</ele>
        <time>2024-09-13T13:32:43.000Z</time>
      </trkpt>
      <trkpt lat="44.35312" lon="7.12171">
        <ele>2447.8000488281</ele>
        <time>2024-09-13T13:32:44.000Z</time>
      </trkpt>
      <trkpt lat="44.35312" lon="7.12172">
        <ele>2447.8000488281</ele>
        <time>2024-09-13T13:32:45.000Z</time>
      </trkpt>
      <trkpt lat="44.35312" lon="7.12173">
        <ele>2447.8000488281</ele>
        <time>2024-09-13T13:32:46.000Z</time>
      </trkpt>
      <trkpt lat="44.35311" lon="7.12173">
        <ele>2448</ele>
        <time>2024-09-13T13:32:47.000Z</time>
      </trkpt>
      <trkpt lat="44.35311" lon="7.12174">
        <ele>2448</ele>
        <time>2024-09-13T13:32:48.000Z</time>
      </trkpt>
      <trkpt lat="44.3531" lon="7.12174">
        <ele>2448</ele>
        <time>2024-09-13T13:32:49.000Z</time>
      </trkpt>
      <trkpt lat="44.35308" lon="7.12174">
        <ele>2448.1999511719</ele>
        <time>2024-09-13T13:32:50.000Z</time>
      </trkpt>
      <trkpt lat="44.35307" lon="7.12175">
        <ele>2448.3999023438</ele>
        <time>2024-09-13T13:32:51.000Z</time>
      </trkpt>
      <trkpt lat="44.35305" lon="7.12175">
        <ele>2448.6000976562</ele>
        <time>2024-09-13T13:32:53.000Z</time>
      </trkpt>
      <trkpt lat="44.35304" lon="7.12175">
        <ele>2448.6000976562</ele>
        <time>2024-09-13T13:32:54.000Z</time>
      </trkpt>
      <trkpt lat="44.35304" lon="7.12175">
        <ele>2448.8000488281</ele>
        <time>2024-09-13T13:32:55.000Z</time>
      </trkpt>
      <trkpt lat="44.35303" lon="7.12175">
        <ele>2449</ele>
        <time>2024-09-13T13:32:56.000Z</time>
      </trkpt>
      <trkpt lat="44.35302" lon="7.12175">
        <ele>2449.3999023438</ele>
        <time>2024-09-13T13:32:57.000Z</time>
      </trkpt>
      <trkpt lat="44.35301" lon="7.12175">
        <ele>2449.8000488281</ele>
        <time>2024-09-13T13:32:58.000Z</time>
      </trkpt>
      <trkpt lat="44.353" lon="7.12175">
        <ele>2449.8000488281</ele>
        <time>2024-09-13T13:32:59.000Z</time>
      </trkpt>
      <trkpt lat="44.353" lon="7.12175">
        <ele>2450</ele>
        <time>2024-09-13T13:33:00.000Z</time>
      </trkpt>
      <trkpt lat="44.353" lon="7.12176">
        <ele>2450</ele>
        <time>2024-09-13T13:33:01.000Z</time>
      </trkpt>
      <trkpt lat="44.35299" lon="7.12176">
        <ele>2450.3999023438</ele>
        <time>2024-09-13T13:33:02.000Z</time>
      </trkpt>
      <trkpt lat="44.35298" lon="7.12176">
        <ele>2450.3999023438</ele>
        <time>2024-09-13T13:33:03.000Z</time>
      </trkpt>
      <trkpt lat="44.35297" lon="7.12176">
        <ele>2450.8000488281</ele>
        <time>2024-09-13T13:33:04.000Z</time>
      </trkpt>
      <trkpt lat="44.35297" lon="7.12177">
        <ele>2451</ele>
        <time>2024-09-13T13:33:05.000Z</time>
      </trkpt>
      <trkpt lat="44.35296" lon="7.12177">
        <ele>2451.1999511719</ele>
        <time>2024-09-13T13:33:06.000Z</time>
      </trkpt>
      <trkpt lat="44.35295" lon="7.12177">
        <ele>2451.1999511719</ele>
        <time>2024-09-13T13:33:07.000Z</time>
      </trkpt>
      <trkpt lat="44.35294" lon="7.12177">
        <ele>2451.1999511719</ele>
        <time>2024-09-13T13:33:08.000Z</time>
      </trkpt>
      <trkpt lat="44.35292" lon="7.12177">
        <ele>2451.3999023438</ele>
        <time>2024-09-13T13:33:09.000Z</time>
      </trkpt>
      <trkpt lat="44.35292" lon="7.12177">
        <ele>2451.6000976562</ele>
        <time>2024-09-13T13:33:10.000Z</time>
      </trkpt>
      <trkpt lat="44.35291" lon="7.12177">
        <ele>2451.8000488281</ele>
        <time>2024-09-13T13:33:11.000Z</time>
      </trkpt>
      <trkpt lat="44.3529" lon="7.12177">
        <ele>2452</ele>
        <time>2024-09-13T13:33:12.000Z</time>
      </trkpt>
      <trkpt lat="44.3529" lon="7.12177">
        <ele>2452</ele>
        <time>2024-09-13T13:33:13.000Z</time>
      </trkpt>
      <trkpt lat="44.35289" lon="7.12177">
        <ele>2452.1999511719</ele>
        <time>2024-09-13T13:33:14.000Z</time>
      </trkpt>
      <trkpt lat="44.35288" lon="7.12177">
        <ele>2452.1999511719</ele>
        <time>2024-09-13T13:33:15.000Z</time>
      </trkpt>
      <trkpt lat="44.35287" lon="7.12177">
        <ele>2452.6000976562</ele>
        <time>2024-09-13T13:33:16.000Z</time>
      </trkpt>
      <trkpt lat="44.35287" lon="7.12178">
        <ele>2452.8000488281</ele>
        <time>2024-09-13T13:33:17.000Z</time>
      </trkpt>
      <trkpt lat="44.35286" lon="7.12178">
        <ele>2453</ele>
        <time>2024-09-13T13:33:18.000Z</time>
      </trkpt>
      <trkpt lat="44.35285" lon="7.12178">
        <ele>2453</ele>
        <time>2024-09-13T13:33:19.000Z</time>
      </trkpt>
      <trkpt lat="44.35285" lon="7.12178">
        <ele>2453</ele>
        <time>2024-09-13T13:33:20.000Z</time>
      </trkpt>
      <trkpt lat="44.35284" lon="7.12179">
        <ele>2453.3999023438</ele>
        <time>2024-09-13T13:33:21.000Z</time>
      </trkpt>
      <trkpt lat="44.35284" lon="7.12179">
        <ele>2453.6000976562</ele>
        <time>2024-09-13T13:33:22.000Z</time>
      </trkpt>
      <trkpt lat="44.35284" lon="7.1218">
        <ele>2454</ele>
        <time>2024-09-13T13:33:23.000Z</time>
      </trkpt>
      <trkpt lat="44.35284" lon="7.1218">
        <ele>2454.3999023438</ele>
        <time>2024-09-13T13:33:24.000Z</time>
      </trkpt>
      <trkpt lat="44.35283" lon="7.1218">
        <ele>2454.6000976562</ele>
        <time>2024-09-13T13:33:25.000Z</time>
      </trkpt>
      <trkpt lat="44.35283" lon="7.12181">
        <ele>2454.8000488281</ele>
        <time>2024-09-13T13:33:26.000Z</time>
      </trkpt>
      <trkpt lat="44.35282" lon="7.12182">
        <ele>2455</ele>
        <time>2024-09-13T13:33:27.000Z</time>
      </trkpt>
      <trkpt lat="44.35282" lon="7.12183">
        <ele>2455</ele>
        <time>2024-09-13T13:33:28.000Z</time>
      </trkpt>
      <trkpt lat="44.35281" lon="7.12184">
        <ele>2455</ele>
        <time>2024-09-13T13:33:29.000Z</time>
      </trkpt>
      <trkpt lat="44.3528" lon="7.12183">
        <ele>2455</ele>
        <time>2024-09-13T13:33:30.000Z</time>
      </trkpt>
      <trkpt lat="44.35279" lon="7.12183">
        <ele>2455</ele>
        <time>2024-09-13T13:33:31.000Z</time>
      </trkpt>
      <trkpt lat="44.35277" lon="7.12183">
        <ele>2455</ele>
        <time>2024-09-13T13:33:32.000Z</time>
      </trkpt>
      <trkpt lat="44.35277" lon="7.12183">
        <ele>2455.1999511719</ele>
        <time>2024-09-13T13:33:33.000Z</time>
      </trkpt>
      <trkpt lat="44.35276" lon="7.12182">
        <ele>2455.3999023438</ele>
        <time>2024-09-13T13:33:34.000Z</time>
      </trkpt>
      <trkpt lat="44.35276" lon="7.12181">
        <ele>2456</ele>
        <time>2024-09-13T13:33:35.000Z</time>
      </trkpt>
      <trkpt lat="44.35277" lon="7.12179">
        <ele>2456.3999023438</ele>
        <time>2024-09-13T13:33:36.000Z</time>
      </trkpt>
      <trkpt lat="44.35277" lon="7.12178">
        <ele>2456.6000976562</ele>
        <time>2024-09-13T13:33:37.000Z</time>
      </trkpt>
      <trkpt lat="44.35278" lon="7.12177">
        <ele>2456.6000976562</ele>
        <time>2024-09-13T13:33:38.000Z</time>
      </trkpt>
      <trkpt lat="44.35278" lon="7.12176">
        <ele>2457</ele>
        <time>2024-09-13T13:33:39.000Z</time>
      </trkpt>
      <trkpt lat="44.35279" lon="7.12174">
        <ele>2457.6000976562</ele>
        <time>2024-09-13T13:33:40.000Z</time>
      </trkpt>
      <trkpt lat="44.35279" lon="7.12173">
        <ele>2458.1999511719</ele>
        <time>2024-09-13T13:33:41.000Z</time>
      </trkpt>
      <trkpt lat="44.35279" lon="7.12172">
        <ele>2458.6000976562</ele>
        <time>2024-09-13T13:33:42.000Z</time>
      </trkpt>
      <trkpt lat="44.35279" lon="7.12171">
        <ele>2459</ele>
        <time>2024-09-13T13:33:43.000Z</time>
      </trkpt>
      <trkpt lat="44.3528" lon="7.1217">
        <ele>2459.1999511719</ele>
        <time>2024-09-13T13:33:44.000Z</time>
      </trkpt>
      <trkpt lat="44.3528" lon="7.12168">
        <ele>2459.3999023438</ele>
        <time>2024-09-13T13:33:45.000Z</time>
      </trkpt>
      <trkpt lat="44.3528" lon="7.12168">
        <ele>2459.6000976562</ele>
        <time>2024-09-13T13:33:46.000Z</time>
      </trkpt>
      <trkpt lat="44.3528" lon="7.12168">
        <ele>2459.8000488281</ele>
        <time>2024-09-13T13:33:47.000Z</time>
      </trkpt>
      <trkpt lat="44.35281" lon="7.12167">
        <ele>2460</ele>
        <time>2024-09-13T13:33:48.000Z</time>
      </trkpt>
      <trkpt lat="44.35281" lon="7.12166">
        <ele>2460</ele>
        <time>2024-09-13T13:33:49.000Z</time>
      </trkpt>
      <trkpt lat="44.35281" lon="7.12165">
        <ele>2460</ele>
        <time>2024-09-13T13:33:50.000Z</time>
      </trkpt>
      <trkpt lat="44.35281" lon="7.12165">
        <ele>2460</ele>
        <time>2024-09-13T13:33:51.000Z</time>
      </trkpt>
      <trkpt lat="44.35281" lon="7.12164">
        <ele>2460</ele>
        <time>2024-09-13T13:33:52.000Z</time>
      </trkpt>
      <trkpt lat="44.35281" lon="7.12164">
        <ele>2460</ele>
        <time>2024-09-13T13:33:53.000Z</time>
      </trkpt>
      <trkpt lat="44.35281" lon="7.12163">
        <ele>2460</ele>
        <time>2024-09-13T13:33:54.000Z</time>
      </trkpt>
      <trkpt lat="44.35281" lon="7.12162">
        <ele>2460</ele>
        <time>2024-09-13T13:33:55.000Z</time>
      </trkpt>
      <trkpt lat="44.35281" lon="7.12162">
        <ele>2459.8000488281</ele>
        <time>2024-09-13T13:33:56.000Z</time>
      </trkpt>
      <trkpt lat="44.3528" lon="7.12161">
        <ele>2459.8000488281</ele>
        <time>2024-09-13T13:33:57.000Z</time>
      </trkpt>
      <trkpt lat="44.3528" lon="7.12161">
        <ele>2459.1999511719</ele>
        <time>2024-09-13T13:33:58.000Z</time>
      </trkpt>
      <trkpt lat="44.3528" lon="7.12161">
        <ele>2459</ele>
        <time>2024-09-13T13:34:00.000Z</time>
      </trkpt>
      <trkpt lat="44.3528" lon="7.12161">
        <ele>2458.8000488281</ele>
        <time>2024-09-13T13:34:02.000Z</time>
      </trkpt>
      <trkpt lat="44.3528" lon="7.12161">
        <ele>2458.8000488281</ele>
        <time>2024-09-13T13:34:03.000Z</time>
      </trkpt>
      <trkpt lat="44.35281" lon="7.12163">
        <ele>2458.6000976562</ele>
        <time>2024-09-13T13:34:04.000Z</time>
      </trkpt>
      <trkpt lat="44.35281" lon="7.12163">
        <ele>2458.3999023438</ele>
        <time>2024-09-13T13:34:05.000Z</time>
      </trkpt>
      <trkpt lat="44.35281" lon="7.12163">
        <ele>2458.3999023438</ele>
        <time>2024-09-13T13:34:07.000Z</time>
      </trkpt>
      <trkpt lat="44.35282" lon="7.1216">
        <ele>2458</ele>
        <time>2024-09-13T13:34:10.000Z</time>
      </trkpt>
      <trkpt lat="44.35282" lon="7.1216">
        <ele>2457.8000488281</ele>
        <time>2024-09-13T13:34:13.000Z</time>
      </trkpt>
      <trkpt lat="44.35282" lon="7.1216">
        <ele>2457.6000976562</ele>
        <time>2024-09-13T13:34:17.000Z</time>
      </trkpt>
      <trkpt lat="44.35282" lon="7.1216">
        <ele>2457.6000976562</ele>
        <time>2024-09-13T13:34:18.000Z</time>
      </trkpt>
      <trkpt lat="44.35282" lon="7.1216">
        <ele>2457.6000976562</ele>
        <time>2024-09-13T13:34:20.000Z</time>
      </trkpt>
      <trkpt lat="44.35281" lon="7.12161">
        <ele>2457.6000976562</ele>
        <time>2024-09-13T13:34:24.000Z</time>
      </trkpt>
      <trkpt lat="44.35281" lon="7.12161">
        <ele>2457.6000976562</ele>
        <time>2024-09-13T13:34:25.000Z</time>
      </trkpt>
      <trkpt lat="44.35281" lon="7.1216">
        <ele>2456.8000488281</ele>
        <time>2024-09-13T13:34:43.000Z</time>
      </trkpt>
      <trkpt lat="44.35286" lon="7.12155">
        <ele>2456.8000488281</ele>
        <time>2024-09-13T13:34:48.000Z</time>
      </trkpt>
      <trkpt lat="44.35285" lon="7.12157">
        <ele>2456.6000976562</ele>
        <time>2024-09-13T13:34:49.000Z</time>
      </trkpt>
      <trkpt lat="44.35284" lon="7.12157">
        <ele>2456.6000976562</ele>
        <time>2024-09-13T13:34:50.000Z</time>
      </trkpt>
      <trkpt lat="44.35286" lon="7.12157">
        <ele>2456.1999511719</ele>
        <time>2024-09-13T13:34:55.000Z</time>
      </trkpt>
      <trkpt lat="44.35286" lon="7.12157">
        <ele>2456.1999511719</ele>
        <time>2024-09-13T13:34:58.000Z</time>
      </trkpt>
      <trkpt lat="44.35284" lon="7.12156">
        <ele>2455.6000976562</ele>
        <time>2024-09-13T13:35:01.000Z</time>
      </trkpt>
      <trkpt lat="44.35284" lon="7.12156">
        <ele>2455</ele>
        <time>2024-09-13T13:35:02.000Z</time>
      </trkpt>
      <trkpt lat="44.35284" lon="7.12155">
        <ele>2454.6000976562</ele>
        <time>2024-09-13T13:35:03.000Z</time>
      </trkpt>
      <trkpt lat="44.35284" lon="7.12156">
        <ele>2454</ele>
        <time>2024-09-13T13:35:06.000Z</time>
      </trkpt>
      <trkpt lat="44.35284" lon="7.12156">
        <ele>2453.8000488281</ele>
        <time>2024-09-13T13:35:07.000Z</time>
      </trkpt>
      <trkpt lat="44.35284" lon="7.12156">
        <ele>2453</ele>
        <time>2024-09-13T13:35:15.000Z</time>
      </trkpt>
      <trkpt lat="44.35284" lon="7.12156">
        <ele>2453</ele>
        <time>2024-09-13T13:35:16.000Z</time>
      </trkpt>
      <trkpt lat="44.35284" lon="7.12156">
        <ele>2452.8000488281</ele>
        <time>2024-09-13T13:35:18.000Z</time>
      </trkpt>
      <trkpt lat="44.35284" lon="7.12156">
        <ele>2452.6000976562</ele>
        <time>2024-09-13T13:35:20.000Z</time>
      </trkpt>
      <trkpt lat="44.35284" lon="7.12156">
        <ele>2452.8000488281</ele>
        <time>2024-09-13T13:35:24.000Z</time>
      </trkpt>
      <trkpt lat="44.35284" lon="7.12156">
        <ele>2453</ele>
        <time>2024-09-13T13:35:27.000Z</time>
      </trkpt>
      <trkpt lat="44.35284" lon="7.12156">
        <ele>2452</ele>
        <time>2024-09-13T13:35:38.000Z</time>
      </trkpt>
      <trkpt lat="44.35284" lon="7.12156">
        <ele>2452</ele>
        <time>2024-09-13T13:35:41.000Z</time>
      </trkpt>
      <trkpt lat="44.35284" lon="7.12156">
        <ele>2451</ele>
        <time>2024-09-13T13:35:53.000Z</time>
      </trkpt>
      <trkpt lat="44.35284" lon="7.12156">
        <ele>2451.1999511719</ele>
        <time>2024-09-13T13:35:59.000Z</time>
      </trkpt>
      <trkpt lat="44.35284" lon="7.12156">
        <ele>2451.3999023438</ele>
        <time>2024-09-13T13:36:15.000Z</time>
      </trkpt>
      <trkpt lat="44.35284" lon="7.12156">
        <ele>2451.6000976562</ele>
        <time>2024-09-13T13:36:18.000Z</time>
      </trkpt>
      <trkpt lat="44.35284" lon="7.12156">
        <ele>2451.6000976562</ele>
        <time>2024-09-13T13:36:32.000Z</time>
      </trkpt>
      <trkpt lat="44.35284" lon="7.12156">
        <ele>2450.8000488281</ele>
        <time>2024-09-13T13:36:42.000Z</time>
      </trkpt>
      <trkpt lat="44.35284" lon="7.12156">
        <ele>2450.8000488281</ele>
        <time>2024-09-13T13:36:51.000Z</time>
      </trkpt>
      <trkpt lat="44.35283" lon="7.12156">
        <ele>2450.6000976562</ele>
        <time>2024-09-13T13:37:08.000Z</time>
      </trkpt>
      <trkpt lat="44.35284" lon="7.12156">
        <ele>2450.6000976562</ele>
        <time>2024-09-13T13:37:19.000Z</time>
      </trkpt>
      <trkpt lat="44.35284" lon="7.12156">
        <ele>2450.6000976562</ele>
        <time>2024-09-13T13:37:26.000Z</time>
      </trkpt>
      <trkpt lat="44.35284" lon="7.12156">
        <ele>2450.6000976562</ele>
        <time>2024-09-13T13:37:27.000Z</time>
      </trkpt>
      <trkpt lat="44.35284" lon="7.12156">
        <ele>2450.6000976562</ele>
        <time>2024-09-13T13:37:36.000Z</time>
      </trkpt>
      <trkpt lat="44.35284" lon="7.12156">
        <ele>2450.6000976562</ele>
        <time>2024-09-13T13:37:53.000Z</time>
      </trkpt>
      <trkpt lat="44.35284" lon="7.12156">
        <ele>2450.6000976562</ele>
        <time>2024-09-13T13:37:59.000Z</time>
      </trkpt>
      <trkpt lat="44.35284" lon="7.12156">
        <ele>2450.6000976562</ele>
        <time>2024-09-13T13:38:05.000Z</time>
      </trkpt>
      <trkpt lat="44.35284" lon="7.12156">
        <ele>2450.6000976562</ele>
        <time>2024-09-13T13:38:07.000Z</time>
      </trkpt>
      <trkpt lat="44.35284" lon="7.12156">
        <ele>2450.6000976562</ele>
        <time>2024-09-13T13:38:09.000Z</time>
      </trkpt>
      <trkpt lat="44.35284" lon="7.12156">
        <ele>2450.6000976562</ele>
        <time>2024-09-13T13:38:26.000Z</time>
      </trkpt>
      <trkpt lat="44.35284" lon="7.12156">
        <ele>2450.6000976562</ele>
        <time>2024-09-13T13:38:30.000Z</time>
      </trkpt>
      <trkpt lat="44.35284" lon="7.12156">
        <ele>2450.6000976562</ele>
        <time>2024-09-13T13:38:39.000Z</time>
      </trkpt>
      <trkpt lat="44.35284" lon="7.12156">
        <ele>2450.6000976562</ele>
        <time>2024-09-13T13:38:40.000Z</time>
      </trkpt>
      <trkpt lat="44.35284" lon="7.12156">
        <ele>2450.6000976562</ele>
        <time>2024-09-13T13:38:55.000Z</time>
      </trkpt>
      <trkpt lat="44.35284" lon="7.12156">
        <ele>2450.6000976562</ele>
        <time>2024-09-13T13:39:05.000Z</time>
      </trkpt>
      <trkpt lat="44.35284" lon="7.12156">
        <ele>2448.1999511719</ele>
        <time>2024-09-13T13:39:15.000Z</time>
      </trkpt>
      <trkpt lat="44.35284" lon="7.12156">
        <ele>2447.8000488281</ele>
        <time>2024-09-13T13:39:32.000Z</time>
      </trkpt>
      <trkpt lat="44.35284" lon="7.12156">
        <ele>2447.6000976562</ele>
        <time>2024-09-13T13:39:40.000Z</time>
      </trkpt>
      <trkpt lat="44.35284" lon="7.12156">
        <ele>2447.6000976562</ele>
        <time>2024-09-13T13:39:46.000Z</time>
      </trkpt>
      <trkpt lat="44.35284" lon="7.12155">
        <ele>2447.6000976562</ele>
        <time>2024-09-13T13:39:49.000Z</time>
      </trkpt>
      <trkpt lat="44.35283" lon="7.12155">
        <ele>2447.6000976562</ele>
        <time>2024-09-13T13:39:55.000Z</time>
      </trkpt>
      <trkpt lat="44.35284" lon="7.12156">
        <ele>2448</ele>
        <time>2024-09-13T13:39:58.000Z</time>
      </trkpt>
      <trkpt lat="44.35284" lon="7.12156">
        <ele>2448.1999511719</ele>
        <time>2024-09-13T13:40:09.000Z</time>
      </trkpt>
      <trkpt lat="44.35283" lon="7.12156">
        <ele>2447.6000976562</ele>
        <time>2024-09-13T13:40:18.000Z</time>
      </trkpt>
      <trkpt lat="44.35284" lon="7.12156">
        <ele>2447.6000976562</ele>
        <time>2024-09-13T13:40:32.000Z</time>
      </trkpt>
      <trkpt lat="44.35284" lon="7.12156">
        <ele>2447.6000976562</ele>
        <time>2024-09-13T13:40:36.000Z</time>
      </trkpt>
      <trkpt lat="44.35284" lon="7.12156">
        <ele>2447.6000976562</ele>
        <time>2024-09-13T13:40:39.000Z</time>
      </trkpt>
      <trkpt lat="44.35284" lon="7.12156">
        <ele>2447.6000976562</ele>
        <time>2024-09-13T13:40:51.000Z</time>
      </trkpt>
      <trkpt lat="44.35284" lon="7.12156">
        <ele>2447.6000976562</ele>
        <time>2024-09-13T13:41:03.000Z</time>
      </trkpt>
      <trkpt lat="44.35284" lon="7.12156">
        <ele>2447.6000976562</ele>
        <time>2024-09-13T13:41:04.000Z</time>
      </trkpt>
      <trkpt lat="44.35285" lon="7.12156">
        <ele>2447.6000976562</ele>
        <time>2024-09-13T13:41:13.000Z</time>
      </trkpt>
      <trkpt lat="44.35284" lon="7.12156">
        <ele>2447.6000976562</ele>
        <time>2024-09-13T13:41:14.000Z</time>
      </trkpt>
      <trkpt lat="44.35284" lon="7.12156">
        <ele>2447.6000976562</ele>
        <time>2024-09-13T13:41:16.000Z</time>
      </trkpt>
      <trkpt lat="44.35284" lon="7.12156">
        <ele>2447.6000976562</ele>
        <time>2024-09-13T13:41:21.000Z</time>
      </trkpt>
      <trkpt lat="44.35284" lon="7.12156">
        <ele>2447.6000976562</ele>
        <time>2024-09-13T13:41:29.000Z</time>
      </trkpt>
      <trkpt lat="44.35283" lon="7.12156">
        <ele>2447.6000976562</ele>
        <time>2024-09-13T13:41:46.000Z</time>
      </trkpt>
      <trkpt lat="44.35283" lon="7.12156">
        <ele>2447.6000976562</ele>
        <time>2024-09-13T13:41:49.000Z</time>
      </trkpt>
      <trkpt lat="44.35283" lon="7.12156">
        <ele>2447.6000976562</ele>
        <time>2024-09-13T13:41:56.000Z</time>
      </trkpt>
      <trkpt lat="44.35283" lon="7.12156">
        <ele>2447.6000976562</ele>
        <time>2024-09-13T13:41:57.000Z</time>
      </trkpt>
      <trkpt lat="44.35283" lon="7.12156">
        <ele>2447.6000976562</ele>
        <time>2024-09-13T13:41:59.000Z</time>
      </trkpt>
      <trkpt lat="44.35283" lon="7.12156">
        <ele>2447.6000976562</ele>
        <time>2024-09-13T13:42:02.000Z</time>
      </trkpt>
      <trkpt lat="44.35283" lon="7.12156">
        <ele>2447.6000976562</ele>
        <time>2024-09-13T13:42:04.000Z</time>
      </trkpt>
      <trkpt lat="44.35283" lon="7.12156">
        <ele>2447.6000976562</ele>
        <time>2024-09-13T13:42:15.000Z</time>
      </trkpt>
      <trkpt lat="44.35283" lon="7.12156">
        <ele>2445.3999023438</ele>
        <time>2024-09-13T13:42:18.000Z</time>
      </trkpt>
      <trkpt lat="44.35283" lon="7.12156">
        <ele>2445.1999511719</ele>
        <time>2024-09-13T13:42:29.000Z</time>
      </trkpt>
      <trkpt lat="44.35283" lon="7.12157">
        <ele>2445.1999511719</ele>
        <time>2024-09-13T13:42:32.000Z</time>
      </trkpt>
      <trkpt lat="44.35284" lon="7.12157">
        <ele>2445</ele>
        <time>2024-09-13T13:42:43.000Z</time>
      </trkpt>
      <trkpt lat="44.35283" lon="7.12157">
        <ele>2445</ele>
        <time>2024-09-13T13:42:47.000Z</time>
      </trkpt>
      <trkpt lat="44.35283" lon="7.12157">
        <ele>2445</ele>
        <time>2024-09-13T13:42:55.000Z</time>
      </trkpt>
      <trkpt lat="44.35283" lon="7.12157">
        <ele>2444.8000488281</ele>
        <time>2024-09-13T13:43:09.000Z</time>
      </trkpt>
      <trkpt lat="44.35284" lon="7.12157">
        <ele>2444.8000488281</ele>
        <time>2024-09-13T13:43:10.000Z</time>
      </trkpt>
      <trkpt lat="44.35284" lon="7.12156">
        <ele>2444.6000976562</ele>
        <time>2024-09-13T13:43:17.000Z</time>
      </trkpt>
      <trkpt lat="44.35284" lon="7.12156">
        <ele>2444.6000976562</ele>
        <time>2024-09-13T13:43:18.000Z</time>
      </trkpt>
      <trkpt lat="44.35283" lon="7.12157">
        <ele>2444.6000976562</ele>
        <time>2024-09-13T13:43:23.000Z</time>
      </trkpt>
      <trkpt lat="44.35283" lon="7.12157">
        <ele>2444.6000976562</ele>
        <time>2024-09-13T13:43:26.000Z</time>
      </trkpt>
      <trkpt lat="44.35283" lon="7.12156">
        <ele>2444.6000976562</ele>
        <time>2024-09-13T13:43:38.000Z</time>
      </trkpt>
      <trkpt lat="44.35283" lon="7.12158">
        <ele>2444.3999023438</ele>
        <time>2024-09-13T13:43:40.000Z</time>
      </trkpt>
      <trkpt lat="44.35283" lon="7.12158">
        <ele>2444.3999023438</ele>
        <time>2024-09-13T13:43:43.000Z</time>
      </trkpt>
      <trkpt lat="44.35283" lon="7.12158">
        <ele>2444.1999511719</ele>
        <time>2024-09-13T13:43:47.000Z</time>
      </trkpt>
      <trkpt lat="44.35283" lon="7.12158">
        <ele>2444</ele>
        <time>2024-09-13T13:44:02.000Z</time>
      </trkpt>
      <trkpt lat="44.35283" lon="7.12157">
        <ele>2444.3999023438</ele>
        <time>2024-09-13T13:44:23.000Z</time>
      </trkpt>
      <trkpt lat="44.35283" lon="7.12156">
        <ele>2444.3999023438</ele>
        <time>2024-09-13T13:44:24.000Z</time>
      </trkpt>
      <trkpt lat="44.35283" lon="7.12157">
        <ele>2444.3999023438</ele>
        <time>2024-09-13T13:44:26.000Z</time>
      </trkpt>
      <trkpt lat="44.35283" lon="7.12158">
        <ele>2444.3999023438</ele>
        <time>2024-09-13T13:44:33.000Z</time>
      </trkpt>
      <trkpt lat="44.35283" lon="7.12158">
        <ele>2444.3999023438</ele>
        <time>2024-09-13T13:44:37.000Z</time>
      </trkpt>
      <trkpt lat="44.35283" lon="7.12158">
        <ele>2444.3999023438</ele>
        <time>2024-09-13T13:44:50.000Z</time>
      </trkpt>
      <trkpt lat="44.35283" lon="7.12158">
        <ele>2444.3999023438</ele>
        <time>2024-09-13T13:45:00.000Z</time>
      </trkpt>
      <trkpt lat="44.35283" lon="7.12158">
        <ele>2444.3999023438</ele>
        <time>2024-09-13T13:45:05.000Z</time>
      </trkpt>
      <trkpt lat="44.35283" lon="7.12158">
        <ele>2444.3999023438</ele>
        <time>2024-09-13T13:45:21.000Z</time>
      </trkpt>
      <trkpt lat="44.35283" lon="7.12158">
        <ele>2444.3999023438</ele>
        <time>2024-09-13T13:45:33.000Z</time>
      </trkpt>
      <trkpt lat="44.35283" lon="7.12158">
        <ele>2444.3999023438</ele>
        <time>2024-09-13T13:45:48.000Z</time>
      </trkpt>
      <trkpt lat="44.35284" lon="7.12157">
        <ele>2444.3999023438</ele>
        <time>2024-09-13T13:45:54.000Z</time>
      </trkpt>
      <trkpt lat="44.35284" lon="7.12157">
        <ele>2444.3999023438</ele>
        <time>2024-09-13T13:45:56.000Z</time>
      </trkpt>
      <trkpt lat="44.35284" lon="7.12157">
        <ele>2444.3999023438</ele>
        <time>2024-09-13T13:45:57.000Z</time>
      </trkpt>
      <trkpt lat="44.35284" lon="7.12156">
        <ele>2444.3999023438</ele>
        <time>2024-09-13T13:46:05.000Z</time>
      </trkpt>
      <trkpt lat="44.35284" lon="7.12156">
        <ele>2444.3999023438</ele>
        <time>2024-09-13T13:46:06.000Z</time>
      </trkpt>
      <trkpt lat="44.35284" lon="7.12157">
        <ele>2444.3999023438</ele>
        <time>2024-09-13T13:46:07.000Z</time>
      </trkpt>
      <trkpt lat="44.35284" lon="7.12157">
        <ele>2444.3999023438</ele>
        <time>2024-09-13T13:46:08.000Z</time>
      </trkpt>
      <trkpt lat="44.35285" lon="7.12157">
        <ele>2444.3999023438</ele>
        <time>2024-09-13T13:46:16.000Z</time>
      </trkpt>
      <trkpt lat="44.35285" lon="7.12157">
        <ele>2444.3999023438</ele>
        <time>2024-09-13T13:46:23.000Z</time>
      </trkpt>
      <trkpt lat="44.35285" lon="7.12158">
        <ele>2444.3999023438</ele>
        <time>2024-09-13T13:46:24.000Z</time>
      </trkpt>
      <trkpt lat="44.35285" lon="7.12157">
        <ele>2444.3999023438</ele>
        <time>2024-09-13T13:46:25.000Z</time>
      </trkpt>
      <trkpt lat="44.35285" lon="7.12157">
        <ele>2444.3999023438</ele>
        <time>2024-09-13T13:46:26.000Z</time>
      </trkpt>
      <trkpt lat="44.35284" lon="7.12157">
        <ele>2444.3999023438</ele>
        <time>2024-09-13T13:46:31.000Z</time>
      </trkpt>
      <trkpt lat="44.35283" lon="7.12156">
        <ele>2444.3999023438</ele>
        <time>2024-09-13T13:46:40.000Z</time>
      </trkpt>
      <trkpt lat="44.35282" lon="7.12156">
        <ele>2444.3999023438</ele>
        <time>2024-09-13T13:46:44.000Z</time>
      </trkpt>
      <trkpt lat="44.35283" lon="7.12156">
        <ele>2444.3999023438</ele>
        <time>2024-09-13T13:46:46.000Z</time>
      </trkpt>
      <trkpt lat="44.35283" lon="7.12156">
        <ele>2444.3999023438</ele>
        <time>2024-09-13T13:46:48.000Z</time>
      </trkpt>
      <trkpt lat="44.35283" lon="7.12156">
        <ele>2444.3999023438</ele>
        <time>2024-09-13T13:46:50.000Z</time>
      </trkpt>
      <trkpt lat="44.35284" lon="7.12157">
        <ele>2444.3999023438</ele>
        <time>2024-09-13T13:46:55.000Z</time>
      </trkpt>
      <trkpt lat="44.35284" lon="7.12157">
        <ele>2444.3999023438</ele>
        <time>2024-09-13T13:46:59.000Z</time>
      </trkpt>
      <trkpt lat="44.35284" lon="7.12156">
        <ele>2444.3999023438</ele>
        <time>2024-09-13T13:47:01.000Z</time>
      </trkpt>
      <trkpt lat="44.35283" lon="7.12156">
        <ele>2444.3999023438</ele>
        <time>2024-09-13T13:47:06.000Z</time>
      </trkpt>
      <trkpt lat="44.35282" lon="7.12156">
        <ele>2444.3999023438</ele>
        <time>2024-09-13T13:47:09.000Z</time>
      </trkpt>
      <trkpt lat="44.35283" lon="7.12156">
        <ele>2444.3999023438</ele>
        <time>2024-09-13T13:47:14.000Z</time>
      </trkpt>
      <trkpt lat="44.35282" lon="7.12154">
        <ele>2444.3999023438</ele>
        <time>2024-09-13T13:47:23.000Z</time>
      </trkpt>
      <trkpt lat="44.35281" lon="7.12154">
        <ele>2444.3999023438</ele>
        <time>2024-09-13T13:47:25.000Z</time>
      </trkpt>
      <trkpt lat="44.35282" lon="7.12155">
        <ele>2444.3999023438</ele>
        <time>2024-09-13T13:47:33.000Z</time>
      </trkpt>
      <trkpt lat="44.35284" lon="7.12156">
        <ele>2444.3999023438</ele>
        <time>2024-09-13T13:47:43.000Z</time>
      </trkpt>
      <trkpt lat="44.35284" lon="7.12156">
        <ele>2444.3999023438</ele>
        <time>2024-09-13T13:47:44.000Z</time>
      </trkpt>
      <trkpt lat="44.35283" lon="7.12156">
        <ele>2444.3999023438</ele>
        <time>2024-09-13T13:47:45.000Z</time>
      </trkpt>
      <trkpt lat="44.35284" lon="7.12156">
        <ele>2444.3999023438</ele>
        <time>2024-09-13T13:47:48.000Z</time>
      </trkpt>
      <trkpt lat="44.35284" lon="7.12156">
        <ele>2444.3999023438</ele>
        <time>2024-09-13T13:47:49.000Z</time>
      </trkpt>
      <trkpt lat="44.35284" lon="7.12156">
        <ele>2444.3999023438</ele>
        <time>2024-09-13T13:47:50.000Z</time>
      </trkpt>
      <trkpt lat="44.35284" lon="7.12156">
        <ele>2444.3999023438</ele>
        <time>2024-09-13T13:47:51.000Z</time>
      </trkpt>
      <trkpt lat="44.35284" lon="7.12156">
        <ele>2444.3999023438</ele>
        <time>2024-09-13T13:47:52.000Z</time>
      </trkpt>
      <trkpt lat="44.35284" lon="7.12156">
        <ele>2444.3999023438</ele>
        <time>2024-09-13T13:47:54.000Z</time>
      </trkpt>
      <trkpt lat="44.35284" lon="7.12156">
        <ele>2444.3999023438</ele>
        <time>2024-09-13T13:47:56.000Z</time>
      </trkpt>
      <trkpt lat="44.35284" lon="7.12157">
        <ele>2444.3999023438</ele>
        <time>2024-09-13T13:48:03.000Z</time>
      </trkpt>
      <trkpt lat="44.35284" lon="7.12156">
        <ele>2444.3999023438</ele>
        <time>2024-09-13T13:48:11.000Z</time>
      </trkpt>
      <trkpt lat="44.35284" lon="7.12157">
        <ele>2444.3999023438</ele>
        <time>2024-09-13T13:48:17.000Z</time>
      </trkpt>
      <trkpt lat="44.35284" lon="7.12157">
        <ele>2444.3999023438</ele>
        <time>2024-09-13T13:48:18.000Z</time>
      </trkpt>
      <trkpt lat="44.35284" lon="7.12157">
        <ele>2444.3999023438</ele>
        <time>2024-09-13T13:48:20.000Z</time>
      </trkpt>
      <trkpt lat="44.35285" lon="7.12157">
        <ele>2444.3999023438</ele>
        <time>2024-09-13T13:48:22.000Z</time>
      </trkpt>
      <trkpt lat="44.35284" lon="7.12157">
        <ele>2444.3999023438</ele>
        <time>2024-09-13T13:48:24.000Z</time>
      </trkpt>
      <trkpt lat="44.35284" lon="7.12157">
        <ele>2444.3999023438</ele>
        <time>2024-09-13T13:48:28.000Z</time>
      </trkpt>
      <trkpt lat="44.35284" lon="7.12157">
        <ele>2444.3999023438</ele>
        <time>2024-09-13T13:48:36.000Z</time>
      </trkpt>
      <trkpt lat="44.35284" lon="7.12157">
        <ele>2444.3999023438</ele>
        <time>2024-09-13T13:48:38.000Z</time>
      </trkpt>
      <trkpt lat="44.35284" lon="7.12157">
        <ele>2444.3999023438</ele>
        <time>2024-09-13T13:48:44.000Z</time>
      </trkpt>
      <trkpt lat="44.35284" lon="7.12157">
        <ele>2444.3999023438</ele>
        <time>2024-09-13T13:48:45.000Z</time>
      </trkpt>
      <trkpt lat="44.35284" lon="7.12157">
        <ele>2444.3999023438</ele>
        <time>2024-09-13T13:48:46.000Z</time>
      </trkpt>
      <trkpt lat="44.35284" lon="7.12157">
        <ele>2444.3999023438</ele>
        <time>2024-09-13T13:48:47.000Z</time>
      </trkpt>
      <trkpt lat="44.35285" lon="7.12158">
        <ele>2444.3999023438</ele>
        <time>2024-09-13T13:48:51.000Z</time>
      </trkpt>
      <trkpt lat="44.35285" lon="7.12158">
        <ele>2444.3999023438</ele>
        <time>2024-09-13T13:48:52.000Z</time>
      </trkpt>
      <trkpt lat="44.35284" lon="7.12157">
        <ele>2444.3999023438</ele>
        <time>2024-09-13T13:48:56.000Z</time>
      </trkpt>
      <trkpt lat="44.35285" lon="7.12158">
        <ele>2444.3999023438</ele>
        <time>2024-09-13T13:48:58.000Z</time>
      </trkpt>
      <trkpt lat="44.35286" lon="7.12158">
        <ele>2444.3999023438</ele>
        <time>2024-09-13T13:49:06.000Z</time>
      </trkpt>
      <trkpt lat="44.35286" lon="7.12158">
        <ele>2444.3999023438</ele>
        <time>2024-09-13T13:49:13.000Z</time>
      </trkpt>
      <trkpt lat="44.35286" lon="7.12157">
        <ele>2444.3999023438</ele>
        <time>2024-09-13T13:49:14.000Z</time>
      </trkpt>
      <trkpt lat="44.35286" lon="7.12157">
        <ele>2444.3999023438</ele>
        <time>2024-09-13T13:49:24.000Z</time>
      </trkpt>
      <trkpt lat="44.35286" lon="7.12157">
        <ele>2444.3999023438</ele>
        <time>2024-09-13T13:49:25.000Z</time>
      </trkpt>
      <trkpt lat="44.35286" lon="7.12158">
        <ele>2444.3999023438</ele>
        <time>2024-09-13T13:49:27.000Z</time>
      </trkpt>
      <trkpt lat="44.35285" lon="7.12158">
        <ele>2444.3999023438</ele>
        <time>2024-09-13T13:49:32.000Z</time>
      </trkpt>
      <trkpt lat="44.35285" lon="7.12158">
        <ele>2444.3999023438</ele>
        <time>2024-09-13T13:49:39.000Z</time>
      </trkpt>
      <trkpt lat="44.35285" lon="7.12157">
        <ele>2444.3999023438</ele>
        <time>2024-09-13T13:49:40.000Z</time>
      </trkpt>
      <trkpt lat="44.35285" lon="7.12158">
        <ele>2444.3999023438</ele>
        <time>2024-09-13T13:49:41.000Z</time>
      </trkpt>
      <trkpt lat="44.35286" lon="7.12158">
        <ele>2444.3999023438</ele>
        <time>2024-09-13T13:49:43.000Z</time>
      </trkpt>
      <trkpt lat="44.35286" lon="7.12159">
        <ele>2444.3999023438</ele>
        <time>2024-09-13T13:49:44.000Z</time>
      </trkpt>
      <trkpt lat="44.35287" lon="7.12159">
        <ele>2444.3999023438</ele>
        <time>2024-09-13T13:49:45.000Z</time>
      </trkpt>
      <trkpt lat="44.35287" lon="7.12159">
        <ele>2444.3999023438</ele>
        <time>2024-09-13T13:49:46.000Z</time>
      </trkpt>
      <trkpt lat="44.35287" lon="7.12159">
        <ele>2446</ele>
        <time>2024-09-13T13:49:47.000Z</time>
      </trkpt>
      <trkpt lat="44.35289" lon="7.12158">
        <ele>2446.1999511719</ele>
        <time>2024-09-13T13:49:49.000Z</time>
      </trkpt>
      <trkpt lat="44.35291" lon="7.12157">
        <ele>2447</ele>
        <time>2024-09-13T13:49:50.000Z</time>
      </trkpt>
      <trkpt lat="44.35292" lon="7.12157">
        <ele>2447.3999023438</ele>
        <time>2024-09-13T13:49:51.000Z</time>
      </trkpt>
      <trkpt lat="44.35294" lon="7.12156">
        <ele>2447.6000976562</ele>
        <time>2024-09-13T13:49:52.000Z</time>
      </trkpt>
      <trkpt lat="44.35297" lon="7.12155">
        <ele>2447.8000488281</ele>
        <time>2024-09-13T13:49:54.000Z</time>
      </trkpt>
      <trkpt lat="44.35298" lon="7.12155">
        <ele>2447.8000488281</ele>
        <time>2024-09-13T13:49:55.000Z</time>
      </trkpt>
      <trkpt lat="44.353" lon="7.12154">
        <ele>2447.8000488281</ele>
        <time>2024-09-13T13:49:56.000Z</time>
      </trkpt>
      <trkpt lat="44.35302" lon="7.12153">
        <ele>2447.8000488281</ele>
        <time>2024-09-13T13:49:57.000Z</time>
      </trkpt>
      <trkpt lat="44.35304" lon="7.12151">
        <ele>2447.8000488281</ele>
        <time>2024-09-13T13:49:58.000Z</time>
      </trkpt>
      <trkpt lat="44.35306" lon="7.12149">
        <ele>2447.6000976562</ele>
        <time>2024-09-13T13:49:59.000Z</time>
      </trkpt>
      <trkpt lat="44.35308" lon="7.12147">
        <ele>2447.6000976562</ele>
        <time>2024-09-13T13:50:00.000Z</time>
      </trkpt>
      <trkpt lat="44.3531" lon="7.12145">
        <ele>2447.3999023438</ele>
        <time>2024-09-13T13:50:01.000Z</time>
      </trkpt>
      <trkpt lat="44.35312" lon="7.12141">
        <ele>2447</ele>
        <time>2024-09-13T13:50:02.000Z</time>
      </trkpt>
      <trkpt lat="44.35314" lon="7.12139">
        <ele>2446.6000976562</ele>
        <time>2024-09-13T13:50:03.000Z</time>
      </trkpt>
      <trkpt lat="44.35317" lon="7.12137">
        <ele>2446.3999023438</ele>
        <time>2024-09-13T13:50:04.000Z</time>
      </trkpt>
      <trkpt lat="44.35321" lon="7.12135">
        <ele>2446</ele>
        <time>2024-09-13T13:50:05.000Z</time>
      </trkpt>
      <trkpt lat="44.35325" lon="7.12133">
        <ele>2445.1999511719</ele>
        <time>2024-09-13T13:50:06.000Z</time>
      </trkpt>
      <trkpt lat="44.35328" lon="7.12129">
        <ele>2444.3999023438</ele>
        <time>2024-09-13T13:50:07.000Z</time>
      </trkpt>
      <trkpt lat="44.35332" lon="7.12126">
        <ele>2442.3999023438</ele>
        <time>2024-09-13T13:50:08.000Z</time>
      </trkpt>
      <trkpt lat="44.35337" lon="7.12122">
        <ele>2440.3999023438</ele>
        <time>2024-09-13T13:50:09.000Z</time>
      </trkpt>
      <trkpt lat="44.35342" lon="7.1212">
        <ele>2439.1999511719</ele>
        <time>2024-09-13T13:50:10.000Z</time>
      </trkpt>
      <trkpt lat="44.35347" lon="7.12117">
        <ele>2438</ele>
        <time>2024-09-13T13:50:11.000Z</time>
      </trkpt>
      <trkpt lat="44.35353" lon="7.12115">
        <ele>2435.3999023438</ele>
        <time>2024-09-13T13:50:12.000Z</time>
      </trkpt>
      <trkpt lat="44.3536" lon="7.12113">
        <ele>2433.3999023438</ele>
        <time>2024-09-13T13:50:13.000Z</time>
      </trkpt>
      <trkpt lat="44.35368" lon="7.12112">
        <ele>2431.3999023438</ele>
        <time>2024-09-13T13:50:14.000Z</time>
      </trkpt>
      <trkpt lat="44.35373" lon="7.12109">
        <ele>2428.6000976562</ele>
        <time>2024-09-13T13:50:15.000Z</time>
      </trkpt>
      <trkpt lat="44.35379" lon="7.12107">
        <ele>2426.8000488281</ele>
        <time>2024-09-13T13:50:16.000Z</time>
      </trkpt>
      <trkpt lat="44.35385" lon="7.12103">
        <ele>2426</ele>
        <time>2024-09-13T13:50:17.000Z</time>
      </trkpt>
      <trkpt lat="44.35391" lon="7.12099">
        <ele>2425.1999511719</ele>
        <time>2024-09-13T13:50:18.000Z</time>
      </trkpt>
      <trkpt lat="44.35396" lon="7.12093">
        <ele>2424.8000488281</ele>
        <time>2024-09-13T13:50:19.000Z</time>
      </trkpt>
      <trkpt lat="44.35409" lon="7.12075">
        <ele>2423.6000976562</ele>
        <time>2024-09-13T13:50:22.000Z</time>
      </trkpt>
      <trkpt lat="44.35412" lon="7.12068">
        <ele>2423.1999511719</ele>
        <time>2024-09-13T13:50:23.000Z</time>
      </trkpt>
      <trkpt lat="44.35415" lon="7.12064">
        <ele>2423</ele>
        <time>2024-09-13T13:50:24.000Z</time>
      </trkpt>
      <trkpt lat="44.35418" lon="7.12059">
        <ele>2422.6000976562</ele>
        <time>2024-09-13T13:50:25.000Z</time>
      </trkpt>
      <trkpt lat="44.35421" lon="7.12056">
        <ele>2422.3999023438</ele>
        <time>2024-09-13T13:50:26.000Z</time>
      </trkpt>
      <trkpt lat="44.35424" lon="7.12052">
        <ele>2422</ele>
        <time>2024-09-13T13:50:27.000Z</time>
      </trkpt>
      <trkpt lat="44.35427" lon="7.12048">
        <ele>2421.8000488281</ele>
        <time>2024-09-13T13:50:28.000Z</time>
      </trkpt>
      <trkpt lat="44.3543" lon="7.12045">
        <ele>2421.8000488281</ele>
        <time>2024-09-13T13:50:29.000Z</time>
      </trkpt>
      <trkpt lat="44.35431" lon="7.12042">
        <ele>2421.3999023438</ele>
        <time>2024-09-13T13:50:30.000Z</time>
      </trkpt>
      <trkpt lat="44.35432" lon="7.12039">
        <ele>2420.8000488281</ele>
        <time>2024-09-13T13:50:31.000Z</time>
      </trkpt>
      <trkpt lat="44.35433" lon="7.12037">
        <ele>2420.6000976562</ele>
        <time>2024-09-13T13:50:32.000Z</time>
      </trkpt>
      <trkpt lat="44.35433" lon="7.12034">
        <ele>2420.1999511719</ele>
        <time>2024-09-13T13:50:33.000Z</time>
      </trkpt>
      <trkpt lat="44.35433" lon="7.1203">
        <ele>2420</ele>
        <time>2024-09-13T13:50:34.000Z</time>
      </trkpt>
      <trkpt lat="44.35435" lon="7.12026">
        <ele>2419.6000976562</ele>
        <time>2024-09-13T13:50:35.000Z</time>
      </trkpt>
      <trkpt lat="44.35436" lon="7.12023">
        <ele>2418.8000488281</ele>
        <time>2024-09-13T13:50:36.000Z</time>
      </trkpt>
      <trkpt lat="44.35438" lon="7.1202">
        <ele>2417.1999511719</ele>
        <time>2024-09-13T13:50:37.000Z</time>
      </trkpt>
      <trkpt lat="44.3544" lon="7.12017">
        <ele>2415.8000488281</ele>
        <time>2024-09-13T13:50:38.000Z</time>
      </trkpt>
      <trkpt lat="44.35442" lon="7.12014">
        <ele>2415.3999023438</ele>
        <time>2024-09-13T13:50:39.000Z</time>
      </trkpt>
      <trkpt lat="44.35444" lon="7.12011">
        <ele>2414.6000976562</ele>
        <time>2024-09-13T13:50:40.000Z</time>
      </trkpt>
      <trkpt lat="44.35445" lon="7.12007">
        <ele>2414.6000976562</ele>
        <time>2024-09-13T13:50:41.000Z</time>
      </trkpt>
      <trkpt lat="44.35447" lon="7.12002">
        <ele>2414.1999511719</ele>
        <time>2024-09-13T13:50:42.000Z</time>
      </trkpt>
      <trkpt lat="44.35449" lon="7.11996">
        <ele>2414</ele>
        <time>2024-09-13T13:50:43.000Z</time>
      </trkpt>
      <trkpt lat="44.35452" lon="7.11991">
        <ele>2413.3999023438</ele>
        <time>2024-09-13T13:50:44.000Z</time>
      </trkpt>
      <trkpt lat="44.35454" lon="7.11986">
        <ele>2412</ele>
        <time>2024-09-13T13:50:45.000Z</time>
      </trkpt>
      <trkpt lat="44.35457" lon="7.1198">
        <ele>2410.6000976562</ele>
        <time>2024-09-13T13:50:46.000Z</time>
      </trkpt>
      <trkpt lat="44.35459" lon="7.11976">
        <ele>2409.8000488281</ele>
        <time>2024-09-13T13:50:47.000Z</time>
      </trkpt>
      <trkpt lat="44.35461" lon="7.11972">
        <ele>2409</ele>
        <time>2024-09-13T13:50:48.000Z</time>
      </trkpt>
      <trkpt lat="44.35463" lon="7.11968">
        <ele>2408.6000976562</ele>
        <time>2024-09-13T13:50:49.000Z</time>
      </trkpt>
      <trkpt lat="44.35464" lon="7.11963">
        <ele>2408</ele>
        <time>2024-09-13T13:50:50.000Z</time>
      </trkpt>
      <trkpt lat="44.35465" lon="7.11959">
        <ele>2406.3999023438</ele>
        <time>2024-09-13T13:50:51.000Z</time>
      </trkpt>
      <trkpt lat="44.35469" lon="7.1195">
        <ele>2405</ele>
        <time>2024-09-13T13:50:53.000Z</time>
      </trkpt>
      <trkpt lat="44.3547" lon="7.11946">
        <ele>2403.8000488281</ele>
        <time>2024-09-13T13:50:54.000Z</time>
      </trkpt>
      <trkpt lat="44.35474" lon="7.11939">
        <ele>2402.6000976562</ele>
        <time>2024-09-13T13:50:56.000Z</time>
      </trkpt>
      <trkpt lat="44.35477" lon="7.11936">
        <ele>2402</ele>
        <time>2024-09-13T13:50:57.000Z</time>
      </trkpt>
      <trkpt lat="44.35479" lon="7.11931">
        <ele>2401.1999511719</ele>
        <time>2024-09-13T13:50:58.000Z</time>
      </trkpt>
      <trkpt lat="44.35482" lon="7.11927">
        <ele>2400.3999023438</ele>
        <time>2024-09-13T13:50:59.000Z</time>
      </trkpt>
      <trkpt lat="44.35485" lon="7.11924">
        <ele>2399.8000488281</ele>
        <time>2024-09-13T13:51:00.000Z</time>
      </trkpt>
      <trkpt lat="44.35488" lon="7.11919">
        <ele>2399</ele>
        <time>2024-09-13T13:51:01.000Z</time>
      </trkpt>
      <trkpt lat="44.35491" lon="7.11915">
        <ele>2398</ele>
        <time>2024-09-13T13:51:02.000Z</time>
      </trkpt>
      <trkpt lat="44.35494" lon="7.1191">
        <ele>2396.6000976562</ele>
        <time>2024-09-13T13:51:03.000Z</time>
      </trkpt>
      <trkpt lat="44.35498" lon="7.11905">
        <ele>2396.1999511719</ele>
        <time>2024-09-13T13:51:04.000Z</time>
      </trkpt>
      <trkpt lat="44.35501" lon="7.11901">
        <ele>2395.3999023438</ele>
        <time>2024-09-13T13:51:05.000Z</time>
      </trkpt>
      <trkpt lat="44.35504" lon="7.11895">
        <ele>2394.1999511719</ele>
        <time>2024-09-13T13:51:06.000Z</time>
      </trkpt>
      <trkpt lat="44.35507" lon="7.1189">
        <ele>2394</ele>
        <time>2024-09-13T13:51:07.000Z</time>
      </trkpt>
      <trkpt lat="44.35509" lon="7.11886">
        <ele>2393.8000488281</ele>
        <time>2024-09-13T13:51:08.000Z</time>
      </trkpt>
      <trkpt lat="44.35512" lon="7.11882">
        <ele>2393.1999511719</ele>
        <time>2024-09-13T13:51:09.000Z</time>
      </trkpt>
      <trkpt lat="44.35515" lon="7.11878">
        <ele>2393</ele>
        <time>2024-09-13T13:51:10.000Z</time>
      </trkpt>
      <trkpt lat="44.35517" lon="7.11874">
        <ele>2392.8000488281</ele>
        <time>2024-09-13T13:51:11.000Z</time>
      </trkpt>
      <trkpt lat="44.35518" lon="7.11871">
        <ele>2392.8000488281</ele>
        <time>2024-09-13T13:51:12.000Z</time>
      </trkpt>
      <trkpt lat="44.3552" lon="7.11867">
        <ele>2392.6000976562</ele>
        <time>2024-09-13T13:51:13.000Z</time>
      </trkpt>
      <trkpt lat="44.35521" lon="7.11864">
        <ele>2392.6000976562</ele>
        <time>2024-09-13T13:51:14.000Z</time>
      </trkpt>
      <trkpt lat="44.35523" lon="7.11861">
        <ele>2392.6000976562</ele>
        <time>2024-09-13T13:51:15.000Z</time>
      </trkpt>
      <trkpt lat="44.35523" lon="7.11858">
        <ele>2392.8000488281</ele>
        <time>2024-09-13T13:51:16.000Z</time>
      </trkpt>
      <trkpt lat="44.35524" lon="7.11854">
        <ele>2392.8000488281</ele>
        <time>2024-09-13T13:51:17.000Z</time>
      </trkpt>
      <trkpt lat="44.35525" lon="7.11847">
        <ele>2393</ele>
        <time>2024-09-13T13:51:19.000Z</time>
      </trkpt>
      <trkpt lat="44.35526" lon="7.11844">
        <ele>2393</ele>
        <time>2024-09-13T13:51:20.000Z</time>
      </trkpt>
      <trkpt lat="44.3553" lon="7.11833">
        <ele>2392.6000976562</ele>
        <time>2024-09-13T13:51:23.000Z</time>
      </trkpt>
      <trkpt lat="44.35531" lon="7.1183">
        <ele>2392.6000976562</ele>
        <time>2024-09-13T13:51:24.000Z</time>
      </trkpt>
      <trkpt lat="44.35533" lon="7.11828">
        <ele>2392.6000976562</ele>
        <time>2024-09-13T13:51:25.000Z</time>
      </trkpt>
      <trkpt lat="44.35534" lon="7.11826">
        <ele>2392.6000976562</ele>
        <time>2024-09-13T13:51:26.000Z</time>
      </trkpt>
      <trkpt lat="44.35536" lon="7.11824">
        <ele>2392.6000976562</ele>
        <time>2024-09-13T13:51:27.000Z</time>
      </trkpt>
      <trkpt lat="44.35537" lon="7.11823">
        <ele>2392.8000488281</ele>
        <time>2024-09-13T13:51:28.000Z</time>
      </trkpt>
      <trkpt lat="44.35539" lon="7.1182">
        <ele>2393.1999511719</ele>
        <time>2024-09-13T13:51:29.000Z</time>
      </trkpt>
      <trkpt lat="44.35545" lon="7.11813">
        <ele>2393.6000976562</ele>
        <time>2024-09-13T13:51:32.000Z</time>
      </trkpt>
      <trkpt lat="44.35547" lon="7.11811">
        <ele>2393.6000976562</ele>
        <time>2024-09-13T13:51:33.000Z</time>
      </trkpt>
      <trkpt lat="44.35549" lon="7.1181">
        <ele>2393.6000976562</ele>
        <time>2024-09-13T13:51:34.000Z</time>
      </trkpt>
      <trkpt lat="44.35559" lon="7.11799">
        <ele>2393</ele>
        <time>2024-09-13T13:51:38.000Z</time>
      </trkpt>
      <trkpt lat="44.3556" lon="7.11797">
        <ele>2392.8000488281</ele>
        <time>2024-09-13T13:51:39.000Z</time>
      </trkpt>
      <trkpt lat="44.3556" lon="7.11797">
        <ele>2392.1999511719</ele>
        <time>2024-09-13T13:51:40.000Z</time>
      </trkpt>
      <trkpt lat="44.3556" lon="7.11797">
        <ele>2391.8000488281</ele>
        <time>2024-09-13T13:51:41.000Z</time>
      </trkpt>
      <trkpt lat="44.35561" lon="7.11797">
        <ele>2391.8000488281</ele>
        <time>2024-09-13T13:51:42.000Z</time>
      </trkpt>
      <trkpt lat="44.35561" lon="7.11797">
        <ele>2391.6000976562</ele>
        <time>2024-09-13T13:51:50.000Z</time>
      </trkpt>
      <trkpt lat="44.35561" lon="7.11797">
        <ele>2391.6000976562</ele>
        <time>2024-09-13T13:51:57.000Z</time>
      </trkpt>
      <trkpt lat="44.35561" lon="7.11797">
        <ele>2391.3999023438</ele>
        <time>2024-09-13T13:52:01.000Z</time>
      </trkpt>
      <trkpt lat="44.35561" lon="7.11797">
        <ele>2391.3999023438</ele>
        <time>2024-09-13T13:52:06.000Z</time>
      </trkpt>
      <trkpt lat="44.35561" lon="7.11797">
        <ele>2391.3999023438</ele>
        <time>2024-09-13T13:52:08.000Z</time>
      </trkpt>
      <trkpt lat="44.35561" lon="7.11797">
        <ele>2391.1999511719</ele>
        <time>2024-09-13T13:52:14.000Z</time>
      </trkpt>
      <trkpt lat="44.35561" lon="7.11797">
        <ele>2391.1999511719</ele>
        <time>2024-09-13T13:52:24.000Z</time>
      </trkpt>
      <trkpt lat="44.35561" lon="7.11798">
        <ele>2391.1999511719</ele>
        <time>2024-09-13T13:52:25.000Z</time>
      </trkpt>
      <trkpt lat="44.35561" lon="7.11797">
        <ele>2391.1999511719</ele>
        <time>2024-09-13T13:52:34.000Z</time>
      </trkpt>
      <trkpt lat="44.35561" lon="7.11797">
        <ele>2391.1999511719</ele>
        <time>2024-09-13T13:52:43.000Z</time>
      </trkpt>
      <trkpt lat="44.35561" lon="7.11797">
        <ele>2391.1999511719</ele>
        <time>2024-09-13T13:52:44.000Z</time>
      </trkpt>
      <trkpt lat="44.35561" lon="7.11797">
        <ele>2391.1999511719</ele>
        <time>2024-09-13T13:52:45.000Z</time>
      </trkpt>
      <trkpt lat="44.35561" lon="7.11797">
        <ele>2391.1999511719</ele>
        <time>2024-09-13T13:52:46.000Z</time>
      </trkpt>
      <trkpt lat="44.35561" lon="7.11797">
        <ele>2391.1999511719</ele>
        <time>2024-09-13T13:52:50.000Z</time>
      </trkpt>
      <trkpt lat="44.35561" lon="7.11797">
        <ele>2391.1999511719</ele>
        <time>2024-09-13T13:52:54.000Z</time>
      </trkpt>
      <trkpt lat="44.35561" lon="7.11797">
        <ele>2391.1999511719</ele>
        <time>2024-09-13T13:52:59.000Z</time>
      </trkpt>
      <trkpt lat="44.35561" lon="7.11797">
        <ele>2391.1999511719</ele>
        <time>2024-09-13T13:53:04.000Z</time>
      </trkpt>
      <trkpt lat="44.35567" lon="7.11791">
        <ele>2391.1999511719</ele>
        <time>2024-09-13T13:53:11.000Z</time>
      </trkpt>
      <trkpt lat="44.35571" lon="7.11787">
        <ele>2390.6000976562</ele>
        <time>2024-09-13T13:53:13.000Z</time>
      </trkpt>
      <trkpt lat="44.35573" lon="7.11784">
        <ele>2390</ele>
        <time>2024-09-13T13:53:14.000Z</time>
      </trkpt>
      <trkpt lat="44.35575" lon="7.11782">
        <ele>2388.8000488281</ele>
        <time>2024-09-13T13:53:15.000Z</time>
      </trkpt>
      <trkpt lat="44.35579" lon="7.11775">
        <ele>2387.3999023438</ele>
        <time>2024-09-13T13:53:17.000Z</time>
      </trkpt>
      <trkpt lat="44.35581" lon="7.11773">
        <ele>2386.6000976562</ele>
        <time>2024-09-13T13:53:18.000Z</time>
      </trkpt>
      <trkpt lat="44.35582" lon="7.11771">
        <ele>2386</ele>
        <time>2024-09-13T13:53:19.000Z</time>
      </trkpt>
      <trkpt lat="44.35584" lon="7.11767">
        <ele>2384.8000488281</ele>
        <time>2024-09-13T13:53:20.000Z</time>
      </trkpt>
      <trkpt lat="44.35586" lon="7.11763">
        <ele>2384</ele>
        <time>2024-09-13T13:53:21.000Z</time>
      </trkpt>
      <trkpt lat="44.35587" lon="7.11759">
        <ele>2383.6000976562</ele>
        <time>2024-09-13T13:53:22.000Z</time>
      </trkpt>
      <trkpt lat="44.35588" lon="7.11754">
        <ele>2382.6000976562</ele>
        <time>2024-09-13T13:53:23.000Z</time>
      </trkpt>
      <trkpt lat="44.3559" lon="7.11749">
        <ele>2381.6000976562</ele>
        <time>2024-09-13T13:53:24.000Z</time>
      </trkpt>
      <trkpt lat="44.35591" lon="7.11743">
        <ele>2380.8000488281</ele>
        <time>2024-09-13T13:53:25.000Z</time>
      </trkpt>
      <trkpt lat="44.35593" lon="7.11736">
        <ele>2379.6000976562</ele>
        <time>2024-09-13T13:53:26.000Z</time>
      </trkpt>
      <trkpt lat="44.35595" lon="7.11731">
        <ele>2378.6000976562</ele>
        <time>2024-09-13T13:53:27.000Z</time>
      </trkpt>
      <trkpt lat="44.35596" lon="7.11726">
        <ele>2377.8000488281</ele>
        <time>2024-09-13T13:53:28.000Z</time>
      </trkpt>
      <trkpt lat="44.35596" lon="7.11721">
        <ele>2377.1999511719</ele>
        <time>2024-09-13T13:53:29.000Z</time>
      </trkpt>
      <trkpt lat="44.35597" lon="7.11716">
        <ele>2376.8000488281</ele>
        <time>2024-09-13T13:53:30.000Z</time>
      </trkpt>
      <trkpt lat="44.35599" lon="7.11712">
        <ele>2376.6000976562</ele>
        <time>2024-09-13T13:53:31.000Z</time>
      </trkpt>
      <trkpt lat="44.35601" lon="7.11709">
        <ele>2376.3999023438</ele>
        <time>2024-09-13T13:53:32.000Z</time>
      </trkpt>
      <trkpt lat="44.35604" lon="7.11707">
        <ele>2375.3999023438</ele>
        <time>2024-09-13T13:53:33.000Z</time>
      </trkpt>
      <trkpt lat="44.35608" lon="7.11705">
        <ele>2373.8000488281</ele>
        <time>2024-09-13T13:53:34.000Z</time>
      </trkpt>
      <trkpt lat="44.35611" lon="7.11703">
        <ele>2373.1999511719</ele>
        <time>2024-09-13T13:53:35.000Z</time>
      </trkpt>
      <trkpt lat="44.35615" lon="7.11702">
        <ele>2372.8000488281</ele>
        <time>2024-09-13T13:53:36.000Z</time>
      </trkpt>
      <trkpt lat="44.35619" lon="7.117">
        <ele>2372.3999023438</ele>
        <time>2024-09-13T13:53:37.000Z</time>
      </trkpt>
      <trkpt lat="44.35621" lon="7.11699">
        <ele>2371.6000976562</ele>
        <time>2024-09-13T13:53:38.000Z</time>
      </trkpt>
      <trkpt lat="44.35622" lon="7.11697">
        <ele>2370.1999511719</ele>
        <time>2024-09-13T13:53:39.000Z</time>
      </trkpt>
      <trkpt lat="44.35622" lon="7.11696">
        <ele>2369.6000976562</ele>
        <time>2024-09-13T13:53:40.000Z</time>
      </trkpt>
      <trkpt lat="44.35623" lon="7.11694">
        <ele>2369</ele>
        <time>2024-09-13T13:53:41.000Z</time>
      </trkpt>
      <trkpt lat="44.35625" lon="7.11683">
        <ele>2368.3999023438</ele>
        <time>2024-09-13T13:53:44.000Z</time>
      </trkpt>
      <trkpt lat="44.35626" lon="7.1168">
        <ele>2368.1999511719</ele>
        <time>2024-09-13T13:53:45.000Z</time>
      </trkpt>
      <trkpt lat="44.35626" lon="7.11677">
        <ele>2367</ele>
        <time>2024-09-13T13:53:46.000Z</time>
      </trkpt>
      <trkpt lat="44.35628" lon="7.11671">
        <ele>2365.3999023438</ele>
        <time>2024-09-13T13:53:48.000Z</time>
      </trkpt>
      <trkpt lat="44.35628" lon="7.11668">
        <ele>2364.8000488281</ele>
        <time>2024-09-13T13:53:49.000Z</time>
      </trkpt>
      <trkpt lat="44.35628" lon="7.11665">
        <ele>2364</ele>
        <time>2024-09-13T13:53:50.000Z</time>
      </trkpt>
      <trkpt lat="44.35629" lon="7.11662">
        <ele>2363</ele>
        <time>2024-09-13T13:53:51.000Z</time>
      </trkpt>
      <trkpt lat="44.35629" lon="7.11659">
        <ele>2362.1999511719</ele>
        <time>2024-09-13T13:53:52.000Z</time>
      </trkpt>
      <trkpt lat="44.35629" lon="7.11656">
        <ele>2361.1999511719</ele>
        <time>2024-09-13T13:53:53.000Z</time>
      </trkpt>
      <trkpt lat="44.3563" lon="7.11654">
        <ele>2360.3999023438</ele>
        <time>2024-09-13T13:53:54.000Z</time>
      </trkpt>
      <trkpt lat="44.3563" lon="7.11651">
        <ele>2359.8000488281</ele>
        <time>2024-09-13T13:53:55.000Z</time>
      </trkpt>
      <trkpt lat="44.3563" lon="7.11644">
        <ele>2358.3999023438</ele>
        <time>2024-09-13T13:53:57.000Z</time>
      </trkpt>
      <trkpt lat="44.3563" lon="7.11635">
        <ele>2356.6000976562</ele>
        <time>2024-09-13T13:53:59.000Z</time>
      </trkpt>
      <trkpt lat="44.3563" lon="7.11631">
        <ele>2355.3999023438</ele>
        <time>2024-09-13T13:54:00.000Z</time>
      </trkpt>
      <trkpt lat="44.3563" lon="7.11626">
        <ele>2354</ele>
        <time>2024-09-13T13:54:01.000Z</time>
      </trkpt>
      <trkpt lat="44.3563" lon="7.11622">
        <ele>2353.1999511719</ele>
        <time>2024-09-13T13:54:02.000Z</time>
      </trkpt>
      <trkpt lat="44.35629" lon="7.11619">
        <ele>2351.3999023438</ele>
        <time>2024-09-13T13:54:03.000Z</time>
      </trkpt>
      <trkpt lat="44.35629" lon="7.11615">
        <ele>2350.1999511719</ele>
        <time>2024-09-13T13:54:04.000Z</time>
      </trkpt>
      <trkpt lat="44.3563" lon="7.11611">
        <ele>2348.6000976562</ele>
        <time>2024-09-13T13:54:05.000Z</time>
      </trkpt>
      <trkpt lat="44.3563" lon="7.11606">
        <ele>2347.3999023438</ele>
        <time>2024-09-13T13:54:06.000Z</time>
      </trkpt>
      <trkpt lat="44.35631" lon="7.11601">
        <ele>2346.1999511719</ele>
        <time>2024-09-13T13:54:07.000Z</time>
      </trkpt>
      <trkpt lat="44.35631" lon="7.11597">
        <ele>2344.8000488281</ele>
        <time>2024-09-13T13:54:08.000Z</time>
      </trkpt>
      <trkpt lat="44.35632" lon="7.11594">
        <ele>2343.1999511719</ele>
        <time>2024-09-13T13:54:09.000Z</time>
      </trkpt>
      <trkpt lat="44.35632" lon="7.1159">
        <ele>2342.3999023438</ele>
        <time>2024-09-13T13:54:10.000Z</time>
      </trkpt>
      <trkpt lat="44.35632" lon="7.11587">
        <ele>2341.1999511719</ele>
        <time>2024-09-13T13:54:11.000Z</time>
      </trkpt>
      <trkpt lat="44.35632" lon="7.11585">
        <ele>2340.1999511719</ele>
        <time>2024-09-13T13:54:12.000Z</time>
      </trkpt>
      <trkpt lat="44.35633" lon="7.11582">
        <ele>2339.3999023438</ele>
        <time>2024-09-13T13:54:13.000Z</time>
      </trkpt>
      <trkpt lat="44.35634" lon="7.11575">
        <ele>2337.6000976562</ele>
        <time>2024-09-13T13:54:15.000Z</time>
      </trkpt>
      <trkpt lat="44.35634" lon="7.11572">
        <ele>2337.3999023438</ele>
        <time>2024-09-13T13:54:16.000Z</time>
      </trkpt>
      <trkpt lat="44.35635" lon="7.11568">
        <ele>2336</ele>
        <time>2024-09-13T13:54:17.000Z</time>
      </trkpt>
      <trkpt lat="44.35636" lon="7.11565">
        <ele>2335.8000488281</ele>
        <time>2024-09-13T13:54:18.000Z</time>
      </trkpt>
      <trkpt lat="44.35637" lon="7.11561">
        <ele>2334.6000976562</ele>
        <time>2024-09-13T13:54:19.000Z</time>
      </trkpt>
      <trkpt lat="44.35641" lon="7.11553">
        <ele>2333</ele>
        <time>2024-09-13T13:54:21.000Z</time>
      </trkpt>
      <trkpt lat="44.35642" lon="7.11549">
        <ele>2331.8000488281</ele>
        <time>2024-09-13T13:54:22.000Z</time>
      </trkpt>
      <trkpt lat="44.35646" lon="7.1154">
        <ele>2329.1999511719</ele>
        <time>2024-09-13T13:54:24.000Z</time>
      </trkpt>
      <trkpt lat="44.35649" lon="7.11532">
        <ele>2327</ele>
        <time>2024-09-13T13:54:26.000Z</time>
      </trkpt>
      <trkpt lat="44.3565" lon="7.11527">
        <ele>2326</ele>
        <time>2024-09-13T13:54:27.000Z</time>
      </trkpt>
      <trkpt lat="44.35652" lon="7.11523">
        <ele>2324.6000976562</ele>
        <time>2024-09-13T13:54:28.000Z</time>
      </trkpt>
      <trkpt lat="44.35655" lon="7.11514">
        <ele>2323.1999511719</ele>
        <time>2024-09-13T13:54:30.000Z</time>
      </trkpt>
      <trkpt lat="44.35657" lon="7.1151">
        <ele>2322.3999023438</ele>
        <time>2024-09-13T13:54:31.000Z</time>
      </trkpt>
      <trkpt lat="44.35658" lon="7.11505">
        <ele>2321.6000976562</ele>
        <time>2024-09-13T13:54:32.000Z</time>
      </trkpt>
      <trkpt lat="44.35659" lon="7.11501">
        <ele>2320.6000976562</ele>
        <time>2024-09-13T13:54:33.000Z</time>
      </trkpt>
      <trkpt lat="44.35659" lon="7.11496">
        <ele>2319.6000976562</ele>
        <time>2024-09-13T13:54:34.000Z</time>
      </trkpt>
      <trkpt lat="44.35659" lon="7.11492">
        <ele>2319.1999511719</ele>
        <time>2024-09-13T13:54:35.000Z</time>
      </trkpt>
      <trkpt lat="44.3566" lon="7.11488">
        <ele>2318.6000976562</ele>
        <time>2024-09-13T13:54:36.000Z</time>
      </trkpt>
      <trkpt lat="44.3566" lon="7.11482">
        <ele>2317.8000488281</ele>
        <time>2024-09-13T13:54:37.000Z</time>
      </trkpt>
      <trkpt lat="44.35661" lon="7.11478">
        <ele>2317</ele>
        <time>2024-09-13T13:54:38.000Z</time>
      </trkpt>
      <trkpt lat="44.35662" lon="7.11474">
        <ele>2316</ele>
        <time>2024-09-13T13:54:39.000Z</time>
      </trkpt>
      <trkpt lat="44.35662" lon="7.1147">
        <ele>2315.1999511719</ele>
        <time>2024-09-13T13:54:40.000Z</time>
      </trkpt>
      <trkpt lat="44.35663" lon="7.11465">
        <ele>2314.6000976562</ele>
        <time>2024-09-13T13:54:41.000Z</time>
      </trkpt>
      <trkpt lat="44.35665" lon="7.11459">
        <ele>2313.3999023438</ele>
        <time>2024-09-13T13:54:42.000Z</time>
      </trkpt>
      <trkpt lat="44.35667" lon="7.11455">
        <ele>2311.6000976562</ele>
        <time>2024-09-13T13:54:43.000Z</time>
      </trkpt>
      <trkpt lat="44.35668" lon="7.11451">
        <ele>2311.1999511719</ele>
        <time>2024-09-13T13:54:44.000Z</time>
      </trkpt>
      <trkpt lat="44.35668" lon="7.11447">
        <ele>2309.8000488281</ele>
        <time>2024-09-13T13:54:45.000Z</time>
      </trkpt>
      <trkpt lat="44.35669" lon="7.11443">
        <ele>2308.6000976562</ele>
        <time>2024-09-13T13:54:46.000Z</time>
      </trkpt>
      <trkpt lat="44.35669" lon="7.11438">
        <ele>2308</ele>
        <time>2024-09-13T13:54:47.000Z</time>
      </trkpt>
      <trkpt lat="44.35669" lon="7.11433">
        <ele>2306.6000976562</ele>
        <time>2024-09-13T13:54:48.000Z</time>
      </trkpt>
      <trkpt lat="44.35671" lon="7.11428">
        <ele>2305.3999023438</ele>
        <time>2024-09-13T13:54:49.000Z</time>
      </trkpt>
      <trkpt lat="44.35673" lon="7.11422">
        <ele>2304.3999023438</ele>
        <time>2024-09-13T13:54:50.000Z</time>
      </trkpt>
      <trkpt lat="44.35674" lon="7.11416">
        <ele>2304</ele>
        <time>2024-09-13T13:54:51.000Z</time>
      </trkpt>
      <trkpt lat="44.35675" lon="7.11411">
        <ele>2302.8000488281</ele>
        <time>2024-09-13T13:54:52.000Z</time>
      </trkpt>
      <trkpt lat="44.35677" lon="7.11407">
        <ele>2301.8000488281</ele>
        <time>2024-09-13T13:54:53.000Z</time>
      </trkpt>
      <trkpt lat="44.3568" lon="7.11403">
        <ele>2300.1999511719</ele>
        <time>2024-09-13T13:54:54.000Z</time>
      </trkpt>
      <trkpt lat="44.35682" lon="7.11398">
        <ele>2299.6000976562</ele>
        <time>2024-09-13T13:54:55.000Z</time>
      </trkpt>
      <trkpt lat="44.35683" lon="7.11395">
        <ele>2298.1999511719</ele>
        <time>2024-09-13T13:54:56.000Z</time>
      </trkpt>
      <trkpt lat="44.35683" lon="7.11391">
        <ele>2297.3999023438</ele>
        <time>2024-09-13T13:54:57.000Z</time>
      </trkpt>
      <trkpt lat="44.35683" lon="7.1139">
        <ele>2296</ele>
        <time>2024-09-13T13:54:58.000Z</time>
      </trkpt>
      <trkpt lat="44.35684" lon="7.11391">
        <ele>2295.1999511719</ele>
        <time>2024-09-13T13:54:59.000Z</time>
      </trkpt>
      <trkpt lat="44.35683" lon="7.11392">
        <ele>2295.1999511719</ele>
        <time>2024-09-13T13:55:02.000Z</time>
      </trkpt>
      <trkpt lat="44.35683" lon="7.11392">
        <ele>2295.3999023438</ele>
        <time>2024-09-13T13:55:04.000Z</time>
      </trkpt>
      <trkpt lat="44.35684" lon="7.11389">
        <ele>2295.1999511719</ele>
        <time>2024-09-13T13:55:14.000Z</time>
      </trkpt>
      <trkpt lat="44.35683" lon="7.11385">
        <ele>2295.1999511719</ele>
        <time>2024-09-13T13:55:15.000Z</time>
      </trkpt>
      <trkpt lat="44.3568" lon="7.11374">
        <ele>2294.8000488281</ele>
        <time>2024-09-13T13:55:17.000Z</time>
      </trkpt>
      <trkpt lat="44.35676" lon="7.11369">
        <ele>2294.3999023438</ele>
        <time>2024-09-13T13:55:18.000Z</time>
      </trkpt>
      <trkpt lat="44.35672" lon="7.11366">
        <ele>2292.3999023438</ele>
        <time>2024-09-13T13:55:19.000Z</time>
      </trkpt>
      <trkpt lat="44.35668" lon="7.11365">
        <ele>2289.6000976562</ele>
        <time>2024-09-13T13:55:20.000Z</time>
      </trkpt>
      <trkpt lat="44.35663" lon="7.11364">
        <ele>2288</ele>
        <time>2024-09-13T13:55:21.000Z</time>
      </trkpt>
      <trkpt lat="44.35659" lon="7.11362">
        <ele>2286.3999023438</ele>
        <time>2024-09-13T13:55:22.000Z</time>
      </trkpt>
      <trkpt lat="44.35657" lon="7.11358">
        <ele>2285.6000976562</ele>
        <time>2024-09-13T13:55:23.000Z</time>
      </trkpt>
      <trkpt lat="44.35659" lon="7.11355">
        <ele>2283</ele>
        <time>2024-09-13T13:55:24.000Z</time>
      </trkpt>
      <trkpt lat="44.35662" lon="7.11353">
        <ele>2282.1999511719</ele>
        <time>2024-09-13T13:55:25.000Z</time>
      </trkpt>
      <trkpt lat="44.35664" lon="7.1135">
        <ele>2281</ele>
        <time>2024-09-13T13:55:26.000Z</time>
      </trkpt>
      <trkpt lat="44.35667" lon="7.11341">
        <ele>2280.6000976562</ele>
        <time>2024-09-13T13:55:28.000Z</time>
      </trkpt>
      <trkpt lat="44.35667" lon="7.11337">
        <ele>2279.8000488281</ele>
        <time>2024-09-13T13:55:29.000Z</time>
      </trkpt>
      <trkpt lat="44.35667" lon="7.11334">
        <ele>2279.3999023438</ele>
        <time>2024-09-13T13:55:30.000Z</time>
      </trkpt>
      <trkpt lat="44.35667" lon="7.11334">
        <ele>2278.8000488281</ele>
        <time>2024-09-13T13:55:31.000Z</time>
      </trkpt>
      <trkpt lat="44.35667" lon="7.11334">
        <ele>2278.6000976562</ele>
        <time>2024-09-13T13:55:32.000Z</time>
      </trkpt>
      <trkpt lat="44.35667" lon="7.11334">
        <ele>2278.3999023438</ele>
        <time>2024-09-13T13:55:33.000Z</time>
      </trkpt>
      <trkpt lat="44.35667" lon="7.11334">
        <ele>2278.3999023438</ele>
        <time>2024-09-13T13:55:34.000Z</time>
      </trkpt>
      <trkpt lat="44.35667" lon="7.11334">
        <ele>2278.1999511719</ele>
        <time>2024-09-13T13:55:38.000Z</time>
      </trkpt>
      <trkpt lat="44.35667" lon="7.11334">
        <ele>2278.3999023438</ele>
        <time>2024-09-13T13:55:50.000Z</time>
      </trkpt>
      <trkpt lat="44.35667" lon="7.11334">
        <ele>2278.3999023438</ele>
        <time>2024-09-13T13:55:53.000Z</time>
      </trkpt>
      <trkpt lat="44.35667" lon="7.11334">
        <ele>2278.3999023438</ele>
        <time>2024-09-13T13:55:55.000Z</time>
      </trkpt>
      <trkpt lat="44.35667" lon="7.11334">
        <ele>2278.3999023438</ele>
        <time>2024-09-13T13:55:58.000Z</time>
      </trkpt>
      <trkpt lat="44.35667" lon="7.11334">
        <ele>2278.3999023438</ele>
        <time>2024-09-13T13:56:00.000Z</time>
      </trkpt>
      <trkpt lat="44.35667" lon="7.11334">
        <ele>2278.1999511719</ele>
        <time>2024-09-13T13:56:08.000Z</time>
      </trkpt>
      <trkpt lat="44.35667" lon="7.11334">
        <ele>2278</ele>
        <time>2024-09-13T13:56:18.000Z</time>
      </trkpt>
      <trkpt lat="44.35666" lon="7.11336">
        <ele>2278</ele>
        <time>2024-09-13T13:56:21.000Z</time>
      </trkpt>
      <trkpt lat="44.35666" lon="7.11336">
        <ele>2278.1999511719</ele>
        <time>2024-09-13T13:56:31.000Z</time>
      </trkpt>
      <trkpt lat="44.35666" lon="7.11336">
        <ele>2278.1999511719</ele>
        <time>2024-09-13T13:56:35.000Z</time>
      </trkpt>
      <trkpt lat="44.35666" lon="7.11335">
        <ele>2278.1999511719</ele>
        <time>2024-09-13T13:56:44.000Z</time>
      </trkpt>
      <trkpt lat="44.35666" lon="7.11335">
        <ele>2278.1999511719</ele>
        <time>2024-09-13T13:56:47.000Z</time>
      </trkpt>
      <trkpt lat="44.35666" lon="7.11334">
        <ele>2278</ele>
        <time>2024-09-13T13:56:48.000Z</time>
      </trkpt>
      <trkpt lat="44.35662" lon="7.11332">
        <ele>2277.6000976562</ele>
        <time>2024-09-13T13:56:51.000Z</time>
      </trkpt>
      <trkpt lat="44.35659" lon="7.11332">
        <ele>2277.3999023438</ele>
        <time>2024-09-13T13:56:52.000Z</time>
      </trkpt>
      <trkpt lat="44.35655" lon="7.11332">
        <ele>2277.1999511719</ele>
        <time>2024-09-13T13:56:53.000Z</time>
      </trkpt>
      <trkpt lat="44.35652" lon="7.11333">
        <ele>2276.3999023438</ele>
        <time>2024-09-13T13:56:54.000Z</time>
      </trkpt>
      <trkpt lat="44.3565" lon="7.11333">
        <ele>2275.6000976562</ele>
        <time>2024-09-13T13:56:55.000Z</time>
      </trkpt>
      <trkpt lat="44.35647" lon="7.11332">
        <ele>2274.8000488281</ele>
        <time>2024-09-13T13:56:56.000Z</time>
      </trkpt>
      <trkpt lat="44.35645" lon="7.11331">
        <ele>2274.3999023438</ele>
        <time>2024-09-13T13:56:57.000Z</time>
      </trkpt>
      <trkpt lat="44.35643" lon="7.11329">
        <ele>2274.1999511719</ele>
        <time>2024-09-13T13:56:58.000Z</time>
      </trkpt>
      <trkpt lat="44.35641" lon="7.11329">
        <ele>2273.6000976562</ele>
        <time>2024-09-13T13:56:59.000Z</time>
      </trkpt>
      <trkpt lat="44.35636" lon="7.11327">
        <ele>2272.1999511719</ele>
        <time>2024-09-13T13:57:01.000Z</time>
      </trkpt>
      <trkpt lat="44.35633" lon="7.11327">
        <ele>2271.1999511719</ele>
        <time>2024-09-13T13:57:02.000Z</time>
      </trkpt>
      <trkpt lat="44.35631" lon="7.11326">
        <ele>2270.6000976562</ele>
        <time>2024-09-13T13:57:03.000Z</time>
      </trkpt>
      <trkpt lat="44.35629" lon="7.11326">
        <ele>2269.6000976562</ele>
        <time>2024-09-13T13:57:04.000Z</time>
      </trkpt>
      <trkpt lat="44.35628" lon="7.11326">
        <ele>2268.6000976562</ele>
        <time>2024-09-13T13:57:05.000Z</time>
      </trkpt>
      <trkpt lat="44.35624" lon="7.11324">
        <ele>2267.6000976562</ele>
        <time>2024-09-13T13:57:07.000Z</time>
      </trkpt>
      <trkpt lat="44.3562" lon="7.11322">
        <ele>2266.1999511719</ele>
        <time>2024-09-13T13:57:09.000Z</time>
      </trkpt>
      <trkpt lat="44.35615" lon="7.11322">
        <ele>2264.1999511719</ele>
        <time>2024-09-13T13:57:11.000Z</time>
      </trkpt>
      <trkpt lat="44.35613" lon="7.11322">
        <ele>2263.1999511719</ele>
        <time>2024-09-13T13:57:12.000Z</time>
      </trkpt>
      <trkpt lat="44.35611" lon="7.11322">
        <ele>2261.8000488281</ele>
        <time>2024-09-13T13:57:13.000Z</time>
      </trkpt>
      <trkpt lat="44.3561" lon="7.11322">
        <ele>2260.1999511719</ele>
        <time>2024-09-13T13:57:14.000Z</time>
      </trkpt>
      <trkpt lat="44.35609" lon="7.11321">
        <ele>2259.8000488281</ele>
        <time>2024-09-13T13:57:15.000Z</time>
      </trkpt>
      <trkpt lat="44.35609" lon="7.11322">
        <ele>2259.8000488281</ele>
        <time>2024-09-13T13:57:16.000Z</time>
      </trkpt>
      <trkpt lat="44.35609" lon="7.11321">
        <ele>2259.3999023438</ele>
        <time>2024-09-13T13:57:17.000Z</time>
      </trkpt>
      <trkpt lat="44.35608" lon="7.11321">
        <ele>2259.1999511719</ele>
        <time>2024-09-13T13:57:18.000Z</time>
      </trkpt>
      <trkpt lat="44.35606" lon="7.11321">
        <ele>2258.8000488281</ele>
        <time>2024-09-13T13:57:20.000Z</time>
      </trkpt>
      <trkpt lat="44.35604" lon="7.11321">
        <ele>2258.6000976562</ele>
        <time>2024-09-13T13:57:21.000Z</time>
      </trkpt>
      <trkpt lat="44.35602" lon="7.11319">
        <ele>2258</ele>
        <time>2024-09-13T13:57:23.000Z</time>
      </trkpt>
      <trkpt lat="44.35598" lon="7.11318">
        <ele>2256.6000976562</ele>
        <time>2024-09-13T13:57:25.000Z</time>
      </trkpt>
      <trkpt lat="44.35597" lon="7.11318">
        <ele>2256</ele>
        <time>2024-09-13T13:57:26.000Z</time>
      </trkpt>
      <trkpt lat="44.35595" lon="7.11318">
        <ele>2255.1999511719</ele>
        <time>2024-09-13T13:57:27.000Z</time>
      </trkpt>
      <trkpt lat="44.35593" lon="7.11317">
        <ele>2254.1999511719</ele>
        <time>2024-09-13T13:57:28.000Z</time>
      </trkpt>
      <trkpt lat="44.35592" lon="7.11316">
        <ele>2253.6000976562</ele>
        <time>2024-09-13T13:57:29.000Z</time>
      </trkpt>
      <trkpt lat="44.35591" lon="7.11315">
        <ele>2253.1999511719</ele>
        <time>2024-09-13T13:57:30.000Z</time>
      </trkpt>
      <trkpt lat="44.3559" lon="7.11315">
        <ele>2252.6000976562</ele>
        <time>2024-09-13T13:57:31.000Z</time>
      </trkpt>
      <trkpt lat="44.35588" lon="7.11315">
        <ele>2252</ele>
        <time>2024-09-13T13:57:32.000Z</time>
      </trkpt>
      <trkpt lat="44.35586" lon="7.11316">
        <ele>2251</ele>
        <time>2024-09-13T13:57:33.000Z</time>
      </trkpt>
      <trkpt lat="44.35586" lon="7.11315">
        <ele>2250.1999511719</ele>
        <time>2024-09-13T13:57:34.000Z</time>
      </trkpt>
      <trkpt lat="44.35586" lon="7.11313">
        <ele>2249.6000976562</ele>
        <time>2024-09-13T13:57:35.000Z</time>
      </trkpt>
      <trkpt lat="44.35586" lon="7.11312">
        <ele>2249.1999511719</ele>
        <time>2024-09-13T13:57:36.000Z</time>
      </trkpt>
      <trkpt lat="44.35587" lon="7.11306">
        <ele>2248.8000488281</ele>
        <time>2024-09-13T13:57:38.000Z</time>
      </trkpt>
      <trkpt lat="44.35588" lon="7.11303">
        <ele>2248.6000976562</ele>
        <time>2024-09-13T13:57:39.000Z</time>
      </trkpt>
      <trkpt lat="44.35588" lon="7.113">
        <ele>2247.3999023438</ele>
        <time>2024-09-13T13:57:40.000Z</time>
      </trkpt>
      <trkpt lat="44.35588" lon="7.11297">
        <ele>2246.1999511719</ele>
        <time>2024-09-13T13:57:41.000Z</time>
      </trkpt>
      <trkpt lat="44.3559" lon="7.11294">
        <ele>2245.1999511719</ele>
        <time>2024-09-13T13:57:42.000Z</time>
      </trkpt>
      <trkpt lat="44.35592" lon="7.11291">
        <ele>2244</ele>
        <time>2024-09-13T13:57:43.000Z</time>
      </trkpt>
      <trkpt lat="44.35593" lon="7.1129">
        <ele>2243.1999511719</ele>
        <time>2024-09-13T13:57:44.000Z</time>
      </trkpt>
      <trkpt lat="44.35592" lon="7.1129">
        <ele>2242.8000488281</ele>
        <time>2024-09-13T13:57:45.000Z</time>
      </trkpt>
      <trkpt lat="44.3559" lon="7.11289">
        <ele>2241.6000976562</ele>
        <time>2024-09-13T13:57:46.000Z</time>
      </trkpt>
      <trkpt lat="44.35588" lon="7.11288">
        <ele>2240.3999023438</ele>
        <time>2024-09-13T13:57:47.000Z</time>
      </trkpt>
      <trkpt lat="44.35586" lon="7.11287">
        <ele>2239.8000488281</ele>
        <time>2024-09-13T13:57:48.000Z</time>
      </trkpt>
      <trkpt lat="44.35585" lon="7.11286">
        <ele>2239.1999511719</ele>
        <time>2024-09-13T13:57:49.000Z</time>
      </trkpt>
      <trkpt lat="44.35579" lon="7.11284">
        <ele>2238</ele>
        <time>2024-09-13T13:57:51.000Z</time>
      </trkpt>
      <trkpt lat="44.35576" lon="7.11283">
        <ele>2236.6000976562</ele>
        <time>2024-09-13T13:57:52.000Z</time>
      </trkpt>
      <trkpt lat="44.35574" lon="7.11283">
        <ele>2235</ele>
        <time>2024-09-13T13:57:53.000Z</time>
      </trkpt>
      <trkpt lat="44.35569" lon="7.11281">
        <ele>2233.1999511719</ele>
        <time>2024-09-13T13:57:55.000Z</time>
      </trkpt>
      <trkpt lat="44.35564" lon="7.11281">
        <ele>2231.3999023438</ele>
        <time>2024-09-13T13:57:57.000Z</time>
      </trkpt>
      <trkpt lat="44.35558" lon="7.11277">
        <ele>2228.8000488281</ele>
        <time>2024-09-13T13:57:59.000Z</time>
      </trkpt>
      <trkpt lat="44.35558" lon="7.11274">
        <ele>2228</ele>
        <time>2024-09-13T13:58:00.000Z</time>
      </trkpt>
      <trkpt lat="44.35558" lon="7.1127">
        <ele>2226.6000976562</ele>
        <time>2024-09-13T13:58:01.000Z</time>
      </trkpt>
      <trkpt lat="44.3556" lon="7.11268">
        <ele>2226.1999511719</ele>
        <time>2024-09-13T13:58:02.000Z</time>
      </trkpt>
      <trkpt lat="44.35561" lon="7.11266">
        <ele>2225.3999023438</ele>
        <time>2024-09-13T13:58:03.000Z</time>
      </trkpt>
      <trkpt lat="44.35562" lon="7.11263">
        <ele>2225.1999511719</ele>
        <time>2024-09-13T13:58:04.000Z</time>
      </trkpt>
      <trkpt lat="44.35564" lon="7.1126">
        <ele>2225</ele>
        <time>2024-09-13T13:58:05.000Z</time>
      </trkpt>
      <trkpt lat="44.35563" lon="7.11258">
        <ele>2224.3999023438</ele>
        <time>2024-09-13T13:58:06.000Z</time>
      </trkpt>
      <trkpt lat="44.35562" lon="7.11255">
        <ele>2224</ele>
        <time>2024-09-13T13:58:07.000Z</time>
      </trkpt>
      <trkpt lat="44.35559" lon="7.11254">
        <ele>2223.6000976562</ele>
        <time>2024-09-13T13:58:08.000Z</time>
      </trkpt>
      <trkpt lat="44.35557" lon="7.11253">
        <ele>2222.6000976562</ele>
        <time>2024-09-13T13:58:09.000Z</time>
      </trkpt>
      <trkpt lat="44.35555" lon="7.1125">
        <ele>2221.3999023438</ele>
        <time>2024-09-13T13:58:11.000Z</time>
      </trkpt>
      <trkpt lat="44.35553" lon="7.11248">
        <ele>2220.8000488281</ele>
        <time>2024-09-13T13:58:12.000Z</time>
      </trkpt>
      <trkpt lat="44.35551" lon="7.11248">
        <ele>2219.8000488281</ele>
        <time>2024-09-13T13:58:13.000Z</time>
      </trkpt>
      <trkpt lat="44.35549" lon="7.11247">
        <ele>2218.8000488281</ele>
        <time>2024-09-13T13:58:14.000Z</time>
      </trkpt>
      <trkpt lat="44.35547" lon="7.11247">
        <ele>2217.3999023438</ele>
        <time>2024-09-13T13:58:15.000Z</time>
      </trkpt>
      <trkpt lat="44.35546" lon="7.11245">
        <ele>2216</ele>
        <time>2024-09-13T13:58:16.000Z</time>
      </trkpt>
      <trkpt lat="44.35545" lon="7.11242">
        <ele>2215</ele>
        <time>2024-09-13T13:58:17.000Z</time>
      </trkpt>
      <trkpt lat="44.35546" lon="7.11241">
        <ele>2214.1999511719</ele>
        <time>2024-09-13T13:58:18.000Z</time>
      </trkpt>
      <trkpt lat="44.35546" lon="7.11235">
        <ele>2213</ele>
        <time>2024-09-13T13:58:20.000Z</time>
      </trkpt>
      <trkpt lat="44.35547" lon="7.11232">
        <ele>2212.6000976562</ele>
        <time>2024-09-13T13:58:21.000Z</time>
      </trkpt>
      <trkpt lat="44.35547" lon="7.1123">
        <ele>2211.8000488281</ele>
        <time>2024-09-13T13:58:22.000Z</time>
      </trkpt>
      <trkpt lat="44.35549" lon="7.11225">
        <ele>2210.1999511719</ele>
        <time>2024-09-13T13:58:24.000Z</time>
      </trkpt>
      <trkpt lat="44.3555" lon="7.11223">
        <ele>2209.6000976562</ele>
        <time>2024-09-13T13:58:25.000Z</time>
      </trkpt>
      <trkpt lat="44.35551" lon="7.11221">
        <ele>2208.3999023438</ele>
        <time>2024-09-13T13:58:26.000Z</time>
      </trkpt>
      <trkpt lat="44.35552" lon="7.11216">
        <ele>2206.8000488281</ele>
        <time>2024-09-13T13:58:28.000Z</time>
      </trkpt>
      <trkpt lat="44.35552" lon="7.11211">
        <ele>2205</ele>
        <time>2024-09-13T13:58:30.000Z</time>
      </trkpt>
      <trkpt lat="44.35552" lon="7.11207">
        <ele>2203.8000488281</ele>
        <time>2024-09-13T13:58:31.000Z</time>
      </trkpt>
      <trkpt lat="44.35554" lon="7.11203">
        <ele>2203</ele>
        <time>2024-09-13T13:58:32.000Z</time>
      </trkpt>
      <trkpt lat="44.35555" lon="7.11199">
        <ele>2202</ele>
        <time>2024-09-13T13:58:33.000Z</time>
      </trkpt>
      <trkpt lat="44.35557" lon="7.11194">
        <ele>2199.8000488281</ele>
        <time>2024-09-13T13:58:34.000Z</time>
      </trkpt>
      <trkpt lat="44.35556" lon="7.11192">
        <ele>2198.3999023438</ele>
        <time>2024-09-13T13:58:35.000Z</time>
      </trkpt>
      <trkpt lat="44.35554" lon="7.11191">
        <ele>2196.3999023438</ele>
        <time>2024-09-13T13:58:36.000Z</time>
      </trkpt>
      <trkpt lat="44.35551" lon="7.1119">
        <ele>2196.1999511719</ele>
        <time>2024-09-13T13:58:37.000Z</time>
      </trkpt>
      <trkpt lat="44.35548" lon="7.11189">
        <ele>2194.8000488281</ele>
        <time>2024-09-13T13:58:38.000Z</time>
      </trkpt>
      <trkpt lat="44.35548" lon="7.11187">
        <ele>2194</ele>
        <time>2024-09-13T13:58:39.000Z</time>
      </trkpt>
      <trkpt lat="44.3555" lon="7.11186">
        <ele>2193.1999511719</ele>
        <time>2024-09-13T13:58:40.000Z</time>
      </trkpt>
      <trkpt lat="44.35554" lon="7.1118">
        <ele>2191.8000488281</ele>
        <time>2024-09-13T13:58:42.000Z</time>
      </trkpt>
      <trkpt lat="44.35554" lon="7.11177">
        <ele>2191.3999023438</ele>
        <time>2024-09-13T13:58:43.000Z</time>
      </trkpt>
      <trkpt lat="44.35552" lon="7.11175">
        <ele>2190</ele>
        <time>2024-09-13T13:58:44.000Z</time>
      </trkpt>
      <trkpt lat="44.35548" lon="7.11174">
        <ele>2187.8000488281</ele>
        <time>2024-09-13T13:58:46.000Z</time>
      </trkpt>
      <trkpt lat="44.35546" lon="7.11174">
        <ele>2186.8000488281</ele>
        <time>2024-09-13T13:58:47.000Z</time>
      </trkpt>
      <trkpt lat="44.35544" lon="7.11175">
        <ele>2185.8000488281</ele>
        <time>2024-09-13T13:58:48.000Z</time>
      </trkpt>
      <trkpt lat="44.35542" lon="7.11175">
        <ele>2185</ele>
        <time>2024-09-13T13:58:49.000Z</time>
      </trkpt>
      <trkpt lat="44.35541" lon="7.11174">
        <ele>2183.3999023438</ele>
        <time>2024-09-13T13:58:50.000Z</time>
      </trkpt>
      <trkpt lat="44.3554" lon="7.11173">
        <ele>2183</ele>
        <time>2024-09-13T13:58:51.000Z</time>
      </trkpt>
      <trkpt lat="44.35539" lon="7.11172">
        <ele>2182.6000976562</ele>
        <time>2024-09-13T13:58:52.000Z</time>
      </trkpt>
      <trkpt lat="44.35538" lon="7.11171">
        <ele>2182.3999023438</ele>
        <time>2024-09-13T13:58:53.000Z</time>
      </trkpt>
      <trkpt lat="44.35537" lon="7.11169">
        <ele>2182</ele>
        <time>2024-09-13T13:58:54.000Z</time>
      </trkpt>
      <trkpt lat="44.35536" lon="7.11167">
        <ele>2181.1999511719</ele>
        <time>2024-09-13T13:58:55.000Z</time>
      </trkpt>
      <trkpt lat="44.35536" lon="7.11165">
        <ele>2180</ele>
        <time>2024-09-13T13:58:56.000Z</time>
      </trkpt>
      <trkpt lat="44.35536" lon="7.11162">
        <ele>2179</ele>
        <time>2024-09-13T13:58:57.000Z</time>
      </trkpt>
      <trkpt lat="44.35537" lon="7.11159">
        <ele>2178.6000976562</ele>
        <time>2024-09-13T13:58:58.000Z</time>
      </trkpt>
      <trkpt lat="44.35536" lon="7.11156">
        <ele>2177.8000488281</ele>
        <time>2024-09-13T13:58:59.000Z</time>
      </trkpt>
      <trkpt lat="44.35534" lon="7.1115">
        <ele>2176.3999023438</ele>
        <time>2024-09-13T13:59:01.000Z</time>
      </trkpt>
      <trkpt lat="44.35533" lon="7.11147">
        <ele>2175.1999511719</ele>
        <time>2024-09-13T13:59:02.000Z</time>
      </trkpt>
      <trkpt lat="44.35531" lon="7.11143">
        <ele>2174.1999511719</ele>
        <time>2024-09-13T13:59:03.000Z</time>
      </trkpt>
      <trkpt lat="44.35528" lon="7.11138">
        <ele>2172.3999023438</ele>
        <time>2024-09-13T13:59:04.000Z</time>
      </trkpt>
      <trkpt lat="44.35526" lon="7.11132">
        <ele>2171</ele>
        <time>2024-09-13T13:59:05.000Z</time>
      </trkpt>
      <trkpt lat="44.35522" lon="7.11127">
        <ele>2170</ele>
        <time>2024-09-13T13:59:06.000Z</time>
      </trkpt>
      <trkpt lat="44.35518" lon="7.11123">
        <ele>2167.6000976562</ele>
        <time>2024-09-13T13:59:07.000Z</time>
      </trkpt>
      <trkpt lat="44.35514" lon="7.11119">
        <ele>2166.8000488281</ele>
        <time>2024-09-13T13:59:08.000Z</time>
      </trkpt>
      <trkpt lat="44.35513" lon="7.11117">
        <ele>2166.1999511719</ele>
        <time>2024-09-13T13:59:09.000Z</time>
      </trkpt>
      <trkpt lat="44.35511" lon="7.11113">
        <ele>2165.3999023438</ele>
        <time>2024-09-13T13:59:10.000Z</time>
      </trkpt>
      <trkpt lat="44.35512" lon="7.1111">
        <ele>2163.3999023438</ele>
        <time>2024-09-13T13:59:11.000Z</time>
      </trkpt>
      <trkpt lat="44.35511" lon="7.11106">
        <ele>2163</ele>
        <time>2024-09-13T13:59:12.000Z</time>
      </trkpt>
      <trkpt lat="44.35511" lon="7.11103">
        <ele>2162.8000488281</ele>
        <time>2024-09-13T13:59:13.000Z</time>
      </trkpt>
      <trkpt lat="44.35512" lon="7.111">
        <ele>2162.1999511719</ele>
        <time>2024-09-13T13:59:14.000Z</time>
      </trkpt>
      <trkpt lat="44.35513" lon="7.11098">
        <ele>2161.6000976562</ele>
        <time>2024-09-13T13:59:15.000Z</time>
      </trkpt>
      <trkpt lat="44.35514" lon="7.11098">
        <ele>2160.8000488281</ele>
        <time>2024-09-13T13:59:16.000Z</time>
      </trkpt>
      <trkpt lat="44.35514" lon="7.11098">
        <ele>2160.3999023438</ele>
        <time>2024-09-13T13:59:17.000Z</time>
      </trkpt>
      <trkpt lat="44.35514" lon="7.11098">
        <ele>2160.3999023438</ele>
        <time>2024-09-13T13:59:18.000Z</time>
      </trkpt>
      <trkpt lat="44.35515" lon="7.11098">
        <ele>2160.3999023438</ele>
        <time>2024-09-13T13:59:19.000Z</time>
      </trkpt>
      <trkpt lat="44.35515" lon="7.11098">
        <ele>2160.3999023438</ele>
        <time>2024-09-13T13:59:20.000Z</time>
      </trkpt>
      <trkpt lat="44.35515" lon="7.11098">
        <ele>2160.3999023438</ele>
        <time>2024-09-13T13:59:21.000Z</time>
      </trkpt>
      <trkpt lat="44.35515" lon="7.11098">
        <ele>2160.3999023438</ele>
        <time>2024-09-13T13:59:22.000Z</time>
      </trkpt>
      <trkpt lat="44.35515" lon="7.11098">
        <ele>2160.3999023438</ele>
        <time>2024-09-13T13:59:25.000Z</time>
      </trkpt>
      <trkpt lat="44.35515" lon="7.11098">
        <ele>2160.1999511719</ele>
        <time>2024-09-13T13:59:33.000Z</time>
      </trkpt>
      <trkpt lat="44.35514" lon="7.11095">
        <ele>2160</ele>
        <time>2024-09-13T13:59:41.000Z</time>
      </trkpt>
      <trkpt lat="44.35514" lon="7.11096">
        <ele>2160</ele>
        <time>2024-09-13T13:59:46.000Z</time>
      </trkpt>
      <trkpt lat="44.35513" lon="7.11095">
        <ele>2159.8000488281</ele>
        <time>2024-09-13T13:59:51.000Z</time>
      </trkpt>
      <trkpt lat="44.35513" lon="7.11095">
        <ele>2159.6000976562</ele>
        <time>2024-09-13T13:59:53.000Z</time>
      </trkpt>
      <trkpt lat="44.3551" lon="7.11097">
        <ele>2159.6000976562</ele>
        <time>2024-09-13T14:00:01.000Z</time>
      </trkpt>
      <trkpt lat="44.3551" lon="7.11097">
        <ele>2159.6000976562</ele>
        <time>2024-09-13T14:00:06.000Z</time>
      </trkpt>
      <trkpt lat="44.3551" lon="7.11097">
        <ele>2159.6000976562</ele>
        <time>2024-09-13T14:00:13.000Z</time>
      </trkpt>
      <trkpt lat="44.35511" lon="7.11097">
        <ele>2159.3999023438</ele>
        <time>2024-09-13T14:00:25.000Z</time>
      </trkpt>
      <trkpt lat="44.35516" lon="7.11098">
        <ele>2159.3999023438</ele>
        <time>2024-09-13T14:00:32.000Z</time>
      </trkpt>
      <trkpt lat="44.35517" lon="7.11097">
        <ele>2159.3999023438</ele>
        <time>2024-09-13T14:00:33.000Z</time>
      </trkpt>
      <trkpt lat="44.35518" lon="7.11097">
        <ele>2159.3999023438</ele>
        <time>2024-09-13T14:00:34.000Z</time>
      </trkpt>
      <trkpt lat="44.35518" lon="7.11097">
        <ele>2159.3999023438</ele>
        <time>2024-09-13T14:00:35.000Z</time>
      </trkpt>
      <trkpt lat="44.35517" lon="7.11097">
        <ele>2159.6000976562</ele>
        <time>2024-09-13T14:00:37.000Z</time>
      </trkpt>
      <trkpt lat="44.35517" lon="7.11097">
        <ele>2159.6000976562</ele>
        <time>2024-09-13T14:00:38.000Z</time>
      </trkpt>
      <trkpt lat="44.35516" lon="7.11098">
        <ele>2160</ele>
        <time>2024-09-13T14:00:44.000Z</time>
      </trkpt>
      <trkpt lat="44.35516" lon="7.11098">
        <ele>2160.1999511719</ele>
        <time>2024-09-13T14:00:47.000Z</time>
      </trkpt>
      <trkpt lat="44.35516" lon="7.11098">
        <ele>2160.1999511719</ele>
        <time>2024-09-13T14:00:49.000Z</time>
      </trkpt>
      <trkpt lat="44.35516" lon="7.11098">
        <ele>2160.3999023438</ele>
        <time>2024-09-13T14:00:52.000Z</time>
      </trkpt>
      <trkpt lat="44.35517" lon="7.11098">
        <ele>2160.3999023438</ele>
        <time>2024-09-13T14:00:58.000Z</time>
      </trkpt>
      <trkpt lat="44.35517" lon="7.11097">
        <ele>2160.3999023438</ele>
        <time>2024-09-13T14:00:59.000Z</time>
      </trkpt>
      <trkpt lat="44.35517" lon="7.11097">
        <ele>2160.8000488281</ele>
        <time>2024-09-13T14:01:03.000Z</time>
      </trkpt>
      <trkpt lat="44.35516" lon="7.11099">
        <ele>2160.8000488281</ele>
        <time>2024-09-13T14:01:06.000Z</time>
      </trkpt>
      <trkpt lat="44.35516" lon="7.11099">
        <ele>2161</ele>
        <time>2024-09-13T14:01:08.000Z</time>
      </trkpt>
      <trkpt lat="44.35517" lon="7.11099">
        <ele>2161</ele>
        <time>2024-09-13T14:01:09.000Z</time>
      </trkpt>
      <trkpt lat="44.35516" lon="7.11099">
        <ele>2161</ele>
        <time>2024-09-13T14:01:10.000Z</time>
      </trkpt>
      <trkpt lat="44.35516" lon="7.11098">
        <ele>2161</ele>
        <time>2024-09-13T14:01:12.000Z</time>
      </trkpt>
      <trkpt lat="44.35516" lon="7.11098">
        <ele>2161.1999511719</ele>
        <time>2024-09-13T14:01:15.000Z</time>
      </trkpt>
      <trkpt lat="44.35516" lon="7.11099">
        <ele>2161</ele>
        <time>2024-09-13T14:01:20.000Z</time>
      </trkpt>
      <trkpt lat="44.35516" lon="7.11099">
        <ele>2161.1999511719</ele>
        <time>2024-09-13T14:01:21.000Z</time>
      </trkpt>
      <trkpt lat="44.35516" lon="7.11098">
        <ele>2161.1999511719</ele>
        <time>2024-09-13T14:01:22.000Z</time>
      </trkpt>
      <trkpt lat="44.35514" lon="7.111">
        <ele>2161.3999023438</ele>
        <time>2024-09-13T14:01:25.000Z</time>
      </trkpt>
      <trkpt lat="44.35513" lon="7.111">
        <ele>2161.1999511719</ele>
        <time>2024-09-13T14:01:34.000Z</time>
      </trkpt>
      <trkpt lat="44.35515" lon="7.11097">
        <ele>2161</ele>
        <time>2024-09-13T14:01:40.000Z</time>
      </trkpt>
      <trkpt lat="44.35515" lon="7.11097">
        <ele>2160.8000488281</ele>
        <time>2024-09-13T14:01:48.000Z</time>
      </trkpt>
      <trkpt lat="44.35516" lon="7.11098">
        <ele>2160.8000488281</ele>
        <time>2024-09-13T14:01:54.000Z</time>
      </trkpt>
      <trkpt lat="44.35517" lon="7.11098">
        <ele>2161</ele>
        <time>2024-09-13T14:01:59.000Z</time>
      </trkpt>
      <trkpt lat="44.35517" lon="7.11098">
        <ele>2161</ele>
        <time>2024-09-13T14:02:01.000Z</time>
      </trkpt>
      <trkpt lat="44.35517" lon="7.11098">
        <ele>2161</ele>
        <time>2024-09-13T14:02:02.000Z</time>
      </trkpt>
      <trkpt lat="44.35517" lon="7.11099">
        <ele>2160.8000488281</ele>
        <time>2024-09-13T14:02:04.000Z</time>
      </trkpt>
      <trkpt lat="44.35516" lon="7.11099">
        <ele>2160.1999511719</ele>
        <time>2024-09-13T14:02:08.000Z</time>
      </trkpt>
      <trkpt lat="44.35515" lon="7.11099">
        <ele>2160.1999511719</ele>
        <time>2024-09-13T14:02:12.000Z</time>
      </trkpt>
      <trkpt lat="44.35515" lon="7.11099">
        <ele>2160.3999023438</ele>
        <time>2024-09-13T14:02:21.000Z</time>
      </trkpt>
      <trkpt lat="44.35513" lon="7.11098">
        <ele>2160.3999023438</ele>
        <time>2024-09-13T14:02:23.000Z</time>
      </trkpt>
      <trkpt lat="44.35514" lon="7.11097">
        <ele>2160.3999023438</ele>
        <time>2024-09-13T14:02:25.000Z</time>
      </trkpt>
      <trkpt lat="44.35514" lon="7.11097">
        <ele>2160.3999023438</ele>
        <time>2024-09-13T14:02:26.000Z</time>
      </trkpt>
      <trkpt lat="44.35513" lon="7.11097">
        <ele>2160.1999511719</ele>
        <time>2024-09-13T14:02:27.000Z</time>
      </trkpt>
      <trkpt lat="44.35512" lon="7.11097">
        <ele>2160.1999511719</ele>
        <time>2024-09-13T14:02:29.000Z</time>
      </trkpt>
      <trkpt lat="44.35513" lon="7.11098">
        <ele>2160.1999511719</ele>
        <time>2024-09-13T14:02:31.000Z</time>
      </trkpt>
      <trkpt lat="44.35512" lon="7.11098">
        <ele>2160.6000976562</ele>
        <time>2024-09-13T14:02:35.000Z</time>
      </trkpt>
      <trkpt lat="44.35514" lon="7.11096">
        <ele>2160.1999511719</ele>
        <time>2024-09-13T14:02:43.000Z</time>
      </trkpt>
      <trkpt lat="44.35514" lon="7.11093">
        <ele>2160.1999511719</ele>
        <time>2024-09-13T14:02:45.000Z</time>
      </trkpt>
      <trkpt lat="44.35514" lon="7.11089">
        <ele>2159.6000976562</ele>
        <time>2024-09-13T14:02:47.000Z</time>
      </trkpt>
      <trkpt lat="44.35515" lon="7.11082">
        <ele>2158.6000976562</ele>
        <time>2024-09-13T14:02:49.000Z</time>
      </trkpt>
      <trkpt lat="44.35515" lon="7.1108">
        <ele>2157.8000488281</ele>
        <time>2024-09-13T14:02:50.000Z</time>
      </trkpt>
      <trkpt lat="44.35516" lon="7.11079">
        <ele>2157</ele>
        <time>2024-09-13T14:02:51.000Z</time>
      </trkpt>
      <trkpt lat="44.35516" lon="7.11077">
        <ele>2156.3999023438</ele>
        <time>2024-09-13T14:02:52.000Z</time>
      </trkpt>
      <trkpt lat="44.35516" lon="7.11074">
        <ele>2155.6000976562</ele>
        <time>2024-09-13T14:02:53.000Z</time>
      </trkpt>
      <trkpt lat="44.35517" lon="7.11074">
        <ele>2155.3999023438</ele>
        <time>2024-09-13T14:02:54.000Z</time>
      </trkpt>
      <trkpt lat="44.35517" lon="7.11071">
        <ele>2154.8000488281</ele>
        <time>2024-09-13T14:02:55.000Z</time>
      </trkpt>
      <trkpt lat="44.35518" lon="7.11069">
        <ele>2153.8000488281</ele>
        <time>2024-09-13T14:02:56.000Z</time>
      </trkpt>
      <trkpt lat="44.3552" lon="7.11065">
        <ele>2152.6000976562</ele>
        <time>2024-09-13T14:02:58.000Z</time>
      </trkpt>
      <trkpt lat="44.35521" lon="7.11064">
        <ele>2152</ele>
        <time>2024-09-13T14:02:59.000Z</time>
      </trkpt>
      <trkpt lat="44.35523" lon="7.11062">
        <ele>2151.3999023438</ele>
        <time>2024-09-13T14:03:00.000Z</time>
      </trkpt>
      <trkpt lat="44.35524" lon="7.11062">
        <ele>2150.6000976562</ele>
        <time>2024-09-13T14:03:01.000Z</time>
      </trkpt>
      <trkpt lat="44.35525" lon="7.1106">
        <ele>2149.8000488281</ele>
        <time>2024-09-13T14:03:02.000Z</time>
      </trkpt>
      <trkpt lat="44.35525" lon="7.11059">
        <ele>2149.1999511719</ele>
        <time>2024-09-13T14:03:03.000Z</time>
      </trkpt>
      <trkpt lat="44.35524" lon="7.11056">
        <ele>2148.6000976562</ele>
        <time>2024-09-13T14:03:04.000Z</time>
      </trkpt>
      <trkpt lat="44.35523" lon="7.11052">
        <ele>2148</ele>
        <time>2024-09-13T14:03:05.000Z</time>
      </trkpt>
      <trkpt lat="44.35524" lon="7.11049">
        <ele>2147.6000976562</ele>
        <time>2024-09-13T14:03:06.000Z</time>
      </trkpt>
      <trkpt lat="44.35526" lon="7.11046">
        <ele>2146.8000488281</ele>
        <time>2024-09-13T14:03:07.000Z</time>
      </trkpt>
      <trkpt lat="44.35527" lon="7.11045">
        <ele>2146.3999023438</ele>
        <time>2024-09-13T14:03:08.000Z</time>
      </trkpt>
      <trkpt lat="44.35527" lon="7.11044">
        <ele>2144.6000976562</ele>
        <time>2024-09-13T14:03:09.000Z</time>
      </trkpt>
      <trkpt lat="44.35528" lon="7.11042">
        <ele>2143.3999023438</ele>
        <time>2024-09-13T14:03:10.000Z</time>
      </trkpt>
      <trkpt lat="44.35529" lon="7.1104">
        <ele>2142.3999023438</ele>
        <time>2024-09-13T14:03:11.000Z</time>
      </trkpt>
      <trkpt lat="44.3553" lon="7.11037">
        <ele>2141.8000488281</ele>
        <time>2024-09-13T14:03:12.000Z</time>
      </trkpt>
      <trkpt lat="44.35532" lon="7.11034">
        <ele>2141.1999511719</ele>
        <time>2024-09-13T14:03:13.000Z</time>
      </trkpt>
      <trkpt lat="44.35534" lon="7.11031">
        <ele>2139.6000976562</ele>
        <time>2024-09-13T14:03:15.000Z</time>
      </trkpt>
      <trkpt lat="44.35535" lon="7.11028">
        <ele>2138</ele>
        <time>2024-09-13T14:03:16.000Z</time>
      </trkpt>
      <trkpt lat="44.35537" lon="7.11025">
        <ele>2137</ele>
        <time>2024-09-13T14:03:17.000Z</time>
      </trkpt>
      <trkpt lat="44.35541" lon="7.11018">
        <ele>2135.3999023438</ele>
        <time>2024-09-13T14:03:19.000Z</time>
      </trkpt>
      <trkpt lat="44.35544" lon="7.11011">
        <ele>2133.1999511719</ele>
        <time>2024-09-13T14:03:21.000Z</time>
      </trkpt>
      <trkpt lat="44.35546" lon="7.11008">
        <ele>2131.8000488281</ele>
        <time>2024-09-13T14:03:22.000Z</time>
      </trkpt>
      <trkpt lat="44.35547" lon="7.11003">
        <ele>2130.8000488281</ele>
        <time>2024-09-13T14:03:23.000Z</time>
      </trkpt>
      <trkpt lat="44.35548" lon="7.10999">
        <ele>2129.1999511719</ele>
        <time>2024-09-13T14:03:24.000Z</time>
      </trkpt>
      <trkpt lat="44.35548" lon="7.10995">
        <ele>2128.3999023438</ele>
        <time>2024-09-13T14:03:25.000Z</time>
      </trkpt>
      <trkpt lat="44.35549" lon="7.10991">
        <ele>2127</ele>
        <time>2024-09-13T14:03:26.000Z</time>
      </trkpt>
      <trkpt lat="44.35551" lon="7.10987">
        <ele>2125.1999511719</ele>
        <time>2024-09-13T14:03:27.000Z</time>
      </trkpt>
      <trkpt lat="44.35553" lon="7.10978">
        <ele>2123.8000488281</ele>
        <time>2024-09-13T14:03:29.000Z</time>
      </trkpt>
      <trkpt lat="44.35553" lon="7.10972">
        <ele>2122.6000976562</ele>
        <time>2024-09-13T14:03:30.000Z</time>
      </trkpt>
      <trkpt lat="44.35554" lon="7.10966">
        <ele>2121.1999511719</ele>
        <time>2024-09-13T14:03:31.000Z</time>
      </trkpt>
      <trkpt lat="44.35553" lon="7.10962">
        <ele>2121</ele>
        <time>2024-09-13T14:03:32.000Z</time>
      </trkpt>
      <trkpt lat="44.35553" lon="7.10961">
        <ele>2118.6000976562</ele>
        <time>2024-09-13T14:03:33.000Z</time>
      </trkpt>
      <trkpt lat="44.35552" lon="7.1096">
        <ele>2118.6000976562</ele>
        <time>2024-09-13T14:03:34.000Z</time>
      </trkpt>
      <trkpt lat="44.35553" lon="7.10959">
        <ele>2118.6000976562</ele>
        <time>2024-09-13T14:03:35.000Z</time>
      </trkpt>
      <trkpt lat="44.35558" lon="7.10959">
        <ele>2118.3999023438</ele>
        <time>2024-09-13T14:03:37.000Z</time>
      </trkpt>
      <trkpt lat="44.35564" lon="7.10957">
        <ele>2117.8000488281</ele>
        <time>2024-09-13T14:03:39.000Z</time>
      </trkpt>
      <trkpt lat="44.35565" lon="7.10955">
        <ele>2117.1999511719</ele>
        <time>2024-09-13T14:03:40.000Z</time>
      </trkpt>
      <trkpt lat="44.35566" lon="7.10952">
        <ele>2116</ele>
        <time>2024-09-13T14:03:41.000Z</time>
      </trkpt>
      <trkpt lat="44.35567" lon="7.10952">
        <ele>2115.8000488281</ele>
        <time>2024-09-13T14:03:42.000Z</time>
      </trkpt>
      <trkpt lat="44.35568" lon="7.1095">
        <ele>2115.1999511719</ele>
        <time>2024-09-13T14:03:46.000Z</time>
      </trkpt>
      <trkpt lat="44.35567" lon="7.1095">
        <ele>2115.3999023438</ele>
        <time>2024-09-13T14:03:47.000Z</time>
      </trkpt>
      <trkpt lat="44.35567" lon="7.1095">
        <ele>2115.3999023438</ele>
        <time>2024-09-13T14:03:48.000Z</time>
      </trkpt>
      <trkpt lat="44.35566" lon="7.1095">
        <ele>2115.3999023438</ele>
        <time>2024-09-13T14:03:49.000Z</time>
      </trkpt>
      <trkpt lat="44.35566" lon="7.10949">
        <ele>2115.8000488281</ele>
        <time>2024-09-13T14:03:54.000Z</time>
      </trkpt>
      <trkpt lat="44.35564" lon="7.10947">
        <ele>2115.8000488281</ele>
        <time>2024-09-13T14:03:57.000Z</time>
      </trkpt>
      <trkpt lat="44.35561" lon="7.10946">
        <ele>2115.6000976562</ele>
        <time>2024-09-13T14:03:59.000Z</time>
      </trkpt>
      <trkpt lat="44.35559" lon="7.10946">
        <ele>2115.6000976562</ele>
        <time>2024-09-13T14:04:00.000Z</time>
      </trkpt>
      <trkpt lat="44.35557" lon="7.10946">
        <ele>2115.8000488281</ele>
        <time>2024-09-13T14:04:01.000Z</time>
      </trkpt>
      <trkpt lat="44.35556" lon="7.10947">
        <ele>2116</ele>
        <time>2024-09-13T14:04:02.000Z</time>
      </trkpt>
      <trkpt lat="44.35554" lon="7.10947">
        <ele>2116</ele>
        <time>2024-09-13T14:04:03.000Z</time>
      </trkpt>
      <trkpt lat="44.35552" lon="7.10948">
        <ele>2116</ele>
        <time>2024-09-13T14:04:04.000Z</time>
      </trkpt>
      <trkpt lat="44.35552" lon="7.10948">
        <ele>2116.1999511719</ele>
        <time>2024-09-13T14:04:05.000Z</time>
      </trkpt>
      <trkpt lat="44.35551" lon="7.10948">
        <ele>2116</ele>
        <time>2024-09-13T14:04:06.000Z</time>
      </trkpt>
      <trkpt lat="44.3555" lon="7.10948">
        <ele>2116</ele>
        <time>2024-09-13T14:04:07.000Z</time>
      </trkpt>
      <trkpt lat="44.3555" lon="7.10948">
        <ele>2116</ele>
        <time>2024-09-13T14:04:08.000Z</time>
      </trkpt>
      <trkpt lat="44.35548" lon="7.10949">
        <ele>2115.3999023438</ele>
        <time>2024-09-13T14:04:09.000Z</time>
      </trkpt>
      <trkpt lat="44.35546" lon="7.10949">
        <ele>2115</ele>
        <time>2024-09-13T14:04:10.000Z</time>
      </trkpt>
      <trkpt lat="44.35544" lon="7.1095">
        <ele>2114.8000488281</ele>
        <time>2024-09-13T14:04:11.000Z</time>
      </trkpt>
      <trkpt lat="44.35543" lon="7.10951">
        <ele>2114.1999511719</ele>
        <time>2024-09-13T14:04:12.000Z</time>
      </trkpt>
      <trkpt lat="44.35543" lon="7.1095">
        <ele>2113.1999511719</ele>
        <time>2024-09-13T14:04:13.000Z</time>
      </trkpt>
      <trkpt lat="44.35543" lon="7.1095">
        <ele>2113.1999511719</ele>
        <time>2024-09-13T14:04:16.000Z</time>
      </trkpt>
      <trkpt lat="44.35543" lon="7.10951">
        <ele>2113.3999023438</ele>
        <time>2024-09-13T14:04:26.000Z</time>
      </trkpt>
      <trkpt lat="44.35542" lon="7.10952">
        <ele>2113.6000976562</ele>
        <time>2024-09-13T14:04:28.000Z</time>
      </trkpt>
      <trkpt lat="44.35542" lon="7.10952">
        <ele>2113.6000976562</ele>
        <time>2024-09-13T14:04:29.000Z</time>
      </trkpt>
      <trkpt lat="44.35543" lon="7.10953">
        <ele>2113.6000976562</ele>
        <time>2024-09-13T14:04:31.000Z</time>
      </trkpt>
      <trkpt lat="44.35541" lon="7.10954">
        <ele>2113.6000976562</ele>
        <time>2024-09-13T14:04:32.000Z</time>
      </trkpt>
      <trkpt lat="44.3554" lon="7.10954">
        <ele>2113.6000976562</ele>
        <time>2024-09-13T14:04:33.000Z</time>
      </trkpt>
      <trkpt lat="44.35539" lon="7.10951">
        <ele>2113.3999023438</ele>
        <time>2024-09-13T14:04:34.000Z</time>
      </trkpt>
      <trkpt lat="44.35537" lon="7.10937">
        <ele>2112</ele>
        <time>2024-09-13T14:04:37.000Z</time>
      </trkpt>
      <trkpt lat="44.35535" lon="7.10933">
        <ele>2111.1999511719</ele>
        <time>2024-09-13T14:04:38.000Z</time>
      </trkpt>
      <trkpt lat="44.35532" lon="7.1093">
        <ele>2109</ele>
        <time>2024-09-13T14:04:39.000Z</time>
      </trkpt>
      <trkpt lat="44.35529" lon="7.10929">
        <ele>2107.6000976562</ele>
        <time>2024-09-13T14:04:40.000Z</time>
      </trkpt>
      <trkpt lat="44.35526" lon="7.1093">
        <ele>2107</ele>
        <time>2024-09-13T14:04:41.000Z</time>
      </trkpt>
      <trkpt lat="44.35523" lon="7.10931">
        <ele>2105</ele>
        <time>2024-09-13T14:04:42.000Z</time>
      </trkpt>
      <trkpt lat="44.3552" lon="7.10932">
        <ele>2105</ele>
        <time>2024-09-13T14:04:43.000Z</time>
      </trkpt>
      <trkpt lat="44.35518" lon="7.10934">
        <ele>2104.8000488281</ele>
        <time>2024-09-13T14:04:44.000Z</time>
      </trkpt>
      <trkpt lat="44.35514" lon="7.10935">
        <ele>2104.6000976562</ele>
        <time>2024-09-13T14:04:45.000Z</time>
      </trkpt>
      <trkpt lat="44.3551" lon="7.10935">
        <ele>2104.3999023438</ele>
        <time>2024-09-13T14:04:47.000Z</time>
      </trkpt>
      <trkpt lat="44.3551" lon="7.10935">
        <ele>2104.1999511719</ele>
        <time>2024-09-13T14:04:48.000Z</time>
      </trkpt>
      <trkpt lat="44.3551" lon="7.10935">
        <ele>2104.3999023438</ele>
        <time>2024-09-13T14:04:49.000Z</time>
      </trkpt>
      <trkpt lat="44.3551" lon="7.10935">
        <ele>2104.3999023438</ele>
        <time>2024-09-13T14:04:51.000Z</time>
      </trkpt>
      <trkpt lat="44.3551" lon="7.10935">
        <ele>2104.6000976562</ele>
        <time>2024-09-13T14:04:52.000Z</time>
      </trkpt>
      <trkpt lat="44.35513" lon="7.10935">
        <ele>2104.6000976562</ele>
        <time>2024-09-13T14:04:53.000Z</time>
      </trkpt>
      <trkpt lat="44.35514" lon="7.10935">
        <ele>2104.8000488281</ele>
        <time>2024-09-13T14:04:56.000Z</time>
      </trkpt>
      <trkpt lat="44.35513" lon="7.10933">
        <ele>2105</ele>
        <time>2024-09-13T14:04:58.000Z</time>
      </trkpt>
      <trkpt lat="44.35514" lon="7.10935">
        <ele>2105.1999511719</ele>
        <time>2024-09-13T14:05:08.000Z</time>
      </trkpt>
      <trkpt lat="44.35514" lon="7.10935">
        <ele>2105.1999511719</ele>
        <time>2024-09-13T14:05:09.000Z</time>
      </trkpt>
      <trkpt lat="44.35514" lon="7.10935">
        <ele>2105.1999511719</ele>
        <time>2024-09-13T14:05:10.000Z</time>
      </trkpt>
      <trkpt lat="44.35514" lon="7.10935">
        <ele>2105.3999023438</ele>
        <time>2024-09-13T14:05:12.000Z</time>
      </trkpt>
      <trkpt lat="44.35515" lon="7.10933">
        <ele>2105.3999023438</ele>
        <time>2024-09-13T14:05:15.000Z</time>
      </trkpt>
      <trkpt lat="44.35515" lon="7.10933">
        <ele>2105.6000976562</ele>
        <time>2024-09-13T14:05:16.000Z</time>
      </trkpt>
      <trkpt lat="44.35515" lon="7.10933">
        <ele>2105.3999023438</ele>
        <time>2024-09-13T14:05:19.000Z</time>
      </trkpt>
      <trkpt lat="44.35514" lon="7.10934">
        <ele>2105.3999023438</ele>
        <time>2024-09-13T14:05:22.000Z</time>
      </trkpt>
      <trkpt lat="44.35512" lon="7.10932">
        <ele>2105.6000976562</ele>
        <time>2024-09-13T14:05:32.000Z</time>
      </trkpt>
      <trkpt lat="44.35511" lon="7.10929">
        <ele>2105.3999023438</ele>
        <time>2024-09-13T14:05:34.000Z</time>
      </trkpt>
      <trkpt lat="44.35512" lon="7.10924">
        <ele>2105</ele>
        <time>2024-09-13T14:05:36.000Z</time>
      </trkpt>
      <trkpt lat="44.35512" lon="7.10921">
        <ele>2104.8000488281</ele>
        <time>2024-09-13T14:05:37.000Z</time>
      </trkpt>
      <trkpt lat="44.35512" lon="7.10919">
        <ele>2104</ele>
        <time>2024-09-13T14:05:38.000Z</time>
      </trkpt>
      <trkpt lat="44.35512" lon="7.10916">
        <ele>2103.8000488281</ele>
        <time>2024-09-13T14:05:39.000Z</time>
      </trkpt>
      <trkpt lat="44.35511" lon="7.10913">
        <ele>2103.3999023438</ele>
        <time>2024-09-13T14:05:40.000Z</time>
      </trkpt>
      <trkpt lat="44.35512" lon="7.10903">
        <ele>2102.3999023438</ele>
        <time>2024-09-13T14:05:43.000Z</time>
      </trkpt>
      <trkpt lat="44.35513" lon="7.10901">
        <ele>2101.1999511719</ele>
        <time>2024-09-13T14:05:44.000Z</time>
      </trkpt>
      <trkpt lat="44.35514" lon="7.10895">
        <ele>2100</ele>
        <time>2024-09-13T14:05:46.000Z</time>
      </trkpt>
      <trkpt lat="44.35515" lon="7.10888">
        <ele>2099.1999511719</ele>
        <time>2024-09-13T14:05:48.000Z</time>
      </trkpt>
      <trkpt lat="44.35516" lon="7.10885">
        <ele>2098.8000488281</ele>
        <time>2024-09-13T14:05:49.000Z</time>
      </trkpt>
      <trkpt lat="44.35518" lon="7.1088">
        <ele>2097.6000976562</ele>
        <time>2024-09-13T14:05:51.000Z</time>
      </trkpt>
      <trkpt lat="44.3552" lon="7.10878">
        <ele>2096.6000976562</ele>
        <time>2024-09-13T14:05:52.000Z</time>
      </trkpt>
      <trkpt lat="44.35522" lon="7.10876">
        <ele>2096</ele>
        <time>2024-09-13T14:05:53.000Z</time>
      </trkpt>
      <trkpt lat="44.35523" lon="7.10875">
        <ele>2095.8000488281</ele>
        <time>2024-09-13T14:05:54.000Z</time>
      </trkpt>
      <trkpt lat="44.35524" lon="7.10875">
        <ele>2095.3999023438</ele>
        <time>2024-09-13T14:05:55.000Z</time>
      </trkpt>
      <trkpt lat="44.35524" lon="7.10875">
        <ele>2094.8000488281</ele>
        <time>2024-09-13T14:05:56.000Z</time>
      </trkpt>
      <trkpt lat="44.35526" lon="7.10871">
        <ele>2094.6000976562</ele>
        <time>2024-09-13T14:05:58.000Z</time>
      </trkpt>
      <trkpt lat="44.35528" lon="7.10868">
        <ele>2094.6000976562</ele>
        <time>2024-09-13T14:05:59.000Z</time>
      </trkpt>
      <trkpt lat="44.35533" lon="7.10861">
        <ele>2093.6000976562</ele>
        <time>2024-09-13T14:06:01.000Z</time>
      </trkpt>
      <trkpt lat="44.35535" lon="7.10858">
        <ele>2092.8000488281</ele>
        <time>2024-09-13T14:06:02.000Z</time>
      </trkpt>
      <trkpt lat="44.35536" lon="7.10856">
        <ele>2091.8000488281</ele>
        <time>2024-09-13T14:06:03.000Z</time>
      </trkpt>
      <trkpt lat="44.35537" lon="7.10854">
        <ele>2091.3999023438</ele>
        <time>2024-09-13T14:06:04.000Z</time>
      </trkpt>
      <trkpt lat="44.35538" lon="7.1085">
        <ele>2091</ele>
        <time>2024-09-13T14:06:05.000Z</time>
      </trkpt>
      <trkpt lat="44.35539" lon="7.10846">
        <ele>2090.8000488281</ele>
        <time>2024-09-13T14:06:06.000Z</time>
      </trkpt>
      <trkpt lat="44.3554" lon="7.10844">
        <ele>2090.8000488281</ele>
        <time>2024-09-13T14:06:07.000Z</time>
      </trkpt>
      <trkpt lat="44.35541" lon="7.10842">
        <ele>2090.1999511719</ele>
        <time>2024-09-13T14:06:08.000Z</time>
      </trkpt>
      <trkpt lat="44.3554" lon="7.10838">
        <ele>2089.6000976562</ele>
        <time>2024-09-13T14:06:09.000Z</time>
      </trkpt>
      <trkpt lat="44.35537" lon="7.10836">
        <ele>2089.3999023438</ele>
        <time>2024-09-13T14:06:10.000Z</time>
      </trkpt>
      <trkpt lat="44.35532" lon="7.10831">
        <ele>2088.6000976562</ele>
        <time>2024-09-13T14:06:12.000Z</time>
      </trkpt>
      <trkpt lat="44.35529" lon="7.10829">
        <ele>2087.8000488281</ele>
        <time>2024-09-13T14:06:13.000Z</time>
      </trkpt>
      <trkpt lat="44.35526" lon="7.10828">
        <ele>2087.3999023438</ele>
        <time>2024-09-13T14:06:14.000Z</time>
      </trkpt>
      <trkpt lat="44.35524" lon="7.10824">
        <ele>2085.8000488281</ele>
        <time>2024-09-13T14:06:15.000Z</time>
      </trkpt>
      <trkpt lat="44.35523" lon="7.1082">
        <ele>2084.8000488281</ele>
        <time>2024-09-13T14:06:16.000Z</time>
      </trkpt>
      <trkpt lat="44.35523" lon="7.10815">
        <ele>2084.3999023438</ele>
        <time>2024-09-13T14:06:17.000Z</time>
      </trkpt>
      <trkpt lat="44.35526" lon="7.1081">
        <ele>2083.6000976562</ele>
        <time>2024-09-13T14:06:18.000Z</time>
      </trkpt>
      <trkpt lat="44.35529" lon="7.10803">
        <ele>2081.6000976562</ele>
        <time>2024-09-13T14:06:19.000Z</time>
      </trkpt>
      <trkpt lat="44.35534" lon="7.10797">
        <ele>2080</ele>
        <time>2024-09-13T14:06:20.000Z</time>
      </trkpt>
      <trkpt lat="44.35538" lon="7.10789">
        <ele>2079.3999023438</ele>
        <time>2024-09-13T14:06:21.000Z</time>
      </trkpt>
      <trkpt lat="44.35539" lon="7.10784">
        <ele>2077.8000488281</ele>
        <time>2024-09-13T14:06:22.000Z</time>
      </trkpt>
      <trkpt lat="44.35538" lon="7.10778">
        <ele>2077.6000976562</ele>
        <time>2024-09-13T14:06:23.000Z</time>
      </trkpt>
      <trkpt lat="44.35536" lon="7.10773">
        <ele>2077.3999023438</ele>
        <time>2024-09-13T14:06:24.000Z</time>
      </trkpt>
      <trkpt lat="44.35535" lon="7.10769">
        <ele>2076.8000488281</ele>
        <time>2024-09-13T14:06:25.000Z</time>
      </trkpt>
      <trkpt lat="44.35536" lon="7.10763">
        <ele>2076.6000976562</ele>
        <time>2024-09-13T14:06:26.000Z</time>
      </trkpt>
      <trkpt lat="44.35539" lon="7.1076">
        <ele>2076.1999511719</ele>
        <time>2024-09-13T14:06:27.000Z</time>
      </trkpt>
      <trkpt lat="44.35541" lon="7.10758">
        <ele>2075.1999511719</ele>
        <time>2024-09-13T14:06:28.000Z</time>
      </trkpt>
      <trkpt lat="44.35543" lon="7.10755">
        <ele>2075</ele>
        <time>2024-09-13T14:06:29.000Z</time>
      </trkpt>
      <trkpt lat="44.35544" lon="7.10752">
        <ele>2074.8000488281</ele>
        <time>2024-09-13T14:06:30.000Z</time>
      </trkpt>
      <trkpt lat="44.35548" lon="7.10742">
        <ele>2074.3999023438</ele>
        <time>2024-09-13T14:06:32.000Z</time>
      </trkpt>
      <trkpt lat="44.3555" lon="7.10736">
        <ele>2073.6000976562</ele>
        <time>2024-09-13T14:06:33.000Z</time>
      </trkpt>
      <trkpt lat="44.35553" lon="7.10722">
        <ele>2072.8000488281</ele>
        <time>2024-09-13T14:06:35.000Z</time>
      </trkpt>
      <trkpt lat="44.35554" lon="7.10715">
        <ele>2072.3999023438</ele>
        <time>2024-09-13T14:06:36.000Z</time>
      </trkpt>
      <trkpt lat="44.35556" lon="7.1071">
        <ele>2071.1999511719</ele>
        <time>2024-09-13T14:06:37.000Z</time>
      </trkpt>
      <trkpt lat="44.35559" lon="7.10707">
        <ele>2069</ele>
        <time>2024-09-13T14:06:38.000Z</time>
      </trkpt>
      <trkpt lat="44.35563" lon="7.10704">
        <ele>2068.3999023438</ele>
        <time>2024-09-13T14:06:39.000Z</time>
      </trkpt>
      <trkpt lat="44.35564" lon="7.107">
        <ele>2068.1999511719</ele>
        <time>2024-09-13T14:06:40.000Z</time>
      </trkpt>
      <trkpt lat="44.35567" lon="7.10695">
        <ele>2067.8000488281</ele>
        <time>2024-09-13T14:06:41.000Z</time>
      </trkpt>
      <trkpt lat="44.3557" lon="7.10691">
        <ele>2067.1999511719</ele>
        <time>2024-09-13T14:06:42.000Z</time>
      </trkpt>
      <trkpt lat="44.35572" lon="7.10685">
        <ele>2065.8000488281</ele>
        <time>2024-09-13T14:06:43.000Z</time>
      </trkpt>
      <trkpt lat="44.35576" lon="7.10684">
        <ele>2065</ele>
        <time>2024-09-13T14:06:44.000Z</time>
      </trkpt>
      <trkpt lat="44.35573" lon="7.1068">
        <ele>2064.1999511719</ele>
        <time>2024-09-13T14:06:45.000Z</time>
      </trkpt>
      <trkpt lat="44.3557" lon="7.10677">
        <ele>2062.1999511719</ele>
        <time>2024-09-13T14:06:46.000Z</time>
      </trkpt>
      <trkpt lat="44.35568" lon="7.10675">
        <ele>2061.1999511719</ele>
        <time>2024-09-13T14:06:47.000Z</time>
      </trkpt>
      <trkpt lat="44.35567" lon="7.10672">
        <ele>2061</ele>
        <time>2024-09-13T14:06:48.000Z</time>
      </trkpt>
      <trkpt lat="44.35566" lon="7.10669">
        <ele>2060.3999023438</ele>
        <time>2024-09-13T14:06:49.000Z</time>
      </trkpt>
      <trkpt lat="44.35567" lon="7.10666">
        <ele>2060.1999511719</ele>
        <time>2024-09-13T14:06:50.000Z</time>
      </trkpt>
      <trkpt lat="44.35569" lon="7.10663">
        <ele>2059.3999023438</ele>
        <time>2024-09-13T14:06:51.000Z</time>
      </trkpt>
      <trkpt lat="44.3557" lon="7.10659">
        <ele>2058.8000488281</ele>
        <time>2024-09-13T14:06:52.000Z</time>
      </trkpt>
      <trkpt lat="44.35572" lon="7.10654">
        <ele>2058.3999023438</ele>
        <time>2024-09-13T14:06:53.000Z</time>
      </trkpt>
      <trkpt lat="44.35573" lon="7.10649">
        <ele>2058.1999511719</ele>
        <time>2024-09-13T14:06:54.000Z</time>
      </trkpt>
      <trkpt lat="44.35575" lon="7.10645">
        <ele>2058</ele>
        <time>2024-09-13T14:06:55.000Z</time>
      </trkpt>
      <trkpt lat="44.35576" lon="7.10645">
        <ele>2057.8000488281</ele>
        <time>2024-09-13T14:06:56.000Z</time>
      </trkpt>
      <trkpt lat="44.35578" lon="7.10645">
        <ele>2058</ele>
        <time>2024-09-13T14:06:57.000Z</time>
      </trkpt>
      <trkpt lat="44.35581" lon="7.10645">
        <ele>2058</ele>
        <time>2024-09-13T14:06:58.000Z</time>
      </trkpt>
      <trkpt lat="44.35587" lon="7.10645">
        <ele>2058</ele>
        <time>2024-09-13T14:07:00.000Z</time>
      </trkpt>
      <trkpt lat="44.3559" lon="7.10645">
        <ele>2058</ele>
        <time>2024-09-13T14:07:01.000Z</time>
      </trkpt>
      <trkpt lat="44.35603" lon="7.10651">
        <ele>2056.8000488281</ele>
        <time>2024-09-13T14:07:05.000Z</time>
      </trkpt>
      <trkpt lat="44.3561" lon="7.10652">
        <ele>2056.6000976562</ele>
        <time>2024-09-13T14:07:06.000Z</time>
      </trkpt>
      <trkpt lat="44.35622" lon="7.10657">
        <ele>2055.1999511719</ele>
        <time>2024-09-13T14:07:08.000Z</time>
      </trkpt>
      <trkpt lat="44.35626" lon="7.10661">
        <ele>2053</ele>
        <time>2024-09-13T14:07:09.000Z</time>
      </trkpt>
      <trkpt lat="44.35631" lon="7.10664">
        <ele>2051.3999023438</ele>
        <time>2024-09-13T14:07:10.000Z</time>
      </trkpt>
      <trkpt lat="44.35633" lon="7.10667">
        <ele>2050.1999511719</ele>
        <time>2024-09-13T14:07:11.000Z</time>
      </trkpt>
      <trkpt lat="44.35635" lon="7.10669">
        <ele>2050</ele>
        <time>2024-09-13T14:07:12.000Z</time>
      </trkpt>
      <trkpt lat="44.35638" lon="7.1067">
        <ele>2049.8000488281</ele>
        <time>2024-09-13T14:07:13.000Z</time>
      </trkpt>
      <trkpt lat="44.35642" lon="7.10674">
        <ele>2049.3999023438</ele>
        <time>2024-09-13T14:07:14.000Z</time>
      </trkpt>
      <trkpt lat="44.35644" lon="7.10678">
        <ele>2049</ele>
        <time>2024-09-13T14:07:15.000Z</time>
      </trkpt>
      <trkpt lat="44.35647" lon="7.10681">
        <ele>2048.1999511719</ele>
        <time>2024-09-13T14:07:16.000Z</time>
      </trkpt>
      <trkpt lat="44.35651" lon="7.10684">
        <ele>2046.8000488281</ele>
        <time>2024-09-13T14:07:17.000Z</time>
      </trkpt>
      <trkpt lat="44.35662" lon="7.10693">
        <ele>2045.1999511719</ele>
        <time>2024-09-13T14:07:19.000Z</time>
      </trkpt>
      <trkpt lat="44.3567" lon="7.10695">
        <ele>2044</ele>
        <time>2024-09-13T14:07:20.000Z</time>
      </trkpt>
      <trkpt lat="44.35682" lon="7.10695">
        <ele>2042</ele>
        <time>2024-09-13T14:07:22.000Z</time>
      </trkpt>
      <trkpt lat="44.35687" lon="7.10696">
        <ele>2041.4000244141</ele>
        <time>2024-09-13T14:07:23.000Z</time>
      </trkpt>
      <trkpt lat="44.35691" lon="7.107">
        <ele>2041</ele>
        <time>2024-09-13T14:07:24.000Z</time>
      </trkpt>
      <trkpt lat="44.35692" lon="7.10704">
        <ele>2041</ele>
        <time>2024-09-13T14:07:25.000Z</time>
      </trkpt>
      <trkpt lat="44.35693" lon="7.10708">
        <ele>2041</ele>
        <time>2024-09-13T14:07:26.000Z</time>
      </trkpt>
      <trkpt lat="44.35696" lon="7.10712">
        <ele>2041</ele>
        <time>2024-09-13T14:07:27.000Z</time>
      </trkpt>
      <trkpt lat="44.35698" lon="7.10714">
        <ele>2041</ele>
        <time>2024-09-13T14:07:28.000Z</time>
      </trkpt>
      <trkpt lat="44.357" lon="7.10715">
        <ele>2041</ele>
        <time>2024-09-13T14:07:29.000Z</time>
      </trkpt>
      <trkpt lat="44.35702" lon="7.10715">
        <ele>2041.1999511719</ele>
        <time>2024-09-13T14:07:30.000Z</time>
      </trkpt>
      <trkpt lat="44.35704" lon="7.10716">
        <ele>2041.4000244141</ele>
        <time>2024-09-13T14:07:31.000Z</time>
      </trkpt>
      <trkpt lat="44.35705" lon="7.10716">
        <ele>2041.5999755859</ele>
        <time>2024-09-13T14:07:32.000Z</time>
      </trkpt>
      <trkpt lat="44.35705" lon="7.10715">
        <ele>2041.5999755859</ele>
        <time>2024-09-13T14:07:33.000Z</time>
      </trkpt>
      <trkpt lat="44.35705" lon="7.10715">
        <ele>2041.8000488281</ele>
        <time>2024-09-13T14:07:34.000Z</time>
      </trkpt>
      <trkpt lat="44.35704" lon="7.10715">
        <ele>2042</ele>
        <time>2024-09-13T14:07:36.000Z</time>
      </trkpt>
      <trkpt lat="44.35704" lon="7.10714">
        <ele>2042</ele>
        <time>2024-09-13T14:07:39.000Z</time>
      </trkpt>
      <trkpt lat="44.35703" lon="7.10714">
        <ele>2042.1999511719</ele>
        <time>2024-09-13T14:07:40.000Z</time>
      </trkpt>
      <trkpt lat="44.35704" lon="7.10714">
        <ele>2042.1999511719</ele>
        <time>2024-09-13T14:07:45.000Z</time>
      </trkpt>
      <trkpt lat="44.35702" lon="7.10716">
        <ele>2042.4000244141</ele>
        <time>2024-09-13T14:07:46.000Z</time>
      </trkpt>
      <trkpt lat="44.35702" lon="7.10717">
        <ele>2042.4000244141</ele>
        <time>2024-09-13T14:07:47.000Z</time>
      </trkpt>
      <trkpt lat="44.35702" lon="7.10717">
        <ele>2042.4000244141</ele>
        <time>2024-09-13T14:07:48.000Z</time>
      </trkpt>
      <trkpt lat="44.35702" lon="7.10717">
        <ele>2042.4000244141</ele>
        <time>2024-09-13T14:07:49.000Z</time>
      </trkpt>
      <trkpt lat="44.35702" lon="7.10717">
        <ele>2042.4000244141</ele>
        <time>2024-09-13T14:07:50.000Z</time>
      </trkpt>
      <trkpt lat="44.35702" lon="7.10717">
        <ele>2042.4000244141</ele>
        <time>2024-09-13T14:07:51.000Z</time>
      </trkpt>
      <trkpt lat="44.35702" lon="7.10717">
        <ele>2042.5999755859</ele>
        <time>2024-09-13T14:07:55.000Z</time>
      </trkpt>
      <trkpt lat="44.35702" lon="7.10717">
        <ele>2042.4000244141</ele>
        <time>2024-09-13T14:07:56.000Z</time>
      </trkpt>
      <trkpt lat="44.35703" lon="7.1072">
        <ele>2042.5999755859</ele>
        <time>2024-09-13T14:08:01.000Z</time>
      </trkpt>
      <trkpt lat="44.35704" lon="7.10721">
        <ele>2042.5999755859</ele>
        <time>2024-09-13T14:08:07.000Z</time>
      </trkpt>
      <trkpt lat="44.35704" lon="7.10721">
        <ele>2042.5999755859</ele>
        <time>2024-09-13T14:08:10.000Z</time>
      </trkpt>
      <trkpt lat="44.35704" lon="7.10721">
        <ele>2042.8000488281</ele>
        <time>2024-09-13T14:08:17.000Z</time>
      </trkpt>
      <trkpt lat="44.35704" lon="7.1072">
        <ele>2042.5999755859</ele>
        <time>2024-09-13T14:08:18.000Z</time>
      </trkpt>
      <trkpt lat="44.35712" lon="7.10726">
        <ele>2042.5999755859</ele>
        <time>2024-09-13T14:08:25.000Z</time>
      </trkpt>
      <trkpt lat="44.35714" lon="7.1073">
        <ele>2042.4000244141</ele>
        <time>2024-09-13T14:08:27.000Z</time>
      </trkpt>
      <trkpt lat="44.35716" lon="7.10733">
        <ele>2041.5999755859</ele>
        <time>2024-09-13T14:08:28.000Z</time>
      </trkpt>
      <trkpt lat="44.35718" lon="7.10733">
        <ele>2040.8000488281</ele>
        <time>2024-09-13T14:08:29.000Z</time>
      </trkpt>
      <trkpt lat="44.35721" lon="7.10732">
        <ele>2039.8000488281</ele>
        <time>2024-09-13T14:08:30.000Z</time>
      </trkpt>
      <trkpt lat="44.35728" lon="7.10728">
        <ele>2038.5999755859</ele>
        <time>2024-09-13T14:08:32.000Z</time>
      </trkpt>
      <trkpt lat="44.3573" lon="7.10726">
        <ele>2038.5999755859</ele>
        <time>2024-09-13T14:08:33.000Z</time>
      </trkpt>
      <trkpt lat="44.35734" lon="7.10725">
        <ele>2038.1999511719</ele>
        <time>2024-09-13T14:08:34.000Z</time>
      </trkpt>
      <trkpt lat="44.35735" lon="7.10722">
        <ele>2037.4000244141</ele>
        <time>2024-09-13T14:08:35.000Z</time>
      </trkpt>
      <trkpt lat="44.35737" lon="7.10718">
        <ele>2037.1999511719</ele>
        <time>2024-09-13T14:08:36.000Z</time>
      </trkpt>
      <trkpt lat="44.35739" lon="7.10714">
        <ele>2037</ele>
        <time>2024-09-13T14:08:37.000Z</time>
      </trkpt>
      <trkpt lat="44.35743" lon="7.10711">
        <ele>2036.8000488281</ele>
        <time>2024-09-13T14:08:38.000Z</time>
      </trkpt>
      <trkpt lat="44.35748" lon="7.1071">
        <ele>2036.5999755859</ele>
        <time>2024-09-13T14:08:39.000Z</time>
      </trkpt>
      <trkpt lat="44.35752" lon="7.10708">
        <ele>2035</ele>
        <time>2024-09-13T14:08:40.000Z</time>
      </trkpt>
      <trkpt lat="44.35756" lon="7.10707">
        <ele>2034.5999755859</ele>
        <time>2024-09-13T14:08:41.000Z</time>
      </trkpt>
      <trkpt lat="44.35759" lon="7.10705">
        <ele>2034.4000244141</ele>
        <time>2024-09-13T14:08:42.000Z</time>
      </trkpt>
      <trkpt lat="44.35763" lon="7.10704">
        <ele>2034.4000244141</ele>
        <time>2024-09-13T14:08:43.000Z</time>
      </trkpt>
      <trkpt lat="44.35766" lon="7.10703">
        <ele>2034.4000244141</ele>
        <time>2024-09-13T14:08:44.000Z</time>
      </trkpt>
      <trkpt lat="44.35769" lon="7.10703">
        <ele>2034.4000244141</ele>
        <time>2024-09-13T14:08:45.000Z</time>
      </trkpt>
      <trkpt lat="44.35772" lon="7.10703">
        <ele>2034.4000244141</ele>
        <time>2024-09-13T14:08:46.000Z</time>
      </trkpt>
      <trkpt lat="44.35775" lon="7.10703">
        <ele>2034.4000244141</ele>
        <time>2024-09-13T14:08:47.000Z</time>
      </trkpt>
      <trkpt lat="44.35779" lon="7.10702">
        <ele>2034.4000244141</ele>
        <time>2024-09-13T14:08:48.000Z</time>
      </trkpt>
      <trkpt lat="44.35786" lon="7.10701">
        <ele>2034.4000244141</ele>
        <time>2024-09-13T14:08:50.000Z</time>
      </trkpt>
      <trkpt lat="44.35788" lon="7.10701">
        <ele>2034.4000244141</ele>
        <time>2024-09-13T14:08:51.000Z</time>
      </trkpt>
      <trkpt lat="44.35791" lon="7.10702">
        <ele>2034.4000244141</ele>
        <time>2024-09-13T14:08:52.000Z</time>
      </trkpt>
      <trkpt lat="44.35796" lon="7.10705">
        <ele>2033.8000488281</ele>
        <time>2024-09-13T14:08:54.000Z</time>
      </trkpt>
      <trkpt lat="44.35797" lon="7.10707">
        <ele>2033.5999755859</ele>
        <time>2024-09-13T14:08:55.000Z</time>
      </trkpt>
      <trkpt lat="44.35799" lon="7.10708">
        <ele>2033.4000244141</ele>
        <time>2024-09-13T14:08:56.000Z</time>
      </trkpt>
      <trkpt lat="44.35802" lon="7.10709">
        <ele>2033</ele>
        <time>2024-09-13T14:08:58.000Z</time>
      </trkpt>
      <trkpt lat="44.35803" lon="7.10709">
        <ele>2033</ele>
        <time>2024-09-13T14:08:59.000Z</time>
      </trkpt>
      <trkpt lat="44.35803" lon="7.10708">
        <ele>2032.5999755859</ele>
        <time>2024-09-13T14:09:00.000Z</time>
      </trkpt>
      <trkpt lat="44.35804" lon="7.10709">
        <ele>2032.1999511719</ele>
        <time>2024-09-13T14:09:01.000Z</time>
      </trkpt>
      <trkpt lat="44.35805" lon="7.1071">
        <ele>2032</ele>
        <time>2024-09-13T14:09:02.000Z</time>
      </trkpt>
      <trkpt lat="44.35807" lon="7.1071">
        <ele>2031.8000488281</ele>
        <time>2024-09-13T14:09:03.000Z</time>
      </trkpt>
      <trkpt lat="44.3581" lon="7.10709">
        <ele>2031.5999755859</ele>
        <time>2024-09-13T14:09:04.000Z</time>
      </trkpt>
      <trkpt lat="44.35813" lon="7.10708">
        <ele>2031.4000244141</ele>
        <time>2024-09-13T14:09:05.000Z</time>
      </trkpt>
      <trkpt lat="44.35815" lon="7.10709">
        <ele>2031.4000244141</ele>
        <time>2024-09-13T14:09:06.000Z</time>
      </trkpt>
      <trkpt lat="44.35818" lon="7.1071">
        <ele>2030.8000488281</ele>
        <time>2024-09-13T14:09:07.000Z</time>
      </trkpt>
      <trkpt lat="44.3582" lon="7.10712">
        <ele>2030.5999755859</ele>
        <time>2024-09-13T14:09:08.000Z</time>
      </trkpt>
      <trkpt lat="44.35822" lon="7.10714">
        <ele>2030.4000244141</ele>
        <time>2024-09-13T14:09:09.000Z</time>
      </trkpt>
      <trkpt lat="44.35824" lon="7.10717">
        <ele>2030.1999511719</ele>
        <time>2024-09-13T14:09:10.000Z</time>
      </trkpt>
      <trkpt lat="44.35826" lon="7.10719">
        <ele>2030</ele>
        <time>2024-09-13T14:09:11.000Z</time>
      </trkpt>
      <trkpt lat="44.35828" lon="7.10722">
        <ele>2029.1999511719</ele>
        <time>2024-09-13T14:09:12.000Z</time>
      </trkpt>
      <trkpt lat="44.3583" lon="7.10723">
        <ele>2028.5999755859</ele>
        <time>2024-09-13T14:09:13.000Z</time>
      </trkpt>
      <trkpt lat="44.35833" lon="7.10723">
        <ele>2028.1999511719</ele>
        <time>2024-09-13T14:09:14.000Z</time>
      </trkpt>
      <trkpt lat="44.35836" lon="7.10723">
        <ele>2027.8000488281</ele>
        <time>2024-09-13T14:09:15.000Z</time>
      </trkpt>
      <trkpt lat="44.35839" lon="7.10724">
        <ele>2027.1999511719</ele>
        <time>2024-09-13T14:09:16.000Z</time>
      </trkpt>
      <trkpt lat="44.35841" lon="7.10726">
        <ele>2027.1999511719</ele>
        <time>2024-09-13T14:09:17.000Z</time>
      </trkpt>
      <trkpt lat="44.35842" lon="7.10727">
        <ele>2027.1999511719</ele>
        <time>2024-09-13T14:09:18.000Z</time>
      </trkpt>
      <trkpt lat="44.35844" lon="7.10728">
        <ele>2027</ele>
        <time>2024-09-13T14:09:19.000Z</time>
      </trkpt>
      <trkpt lat="44.3585" lon="7.10731">
        <ele>2026.8000488281</ele>
        <time>2024-09-13T14:09:21.000Z</time>
      </trkpt>
      <trkpt lat="44.35852" lon="7.10732">
        <ele>2026</ele>
        <time>2024-09-13T14:09:22.000Z</time>
      </trkpt>
      <trkpt lat="44.35858" lon="7.10735">
        <ele>2024.8000488281</ele>
        <time>2024-09-13T14:09:24.000Z</time>
      </trkpt>
      <trkpt lat="44.3586" lon="7.10736">
        <ele>2024.1999511719</ele>
        <time>2024-09-13T14:09:25.000Z</time>
      </trkpt>
      <trkpt lat="44.35862" lon="7.10738">
        <ele>2023.5999755859</ele>
        <time>2024-09-13T14:09:26.000Z</time>
      </trkpt>
      <trkpt lat="44.35864" lon="7.10739">
        <ele>2022.5999755859</ele>
        <time>2024-09-13T14:09:27.000Z</time>
      </trkpt>
      <trkpt lat="44.35867" lon="7.10739">
        <ele>2022</ele>
        <time>2024-09-13T14:09:28.000Z</time>
      </trkpt>
      <trkpt lat="44.3587" lon="7.10739">
        <ele>2021.4000244141</ele>
        <time>2024-09-13T14:09:29.000Z</time>
      </trkpt>
      <trkpt lat="44.35874" lon="7.10738">
        <ele>2020.8000488281</ele>
        <time>2024-09-13T14:09:30.000Z</time>
      </trkpt>
      <trkpt lat="44.35877" lon="7.10737">
        <ele>2020</ele>
        <time>2024-09-13T14:09:31.000Z</time>
      </trkpt>
      <trkpt lat="44.35879" lon="7.10736">
        <ele>2019</ele>
        <time>2024-09-13T14:09:32.000Z</time>
      </trkpt>
      <trkpt lat="44.35882" lon="7.10735">
        <ele>2018.1999511719</ele>
        <time>2024-09-13T14:09:33.000Z</time>
      </trkpt>
      <trkpt lat="44.35885" lon="7.10734">
        <ele>2016.8000488281</ele>
        <time>2024-09-13T14:09:34.000Z</time>
      </trkpt>
      <trkpt lat="44.35889" lon="7.10734">
        <ele>2016.1999511719</ele>
        <time>2024-09-13T14:09:35.000Z</time>
      </trkpt>
      <trkpt lat="44.35894" lon="7.10733">
        <ele>2015.5999755859</ele>
        <time>2024-09-13T14:09:36.000Z</time>
      </trkpt>
      <trkpt lat="44.35898" lon="7.10733">
        <ele>2015.4000244141</ele>
        <time>2024-09-13T14:09:37.000Z</time>
      </trkpt>
      <trkpt lat="44.35902" lon="7.10734">
        <ele>2014.1999511719</ele>
        <time>2024-09-13T14:09:38.000Z</time>
      </trkpt>
      <trkpt lat="44.35905" lon="7.10735">
        <ele>2012.4000244141</ele>
        <time>2024-09-13T14:09:39.000Z</time>
      </trkpt>
      <trkpt lat="44.35908" lon="7.10733">
        <ele>2011.8000488281</ele>
        <time>2024-09-13T14:09:40.000Z</time>
      </trkpt>
      <trkpt lat="44.35916" lon="7.1073">
        <ele>2011.1999511719</ele>
        <time>2024-09-13T14:09:42.000Z</time>
      </trkpt>
      <trkpt lat="44.35925" lon="7.10731">
        <ele>2010</ele>
        <time>2024-09-13T14:09:44.000Z</time>
      </trkpt>
      <trkpt lat="44.35929" lon="7.10731">
        <ele>2009.5999755859</ele>
        <time>2024-09-13T14:09:45.000Z</time>
      </trkpt>
      <trkpt lat="44.35933" lon="7.10731">
        <ele>2009.4000244141</ele>
        <time>2024-09-13T14:09:46.000Z</time>
      </trkpt>
      <trkpt lat="44.3594" lon="7.1073">
        <ele>2009.4000244141</ele>
        <time>2024-09-13T14:09:48.000Z</time>
      </trkpt>
      <trkpt lat="44.35943" lon="7.10729">
        <ele>2009.4000244141</ele>
        <time>2024-09-13T14:09:49.000Z</time>
      </trkpt>
      <trkpt lat="44.35945" lon="7.10726">
        <ele>2009.4000244141</ele>
        <time>2024-09-13T14:09:50.000Z</time>
      </trkpt>
      <trkpt lat="44.35949" lon="7.10721">
        <ele>2009.4000244141</ele>
        <time>2024-09-13T14:09:51.000Z</time>
      </trkpt>
      <trkpt lat="44.35952" lon="7.10717">
        <ele>2009.1999511719</ele>
        <time>2024-09-13T14:09:52.000Z</time>
      </trkpt>
      <trkpt lat="44.35957" lon="7.10714">
        <ele>2008.8000488281</ele>
        <time>2024-09-13T14:09:53.000Z</time>
      </trkpt>
      <trkpt lat="44.35961" lon="7.10714">
        <ele>2008</ele>
        <time>2024-09-13T14:09:54.000Z</time>
      </trkpt>
      <trkpt lat="44.35965" lon="7.10713">
        <ele>2007.1999511719</ele>
        <time>2024-09-13T14:09:55.000Z</time>
      </trkpt>
      <trkpt lat="44.35968" lon="7.10713">
        <ele>2006.5999755859</ele>
        <time>2024-09-13T14:09:56.000Z</time>
      </trkpt>
      <trkpt lat="44.35971" lon="7.10712">
        <ele>2006.1999511719</ele>
        <time>2024-09-13T14:09:57.000Z</time>
      </trkpt>
      <trkpt lat="44.35978" lon="7.10709">
        <ele>2006.1999511719</ele>
        <time>2024-09-13T14:09:59.000Z</time>
      </trkpt>
      <trkpt lat="44.35981" lon="7.10708">
        <ele>2006</ele>
        <time>2024-09-13T14:10:00.000Z</time>
      </trkpt>
      <trkpt lat="44.35984" lon="7.10708">
        <ele>2005.8000488281</ele>
        <time>2024-09-13T14:10:01.000Z</time>
      </trkpt>
      <trkpt lat="44.35987" lon="7.10708">
        <ele>2004.8000488281</ele>
        <time>2024-09-13T14:10:02.000Z</time>
      </trkpt>
      <trkpt lat="44.35989" lon="7.10708">
        <ele>2003.5999755859</ele>
        <time>2024-09-13T14:10:03.000Z</time>
      </trkpt>
      <trkpt lat="44.35992" lon="7.10707">
        <ele>2003.4000244141</ele>
        <time>2024-09-13T14:10:04.000Z</time>
      </trkpt>
      <trkpt lat="44.35994" lon="7.10704">
        <ele>2002.5999755859</ele>
        <time>2024-09-13T14:10:05.000Z</time>
      </trkpt>
      <trkpt lat="44.35996" lon="7.10704">
        <ele>2002</ele>
        <time>2024-09-13T14:10:06.000Z</time>
      </trkpt>
      <trkpt lat="44.35997" lon="7.10704">
        <ele>2001</ele>
        <time>2024-09-13T14:10:07.000Z</time>
      </trkpt>
      <trkpt lat="44.35999" lon="7.10705">
        <ele>2000.8000488281</ele>
        <time>2024-09-13T14:10:08.000Z</time>
      </trkpt>
      <trkpt lat="44.36006" lon="7.10703">
        <ele>1999.4000244141</ele>
        <time>2024-09-13T14:10:11.000Z</time>
      </trkpt>
      <trkpt lat="44.36014" lon="7.10702">
        <ele>1997.4000244141</ele>
        <time>2024-09-13T14:10:14.000Z</time>
      </trkpt>
      <trkpt lat="44.36017" lon="7.10702">
        <ele>1996.1999511719</ele>
        <time>2024-09-13T14:10:15.000Z</time>
      </trkpt>
      <trkpt lat="44.36019" lon="7.10703">
        <ele>1995.8000488281</ele>
        <time>2024-09-13T14:10:16.000Z</time>
      </trkpt>
      <trkpt lat="44.36025" lon="7.10703">
        <ele>1994.4000244141</ele>
        <time>2024-09-13T14:10:18.000Z</time>
      </trkpt>
      <trkpt lat="44.36027" lon="7.10702">
        <ele>1993.8000488281</ele>
        <time>2024-09-13T14:10:19.000Z</time>
      </trkpt>
      <trkpt lat="44.36029" lon="7.107">
        <ele>1993</ele>
        <time>2024-09-13T14:10:20.000Z</time>
      </trkpt>
      <trkpt lat="44.36031" lon="7.10699">
        <ele>1992.8000488281</ele>
        <time>2024-09-13T14:10:21.000Z</time>
      </trkpt>
      <trkpt lat="44.36033" lon="7.10698">
        <ele>1991.4000244141</ele>
        <time>2024-09-13T14:10:22.000Z</time>
      </trkpt>
      <trkpt lat="44.36034" lon="7.10697">
        <ele>1990.8000488281</ele>
        <time>2024-09-13T14:10:23.000Z</time>
      </trkpt>
      <trkpt lat="44.36036" lon="7.10695">
        <ele>1990.1999511719</ele>
        <time>2024-09-13T14:10:24.000Z</time>
      </trkpt>
      <trkpt lat="44.36038" lon="7.10695">
        <ele>1989.5999755859</ele>
        <time>2024-09-13T14:10:25.000Z</time>
      </trkpt>
      <trkpt lat="44.3604" lon="7.10695">
        <ele>1988.5999755859</ele>
        <time>2024-09-13T14:10:26.000Z</time>
      </trkpt>
      <trkpt lat="44.36041" lon="7.10694">
        <ele>1988</ele>
        <time>2024-09-13T14:10:27.000Z</time>
      </trkpt>
      <trkpt lat="44.36043" lon="7.10693">
        <ele>1987.1999511719</ele>
        <time>2024-09-13T14:10:28.000Z</time>
      </trkpt>
      <trkpt lat="44.36045" lon="7.10693">
        <ele>1986.8000488281</ele>
        <time>2024-09-13T14:10:29.000Z</time>
      </trkpt>
      <trkpt lat="44.36045" lon="7.10693">
        <ele>1986.4000244141</ele>
        <time>2024-09-13T14:10:30.000Z</time>
      </trkpt>
      <trkpt lat="44.36045" lon="7.10694">
        <ele>1985.8000488281</ele>
        <time>2024-09-13T14:10:31.000Z</time>
      </trkpt>
      <trkpt lat="44.36044" lon="7.10694">
        <ele>1985.5999755859</ele>
        <time>2024-09-13T14:10:32.000Z</time>
      </trkpt>
      <trkpt lat="44.36044" lon="7.10694">
        <ele>1985.5999755859</ele>
        <time>2024-09-13T14:10:33.000Z</time>
      </trkpt>
      <trkpt lat="44.36044" lon="7.10694">
        <ele>1985.4000244141</ele>
        <time>2024-09-13T14:10:34.000Z</time>
      </trkpt>
      <trkpt lat="44.36045" lon="7.10693">
        <ele>1985.4000244141</ele>
        <time>2024-09-13T14:10:35.000Z</time>
      </trkpt>
      <trkpt lat="44.36046" lon="7.10693">
        <ele>1985.4000244141</ele>
        <time>2024-09-13T14:10:36.000Z</time>
      </trkpt>
      <trkpt lat="44.36054" lon="7.10687">
        <ele>1984.8000488281</ele>
        <time>2024-09-13T14:10:41.000Z</time>
      </trkpt>
      <trkpt lat="44.36056" lon="7.10685">
        <ele>1984.1999511719</ele>
        <time>2024-09-13T14:10:42.000Z</time>
      </trkpt>
      <trkpt lat="44.36058" lon="7.10684">
        <ele>1983.1999511719</ele>
        <time>2024-09-13T14:10:43.000Z</time>
      </trkpt>
      <trkpt lat="44.3606" lon="7.10682">
        <ele>1982.8000488281</ele>
        <time>2024-09-13T14:10:44.000Z</time>
      </trkpt>
      <trkpt lat="44.36062" lon="7.10682">
        <ele>1982</ele>
        <time>2024-09-13T14:10:45.000Z</time>
      </trkpt>
      <trkpt lat="44.36064" lon="7.10681">
        <ele>1981</ele>
        <time>2024-09-13T14:10:46.000Z</time>
      </trkpt>
      <trkpt lat="44.36069" lon="7.10681">
        <ele>1979.8000488281</ele>
        <time>2024-09-13T14:10:48.000Z</time>
      </trkpt>
      <trkpt lat="44.36071" lon="7.10681">
        <ele>1978.5999755859</ele>
        <time>2024-09-13T14:10:49.000Z</time>
      </trkpt>
      <trkpt lat="44.36073" lon="7.10681">
        <ele>1977.4000244141</ele>
        <time>2024-09-13T14:10:50.000Z</time>
      </trkpt>
      <trkpt lat="44.36074" lon="7.1068">
        <ele>1976.8000488281</ele>
        <time>2024-09-13T14:10:51.000Z</time>
      </trkpt>
      <trkpt lat="44.36076" lon="7.10679">
        <ele>1976.5999755859</ele>
        <time>2024-09-13T14:10:52.000Z</time>
      </trkpt>
      <trkpt lat="44.36077" lon="7.10678">
        <ele>1976.1999511719</ele>
        <time>2024-09-13T14:10:53.000Z</time>
      </trkpt>
      <trkpt lat="44.3608" lon="7.10677">
        <ele>1975.4000244141</ele>
        <time>2024-09-13T14:10:54.000Z</time>
      </trkpt>
      <trkpt lat="44.36082" lon="7.10677">
        <ele>1974.5999755859</ele>
        <time>2024-09-13T14:10:55.000Z</time>
      </trkpt>
      <trkpt lat="44.36084" lon="7.10676">
        <ele>1973.5999755859</ele>
        <time>2024-09-13T14:10:56.000Z</time>
      </trkpt>
      <trkpt lat="44.36087" lon="7.10675">
        <ele>1972.4000244141</ele>
        <time>2024-09-13T14:10:57.000Z</time>
      </trkpt>
      <trkpt lat="44.36089" lon="7.10675">
        <ele>1971.8000488281</ele>
        <time>2024-09-13T14:10:58.000Z</time>
      </trkpt>
      <trkpt lat="44.36092" lon="7.10675">
        <ele>1971</ele>
        <time>2024-09-13T14:10:59.000Z</time>
      </trkpt>
      <trkpt lat="44.36094" lon="7.10673">
        <ele>1970.1999511719</ele>
        <time>2024-09-13T14:11:00.000Z</time>
      </trkpt>
      <trkpt lat="44.36097" lon="7.1067">
        <ele>1969.8000488281</ele>
        <time>2024-09-13T14:11:01.000Z</time>
      </trkpt>
      <trkpt lat="44.36101" lon="7.10663">
        <ele>1967.8000488281</ele>
        <time>2024-09-13T14:11:03.000Z</time>
      </trkpt>
      <trkpt lat="44.36103" lon="7.1066">
        <ele>1967.4000244141</ele>
        <time>2024-09-13T14:11:04.000Z</time>
      </trkpt>
      <trkpt lat="44.36104" lon="7.10658">
        <ele>1966.5999755859</ele>
        <time>2024-09-13T14:11:05.000Z</time>
      </trkpt>
      <trkpt lat="44.36104" lon="7.10658">
        <ele>1966.1999511719</ele>
        <time>2024-09-13T14:11:08.000Z</time>
      </trkpt>
      <trkpt lat="44.36106" lon="7.10656">
        <ele>1966.1999511719</ele>
        <time>2024-09-13T14:11:09.000Z</time>
      </trkpt>
      <trkpt lat="44.36106" lon="7.10655">
        <ele>1966.4000244141</ele>
        <time>2024-09-13T14:11:17.000Z</time>
      </trkpt>
      <trkpt lat="44.36106" lon="7.10655">
        <ele>1966.4000244141</ele>
        <time>2024-09-13T14:11:18.000Z</time>
      </trkpt>
      <trkpt lat="44.36105" lon="7.10657">
        <ele>1966.5999755859</ele>
        <time>2024-09-13T14:11:27.000Z</time>
      </trkpt>
      <trkpt lat="44.36105" lon="7.10657">
        <ele>1966.5999755859</ele>
        <time>2024-09-13T14:11:34.000Z</time>
      </trkpt>
      <trkpt lat="44.36105" lon="7.10657">
        <ele>1966.5999755859</ele>
        <time>2024-09-13T14:11:35.000Z</time>
      </trkpt>
      <trkpt lat="44.36105" lon="7.10657">
        <ele>1966.5999755859</ele>
        <time>2024-09-13T14:11:36.000Z</time>
      </trkpt>
      <trkpt lat="44.36105" lon="7.10655">
        <ele>1966.5999755859</ele>
        <time>2024-09-13T14:11:43.000Z</time>
      </trkpt>
      <trkpt lat="44.36105" lon="7.10655">
        <ele>1966.8000488281</ele>
        <time>2024-09-13T14:11:58.000Z</time>
      </trkpt>
      <trkpt lat="44.36107" lon="7.10656">
        <ele>1966.8000488281</ele>
        <time>2024-09-13T14:12:00.000Z</time>
      </trkpt>
      <trkpt lat="44.3611" lon="7.10655">
        <ele>1966.8000488281</ele>
        <time>2024-09-13T14:12:08.000Z</time>
      </trkpt>
      <trkpt lat="44.3611" lon="7.10655">
        <ele>1967</ele>
        <time>2024-09-13T14:12:22.000Z</time>
      </trkpt>
      <trkpt lat="44.3611" lon="7.10655">
        <ele>1967</ele>
        <time>2024-09-13T14:12:26.000Z</time>
      </trkpt>
      <trkpt lat="44.3611" lon="7.10655">
        <ele>1967</ele>
        <time>2024-09-13T14:12:28.000Z</time>
      </trkpt>
      <trkpt lat="44.3611" lon="7.10655">
        <ele>1967</ele>
        <time>2024-09-13T14:12:30.000Z</time>
      </trkpt>
      <trkpt lat="44.3611" lon="7.10655">
        <ele>1967</ele>
        <time>2024-09-13T14:12:43.000Z</time>
      </trkpt>
      <trkpt lat="44.36109" lon="7.10656">
        <ele>1967</ele>
        <time>2024-09-13T14:13:08.000Z</time>
      </trkpt>
      <trkpt lat="44.36107" lon="7.10658">
        <ele>1967</ele>
        <time>2024-09-13T14:13:18.000Z</time>
      </trkpt>
      <trkpt lat="44.36108" lon="7.10656">
        <ele>1967</ele>
        <time>2024-09-13T14:13:19.000Z</time>
      </trkpt>
      <trkpt lat="44.36109" lon="7.10652">
        <ele>1967.5999755859</ele>
        <time>2024-09-13T14:13:21.000Z</time>
      </trkpt>
      <trkpt lat="44.36109" lon="7.10648">
        <ele>1967.4000244141</ele>
        <time>2024-09-13T14:13:22.000Z</time>
      </trkpt>
      <trkpt lat="44.3611" lon="7.10644">
        <ele>1967.4000244141</ele>
        <time>2024-09-13T14:13:23.000Z</time>
      </trkpt>
      <trkpt lat="44.3611" lon="7.1064">
        <ele>1967</ele>
        <time>2024-09-13T14:13:24.000Z</time>
      </trkpt>
      <trkpt lat="44.3611" lon="7.10637">
        <ele>1966.5999755859</ele>
        <time>2024-09-13T14:13:25.000Z</time>
      </trkpt>
      <trkpt lat="44.36112" lon="7.10631">
        <ele>1966.4000244141</ele>
        <time>2024-09-13T14:13:26.000Z</time>
      </trkpt>
      <trkpt lat="44.36112" lon="7.10631">
        <ele>1966</ele>
        <time>2024-09-13T14:13:27.000Z</time>
      </trkpt>
      <trkpt lat="44.36112" lon="7.1063">
        <ele>1965.8000488281</ele>
        <time>2024-09-13T14:13:28.000Z</time>
      </trkpt>
      <trkpt lat="44.36113" lon="7.1063">
        <ele>1965.8000488281</ele>
        <time>2024-09-13T14:13:29.000Z</time>
      </trkpt>
      <trkpt lat="44.36113" lon="7.1063">
        <ele>1965.5999755859</ele>
        <time>2024-09-13T14:13:30.000Z</time>
      </trkpt>
      <trkpt lat="44.36115" lon="7.10629">
        <ele>1965.5999755859</ele>
        <time>2024-09-13T14:13:32.000Z</time>
      </trkpt>
      <trkpt lat="44.36116" lon="7.10628">
        <ele>1965.5999755859</ele>
        <time>2024-09-13T14:13:33.000Z</time>
      </trkpt>
      <trkpt lat="44.3612" lon="7.10625">
        <ele>1965.5999755859</ele>
        <time>2024-09-13T14:13:35.000Z</time>
      </trkpt>
      <trkpt lat="44.36122" lon="7.10623">
        <ele>1965.4000244141</ele>
        <time>2024-09-13T14:13:36.000Z</time>
      </trkpt>
      <trkpt lat="44.36124" lon="7.10622">
        <ele>1965.4000244141</ele>
        <time>2024-09-13T14:13:37.000Z</time>
      </trkpt>
      <trkpt lat="44.36128" lon="7.10616">
        <ele>1965</ele>
        <time>2024-09-13T14:13:39.000Z</time>
      </trkpt>
      <trkpt lat="44.36133" lon="7.10609">
        <ele>1963.8000488281</ele>
        <time>2024-09-13T14:13:41.000Z</time>
      </trkpt>
      <trkpt lat="44.36137" lon="7.10607">
        <ele>1962.4000244141</ele>
        <time>2024-09-13T14:13:42.000Z</time>
      </trkpt>
      <trkpt lat="44.36143" lon="7.10601">
        <ele>1961.8000488281</ele>
        <time>2024-09-13T14:13:44.000Z</time>
      </trkpt>
      <trkpt lat="44.36146" lon="7.10599">
        <ele>1961.1999511719</ele>
        <time>2024-09-13T14:13:45.000Z</time>
      </trkpt>
      <trkpt lat="44.36148" lon="7.10597">
        <ele>1961.1999511719</ele>
        <time>2024-09-13T14:13:46.000Z</time>
      </trkpt>
      <trkpt lat="44.36151" lon="7.10595">
        <ele>1960.8000488281</ele>
        <time>2024-09-13T14:13:47.000Z</time>
      </trkpt>
      <trkpt lat="44.36153" lon="7.10593">
        <ele>1960.4000244141</ele>
        <time>2024-09-13T14:13:48.000Z</time>
      </trkpt>
      <trkpt lat="44.36156" lon="7.1059">
        <ele>1960.1999511719</ele>
        <time>2024-09-13T14:13:49.000Z</time>
      </trkpt>
      <trkpt lat="44.36157" lon="7.10582">
        <ele>1959.4000244141</ele>
        <time>2024-09-13T14:13:50.000Z</time>
      </trkpt>
      <trkpt lat="44.36157" lon="7.1058">
        <ele>1958.5999755859</ele>
        <time>2024-09-13T14:13:51.000Z</time>
      </trkpt>
      <trkpt lat="44.36157" lon="7.1058">
        <ele>1958</ele>
        <time>2024-09-13T14:13:52.000Z</time>
      </trkpt>
      <trkpt lat="44.36157" lon="7.10579">
        <ele>1958</ele>
        <time>2024-09-13T14:13:53.000Z</time>
      </trkpt>
      <trkpt lat="44.36157" lon="7.1058">
        <ele>1958</ele>
        <time>2024-09-13T14:13:54.000Z</time>
      </trkpt>
      <trkpt lat="44.36157" lon="7.1058">
        <ele>1958</ele>
        <time>2024-09-13T14:13:57.000Z</time>
      </trkpt>
      <trkpt lat="44.36155" lon="7.10579">
        <ele>1958</ele>
        <time>2024-09-13T14:14:00.000Z</time>
      </trkpt>
      <trkpt lat="44.36155" lon="7.10582">
        <ele>1958.1999511719</ele>
        <time>2024-09-13T14:14:01.000Z</time>
      </trkpt>
      <trkpt lat="44.36155" lon="7.1058">
        <ele>1958.1999511719</ele>
        <time>2024-09-13T14:14:12.000Z</time>
      </trkpt>
      <trkpt lat="44.36155" lon="7.1058">
        <ele>1958.4000244141</ele>
        <time>2024-09-13T14:14:19.000Z</time>
      </trkpt>
      <trkpt lat="44.36154" lon="7.1058">
        <ele>1958.4000244141</ele>
        <time>2024-09-13T14:14:20.000Z</time>
      </trkpt>
      <trkpt lat="44.36153" lon="7.10581">
        <ele>1958.4000244141</ele>
        <time>2024-09-13T14:14:21.000Z</time>
      </trkpt>
      <trkpt lat="44.36153" lon="7.10581">
        <ele>1958.4000244141</ele>
        <time>2024-09-13T14:14:22.000Z</time>
      </trkpt>
      <trkpt lat="44.36153" lon="7.10581">
        <ele>1958.4000244141</ele>
        <time>2024-09-13T14:14:23.000Z</time>
      </trkpt>
      <trkpt lat="44.36153" lon="7.10581">
        <ele>1958.4000244141</ele>
        <time>2024-09-13T14:14:26.000Z</time>
      </trkpt>
      <trkpt lat="44.36153" lon="7.10582">
        <ele>1958.4000244141</ele>
        <time>2024-09-13T14:14:33.000Z</time>
      </trkpt>
      <trkpt lat="44.36153" lon="7.1058">
        <ele>1958.4000244141</ele>
        <time>2024-09-13T14:14:34.000Z</time>
      </trkpt>
      <trkpt lat="44.3615" lon="7.10577">
        <ele>1958.1999511719</ele>
        <time>2024-09-13T14:14:37.000Z</time>
      </trkpt>
      <trkpt lat="44.36147" lon="7.10571">
        <ele>1957.1999511719</ele>
        <time>2024-09-13T14:14:40.000Z</time>
      </trkpt>
      <trkpt lat="44.36145" lon="7.10567">
        <ele>1957</ele>
        <time>2024-09-13T14:14:41.000Z</time>
      </trkpt>
      <trkpt lat="44.36143" lon="7.10566">
        <ele>1956.8000488281</ele>
        <time>2024-09-13T14:14:42.000Z</time>
      </trkpt>
      <trkpt lat="44.36142" lon="7.10565">
        <ele>1956.5999755859</ele>
        <time>2024-09-13T14:14:43.000Z</time>
      </trkpt>
      <trkpt lat="44.3614" lon="7.10564">
        <ele>1956.4000244141</ele>
        <time>2024-09-13T14:14:44.000Z</time>
      </trkpt>
      <trkpt lat="44.36138" lon="7.10564">
        <ele>1956.4000244141</ele>
        <time>2024-09-13T14:14:45.000Z</time>
      </trkpt>
      <trkpt lat="44.36136" lon="7.10564">
        <ele>1956</ele>
        <time>2024-09-13T14:14:46.000Z</time>
      </trkpt>
      <trkpt lat="44.36134" lon="7.10563">
        <ele>1955.5999755859</ele>
        <time>2024-09-13T14:14:47.000Z</time>
      </trkpt>
      <trkpt lat="44.36133" lon="7.10563">
        <ele>1955.4000244141</ele>
        <time>2024-09-13T14:14:48.000Z</time>
      </trkpt>
      <trkpt lat="44.36132" lon="7.10562">
        <ele>1955</ele>
        <time>2024-09-13T14:14:49.000Z</time>
      </trkpt>
      <trkpt lat="44.36131" lon="7.10562">
        <ele>1955</ele>
        <time>2024-09-13T14:14:50.000Z</time>
      </trkpt>
      <trkpt lat="44.3613" lon="7.10562">
        <ele>1955</ele>
        <time>2024-09-13T14:14:51.000Z</time>
      </trkpt>
      <trkpt lat="44.36131" lon="7.10562">
        <ele>1954.8000488281</ele>
        <time>2024-09-13T14:14:52.000Z</time>
      </trkpt>
      <trkpt lat="44.36131" lon="7.10562">
        <ele>1954.8000488281</ele>
        <time>2024-09-13T14:14:53.000Z</time>
      </trkpt>
      <trkpt lat="44.36131" lon="7.10562">
        <ele>1954.5999755859</ele>
        <time>2024-09-13T14:14:56.000Z</time>
      </trkpt>
      <trkpt lat="44.36126" lon="7.10561">
        <ele>1954.4000244141</ele>
        <time>2024-09-13T14:15:01.000Z</time>
      </trkpt>
      <trkpt lat="44.3612" lon="7.10563">
        <ele>1953.8000488281</ele>
        <time>2024-09-13T14:15:04.000Z</time>
      </trkpt>
      <trkpt lat="44.36119" lon="7.10563">
        <ele>1953.1999511719</ele>
        <time>2024-09-13T14:15:05.000Z</time>
      </trkpt>
      <trkpt lat="44.36119" lon="7.10564">
        <ele>1952.8000488281</ele>
        <time>2024-09-13T14:15:10.000Z</time>
      </trkpt>
      <trkpt lat="44.36115" lon="7.10565">
        <ele>1952.8000488281</ele>
        <time>2024-09-13T14:15:12.000Z</time>
      </trkpt>
      <trkpt lat="44.36103" lon="7.10569">
        <ele>1952.4000244141</ele>
        <time>2024-09-13T14:15:14.000Z</time>
      </trkpt>
      <trkpt lat="44.361" lon="7.1057">
        <ele>1951.1999511719</ele>
        <time>2024-09-13T14:15:15.000Z</time>
      </trkpt>
      <trkpt lat="44.36097" lon="7.10572">
        <ele>1950</ele>
        <time>2024-09-13T14:15:16.000Z</time>
      </trkpt>
      <trkpt lat="44.36093" lon="7.10575">
        <ele>1949.1999511719</ele>
        <time>2024-09-13T14:15:17.000Z</time>
      </trkpt>
      <trkpt lat="44.36089" lon="7.10578">
        <ele>1948.8000488281</ele>
        <time>2024-09-13T14:15:18.000Z</time>
      </trkpt>
      <trkpt lat="44.36077" lon="7.10576">
        <ele>1948.1999511719</ele>
        <time>2024-09-13T14:15:20.000Z</time>
      </trkpt>
      <trkpt lat="44.36072" lon="7.10573">
        <ele>1947</ele>
        <time>2024-09-13T14:15:21.000Z</time>
      </trkpt>
      <trkpt lat="44.36069" lon="7.10567">
        <ele>1945.1999511719</ele>
        <time>2024-09-13T14:15:22.000Z</time>
      </trkpt>
      <trkpt lat="44.36066" lon="7.10561">
        <ele>1944.1999511719</ele>
        <time>2024-09-13T14:15:23.000Z</time>
      </trkpt>
      <trkpt lat="44.36064" lon="7.10554">
        <ele>1943.4000244141</ele>
        <time>2024-09-13T14:15:24.000Z</time>
      </trkpt>
      <trkpt lat="44.36062" lon="7.10548">
        <ele>1943.1999511719</ele>
        <time>2024-09-13T14:15:25.000Z</time>
      </trkpt>
      <trkpt lat="44.3606" lon="7.10543">
        <ele>1942.5999755859</ele>
        <time>2024-09-13T14:15:26.000Z</time>
      </trkpt>
      <trkpt lat="44.36058" lon="7.10539">
        <ele>1941.1999511719</ele>
        <time>2024-09-13T14:15:27.000Z</time>
      </trkpt>
      <trkpt lat="44.36057" lon="7.10536">
        <ele>1941</ele>
        <time>2024-09-13T14:15:28.000Z</time>
      </trkpt>
      <trkpt lat="44.36057" lon="7.10534">
        <ele>1940.5999755859</ele>
        <time>2024-09-13T14:15:29.000Z</time>
      </trkpt>
      <trkpt lat="44.36056" lon="7.10533">
        <ele>1940.1999511719</ele>
        <time>2024-09-13T14:15:30.000Z</time>
      </trkpt>
      <trkpt lat="44.36057" lon="7.10533">
        <ele>1940</ele>
        <time>2024-09-13T14:15:31.000Z</time>
      </trkpt>
      <trkpt lat="44.36056" lon="7.10533">
        <ele>1939.5999755859</ele>
        <time>2024-09-13T14:15:33.000Z</time>
      </trkpt>
      <trkpt lat="44.36055" lon="7.10531">
        <ele>1939.5999755859</ele>
        <time>2024-09-13T14:15:34.000Z</time>
      </trkpt>
      <trkpt lat="44.36053" lon="7.10529">
        <ele>1939.5999755859</ele>
        <time>2024-09-13T14:15:35.000Z</time>
      </trkpt>
      <trkpt lat="44.3605" lon="7.10525">
        <ele>1939.5999755859</ele>
        <time>2024-09-13T14:15:36.000Z</time>
      </trkpt>
      <trkpt lat="44.36045" lon="7.10517">
        <ele>1938.8000488281</ele>
        <time>2024-09-13T14:15:38.000Z</time>
      </trkpt>
      <trkpt lat="44.36042" lon="7.10514">
        <ele>1937.4000244141</ele>
        <time>2024-09-13T14:15:39.000Z</time>
      </trkpt>
      <trkpt lat="44.36039" lon="7.10509">
        <ele>1936.8000488281</ele>
        <time>2024-09-13T14:15:40.000Z</time>
      </trkpt>
      <trkpt lat="44.36037" lon="7.10505">
        <ele>1936.1999511719</ele>
        <time>2024-09-13T14:15:41.000Z</time>
      </trkpt>
      <trkpt lat="44.36032" lon="7.10493">
        <ele>1934.4000244141</ele>
        <time>2024-09-13T14:15:43.000Z</time>
      </trkpt>
      <trkpt lat="44.36025" lon="7.10479">
        <ele>1932.1999511719</ele>
        <time>2024-09-13T14:15:45.000Z</time>
      </trkpt>
      <trkpt lat="44.36021" lon="7.10471">
        <ele>1929.1999511719</ele>
        <time>2024-09-13T14:15:46.000Z</time>
      </trkpt>
      <trkpt lat="44.36018" lon="7.10464">
        <ele>1927.5999755859</ele>
        <time>2024-09-13T14:15:47.000Z</time>
      </trkpt>
      <trkpt lat="44.36014" lon="7.10454">
        <ele>1925.5999755859</ele>
        <time>2024-09-13T14:15:48.000Z</time>
      </trkpt>
      <trkpt lat="44.3601" lon="7.10436">
        <ele>1923.4000244141</ele>
        <time>2024-09-13T14:15:50.000Z</time>
      </trkpt>
      <trkpt lat="44.36008" lon="7.10427">
        <ele>1922.4000244141</ele>
        <time>2024-09-13T14:15:51.000Z</time>
      </trkpt>
      <trkpt lat="44.36007" lon="7.10418">
        <ele>1920.8000488281</ele>
        <time>2024-09-13T14:15:52.000Z</time>
      </trkpt>
      <trkpt lat="44.36006" lon="7.10414">
        <ele>1919.4000244141</ele>
        <time>2024-09-13T14:15:53.000Z</time>
      </trkpt>
      <trkpt lat="44.36004" lon="7.10407">
        <ele>1918.8000488281</ele>
        <time>2024-09-13T14:15:54.000Z</time>
      </trkpt>
      <trkpt lat="44.36" lon="7.10401">
        <ele>1918</ele>
        <time>2024-09-13T14:15:55.000Z</time>
      </trkpt>
      <trkpt lat="44.35993" lon="7.10389">
        <ele>1916.4000244141</ele>
        <time>2024-09-13T14:15:57.000Z</time>
      </trkpt>
      <trkpt lat="44.35989" lon="7.10385">
        <ele>1914.8000488281</ele>
        <time>2024-09-13T14:15:58.000Z</time>
      </trkpt>
      <trkpt lat="44.35984" lon="7.10381">
        <ele>1913.8000488281</ele>
        <time>2024-09-13T14:15:59.000Z</time>
      </trkpt>
      <trkpt lat="44.35979" lon="7.10378">
        <ele>1911</ele>
        <time>2024-09-13T14:16:01.000Z</time>
      </trkpt>
      <trkpt lat="44.35974" lon="7.10378">
        <ele>1910</ele>
        <time>2024-09-13T14:16:02.000Z</time>
      </trkpt>
      <trkpt lat="44.35964" lon="7.10381">
        <ele>1909.5999755859</ele>
        <time>2024-09-13T14:16:03.000Z</time>
      </trkpt>
      <trkpt lat="44.35958" lon="7.10381">
        <ele>1908.8000488281</ele>
        <time>2024-09-13T14:16:04.000Z</time>
      </trkpt>
      <trkpt lat="44.35952" lon="7.10379">
        <ele>1907.8000488281</ele>
        <time>2024-09-13T14:16:05.000Z</time>
      </trkpt>
      <trkpt lat="44.35946" lon="7.10377">
        <ele>1906</ele>
        <time>2024-09-13T14:16:06.000Z</time>
      </trkpt>
      <trkpt lat="44.35941" lon="7.10372">
        <ele>1905</ele>
        <time>2024-09-13T14:16:07.000Z</time>
      </trkpt>
      <trkpt lat="44.35936" lon="7.10366">
        <ele>1903.4000244141</ele>
        <time>2024-09-13T14:16:08.000Z</time>
      </trkpt>
      <trkpt lat="44.35934" lon="7.10359">
        <ele>1902.4000244141</ele>
        <time>2024-09-13T14:16:09.000Z</time>
      </trkpt>
      <trkpt lat="44.35935" lon="7.10351">
        <ele>1900.5999755859</ele>
        <time>2024-09-13T14:16:10.000Z</time>
      </trkpt>
      <trkpt lat="44.35936" lon="7.10342">
        <ele>1900</ele>
        <time>2024-09-13T14:16:11.000Z</time>
      </trkpt>
      <trkpt lat="44.35938" lon="7.10333">
        <ele>1898.4000244141</ele>
        <time>2024-09-13T14:16:12.000Z</time>
      </trkpt>
      <trkpt lat="44.35939" lon="7.10324">
        <ele>1895.8000488281</ele>
        <time>2024-09-13T14:16:13.000Z</time>
      </trkpt>
      <trkpt lat="44.35941" lon="7.10314">
        <ele>1894.4000244141</ele>
        <time>2024-09-13T14:16:14.000Z</time>
      </trkpt>
      <trkpt lat="44.35944" lon="7.10304">
        <ele>1891.4000244141</ele>
        <time>2024-09-13T14:16:16.000Z</time>
      </trkpt>
      <trkpt lat="44.35946" lon="7.10293">
        <ele>1890</ele>
        <time>2024-09-13T14:16:17.000Z</time>
      </trkpt>
      <trkpt lat="44.35951" lon="7.1027">
        <ele>1887.5999755859</ele>
        <time>2024-09-13T14:16:19.000Z</time>
      </trkpt>
      <trkpt lat="44.35952" lon="7.10258">
        <ele>1885.8000488281</ele>
        <time>2024-09-13T14:16:20.000Z</time>
      </trkpt>
      <trkpt lat="44.35953" lon="7.10247">
        <ele>1884.8000488281</ele>
        <time>2024-09-13T14:16:21.000Z</time>
      </trkpt>
      <trkpt lat="44.35954" lon="7.10236">
        <ele>1883.8000488281</ele>
        <time>2024-09-13T14:16:22.000Z</time>
      </trkpt>
      <trkpt lat="44.35954" lon="7.10212">
        <ele>1880.1999511719</ele>
        <time>2024-09-13T14:16:24.000Z</time>
      </trkpt>
      <trkpt lat="44.35954" lon="7.102">
        <ele>1878</ele>
        <time>2024-09-13T14:16:25.000Z</time>
      </trkpt>
      <trkpt lat="44.35955" lon="7.10188">
        <ele>1876</ele>
        <time>2024-09-13T14:16:26.000Z</time>
      </trkpt>
      <trkpt lat="44.35956" lon="7.10175">
        <ele>1875.4000244141</ele>
        <time>2024-09-13T14:16:27.000Z</time>
      </trkpt>
      <trkpt lat="44.35958" lon="7.10163">
        <ele>1874.1999511719</ele>
        <time>2024-09-13T14:16:28.000Z</time>
      </trkpt>
      <trkpt lat="44.35959" lon="7.10152">
        <ele>1873</ele>
        <time>2024-09-13T14:16:29.000Z</time>
      </trkpt>
      <trkpt lat="44.35961" lon="7.10141">
        <ele>1871</ele>
        <time>2024-09-13T14:16:30.000Z</time>
      </trkpt>
      <trkpt lat="44.35961" lon="7.10131">
        <ele>1868.5999755859</ele>
        <time>2024-09-13T14:16:31.000Z</time>
      </trkpt>
      <trkpt lat="44.35963" lon="7.10107">
        <ele>1867</ele>
        <time>2024-09-13T14:16:33.000Z</time>
      </trkpt>
      <trkpt lat="44.35963" lon="7.10094">
        <ele>1865.8000488281</ele>
        <time>2024-09-13T14:16:34.000Z</time>
      </trkpt>
      <trkpt lat="44.35963" lon="7.1008">
        <ele>1864.4000244141</ele>
        <time>2024-09-13T14:16:35.000Z</time>
      </trkpt>
      <trkpt lat="44.35963" lon="7.10067">
        <ele>1861</ele>
        <time>2024-09-13T14:16:36.000Z</time>
      </trkpt>
      <trkpt lat="44.35964" lon="7.10055">
        <ele>1858.8000488281</ele>
        <time>2024-09-13T14:16:37.000Z</time>
      </trkpt>
      <trkpt lat="44.35966" lon="7.10043">
        <ele>1858</ele>
        <time>2024-09-13T14:16:38.000Z</time>
      </trkpt>
      <trkpt lat="44.35967" lon="7.10034">
        <ele>1857.4000244141</ele>
        <time>2024-09-13T14:16:39.000Z</time>
      </trkpt>
      <trkpt lat="44.35971" lon="7.10028">
        <ele>1856.8000488281</ele>
        <time>2024-09-13T14:16:40.000Z</time>
      </trkpt>
      <trkpt lat="44.35976" lon="7.10021">
        <ele>1856.1999511719</ele>
        <time>2024-09-13T14:16:41.000Z</time>
      </trkpt>
      <trkpt lat="44.35978" lon="7.10012">
        <ele>1855.8000488281</ele>
        <time>2024-09-13T14:16:42.000Z</time>
      </trkpt>
      <trkpt lat="44.35981" lon="7.10004">
        <ele>1855</ele>
        <time>2024-09-13T14:16:43.000Z</time>
      </trkpt>
      <trkpt lat="44.35983" lon="7.09996">
        <ele>1852.4000244141</ele>
        <time>2024-09-13T14:16:44.000Z</time>
      </trkpt>
      <trkpt lat="44.35986" lon="7.09987">
        <ele>1851.1999511719</ele>
        <time>2024-09-13T14:16:45.000Z</time>
      </trkpt>
      <trkpt lat="44.35987" lon="7.0998">
        <ele>1850.1999511719</ele>
        <time>2024-09-13T14:16:46.000Z</time>
      </trkpt>
      <trkpt lat="44.35989" lon="7.09972">
        <ele>1849.5999755859</ele>
        <time>2024-09-13T14:16:47.000Z</time>
      </trkpt>
      <trkpt lat="44.35992" lon="7.09963">
        <ele>1848.8000488281</ele>
        <time>2024-09-13T14:16:48.000Z</time>
      </trkpt>
      <trkpt lat="44.35993" lon="7.09954">
        <ele>1848.4000244141</ele>
        <time>2024-09-13T14:16:49.000Z</time>
      </trkpt>
      <trkpt lat="44.35994" lon="7.09945">
        <ele>1846.5999755859</ele>
        <time>2024-09-13T14:16:50.000Z</time>
      </trkpt>
      <trkpt lat="44.35994" lon="7.09936">
        <ele>1845.4000244141</ele>
        <time>2024-09-13T14:16:51.000Z</time>
      </trkpt>
      <trkpt lat="44.35994" lon="7.09927">
        <ele>1844.4000244141</ele>
        <time>2024-09-13T14:16:52.000Z</time>
      </trkpt>
      <trkpt lat="44.35993" lon="7.09919">
        <ele>1843.1999511719</ele>
        <time>2024-09-13T14:16:53.000Z</time>
      </trkpt>
      <trkpt lat="44.35993" lon="7.09911">
        <ele>1843</ele>
        <time>2024-09-13T14:16:54.000Z</time>
      </trkpt>
      <trkpt lat="44.35993" lon="7.09905">
        <ele>1842.8000488281</ele>
        <time>2024-09-13T14:16:55.000Z</time>
      </trkpt>
      <trkpt lat="44.35992" lon="7.09904">
        <ele>1842.8000488281</ele>
        <time>2024-09-13T14:16:56.000Z</time>
      </trkpt>
      <trkpt lat="44.35991" lon="7.09903">
        <ele>1843</ele>
        <time>2024-09-13T14:16:57.000Z</time>
      </trkpt>
      <trkpt lat="44.35991" lon="7.09903">
        <ele>1843</ele>
        <time>2024-09-13T14:16:59.000Z</time>
      </trkpt>
      <trkpt lat="44.3599" lon="7.09906">
        <ele>1843.1999511719</ele>
        <time>2024-09-13T14:17:00.000Z</time>
      </trkpt>
      <trkpt lat="44.3599" lon="7.09906">
        <ele>1843.1999511719</ele>
        <time>2024-09-13T14:17:01.000Z</time>
      </trkpt>
      <trkpt lat="44.35991" lon="7.09906">
        <ele>1843.1999511719</ele>
        <time>2024-09-13T14:17:02.000Z</time>
      </trkpt>
      <trkpt lat="44.3599" lon="7.09904">
        <ele>1843.1999511719</ele>
        <time>2024-09-13T14:17:03.000Z</time>
      </trkpt>
      <trkpt lat="44.3599" lon="7.09904">
        <ele>1843.1999511719</ele>
        <time>2024-09-13T14:17:05.000Z</time>
      </trkpt>
      <trkpt lat="44.3599" lon="7.09904">
        <ele>1843</ele>
        <time>2024-09-13T14:17:06.000Z</time>
      </trkpt>
      <trkpt lat="44.35992" lon="7.09902">
        <ele>1842.8000488281</ele>
        <time>2024-09-13T14:17:16.000Z</time>
      </trkpt>
      <trkpt lat="44.35992" lon="7.09901">
        <ele>1842.8000488281</ele>
        <time>2024-09-13T14:17:18.000Z</time>
      </trkpt>
      <trkpt lat="44.35992" lon="7.09899">
        <ele>1842.5999755859</ele>
        <time>2024-09-13T14:17:19.000Z</time>
      </trkpt>
      <trkpt lat="44.35992" lon="7.09897">
        <ele>1842.5999755859</ele>
        <time>2024-09-13T14:17:20.000Z</time>
      </trkpt>
      <trkpt lat="44.35991" lon="7.09893">
        <ele>1842.4000244141</ele>
        <time>2024-09-13T14:17:21.000Z</time>
      </trkpt>
      <trkpt lat="44.35991" lon="7.09889">
        <ele>1842</ele>
        <time>2024-09-13T14:17:22.000Z</time>
      </trkpt>
      <trkpt lat="44.35991" lon="7.09884">
        <ele>1841.4000244141</ele>
        <time>2024-09-13T14:17:23.000Z</time>
      </trkpt>
      <trkpt lat="44.35992" lon="7.09879">
        <ele>1840.8000488281</ele>
        <time>2024-09-13T14:17:24.000Z</time>
      </trkpt>
      <trkpt lat="44.35994" lon="7.09874">
        <ele>1839.8000488281</ele>
        <time>2024-09-13T14:17:25.000Z</time>
      </trkpt>
      <trkpt lat="44.35994" lon="7.09868">
        <ele>1839.1999511719</ele>
        <time>2024-09-13T14:17:26.000Z</time>
      </trkpt>
      <trkpt lat="44.35994" lon="7.09865">
        <ele>1838.8000488281</ele>
        <time>2024-09-13T14:17:27.000Z</time>
      </trkpt>
      <trkpt lat="44.35994" lon="7.09863">
        <ele>1838.5999755859</ele>
        <time>2024-09-13T14:17:28.000Z</time>
      </trkpt>
      <trkpt lat="44.35993" lon="7.09853">
        <ele>1838.1999511719</ele>
        <time>2024-09-13T14:17:30.000Z</time>
      </trkpt>
      <trkpt lat="44.35994" lon="7.09844">
        <ele>1838</ele>
        <time>2024-09-13T14:17:31.000Z</time>
      </trkpt>
      <trkpt lat="44.35994" lon="7.0984">
        <ele>1837.1999511719</ele>
        <time>2024-09-13T14:17:32.000Z</time>
      </trkpt>
      <trkpt lat="44.35993" lon="7.09831">
        <ele>1835.4000244141</ele>
        <time>2024-09-13T14:17:35.000Z</time>
      </trkpt>
      <trkpt lat="44.35992" lon="7.09828">
        <ele>1834.8000488281</ele>
        <time>2024-09-13T14:17:36.000Z</time>
      </trkpt>
      <trkpt lat="44.35991" lon="7.09826">
        <ele>1834.4000244141</ele>
        <time>2024-09-13T14:17:37.000Z</time>
      </trkpt>
      <trkpt lat="44.35991" lon="7.09826">
        <ele>1834.4000244141</ele>
        <time>2024-09-13T14:17:38.000Z</time>
      </trkpt>
      <trkpt lat="44.35991" lon="7.09826">
        <ele>1834.4000244141</ele>
        <time>2024-09-13T14:17:39.000Z</time>
      </trkpt>
      <trkpt lat="44.35991" lon="7.09828">
        <ele>1834.4000244141</ele>
        <time>2024-09-13T14:17:40.000Z</time>
      </trkpt>
      <trkpt lat="44.35991" lon="7.09829">
        <ele>1834.1999511719</ele>
        <time>2024-09-13T14:17:41.000Z</time>
      </trkpt>
      <trkpt lat="44.3599" lon="7.09828">
        <ele>1834.1999511719</ele>
        <time>2024-09-13T14:17:46.000Z</time>
      </trkpt>
      <trkpt lat="44.3599" lon="7.09829">
        <ele>1834</ele>
        <time>2024-09-13T14:17:57.000Z</time>
      </trkpt>
      <trkpt lat="44.3599" lon="7.09829">
        <ele>1834</ele>
        <time>2024-09-13T14:17:59.000Z</time>
      </trkpt>
      <trkpt lat="44.35988" lon="7.09822">
        <ele>1833.8000488281</ele>
        <time>2024-09-13T14:18:03.000Z</time>
      </trkpt>
      <trkpt lat="44.35987" lon="7.09816">
        <ele>1833</ele>
        <time>2024-09-13T14:18:05.000Z</time>
      </trkpt>
      <trkpt lat="44.35986" lon="7.09812">
        <ele>1832.5999755859</ele>
        <time>2024-09-13T14:18:06.000Z</time>
      </trkpt>
      <trkpt lat="44.35985" lon="7.09808">
        <ele>1831.8000488281</ele>
        <time>2024-09-13T14:18:07.000Z</time>
      </trkpt>
      <trkpt lat="44.35983" lon="7.09805">
        <ele>1830.5999755859</ele>
        <time>2024-09-13T14:18:08.000Z</time>
      </trkpt>
      <trkpt lat="44.35981" lon="7.09796">
        <ele>1829.4000244141</ele>
        <time>2024-09-13T14:18:10.000Z</time>
      </trkpt>
      <trkpt lat="44.3598" lon="7.09792">
        <ele>1829</ele>
        <time>2024-09-13T14:18:11.000Z</time>
      </trkpt>
      <trkpt lat="44.35978" lon="7.09787">
        <ele>1827.5999755859</ele>
        <time>2024-09-13T14:18:12.000Z</time>
      </trkpt>
      <trkpt lat="44.35976" lon="7.09776">
        <ele>1825.1999511719</ele>
        <time>2024-09-13T14:18:14.000Z</time>
      </trkpt>
      <trkpt lat="44.35976" lon="7.09771">
        <ele>1823.4000244141</ele>
        <time>2024-09-13T14:18:15.000Z</time>
      </trkpt>
      <trkpt lat="44.35977" lon="7.09766">
        <ele>1822.4000244141</ele>
        <time>2024-09-13T14:18:16.000Z</time>
      </trkpt>
      <trkpt lat="44.35979" lon="7.09762">
        <ele>1821.4000244141</ele>
        <time>2024-09-13T14:18:17.000Z</time>
      </trkpt>
      <trkpt lat="44.35982" lon="7.0976">
        <ele>1820.5999755859</ele>
        <time>2024-09-13T14:18:18.000Z</time>
      </trkpt>
      <trkpt lat="44.35986" lon="7.0976">
        <ele>1819.5999755859</ele>
        <time>2024-09-13T14:18:19.000Z</time>
      </trkpt>
      <trkpt lat="44.3599" lon="7.0976">
        <ele>1819</ele>
        <time>2024-09-13T14:18:20.000Z</time>
      </trkpt>
      <trkpt lat="44.35993" lon="7.0976">
        <ele>1818.8000488281</ele>
        <time>2024-09-13T14:18:21.000Z</time>
      </trkpt>
      <trkpt lat="44.35995" lon="7.09761">
        <ele>1818.5999755859</ele>
        <time>2024-09-13T14:18:22.000Z</time>
      </trkpt>
      <trkpt lat="44.35997" lon="7.09762">
        <ele>1818.5999755859</ele>
        <time>2024-09-13T14:18:23.000Z</time>
      </trkpt>
      <trkpt lat="44.35999" lon="7.09765">
        <ele>1818.4000244141</ele>
        <time>2024-09-13T14:18:24.000Z</time>
      </trkpt>
      <trkpt lat="44.36001" lon="7.09768">
        <ele>1817.5999755859</ele>
        <time>2024-09-13T14:18:25.000Z</time>
      </trkpt>
      <trkpt lat="44.36003" lon="7.09773">
        <ele>1816.4000244141</ele>
        <time>2024-09-13T14:18:26.000Z</time>
      </trkpt>
      <trkpt lat="44.36007" lon="7.09778">
        <ele>1814.4000244141</ele>
        <time>2024-09-13T14:18:27.000Z</time>
      </trkpt>
      <trkpt lat="44.3601" lon="7.09782">
        <ele>1812.5999755859</ele>
        <time>2024-09-13T14:18:28.000Z</time>
      </trkpt>
      <trkpt lat="44.36015" lon="7.09787">
        <ele>1811</ele>
        <time>2024-09-13T14:18:29.000Z</time>
      </trkpt>
      <trkpt lat="44.36017" lon="7.0979">
        <ele>1810.5999755859</ele>
        <time>2024-09-13T14:18:30.000Z</time>
      </trkpt>
      <trkpt lat="44.36018" lon="7.09791">
        <ele>1810.1999511719</ele>
        <time>2024-09-13T14:18:31.000Z</time>
      </trkpt>
      <trkpt lat="44.36019" lon="7.09789">
        <ele>1810</ele>
        <time>2024-09-13T14:18:32.000Z</time>
      </trkpt>
      <trkpt lat="44.36017" lon="7.09779">
        <ele>1808.8000488281</ele>
        <time>2024-09-13T14:18:35.000Z</time>
      </trkpt>
      <trkpt lat="44.36012" lon="7.09773">
        <ele>1807.5999755859</ele>
        <time>2024-09-13T14:18:37.000Z</time>
      </trkpt>
      <trkpt lat="44.36011" lon="7.09768">
        <ele>1807.4000244141</ele>
        <time>2024-09-13T14:18:38.000Z</time>
      </trkpt>
      <trkpt lat="44.36007" lon="7.09757">
        <ele>1805.5999755859</ele>
        <time>2024-09-13T14:18:40.000Z</time>
      </trkpt>
      <trkpt lat="44.36004" lon="7.09745">
        <ele>1803.8000488281</ele>
        <time>2024-09-13T14:18:42.000Z</time>
      </trkpt>
      <trkpt lat="44.36002" lon="7.09741">
        <ele>1801.5999755859</ele>
        <time>2024-09-13T14:18:43.000Z</time>
      </trkpt>
      <trkpt lat="44.36" lon="7.09736">
        <ele>1800.5999755859</ele>
        <time>2024-09-13T14:18:44.000Z</time>
      </trkpt>
      <trkpt lat="44.35998" lon="7.09732">
        <ele>1799.5999755859</ele>
        <time>2024-09-13T14:18:45.000Z</time>
      </trkpt>
      <trkpt lat="44.35998" lon="7.09729">
        <ele>1799.4000244141</ele>
        <time>2024-09-13T14:18:46.000Z</time>
      </trkpt>
      <trkpt lat="44.35998" lon="7.09727">
        <ele>1798.8000488281</ele>
        <time>2024-09-13T14:18:47.000Z</time>
      </trkpt>
      <trkpt lat="44.35996" lon="7.09724">
        <ele>1798.5999755859</ele>
        <time>2024-09-13T14:18:48.000Z</time>
      </trkpt>
      <trkpt lat="44.35994" lon="7.09722">
        <ele>1798</ele>
        <time>2024-09-13T14:18:49.000Z</time>
      </trkpt>
      <trkpt lat="44.35993" lon="7.0972">
        <ele>1797.1999511719</ele>
        <time>2024-09-13T14:18:50.000Z</time>
      </trkpt>
      <trkpt lat="44.35991" lon="7.09717">
        <ele>1796.5999755859</ele>
        <time>2024-09-13T14:18:51.000Z</time>
      </trkpt>
      <trkpt lat="44.35988" lon="7.09716">
        <ele>1796</ele>
        <time>2024-09-13T14:18:52.000Z</time>
      </trkpt>
      <trkpt lat="44.35985" lon="7.09715">
        <ele>1795.4000244141</ele>
        <time>2024-09-13T14:18:53.000Z</time>
      </trkpt>
      <trkpt lat="44.35988" lon="7.09712">
        <ele>1794.1999511719</ele>
        <time>2024-09-13T14:18:54.000Z</time>
      </trkpt>
      <trkpt lat="44.35988" lon="7.09709">
        <ele>1793.1999511719</ele>
        <time>2024-09-13T14:18:55.000Z</time>
      </trkpt>
      <trkpt lat="44.35987" lon="7.09707">
        <ele>1793</ele>
        <time>2024-09-13T14:18:56.000Z</time>
      </trkpt>
      <trkpt lat="44.35983" lon="7.09707">
        <ele>1792</ele>
        <time>2024-09-13T14:18:57.000Z</time>
      </trkpt>
      <trkpt lat="44.3598" lon="7.09706">
        <ele>1791.1999511719</ele>
        <time>2024-09-13T14:18:58.000Z</time>
      </trkpt>
      <trkpt lat="44.35977" lon="7.09705">
        <ele>1790.1999511719</ele>
        <time>2024-09-13T14:18:59.000Z</time>
      </trkpt>
      <trkpt lat="44.35966" lon="7.09702">
        <ele>1789</ele>
        <time>2024-09-13T14:19:01.000Z</time>
      </trkpt>
      <trkpt lat="44.35961" lon="7.097">
        <ele>1788</ele>
        <time>2024-09-13T14:19:02.000Z</time>
      </trkpt>
      <trkpt lat="44.35957" lon="7.097">
        <ele>1786.5999755859</ele>
        <time>2024-09-13T14:19:03.000Z</time>
      </trkpt>
      <trkpt lat="44.35952" lon="7.09701">
        <ele>1785.8000488281</ele>
        <time>2024-09-13T14:19:04.000Z</time>
      </trkpt>
      <trkpt lat="44.35947" lon="7.09701">
        <ele>1785.5999755859</ele>
        <time>2024-09-13T14:19:05.000Z</time>
      </trkpt>
      <trkpt lat="44.35942" lon="7.097">
        <ele>1785.5999755859</ele>
        <time>2024-09-13T14:19:06.000Z</time>
      </trkpt>
      <trkpt lat="44.35937" lon="7.09698">
        <ele>1785.4000244141</ele>
        <time>2024-09-13T14:19:07.000Z</time>
      </trkpt>
      <trkpt lat="44.35934" lon="7.09693">
        <ele>1785.4000244141</ele>
        <time>2024-09-13T14:19:08.000Z</time>
      </trkpt>
      <trkpt lat="44.35932" lon="7.09689">
        <ele>1785</ele>
        <time>2024-09-13T14:19:09.000Z</time>
      </trkpt>
      <trkpt lat="44.35932" lon="7.09685">
        <ele>1784.5999755859</ele>
        <time>2024-09-13T14:19:10.000Z</time>
      </trkpt>
      <trkpt lat="44.35931" lon="7.09678">
        <ele>1784.1999511719</ele>
        <time>2024-09-13T14:19:11.000Z</time>
      </trkpt>
      <trkpt lat="44.35931" lon="7.09675">
        <ele>1784</ele>
        <time>2024-09-13T14:19:12.000Z</time>
      </trkpt>
      <trkpt lat="44.35931" lon="7.09672">
        <ele>1783.8000488281</ele>
        <time>2024-09-13T14:19:13.000Z</time>
      </trkpt>
      <trkpt lat="44.3593" lon="7.0967">
        <ele>1783.5999755859</ele>
        <time>2024-09-13T14:19:14.000Z</time>
      </trkpt>
      <trkpt lat="44.3593" lon="7.0967">
        <ele>1783</ele>
        <time>2024-09-13T14:19:15.000Z</time>
      </trkpt>
      <trkpt lat="44.3593" lon="7.0967">
        <ele>1782.8000488281</ele>
        <time>2024-09-13T14:19:16.000Z</time>
      </trkpt>
      <trkpt lat="44.3593" lon="7.0967">
        <ele>1782.4000244141</ele>
        <time>2024-09-13T14:19:18.000Z</time>
      </trkpt>
      <trkpt lat="44.35929" lon="7.09671">
        <ele>1782.5999755859</ele>
        <time>2024-09-13T14:19:22.000Z</time>
      </trkpt>
      <trkpt lat="44.35928" lon="7.09671">
        <ele>1782.5999755859</ele>
        <time>2024-09-13T14:19:23.000Z</time>
      </trkpt>
      <trkpt lat="44.35928" lon="7.09671">
        <ele>1782.5999755859</ele>
        <time>2024-09-13T14:19:24.000Z</time>
      </trkpt>
      <trkpt lat="44.35928" lon="7.09671">
        <ele>1782.8000488281</ele>
        <time>2024-09-13T14:19:25.000Z</time>
      </trkpt>
      <trkpt lat="44.35927" lon="7.09671">
        <ele>1783</ele>
        <time>2024-09-13T14:19:31.000Z</time>
      </trkpt>
      <trkpt lat="44.35927" lon="7.09671">
        <ele>1783</ele>
        <time>2024-09-13T14:19:32.000Z</time>
      </trkpt>
      <trkpt lat="44.35927" lon="7.09671">
        <ele>1783</ele>
        <time>2024-09-13T14:19:33.000Z</time>
      </trkpt>
      <trkpt lat="44.35927" lon="7.09671">
        <ele>1783</ele>
        <time>2024-09-13T14:19:34.000Z</time>
      </trkpt>
      <trkpt lat="44.35924" lon="7.09665">
        <ele>1783</ele>
        <time>2024-09-13T14:19:37.000Z</time>
      </trkpt>
      <trkpt lat="44.3592" lon="7.09657">
        <ele>1782.5999755859</ele>
        <time>2024-09-13T14:19:40.000Z</time>
      </trkpt>
      <trkpt lat="44.35917" lon="7.0965">
        <ele>1781.8000488281</ele>
        <time>2024-09-13T14:19:42.000Z</time>
      </trkpt>
      <trkpt lat="44.35915" lon="7.09647">
        <ele>1781.1999511719</ele>
        <time>2024-09-13T14:19:43.000Z</time>
      </trkpt>
      <trkpt lat="44.35913" lon="7.09642">
        <ele>1780.5999755859</ele>
        <time>2024-09-13T14:19:44.000Z</time>
      </trkpt>
      <trkpt lat="44.35911" lon="7.09634">
        <ele>1779.5999755859</ele>
        <time>2024-09-13T14:19:46.000Z</time>
      </trkpt>
      <trkpt lat="44.3591" lon="7.09629">
        <ele>1779</ele>
        <time>2024-09-13T14:19:47.000Z</time>
      </trkpt>
      <trkpt lat="44.35908" lon="7.09619">
        <ele>1776.8000488281</ele>
        <time>2024-09-13T14:19:49.000Z</time>
      </trkpt>
      <trkpt lat="44.35906" lon="7.0961">
        <ele>1775.4000244141</ele>
        <time>2024-09-13T14:19:51.000Z</time>
      </trkpt>
      <trkpt lat="44.35904" lon="7.09606">
        <ele>1775.1999511719</ele>
        <time>2024-09-13T14:19:52.000Z</time>
      </trkpt>
      <trkpt lat="44.35904" lon="7.09599">
        <ele>1775</ele>
        <time>2024-09-13T14:19:53.000Z</time>
      </trkpt>
      <trkpt lat="44.359" lon="7.09588">
        <ele>1774.1999511719</ele>
        <time>2024-09-13T14:19:55.000Z</time>
      </trkpt>
      <trkpt lat="44.35899" lon="7.09584">
        <ele>1774</ele>
        <time>2024-09-13T14:19:56.000Z</time>
      </trkpt>
      <trkpt lat="44.35899" lon="7.09579">
        <ele>1773.4000244141</ele>
        <time>2024-09-13T14:19:57.000Z</time>
      </trkpt>
      <trkpt lat="44.35899" lon="7.09577">
        <ele>1773</ele>
        <time>2024-09-13T14:19:58.000Z</time>
      </trkpt>
      <trkpt lat="44.35901" lon="7.09577">
        <ele>1772.5999755859</ele>
        <time>2024-09-13T14:19:59.000Z</time>
      </trkpt>
      <trkpt lat="44.35903" lon="7.09579">
        <ele>1772.1999511719</ele>
        <time>2024-09-13T14:20:00.000Z</time>
      </trkpt>
      <trkpt lat="44.35904" lon="7.09577">
        <ele>1772</ele>
        <time>2024-09-13T14:20:01.000Z</time>
      </trkpt>
      <trkpt lat="44.35904" lon="7.09574">
        <ele>1770.5999755859</ele>
        <time>2024-09-13T14:20:02.000Z</time>
      </trkpt>
      <trkpt lat="44.35904" lon="7.0957">
        <ele>1769.8000488281</ele>
        <time>2024-09-13T14:20:03.000Z</time>
      </trkpt>
      <trkpt lat="44.35904" lon="7.09566">
        <ele>1769.4000244141</ele>
        <time>2024-09-13T14:20:04.000Z</time>
      </trkpt>
      <trkpt lat="44.35902" lon="7.0956">
        <ele>1768.5999755859</ele>
        <time>2024-09-13T14:20:05.000Z</time>
      </trkpt>
      <trkpt lat="44.35901" lon="7.09555">
        <ele>1768</ele>
        <time>2024-09-13T14:20:06.000Z</time>
      </trkpt>
      <trkpt lat="44.35899" lon="7.09549">
        <ele>1766.8000488281</ele>
        <time>2024-09-13T14:20:07.000Z</time>
      </trkpt>
      <trkpt lat="44.35898" lon="7.09543">
        <ele>1765.8000488281</ele>
        <time>2024-09-13T14:20:08.000Z</time>
      </trkpt>
      <trkpt lat="44.35896" lon="7.09539">
        <ele>1764.5999755859</ele>
        <time>2024-09-13T14:20:09.000Z</time>
      </trkpt>
      <trkpt lat="44.35894" lon="7.09535">
        <ele>1763.8000488281</ele>
        <time>2024-09-13T14:20:10.000Z</time>
      </trkpt>
      <trkpt lat="44.35892" lon="7.0953">
        <ele>1763.1999511719</ele>
        <time>2024-09-13T14:20:11.000Z</time>
      </trkpt>
      <trkpt lat="44.3589" lon="7.09525">
        <ele>1762.8000488281</ele>
        <time>2024-09-13T14:20:12.000Z</time>
      </trkpt>
      <trkpt lat="44.35888" lon="7.09519">
        <ele>1761.8000488281</ele>
        <time>2024-09-13T14:20:13.000Z</time>
      </trkpt>
      <trkpt lat="44.35885" lon="7.09512">
        <ele>1760.1999511719</ele>
        <time>2024-09-13T14:20:14.000Z</time>
      </trkpt>
      <trkpt lat="44.35882" lon="7.09506">
        <ele>1758.1999511719</ele>
        <time>2024-09-13T14:20:15.000Z</time>
      </trkpt>
      <trkpt lat="44.35876" lon="7.09496">
        <ele>1757</ele>
        <time>2024-09-13T14:20:16.000Z</time>
      </trkpt>
      <trkpt lat="44.35873" lon="7.0949">
        <ele>1755.8000488281</ele>
        <time>2024-09-13T14:20:17.000Z</time>
      </trkpt>
      <trkpt lat="44.35872" lon="7.09483">
        <ele>1755</ele>
        <time>2024-09-13T14:20:18.000Z</time>
      </trkpt>
      <trkpt lat="44.35871" lon="7.09476">
        <ele>1754</ele>
        <time>2024-09-13T14:20:19.000Z</time>
      </trkpt>
      <trkpt lat="44.35869" lon="7.09469">
        <ele>1753.1999511719</ele>
        <time>2024-09-13T14:20:20.000Z</time>
      </trkpt>
      <trkpt lat="44.35866" lon="7.09464">
        <ele>1752.4000244141</ele>
        <time>2024-09-13T14:20:21.000Z</time>
      </trkpt>
      <trkpt lat="44.35862" lon="7.0946">
        <ele>1751.4000244141</ele>
        <time>2024-09-13T14:20:22.000Z</time>
      </trkpt>
      <trkpt lat="44.3586" lon="7.09455">
        <ele>1750.5999755859</ele>
        <time>2024-09-13T14:20:23.000Z</time>
      </trkpt>
      <trkpt lat="44.35859" lon="7.09452">
        <ele>1749.1999511719</ele>
        <time>2024-09-13T14:20:24.000Z</time>
      </trkpt>
      <trkpt lat="44.35856" lon="7.09449">
        <ele>1747.8000488281</ele>
        <time>2024-09-13T14:20:25.000Z</time>
      </trkpt>
      <trkpt lat="44.35852" lon="7.09448">
        <ele>1747.4000244141</ele>
        <time>2024-09-13T14:20:26.000Z</time>
      </trkpt>
      <trkpt lat="44.35852" lon="7.09444">
        <ele>1746</ele>
        <time>2024-09-13T14:20:28.000Z</time>
      </trkpt>
      <trkpt lat="44.35857" lon="7.09442">
        <ele>1745</ele>
        <time>2024-09-13T14:20:29.000Z</time>
      </trkpt>
      <trkpt lat="44.35861" lon="7.0944">
        <ele>1744.4000244141</ele>
        <time>2024-09-13T14:20:30.000Z</time>
      </trkpt>
      <trkpt lat="44.3586" lon="7.09436">
        <ele>1743.8000488281</ele>
        <time>2024-09-13T14:20:31.000Z</time>
      </trkpt>
      <trkpt lat="44.35857" lon="7.09435">
        <ele>1743</ele>
        <time>2024-09-13T14:20:32.000Z</time>
      </trkpt>
      <trkpt lat="44.35847" lon="7.09433">
        <ele>1741.5999755859</ele>
        <time>2024-09-13T14:20:34.000Z</time>
      </trkpt>
      <trkpt lat="44.35844" lon="7.09429">
        <ele>1740.5999755859</ele>
        <time>2024-09-13T14:20:35.000Z</time>
      </trkpt>
      <trkpt lat="44.35842" lon="7.09424">
        <ele>1740</ele>
        <time>2024-09-13T14:20:36.000Z</time>
      </trkpt>
      <trkpt lat="44.3584" lon="7.09419">
        <ele>1737.8000488281</ele>
        <time>2024-09-13T14:20:37.000Z</time>
      </trkpt>
      <trkpt lat="44.35838" lon="7.09415">
        <ele>1737.1999511719</ele>
        <time>2024-09-13T14:20:38.000Z</time>
      </trkpt>
      <trkpt lat="44.35838" lon="7.0941">
        <ele>1736</ele>
        <time>2024-09-13T14:20:39.000Z</time>
      </trkpt>
      <trkpt lat="44.35838" lon="7.09405">
        <ele>1735.1999511719</ele>
        <time>2024-09-13T14:20:40.000Z</time>
      </trkpt>
      <trkpt lat="44.35839" lon="7.094">
        <ele>1733.5999755859</ele>
        <time>2024-09-13T14:20:41.000Z</time>
      </trkpt>
      <trkpt lat="44.35836" lon="7.09397">
        <ele>1732.5999755859</ele>
        <time>2024-09-13T14:20:42.000Z</time>
      </trkpt>
      <trkpt lat="44.35836" lon="7.09393">
        <ele>1732</ele>
        <time>2024-09-13T14:20:43.000Z</time>
      </trkpt>
      <trkpt lat="44.35839" lon="7.09391">
        <ele>1731</ele>
        <time>2024-09-13T14:20:44.000Z</time>
      </trkpt>
      <trkpt lat="44.35841" lon="7.0939">
        <ele>1730.4000244141</ele>
        <time>2024-09-13T14:20:45.000Z</time>
      </trkpt>
      <trkpt lat="44.35843" lon="7.09388">
        <ele>1730</ele>
        <time>2024-09-13T14:20:46.000Z</time>
      </trkpt>
      <trkpt lat="44.35842" lon="7.09386">
        <ele>1729.5999755859</ele>
        <time>2024-09-13T14:20:47.000Z</time>
      </trkpt>
      <trkpt lat="44.3584" lon="7.09384">
        <ele>1728.8000488281</ele>
        <time>2024-09-13T14:20:48.000Z</time>
      </trkpt>
      <trkpt lat="44.35833" lon="7.09381">
        <ele>1727.1999511719</ele>
        <time>2024-09-13T14:20:50.000Z</time>
      </trkpt>
      <trkpt lat="44.35826" lon="7.09377">
        <ele>1724.8000488281</ele>
        <time>2024-09-13T14:20:52.000Z</time>
      </trkpt>
      <trkpt lat="44.35823" lon="7.09374">
        <ele>1724</ele>
        <time>2024-09-13T14:20:53.000Z</time>
      </trkpt>
      <trkpt lat="44.35821" lon="7.09371">
        <ele>1723.8000488281</ele>
        <time>2024-09-13T14:20:54.000Z</time>
      </trkpt>
      <trkpt lat="44.35819" lon="7.09368">
        <ele>1722.8000488281</ele>
        <time>2024-09-13T14:20:55.000Z</time>
      </trkpt>
      <trkpt lat="44.35817" lon="7.09368">
        <ele>1722.5999755859</ele>
        <time>2024-09-13T14:20:56.000Z</time>
      </trkpt>
      <trkpt lat="44.35813" lon="7.09368">
        <ele>1721.5999755859</ele>
        <time>2024-09-13T14:20:57.000Z</time>
      </trkpt>
      <trkpt lat="44.3581" lon="7.09366">
        <ele>1720.4000244141</ele>
        <time>2024-09-13T14:20:58.000Z</time>
      </trkpt>
      <trkpt lat="44.35805" lon="7.09362">
        <ele>1719</ele>
        <time>2024-09-13T14:21:00.000Z</time>
      </trkpt>
      <trkpt lat="44.35802" lon="7.09359">
        <ele>1718.1999511719</ele>
        <time>2024-09-13T14:21:01.000Z</time>
      </trkpt>
      <trkpt lat="44.35801" lon="7.09357">
        <ele>1717.1999511719</ele>
        <time>2024-09-13T14:21:02.000Z</time>
      </trkpt>
      <trkpt lat="44.35801" lon="7.09357">
        <ele>1716.5999755859</ele>
        <time>2024-09-13T14:21:03.000Z</time>
      </trkpt>
      <trkpt lat="44.35798" lon="7.09357">
        <ele>1715.4000244141</ele>
        <time>2024-09-13T14:21:04.000Z</time>
      </trkpt>
      <trkpt lat="44.35794" lon="7.09355">
        <ele>1715</ele>
        <time>2024-09-13T14:21:05.000Z</time>
      </trkpt>
      <trkpt lat="44.35792" lon="7.09352">
        <ele>1714.5999755859</ele>
        <time>2024-09-13T14:21:06.000Z</time>
      </trkpt>
      <trkpt lat="44.3579" lon="7.0935">
        <ele>1714</ele>
        <time>2024-09-13T14:21:07.000Z</time>
      </trkpt>
      <trkpt lat="44.35788" lon="7.09346">
        <ele>1713.1999511719</ele>
        <time>2024-09-13T14:21:08.000Z</time>
      </trkpt>
      <trkpt lat="44.35787" lon="7.09343">
        <ele>1711.4000244141</ele>
        <time>2024-09-13T14:21:09.000Z</time>
      </trkpt>
      <trkpt lat="44.35786" lon="7.0934">
        <ele>1711</ele>
        <time>2024-09-13T14:21:10.000Z</time>
      </trkpt>
      <trkpt lat="44.35784" lon="7.09338">
        <ele>1710.1999511719</ele>
        <time>2024-09-13T14:21:11.000Z</time>
      </trkpt>
      <trkpt lat="44.35783" lon="7.09335">
        <ele>1709</ele>
        <time>2024-09-13T14:21:12.000Z</time>
      </trkpt>
      <trkpt lat="44.3578" lon="7.09333">
        <ele>1707.5999755859</ele>
        <time>2024-09-13T14:21:13.000Z</time>
      </trkpt>
      <trkpt lat="44.35779" lon="7.09331">
        <ele>1706.1999511719</ele>
        <time>2024-09-13T14:21:14.000Z</time>
      </trkpt>
      <trkpt lat="44.35776" lon="7.0933">
        <ele>1706</ele>
        <time>2024-09-13T14:21:15.000Z</time>
      </trkpt>
      <trkpt lat="44.35773" lon="7.09327">
        <ele>1705.5999755859</ele>
        <time>2024-09-13T14:21:16.000Z</time>
      </trkpt>
      <trkpt lat="44.35769" lon="7.09325">
        <ele>1704</ele>
        <time>2024-09-13T14:21:17.000Z</time>
      </trkpt>
      <trkpt lat="44.35766" lon="7.09322">
        <ele>1703.1999511719</ele>
        <time>2024-09-13T14:21:18.000Z</time>
      </trkpt>
      <trkpt lat="44.35762" lon="7.09318">
        <ele>1701.8000488281</ele>
        <time>2024-09-13T14:21:19.000Z</time>
      </trkpt>
      <trkpt lat="44.35757" lon="7.09315">
        <ele>1701.1999511719</ele>
        <time>2024-09-13T14:21:20.000Z</time>
      </trkpt>
      <trkpt lat="44.35751" lon="7.09315">
        <ele>1699.1999511719</ele>
        <time>2024-09-13T14:21:21.000Z</time>
      </trkpt>
      <trkpt lat="44.35745" lon="7.09317">
        <ele>1697.1999511719</ele>
        <time>2024-09-13T14:21:22.000Z</time>
      </trkpt>
      <trkpt lat="44.35739" lon="7.0932">
        <ele>1695.1999511719</ele>
        <time>2024-09-13T14:21:23.000Z</time>
      </trkpt>
      <trkpt lat="44.35733" lon="7.09321">
        <ele>1694</ele>
        <time>2024-09-13T14:21:24.000Z</time>
      </trkpt>
      <trkpt lat="44.35728" lon="7.09322">
        <ele>1693.1999511719</ele>
        <time>2024-09-13T14:21:25.000Z</time>
      </trkpt>
      <trkpt lat="44.35722" lon="7.09323">
        <ele>1691.1999511719</ele>
        <time>2024-09-13T14:21:26.000Z</time>
      </trkpt>
      <trkpt lat="44.35716" lon="7.09323">
        <ele>1690.5999755859</ele>
        <time>2024-09-13T14:21:27.000Z</time>
      </trkpt>
      <trkpt lat="44.3571" lon="7.09324">
        <ele>1689.8000488281</ele>
        <time>2024-09-13T14:21:28.000Z</time>
      </trkpt>
      <trkpt lat="44.35704" lon="7.09325">
        <ele>1688.4000244141</ele>
        <time>2024-09-13T14:21:29.000Z</time>
      </trkpt>
      <trkpt lat="44.35699" lon="7.09327">
        <ele>1685.4000244141</ele>
        <time>2024-09-13T14:21:31.000Z</time>
      </trkpt>
      <trkpt lat="44.35696" lon="7.09329">
        <ele>1684.4000244141</ele>
        <time>2024-09-13T14:21:32.000Z</time>
      </trkpt>
      <trkpt lat="44.35695" lon="7.09332">
        <ele>1684</ele>
        <time>2024-09-13T14:21:33.000Z</time>
      </trkpt>
      <trkpt lat="44.35693" lon="7.09335">
        <ele>1683.4000244141</ele>
        <time>2024-09-13T14:21:34.000Z</time>
      </trkpt>
      <trkpt lat="44.35693" lon="7.09337">
        <ele>1683.1999511719</ele>
        <time>2024-09-13T14:21:35.000Z</time>
      </trkpt>
      <trkpt lat="44.35692" lon="7.09339">
        <ele>1682.8000488281</ele>
        <time>2024-09-13T14:21:36.000Z</time>
      </trkpt>
      <trkpt lat="44.35691" lon="7.0934">
        <ele>1682.5999755859</ele>
        <time>2024-09-13T14:21:37.000Z</time>
      </trkpt>
      <trkpt lat="44.3569" lon="7.09341">
        <ele>1681.8000488281</ele>
        <time>2024-09-13T14:21:38.000Z</time>
      </trkpt>
      <trkpt lat="44.35691" lon="7.09341">
        <ele>1681.1999511719</ele>
        <time>2024-09-13T14:21:39.000Z</time>
      </trkpt>
      <trkpt lat="44.35694" lon="7.09342">
        <ele>1680.5999755859</ele>
        <time>2024-09-13T14:21:40.000Z</time>
      </trkpt>
      <trkpt lat="44.35694" lon="7.09342">
        <ele>1680.4000244141</ele>
        <time>2024-09-13T14:21:41.000Z</time>
      </trkpt>
      <trkpt lat="44.3571" lon="7.0934">
        <ele>1680.4000244141</ele>
        <time>2024-09-13T14:21:48.000Z</time>
      </trkpt>
      <trkpt lat="44.3572" lon="7.09341">
        <ele>1680.8000488281</ele>
        <time>2024-09-13T14:21:55.000Z</time>
      </trkpt>
      <trkpt lat="44.35721" lon="7.09341">
        <ele>1680.8000488281</ele>
        <time>2024-09-13T14:21:56.000Z</time>
      </trkpt>
      <trkpt lat="44.35722" lon="7.09345">
        <ele>1681</ele>
        <time>2024-09-13T14:21:58.000Z</time>
      </trkpt>
      <trkpt lat="44.35723" lon="7.09347">
        <ele>1681.1999511719</ele>
        <time>2024-09-13T14:21:59.000Z</time>
      </trkpt>
      <trkpt lat="44.35724" lon="7.09349">
        <ele>1681.1999511719</ele>
        <time>2024-09-13T14:22:00.000Z</time>
      </trkpt>
      <trkpt lat="44.35725" lon="7.09349">
        <ele>1681.1999511719</ele>
        <time>2024-09-13T14:22:01.000Z</time>
      </trkpt>
      <trkpt lat="44.35726" lon="7.09348">
        <ele>1681.5999755859</ele>
        <time>2024-09-13T14:22:05.000Z</time>
      </trkpt>
      <trkpt lat="44.35726" lon="7.09348">
        <ele>1681.8000488281</ele>
        <time>2024-09-13T14:22:06.000Z</time>
      </trkpt>
      <trkpt lat="44.35726" lon="7.09347">
        <ele>1681.8000488281</ele>
        <time>2024-09-13T14:22:11.000Z</time>
      </trkpt>
      <trkpt lat="44.35726" lon="7.09348">
        <ele>1682.1999511719</ele>
        <time>2024-09-13T14:22:19.000Z</time>
      </trkpt>
      <trkpt lat="44.35725" lon="7.09349">
        <ele>1682.4000244141</ele>
        <time>2024-09-13T14:22:29.000Z</time>
      </trkpt>
      <trkpt lat="44.35725" lon="7.09349">
        <ele>1682.4000244141</ele>
        <time>2024-09-13T14:22:30.000Z</time>
      </trkpt>
      <trkpt lat="44.35725" lon="7.09349">
        <ele>1682.4000244141</ele>
        <time>2024-09-13T14:22:33.000Z</time>
      </trkpt>
      <trkpt lat="44.35725" lon="7.09349">
        <ele>1682.5999755859</ele>
        <time>2024-09-13T14:22:35.000Z</time>
      </trkpt>
      <trkpt lat="44.35729" lon="7.09354">
        <ele>1682.8000488281</ele>
        <time>2024-09-13T14:22:41.000Z</time>
      </trkpt>
      <trkpt lat="44.35729" lon="7.09354">
        <ele>1682.8000488281</ele>
        <time>2024-09-13T14:22:42.000Z</time>
      </trkpt>
      <trkpt lat="44.35728" lon="7.09352">
        <ele>1683</ele>
        <time>2024-09-13T14:22:46.000Z</time>
      </trkpt>
      <trkpt lat="44.35728" lon="7.09352">
        <ele>1683</ele>
        <time>2024-09-13T14:22:48.000Z</time>
      </trkpt>
      <trkpt lat="44.35729" lon="7.09354">
        <ele>1683.1999511719</ele>
        <time>2024-09-13T14:22:58.000Z</time>
      </trkpt>
      <trkpt lat="44.35731" lon="7.09359">
        <ele>1683.1999511719</ele>
        <time>2024-09-13T14:23:03.000Z</time>
      </trkpt>
      <trkpt lat="44.35731" lon="7.09358">
        <ele>1683.1999511719</ele>
        <time>2024-09-13T14:23:04.000Z</time>
      </trkpt>
      <trkpt lat="44.35731" lon="7.09358">
        <ele>1683.1999511719</ele>
        <time>2024-09-13T14:23:05.000Z</time>
      </trkpt>
      <trkpt lat="44.35731" lon="7.09356">
        <ele>1683.4000244141</ele>
        <time>2024-09-13T14:23:06.000Z</time>
      </trkpt>
      <trkpt lat="44.35732" lon="7.09356">
        <ele>1683.4000244141</ele>
        <time>2024-09-13T14:23:07.000Z</time>
      </trkpt>
      <trkpt lat="44.35733" lon="7.09358">
        <ele>1683.1999511719</ele>
        <time>2024-09-13T14:23:08.000Z</time>
      </trkpt>
      <trkpt lat="44.35733" lon="7.09359">
        <ele>1683.4000244141</ele>
        <time>2024-09-13T14:23:20.000Z</time>
      </trkpt>
      <trkpt lat="44.35735" lon="7.09365">
        <ele>1683.8000488281</ele>
        <time>2024-09-13T14:23:28.000Z</time>
      </trkpt>
      <trkpt lat="44.35735" lon="7.09364">
        <ele>1683.8000488281</ele>
        <time>2024-09-13T14:23:30.000Z</time>
      </trkpt>
      <trkpt lat="44.35734" lon="7.0936">
        <ele>1684.1999511719</ele>
        <time>2024-09-13T14:23:36.000Z</time>
      </trkpt>
      <trkpt lat="44.35737" lon="7.09356">
        <ele>1685</ele>
        <time>2024-09-13T14:23:40.000Z</time>
      </trkpt>
      <trkpt lat="44.35737" lon="7.09355">
        <ele>1685.1999511719</ele>
        <time>2024-09-13T14:23:41.000Z</time>
      </trkpt>
      <trkpt lat="44.35737" lon="7.09355">
        <ele>1685.4000244141</ele>
        <time>2024-09-13T14:23:42.000Z</time>
      </trkpt>
      <trkpt lat="44.35737" lon="7.09354">
        <ele>1685.5999755859</ele>
        <time>2024-09-13T14:23:43.000Z</time>
      </trkpt>
      <trkpt lat="44.35736" lon="7.09353">
        <ele>1685.5999755859</ele>
        <time>2024-09-13T14:23:44.000Z</time>
      </trkpt>
      <trkpt lat="44.35735" lon="7.0935">
        <ele>1685.8000488281</ele>
        <time>2024-09-13T14:23:45.000Z</time>
      </trkpt>
      <trkpt lat="44.35734" lon="7.09349">
        <ele>1686</ele>
        <time>2024-09-13T14:23:46.000Z</time>
      </trkpt>
      <trkpt lat="44.35732" lon="7.09347">
        <ele>1686</ele>
        <time>2024-09-13T14:23:48.000Z</time>
      </trkpt>
      <trkpt lat="44.35731" lon="7.09346">
        <ele>1686.1999511719</ele>
        <time>2024-09-13T14:23:50.000Z</time>
      </trkpt>
      <trkpt lat="44.35731" lon="7.09345">
        <ele>1686.1999511719</ele>
        <time>2024-09-13T14:23:51.000Z</time>
      </trkpt>
      <trkpt lat="44.3573" lon="7.09344">
        <ele>1686.1999511719</ele>
        <time>2024-09-13T14:23:52.000Z</time>
      </trkpt>
      <trkpt lat="44.35731" lon="7.09344">
        <ele>1686.1999511719</ele>
        <time>2024-09-13T14:23:53.000Z</time>
      </trkpt>
      <trkpt lat="44.35731" lon="7.09343">
        <ele>1686.1999511719</ele>
        <time>2024-09-13T14:23:54.000Z</time>
      </trkpt>
      <trkpt lat="44.35732" lon="7.09343">
        <ele>1686.1999511719</ele>
        <time>2024-09-13T14:23:55.000Z</time>
      </trkpt>
      <trkpt lat="44.35732" lon="7.09341">
        <ele>1686.4000244141</ele>
        <time>2024-09-13T14:24:00.000Z</time>
      </trkpt>
      <trkpt lat="44.35729" lon="7.0934">
        <ele>1686.4000244141</ele>
        <time>2024-09-13T14:24:04.000Z</time>
      </trkpt>
      <trkpt lat="44.35728" lon="7.09341">
        <ele>1686.4000244141</ele>
        <time>2024-09-13T14:24:06.000Z</time>
      </trkpt>
      <trkpt lat="44.35726" lon="7.0934">
        <ele>1686.1999511719</ele>
        <time>2024-09-13T14:24:07.000Z</time>
      </trkpt>
      <trkpt lat="44.35725" lon="7.09337">
        <ele>1685.8000488281</ele>
        <time>2024-09-13T14:24:11.000Z</time>
      </trkpt>
      <trkpt lat="44.35725" lon="7.09331">
        <ele>1685.8000488281</ele>
        <time>2024-09-13T14:24:24.000Z</time>
      </trkpt>
      <trkpt lat="44.35725" lon="7.09329">
        <ele>1685.8000488281</ele>
        <time>2024-09-13T14:24:26.000Z</time>
      </trkpt>
      <trkpt lat="44.35724" lon="7.09324">
        <ele>1685.8000488281</ele>
        <time>2024-09-13T14:24:32.000Z</time>
      </trkpt>
      <trkpt lat="44.35724" lon="7.09323">
        <ele>1686</ele>
        <time>2024-09-13T14:24:34.000Z</time>
      </trkpt>
      <trkpt lat="44.35721" lon="7.09329">
        <ele>1686</ele>
        <time>2024-09-13T14:24:41.000Z</time>
      </trkpt>
      <trkpt lat="44.35721" lon="7.0933">
        <ele>1686.1999511719</ele>
        <time>2024-09-13T14:24:43.000Z</time>
      </trkpt>
      <trkpt lat="44.35723" lon="7.0933">
        <ele>1686.1999511719</ele>
        <time>2024-09-13T14:24:44.000Z</time>
      </trkpt>
      <trkpt lat="44.35725" lon="7.0933">
        <ele>1686.1999511719</ele>
        <time>2024-09-13T14:24:50.000Z</time>
      </trkpt>
      <trkpt lat="44.35725" lon="7.0933">
        <ele>1686.1999511719</ele>
        <time>2024-09-13T14:24:51.000Z</time>
      </trkpt>
      <trkpt lat="44.35725" lon="7.0933">
        <ele>1686.4000244141</ele>
        <time>2024-09-13T14:24:56.000Z</time>
      </trkpt>
      <trkpt lat="44.35726" lon="7.09332">
        <ele>1686.5999755859</ele>
        <time>2024-09-13T14:25:10.000Z</time>
      </trkpt>
      <trkpt lat="44.35726" lon="7.09332">
        <ele>1686.5999755859</ele>
        <time>2024-09-13T14:25:11.000Z</time>
      </trkpt>
      <trkpt lat="44.35726" lon="7.09332">
        <ele>1686.8000488281</ele>
        <time>2024-09-13T14:25:13.000Z</time>
      </trkpt>
      <trkpt lat="44.35726" lon="7.09334">
        <ele>1686.8000488281</ele>
        <time>2024-09-13T14:25:19.000Z</time>
      </trkpt>
      <trkpt lat="44.35726" lon="7.09346">
        <ele>1686.5999755859</ele>
        <time>2024-09-13T14:25:26.000Z</time>
      </trkpt>
      <trkpt lat="44.35726" lon="7.09346">
        <ele>1686.8000488281</ele>
        <time>2024-09-13T14:25:37.000Z</time>
      </trkpt>
      <trkpt lat="44.35726" lon="7.09346">
        <ele>1686.8000488281</ele>
        <time>2024-09-13T14:25:41.000Z</time>
      </trkpt>
      <trkpt lat="44.35726" lon="7.09346">
        <ele>1686.8000488281</ele>
        <time>2024-09-13T14:25:55.000Z</time>
      </trkpt>
      <trkpt lat="44.35722" lon="7.09344">
        <ele>1687.1999511719</ele>
        <time>2024-09-13T14:26:08.000Z</time>
      </trkpt>
      <trkpt lat="44.35722" lon="7.09344">
        <ele>1687.1999511719</ele>
        <time>2024-09-13T14:26:10.000Z</time>
      </trkpt>
      <trkpt lat="44.35724" lon="7.09348">
        <ele>1687.1999511719</ele>
        <time>2024-09-13T14:26:15.000Z</time>
      </trkpt>
      <trkpt lat="44.35724" lon="7.09348">
        <ele>1687.1999511719</ele>
        <time>2024-09-13T14:26:27.000Z</time>
      </trkpt>
      <trkpt lat="44.35724" lon="7.09348">
        <ele>1687.4000244141</ele>
        <time>2024-09-13T14:26:31.000Z</time>
      </trkpt>
      <trkpt lat="44.35725" lon="7.09348">
        <ele>1687.4000244141</ele>
        <time>2024-09-13T14:26:34.000Z</time>
      </trkpt>
      <trkpt lat="44.35724" lon="7.09348">
        <ele>1687.4000244141</ele>
        <time>2024-09-13T14:26:40.000Z</time>
      </trkpt>
      <trkpt lat="44.35726" lon="7.09351">
        <ele>1687.4000244141</ele>
        <time>2024-09-13T14:26:47.000Z</time>
      </trkpt>
      <trkpt lat="44.35726" lon="7.09351">
        <ele>1687.4000244141</ele>
        <time>2024-09-13T14:26:48.000Z</time>
      </trkpt>
      <trkpt lat="44.35726" lon="7.09351">
        <ele>1687.5999755859</ele>
        <time>2024-09-13T14:26:57.000Z</time>
      </trkpt>
      <trkpt lat="44.35726" lon="7.09351">
        <ele>1687.5999755859</ele>
        <time>2024-09-13T14:26:58.000Z</time>
      </trkpt>
      <trkpt lat="44.35726" lon="7.09351">
        <ele>1687.5999755859</ele>
        <time>2024-09-13T14:26:59.000Z</time>
      </trkpt>
      <trkpt lat="44.35726" lon="7.09351">
        <ele>1687.8000488281</ele>
        <time>2024-09-13T14:27:17.000Z</time>
      </trkpt>
      <trkpt lat="44.35726" lon="7.09345">
        <ele>1687.8000488281</ele>
        <time>2024-09-13T14:27:23.000Z</time>
      </trkpt>
      <trkpt lat="44.35726" lon="7.09346">
        <ele>1687.8000488281</ele>
        <time>2024-09-13T14:27:26.000Z</time>
      </trkpt>
      <trkpt lat="44.35727" lon="7.09346">
        <ele>1688</ele>
        <time>2024-09-13T14:27:39.000Z</time>
      </trkpt>
      <trkpt lat="44.35727" lon="7.09347">
        <ele>1688</ele>
        <time>2024-09-13T14:27:45.000Z</time>
      </trkpt>
      <trkpt lat="44.35726" lon="7.09346">
        <ele>1688.1999511719</ele>
        <time>2024-09-13T14:27:50.000Z</time>
      </trkpt>
      <trkpt lat="44.35725" lon="7.09349">
        <ele>1688.1999511719</ele>
        <time>2024-09-13T14:27:51.000Z</time>
      </trkpt>
      <trkpt lat="44.35725" lon="7.09348">
        <ele>1688.1999511719</ele>
        <time>2024-09-13T14:27:53.000Z</time>
      </trkpt>
      <trkpt lat="44.35724" lon="7.09348">
        <ele>1688.1999511719</ele>
        <time>2024-09-13T14:27:54.000Z</time>
      </trkpt>
      <trkpt lat="44.35723" lon="7.09345">
        <ele>1688.1999511719</ele>
        <time>2024-09-13T14:28:03.000Z</time>
      </trkpt>
      <trkpt lat="44.35723" lon="7.09345">
        <ele>1688.4000244141</ele>
        <time>2024-09-13T14:28:10.000Z</time>
      </trkpt>
      <trkpt lat="44.35724" lon="7.09344">
        <ele>1688.4000244141</ele>
        <time>2024-09-13T14:28:25.000Z</time>
      </trkpt>
      <trkpt lat="44.35724" lon="7.09343">
        <ele>1688.4000244141</ele>
        <time>2024-09-13T14:28:27.000Z</time>
      </trkpt>
      <trkpt lat="44.35726" lon="7.09338">
        <ele>1688.5999755859</ele>
        <time>2024-09-13T14:28:41.000Z</time>
      </trkpt>
      <trkpt lat="44.35725" lon="7.09337">
        <ele>1688.8000488281</ele>
        <time>2024-09-13T14:28:54.000Z</time>
      </trkpt>
      <trkpt lat="44.35724" lon="7.09338">
        <ele>1688.8000488281</ele>
        <time>2024-09-13T14:29:04.000Z</time>
      </trkpt>
      <trkpt lat="44.35722" lon="7.09341">
        <ele>1688.8000488281</ele>
        <time>2024-09-13T14:29:09.000Z</time>
      </trkpt>
      <trkpt lat="44.35722" lon="7.0934">
        <ele>1688.8000488281</ele>
        <time>2024-09-13T14:29:10.000Z</time>
      </trkpt>
      <trkpt lat="44.35722" lon="7.09341">
        <ele>1688.8000488281</ele>
        <time>2024-09-13T14:29:14.000Z</time>
      </trkpt>
      <trkpt lat="44.35722" lon="7.09341">
        <ele>1688.8000488281</ele>
        <time>2024-09-13T14:29:24.000Z</time>
      </trkpt>
      <trkpt lat="44.35722" lon="7.09343">
        <ele>1689</ele>
        <time>2024-09-13T14:29:28.000Z</time>
      </trkpt>
      <trkpt lat="44.35722" lon="7.09343">
        <ele>1689</ele>
        <time>2024-09-13T14:29:29.000Z</time>
      </trkpt>
      <trkpt lat="44.35722" lon="7.09343">
        <ele>1689</ele>
        <time>2024-09-13T14:29:30.000Z</time>
      </trkpt>
      <trkpt lat="44.35722" lon="7.09343">
        <ele>1689</ele>
        <time>2024-09-13T14:29:31.000Z</time>
      </trkpt>
      <trkpt lat="44.35722" lon="7.09343">
        <ele>1689</ele>
        <time>2024-09-13T14:29:32.000Z</time>
      </trkpt>
      <trkpt lat="44.35722" lon="7.09343">
        <ele>1688.8000488281</ele>
        <time>2024-09-13T14:29:38.000Z</time>
      </trkpt>
      <trkpt lat="44.35722" lon="7.09343">
        <ele>1688.8000488281</ele>
        <time>2024-09-13T14:29:39.000Z</time>
      </trkpt>
      <trkpt lat="44.35721" lon="7.09343">
        <ele>1688.8000488281</ele>
        <time>2024-09-13T14:29:45.000Z</time>
      </trkpt>
      <trkpt lat="44.35723" lon="7.09349">
        <ele>1688.8000488281</ele>
        <time>2024-09-13T14:29:50.000Z</time>
      </trkpt>
      <trkpt lat="44.35721" lon="7.09346">
        <ele>1688.8000488281</ele>
        <time>2024-09-13T14:29:51.000Z</time>
      </trkpt>
      <trkpt lat="44.3572" lon="7.09347">
        <ele>1688.8000488281</ele>
        <time>2024-09-13T14:29:53.000Z</time>
      </trkpt>
      <trkpt lat="44.35717" lon="7.09345">
        <ele>1688.8000488281</ele>
        <time>2024-09-13T14:29:55.000Z</time>
      </trkpt>
      <trkpt lat="44.35715" lon="7.09346">
        <ele>1688.8000488281</ele>
        <time>2024-09-13T14:29:56.000Z</time>
      </trkpt>
      <trkpt lat="44.35714" lon="7.09346">
        <ele>1688.8000488281</ele>
        <time>2024-09-13T14:29:57.000Z</time>
      </trkpt>
      <trkpt lat="44.35714" lon="7.09346">
        <ele>1688.8000488281</ele>
        <time>2024-09-13T14:29:58.000Z</time>
      </trkpt>
      <trkpt lat="44.35716" lon="7.09343">
        <ele>1688.8000488281</ele>
        <time>2024-09-13T14:29:59.000Z</time>
      </trkpt>
      <trkpt lat="44.35718" lon="7.09341">
        <ele>1688.8000488281</ele>
        <time>2024-09-13T14:30:00.000Z</time>
      </trkpt>
      <trkpt lat="44.35718" lon="7.09341">
        <ele>1688.8000488281</ele>
        <time>2024-09-13T14:30:01.000Z</time>
      </trkpt>
      <trkpt lat="44.35718" lon="7.09341">
        <ele>1688.8000488281</ele>
        <time>2024-09-13T14:30:02.000Z</time>
      </trkpt>
      <trkpt lat="44.35715" lon="7.09338">
        <ele>1688.8000488281</ele>
        <time>2024-09-13T14:30:03.000Z</time>
      </trkpt>
      <trkpt lat="44.35714" lon="7.09339">
        <ele>1689.4000244141</ele>
        <time>2024-09-13T14:30:05.000Z</time>
      </trkpt>
      <trkpt lat="44.3571" lon="7.09341">
        <ele>1689</ele>
        <time>2024-09-13T14:30:07.000Z</time>
      </trkpt>
      <trkpt lat="44.3571" lon="7.09341">
        <ele>1688.5999755859</ele>
        <time>2024-09-13T14:30:08.000Z</time>
      </trkpt>
      <trkpt lat="44.3571" lon="7.09343">
        <ele>1688.4000244141</ele>
        <time>2024-09-13T14:30:11.000Z</time>
      </trkpt>
      <trkpt lat="44.35712" lon="7.09343">
        <ele>1688.1999511719</ele>
        <time>2024-09-13T14:30:23.000Z</time>
      </trkpt>
      <trkpt lat="44.35712" lon="7.0934">
        <ele>1688.1999511719</ele>
        <time>2024-09-13T14:30:34.000Z</time>
      </trkpt>
      <trkpt lat="44.35702" lon="7.09345">
        <ele>1688.1999511719</ele>
        <time>2024-09-13T14:30:36.000Z</time>
      </trkpt>
      <trkpt lat="44.35699" lon="7.09348">
        <ele>1688.1999511719</ele>
        <time>2024-09-13T14:30:37.000Z</time>
      </trkpt>
      <trkpt lat="44.35698" lon="7.0935">
        <ele>1688</ele>
        <time>2024-09-13T14:30:38.000Z</time>
      </trkpt>
      <trkpt lat="44.35698" lon="7.0935">
        <ele>1687.8000488281</ele>
        <time>2024-09-13T14:30:39.000Z</time>
      </trkpt>
      <trkpt lat="44.35698" lon="7.0935">
        <ele>1687.5999755859</ele>
        <time>2024-09-13T14:30:45.000Z</time>
      </trkpt>
      <trkpt lat="44.35698" lon="7.0935">
        <ele>1687.5999755859</ele>
        <time>2024-09-13T14:30:48.000Z</time>
      </trkpt>
      <trkpt lat="44.35698" lon="7.0935">
        <ele>1687.5999755859</ele>
        <time>2024-09-13T14:30:53.000Z</time>
      </trkpt>
      <trkpt lat="44.35698" lon="7.0935">
        <ele>1687.5999755859</ele>
        <time>2024-09-13T14:30:57.000Z</time>
      </trkpt>
      <trkpt lat="44.35698" lon="7.0935">
        <ele>1687.5999755859</ele>
        <time>2024-09-13T14:31:00.000Z</time>
      </trkpt>
      <trkpt lat="44.35698" lon="7.0935">
        <ele>1687.4000244141</ele>
        <time>2024-09-13T14:31:09.000Z</time>
      </trkpt>
      <trkpt lat="44.35698" lon="7.0935">
        <ele>1687.4000244141</ele>
        <time>2024-09-13T14:31:11.000Z</time>
      </trkpt>
      <trkpt lat="44.35698" lon="7.0935">
        <ele>1687.4000244141</ele>
        <time>2024-09-13T14:31:12.000Z</time>
      </trkpt>
      <trkpt lat="44.35698" lon="7.0935">
        <ele>1687.5999755859</ele>
        <time>2024-09-13T14:31:23.000Z</time>
      </trkpt>
      <trkpt lat="44.35708" lon="7.09345">
        <ele>1687.4000244141</ele>
        <time>2024-09-13T14:31:40.000Z</time>
      </trkpt>
      <trkpt lat="44.35705" lon="7.09345">
        <ele>1687.4000244141</ele>
        <time>2024-09-13T14:31:51.000Z</time>
      </trkpt>
      <trkpt lat="44.35704" lon="7.09347">
        <ele>1687.1999511719</ele>
        <time>2024-09-13T14:31:52.000Z</time>
      </trkpt>
      <trkpt lat="44.35702" lon="7.0935">
        <ele>1687</ele>
        <time>2024-09-13T14:31:53.000Z</time>
      </trkpt>
      <trkpt lat="44.35699" lon="7.09351">
        <ele>1686.5999755859</ele>
        <time>2024-09-13T14:31:54.000Z</time>
      </trkpt>
      <trkpt lat="44.35696" lon="7.09351">
        <ele>1686.1999511719</ele>
        <time>2024-09-13T14:31:55.000Z</time>
      </trkpt>
      <trkpt lat="44.35691" lon="7.09347">
        <ele>1685</ele>
        <time>2024-09-13T14:31:57.000Z</time>
      </trkpt>
      <trkpt lat="44.35687" lon="7.09345">
        <ele>1684.5999755859</ele>
        <time>2024-09-13T14:31:58.000Z</time>
      </trkpt>
      <trkpt lat="44.35684" lon="7.09347">
        <ele>1684.4000244141</ele>
        <time>2024-09-13T14:31:59.000Z</time>
      </trkpt>
      <trkpt lat="44.3568" lon="7.09349">
        <ele>1683.8000488281</ele>
        <time>2024-09-13T14:32:00.000Z</time>
      </trkpt>
      <trkpt lat="44.35676" lon="7.09349">
        <ele>1682.8000488281</ele>
        <time>2024-09-13T14:32:01.000Z</time>
      </trkpt>
      <trkpt lat="44.35673" lon="7.09347">
        <ele>1682.5999755859</ele>
        <time>2024-09-13T14:32:02.000Z</time>
      </trkpt>
      <trkpt lat="44.35671" lon="7.09343">
        <ele>1681</ele>
        <time>2024-09-13T14:32:03.000Z</time>
      </trkpt>
      <trkpt lat="44.35668" lon="7.0934">
        <ele>1679.8000488281</ele>
        <time>2024-09-13T14:32:04.000Z</time>
      </trkpt>
      <trkpt lat="44.35664" lon="7.09338">
        <ele>1679.5999755859</ele>
        <time>2024-09-13T14:32:05.000Z</time>
      </trkpt>
      <trkpt lat="44.35661" lon="7.09336">
        <ele>1679.1999511719</ele>
        <time>2024-09-13T14:32:06.000Z</time>
      </trkpt>
      <trkpt lat="44.35657" lon="7.09334">
        <ele>1678</ele>
        <time>2024-09-13T14:32:07.000Z</time>
      </trkpt>
      <trkpt lat="44.35654" lon="7.09334">
        <ele>1677.1999511719</ele>
        <time>2024-09-13T14:32:08.000Z</time>
      </trkpt>
      <trkpt lat="44.3565" lon="7.09335">
        <ele>1677</ele>
        <time>2024-09-13T14:32:09.000Z</time>
      </trkpt>
      <trkpt lat="44.35645" lon="7.09338">
        <ele>1676.8000488281</ele>
        <time>2024-09-13T14:32:10.000Z</time>
      </trkpt>
      <trkpt lat="44.35641" lon="7.0934">
        <ele>1676.1999511719</ele>
        <time>2024-09-13T14:32:11.000Z</time>
      </trkpt>
      <trkpt lat="44.35637" lon="7.09343">
        <ele>1675.4000244141</ele>
        <time>2024-09-13T14:32:12.000Z</time>
      </trkpt>
      <trkpt lat="44.35634" lon="7.09344">
        <ele>1675</ele>
        <time>2024-09-13T14:32:13.000Z</time>
      </trkpt>
      <trkpt lat="44.35631" lon="7.09342">
        <ele>1674.8000488281</ele>
        <time>2024-09-13T14:32:14.000Z</time>
      </trkpt>
      <trkpt lat="44.35627" lon="7.09343">
        <ele>1674.1999511719</ele>
        <time>2024-09-13T14:32:15.000Z</time>
      </trkpt>
      <trkpt lat="44.35623" lon="7.09347">
        <ele>1673.8000488281</ele>
        <time>2024-09-13T14:32:16.000Z</time>
      </trkpt>
      <trkpt lat="44.3562" lon="7.09351">
        <ele>1672.8000488281</ele>
        <time>2024-09-13T14:32:17.000Z</time>
      </trkpt>
      <trkpt lat="44.35615" lon="7.09351">
        <ele>1671.4000244141</ele>
        <time>2024-09-13T14:32:18.000Z</time>
      </trkpt>
      <trkpt lat="44.35613" lon="7.09347">
        <ele>1671.4000244141</ele>
        <time>2024-09-13T14:32:19.000Z</time>
      </trkpt>
      <trkpt lat="44.35611" lon="7.09343">
        <ele>1671</ele>
        <time>2024-09-13T14:32:20.000Z</time>
      </trkpt>
      <trkpt lat="44.35609" lon="7.0934">
        <ele>1670.5999755859</ele>
        <time>2024-09-13T14:32:21.000Z</time>
      </trkpt>
      <trkpt lat="44.35607" lon="7.09339">
        <ele>1670.1999511719</ele>
        <time>2024-09-13T14:32:22.000Z</time>
      </trkpt>
      <trkpt lat="44.35605" lon="7.09341">
        <ele>1670.1999511719</ele>
        <time>2024-09-13T14:32:23.000Z</time>
      </trkpt>
      <trkpt lat="44.35603" lon="7.09341">
        <ele>1669.5999755859</ele>
        <time>2024-09-13T14:32:24.000Z</time>
      </trkpt>
      <trkpt lat="44.356" lon="7.09341">
        <ele>1668.8000488281</ele>
        <time>2024-09-13T14:32:25.000Z</time>
      </trkpt>
      <trkpt lat="44.35598" lon="7.0934">
        <ele>1668</ele>
        <time>2024-09-13T14:32:26.000Z</time>
      </trkpt>
      <trkpt lat="44.35597" lon="7.09338">
        <ele>1667.5999755859</ele>
        <time>2024-09-13T14:32:27.000Z</time>
      </trkpt>
      <trkpt lat="44.35595" lon="7.09336">
        <ele>1667.1999511719</ele>
        <time>2024-09-13T14:32:28.000Z</time>
      </trkpt>
      <trkpt lat="44.35593" lon="7.09335">
        <ele>1666.5999755859</ele>
        <time>2024-09-13T14:32:29.000Z</time>
      </trkpt>
      <trkpt lat="44.3559" lon="7.09334">
        <ele>1665.4000244141</ele>
        <time>2024-09-13T14:32:30.000Z</time>
      </trkpt>
      <trkpt lat="44.35587" lon="7.09333">
        <ele>1664.4000244141</ele>
        <time>2024-09-13T14:32:31.000Z</time>
      </trkpt>
      <trkpt lat="44.35584" lon="7.09332">
        <ele>1663.5999755859</ele>
        <time>2024-09-13T14:32:32.000Z</time>
      </trkpt>
      <trkpt lat="44.35579" lon="7.09333">
        <ele>1662.8000488281</ele>
        <time>2024-09-13T14:32:33.000Z</time>
      </trkpt>
      <trkpt lat="44.35575" lon="7.09335">
        <ele>1662.1999511719</ele>
        <time>2024-09-13T14:32:34.000Z</time>
      </trkpt>
      <trkpt lat="44.35573" lon="7.09337">
        <ele>1661</ele>
        <time>2024-09-13T14:32:35.000Z</time>
      </trkpt>
      <trkpt lat="44.3557" lon="7.09339">
        <ele>1660.4000244141</ele>
        <time>2024-09-13T14:32:36.000Z</time>
      </trkpt>
      <trkpt lat="44.35565" lon="7.09341">
        <ele>1659.1999511719</ele>
        <time>2024-09-13T14:32:38.000Z</time>
      </trkpt>
      <trkpt lat="44.35565" lon="7.09341">
        <ele>1658.5999755859</ele>
        <time>2024-09-13T14:32:39.000Z</time>
      </trkpt>
      <trkpt lat="44.35565" lon="7.09341">
        <ele>1658.1999511719</ele>
        <time>2024-09-13T14:32:40.000Z</time>
      </trkpt>
      <trkpt lat="44.35565" lon="7.09344">
        <ele>1657.8000488281</ele>
        <time>2024-09-13T14:32:43.000Z</time>
      </trkpt>
      <trkpt lat="44.35567" lon="7.09344">
        <ele>1657.5999755859</ele>
        <time>2024-09-13T14:32:50.000Z</time>
      </trkpt>
      <trkpt lat="44.35567" lon="7.09344">
        <ele>1657.5999755859</ele>
        <time>2024-09-13T14:32:51.000Z</time>
      </trkpt>
      <trkpt lat="44.35567" lon="7.09344">
        <ele>1657.5999755859</ele>
        <time>2024-09-13T14:32:59.000Z</time>
      </trkpt>
      <trkpt lat="44.35567" lon="7.09344">
        <ele>1657.5999755859</ele>
        <time>2024-09-13T14:33:00.000Z</time>
      </trkpt>
      <trkpt lat="44.35568" lon="7.09345">
        <ele>1657.5999755859</ele>
        <time>2024-09-13T14:33:02.000Z</time>
      </trkpt>
      <trkpt lat="44.35568" lon="7.09345">
        <ele>1657.4000244141</ele>
        <time>2024-09-13T14:33:06.000Z</time>
      </trkpt>
      <trkpt lat="44.35569" lon="7.09345">
        <ele>1657.1999511719</ele>
        <time>2024-09-13T14:33:14.000Z</time>
      </trkpt>
      <trkpt lat="44.35568" lon="7.09345">
        <ele>1657.1999511719</ele>
        <time>2024-09-13T14:33:19.000Z</time>
      </trkpt>
      <trkpt lat="44.35568" lon="7.09345">
        <ele>1657</ele>
        <time>2024-09-13T14:33:25.000Z</time>
      </trkpt>
      <trkpt lat="44.35569" lon="7.09343">
        <ele>1657</ele>
        <time>2024-09-13T14:33:28.000Z</time>
      </trkpt>
      <trkpt lat="44.35569" lon="7.09343">
        <ele>1657</ele>
        <time>2024-09-13T14:33:32.000Z</time>
      </trkpt>
      <trkpt lat="44.35569" lon="7.09343">
        <ele>1656.8000488281</ele>
        <time>2024-09-13T14:33:38.000Z</time>
      </trkpt>
      <trkpt lat="44.35569" lon="7.09344">
        <ele>1656.8000488281</ele>
        <time>2024-09-13T14:33:39.000Z</time>
      </trkpt>
      <trkpt lat="44.35569" lon="7.09343">
        <ele>1656.5999755859</ele>
        <time>2024-09-13T14:33:50.000Z</time>
      </trkpt>
      <trkpt lat="44.35569" lon="7.09343">
        <ele>1656.8000488281</ele>
        <time>2024-09-13T14:33:56.000Z</time>
      </trkpt>
      <trkpt lat="44.35569" lon="7.09343">
        <ele>1656.8000488281</ele>
        <time>2024-09-13T14:33:57.000Z</time>
      </trkpt>
      <trkpt lat="44.35569" lon="7.09343">
        <ele>1656.5999755859</ele>
        <time>2024-09-13T14:34:03.000Z</time>
      </trkpt>
      <trkpt lat="44.35569" lon="7.09343">
        <ele>1656.5999755859</ele>
        <time>2024-09-13T14:34:06.000Z</time>
      </trkpt>
      <trkpt lat="44.35568" lon="7.09341">
        <ele>1656.4000244141</ele>
        <time>2024-09-13T14:34:26.000Z</time>
      </trkpt>
      <trkpt lat="44.35568" lon="7.09341">
        <ele>1656.4000244141</ele>
        <time>2024-09-13T14:34:39.000Z</time>
      </trkpt>
      <trkpt lat="44.35568" lon="7.09341">
        <ele>1656.1999511719</ele>
        <time>2024-09-13T14:34:51.000Z</time>
      </trkpt>
      <trkpt lat="44.35568" lon="7.09341">
        <ele>1656.1999511719</ele>
        <time>2024-09-13T14:34:54.000Z</time>
      </trkpt>
      <trkpt lat="44.35568" lon="7.09341">
        <ele>1656.1999511719</ele>
        <time>2024-09-13T14:34:55.000Z</time>
      </trkpt>
      <trkpt lat="44.35568" lon="7.09341">
        <ele>1656</ele>
        <time>2024-09-13T14:35:02.000Z</time>
      </trkpt>
      <trkpt lat="44.35568" lon="7.09341">
        <ele>1656</ele>
        <time>2024-09-13T14:35:09.000Z</time>
      </trkpt>
      <trkpt lat="44.35568" lon="7.09341">
        <ele>1655.8000488281</ele>
        <time>2024-09-13T14:35:19.000Z</time>
      </trkpt>
      <trkpt lat="44.35568" lon="7.09341">
        <ele>1655.8000488281</ele>
        <time>2024-09-13T14:35:26.000Z</time>
      </trkpt>
      <trkpt lat="44.35568" lon="7.09341">
        <ele>1655.5999755859</ele>
        <time>2024-09-13T14:35:31.000Z</time>
      </trkpt>
      <trkpt lat="44.35567" lon="7.0934">
        <ele>1655.4000244141</ele>
        <time>2024-09-13T14:35:50.000Z</time>
      </trkpt>
      <trkpt lat="44.35567" lon="7.0934">
        <ele>1655.4000244141</ele>
        <time>2024-09-13T14:35:56.000Z</time>
      </trkpt>
      <trkpt lat="44.35564" lon="7.09337">
        <ele>1655.4000244141</ele>
        <time>2024-09-13T14:36:01.000Z</time>
      </trkpt>
      <trkpt lat="44.35564" lon="7.09337">
        <ele>1655.1999511719</ele>
        <time>2024-09-13T14:36:05.000Z</time>
      </trkpt>
      <trkpt lat="44.35564" lon="7.09337">
        <ele>1655.1999511719</ele>
        <time>2024-09-13T14:36:12.000Z</time>
      </trkpt>
      <trkpt lat="44.35564" lon="7.09337">
        <ele>1655.1999511719</ele>
        <time>2024-09-13T14:36:24.000Z</time>
      </trkpt>
      <trkpt lat="44.35564" lon="7.09336">
        <ele>1655</ele>
        <time>2024-09-13T14:36:32.000Z</time>
      </trkpt>
      <trkpt lat="44.35563" lon="7.09335">
        <ele>1655</ele>
        <time>2024-09-13T14:36:37.000Z</time>
      </trkpt>
      <trkpt lat="44.35563" lon="7.09335">
        <ele>1655</ele>
        <time>2024-09-13T14:36:39.000Z</time>
      </trkpt>
      <trkpt lat="44.35563" lon="7.09335">
        <ele>1655</ele>
        <time>2024-09-13T14:36:40.000Z</time>
      </trkpt>
      <trkpt lat="44.35563" lon="7.09335">
        <ele>1655</ele>
        <time>2024-09-13T14:36:41.000Z</time>
      </trkpt>
      <trkpt lat="44.35563" lon="7.09335">
        <ele>1655</ele>
        <time>2024-09-13T14:36:43.000Z</time>
      </trkpt>
      <trkpt lat="44.35559" lon="7.09333">
        <ele>1655</ele>
        <time>2024-09-13T14:36:45.000Z</time>
      </trkpt>
      <trkpt lat="44.35559" lon="7.09333">
        <ele>1655</ele>
        <time>2024-09-13T14:36:49.000Z</time>
      </trkpt>
      <trkpt lat="44.35559" lon="7.09334">
        <ele>1655</ele>
        <time>2024-09-13T14:36:52.000Z</time>
      </trkpt>
      <trkpt lat="44.35558" lon="7.09338">
        <ele>1655</ele>
        <time>2024-09-13T14:36:56.000Z</time>
      </trkpt>
      <trkpt lat="44.35556" lon="7.0934">
        <ele>1655.5999755859</ele>
        <time>2024-09-13T14:36:57.000Z</time>
      </trkpt>
      <trkpt lat="44.35551" lon="7.09341">
        <ele>1655.1999511719</ele>
        <time>2024-09-13T14:36:59.000Z</time>
      </trkpt>
      <trkpt lat="44.35547" lon="7.0934">
        <ele>1653.4000244141</ele>
        <time>2024-09-13T14:37:01.000Z</time>
      </trkpt>
      <trkpt lat="44.35544" lon="7.0934">
        <ele>1652.8000488281</ele>
        <time>2024-09-13T14:37:02.000Z</time>
      </trkpt>
      <trkpt lat="44.35541" lon="7.09341">
        <ele>1652</ele>
        <time>2024-09-13T14:37:03.000Z</time>
      </trkpt>
      <trkpt lat="44.35538" lon="7.09343">
        <ele>1651.4000244141</ele>
        <time>2024-09-13T14:37:04.000Z</time>
      </trkpt>
      <trkpt lat="44.35537" lon="7.09342">
        <ele>1650.5999755859</ele>
        <time>2024-09-13T14:37:05.000Z</time>
      </trkpt>
      <trkpt lat="44.35538" lon="7.0934">
        <ele>1650</ele>
        <time>2024-09-13T14:37:06.000Z</time>
      </trkpt>
      <trkpt lat="44.3554" lon="7.09339">
        <ele>1649.8000488281</ele>
        <time>2024-09-13T14:37:07.000Z</time>
      </trkpt>
      <trkpt lat="44.35542" lon="7.09336">
        <ele>1649.4000244141</ele>
        <time>2024-09-13T14:37:08.000Z</time>
      </trkpt>
      <trkpt lat="44.35544" lon="7.09333">
        <ele>1648.5999755859</ele>
        <time>2024-09-13T14:37:09.000Z</time>
      </trkpt>
      <trkpt lat="44.35545" lon="7.0933">
        <ele>1648.1999511719</ele>
        <time>2024-09-13T14:37:10.000Z</time>
      </trkpt>
      <trkpt lat="44.35545" lon="7.09326">
        <ele>1647.4000244141</ele>
        <time>2024-09-13T14:37:11.000Z</time>
      </trkpt>
      <trkpt lat="44.35543" lon="7.09323">
        <ele>1646.5999755859</ele>
        <time>2024-09-13T14:37:12.000Z</time>
      </trkpt>
      <trkpt lat="44.35541" lon="7.09321">
        <ele>1646</ele>
        <time>2024-09-13T14:37:13.000Z</time>
      </trkpt>
      <trkpt lat="44.35539" lon="7.09322">
        <ele>1645.4000244141</ele>
        <time>2024-09-13T14:37:14.000Z</time>
      </trkpt>
      <trkpt lat="44.35534" lon="7.09324">
        <ele>1644</ele>
        <time>2024-09-13T14:37:16.000Z</time>
      </trkpt>
      <trkpt lat="44.35533" lon="7.09324">
        <ele>1643.4000244141</ele>
        <time>2024-09-13T14:37:17.000Z</time>
      </trkpt>
      <trkpt lat="44.3553" lon="7.09325">
        <ele>1642.5999755859</ele>
        <time>2024-09-13T14:37:18.000Z</time>
      </trkpt>
      <trkpt lat="44.35528" lon="7.09325">
        <ele>1642.4000244141</ele>
        <time>2024-09-13T14:37:19.000Z</time>
      </trkpt>
      <trkpt lat="44.35524" lon="7.09324">
        <ele>1642</ele>
        <time>2024-09-13T14:37:20.000Z</time>
      </trkpt>
      <trkpt lat="44.35521" lon="7.09324">
        <ele>1640.5999755859</ele>
        <time>2024-09-13T14:37:21.000Z</time>
      </trkpt>
      <trkpt lat="44.35517" lon="7.09324">
        <ele>1639.5999755859</ele>
        <time>2024-09-13T14:37:22.000Z</time>
      </trkpt>
      <trkpt lat="44.35513" lon="7.09325">
        <ele>1637.5999755859</ele>
        <time>2024-09-13T14:37:24.000Z</time>
      </trkpt>
      <trkpt lat="44.35512" lon="7.09329">
        <ele>1637.4000244141</ele>
        <time>2024-09-13T14:37:25.000Z</time>
      </trkpt>
      <trkpt lat="44.35507" lon="7.09333">
        <ele>1636</ele>
        <time>2024-09-13T14:37:27.000Z</time>
      </trkpt>
      <trkpt lat="44.35506" lon="7.09331">
        <ele>1635.5999755859</ele>
        <time>2024-09-13T14:37:28.000Z</time>
      </trkpt>
      <trkpt lat="44.35505" lon="7.09329">
        <ele>1634.8000488281</ele>
        <time>2024-09-13T14:37:29.000Z</time>
      </trkpt>
      <trkpt lat="44.35504" lon="7.09328">
        <ele>1634.4000244141</ele>
        <time>2024-09-13T14:37:30.000Z</time>
      </trkpt>
      <trkpt lat="44.35504" lon="7.09324">
        <ele>1633.8000488281</ele>
        <time>2024-09-13T14:37:31.000Z</time>
      </trkpt>
      <trkpt lat="44.35504" lon="7.09323">
        <ele>1633.5999755859</ele>
        <time>2024-09-13T14:37:32.000Z</time>
      </trkpt>
      <trkpt lat="44.35506" lon="7.0932">
        <ele>1633</ele>
        <time>2024-09-13T14:37:33.000Z</time>
      </trkpt>
      <trkpt lat="44.35507" lon="7.09318">
        <ele>1632.4000244141</ele>
        <time>2024-09-13T14:37:34.000Z</time>
      </trkpt>
      <trkpt lat="44.35509" lon="7.09316">
        <ele>1632.1999511719</ele>
        <time>2024-09-13T14:37:35.000Z</time>
      </trkpt>
      <trkpt lat="44.35508" lon="7.09313">
        <ele>1631.5999755859</ele>
        <time>2024-09-13T14:37:36.000Z</time>
      </trkpt>
      <trkpt lat="44.35506" lon="7.09312">
        <ele>1631</ele>
        <time>2024-09-13T14:37:37.000Z</time>
      </trkpt>
      <trkpt lat="44.35503" lon="7.09315">
        <ele>1630</ele>
        <time>2024-09-13T14:37:40.000Z</time>
      </trkpt>
      <trkpt lat="44.35501" lon="7.09316">
        <ele>1629.5999755859</ele>
        <time>2024-09-13T14:37:41.000Z</time>
      </trkpt>
      <trkpt lat="44.35501" lon="7.09316">
        <ele>1629.1999511719</ele>
        <time>2024-09-13T14:37:42.000Z</time>
      </trkpt>
      <trkpt lat="44.35501" lon="7.09316">
        <ele>1629.1999511719</ele>
        <time>2024-09-13T14:37:43.000Z</time>
      </trkpt>
      <trkpt lat="44.35501" lon="7.09316">
        <ele>1629.1999511719</ele>
        <time>2024-09-13T14:37:44.000Z</time>
      </trkpt>
      <trkpt lat="44.355" lon="7.09315">
        <ele>1629.1999511719</ele>
        <time>2024-09-13T14:37:53.000Z</time>
      </trkpt>
      <trkpt lat="44.35499" lon="7.09313">
        <ele>1629</ele>
        <time>2024-09-13T14:38:04.000Z</time>
      </trkpt>
      <trkpt lat="44.35498" lon="7.09313">
        <ele>1629</ele>
        <time>2024-09-13T14:38:10.000Z</time>
      </trkpt>
      <trkpt lat="44.35498" lon="7.09313">
        <ele>1629</ele>
        <time>2024-09-13T14:38:12.000Z</time>
      </trkpt>
      <trkpt lat="44.35497" lon="7.09316">
        <ele>1629</ele>
        <time>2024-09-13T14:38:20.000Z</time>
      </trkpt>
      <trkpt lat="44.35497" lon="7.09316">
        <ele>1629</ele>
        <time>2024-09-13T14:38:24.000Z</time>
      </trkpt>
      <trkpt lat="44.35496" lon="7.09315">
        <ele>1629</ele>
        <time>2024-09-13T14:38:28.000Z</time>
      </trkpt>
      <trkpt lat="44.35495" lon="7.09316">
        <ele>1629</ele>
        <time>2024-09-13T14:38:30.000Z</time>
      </trkpt>
      <trkpt lat="44.35496" lon="7.09317">
        <ele>1629</ele>
        <time>2024-09-13T14:38:32.000Z</time>
      </trkpt>
      <trkpt lat="44.35497" lon="7.09318">
        <ele>1629</ele>
        <time>2024-09-13T14:38:35.000Z</time>
      </trkpt>
      <trkpt lat="44.35498" lon="7.09319">
        <ele>1629</ele>
        <time>2024-09-13T14:38:41.000Z</time>
      </trkpt>
      <trkpt lat="44.355" lon="7.0932">
        <ele>1629.1999511719</ele>
        <time>2024-09-13T14:38:48.000Z</time>
      </trkpt>
      <trkpt lat="44.355" lon="7.0932">
        <ele>1629.1999511719</ele>
        <time>2024-09-13T14:38:50.000Z</time>
      </trkpt>
      <trkpt lat="44.355" lon="7.09319">
        <ele>1629.1999511719</ele>
        <time>2024-09-13T14:38:51.000Z</time>
      </trkpt>
      <trkpt lat="44.35501" lon="7.09318">
        <ele>1629.1999511719</ele>
        <time>2024-09-13T14:38:56.000Z</time>
      </trkpt>
      <trkpt lat="44.35502" lon="7.09321">
        <ele>1629.1999511719</ele>
        <time>2024-09-13T14:39:03.000Z</time>
      </trkpt>
      <trkpt lat="44.35501" lon="7.0932">
        <ele>1629.1999511719</ele>
        <time>2024-09-13T14:39:05.000Z</time>
      </trkpt>
      <trkpt lat="44.355" lon="7.09318">
        <ele>1629.1999511719</ele>
        <time>2024-09-13T14:39:07.000Z</time>
      </trkpt>
      <trkpt lat="44.35499" lon="7.09315">
        <ele>1629.1999511719</ele>
        <time>2024-09-13T14:39:14.000Z</time>
      </trkpt>
      <trkpt lat="44.35499" lon="7.09315">
        <ele>1629.1999511719</ele>
        <time>2024-09-13T14:39:16.000Z</time>
      </trkpt>
      <trkpt lat="44.35499" lon="7.09315">
        <ele>1629.1999511719</ele>
        <time>2024-09-13T14:39:17.000Z</time>
      </trkpt>
      <trkpt lat="44.35499" lon="7.09315">
        <ele>1629.1999511719</ele>
        <time>2024-09-13T14:39:21.000Z</time>
      </trkpt>
      <trkpt lat="44.355" lon="7.09319">
        <ele>1629.1999511719</ele>
        <time>2024-09-13T14:39:30.000Z</time>
      </trkpt>
      <trkpt lat="44.355" lon="7.0932">
        <ele>1629.1999511719</ele>
        <time>2024-09-13T14:39:37.000Z</time>
      </trkpt>
      <trkpt lat="44.355" lon="7.09319">
        <ele>1629.1999511719</ele>
        <time>2024-09-13T14:39:42.000Z</time>
      </trkpt>
      <trkpt lat="44.35499" lon="7.09319">
        <ele>1629.1999511719</ele>
        <time>2024-09-13T14:39:43.000Z</time>
      </trkpt>
      <trkpt lat="44.35499" lon="7.09319">
        <ele>1629.1999511719</ele>
        <time>2024-09-13T14:39:44.000Z</time>
      </trkpt>
      <trkpt lat="44.355" lon="7.0932">
        <ele>1629.1999511719</ele>
        <time>2024-09-13T14:39:45.000Z</time>
      </trkpt>
      <trkpt lat="44.355" lon="7.0932">
        <ele>1629.1999511719</ele>
        <time>2024-09-13T14:39:46.000Z</time>
      </trkpt>
      <trkpt lat="44.35501" lon="7.09321">
        <ele>1629.1999511719</ele>
        <time>2024-09-13T14:39:51.000Z</time>
      </trkpt>
      <trkpt lat="44.35501" lon="7.09321">
        <ele>1629.1999511719</ele>
        <time>2024-09-13T14:39:53.000Z</time>
      </trkpt>
      <trkpt lat="44.355" lon="7.09321">
        <ele>1629.1999511719</ele>
        <time>2024-09-13T14:39:58.000Z</time>
      </trkpt>
      <trkpt lat="44.35501" lon="7.0932">
        <ele>1629.1999511719</ele>
        <time>2024-09-13T14:40:00.000Z</time>
      </trkpt>
      <trkpt lat="44.355" lon="7.09317">
        <ele>1629.1999511719</ele>
        <time>2024-09-13T14:40:05.000Z</time>
      </trkpt>
      <trkpt lat="44.35499" lon="7.09316">
        <ele>1629.1999511719</ele>
        <time>2024-09-13T14:40:06.000Z</time>
      </trkpt>
      <trkpt lat="44.35499" lon="7.09316">
        <ele>1629.1999511719</ele>
        <time>2024-09-13T14:40:07.000Z</time>
      </trkpt>
      <trkpt lat="44.35499" lon="7.09315">
        <ele>1629.1999511719</ele>
        <time>2024-09-13T14:40:08.000Z</time>
      </trkpt>
      <trkpt lat="44.35499" lon="7.09313">
        <ele>1629.1999511719</ele>
        <time>2024-09-13T14:40:17.000Z</time>
      </trkpt>
      <trkpt lat="44.35499" lon="7.09314">
        <ele>1629.1999511719</ele>
        <time>2024-09-13T14:40:18.000Z</time>
      </trkpt>
      <trkpt lat="44.35498" lon="7.09315">
        <ele>1629.1999511719</ele>
        <time>2024-09-13T14:40:24.000Z</time>
      </trkpt>
      <trkpt lat="44.35497" lon="7.09314">
        <ele>1629.1999511719</ele>
        <time>2024-09-13T14:40:32.000Z</time>
      </trkpt>
      <trkpt lat="44.355" lon="7.09312">
        <ele>1629.1999511719</ele>
        <time>2024-09-13T14:40:40.000Z</time>
      </trkpt>
      <trkpt lat="44.35499" lon="7.0931">
        <ele>1629.1999511719</ele>
        <time>2024-09-13T14:40:46.000Z</time>
      </trkpt>
      <trkpt lat="44.35498" lon="7.0931">
        <ele>1629.1999511719</ele>
        <time>2024-09-13T14:40:48.000Z</time>
      </trkpt>
      <trkpt lat="44.35498" lon="7.0931">
        <ele>1629.1999511719</ele>
        <time>2024-09-13T14:40:49.000Z</time>
      </trkpt>
      <trkpt lat="44.35498" lon="7.0931">
        <ele>1629.1999511719</ele>
        <time>2024-09-13T14:40:54.000Z</time>
      </trkpt>
      <trkpt lat="44.35495" lon="7.09311">
        <ele>1629.1999511719</ele>
        <time>2024-09-13T14:40:56.000Z</time>
      </trkpt>
      <trkpt lat="44.35497" lon="7.09313">
        <ele>1629.1999511719</ele>
        <time>2024-09-13T14:41:00.000Z</time>
      </trkpt>
      <trkpt lat="44.35497" lon="7.09316">
        <ele>1629.5999755859</ele>
        <time>2024-09-13T14:41:01.000Z</time>
      </trkpt>
      <trkpt lat="44.35494" lon="7.09318">
        <ele>1629.5999755859</ele>
        <time>2024-09-13T14:41:02.000Z</time>
      </trkpt>
      <trkpt lat="44.35487" lon="7.09322">
        <ele>1628.4000244141</ele>
        <time>2024-09-13T14:41:05.000Z</time>
      </trkpt>
      <trkpt lat="44.35484" lon="7.09321">
        <ele>1627.4000244141</ele>
        <time>2024-09-13T14:41:06.000Z</time>
      </trkpt>
      <trkpt lat="44.35484" lon="7.0932">
        <ele>1627.1999511719</ele>
        <time>2024-09-13T14:41:07.000Z</time>
      </trkpt>
      <trkpt lat="44.35488" lon="7.09318">
        <ele>1626.8000488281</ele>
        <time>2024-09-13T14:41:09.000Z</time>
      </trkpt>
      <trkpt lat="44.35495" lon="7.09313">
        <ele>1625.8000488281</ele>
        <time>2024-09-13T14:41:11.000Z</time>
      </trkpt>
      <trkpt lat="44.35497" lon="7.09308">
        <ele>1625.1999511719</ele>
        <time>2024-09-13T14:41:12.000Z</time>
      </trkpt>
      <trkpt lat="44.35499" lon="7.09302">
        <ele>1624</ele>
        <time>2024-09-13T14:41:13.000Z</time>
      </trkpt>
      <trkpt lat="44.35499" lon="7.09294">
        <ele>1623.8000488281</ele>
        <time>2024-09-13T14:41:14.000Z</time>
      </trkpt>
      <trkpt lat="44.35499" lon="7.09287">
        <ele>1623</ele>
        <time>2024-09-13T14:41:15.000Z</time>
      </trkpt>
      <trkpt lat="44.35496" lon="7.09284">
        <ele>1622.8000488281</ele>
        <time>2024-09-13T14:41:16.000Z</time>
      </trkpt>
      <trkpt lat="44.35494" lon="7.09284">
        <ele>1622.4000244141</ele>
        <time>2024-09-13T14:41:17.000Z</time>
      </trkpt>
      <trkpt lat="44.35492" lon="7.09287">
        <ele>1621.5999755859</ele>
        <time>2024-09-13T14:41:18.000Z</time>
      </trkpt>
      <trkpt lat="44.3549" lon="7.0929">
        <ele>1621</ele>
        <time>2024-09-13T14:41:19.000Z</time>
      </trkpt>
      <trkpt lat="44.35487" lon="7.09292">
        <ele>1620.5999755859</ele>
        <time>2024-09-13T14:41:20.000Z</time>
      </trkpt>
      <trkpt lat="44.35484" lon="7.09296">
        <ele>1619</ele>
        <time>2024-09-13T14:41:21.000Z</time>
      </trkpt>
      <trkpt lat="44.3548" lon="7.093">
        <ele>1618.5999755859</ele>
        <time>2024-09-13T14:41:22.000Z</time>
      </trkpt>
      <trkpt lat="44.35476" lon="7.09305">
        <ele>1617.1999511719</ele>
        <time>2024-09-13T14:41:23.000Z</time>
      </trkpt>
      <trkpt lat="44.35472" lon="7.09309">
        <ele>1615.1999511719</ele>
        <time>2024-09-13T14:41:24.000Z</time>
      </trkpt>
      <trkpt lat="44.35468" lon="7.0931">
        <ele>1614.4000244141</ele>
        <time>2024-09-13T14:41:25.000Z</time>
      </trkpt>
      <trkpt lat="44.35466" lon="7.09308">
        <ele>1614.1999511719</ele>
        <time>2024-09-13T14:41:26.000Z</time>
      </trkpt>
      <trkpt lat="44.35468" lon="7.09304">
        <ele>1614</ele>
        <time>2024-09-13T14:41:27.000Z</time>
      </trkpt>
      <trkpt lat="44.35472" lon="7.09297">
        <ele>1613.4000244141</ele>
        <time>2024-09-13T14:41:29.000Z</time>
      </trkpt>
      <trkpt lat="44.35474" lon="7.09293">
        <ele>1613</ele>
        <time>2024-09-13T14:41:30.000Z</time>
      </trkpt>
      <trkpt lat="44.35473" lon="7.0929">
        <ele>1612.1999511719</ele>
        <time>2024-09-13T14:41:31.000Z</time>
      </trkpt>
      <trkpt lat="44.35471" lon="7.0929">
        <ele>1611.1999511719</ele>
        <time>2024-09-13T14:41:32.000Z</time>
      </trkpt>
      <trkpt lat="44.35469" lon="7.0929">
        <ele>1610.5999755859</ele>
        <time>2024-09-13T14:41:33.000Z</time>
      </trkpt>
      <trkpt lat="44.35466" lon="7.0929">
        <ele>1610.1999511719</ele>
        <time>2024-09-13T14:41:34.000Z</time>
      </trkpt>
      <trkpt lat="44.35465" lon="7.09287">
        <ele>1609.8000488281</ele>
        <time>2024-09-13T14:41:35.000Z</time>
      </trkpt>
      <trkpt lat="44.35464" lon="7.09287">
        <ele>1608.8000488281</ele>
        <time>2024-09-13T14:41:36.000Z</time>
      </trkpt>
      <trkpt lat="44.35463" lon="7.09288">
        <ele>1608.1999511719</ele>
        <time>2024-09-13T14:41:37.000Z</time>
      </trkpt>
      <trkpt lat="44.35461" lon="7.0929">
        <ele>1607.8000488281</ele>
        <time>2024-09-13T14:41:38.000Z</time>
      </trkpt>
      <trkpt lat="44.35459" lon="7.09294">
        <ele>1607.1999511719</ele>
        <time>2024-09-13T14:41:39.000Z</time>
      </trkpt>
      <trkpt lat="44.35457" lon="7.09292">
        <ele>1606.1999511719</ele>
        <time>2024-09-13T14:41:40.000Z</time>
      </trkpt>
      <trkpt lat="44.35457" lon="7.0929">
        <ele>1606</ele>
        <time>2024-09-13T14:41:41.000Z</time>
      </trkpt>
      <trkpt lat="44.35458" lon="7.09283">
        <ele>1604.8000488281</ele>
        <time>2024-09-13T14:41:43.000Z</time>
      </trkpt>
      <trkpt lat="44.35456" lon="7.09282">
        <ele>1603.8000488281</ele>
        <time>2024-09-13T14:41:44.000Z</time>
      </trkpt>
      <trkpt lat="44.35454" lon="7.09283">
        <ele>1603.1999511719</ele>
        <time>2024-09-13T14:41:45.000Z</time>
      </trkpt>
      <trkpt lat="44.35452" lon="7.09287">
        <ele>1602.4000244141</ele>
        <time>2024-09-13T14:41:46.000Z</time>
      </trkpt>
      <trkpt lat="44.35448" lon="7.09288">
        <ele>1602</ele>
        <time>2024-09-13T14:41:47.000Z</time>
      </trkpt>
      <trkpt lat="44.35446" lon="7.09286">
        <ele>1601.1999511719</ele>
        <time>2024-09-13T14:41:48.000Z</time>
      </trkpt>
      <trkpt lat="44.35444" lon="7.09288">
        <ele>1600.4000244141</ele>
        <time>2024-09-13T14:41:49.000Z</time>
      </trkpt>
      <trkpt lat="44.35442" lon="7.0929">
        <ele>1599.4000244141</ele>
        <time>2024-09-13T14:41:50.000Z</time>
      </trkpt>
      <trkpt lat="44.35441" lon="7.09294">
        <ele>1598.5999755859</ele>
        <time>2024-09-13T14:41:51.000Z</time>
      </trkpt>
      <trkpt lat="44.3544" lon="7.09297">
        <ele>1598.4000244141</ele>
        <time>2024-09-13T14:41:52.000Z</time>
      </trkpt>
      <trkpt lat="44.35437" lon="7.09298">
        <ele>1598</ele>
        <time>2024-09-13T14:41:53.000Z</time>
      </trkpt>
      <trkpt lat="44.35435" lon="7.09296">
        <ele>1597.1999511719</ele>
        <time>2024-09-13T14:41:54.000Z</time>
      </trkpt>
      <trkpt lat="44.35435" lon="7.09292">
        <ele>1596.5999755859</ele>
        <time>2024-09-13T14:41:55.000Z</time>
      </trkpt>
      <trkpt lat="44.35435" lon="7.09283">
        <ele>1596</ele>
        <time>2024-09-13T14:41:57.000Z</time>
      </trkpt>
      <trkpt lat="44.35434" lon="7.0928">
        <ele>1595.5999755859</ele>
        <time>2024-09-13T14:41:58.000Z</time>
      </trkpt>
      <trkpt lat="44.35435" lon="7.09274">
        <ele>1594.4000244141</ele>
        <time>2024-09-13T14:41:59.000Z</time>
      </trkpt>
      <trkpt lat="44.35434" lon="7.0927">
        <ele>1593.8000488281</ele>
        <time>2024-09-13T14:42:00.000Z</time>
      </trkpt>
      <trkpt lat="44.35431" lon="7.09265">
        <ele>1592.8000488281</ele>
        <time>2024-09-13T14:42:01.000Z</time>
      </trkpt>
      <trkpt lat="44.35429" lon="7.09263">
        <ele>1591.5999755859</ele>
        <time>2024-09-13T14:42:02.000Z</time>
      </trkpt>
      <trkpt lat="44.35427" lon="7.09262">
        <ele>1591</ele>
        <time>2024-09-13T14:42:03.000Z</time>
      </trkpt>
      <trkpt lat="44.35425" lon="7.09264">
        <ele>1590.1999511719</ele>
        <time>2024-09-13T14:42:04.000Z</time>
      </trkpt>
      <trkpt lat="44.35423" lon="7.09266">
        <ele>1590.1999511719</ele>
        <time>2024-09-13T14:42:05.000Z</time>
      </trkpt>
      <trkpt lat="44.35423" lon="7.09269">
        <ele>1589.4000244141</ele>
        <time>2024-09-13T14:42:06.000Z</time>
      </trkpt>
      <trkpt lat="44.35423" lon="7.09272">
        <ele>1589.1999511719</ele>
        <time>2024-09-13T14:42:07.000Z</time>
      </trkpt>
      <trkpt lat="44.35423" lon="7.0928">
        <ele>1588</ele>
        <time>2024-09-13T14:42:09.000Z</time>
      </trkpt>
      <trkpt lat="44.35422" lon="7.09283">
        <ele>1586.5999755859</ele>
        <time>2024-09-13T14:42:10.000Z</time>
      </trkpt>
      <trkpt lat="44.35421" lon="7.09285">
        <ele>1586</ele>
        <time>2024-09-13T14:42:11.000Z</time>
      </trkpt>
      <trkpt lat="44.35419" lon="7.09286">
        <ele>1585.5999755859</ele>
        <time>2024-09-13T14:42:12.000Z</time>
      </trkpt>
      <trkpt lat="44.35418" lon="7.09285">
        <ele>1585.1999511719</ele>
        <time>2024-09-13T14:42:13.000Z</time>
      </trkpt>
      <trkpt lat="44.35418" lon="7.09285">
        <ele>1584.8000488281</ele>
        <time>2024-09-13T14:42:14.000Z</time>
      </trkpt>
      <trkpt lat="44.35418" lon="7.09285">
        <ele>1584.5999755859</ele>
        <time>2024-09-13T14:42:15.000Z</time>
      </trkpt>
      <trkpt lat="44.35418" lon="7.09286">
        <ele>1584.4000244141</ele>
        <time>2024-09-13T14:42:16.000Z</time>
      </trkpt>
      <trkpt lat="44.35419" lon="7.09286">
        <ele>1584.4000244141</ele>
        <time>2024-09-13T14:42:18.000Z</time>
      </trkpt>
      <trkpt lat="44.3542" lon="7.09286">
        <ele>1584.1999511719</ele>
        <time>2024-09-13T14:42:19.000Z</time>
      </trkpt>
      <trkpt lat="44.35419" lon="7.09286">
        <ele>1584.1999511719</ele>
        <time>2024-09-13T14:42:21.000Z</time>
      </trkpt>
      <trkpt lat="44.35418" lon="7.09286">
        <ele>1584.1999511719</ele>
        <time>2024-09-13T14:42:23.000Z</time>
      </trkpt>
      <trkpt lat="44.35418" lon="7.09285">
        <ele>1584</ele>
        <time>2024-09-13T14:42:25.000Z</time>
      </trkpt>
      <trkpt lat="44.35419" lon="7.09284">
        <ele>1584</ele>
        <time>2024-09-13T14:42:26.000Z</time>
      </trkpt>
      <trkpt lat="44.35419" lon="7.09283">
        <ele>1584</ele>
        <time>2024-09-13T14:42:27.000Z</time>
      </trkpt>
      <trkpt lat="44.3542" lon="7.09283">
        <ele>1583.5999755859</ele>
        <time>2024-09-13T14:42:28.000Z</time>
      </trkpt>
      <trkpt lat="44.35419" lon="7.09282">
        <ele>1583</ele>
        <time>2024-09-13T14:42:31.000Z</time>
      </trkpt>
      <trkpt lat="44.35417" lon="7.09278">
        <ele>1582.8000488281</ele>
        <time>2024-09-13T14:42:33.000Z</time>
      </trkpt>
      <trkpt lat="44.35414" lon="7.09276">
        <ele>1582.4000244141</ele>
        <time>2024-09-13T14:42:34.000Z</time>
      </trkpt>
      <trkpt lat="44.35412" lon="7.09277">
        <ele>1581.8000488281</ele>
        <time>2024-09-13T14:42:35.000Z</time>
      </trkpt>
      <trkpt lat="44.35411" lon="7.0928">
        <ele>1580.5999755859</ele>
        <time>2024-09-13T14:42:36.000Z</time>
      </trkpt>
      <trkpt lat="44.35412" lon="7.09284">
        <ele>1579.8000488281</ele>
        <time>2024-09-13T14:42:37.000Z</time>
      </trkpt>
      <trkpt lat="44.35413" lon="7.0929">
        <ele>1579</ele>
        <time>2024-09-13T14:42:38.000Z</time>
      </trkpt>
      <trkpt lat="44.35412" lon="7.09295">
        <ele>1578</ele>
        <time>2024-09-13T14:42:39.000Z</time>
      </trkpt>
      <trkpt lat="44.35411" lon="7.093">
        <ele>1576.1999511719</ele>
        <time>2024-09-13T14:42:40.000Z</time>
      </trkpt>
      <trkpt lat="44.35409" lon="7.09306">
        <ele>1575.4000244141</ele>
        <time>2024-09-13T14:42:41.000Z</time>
      </trkpt>
      <trkpt lat="44.35406" lon="7.09309">
        <ele>1574</ele>
        <time>2024-09-13T14:42:42.000Z</time>
      </trkpt>
      <trkpt lat="44.35404" lon="7.09307">
        <ele>1573.1999511719</ele>
        <time>2024-09-13T14:42:43.000Z</time>
      </trkpt>
      <trkpt lat="44.35403" lon="7.09303">
        <ele>1572.8000488281</ele>
        <time>2024-09-13T14:42:44.000Z</time>
      </trkpt>
      <trkpt lat="44.35399" lon="7.09293">
        <ele>1571</ele>
        <time>2024-09-13T14:42:47.000Z</time>
      </trkpt>
      <trkpt lat="44.35397" lon="7.09289">
        <ele>1570</ele>
        <time>2024-09-13T14:42:48.000Z</time>
      </trkpt>
      <trkpt lat="44.35395" lon="7.09286">
        <ele>1569</ele>
        <time>2024-09-13T14:42:49.000Z</time>
      </trkpt>
      <trkpt lat="44.35393" lon="7.09283">
        <ele>1568.4000244141</ele>
        <time>2024-09-13T14:42:50.000Z</time>
      </trkpt>
      <trkpt lat="44.35391" lon="7.09283">
        <ele>1568</ele>
        <time>2024-09-13T14:42:51.000Z</time>
      </trkpt>
      <trkpt lat="44.35389" lon="7.09283">
        <ele>1567.1999511719</ele>
        <time>2024-09-13T14:42:52.000Z</time>
      </trkpt>
      <trkpt lat="44.35388" lon="7.09285">
        <ele>1566.4000244141</ele>
        <time>2024-09-13T14:42:53.000Z</time>
      </trkpt>
      <trkpt lat="44.35386" lon="7.09293">
        <ele>1565</ele>
        <time>2024-09-13T14:42:55.000Z</time>
      </trkpt>
      <trkpt lat="44.35385" lon="7.09296">
        <ele>1564.4000244141</ele>
        <time>2024-09-13T14:42:56.000Z</time>
      </trkpt>
      <trkpt lat="44.35385" lon="7.09299">
        <ele>1563.8000488281</ele>
        <time>2024-09-13T14:42:57.000Z</time>
      </trkpt>
      <trkpt lat="44.35384" lon="7.09306">
        <ele>1561.8000488281</ele>
        <time>2024-09-13T14:42:59.000Z</time>
      </trkpt>
      <trkpt lat="44.35384" lon="7.09311">
        <ele>1560.5999755859</ele>
        <time>2024-09-13T14:43:00.000Z</time>
      </trkpt>
      <trkpt lat="44.35383" lon="7.09315">
        <ele>1560.4000244141</ele>
        <time>2024-09-13T14:43:01.000Z</time>
      </trkpt>
      <trkpt lat="44.35381" lon="7.0932">
        <ele>1559.4000244141</ele>
        <time>2024-09-13T14:43:02.000Z</time>
      </trkpt>
      <trkpt lat="44.3538" lon="7.09324">
        <ele>1558.1999511719</ele>
        <time>2024-09-13T14:43:03.000Z</time>
      </trkpt>
      <trkpt lat="44.35378" lon="7.09328">
        <ele>1556.8000488281</ele>
        <time>2024-09-13T14:43:04.000Z</time>
      </trkpt>
      <trkpt lat="44.35375" lon="7.09333">
        <ele>1556.1999511719</ele>
        <time>2024-09-13T14:43:05.000Z</time>
      </trkpt>
      <trkpt lat="44.35371" lon="7.09334">
        <ele>1555.8000488281</ele>
        <time>2024-09-13T14:43:06.000Z</time>
      </trkpt>
      <trkpt lat="44.3537" lon="7.09332">
        <ele>1555.1999511719</ele>
        <time>2024-09-13T14:43:07.000Z</time>
      </trkpt>
      <trkpt lat="44.3537" lon="7.09328">
        <ele>1554.1999511719</ele>
        <time>2024-09-13T14:43:08.000Z</time>
      </trkpt>
      <trkpt lat="44.3537" lon="7.09318">
        <ele>1553.1999511719</ele>
        <time>2024-09-13T14:43:10.000Z</time>
      </trkpt>
      <trkpt lat="44.3537" lon="7.09311">
        <ele>1552.4000244141</ele>
        <time>2024-09-13T14:43:11.000Z</time>
      </trkpt>
      <trkpt lat="44.3537" lon="7.09306">
        <ele>1551.5999755859</ele>
        <time>2024-09-13T14:43:12.000Z</time>
      </trkpt>
      <trkpt lat="44.35369" lon="7.09303">
        <ele>1550.8000488281</ele>
        <time>2024-09-13T14:43:13.000Z</time>
      </trkpt>
      <trkpt lat="44.35367" lon="7.09304">
        <ele>1550.4000244141</ele>
        <time>2024-09-13T14:43:14.000Z</time>
      </trkpt>
      <trkpt lat="44.35366" lon="7.09308">
        <ele>1549.5999755859</ele>
        <time>2024-09-13T14:43:15.000Z</time>
      </trkpt>
      <trkpt lat="44.35365" lon="7.09319">
        <ele>1549.1999511719</ele>
        <time>2024-09-13T14:43:17.000Z</time>
      </trkpt>
      <trkpt lat="44.35363" lon="7.09325">
        <ele>1548.5999755859</ele>
        <time>2024-09-13T14:43:18.000Z</time>
      </trkpt>
      <trkpt lat="44.3536" lon="7.09328">
        <ele>1547</ele>
        <time>2024-09-13T14:43:19.000Z</time>
      </trkpt>
      <trkpt lat="44.35356" lon="7.0933">
        <ele>1545.5999755859</ele>
        <time>2024-09-13T14:43:20.000Z</time>
      </trkpt>
      <trkpt lat="44.35354" lon="7.09328">
        <ele>1545</ele>
        <time>2024-09-13T14:43:21.000Z</time>
      </trkpt>
      <trkpt lat="44.35355" lon="7.09325">
        <ele>1544.5999755859</ele>
        <time>2024-09-13T14:43:22.000Z</time>
      </trkpt>
      <trkpt lat="44.35355" lon="7.09322">
        <ele>1544.1999511719</ele>
        <time>2024-09-13T14:43:23.000Z</time>
      </trkpt>
      <trkpt lat="44.35356" lon="7.09312">
        <ele>1543</ele>
        <time>2024-09-13T14:43:25.000Z</time>
      </trkpt>
      <trkpt lat="44.35355" lon="7.09305">
        <ele>1542.1999511719</ele>
        <time>2024-09-13T14:43:26.000Z</time>
      </trkpt>
      <trkpt lat="44.35353" lon="7.09302">
        <ele>1541.5999755859</ele>
        <time>2024-09-13T14:43:27.000Z</time>
      </trkpt>
      <trkpt lat="44.3535" lon="7.09301">
        <ele>1540.5999755859</ele>
        <time>2024-09-13T14:43:28.000Z</time>
      </trkpt>
      <trkpt lat="44.35349" lon="7.09302">
        <ele>1539.8000488281</ele>
        <time>2024-09-13T14:43:29.000Z</time>
      </trkpt>
      <trkpt lat="44.35349" lon="7.09306">
        <ele>1539.4000244141</ele>
        <time>2024-09-13T14:43:30.000Z</time>
      </trkpt>
      <trkpt lat="44.35347" lon="7.09316">
        <ele>1538.1999511719</ele>
        <time>2024-09-13T14:43:32.000Z</time>
      </trkpt>
      <trkpt lat="44.35345" lon="7.09315">
        <ele>1537.4000244141</ele>
        <time>2024-09-13T14:43:33.000Z</time>
      </trkpt>
      <trkpt lat="44.35344" lon="7.09312">
        <ele>1537</ele>
        <time>2024-09-13T14:43:34.000Z</time>
      </trkpt>
      <trkpt lat="44.35341" lon="7.09298">
        <ele>1535.1999511719</ele>
        <time>2024-09-13T14:43:37.000Z</time>
      </trkpt>
      <trkpt lat="44.35339" lon="7.09294">
        <ele>1533.8000488281</ele>
        <time>2024-09-13T14:43:38.000Z</time>
      </trkpt>
      <trkpt lat="44.35337" lon="7.09294">
        <ele>1533</ele>
        <time>2024-09-13T14:43:39.000Z</time>
      </trkpt>
      <trkpt lat="44.35336" lon="7.09299">
        <ele>1532.4000244141</ele>
        <time>2024-09-13T14:43:40.000Z</time>
      </trkpt>
      <trkpt lat="44.35335" lon="7.09304">
        <ele>1532</ele>
        <time>2024-09-13T14:43:41.000Z</time>
      </trkpt>
      <trkpt lat="44.35335" lon="7.0931">
        <ele>1531.5999755859</ele>
        <time>2024-09-13T14:43:42.000Z</time>
      </trkpt>
      <trkpt lat="44.35335" lon="7.09318">
        <ele>1530.8000488281</ele>
        <time>2024-09-13T14:43:43.000Z</time>
      </trkpt>
      <trkpt lat="44.35336" lon="7.09326">
        <ele>1530.4000244141</ele>
        <time>2024-09-13T14:43:44.000Z</time>
      </trkpt>
      <trkpt lat="44.35337" lon="7.09333">
        <ele>1530.1999511719</ele>
        <time>2024-09-13T14:43:45.000Z</time>
      </trkpt>
      <trkpt lat="44.35336" lon="7.09339">
        <ele>1530.1999511719</ele>
        <time>2024-09-13T14:43:46.000Z</time>
      </trkpt>
      <trkpt lat="44.35333" lon="7.0934">
        <ele>1529.8000488281</ele>
        <time>2024-09-13T14:43:47.000Z</time>
      </trkpt>
      <trkpt lat="44.35329" lon="7.09338">
        <ele>1529.5999755859</ele>
        <time>2024-09-13T14:43:48.000Z</time>
      </trkpt>
      <trkpt lat="44.35325" lon="7.09337">
        <ele>1529.1999511719</ele>
        <time>2024-09-13T14:43:49.000Z</time>
      </trkpt>
      <trkpt lat="44.35322" lon="7.09335">
        <ele>1529.1999511719</ele>
        <time>2024-09-13T14:43:50.000Z</time>
      </trkpt>
      <trkpt lat="44.35319" lon="7.09334">
        <ele>1528.1999511719</ele>
        <time>2024-09-13T14:43:51.000Z</time>
      </trkpt>
      <trkpt lat="44.35316" lon="7.09336">
        <ele>1527.1999511719</ele>
        <time>2024-09-13T14:43:52.000Z</time>
      </trkpt>
      <trkpt lat="44.35312" lon="7.09341">
        <ele>1526.5999755859</ele>
        <time>2024-09-13T14:43:53.000Z</time>
      </trkpt>
      <trkpt lat="44.35309" lon="7.09347">
        <ele>1524.8000488281</ele>
        <time>2024-09-13T14:43:54.000Z</time>
      </trkpt>
      <trkpt lat="44.35306" lon="7.09352">
        <ele>1523.1999511719</ele>
        <time>2024-09-13T14:43:55.000Z</time>
      </trkpt>
      <trkpt lat="44.35303" lon="7.09352">
        <ele>1521.8000488281</ele>
        <time>2024-09-13T14:43:56.000Z</time>
      </trkpt>
      <trkpt lat="44.35303" lon="7.0935">
        <ele>1521.1999511719</ele>
        <time>2024-09-13T14:43:57.000Z</time>
      </trkpt>
      <trkpt lat="44.35304" lon="7.09345">
        <ele>1520.8000488281</ele>
        <time>2024-09-13T14:43:58.000Z</time>
      </trkpt>
      <trkpt lat="44.35305" lon="7.0934">
        <ele>1520.5999755859</ele>
        <time>2024-09-13T14:43:59.000Z</time>
      </trkpt>
      <trkpt lat="44.35304" lon="7.09331">
        <ele>1518.5999755859</ele>
        <time>2024-09-13T14:44:01.000Z</time>
      </trkpt>
      <trkpt lat="44.35302" lon="7.09332">
        <ele>1517.8000488281</ele>
        <time>2024-09-13T14:44:02.000Z</time>
      </trkpt>
      <trkpt lat="44.35296" lon="7.09343">
        <ele>1517.1999511719</ele>
        <time>2024-09-13T14:44:04.000Z</time>
      </trkpt>
      <trkpt lat="44.35292" lon="7.09351">
        <ele>1516.4000244141</ele>
        <time>2024-09-13T14:44:05.000Z</time>
      </trkpt>
      <trkpt lat="44.35291" lon="7.09358">
        <ele>1514.4000244141</ele>
        <time>2024-09-13T14:44:06.000Z</time>
      </trkpt>
      <trkpt lat="44.35288" lon="7.09361">
        <ele>1512.4000244141</ele>
        <time>2024-09-13T14:44:07.000Z</time>
      </trkpt>
      <trkpt lat="44.35286" lon="7.09359">
        <ele>1511.8000488281</ele>
        <time>2024-09-13T14:44:08.000Z</time>
      </trkpt>
      <trkpt lat="44.35286" lon="7.09355">
        <ele>1511.5999755859</ele>
        <time>2024-09-13T14:44:09.000Z</time>
      </trkpt>
      <trkpt lat="44.35287" lon="7.09349">
        <ele>1511.1999511719</ele>
        <time>2024-09-13T14:44:10.000Z</time>
      </trkpt>
      <trkpt lat="44.35287" lon="7.09342">
        <ele>1510.1999511719</ele>
        <time>2024-09-13T14:44:11.000Z</time>
      </trkpt>
      <trkpt lat="44.35288" lon="7.09335">
        <ele>1508.4000244141</ele>
        <time>2024-09-13T14:44:12.000Z</time>
      </trkpt>
      <trkpt lat="44.35288" lon="7.09325">
        <ele>1507.5999755859</ele>
        <time>2024-09-13T14:44:13.000Z</time>
      </trkpt>
      <trkpt lat="44.3529" lon="7.09316">
        <ele>1506.4000244141</ele>
        <time>2024-09-13T14:44:14.000Z</time>
      </trkpt>
      <trkpt lat="44.35292" lon="7.0931">
        <ele>1506</ele>
        <time>2024-09-13T14:44:15.000Z</time>
      </trkpt>
      <trkpt lat="44.3529" lon="7.09307">
        <ele>1505.5999755859</ele>
        <time>2024-09-13T14:44:16.000Z</time>
      </trkpt>
      <trkpt lat="44.35288" lon="7.09308">
        <ele>1505.5999755859</ele>
        <time>2024-09-13T14:44:17.000Z</time>
      </trkpt>
      <trkpt lat="44.35285" lon="7.09312">
        <ele>1505.4000244141</ele>
        <time>2024-09-13T14:44:18.000Z</time>
      </trkpt>
      <trkpt lat="44.35278" lon="7.09324">
        <ele>1503.8000488281</ele>
        <time>2024-09-13T14:44:20.000Z</time>
      </trkpt>
      <trkpt lat="44.35275" lon="7.09326">
        <ele>1501.8000488281</ele>
        <time>2024-09-13T14:44:21.000Z</time>
      </trkpt>
      <trkpt lat="44.35274" lon="7.09325">
        <ele>1500.5999755859</ele>
        <time>2024-09-13T14:44:22.000Z</time>
      </trkpt>
      <trkpt lat="44.35275" lon="7.09321">
        <ele>1500.4000244141</ele>
        <time>2024-09-13T14:44:23.000Z</time>
      </trkpt>
      <trkpt lat="44.35278" lon="7.0931">
        <ele>1499.8000488281</ele>
        <time>2024-09-13T14:44:25.000Z</time>
      </trkpt>
      <trkpt lat="44.35279" lon="7.09304">
        <ele>1498.8000488281</ele>
        <time>2024-09-13T14:44:26.000Z</time>
      </trkpt>
      <trkpt lat="44.35278" lon="7.09301">
        <ele>1497</ele>
        <time>2024-09-13T14:44:27.000Z</time>
      </trkpt>
      <trkpt lat="44.35276" lon="7.09299">
        <ele>1496.5999755859</ele>
        <time>2024-09-13T14:44:28.000Z</time>
      </trkpt>
      <trkpt lat="44.35273" lon="7.093">
        <ele>1496.4000244141</ele>
        <time>2024-09-13T14:44:29.000Z</time>
      </trkpt>
      <trkpt lat="44.35271" lon="7.09303">
        <ele>1495.5999755859</ele>
        <time>2024-09-13T14:44:30.000Z</time>
      </trkpt>
      <trkpt lat="44.35262" lon="7.09311">
        <ele>1493.1999511719</ele>
        <time>2024-09-13T14:44:32.000Z</time>
      </trkpt>
      <trkpt lat="44.35259" lon="7.09317">
        <ele>1492</ele>
        <time>2024-09-13T14:44:33.000Z</time>
      </trkpt>
      <trkpt lat="44.35257" lon="7.09322">
        <ele>1490.1999511719</ele>
        <time>2024-09-13T14:44:34.000Z</time>
      </trkpt>
      <trkpt lat="44.35256" lon="7.09327">
        <ele>1489.1999511719</ele>
        <time>2024-09-13T14:44:35.000Z</time>
      </trkpt>
      <trkpt lat="44.35253" lon="7.09327">
        <ele>1488.4000244141</ele>
        <time>2024-09-13T14:44:36.000Z</time>
      </trkpt>
      <trkpt lat="44.35252" lon="7.09323">
        <ele>1487.8000488281</ele>
        <time>2024-09-13T14:44:37.000Z</time>
      </trkpt>
      <trkpt lat="44.3525" lon="7.09317">
        <ele>1486.5999755859</ele>
        <time>2024-09-13T14:44:38.000Z</time>
      </trkpt>
      <trkpt lat="44.35249" lon="7.09313">
        <ele>1485.5999755859</ele>
        <time>2024-09-13T14:44:39.000Z</time>
      </trkpt>
      <trkpt lat="44.35247" lon="7.09313">
        <ele>1484.4000244141</ele>
        <time>2024-09-13T14:44:40.000Z</time>
      </trkpt>
      <trkpt lat="44.35246" lon="7.09315">
        <ele>1483.1999511719</ele>
        <time>2024-09-13T14:44:41.000Z</time>
      </trkpt>
      <trkpt lat="44.35248" lon="7.09325">
        <ele>1482.1999511719</ele>
        <time>2024-09-13T14:44:43.000Z</time>
      </trkpt>
      <trkpt lat="44.35248" lon="7.09331">
        <ele>1481.5999755859</ele>
        <time>2024-09-13T14:44:44.000Z</time>
      </trkpt>
      <trkpt lat="44.35246" lon="7.09335">
        <ele>1481.4000244141</ele>
        <time>2024-09-13T14:44:45.000Z</time>
      </trkpt>
      <trkpt lat="44.35244" lon="7.09338">
        <ele>1481.5999755859</ele>
        <time>2024-09-13T14:44:46.000Z</time>
      </trkpt>
      <trkpt lat="44.35241" lon="7.0934">
        <ele>1481.5999755859</ele>
        <time>2024-09-13T14:44:47.000Z</time>
      </trkpt>
      <trkpt lat="44.3523" lon="7.09349">
        <ele>1481.1999511719</ele>
        <time>2024-09-13T14:44:50.000Z</time>
      </trkpt>
      <trkpt lat="44.35225" lon="7.09353">
        <ele>1480.5999755859</ele>
        <time>2024-09-13T14:44:51.000Z</time>
      </trkpt>
      <trkpt lat="44.35217" lon="7.09355">
        <ele>1479.5999755859</ele>
        <time>2024-09-13T14:44:52.000Z</time>
      </trkpt>
      <trkpt lat="44.35211" lon="7.09356">
        <ele>1478.4000244141</ele>
        <time>2024-09-13T14:44:53.000Z</time>
      </trkpt>
      <trkpt lat="44.35205" lon="7.09356">
        <ele>1477.8000488281</ele>
        <time>2024-09-13T14:44:54.000Z</time>
      </trkpt>
      <trkpt lat="44.35202" lon="7.09354">
        <ele>1477.4000244141</ele>
        <time>2024-09-13T14:44:55.000Z</time>
      </trkpt>
      <trkpt lat="44.35204" lon="7.09351">
        <ele>1476.8000488281</ele>
        <time>2024-09-13T14:44:56.000Z</time>
      </trkpt>
      <trkpt lat="44.35208" lon="7.0935">
        <ele>1476.1999511719</ele>
        <time>2024-09-13T14:44:57.000Z</time>
      </trkpt>
      <trkpt lat="44.35216" lon="7.09341">
        <ele>1474.8000488281</ele>
        <time>2024-09-13T14:44:59.000Z</time>
      </trkpt>
      <trkpt lat="44.35217" lon="7.09335">
        <ele>1472.4000244141</ele>
        <time>2024-09-13T14:45:00.000Z</time>
      </trkpt>
      <trkpt lat="44.35213" lon="7.09332">
        <ele>1471</ele>
        <time>2024-09-13T14:45:01.000Z</time>
      </trkpt>
      <trkpt lat="44.35201" lon="7.09327">
        <ele>1470</ele>
        <time>2024-09-13T14:45:03.000Z</time>
      </trkpt>
      <trkpt lat="44.35195" lon="7.09324">
        <ele>1467.5999755859</ele>
        <time>2024-09-13T14:45:04.000Z</time>
      </trkpt>
      <trkpt lat="44.3519" lon="7.09322">
        <ele>1466</ele>
        <time>2024-09-13T14:45:05.000Z</time>
      </trkpt>
      <trkpt lat="44.35184" lon="7.0932">
        <ele>1464.8000488281</ele>
        <time>2024-09-13T14:45:06.000Z</time>
      </trkpt>
      <trkpt lat="44.35179" lon="7.09322">
        <ele>1463.5999755859</ele>
        <time>2024-09-13T14:45:07.000Z</time>
      </trkpt>
      <trkpt lat="44.35174" lon="7.09325">
        <ele>1462.4000244141</ele>
        <time>2024-09-13T14:45:08.000Z</time>
      </trkpt>
      <trkpt lat="44.35169" lon="7.09331">
        <ele>1462</ele>
        <time>2024-09-13T14:45:09.000Z</time>
      </trkpt>
      <trkpt lat="44.35164" lon="7.09336">
        <ele>1461.1999511719</ele>
        <time>2024-09-13T14:45:10.000Z</time>
      </trkpt>
      <trkpt lat="44.35159" lon="7.09341">
        <ele>1460.8000488281</ele>
        <time>2024-09-13T14:45:11.000Z</time>
      </trkpt>
      <trkpt lat="44.35154" lon="7.09345">
        <ele>1460.5999755859</ele>
        <time>2024-09-13T14:45:12.000Z</time>
      </trkpt>
      <trkpt lat="44.35148" lon="7.09346">
        <ele>1460.5999755859</ele>
        <time>2024-09-13T14:45:13.000Z</time>
      </trkpt>
      <trkpt lat="44.35144" lon="7.09343">
        <ele>1460.5999755859</ele>
        <time>2024-09-13T14:45:14.000Z</time>
      </trkpt>
      <trkpt lat="44.3514" lon="7.09345">
        <ele>1460</ele>
        <time>2024-09-13T14:45:15.000Z</time>
      </trkpt>
      <trkpt lat="44.35135" lon="7.09347">
        <ele>1460.1999511719</ele>
        <time>2024-09-13T14:45:16.000Z</time>
      </trkpt>
      <trkpt lat="44.35133" lon="7.09346">
        <ele>1460.5999755859</ele>
        <time>2024-09-13T14:45:17.000Z</time>
      </trkpt>
      <trkpt lat="44.3513" lon="7.09344">
        <ele>1460.8000488281</ele>
        <time>2024-09-13T14:45:18.000Z</time>
      </trkpt>
      <trkpt lat="44.35128" lon="7.09343">
        <ele>1461</ele>
        <time>2024-09-13T14:45:19.000Z</time>
      </trkpt>
      <trkpt lat="44.35126" lon="7.09341">
        <ele>1461</ele>
        <time>2024-09-13T14:45:20.000Z</time>
      </trkpt>
      <trkpt lat="44.35125" lon="7.09339">
        <ele>1461.5999755859</ele>
        <time>2024-09-13T14:45:21.000Z</time>
      </trkpt>
      <trkpt lat="44.35124" lon="7.09337">
        <ele>1462</ele>
        <time>2024-09-13T14:45:22.000Z</time>
      </trkpt>
      <trkpt lat="44.35121" lon="7.09334">
        <ele>1462</ele>
        <time>2024-09-13T14:45:23.000Z</time>
      </trkpt>
      <trkpt lat="44.35119" lon="7.09333">
        <ele>1462</ele>
        <time>2024-09-13T14:45:24.000Z</time>
      </trkpt>
      <trkpt lat="44.35115" lon="7.09333">
        <ele>1462</ele>
        <time>2024-09-13T14:45:25.000Z</time>
      </trkpt>
      <trkpt lat="44.35112" lon="7.09333">
        <ele>1461.5999755859</ele>
        <time>2024-09-13T14:45:26.000Z</time>
      </trkpt>
      <trkpt lat="44.35111" lon="7.0933">
        <ele>1459.5999755859</ele>
        <time>2024-09-13T14:45:27.000Z</time>
      </trkpt>
      <trkpt lat="44.35112" lon="7.09327">
        <ele>1458.5999755859</ele>
        <time>2024-09-13T14:45:28.000Z</time>
      </trkpt>
      <trkpt lat="44.35119" lon="7.09322">
        <ele>1457.4000244141</ele>
        <time>2024-09-13T14:45:30.000Z</time>
      </trkpt>
      <trkpt lat="44.3512" lon="7.09318">
        <ele>1457</ele>
        <time>2024-09-13T14:45:31.000Z</time>
      </trkpt>
      <trkpt lat="44.35119" lon="7.09314">
        <ele>1456</ele>
        <time>2024-09-13T14:45:32.000Z</time>
      </trkpt>
      <trkpt lat="44.35118" lon="7.09313">
        <ele>1455</ele>
        <time>2024-09-13T14:45:33.000Z</time>
      </trkpt>
      <trkpt lat="44.35112" lon="7.09313">
        <ele>1454.1999511719</ele>
        <time>2024-09-13T14:45:34.000Z</time>
      </trkpt>
      <trkpt lat="44.35101" lon="7.09311">
        <ele>1453.4000244141</ele>
        <time>2024-09-13T14:45:36.000Z</time>
      </trkpt>
      <trkpt lat="44.35096" lon="7.09312">
        <ele>1451.5999755859</ele>
        <time>2024-09-13T14:45:37.000Z</time>
      </trkpt>
      <trkpt lat="44.35093" lon="7.09318">
        <ele>1450.4000244141</ele>
        <time>2024-09-13T14:45:38.000Z</time>
      </trkpt>
      <trkpt lat="44.35088" lon="7.0932">
        <ele>1449.5999755859</ele>
        <time>2024-09-13T14:45:39.000Z</time>
      </trkpt>
      <trkpt lat="44.35084" lon="7.09319">
        <ele>1448.5999755859</ele>
        <time>2024-09-13T14:45:40.000Z</time>
      </trkpt>
      <trkpt lat="44.3508" lon="7.0932">
        <ele>1446.4000244141</ele>
        <time>2024-09-13T14:45:41.000Z</time>
      </trkpt>
      <trkpt lat="44.35076" lon="7.09323">
        <ele>1445.5999755859</ele>
        <time>2024-09-13T14:45:42.000Z</time>
      </trkpt>
      <trkpt lat="44.35074" lon="7.09328">
        <ele>1444.1999511719</ele>
        <time>2024-09-13T14:45:43.000Z</time>
      </trkpt>
      <trkpt lat="44.3507" lon="7.09329">
        <ele>1443</ele>
        <time>2024-09-13T14:45:44.000Z</time>
      </trkpt>
      <trkpt lat="44.35066" lon="7.09327">
        <ele>1442.5999755859</ele>
        <time>2024-09-13T14:45:45.000Z</time>
      </trkpt>
      <trkpt lat="44.35063" lon="7.0933">
        <ele>1441.5999755859</ele>
        <time>2024-09-13T14:45:46.000Z</time>
      </trkpt>
      <trkpt lat="44.35062" lon="7.09336">
        <ele>1441.1999511719</ele>
        <time>2024-09-13T14:45:47.000Z</time>
      </trkpt>
      <trkpt lat="44.3506" lon="7.09341">
        <ele>1439.5999755859</ele>
        <time>2024-09-13T14:45:48.000Z</time>
      </trkpt>
      <trkpt lat="44.35056" lon="7.0934">
        <ele>1439.1999511719</ele>
        <time>2024-09-13T14:45:49.000Z</time>
      </trkpt>
      <trkpt lat="44.35051" lon="7.09338">
        <ele>1438.8000488281</ele>
        <time>2024-09-13T14:45:50.000Z</time>
      </trkpt>
      <trkpt lat="44.35047" lon="7.09336">
        <ele>1438.1999511719</ele>
        <time>2024-09-13T14:45:51.000Z</time>
      </trkpt>
      <trkpt lat="44.35041" lon="7.09337">
        <ele>1437.5999755859</ele>
        <time>2024-09-13T14:45:52.000Z</time>
      </trkpt>
      <trkpt lat="44.35037" lon="7.09342">
        <ele>1436.5999755859</ele>
        <time>2024-09-13T14:45:53.000Z</time>
      </trkpt>
      <trkpt lat="44.35033" lon="7.09347">
        <ele>1436.1999511719</ele>
        <time>2024-09-13T14:45:54.000Z</time>
      </trkpt>
      <trkpt lat="44.35029" lon="7.09351">
        <ele>1435.8000488281</ele>
        <time>2024-09-13T14:45:55.000Z</time>
      </trkpt>
      <trkpt lat="44.35024" lon="7.09363">
        <ele>1435.5999755859</ele>
        <time>2024-09-13T14:45:57.000Z</time>
      </trkpt>
      <trkpt lat="44.35017" lon="7.09378">
        <ele>1435.5999755859</ele>
        <time>2024-09-13T14:45:59.000Z</time>
      </trkpt>
      <trkpt lat="44.35013" lon="7.09377">
        <ele>1435.5999755859</ele>
        <time>2024-09-13T14:46:00.000Z</time>
      </trkpt>
      <trkpt lat="44.3501" lon="7.09374">
        <ele>1435.4000244141</ele>
        <time>2024-09-13T14:46:01.000Z</time>
      </trkpt>
      <trkpt lat="44.34995" lon="7.09354">
        <ele>1434.4000244141</ele>
        <time>2024-09-13T14:46:05.000Z</time>
      </trkpt>
      <trkpt lat="44.34992" lon="7.09351">
        <ele>1434</ele>
        <time>2024-09-13T14:46:06.000Z</time>
      </trkpt>
      <trkpt lat="44.34989" lon="7.09351">
        <ele>1433.8000488281</ele>
        <time>2024-09-13T14:46:07.000Z</time>
      </trkpt>
      <trkpt lat="44.34985" lon="7.09352">
        <ele>1433.5999755859</ele>
        <time>2024-09-13T14:46:08.000Z</time>
      </trkpt>
      <trkpt lat="44.3498" lon="7.09353">
        <ele>1433.4000244141</ele>
        <time>2024-09-13T14:46:09.000Z</time>
      </trkpt>
      <trkpt lat="44.34974" lon="7.09354">
        <ele>1433.4000244141</ele>
        <time>2024-09-13T14:46:10.000Z</time>
      </trkpt>
      <trkpt lat="44.3497" lon="7.09358">
        <ele>1433.1999511719</ele>
        <time>2024-09-13T14:46:11.000Z</time>
      </trkpt>
      <trkpt lat="44.34968" lon="7.09363">
        <ele>1433.1999511719</ele>
        <time>2024-09-13T14:46:12.000Z</time>
      </trkpt>
      <trkpt lat="44.34965" lon="7.09366">
        <ele>1433.4000244141</ele>
        <time>2024-09-13T14:46:13.000Z</time>
      </trkpt>
      <trkpt lat="44.34963" lon="7.09367">
        <ele>1433.5999755859</ele>
        <time>2024-09-13T14:46:14.000Z</time>
      </trkpt>
      <trkpt lat="44.34961" lon="7.09368">
        <ele>1434.5999755859</ele>
        <time>2024-09-13T14:46:15.000Z</time>
      </trkpt>
      <trkpt lat="44.34958" lon="7.09367">
        <ele>1434.8000488281</ele>
        <time>2024-09-13T14:46:16.000Z</time>
      </trkpt>
      <trkpt lat="44.34955" lon="7.09367">
        <ele>1435</ele>
        <time>2024-09-13T14:46:17.000Z</time>
      </trkpt>
      <trkpt lat="44.34951" lon="7.09366">
        <ele>1435.4000244141</ele>
        <time>2024-09-13T14:46:18.000Z</time>
      </trkpt>
      <trkpt lat="44.34948" lon="7.09367">
        <ele>1435.4000244141</ele>
        <time>2024-09-13T14:46:19.000Z</time>
      </trkpt>
      <trkpt lat="44.34945" lon="7.09367">
        <ele>1435.8000488281</ele>
        <time>2024-09-13T14:46:20.000Z</time>
      </trkpt>
      <trkpt lat="44.3494" lon="7.0937">
        <ele>1436.8000488281</ele>
        <time>2024-09-13T14:46:22.000Z</time>
      </trkpt>
      <trkpt lat="44.34939" lon="7.09372">
        <ele>1437</ele>
        <time>2024-09-13T14:46:23.000Z</time>
      </trkpt>
      <trkpt lat="44.34935" lon="7.09379">
        <ele>1438</ele>
        <time>2024-09-13T14:46:26.000Z</time>
      </trkpt>
      <trkpt lat="44.34934" lon="7.09381">
        <ele>1438</ele>
        <time>2024-09-13T14:46:27.000Z</time>
      </trkpt>
      <trkpt lat="44.34934" lon="7.09382">
        <ele>1438.1999511719</ele>
        <time>2024-09-13T14:46:28.000Z</time>
      </trkpt>
      <trkpt lat="44.34934" lon="7.09384">
        <ele>1438.4000244141</ele>
        <time>2024-09-13T14:46:29.000Z</time>
      </trkpt>
      <trkpt lat="44.34932" lon="7.09386">
        <ele>1438.8000488281</ele>
        <time>2024-09-13T14:46:30.000Z</time>
      </trkpt>
      <trkpt lat="44.3493" lon="7.09387">
        <ele>1439</ele>
        <time>2024-09-13T14:46:31.000Z</time>
      </trkpt>
      <trkpt lat="44.34928" lon="7.09388">
        <ele>1439</ele>
        <time>2024-09-13T14:46:32.000Z</time>
      </trkpt>
      <trkpt lat="44.34924" lon="7.0939">
        <ele>1439.1999511719</ele>
        <time>2024-09-13T14:46:33.000Z</time>
      </trkpt>
      <trkpt lat="44.34924" lon="7.09391">
        <ele>1439.1999511719</ele>
        <time>2024-09-13T14:46:34.000Z</time>
      </trkpt>
      <trkpt lat="44.34922" lon="7.09393">
        <ele>1439.4000244141</ele>
        <time>2024-09-13T14:46:35.000Z</time>
      </trkpt>
      <trkpt lat="44.34921" lon="7.09395">
        <ele>1439.4000244141</ele>
        <time>2024-09-13T14:46:36.000Z</time>
      </trkpt>
      <trkpt lat="44.34918" lon="7.09395">
        <ele>1439.4000244141</ele>
        <time>2024-09-13T14:46:37.000Z</time>
      </trkpt>
      <trkpt lat="44.34917" lon="7.09394">
        <ele>1439.4000244141</ele>
        <time>2024-09-13T14:46:38.000Z</time>
      </trkpt>
      <trkpt lat="44.34916" lon="7.09394">
        <ele>1439.4000244141</ele>
        <time>2024-09-13T14:46:39.000Z</time>
      </trkpt>
      <trkpt lat="44.34915" lon="7.09395">
        <ele>1439.4000244141</ele>
        <time>2024-09-13T14:46:40.000Z</time>
      </trkpt>
      <trkpt lat="44.34914" lon="7.09395">
        <ele>1439.4000244141</ele>
        <time>2024-09-13T14:46:41.000Z</time>
      </trkpt>
      <trkpt lat="44.34913" lon="7.09395">
        <ele>1439.4000244141</ele>
        <time>2024-09-13T14:46:42.000Z</time>
      </trkpt>
      <trkpt lat="44.34911" lon="7.09395">
        <ele>1439.1999511719</ele>
        <time>2024-09-13T14:46:43.000Z</time>
      </trkpt>
      <trkpt lat="44.3491" lon="7.09396">
        <ele>1439.1999511719</ele>
        <time>2024-09-13T14:46:44.000Z</time>
      </trkpt>
      <trkpt lat="44.3491" lon="7.09397">
        <ele>1439.1999511719</ele>
        <time>2024-09-13T14:46:45.000Z</time>
      </trkpt>
      <trkpt lat="44.34909" lon="7.09398">
        <ele>1439</ele>
        <time>2024-09-13T14:46:46.000Z</time>
      </trkpt>
      <trkpt lat="44.34909" lon="7.09397">
        <ele>1439</ele>
        <time>2024-09-13T14:46:47.000Z</time>
      </trkpt>
      <trkpt lat="44.34908" lon="7.09397">
        <ele>1438.8000488281</ele>
        <time>2024-09-13T14:46:48.000Z</time>
      </trkpt>
      <trkpt lat="44.34907" lon="7.09395">
        <ele>1438.8000488281</ele>
        <time>2024-09-13T14:46:50.000Z</time>
      </trkpt>
      <trkpt lat="44.34907" lon="7.09394">
        <ele>1438.8000488281</ele>
        <time>2024-09-13T14:46:51.000Z</time>
      </trkpt>
      <trkpt lat="44.34908" lon="7.09393">
        <ele>1438.8000488281</ele>
        <time>2024-09-13T14:46:53.000Z</time>
      </trkpt>
      <trkpt lat="44.34909" lon="7.09396">
        <ele>1439</ele>
        <time>2024-09-13T14:46:57.000Z</time>
      </trkpt>
      <trkpt lat="44.3491" lon="7.09397">
        <ele>1438.8000488281</ele>
        <time>2024-09-13T14:46:58.000Z</time>
      </trkpt>
      <trkpt lat="44.3491" lon="7.09397">
        <ele>1438.8000488281</ele>
        <time>2024-09-13T14:46:59.000Z</time>
      </trkpt>
      <trkpt lat="44.34913" lon="7.09401">
        <ele>1438.8000488281</ele>
        <time>2024-09-13T14:47:05.000Z</time>
      </trkpt>
      <trkpt lat="44.34913" lon="7.09403">
        <ele>1438.8000488281</ele>
        <time>2024-09-13T14:47:11.000Z</time>
      </trkpt>
      <trkpt lat="44.34913" lon="7.09404">
        <ele>1438.5999755859</ele>
        <time>2024-09-13T14:47:20.000Z</time>
      </trkpt>
      <trkpt lat="44.34912" lon="7.09404">
        <ele>1438.8000488281</ele>
        <time>2024-09-13T14:47:27.000Z</time>
      </trkpt>
      <trkpt lat="44.34913" lon="7.09405">
        <ele>1438.8000488281</ele>
        <time>2024-09-13T14:47:31.000Z</time>
      </trkpt>
      <trkpt lat="44.34912" lon="7.09404">
        <ele>1438.8000488281</ele>
        <time>2024-09-13T14:47:33.000Z</time>
      </trkpt>
      <trkpt lat="44.34912" lon="7.09404">
        <ele>1438.8000488281</ele>
        <time>2024-09-13T14:47:36.000Z</time>
      </trkpt>
      <trkpt lat="44.3491" lon="7.09403">
        <ele>1438.8000488281</ele>
        <time>2024-09-13T14:47:39.000Z</time>
      </trkpt>
      <trkpt lat="44.3491" lon="7.09404">
        <ele>1438.8000488281</ele>
        <time>2024-09-13T14:47:40.000Z</time>
      </trkpt>
      <trkpt lat="44.34911" lon="7.09404">
        <ele>1438.5999755859</ele>
        <time>2024-09-13T14:47:42.000Z</time>
      </trkpt>
      <trkpt lat="44.34911" lon="7.09404">
        <ele>1438.5999755859</ele>
        <time>2024-09-13T14:47:43.000Z</time>
      </trkpt>
      <trkpt lat="44.34911" lon="7.09404">
        <ele>1438.5999755859</ele>
        <time>2024-09-13T14:47:44.000Z</time>
      </trkpt>
      <trkpt lat="44.34911" lon="7.09404">
        <ele>1438.5999755859</ele>
        <time>2024-09-13T14:47:45.000Z</time>
      </trkpt>
      <trkpt lat="44.34911" lon="7.094">
        <ele>1438.8000488281</ele>
        <time>2024-09-13T14:47:49.000Z</time>
      </trkpt>
      <trkpt lat="44.34911" lon="7.09397">
        <ele>1438.8000488281</ele>
        <time>2024-09-13T14:47:51.000Z</time>
      </trkpt>
      <trkpt lat="44.3491" lon="7.09395">
        <ele>1438.8000488281</ele>
        <time>2024-09-13T14:47:56.000Z</time>
      </trkpt>
      <trkpt lat="44.3491" lon="7.09395">
        <ele>1438.8000488281</ele>
        <time>2024-09-13T14:48:04.000Z</time>
      </trkpt>
      <trkpt lat="44.34909" lon="7.09397">
        <ele>1438.8000488281</ele>
        <time>2024-09-13T14:48:16.000Z</time>
      </trkpt>
      <trkpt lat="44.3491" lon="7.09398">
        <ele>1438.8000488281</ele>
        <time>2024-09-13T14:48:23.000Z</time>
      </trkpt>
      <trkpt lat="44.34909" lon="7.09398">
        <ele>1438.8000488281</ele>
        <time>2024-09-13T14:48:27.000Z</time>
      </trkpt>
      <trkpt lat="44.34908" lon="7.09396">
        <ele>1438.8000488281</ele>
        <time>2024-09-13T14:48:28.000Z</time>
      </trkpt>
      <trkpt lat="44.34908" lon="7.09395">
        <ele>1438.8000488281</ele>
        <time>2024-09-13T14:48:29.000Z</time>
      </trkpt>
      <trkpt lat="44.34907" lon="7.09394">
        <ele>1438.8000488281</ele>
        <time>2024-09-13T14:48:30.000Z</time>
      </trkpt>
      <trkpt lat="44.34906" lon="7.09391">
        <ele>1438.8000488281</ele>
        <time>2024-09-13T14:48:36.000Z</time>
      </trkpt>
      <trkpt lat="44.34905" lon="7.09392">
        <ele>1438.8000488281</ele>
        <time>2024-09-13T14:48:45.000Z</time>
      </trkpt>
      <trkpt lat="44.34905" lon="7.09395">
        <ele>1438.8000488281</ele>
        <time>2024-09-13T14:48:46.000Z</time>
      </trkpt>
      <trkpt lat="44.34905" lon="7.09396">
        <ele>1438.8000488281</ele>
        <time>2024-09-13T14:48:47.000Z</time>
      </trkpt>
      <trkpt lat="44.34905" lon="7.09399">
        <ele>1438.8000488281</ele>
        <time>2024-09-13T14:48:50.000Z</time>
      </trkpt>
      <trkpt lat="44.34906" lon="7.09399">
        <ele>1438.8000488281</ele>
        <time>2024-09-13T14:48:51.000Z</time>
      </trkpt>
      <trkpt lat="44.34908" lon="7.09399">
        <ele>1438.8000488281</ele>
        <time>2024-09-13T14:48:54.000Z</time>
      </trkpt>
      <trkpt lat="44.34908" lon="7.094">
        <ele>1438.8000488281</ele>
        <time>2024-09-13T14:48:55.000Z</time>
      </trkpt>
      <trkpt lat="44.34909" lon="7.09401">
        <ele>1438.8000488281</ele>
        <time>2024-09-13T14:48:57.000Z</time>
      </trkpt>
      <trkpt lat="44.3491" lon="7.09402">
        <ele>1438.8000488281</ele>
        <time>2024-09-13T14:48:59.000Z</time>
      </trkpt>
      <trkpt lat="44.34911" lon="7.09401">
        <ele>1438.8000488281</ele>
        <time>2024-09-13T14:49:06.000Z</time>
      </trkpt>
      <trkpt lat="44.3491" lon="7.09401">
        <ele>1438.8000488281</ele>
        <time>2024-09-13T14:49:12.000Z</time>
      </trkpt>
      <trkpt lat="44.34911" lon="7.09405">
        <ele>1438.8000488281</ele>
        <time>2024-09-13T14:49:15.000Z</time>
      </trkpt>
      <trkpt lat="44.34913" lon="7.09409">
        <ele>1438.8000488281</ele>
        <time>2024-09-13T14:49:27.000Z</time>
      </trkpt>
      <trkpt lat="44.34912" lon="7.09408">
        <ele>1438.8000488281</ele>
        <time>2024-09-13T14:49:33.000Z</time>
      </trkpt>
      <trkpt lat="44.34911" lon="7.09409">
        <ele>1438.8000488281</ele>
        <time>2024-09-13T14:49:36.000Z</time>
      </trkpt>
      <trkpt lat="44.34913" lon="7.09408">
        <ele>1438.8000488281</ele>
        <time>2024-09-13T14:49:43.000Z</time>
      </trkpt>
      <trkpt lat="44.34913" lon="7.09408">
        <ele>1438.8000488281</ele>
        <time>2024-09-13T14:49:45.000Z</time>
      </trkpt>
      <trkpt lat="44.34913" lon="7.09408">
        <ele>1438.8000488281</ele>
        <time>2024-09-13T14:49:46.000Z</time>
      </trkpt>
      <trkpt lat="44.34912" lon="7.09405">
        <ele>1438.8000488281</ele>
        <time>2024-09-13T14:49:51.000Z</time>
      </trkpt>
      <trkpt lat="44.34914" lon="7.09405">
        <ele>1438.8000488281</ele>
        <time>2024-09-13T14:49:53.000Z</time>
      </trkpt>
      <trkpt lat="44.34914" lon="7.09405">
        <ele>1438.8000488281</ele>
        <time>2024-09-13T14:49:57.000Z</time>
      </trkpt>
      <trkpt lat="44.34914" lon="7.09405">
        <ele>1438.8000488281</ele>
        <time>2024-09-13T14:50:05.000Z</time>
      </trkpt>
      <trkpt lat="44.34915" lon="7.09404">
        <ele>1438.8000488281</ele>
        <time>2024-09-13T14:50:10.000Z</time>
      </trkpt>
      <trkpt lat="44.34914" lon="7.09403">
        <ele>1438.8000488281</ele>
        <time>2024-09-13T14:50:15.000Z</time>
      </trkpt>
      <trkpt lat="44.34913" lon="7.09402">
        <ele>1438.8000488281</ele>
        <time>2024-09-13T14:50:22.000Z</time>
      </trkpt>
      <trkpt lat="44.34913" lon="7.09402">
        <ele>1438.8000488281</ele>
        <time>2024-09-13T14:50:23.000Z</time>
      </trkpt>
      <trkpt lat="44.34913" lon="7.09404">
        <ele>1438.8000488281</ele>
        <time>2024-09-13T14:50:24.000Z</time>
      </trkpt>
      <trkpt lat="44.34913" lon="7.09402">
        <ele>1438.8000488281</ele>
        <time>2024-09-13T14:50:30.000Z</time>
      </trkpt>
      <trkpt lat="44.34913" lon="7.09402">
        <ele>1438.8000488281</ele>
        <time>2024-09-13T14:50:34.000Z</time>
      </trkpt>
      <trkpt lat="44.3491" lon="7.09402">
        <ele>1438.8000488281</ele>
        <time>2024-09-13T14:50:41.000Z</time>
      </trkpt>
      <trkpt lat="44.3491" lon="7.094">
        <ele>1438.8000488281</ele>
        <time>2024-09-13T14:50:45.000Z</time>
      </trkpt>
      <trkpt lat="44.3491" lon="7.094">
        <ele>1438.8000488281</ele>
        <time>2024-09-13T14:50:48.000Z</time>
      </trkpt>
      <trkpt lat="44.3491" lon="7.094">
        <ele>1438.8000488281</ele>
        <time>2024-09-13T14:50:52.000Z</time>
      </trkpt>
      <trkpt lat="44.3491" lon="7.094">
        <ele>1438.8000488281</ele>
        <time>2024-09-13T14:50:57.000Z</time>
      </trkpt>
      <trkpt lat="44.34911" lon="7.09402">
        <ele>1438.8000488281</ele>
        <time>2024-09-13T14:50:58.000Z</time>
      </trkpt>
      <trkpt lat="44.34911" lon="7.09402">
        <ele>1438.8000488281</ele>
        <time>2024-09-13T14:50:59.000Z</time>
      </trkpt>
      <trkpt lat="44.34912" lon="7.09403">
        <ele>1438.8000488281</ele>
        <time>2024-09-13T14:51:00.000Z</time>
      </trkpt>
      <trkpt lat="44.34912" lon="7.09404">
        <ele>1438.8000488281</ele>
        <time>2024-09-13T14:51:01.000Z</time>
      </trkpt>
      <trkpt lat="44.34912" lon="7.09402">
        <ele>1438.8000488281</ele>
        <time>2024-09-13T14:51:09.000Z</time>
      </trkpt>
      <trkpt lat="44.34911" lon="7.09403">
        <ele>1438.8000488281</ele>
        <time>2024-09-13T14:51:10.000Z</time>
      </trkpt>
      <trkpt lat="44.34911" lon="7.09403">
        <ele>1438.8000488281</ele>
        <time>2024-09-13T14:51:11.000Z</time>
      </trkpt>
      <trkpt lat="44.34911" lon="7.09399">
        <ele>1438.8000488281</ele>
        <time>2024-09-13T14:51:18.000Z</time>
      </trkpt>
      <trkpt lat="44.34908" lon="7.09398">
        <ele>1438.8000488281</ele>
        <time>2024-09-13T14:51:23.000Z</time>
      </trkpt>
      <trkpt lat="44.34908" lon="7.09399">
        <ele>1438.8000488281</ele>
        <time>2024-09-13T14:51:24.000Z</time>
      </trkpt>
      <trkpt lat="44.34909" lon="7.094">
        <ele>1438.8000488281</ele>
        <time>2024-09-13T14:51:29.000Z</time>
      </trkpt>
      <trkpt lat="44.3491" lon="7.09401">
        <ele>1438.8000488281</ele>
        <time>2024-09-13T14:51:30.000Z</time>
      </trkpt>
      <trkpt lat="44.3491" lon="7.09402">
        <ele>1438.8000488281</ele>
        <time>2024-09-13T14:51:32.000Z</time>
      </trkpt>
      <trkpt lat="44.3491" lon="7.09403">
        <ele>1438.8000488281</ele>
        <time>2024-09-13T14:51:34.000Z</time>
      </trkpt>
      <trkpt lat="44.34911" lon="7.09404">
        <ele>1438.8000488281</ele>
        <time>2024-09-13T14:51:38.000Z</time>
      </trkpt>
      <trkpt lat="44.34914" lon="7.09402">
        <ele>1438.8000488281</ele>
        <time>2024-09-13T14:51:48.000Z</time>
      </trkpt>
      <trkpt lat="44.34914" lon="7.09402">
        <ele>1438.8000488281</ele>
        <time>2024-09-13T14:51:49.000Z</time>
      </trkpt>
      <trkpt lat="44.34914" lon="7.09402">
        <ele>1438.8000488281</ele>
        <time>2024-09-13T14:51:50.000Z</time>
      </trkpt>
      <trkpt lat="44.34914" lon="7.09402">
        <ele>1438.8000488281</ele>
        <time>2024-09-13T14:51:52.000Z</time>
      </trkpt>
      <trkpt lat="44.34913" lon="7.09403">
        <ele>1438.8000488281</ele>
        <time>2024-09-13T14:51:55.000Z</time>
      </trkpt>
      <trkpt lat="44.34906" lon="7.09402">
        <ele>1439</ele>
        <time>2024-09-13T14:51:59.000Z</time>
      </trkpt>
      <trkpt lat="44.34904" lon="7.094">
        <ele>1438.8000488281</ele>
        <time>2024-09-13T14:52:00.000Z</time>
      </trkpt>
      <trkpt lat="44.34899" lon="7.09398">
        <ele>1438.5999755859</ele>
        <time>2024-09-13T14:52:01.000Z</time>
      </trkpt>
      <trkpt lat="44.34894" lon="7.09395">
        <ele>1438.1999511719</ele>
        <time>2024-09-13T14:52:02.000Z</time>
      </trkpt>
      <trkpt lat="44.34889" lon="7.09391">
        <ele>1437.5999755859</ele>
        <time>2024-09-13T14:52:03.000Z</time>
      </trkpt>
      <trkpt lat="44.34883" lon="7.09386">
        <ele>1436.1999511719</ele>
        <time>2024-09-13T14:52:04.000Z</time>
      </trkpt>
      <trkpt lat="44.34878" lon="7.09381">
        <ele>1434</ele>
        <time>2024-09-13T14:52:05.000Z</time>
      </trkpt>
      <trkpt lat="44.34875" lon="7.09379">
        <ele>1432.5999755859</ele>
        <time>2024-09-13T14:52:06.000Z</time>
      </trkpt>
      <trkpt lat="44.34873" lon="7.09376">
        <ele>1431.1999511719</ele>
        <time>2024-09-13T14:52:07.000Z</time>
      </trkpt>
      <trkpt lat="44.34874" lon="7.09372">
        <ele>1430.1999511719</ele>
        <time>2024-09-13T14:52:08.000Z</time>
      </trkpt>
      <trkpt lat="44.34877" lon="7.0937">
        <ele>1429.5999755859</ele>
        <time>2024-09-13T14:52:09.000Z</time>
      </trkpt>
      <trkpt lat="44.34881" lon="7.09368">
        <ele>1429</ele>
        <time>2024-09-13T14:52:10.000Z</time>
      </trkpt>
      <trkpt lat="44.34883" lon="7.09364">
        <ele>1427.4000244141</ele>
        <time>2024-09-13T14:52:11.000Z</time>
      </trkpt>
      <trkpt lat="44.34882" lon="7.0936">
        <ele>1426.1999511719</ele>
        <time>2024-09-13T14:52:12.000Z</time>
      </trkpt>
      <trkpt lat="44.34875" lon="7.09354">
        <ele>1424.5999755859</ele>
        <time>2024-09-13T14:52:14.000Z</time>
      </trkpt>
      <trkpt lat="44.34871" lon="7.09353">
        <ele>1424</ele>
        <time>2024-09-13T14:52:15.000Z</time>
      </trkpt>
      <trkpt lat="44.34866" lon="7.09355">
        <ele>1422.4000244141</ele>
        <time>2024-09-13T14:52:16.000Z</time>
      </trkpt>
      <trkpt lat="44.34861" lon="7.09358">
        <ele>1421.4000244141</ele>
        <time>2024-09-13T14:52:17.000Z</time>
      </trkpt>
      <trkpt lat="44.34857" lon="7.09364">
        <ele>1421.1999511719</ele>
        <time>2024-09-13T14:52:18.000Z</time>
      </trkpt>
      <trkpt lat="44.34851" lon="7.0937">
        <ele>1420.8000488281</ele>
        <time>2024-09-13T14:52:19.000Z</time>
      </trkpt>
      <trkpt lat="44.34844" lon="7.09373">
        <ele>1420.1999511719</ele>
        <time>2024-09-13T14:52:20.000Z</time>
      </trkpt>
      <trkpt lat="44.34838" lon="7.09373">
        <ele>1419.1999511719</ele>
        <time>2024-09-13T14:52:21.000Z</time>
      </trkpt>
      <trkpt lat="44.34832" lon="7.09377">
        <ele>1417.4000244141</ele>
        <time>2024-09-13T14:52:22.000Z</time>
      </trkpt>
      <trkpt lat="44.34821" lon="7.09383">
        <ele>1416.5999755859</ele>
        <time>2024-09-13T14:52:24.000Z</time>
      </trkpt>
      <trkpt lat="44.34817" lon="7.0939">
        <ele>1416.1999511719</ele>
        <time>2024-09-13T14:52:25.000Z</time>
      </trkpt>
      <trkpt lat="44.3481" lon="7.09392">
        <ele>1415.8000488281</ele>
        <time>2024-09-13T14:52:26.000Z</time>
      </trkpt>
      <trkpt lat="44.34805" lon="7.09388">
        <ele>1415.4000244141</ele>
        <time>2024-09-13T14:52:27.000Z</time>
      </trkpt>
      <trkpt lat="44.34801" lon="7.09386">
        <ele>1415</ele>
        <time>2024-09-13T14:52:28.000Z</time>
      </trkpt>
      <trkpt lat="44.34796" lon="7.09388">
        <ele>1414.8000488281</ele>
        <time>2024-09-13T14:52:29.000Z</time>
      </trkpt>
      <trkpt lat="44.34792" lon="7.09392">
        <ele>1413.5999755859</ele>
        <time>2024-09-13T14:52:30.000Z</time>
      </trkpt>
      <trkpt lat="44.34786" lon="7.09394">
        <ele>1412.5999755859</ele>
        <time>2024-09-13T14:52:31.000Z</time>
      </trkpt>
      <trkpt lat="44.3478" lon="7.09395">
        <ele>1412.4000244141</ele>
        <time>2024-09-13T14:52:32.000Z</time>
      </trkpt>
      <trkpt lat="44.34773" lon="7.09395">
        <ele>1412</ele>
        <time>2024-09-13T14:52:33.000Z</time>
      </trkpt>
      <trkpt lat="44.34765" lon="7.09394">
        <ele>1411.4000244141</ele>
        <time>2024-09-13T14:52:34.000Z</time>
      </trkpt>
      <trkpt lat="44.34757" lon="7.09392">
        <ele>1409.8000488281</ele>
        <time>2024-09-13T14:52:35.000Z</time>
      </trkpt>
      <trkpt lat="44.34735" lon="7.09391">
        <ele>1409.1999511719</ele>
        <time>2024-09-13T14:52:38.000Z</time>
      </trkpt>
      <trkpt lat="44.34731" lon="7.09386">
        <ele>1409.1999511719</ele>
        <time>2024-09-13T14:52:39.000Z</time>
      </trkpt>
      <trkpt lat="44.34729" lon="7.0938">
        <ele>1408.8000488281</ele>
        <time>2024-09-13T14:52:40.000Z</time>
      </trkpt>
      <trkpt lat="44.34727" lon="7.09372">
        <ele>1408.5999755859</ele>
        <time>2024-09-13T14:52:41.000Z</time>
      </trkpt>
      <trkpt lat="44.34724" lon="7.09364">
        <ele>1408.1999511719</ele>
        <time>2024-09-13T14:52:42.000Z</time>
      </trkpt>
      <trkpt lat="44.34721" lon="7.09357">
        <ele>1407.8000488281</ele>
        <time>2024-09-13T14:52:43.000Z</time>
      </trkpt>
      <trkpt lat="44.34716" lon="7.09354">
        <ele>1407.4000244141</ele>
        <time>2024-09-13T14:52:44.000Z</time>
      </trkpt>
      <trkpt lat="44.34711" lon="7.09356">
        <ele>1407.1999511719</ele>
        <time>2024-09-13T14:52:45.000Z</time>
      </trkpt>
      <trkpt lat="44.34705" lon="7.09355">
        <ele>1407</ele>
        <time>2024-09-13T14:52:46.000Z</time>
      </trkpt>
      <trkpt lat="44.34701" lon="7.09351">
        <ele>1406.8000488281</ele>
        <time>2024-09-13T14:52:47.000Z</time>
      </trkpt>
      <trkpt lat="44.34697" lon="7.09345">
        <ele>1406.8000488281</ele>
        <time>2024-09-13T14:52:48.000Z</time>
      </trkpt>
      <trkpt lat="44.34692" lon="7.0934">
        <ele>1406.4000244141</ele>
        <time>2024-09-13T14:52:49.000Z</time>
      </trkpt>
      <trkpt lat="44.34688" lon="7.09335">
        <ele>1406.1999511719</ele>
        <time>2024-09-13T14:52:50.000Z</time>
      </trkpt>
      <trkpt lat="44.34684" lon="7.09329">
        <ele>1404.4000244141</ele>
        <time>2024-09-13T14:52:51.000Z</time>
      </trkpt>
      <trkpt lat="44.34683" lon="7.09323">
        <ele>1403.4000244141</ele>
        <time>2024-09-13T14:52:52.000Z</time>
      </trkpt>
      <trkpt lat="44.3468" lon="7.09321">
        <ele>1402.1999511719</ele>
        <time>2024-09-13T14:52:53.000Z</time>
      </trkpt>
      <trkpt lat="44.34677" lon="7.09323">
        <ele>1401.5999755859</ele>
        <time>2024-09-13T14:52:54.000Z</time>
      </trkpt>
      <trkpt lat="44.34673" lon="7.09326">
        <ele>1401.1999511719</ele>
        <time>2024-09-13T14:52:55.000Z</time>
      </trkpt>
      <trkpt lat="44.34662" lon="7.09335">
        <ele>1397.8000488281</ele>
        <time>2024-09-13T14:52:57.000Z</time>
      </trkpt>
      <trkpt lat="44.34655" lon="7.09336">
        <ele>1397</ele>
        <time>2024-09-13T14:52:58.000Z</time>
      </trkpt>
      <trkpt lat="44.3465" lon="7.09335">
        <ele>1395</ele>
        <time>2024-09-13T14:52:59.000Z</time>
      </trkpt>
      <trkpt lat="44.34645" lon="7.09332">
        <ele>1394.4000244141</ele>
        <time>2024-09-13T14:53:00.000Z</time>
      </trkpt>
      <trkpt lat="44.34641" lon="7.09328">
        <ele>1393.8000488281</ele>
        <time>2024-09-13T14:53:01.000Z</time>
      </trkpt>
      <trkpt lat="44.34641" lon="7.09325">
        <ele>1392.8000488281</ele>
        <time>2024-09-13T14:53:02.000Z</time>
      </trkpt>
      <trkpt lat="44.34644" lon="7.09324">
        <ele>1391</ele>
        <time>2024-09-13T14:53:03.000Z</time>
      </trkpt>
      <trkpt lat="44.34648" lon="7.09321">
        <ele>1390</ele>
        <time>2024-09-13T14:53:04.000Z</time>
      </trkpt>
      <trkpt lat="44.34653" lon="7.09317">
        <ele>1389.4000244141</ele>
        <time>2024-09-13T14:53:05.000Z</time>
      </trkpt>
      <trkpt lat="44.34658" lon="7.09313">
        <ele>1387.8000488281</ele>
        <time>2024-09-13T14:53:06.000Z</time>
      </trkpt>
      <trkpt lat="44.34664" lon="7.09306">
        <ele>1386</ele>
        <time>2024-09-13T14:53:07.000Z</time>
      </trkpt>
      <trkpt lat="44.34668" lon="7.093">
        <ele>1384.8000488281</ele>
        <time>2024-09-13T14:53:08.000Z</time>
      </trkpt>
      <trkpt lat="44.34672" lon="7.09295">
        <ele>1384</ele>
        <time>2024-09-13T14:53:09.000Z</time>
      </trkpt>
      <trkpt lat="44.34673" lon="7.0929">
        <ele>1382.8000488281</ele>
        <time>2024-09-13T14:53:10.000Z</time>
      </trkpt>
      <trkpt lat="44.34672" lon="7.0929">
        <ele>1382.5999755859</ele>
        <time>2024-09-13T14:53:11.000Z</time>
      </trkpt>
      <trkpt lat="44.34668" lon="7.0929">
        <ele>1381.8000488281</ele>
        <time>2024-09-13T14:53:12.000Z</time>
      </trkpt>
      <trkpt lat="44.34657" lon="7.09292">
        <ele>1381</ele>
        <time>2024-09-13T14:53:14.000Z</time>
      </trkpt>
      <trkpt lat="44.3465" lon="7.09289">
        <ele>1379.4000244141</ele>
        <time>2024-09-13T14:53:15.000Z</time>
      </trkpt>
      <trkpt lat="44.34643" lon="7.09285">
        <ele>1377.4000244141</ele>
        <time>2024-09-13T14:53:16.000Z</time>
      </trkpt>
      <trkpt lat="44.34636" lon="7.09281">
        <ele>1376.1999511719</ele>
        <time>2024-09-13T14:53:17.000Z</time>
      </trkpt>
      <trkpt lat="44.34629" lon="7.09278">
        <ele>1375.4000244141</ele>
        <time>2024-09-13T14:53:18.000Z</time>
      </trkpt>
      <trkpt lat="44.34622" lon="7.09279">
        <ele>1374.5999755859</ele>
        <time>2024-09-13T14:53:19.000Z</time>
      </trkpt>
      <trkpt lat="44.34617" lon="7.09283">
        <ele>1374</ele>
        <time>2024-09-13T14:53:20.000Z</time>
      </trkpt>
      <trkpt lat="44.34612" lon="7.09286">
        <ele>1373.1999511719</ele>
        <time>2024-09-13T14:53:21.000Z</time>
      </trkpt>
      <trkpt lat="44.34607" lon="7.09291">
        <ele>1371.8000488281</ele>
        <time>2024-09-13T14:53:22.000Z</time>
      </trkpt>
      <trkpt lat="44.34603" lon="7.09294">
        <ele>1371.5999755859</ele>
        <time>2024-09-13T14:53:23.000Z</time>
      </trkpt>
      <trkpt lat="44.34601" lon="7.09291">
        <ele>1370.4000244141</ele>
        <time>2024-09-13T14:53:24.000Z</time>
      </trkpt>
      <trkpt lat="44.34601" lon="7.09286">
        <ele>1369.8000488281</ele>
        <time>2024-09-13T14:53:25.000Z</time>
      </trkpt>
      <trkpt lat="44.346" lon="7.09276">
        <ele>1368.4000244141</ele>
        <time>2024-09-13T14:53:27.000Z</time>
      </trkpt>
      <trkpt lat="44.346" lon="7.09269">
        <ele>1366.8000488281</ele>
        <time>2024-09-13T14:53:28.000Z</time>
      </trkpt>
      <trkpt lat="44.34602" lon="7.09261">
        <ele>1365.1999511719</ele>
        <time>2024-09-13T14:53:29.000Z</time>
      </trkpt>
      <trkpt lat="44.34602" lon="7.09254">
        <ele>1363.4000244141</ele>
        <time>2024-09-13T14:53:30.000Z</time>
      </trkpt>
      <trkpt lat="44.34603" lon="7.09248">
        <ele>1361.1999511719</ele>
        <time>2024-09-13T14:53:31.000Z</time>
      </trkpt>
      <trkpt lat="44.34602" lon="7.09245">
        <ele>1361.1999511719</ele>
        <time>2024-09-13T14:53:32.000Z</time>
      </trkpt>
      <trkpt lat="44.346" lon="7.09246">
        <ele>1360.8000488281</ele>
        <time>2024-09-13T14:53:33.000Z</time>
      </trkpt>
      <trkpt lat="44.34598" lon="7.09247">
        <ele>1360.5999755859</ele>
        <time>2024-09-13T14:53:34.000Z</time>
      </trkpt>
      <trkpt lat="44.34596" lon="7.09248">
        <ele>1360</ele>
        <time>2024-09-13T14:53:35.000Z</time>
      </trkpt>
      <trkpt lat="44.34593" lon="7.09246">
        <ele>1359.5999755859</ele>
        <time>2024-09-13T14:53:36.000Z</time>
      </trkpt>
      <trkpt lat="44.34592" lon="7.09244">
        <ele>1358.5999755859</ele>
        <time>2024-09-13T14:53:37.000Z</time>
      </trkpt>
      <trkpt lat="44.3459" lon="7.09234">
        <ele>1357.4000244141</ele>
        <time>2024-09-13T14:53:39.000Z</time>
      </trkpt>
      <trkpt lat="44.34589" lon="7.09228">
        <ele>1357</ele>
        <time>2024-09-13T14:53:40.000Z</time>
      </trkpt>
      <trkpt lat="44.34587" lon="7.09221">
        <ele>1356.4000244141</ele>
        <time>2024-09-13T14:53:41.000Z</time>
      </trkpt>
      <trkpt lat="44.34585" lon="7.09215">
        <ele>1356.1999511719</ele>
        <time>2024-09-13T14:53:42.000Z</time>
      </trkpt>
      <trkpt lat="44.34585" lon="7.09206">
        <ele>1355.5999755859</ele>
        <time>2024-09-13T14:53:43.000Z</time>
      </trkpt>
      <trkpt lat="44.34585" lon="7.09196">
        <ele>1355.1999511719</ele>
        <time>2024-09-13T14:53:44.000Z</time>
      </trkpt>
      <trkpt lat="44.34584" lon="7.09186">
        <ele>1354.1999511719</ele>
        <time>2024-09-13T14:53:45.000Z</time>
      </trkpt>
      <trkpt lat="44.34582" lon="7.09177">
        <ele>1352.1999511719</ele>
        <time>2024-09-13T14:53:46.000Z</time>
      </trkpt>
      <trkpt lat="44.34582" lon="7.09168">
        <ele>1349.5999755859</ele>
        <time>2024-09-13T14:53:47.000Z</time>
      </trkpt>
      <trkpt lat="44.34581" lon="7.09159">
        <ele>1349.4000244141</ele>
        <time>2024-09-13T14:53:48.000Z</time>
      </trkpt>
      <trkpt lat="44.34579" lon="7.09152">
        <ele>1348.5999755859</ele>
        <time>2024-09-13T14:53:49.000Z</time>
      </trkpt>
      <trkpt lat="44.34579" lon="7.09146">
        <ele>1348.1999511719</ele>
        <time>2024-09-13T14:53:50.000Z</time>
      </trkpt>
      <trkpt lat="44.34578" lon="7.09139">
        <ele>1347.8000488281</ele>
        <time>2024-09-13T14:53:51.000Z</time>
      </trkpt>
      <trkpt lat="44.34578" lon="7.09132">
        <ele>1346.4000244141</ele>
        <time>2024-09-13T14:53:52.000Z</time>
      </trkpt>
      <trkpt lat="44.34577" lon="7.09124">
        <ele>1344.8000488281</ele>
        <time>2024-09-13T14:53:53.000Z</time>
      </trkpt>
      <trkpt lat="44.34574" lon="7.09116">
        <ele>1342.4000244141</ele>
        <time>2024-09-13T14:53:54.000Z</time>
      </trkpt>
      <trkpt lat="44.34571" lon="7.09109">
        <ele>1340</ele>
        <time>2024-09-13T14:53:55.000Z</time>
      </trkpt>
      <trkpt lat="44.34568" lon="7.09102">
        <ele>1338.8000488281</ele>
        <time>2024-09-13T14:53:56.000Z</time>
      </trkpt>
      <trkpt lat="44.34564" lon="7.09094">
        <ele>1337.5999755859</ele>
        <time>2024-09-13T14:53:57.000Z</time>
      </trkpt>
      <trkpt lat="44.34559" lon="7.09086">
        <ele>1336.4000244141</ele>
        <time>2024-09-13T14:53:58.000Z</time>
      </trkpt>
      <trkpt lat="44.34553" lon="7.09078">
        <ele>1334.1999511719</ele>
        <time>2024-09-13T14:53:59.000Z</time>
      </trkpt>
      <trkpt lat="44.34547" lon="7.09073">
        <ele>1332.4000244141</ele>
        <time>2024-09-13T14:54:00.000Z</time>
      </trkpt>
      <trkpt lat="44.34542" lon="7.0907">
        <ele>1331.8000488281</ele>
        <time>2024-09-13T14:54:01.000Z</time>
      </trkpt>
      <trkpt lat="44.34537" lon="7.09069">
        <ele>1331.8000488281</ele>
        <time>2024-09-13T14:54:02.000Z</time>
      </trkpt>
      <trkpt lat="44.34532" lon="7.09067">
        <ele>1331.5999755859</ele>
        <time>2024-09-13T14:54:03.000Z</time>
      </trkpt>
      <trkpt lat="44.34528" lon="7.09063">
        <ele>1331.5999755859</ele>
        <time>2024-09-13T14:54:04.000Z</time>
      </trkpt>
      <trkpt lat="44.34523" lon="7.09058">
        <ele>1331.1999511719</ele>
        <time>2024-09-13T14:54:05.000Z</time>
      </trkpt>
      <trkpt lat="44.34518" lon="7.09053">
        <ele>1330.5999755859</ele>
        <time>2024-09-13T14:54:06.000Z</time>
      </trkpt>
      <trkpt lat="44.34513" lon="7.09049">
        <ele>1329.4000244141</ele>
        <time>2024-09-13T14:54:07.000Z</time>
      </trkpt>
      <trkpt lat="44.3451" lon="7.09045">
        <ele>1328.5999755859</ele>
        <time>2024-09-13T14:54:08.000Z</time>
      </trkpt>
      <trkpt lat="44.34507" lon="7.09044">
        <ele>1328.5999755859</ele>
        <time>2024-09-13T14:54:09.000Z</time>
      </trkpt>
      <trkpt lat="44.34507" lon="7.09044">
        <ele>1328.5999755859</ele>
        <time>2024-09-13T14:54:10.000Z</time>
      </trkpt>
      <trkpt lat="44.34507" lon="7.09046">
        <ele>1328.8000488281</ele>
        <time>2024-09-13T14:54:12.000Z</time>
      </trkpt>
      <trkpt lat="44.34507" lon="7.09047">
        <ele>1328.8000488281</ele>
        <time>2024-09-13T14:54:13.000Z</time>
      </trkpt>
      <trkpt lat="44.34504" lon="7.09043">
        <ele>1328.8000488281</ele>
        <time>2024-09-13T14:54:16.000Z</time>
      </trkpt>
      <trkpt lat="44.34498" lon="7.09034">
        <ele>1328.1999511719</ele>
        <time>2024-09-13T14:54:19.000Z</time>
      </trkpt>
      <trkpt lat="44.34494" lon="7.09027">
        <ele>1327.1999511719</ele>
        <time>2024-09-13T14:54:21.000Z</time>
      </trkpt>
      <trkpt lat="44.34485" lon="7.09012">
        <ele>1326.1999511719</ele>
        <time>2024-09-13T14:54:24.000Z</time>
      </trkpt>
      <trkpt lat="44.34483" lon="7.09006">
        <ele>1325.8000488281</ele>
        <time>2024-09-13T14:54:25.000Z</time>
      </trkpt>
      <trkpt lat="44.34479" lon="7.09">
        <ele>1325</ele>
        <time>2024-09-13T14:54:26.000Z</time>
      </trkpt>
      <trkpt lat="44.34477" lon="7.08992">
        <ele>1324</ele>
        <time>2024-09-13T14:54:27.000Z</time>
      </trkpt>
      <trkpt lat="44.34474" lon="7.08984">
        <ele>1323.1999511719</ele>
        <time>2024-09-13T14:54:28.000Z</time>
      </trkpt>
      <trkpt lat="44.3447" lon="7.08978">
        <ele>1322.5999755859</ele>
        <time>2024-09-13T14:54:29.000Z</time>
      </trkpt>
      <trkpt lat="44.34465" lon="7.08971">
        <ele>1321.4000244141</ele>
        <time>2024-09-13T14:54:30.000Z</time>
      </trkpt>
      <trkpt lat="44.34461" lon="7.08964">
        <ele>1320.4000244141</ele>
        <time>2024-09-13T14:54:31.000Z</time>
      </trkpt>
      <trkpt lat="44.34455" lon="7.0896">
        <ele>1319.8000488281</ele>
        <time>2024-09-13T14:54:32.000Z</time>
      </trkpt>
      <trkpt lat="44.34449" lon="7.08956">
        <ele>1319.4000244141</ele>
        <time>2024-09-13T14:54:33.000Z</time>
      </trkpt>
      <trkpt lat="44.34443" lon="7.08953">
        <ele>1318.5999755859</ele>
        <time>2024-09-13T14:54:34.000Z</time>
      </trkpt>
      <trkpt lat="44.34436" lon="7.0895">
        <ele>1317.4000244141</ele>
        <time>2024-09-13T14:54:35.000Z</time>
      </trkpt>
      <trkpt lat="44.34431" lon="7.08946">
        <ele>1316.8000488281</ele>
        <time>2024-09-13T14:54:36.000Z</time>
      </trkpt>
      <trkpt lat="44.34418" lon="7.08935">
        <ele>1316.1999511719</ele>
        <time>2024-09-13T14:54:38.000Z</time>
      </trkpt>
      <trkpt lat="44.34406" lon="7.08923">
        <ele>1313.5999755859</ele>
        <time>2024-09-13T14:54:40.000Z</time>
      </trkpt>
      <trkpt lat="44.344" lon="7.08918">
        <ele>1312.1999511719</ele>
        <time>2024-09-13T14:54:41.000Z</time>
      </trkpt>
      <trkpt lat="44.34393" lon="7.08913">
        <ele>1311.5999755859</ele>
        <time>2024-09-13T14:54:42.000Z</time>
      </trkpt>
      <trkpt lat="44.34385" lon="7.08911">
        <ele>1311</ele>
        <time>2024-09-13T14:54:43.000Z</time>
      </trkpt>
      <trkpt lat="44.34378" lon="7.08911">
        <ele>1310.8000488281</ele>
        <time>2024-09-13T14:54:44.000Z</time>
      </trkpt>
      <trkpt lat="44.34372" lon="7.08909">
        <ele>1310.5999755859</ele>
        <time>2024-09-13T14:54:45.000Z</time>
      </trkpt>
      <trkpt lat="44.34367" lon="7.08906">
        <ele>1310.5999755859</ele>
        <time>2024-09-13T14:54:46.000Z</time>
      </trkpt>
      <trkpt lat="44.34363" lon="7.08902">
        <ele>1310.5999755859</ele>
        <time>2024-09-13T14:54:47.000Z</time>
      </trkpt>
      <trkpt lat="44.3436" lon="7.089">
        <ele>1310.5999755859</ele>
        <time>2024-09-13T14:54:48.000Z</time>
      </trkpt>
      <trkpt lat="44.34357" lon="7.08899">
        <ele>1310.8000488281</ele>
        <time>2024-09-13T14:54:49.000Z</time>
      </trkpt>
      <trkpt lat="44.34355" lon="7.08897">
        <ele>1310.8000488281</ele>
        <time>2024-09-13T14:54:50.000Z</time>
      </trkpt>
      <trkpt lat="44.34353" lon="7.08896">
        <ele>1310.8000488281</ele>
        <time>2024-09-13T14:54:51.000Z</time>
      </trkpt>
      <trkpt lat="44.3435" lon="7.08895">
        <ele>1310.5999755859</ele>
        <time>2024-09-13T14:54:52.000Z</time>
      </trkpt>
      <trkpt lat="44.34349" lon="7.08895">
        <ele>1310.5999755859</ele>
        <time>2024-09-13T14:54:53.000Z</time>
      </trkpt>
      <trkpt lat="44.34346" lon="7.08896">
        <ele>1310.5999755859</ele>
        <time>2024-09-13T14:54:54.000Z</time>
      </trkpt>
      <trkpt lat="44.34344" lon="7.08896">
        <ele>1310.5999755859</ele>
        <time>2024-09-13T14:54:55.000Z</time>
      </trkpt>
      <trkpt lat="44.34343" lon="7.08897">
        <ele>1310.5999755859</ele>
        <time>2024-09-13T14:54:56.000Z</time>
      </trkpt>
      <trkpt lat="44.34341" lon="7.08897">
        <ele>1310.8000488281</ele>
        <time>2024-09-13T14:54:57.000Z</time>
      </trkpt>
      <trkpt lat="44.34339" lon="7.08898">
        <ele>1311.1999511719</ele>
        <time>2024-09-13T14:54:58.000Z</time>
      </trkpt>
      <trkpt lat="44.34338" lon="7.08897">
        <ele>1311.1999511719</ele>
        <time>2024-09-13T14:54:59.000Z</time>
      </trkpt>
      <trkpt lat="44.34338" lon="7.08896">
        <ele>1311.4000244141</ele>
        <time>2024-09-13T14:55:00.000Z</time>
      </trkpt>
      <trkpt lat="44.34338" lon="7.08895">
        <ele>1311.4000244141</ele>
        <time>2024-09-13T14:55:01.000Z</time>
      </trkpt>
      <trkpt lat="44.34338" lon="7.08891">
        <ele>1311.4000244141</ele>
        <time>2024-09-13T14:55:06.000Z</time>
      </trkpt>
      <trkpt lat="44.34338" lon="7.08891">
        <ele>1311.5999755859</ele>
        <time>2024-09-13T14:55:12.000Z</time>
      </trkpt>
      <trkpt lat="44.3434" lon="7.08896">
        <ele>1311.5999755859</ele>
        <time>2024-09-13T14:55:13.000Z</time>
      </trkpt>
      <trkpt lat="44.3434" lon="7.08897">
        <ele>1311.5999755859</ele>
        <time>2024-09-13T14:55:14.000Z</time>
      </trkpt>
      <trkpt lat="44.3434" lon="7.08897">
        <ele>1311.5999755859</ele>
        <time>2024-09-13T14:55:15.000Z</time>
      </trkpt>
      <trkpt lat="44.34339" lon="7.08897">
        <ele>1311.5999755859</ele>
        <time>2024-09-13T14:55:20.000Z</time>
      </trkpt>
      <trkpt lat="44.34338" lon="7.08897">
        <ele>1311.5999755859</ele>
        <time>2024-09-13T14:55:28.000Z</time>
      </trkpt>
      <trkpt lat="44.34338" lon="7.08896">
        <ele>1311.5999755859</ele>
        <time>2024-09-13T14:55:31.000Z</time>
      </trkpt>
      <trkpt lat="44.34335" lon="7.08893">
        <ele>1311.5999755859</ele>
        <time>2024-09-13T14:55:38.000Z</time>
      </trkpt>
      <trkpt lat="44.34334" lon="7.08893">
        <ele>1311.5999755859</ele>
        <time>2024-09-13T14:55:40.000Z</time>
      </trkpt>
      <trkpt lat="44.34334" lon="7.08892">
        <ele>1311.5999755859</ele>
        <time>2024-09-13T14:55:41.000Z</time>
      </trkpt>
      <trkpt lat="44.34338" lon="7.08889">
        <ele>1311.5999755859</ele>
        <time>2024-09-13T14:55:45.000Z</time>
      </trkpt>
      <trkpt lat="44.3434" lon="7.08888">
        <ele>1311.5999755859</ele>
        <time>2024-09-13T14:55:47.000Z</time>
      </trkpt>
      <trkpt lat="44.3434" lon="7.08888">
        <ele>1311.5999755859</ele>
        <time>2024-09-13T14:55:48.000Z</time>
      </trkpt>
      <trkpt lat="44.3434" lon="7.08889">
        <ele>1311.5999755859</ele>
        <time>2024-09-13T14:55:49.000Z</time>
      </trkpt>
      <trkpt lat="44.34341" lon="7.08889">
        <ele>1311.5999755859</ele>
        <time>2024-09-13T14:55:50.000Z</time>
      </trkpt>
      <trkpt lat="44.34341" lon="7.08889">
        <ele>1311.5999755859</ele>
        <time>2024-09-13T14:55:51.000Z</time>
      </trkpt>
      <trkpt lat="44.34338" lon="7.08892">
        <ele>1311.5999755859</ele>
        <time>2024-09-13T14:55:58.000Z</time>
      </trkpt>
      <trkpt lat="44.34339" lon="7.08891">
        <ele>1311.5999755859</ele>
        <time>2024-09-13T14:56:00.000Z</time>
      </trkpt>
      <trkpt lat="44.34339" lon="7.08891">
        <ele>1311.5999755859</ele>
        <time>2024-09-13T14:56:01.000Z</time>
      </trkpt>
      <trkpt lat="44.34339" lon="7.08891">
        <ele>1311.5999755859</ele>
        <time>2024-09-13T14:56:02.000Z</time>
      </trkpt>
      <trkpt lat="44.34343" lon="7.08891">
        <ele>1311.5999755859</ele>
        <time>2024-09-13T14:56:07.000Z</time>
      </trkpt>
      <trkpt lat="44.34343" lon="7.08891">
        <ele>1311.5999755859</ele>
        <time>2024-09-13T14:56:08.000Z</time>
      </trkpt>
      <trkpt lat="44.34345" lon="7.08895">
        <ele>1311.5999755859</ele>
        <time>2024-09-13T14:56:10.000Z</time>
      </trkpt>
      <trkpt lat="44.34347" lon="7.08897">
        <ele>1311.5999755859</ele>
        <time>2024-09-13T14:56:18.000Z</time>
      </trkpt>
      <trkpt lat="44.34345" lon="7.08895">
        <ele>1311.5999755859</ele>
        <time>2024-09-13T14:56:34.000Z</time>
      </trkpt>
      <trkpt lat="44.34339" lon="7.08887">
        <ele>1311.5999755859</ele>
        <time>2024-09-13T14:56:46.000Z</time>
      </trkpt>
      <trkpt lat="44.34333" lon="7.08874">
        <ele>1310.8000488281</ele>
        <time>2024-09-13T14:56:52.000Z</time>
      </trkpt>
      <trkpt lat="44.3433" lon="7.08868">
        <ele>1310</ele>
        <time>2024-09-13T14:56:55.000Z</time>
      </trkpt>
      <trkpt lat="44.34326" lon="7.08858">
        <ele>1308.4000244141</ele>
        <time>2024-09-13T14:56:58.000Z</time>
      </trkpt>
      <trkpt lat="44.34325" lon="7.08855">
        <ele>1307.5999755859</ele>
        <time>2024-09-13T14:56:59.000Z</time>
      </trkpt>
      <trkpt lat="44.34326" lon="7.0885">
        <ele>1307</ele>
        <time>2024-09-13T14:57:00.000Z</time>
      </trkpt>
      <trkpt lat="44.34327" lon="7.08846">
        <ele>1306.5999755859</ele>
        <time>2024-09-13T14:57:01.000Z</time>
      </trkpt>
      <trkpt lat="44.34328" lon="7.0884">
        <ele>1306.1999511719</ele>
        <time>2024-09-13T14:57:02.000Z</time>
      </trkpt>
      <trkpt lat="44.34328" lon="7.08833">
        <ele>1304.1999511719</ele>
        <time>2024-09-13T14:57:03.000Z</time>
      </trkpt>
      <trkpt lat="44.34326" lon="7.08827">
        <ele>1303.1999511719</ele>
        <time>2024-09-13T14:57:04.000Z</time>
      </trkpt>
      <trkpt lat="44.34323" lon="7.0882">
        <ele>1301.5999755859</ele>
        <time>2024-09-13T14:57:05.000Z</time>
      </trkpt>
      <trkpt lat="44.34321" lon="7.08813">
        <ele>1299.5999755859</ele>
        <time>2024-09-13T14:57:06.000Z</time>
      </trkpt>
      <trkpt lat="44.34318" lon="7.08806">
        <ele>1297.4000244141</ele>
        <time>2024-09-13T14:57:07.000Z</time>
      </trkpt>
      <trkpt lat="44.34315" lon="7.08802">
        <ele>1296.4000244141</ele>
        <time>2024-09-13T14:57:08.000Z</time>
      </trkpt>
      <trkpt lat="44.34311" lon="7.08796">
        <ele>1295</ele>
        <time>2024-09-13T14:57:09.000Z</time>
      </trkpt>
      <trkpt lat="44.34307" lon="7.08792">
        <ele>1293</ele>
        <time>2024-09-13T14:57:10.000Z</time>
      </trkpt>
      <trkpt lat="44.34303" lon="7.08788">
        <ele>1291.4000244141</ele>
        <time>2024-09-13T14:57:11.000Z</time>
      </trkpt>
      <trkpt lat="44.343" lon="7.08783">
        <ele>1290</ele>
        <time>2024-09-13T14:57:12.000Z</time>
      </trkpt>
      <trkpt lat="44.34299" lon="7.08778">
        <ele>1289</ele>
        <time>2024-09-13T14:57:13.000Z</time>
      </trkpt>
      <trkpt lat="44.34298" lon="7.08771">
        <ele>1287.5999755859</ele>
        <time>2024-09-13T14:57:14.000Z</time>
      </trkpt>
      <trkpt lat="44.34297" lon="7.08765">
        <ele>1286</ele>
        <time>2024-09-13T14:57:15.000Z</time>
      </trkpt>
      <trkpt lat="44.34296" lon="7.08759">
        <ele>1284</ele>
        <time>2024-09-13T14:57:16.000Z</time>
      </trkpt>
      <trkpt lat="44.34293" lon="7.08753">
        <ele>1281.8000488281</ele>
        <time>2024-09-13T14:57:17.000Z</time>
      </trkpt>
      <trkpt lat="44.34291" lon="7.08745">
        <ele>1280.5999755859</ele>
        <time>2024-09-13T14:57:18.000Z</time>
      </trkpt>
      <trkpt lat="44.34289" lon="7.0874">
        <ele>1280</ele>
        <time>2024-09-13T14:57:19.000Z</time>
      </trkpt>
      <trkpt lat="44.34286" lon="7.08736">
        <ele>1278.4000244141</ele>
        <time>2024-09-13T14:57:20.000Z</time>
      </trkpt>
      <trkpt lat="44.34283" lon="7.08731">
        <ele>1277.4000244141</ele>
        <time>2024-09-13T14:57:21.000Z</time>
      </trkpt>
      <trkpt lat="44.3428" lon="7.08726">
        <ele>1277.1999511719</ele>
        <time>2024-09-13T14:57:22.000Z</time>
      </trkpt>
      <trkpt lat="44.34274" lon="7.08722">
        <ele>1276.4000244141</ele>
        <time>2024-09-13T14:57:23.000Z</time>
      </trkpt>
      <trkpt lat="44.3427" lon="7.08719">
        <ele>1275.4000244141</ele>
        <time>2024-09-13T14:57:24.000Z</time>
      </trkpt>
      <trkpt lat="44.34259" lon="7.08711">
        <ele>1273.1999511719</ele>
        <time>2024-09-13T14:57:26.000Z</time>
      </trkpt>
      <trkpt lat="44.34253" lon="7.0871">
        <ele>1271.8000488281</ele>
        <time>2024-09-13T14:57:27.000Z</time>
      </trkpt>
      <trkpt lat="44.34247" lon="7.0871">
        <ele>1271.8000488281</ele>
        <time>2024-09-13T14:57:28.000Z</time>
      </trkpt>
      <trkpt lat="44.34243" lon="7.0871">
        <ele>1271.8000488281</ele>
        <time>2024-09-13T14:57:29.000Z</time>
      </trkpt>
      <trkpt lat="44.34238" lon="7.08711">
        <ele>1271.5999755859</ele>
        <time>2024-09-13T14:57:30.000Z</time>
      </trkpt>
      <trkpt lat="44.34233" lon="7.08711">
        <ele>1271.1999511719</ele>
        <time>2024-09-13T14:57:31.000Z</time>
      </trkpt>
      <trkpt lat="44.34228" lon="7.0871">
        <ele>1271</ele>
        <time>2024-09-13T14:57:32.000Z</time>
      </trkpt>
      <trkpt lat="44.34222" lon="7.08707">
        <ele>1270.8000488281</ele>
        <time>2024-09-13T14:57:33.000Z</time>
      </trkpt>
      <trkpt lat="44.34216" lon="7.08707">
        <ele>1270.1999511719</ele>
        <time>2024-09-13T14:57:34.000Z</time>
      </trkpt>
      <trkpt lat="44.34211" lon="7.08708">
        <ele>1268.5999755859</ele>
        <time>2024-09-13T14:57:35.000Z</time>
      </trkpt>
      <trkpt lat="44.34205" lon="7.08711">
        <ele>1268.5999755859</ele>
        <time>2024-09-13T14:57:36.000Z</time>
      </trkpt>
      <trkpt lat="44.34199" lon="7.0871">
        <ele>1268.5999755859</ele>
        <time>2024-09-13T14:57:37.000Z</time>
      </trkpt>
      <trkpt lat="44.34195" lon="7.0871">
        <ele>1268.4000244141</ele>
        <time>2024-09-13T14:57:38.000Z</time>
      </trkpt>
      <trkpt lat="44.34191" lon="7.0871">
        <ele>1268.1999511719</ele>
        <time>2024-09-13T14:57:39.000Z</time>
      </trkpt>
      <trkpt lat="44.34188" lon="7.08706">
        <ele>1268.1999511719</ele>
        <time>2024-09-13T14:57:40.000Z</time>
      </trkpt>
      <trkpt lat="44.34184" lon="7.08703">
        <ele>1268.1999511719</ele>
        <time>2024-09-13T14:57:41.000Z</time>
      </trkpt>
      <trkpt lat="44.3418" lon="7.087">
        <ele>1268</ele>
        <time>2024-09-13T14:57:42.000Z</time>
      </trkpt>
      <trkpt lat="44.34174" lon="7.08699">
        <ele>1267.1999511719</ele>
        <time>2024-09-13T14:57:43.000Z</time>
      </trkpt>
      <trkpt lat="44.34168" lon="7.08697">
        <ele>1264.8000488281</ele>
        <time>2024-09-13T14:57:44.000Z</time>
      </trkpt>
      <trkpt lat="44.34163" lon="7.08695">
        <ele>1263.5999755859</ele>
        <time>2024-09-13T14:57:45.000Z</time>
      </trkpt>
      <trkpt lat="44.34159" lon="7.08692">
        <ele>1262</ele>
        <time>2024-09-13T14:57:46.000Z</time>
      </trkpt>
      <trkpt lat="44.34155" lon="7.08693">
        <ele>1260.8000488281</ele>
        <time>2024-09-13T14:57:47.000Z</time>
      </trkpt>
      <trkpt lat="44.3415" lon="7.0869">
        <ele>1260.1999511719</ele>
        <time>2024-09-13T14:57:48.000Z</time>
      </trkpt>
      <trkpt lat="44.34147" lon="7.08685">
        <ele>1260</ele>
        <time>2024-09-13T14:57:49.000Z</time>
      </trkpt>
      <trkpt lat="44.34142" lon="7.08679">
        <ele>1259</ele>
        <time>2024-09-13T14:57:50.000Z</time>
      </trkpt>
      <trkpt lat="44.34138" lon="7.08673">
        <ele>1258.1999511719</ele>
        <time>2024-09-13T14:57:51.000Z</time>
      </trkpt>
      <trkpt lat="44.34133" lon="7.08668">
        <ele>1256.8000488281</ele>
        <time>2024-09-13T14:57:52.000Z</time>
      </trkpt>
      <trkpt lat="44.34128" lon="7.08665">
        <ele>1255</ele>
        <time>2024-09-13T14:57:53.000Z</time>
      </trkpt>
      <trkpt lat="44.34127" lon="7.0866">
        <ele>1254.8000488281</ele>
        <time>2024-09-13T14:57:54.000Z</time>
      </trkpt>
      <trkpt lat="44.34128" lon="7.0866">
        <ele>1254.5999755859</ele>
        <time>2024-09-13T14:57:55.000Z</time>
      </trkpt>
      <trkpt lat="44.34131" lon="7.08661">
        <ele>1254.4000244141</ele>
        <time>2024-09-13T14:57:56.000Z</time>
      </trkpt>
      <trkpt lat="44.34142" lon="7.08665">
        <ele>1253.4000244141</ele>
        <time>2024-09-13T14:57:58.000Z</time>
      </trkpt>
      <trkpt lat="44.34147" lon="7.08668">
        <ele>1252</ele>
        <time>2024-09-13T14:57:59.000Z</time>
      </trkpt>
      <trkpt lat="44.34153" lon="7.08672">
        <ele>1250.8000488281</ele>
        <time>2024-09-13T14:58:00.000Z</time>
      </trkpt>
      <trkpt lat="44.34159" lon="7.0867">
        <ele>1249</ele>
        <time>2024-09-13T14:58:01.000Z</time>
      </trkpt>
      <trkpt lat="44.34165" lon="7.08669">
        <ele>1247</ele>
        <time>2024-09-13T14:58:02.000Z</time>
      </trkpt>
      <trkpt lat="44.3417" lon="7.08669">
        <ele>1245.8000488281</ele>
        <time>2024-09-13T14:58:03.000Z</time>
      </trkpt>
      <trkpt lat="44.34173" lon="7.08667">
        <ele>1245.1999511719</ele>
        <time>2024-09-13T14:58:04.000Z</time>
      </trkpt>
      <trkpt lat="44.34173" lon="7.08663">
        <ele>1245</ele>
        <time>2024-09-13T14:58:05.000Z</time>
      </trkpt>
      <trkpt lat="44.3417" lon="7.08661">
        <ele>1244.1999511719</ele>
        <time>2024-09-13T14:58:06.000Z</time>
      </trkpt>
      <trkpt lat="44.34166" lon="7.08659">
        <ele>1243.8000488281</ele>
        <time>2024-09-13T14:58:07.000Z</time>
      </trkpt>
      <trkpt lat="44.34162" lon="7.08656">
        <ele>1243.1999511719</ele>
        <time>2024-09-13T14:58:08.000Z</time>
      </trkpt>
      <trkpt lat="44.34157" lon="7.08652">
        <ele>1241.8000488281</ele>
        <time>2024-09-13T14:58:09.000Z</time>
      </trkpt>
      <trkpt lat="44.34153" lon="7.08647">
        <ele>1241.4000244141</ele>
        <time>2024-09-13T14:58:10.000Z</time>
      </trkpt>
      <trkpt lat="44.34152" lon="7.0864">
        <ele>1240</ele>
        <time>2024-09-13T14:58:11.000Z</time>
      </trkpt>
      <trkpt lat="44.34153" lon="7.08633">
        <ele>1238</ele>
        <time>2024-09-13T14:58:12.000Z</time>
      </trkpt>
      <trkpt lat="44.34154" lon="7.08627">
        <ele>1237.8000488281</ele>
        <time>2024-09-13T14:58:13.000Z</time>
      </trkpt>
      <trkpt lat="44.34155" lon="7.08623">
        <ele>1237.5999755859</ele>
        <time>2024-09-13T14:58:14.000Z</time>
      </trkpt>
      <trkpt lat="44.34156" lon="7.08619">
        <ele>1237.5999755859</ele>
        <time>2024-09-13T14:58:15.000Z</time>
      </trkpt>
      <trkpt lat="44.34156" lon="7.08614">
        <ele>1237.4000244141</ele>
        <time>2024-09-13T14:58:16.000Z</time>
      </trkpt>
      <trkpt lat="44.34156" lon="7.08608">
        <ele>1237.4000244141</ele>
        <time>2024-09-13T14:58:17.000Z</time>
      </trkpt>
      <trkpt lat="44.34155" lon="7.08599">
        <ele>1236.8000488281</ele>
        <time>2024-09-13T14:58:18.000Z</time>
      </trkpt>
      <trkpt lat="44.34153" lon="7.0859">
        <ele>1235.5999755859</ele>
        <time>2024-09-13T14:58:19.000Z</time>
      </trkpt>
      <trkpt lat="44.34153" lon="7.08584">
        <ele>1235.5999755859</ele>
        <time>2024-09-13T14:58:20.000Z</time>
      </trkpt>
      <trkpt lat="44.34153" lon="7.0858">
        <ele>1235.5999755859</ele>
        <time>2024-09-13T14:58:21.000Z</time>
      </trkpt>
      <trkpt lat="44.34153" lon="7.08577">
        <ele>1235.5999755859</ele>
        <time>2024-09-13T14:58:22.000Z</time>
      </trkpt>
      <trkpt lat="44.34153" lon="7.08575">
        <ele>1236</ele>
        <time>2024-09-13T14:58:23.000Z</time>
      </trkpt>
      <trkpt lat="44.34153" lon="7.08575">
        <ele>1236.1999511719</ele>
        <time>2024-09-13T14:58:27.000Z</time>
      </trkpt>
      <trkpt lat="44.34152" lon="7.08571">
        <ele>1236.1999511719</ele>
        <time>2024-09-13T14:58:32.000Z</time>
      </trkpt>
      <trkpt lat="44.34151" lon="7.08571">
        <ele>1236.1999511719</ele>
        <time>2024-09-13T14:58:34.000Z</time>
      </trkpt>
      <trkpt lat="44.34149" lon="7.0857">
        <ele>1236.1999511719</ele>
        <time>2024-09-13T14:58:36.000Z</time>
      </trkpt>
      <trkpt lat="44.34149" lon="7.0857">
        <ele>1236</ele>
        <time>2024-09-13T14:58:39.000Z</time>
      </trkpt>
      <trkpt lat="44.34148" lon="7.08572">
        <ele>1236</ele>
        <time>2024-09-13T14:58:40.000Z</time>
      </trkpt>
      <trkpt lat="44.34147" lon="7.0857">
        <ele>1236.1999511719</ele>
        <time>2024-09-13T14:58:44.000Z</time>
      </trkpt>
      <trkpt lat="44.34146" lon="7.0857">
        <ele>1236.1999511719</ele>
        <time>2024-09-13T14:58:45.000Z</time>
      </trkpt>
      <trkpt lat="44.34145" lon="7.08569">
        <ele>1236.1999511719</ele>
        <time>2024-09-13T14:58:47.000Z</time>
      </trkpt>
      <trkpt lat="44.34145" lon="7.08569">
        <ele>1236.1999511719</ele>
        <time>2024-09-13T14:58:51.000Z</time>
      </trkpt>
      <trkpt lat="44.34145" lon="7.08569">
        <ele>1236.1999511719</ele>
        <time>2024-09-13T14:58:52.000Z</time>
      </trkpt>
      <trkpt lat="44.34146" lon="7.08573">
        <ele>1236.1999511719</ele>
        <time>2024-09-13T14:59:00.000Z</time>
      </trkpt>
      <trkpt lat="44.34146" lon="7.08573">
        <ele>1236.4000244141</ele>
        <time>2024-09-13T14:59:08.000Z</time>
      </trkpt>
      <trkpt lat="44.34144" lon="7.08571">
        <ele>1236.4000244141</ele>
        <time>2024-09-13T14:59:10.000Z</time>
      </trkpt>
      <trkpt lat="44.34144" lon="7.08572">
        <ele>1236.4000244141</ele>
        <time>2024-09-13T14:59:12.000Z</time>
      </trkpt>
      <trkpt lat="44.34148" lon="7.08576">
        <ele>1236.4000244141</ele>
        <time>2024-09-13T14:59:21.000Z</time>
      </trkpt>
      <trkpt lat="44.34145" lon="7.08577">
        <ele>1236.4000244141</ele>
        <time>2024-09-13T14:59:37.000Z</time>
      </trkpt>
      <trkpt lat="44.34148" lon="7.08579">
        <ele>1236.4000244141</ele>
        <time>2024-09-13T14:59:38.000Z</time>
      </trkpt>
      <trkpt lat="44.34149" lon="7.08579">
        <ele>1236.4000244141</ele>
        <time>2024-09-13T14:59:43.000Z</time>
      </trkpt>
      <trkpt lat="44.34149" lon="7.08579">
        <ele>1236.4000244141</ele>
        <time>2024-09-13T15:00:00.000Z</time>
      </trkpt>
      <trkpt lat="44.3415" lon="7.08574">
        <ele>1236.4000244141</ele>
        <time>2024-09-13T15:00:10.000Z</time>
      </trkpt>
      <trkpt lat="44.34148" lon="7.08574">
        <ele>1236.5999755859</ele>
        <time>2024-09-13T15:00:11.000Z</time>
      </trkpt>
      <trkpt lat="44.34147" lon="7.08573">
        <ele>1236.5999755859</ele>
        <time>2024-09-13T15:00:12.000Z</time>
      </trkpt>
      <trkpt lat="44.34145" lon="7.08571">
        <ele>1236.5999755859</ele>
        <time>2024-09-13T15:00:13.000Z</time>
      </trkpt>
      <trkpt lat="44.34142" lon="7.08567">
        <ele>1236.1999511719</ele>
        <time>2024-09-13T15:00:14.000Z</time>
      </trkpt>
      <trkpt lat="44.34139" lon="7.08563">
        <ele>1235.4000244141</ele>
        <time>2024-09-13T15:00:15.000Z</time>
      </trkpt>
      <trkpt lat="44.34135" lon="7.08564">
        <ele>1234.5999755859</ele>
        <time>2024-09-13T15:00:16.000Z</time>
      </trkpt>
      <trkpt lat="44.3413" lon="7.08562">
        <ele>1234</ele>
        <time>2024-09-13T15:00:17.000Z</time>
      </trkpt>
      <trkpt lat="44.34127" lon="7.08558">
        <ele>1233.4000244141</ele>
        <time>2024-09-13T15:00:18.000Z</time>
      </trkpt>
      <trkpt lat="44.34123" lon="7.08556">
        <ele>1233</ele>
        <time>2024-09-13T15:00:19.000Z</time>
      </trkpt>
      <trkpt lat="44.34118" lon="7.08555">
        <ele>1232.5999755859</ele>
        <time>2024-09-13T15:00:20.000Z</time>
      </trkpt>
      <trkpt lat="44.34114" lon="7.08552">
        <ele>1232.4000244141</ele>
        <time>2024-09-13T15:00:21.000Z</time>
      </trkpt>
      <trkpt lat="44.3411" lon="7.08551">
        <ele>1232</ele>
        <time>2024-09-13T15:00:22.000Z</time>
      </trkpt>
      <trkpt lat="44.34107" lon="7.08549">
        <ele>1231.5999755859</ele>
        <time>2024-09-13T15:00:23.000Z</time>
      </trkpt>
      <trkpt lat="44.34103" lon="7.08546">
        <ele>1231</ele>
        <time>2024-09-13T15:00:24.000Z</time>
      </trkpt>
      <trkpt lat="44.341" lon="7.08542">
        <ele>1230.8000488281</ele>
        <time>2024-09-13T15:00:25.000Z</time>
      </trkpt>
      <trkpt lat="44.34097" lon="7.08538">
        <ele>1229.4000244141</ele>
        <time>2024-09-13T15:00:26.000Z</time>
      </trkpt>
      <trkpt lat="44.34094" lon="7.08534">
        <ele>1229</ele>
        <time>2024-09-13T15:00:27.000Z</time>
      </trkpt>
      <trkpt lat="44.34092" lon="7.08528">
        <ele>1227.8000488281</ele>
        <time>2024-09-13T15:00:28.000Z</time>
      </trkpt>
      <trkpt lat="44.3409" lon="7.08522">
        <ele>1227.5999755859</ele>
        <time>2024-09-13T15:00:29.000Z</time>
      </trkpt>
      <trkpt lat="44.34087" lon="7.08517">
        <ele>1226.5999755859</ele>
        <time>2024-09-13T15:00:30.000Z</time>
      </trkpt>
      <trkpt lat="44.34083" lon="7.08513">
        <ele>1225</ele>
        <time>2024-09-13T15:00:31.000Z</time>
      </trkpt>
      <trkpt lat="44.34079" lon="7.08507">
        <ele>1223.4000244141</ele>
        <time>2024-09-13T15:00:32.000Z</time>
      </trkpt>
      <trkpt lat="44.34075" lon="7.08501">
        <ele>1222.5999755859</ele>
        <time>2024-09-13T15:00:33.000Z</time>
      </trkpt>
      <trkpt lat="44.34071" lon="7.08495">
        <ele>1222.1999511719</ele>
        <time>2024-09-13T15:00:34.000Z</time>
      </trkpt>
      <trkpt lat="44.3407" lon="7.08488">
        <ele>1222</ele>
        <time>2024-09-13T15:00:35.000Z</time>
      </trkpt>
      <trkpt lat="44.3407" lon="7.0848">
        <ele>1221.8000488281</ele>
        <time>2024-09-13T15:00:36.000Z</time>
      </trkpt>
      <trkpt lat="44.34071" lon="7.08473">
        <ele>1221.1999511719</ele>
        <time>2024-09-13T15:00:37.000Z</time>
      </trkpt>
      <trkpt lat="44.34068" lon="7.08466">
        <ele>1221</ele>
        <time>2024-09-13T15:00:38.000Z</time>
      </trkpt>
      <trkpt lat="44.34064" lon="7.0846">
        <ele>1220</ele>
        <time>2024-09-13T15:00:39.000Z</time>
      </trkpt>
      <trkpt lat="44.3406" lon="7.08455">
        <ele>1219.4000244141</ele>
        <time>2024-09-13T15:00:40.000Z</time>
      </trkpt>
      <trkpt lat="44.34056" lon="7.08449">
        <ele>1218.5999755859</ele>
        <time>2024-09-13T15:00:41.000Z</time>
      </trkpt>
      <trkpt lat="44.34053" lon="7.08441">
        <ele>1217.4000244141</ele>
        <time>2024-09-13T15:00:42.000Z</time>
      </trkpt>
      <trkpt lat="44.3405" lon="7.08432">
        <ele>1215.1999511719</ele>
        <time>2024-09-13T15:00:43.000Z</time>
      </trkpt>
      <trkpt lat="44.34048" lon="7.08423">
        <ele>1213.5999755859</ele>
        <time>2024-09-13T15:00:44.000Z</time>
      </trkpt>
      <trkpt lat="44.34046" lon="7.08414">
        <ele>1212.4000244141</ele>
        <time>2024-09-13T15:00:45.000Z</time>
      </trkpt>
      <trkpt lat="44.34042" lon="7.08403">
        <ele>1210.4000244141</ele>
        <time>2024-09-13T15:00:46.000Z</time>
      </trkpt>
      <trkpt lat="44.34038" lon="7.08393">
        <ele>1208.8000488281</ele>
        <time>2024-09-13T15:00:47.000Z</time>
      </trkpt>
      <trkpt lat="44.34033" lon="7.08383">
        <ele>1207.4000244141</ele>
        <time>2024-09-13T15:00:48.000Z</time>
      </trkpt>
      <trkpt lat="44.34029" lon="7.08372">
        <ele>1206</ele>
        <time>2024-09-13T15:00:49.000Z</time>
      </trkpt>
      <trkpt lat="44.34025" lon="7.08361">
        <ele>1204.4000244141</ele>
        <time>2024-09-13T15:00:50.000Z</time>
      </trkpt>
      <trkpt lat="44.34023" lon="7.0835">
        <ele>1203.1999511719</ele>
        <time>2024-09-13T15:00:51.000Z</time>
      </trkpt>
      <trkpt lat="44.34022" lon="7.0834">
        <ele>1201.8000488281</ele>
        <time>2024-09-13T15:00:52.000Z</time>
      </trkpt>
      <trkpt lat="44.3402" lon="7.0833">
        <ele>1201.5999755859</ele>
        <time>2024-09-13T15:00:53.000Z</time>
      </trkpt>
      <trkpt lat="44.34018" lon="7.0832">
        <ele>1201.1999511719</ele>
        <time>2024-09-13T15:00:54.000Z</time>
      </trkpt>
      <trkpt lat="44.34018" lon="7.08311">
        <ele>1200.5999755859</ele>
        <time>2024-09-13T15:00:55.000Z</time>
      </trkpt>
      <trkpt lat="44.34017" lon="7.08304">
        <ele>1200.1999511719</ele>
        <time>2024-09-13T15:00:56.000Z</time>
      </trkpt>
      <trkpt lat="44.34017" lon="7.08297">
        <ele>1200.1999511719</ele>
        <time>2024-09-13T15:00:57.000Z</time>
      </trkpt>
      <trkpt lat="44.34019" lon="7.08291">
        <ele>1199.8000488281</ele>
        <time>2024-09-13T15:00:58.000Z</time>
      </trkpt>
      <trkpt lat="44.3402" lon="7.08284">
        <ele>1199.8000488281</ele>
        <time>2024-09-13T15:00:59.000Z</time>
      </trkpt>
      <trkpt lat="44.34021" lon="7.0828">
        <ele>1199.4000244141</ele>
        <time>2024-09-13T15:01:00.000Z</time>
      </trkpt>
      <trkpt lat="44.34022" lon="7.08276">
        <ele>1199</ele>
        <time>2024-09-13T15:01:01.000Z</time>
      </trkpt>
      <trkpt lat="44.34023" lon="7.08271">
        <ele>1198.5999755859</ele>
        <time>2024-09-13T15:01:02.000Z</time>
      </trkpt>
      <trkpt lat="44.34023" lon="7.08266">
        <ele>1198.4000244141</ele>
        <time>2024-09-13T15:01:03.000Z</time>
      </trkpt>
      <trkpt lat="44.34023" lon="7.08262">
        <ele>1198.1999511719</ele>
        <time>2024-09-13T15:01:04.000Z</time>
      </trkpt>
      <trkpt lat="44.34022" lon="7.08256">
        <ele>1197.5999755859</ele>
        <time>2024-09-13T15:01:05.000Z</time>
      </trkpt>
      <trkpt lat="44.34021" lon="7.08249">
        <ele>1197</ele>
        <time>2024-09-13T15:01:06.000Z</time>
      </trkpt>
      <trkpt lat="44.3402" lon="7.08243">
        <ele>1196.5999755859</ele>
        <time>2024-09-13T15:01:07.000Z</time>
      </trkpt>
      <trkpt lat="44.3402" lon="7.08238">
        <ele>1196.4000244141</ele>
        <time>2024-09-13T15:01:08.000Z</time>
      </trkpt>
      <trkpt lat="44.3402" lon="7.08234">
        <ele>1196.1999511719</ele>
        <time>2024-09-13T15:01:09.000Z</time>
      </trkpt>
      <trkpt lat="44.34019" lon="7.0823">
        <ele>1196.1999511719</ele>
        <time>2024-09-13T15:01:10.000Z</time>
      </trkpt>
      <trkpt lat="44.34018" lon="7.08226">
        <ele>1196</ele>
        <time>2024-09-13T15:01:11.000Z</time>
      </trkpt>
      <trkpt lat="44.34016" lon="7.08223">
        <ele>1195.5999755859</ele>
        <time>2024-09-13T15:01:12.000Z</time>
      </trkpt>
      <trkpt lat="44.34013" lon="7.08219">
        <ele>1195.5999755859</ele>
        <time>2024-09-13T15:01:13.000Z</time>
      </trkpt>
      <trkpt lat="44.34011" lon="7.08214">
        <ele>1194.8000488281</ele>
        <time>2024-09-13T15:01:14.000Z</time>
      </trkpt>
      <trkpt lat="44.34008" lon="7.08208">
        <ele>1194</ele>
        <time>2024-09-13T15:01:15.000Z</time>
      </trkpt>
      <trkpt lat="44.34003" lon="7.08202">
        <ele>1193.1999511719</ele>
        <time>2024-09-13T15:01:16.000Z</time>
      </trkpt>
      <trkpt lat="44.33992" lon="7.08191">
        <ele>1191.8000488281</ele>
        <time>2024-09-13T15:01:18.000Z</time>
      </trkpt>
      <trkpt lat="44.3398" lon="7.08182">
        <ele>1190.8000488281</ele>
        <time>2024-09-13T15:01:20.000Z</time>
      </trkpt>
      <trkpt lat="44.33976" lon="7.0818">
        <ele>1191</ele>
        <time>2024-09-13T15:01:21.000Z</time>
      </trkpt>
      <trkpt lat="44.33971" lon="7.0818">
        <ele>1191</ele>
        <time>2024-09-13T15:01:22.000Z</time>
      </trkpt>
      <trkpt lat="44.33966" lon="7.08179">
        <ele>1191</ele>
        <time>2024-09-13T15:01:23.000Z</time>
      </trkpt>
      <trkpt lat="44.33962" lon="7.08179">
        <ele>1191.1999511719</ele>
        <time>2024-09-13T15:01:24.000Z</time>
      </trkpt>
      <trkpt lat="44.33957" lon="7.08177">
        <ele>1191.4000244141</ele>
        <time>2024-09-13T15:01:25.000Z</time>
      </trkpt>
      <trkpt lat="44.33951" lon="7.08176">
        <ele>1191.4000244141</ele>
        <time>2024-09-13T15:01:26.000Z</time>
      </trkpt>
      <trkpt lat="44.33942" lon="7.08171">
        <ele>1191.4000244141</ele>
        <time>2024-09-13T15:01:28.000Z</time>
      </trkpt>
      <trkpt lat="44.33938" lon="7.08169">
        <ele>1191.4000244141</ele>
        <time>2024-09-13T15:01:29.000Z</time>
      </trkpt>
      <trkpt lat="44.33929" lon="7.08167">
        <ele>1191.1999511719</ele>
        <time>2024-09-13T15:01:31.000Z</time>
      </trkpt>
      <trkpt lat="44.33926" lon="7.08167">
        <ele>1191</ele>
        <time>2024-09-13T15:01:32.000Z</time>
      </trkpt>
      <trkpt lat="44.33921" lon="7.08168">
        <ele>1191</ele>
        <time>2024-09-13T15:01:33.000Z</time>
      </trkpt>
      <trkpt lat="44.33916" lon="7.08169">
        <ele>1191</ele>
        <time>2024-09-13T15:01:34.000Z</time>
      </trkpt>
      <trkpt lat="44.33912" lon="7.08169">
        <ele>1191</ele>
        <time>2024-09-13T15:01:35.000Z</time>
      </trkpt>
      <trkpt lat="44.33907" lon="7.08169">
        <ele>1191</ele>
        <time>2024-09-13T15:01:36.000Z</time>
      </trkpt>
      <trkpt lat="44.33902" lon="7.0817">
        <ele>1191</ele>
        <time>2024-09-13T15:01:37.000Z</time>
      </trkpt>
      <trkpt lat="44.33898" lon="7.0817">
        <ele>1191.1999511719</ele>
        <time>2024-09-13T15:01:38.000Z</time>
      </trkpt>
      <trkpt lat="44.33894" lon="7.0817">
        <ele>1191.4000244141</ele>
        <time>2024-09-13T15:01:39.000Z</time>
      </trkpt>
      <trkpt lat="44.3389" lon="7.08167">
        <ele>1191.4000244141</ele>
        <time>2024-09-13T15:01:40.000Z</time>
      </trkpt>
      <trkpt lat="44.33887" lon="7.08165">
        <ele>1191.5999755859</ele>
        <time>2024-09-13T15:01:41.000Z</time>
      </trkpt>
      <trkpt lat="44.33885" lon="7.08162">
        <ele>1191.5999755859</ele>
        <time>2024-09-13T15:01:42.000Z</time>
      </trkpt>
      <trkpt lat="44.33883" lon="7.08159">
        <ele>1191.4000244141</ele>
        <time>2024-09-13T15:01:43.000Z</time>
      </trkpt>
      <trkpt lat="44.33881" lon="7.08156">
        <ele>1191.4000244141</ele>
        <time>2024-09-13T15:01:44.000Z</time>
      </trkpt>
      <trkpt lat="44.33876" lon="7.08147">
        <ele>1191.4000244141</ele>
        <time>2024-09-13T15:01:46.000Z</time>
      </trkpt>
      <trkpt lat="44.33872" lon="7.08143">
        <ele>1191.4000244141</ele>
        <time>2024-09-13T15:01:47.000Z</time>
      </trkpt>
      <trkpt lat="44.3387" lon="7.0814">
        <ele>1191.4000244141</ele>
        <time>2024-09-13T15:01:48.000Z</time>
      </trkpt>
      <trkpt lat="44.33868" lon="7.08137">
        <ele>1191.4000244141</ele>
        <time>2024-09-13T15:01:49.000Z</time>
      </trkpt>
      <trkpt lat="44.33866" lon="7.08134">
        <ele>1191.4000244141</ele>
        <time>2024-09-13T15:01:50.000Z</time>
      </trkpt>
      <trkpt lat="44.33856" lon="7.08115">
        <ele>1190.4000244141</ele>
        <time>2024-09-13T15:01:55.000Z</time>
      </trkpt>
      <trkpt lat="44.33852" lon="7.08103">
        <ele>1190</ele>
        <time>2024-09-13T15:01:57.000Z</time>
      </trkpt>
      <trkpt lat="44.3385" lon="7.08098">
        <ele>1189.8000488281</ele>
        <time>2024-09-13T15:01:58.000Z</time>
      </trkpt>
      <trkpt lat="44.33848" lon="7.08091">
        <ele>1189.5999755859</ele>
        <time>2024-09-13T15:01:59.000Z</time>
      </trkpt>
      <trkpt lat="44.33843" lon="7.08075">
        <ele>1189.4000244141</ele>
        <time>2024-09-13T15:02:01.000Z</time>
      </trkpt>
      <trkpt lat="44.3384" lon="7.08068">
        <ele>1188.4000244141</ele>
        <time>2024-09-13T15:02:02.000Z</time>
      </trkpt>
      <trkpt lat="44.33834" lon="7.08055">
        <ele>1188.1999511719</ele>
        <time>2024-09-13T15:02:04.000Z</time>
      </trkpt>
      <trkpt lat="44.33823" lon="7.08037">
        <ele>1187.1999511719</ele>
        <time>2024-09-13T15:02:07.000Z</time>
      </trkpt>
      <trkpt lat="44.33817" lon="7.08022">
        <ele>1186.4000244141</ele>
        <time>2024-09-13T15:02:09.000Z</time>
      </trkpt>
      <trkpt lat="44.33815" lon="7.08013">
        <ele>1185</ele>
        <time>2024-09-13T15:02:10.000Z</time>
      </trkpt>
      <trkpt lat="44.33813" lon="7.08005">
        <ele>1183.4000244141</ele>
        <time>2024-09-13T15:02:11.000Z</time>
      </trkpt>
      <trkpt lat="44.33809" lon="7.07997">
        <ele>1181.1999511719</ele>
        <time>2024-09-13T15:02:12.000Z</time>
      </trkpt>
      <trkpt lat="44.338" lon="7.07981">
        <ele>1180.8000488281</ele>
        <time>2024-09-13T15:02:14.000Z</time>
      </trkpt>
      <trkpt lat="44.33796" lon="7.07975">
        <ele>1180.5999755859</ele>
        <time>2024-09-13T15:02:15.000Z</time>
      </trkpt>
      <trkpt lat="44.33793" lon="7.07968">
        <ele>1180</ele>
        <time>2024-09-13T15:02:16.000Z</time>
      </trkpt>
      <trkpt lat="44.3379" lon="7.0796">
        <ele>1179.8000488281</ele>
        <time>2024-09-13T15:02:17.000Z</time>
      </trkpt>
      <trkpt lat="44.33788" lon="7.07951">
        <ele>1179.5999755859</ele>
        <time>2024-09-13T15:02:18.000Z</time>
      </trkpt>
      <trkpt lat="44.33787" lon="7.0794">
        <ele>1179</ele>
        <time>2024-09-13T15:02:19.000Z</time>
      </trkpt>
      <trkpt lat="44.33786" lon="7.07931">
        <ele>1177.5999755859</ele>
        <time>2024-09-13T15:02:20.000Z</time>
      </trkpt>
      <trkpt lat="44.33784" lon="7.07921">
        <ele>1176.8000488281</ele>
        <time>2024-09-13T15:02:21.000Z</time>
      </trkpt>
      <trkpt lat="44.33782" lon="7.07911">
        <ele>1176.5999755859</ele>
        <time>2024-09-13T15:02:22.000Z</time>
      </trkpt>
      <trkpt lat="44.33779" lon="7.07903">
        <ele>1176.5999755859</ele>
        <time>2024-09-13T15:02:23.000Z</time>
      </trkpt>
      <trkpt lat="44.33777" lon="7.07894">
        <ele>1176.4000244141</ele>
        <time>2024-09-13T15:02:24.000Z</time>
      </trkpt>
      <trkpt lat="44.33773" lon="7.07887">
        <ele>1176.1999511719</ele>
        <time>2024-09-13T15:02:25.000Z</time>
      </trkpt>
      <trkpt lat="44.33771" lon="7.07879">
        <ele>1176.1999511719</ele>
        <time>2024-09-13T15:02:26.000Z</time>
      </trkpt>
      <trkpt lat="44.33768" lon="7.07872">
        <ele>1176.4000244141</ele>
        <time>2024-09-13T15:02:27.000Z</time>
      </trkpt>
      <trkpt lat="44.33765" lon="7.07864">
        <ele>1176.1999511719</ele>
        <time>2024-09-13T15:02:28.000Z</time>
      </trkpt>
      <trkpt lat="44.33762" lon="7.07857">
        <ele>1176</ele>
        <time>2024-09-13T15:02:29.000Z</time>
      </trkpt>
      <trkpt lat="44.3376" lon="7.07849">
        <ele>1175.8000488281</ele>
        <time>2024-09-13T15:02:30.000Z</time>
      </trkpt>
      <trkpt lat="44.33758" lon="7.07842">
        <ele>1176</ele>
        <time>2024-09-13T15:02:31.000Z</time>
      </trkpt>
      <trkpt lat="44.33756" lon="7.07836">
        <ele>1176.1999511719</ele>
        <time>2024-09-13T15:02:32.000Z</time>
      </trkpt>
      <trkpt lat="44.33755" lon="7.07831">
        <ele>1176.4000244141</ele>
        <time>2024-09-13T15:02:33.000Z</time>
      </trkpt>
      <trkpt lat="44.33754" lon="7.07827">
        <ele>1176.4000244141</ele>
        <time>2024-09-13T15:02:34.000Z</time>
      </trkpt>
      <trkpt lat="44.33754" lon="7.07824">
        <ele>1176.4000244141</ele>
        <time>2024-09-13T15:02:35.000Z</time>
      </trkpt>
      <trkpt lat="44.33753" lon="7.07821">
        <ele>1177</ele>
        <time>2024-09-13T15:02:36.000Z</time>
      </trkpt>
      <trkpt lat="44.33753" lon="7.07819">
        <ele>1177.4000244141</ele>
        <time>2024-09-13T15:02:37.000Z</time>
      </trkpt>
      <trkpt lat="44.33753" lon="7.07816">
        <ele>1177.8000488281</ele>
        <time>2024-09-13T15:02:38.000Z</time>
      </trkpt>
      <trkpt lat="44.33753" lon="7.07814">
        <ele>1178</ele>
        <time>2024-09-13T15:02:39.000Z</time>
      </trkpt>
      <trkpt lat="44.33752" lon="7.07811">
        <ele>1178.4000244141</ele>
        <time>2024-09-13T15:02:40.000Z</time>
      </trkpt>
      <trkpt lat="44.33752" lon="7.07808">
        <ele>1178.5999755859</ele>
        <time>2024-09-13T15:02:41.000Z</time>
      </trkpt>
      <trkpt lat="44.33752" lon="7.07805">
        <ele>1178.8000488281</ele>
        <time>2024-09-13T15:02:42.000Z</time>
      </trkpt>
      <trkpt lat="44.33752" lon="7.07791">
        <ele>1180</ele>
        <time>2024-09-13T15:02:47.000Z</time>
      </trkpt>
      <trkpt lat="44.33751" lon="7.07788">
        <ele>1180.1999511719</ele>
        <time>2024-09-13T15:02:48.000Z</time>
      </trkpt>
      <trkpt lat="44.33751" lon="7.07784">
        <ele>1180.4000244141</ele>
        <time>2024-09-13T15:02:49.000Z</time>
      </trkpt>
      <trkpt lat="44.3375" lon="7.07782">
        <ele>1180.5999755859</ele>
        <time>2024-09-13T15:02:50.000Z</time>
      </trkpt>
      <trkpt lat="44.3375" lon="7.07778">
        <ele>1180.5999755859</ele>
        <time>2024-09-13T15:02:51.000Z</time>
      </trkpt>
      <trkpt lat="44.33749" lon="7.07776">
        <ele>1180.8000488281</ele>
        <time>2024-09-13T15:02:52.000Z</time>
      </trkpt>
      <trkpt lat="44.33748" lon="7.07772">
        <ele>1181</ele>
        <time>2024-09-13T15:02:53.000Z</time>
      </trkpt>
      <trkpt lat="44.33749" lon="7.07771">
        <ele>1181.1999511719</ele>
        <time>2024-09-13T15:02:54.000Z</time>
      </trkpt>
      <trkpt lat="44.33749" lon="7.07769">
        <ele>1181.4000244141</ele>
        <time>2024-09-13T15:02:55.000Z</time>
      </trkpt>
      <trkpt lat="44.33749" lon="7.07767">
        <ele>1181.4000244141</ele>
        <time>2024-09-13T15:02:56.000Z</time>
      </trkpt>
      <trkpt lat="44.33749" lon="7.07765">
        <ele>1181.5999755859</ele>
        <time>2024-09-13T15:02:57.000Z</time>
      </trkpt>
      <trkpt lat="44.33749" lon="7.07763">
        <ele>1181.5999755859</ele>
        <time>2024-09-13T15:02:58.000Z</time>
      </trkpt>
      <trkpt lat="44.33749" lon="7.0776">
        <ele>1181.5999755859</ele>
        <time>2024-09-13T15:02:59.000Z</time>
      </trkpt>
      <trkpt lat="44.3375" lon="7.07757">
        <ele>1181.8000488281</ele>
        <time>2024-09-13T15:03:00.000Z</time>
      </trkpt>
      <trkpt lat="44.33751" lon="7.07754">
        <ele>1181.8000488281</ele>
        <time>2024-09-13T15:03:01.000Z</time>
      </trkpt>
      <trkpt lat="44.33752" lon="7.07752">
        <ele>1182</ele>
        <time>2024-09-13T15:03:02.000Z</time>
      </trkpt>
      <trkpt lat="44.33753" lon="7.07749">
        <ele>1182</ele>
        <time>2024-09-13T15:03:03.000Z</time>
      </trkpt>
      <trkpt lat="44.33753" lon="7.07748">
        <ele>1182.1999511719</ele>
        <time>2024-09-13T15:03:04.000Z</time>
      </trkpt>
      <trkpt lat="44.33753" lon="7.07747">
        <ele>1182.4000244141</ele>
        <time>2024-09-13T15:03:05.000Z</time>
      </trkpt>
      <trkpt lat="44.33753" lon="7.07745">
        <ele>1182.5999755859</ele>
        <time>2024-09-13T15:03:06.000Z</time>
      </trkpt>
      <trkpt lat="44.33753" lon="7.07742">
        <ele>1182.8000488281</ele>
        <time>2024-09-13T15:03:07.000Z</time>
      </trkpt>
      <trkpt lat="44.33754" lon="7.0774">
        <ele>1183</ele>
        <time>2024-09-13T15:03:08.000Z</time>
      </trkpt>
      <trkpt lat="44.33756" lon="7.07736">
        <ele>1183</ele>
        <time>2024-09-13T15:03:09.000Z</time>
      </trkpt>
      <trkpt lat="44.33758" lon="7.07733">
        <ele>1183.1999511719</ele>
        <time>2024-09-13T15:03:10.000Z</time>
      </trkpt>
      <trkpt lat="44.3376" lon="7.0773">
        <ele>1183.4000244141</ele>
        <time>2024-09-13T15:03:11.000Z</time>
      </trkpt>
      <trkpt lat="44.33761" lon="7.07728">
        <ele>1183.4000244141</ele>
        <time>2024-09-13T15:03:12.000Z</time>
      </trkpt>
      <trkpt lat="44.33763" lon="7.07726">
        <ele>1183.5999755859</ele>
        <time>2024-09-13T15:03:13.000Z</time>
      </trkpt>
      <trkpt lat="44.33765" lon="7.07724">
        <ele>1183.5999755859</ele>
        <time>2024-09-13T15:03:14.000Z</time>
      </trkpt>
      <trkpt lat="44.33766" lon="7.07722">
        <ele>1183.5999755859</ele>
        <time>2024-09-13T15:03:15.000Z</time>
      </trkpt>
      <trkpt lat="44.33767" lon="7.0772">
        <ele>1183.8000488281</ele>
        <time>2024-09-13T15:03:16.000Z</time>
      </trkpt>
      <trkpt lat="44.33769" lon="7.07718">
        <ele>1183.8000488281</ele>
        <time>2024-09-13T15:03:17.000Z</time>
      </trkpt>
      <trkpt lat="44.3377" lon="7.07716">
        <ele>1183.8000488281</ele>
        <time>2024-09-13T15:03:18.000Z</time>
      </trkpt>
      <trkpt lat="44.33771" lon="7.07714">
        <ele>1184</ele>
        <time>2024-09-13T15:03:19.000Z</time>
      </trkpt>
      <trkpt lat="44.33771" lon="7.07713">
        <ele>1184.5999755859</ele>
        <time>2024-09-13T15:03:20.000Z</time>
      </trkpt>
      <trkpt lat="44.33772" lon="7.07711">
        <ele>1184.8000488281</ele>
        <time>2024-09-13T15:03:21.000Z</time>
      </trkpt>
      <trkpt lat="44.33773" lon="7.07709">
        <ele>1185</ele>
        <time>2024-09-13T15:03:22.000Z</time>
      </trkpt>
      <trkpt lat="44.33774" lon="7.07706">
        <ele>1185.1999511719</ele>
        <time>2024-09-13T15:03:23.000Z</time>
      </trkpt>
      <trkpt lat="44.33775" lon="7.07704">
        <ele>1185.1999511719</ele>
        <time>2024-09-13T15:03:24.000Z</time>
      </trkpt>
      <trkpt lat="44.33776" lon="7.07702">
        <ele>1185.4000244141</ele>
        <time>2024-09-13T15:03:25.000Z</time>
      </trkpt>
      <trkpt lat="44.33777" lon="7.077">
        <ele>1185.8000488281</ele>
        <time>2024-09-13T15:03:26.000Z</time>
      </trkpt>
      <trkpt lat="44.33779" lon="7.07698">
        <ele>1186</ele>
        <time>2024-09-13T15:03:27.000Z</time>
      </trkpt>
      <trkpt lat="44.33779" lon="7.07696">
        <ele>1186.1999511719</ele>
        <time>2024-09-13T15:03:28.000Z</time>
      </trkpt>
      <trkpt lat="44.33779" lon="7.07694">
        <ele>1186.4000244141</ele>
        <time>2024-09-13T15:03:29.000Z</time>
      </trkpt>
      <trkpt lat="44.3378" lon="7.07692">
        <ele>1186.8000488281</ele>
        <time>2024-09-13T15:03:30.000Z</time>
      </trkpt>
      <trkpt lat="44.3378" lon="7.0769">
        <ele>1186.8000488281</ele>
        <time>2024-09-13T15:03:31.000Z</time>
      </trkpt>
      <trkpt lat="44.33781" lon="7.07688">
        <ele>1186.8000488281</ele>
        <time>2024-09-13T15:03:32.000Z</time>
      </trkpt>
      <trkpt lat="44.33781" lon="7.07688">
        <ele>1187</ele>
        <time>2024-09-13T15:03:33.000Z</time>
      </trkpt>
      <trkpt lat="44.33782" lon="7.07687">
        <ele>1187</ele>
        <time>2024-09-13T15:03:34.000Z</time>
      </trkpt>
      <trkpt lat="44.33783" lon="7.07687">
        <ele>1187</ele>
        <time>2024-09-13T15:03:35.000Z</time>
      </trkpt>
      <trkpt lat="44.33784" lon="7.07686">
        <ele>1187</ele>
        <time>2024-09-13T15:03:36.000Z</time>
      </trkpt>
      <trkpt lat="44.33786" lon="7.07686">
        <ele>1187</ele>
        <time>2024-09-13T15:03:37.000Z</time>
      </trkpt>
      <trkpt lat="44.33788" lon="7.07684">
        <ele>1187</ele>
        <time>2024-09-13T15:03:38.000Z</time>
      </trkpt>
      <trkpt lat="44.33789" lon="7.07683">
        <ele>1187</ele>
        <time>2024-09-13T15:03:39.000Z</time>
      </trkpt>
      <trkpt lat="44.3379" lon="7.07683">
        <ele>1187</ele>
        <time>2024-09-13T15:03:40.000Z</time>
      </trkpt>
      <trkpt lat="44.33792" lon="7.07682">
        <ele>1187</ele>
        <time>2024-09-13T15:03:41.000Z</time>
      </trkpt>
      <trkpt lat="44.33793" lon="7.0768">
        <ele>1187</ele>
        <time>2024-09-13T15:03:42.000Z</time>
      </trkpt>
      <trkpt lat="44.33794" lon="7.07679">
        <ele>1187</ele>
        <time>2024-09-13T15:03:43.000Z</time>
      </trkpt>
      <trkpt lat="44.33796" lon="7.07676">
        <ele>1187</ele>
        <time>2024-09-13T15:03:44.000Z</time>
      </trkpt>
      <trkpt lat="44.33798" lon="7.07672">
        <ele>1187</ele>
        <time>2024-09-13T15:03:45.000Z</time>
      </trkpt>
      <trkpt lat="44.338" lon="7.07669">
        <ele>1187</ele>
        <time>2024-09-13T15:03:46.000Z</time>
      </trkpt>
      <trkpt lat="44.338" lon="7.07665">
        <ele>1187</ele>
        <time>2024-09-13T15:03:47.000Z</time>
      </trkpt>
      <trkpt lat="44.33801" lon="7.07662">
        <ele>1187</ele>
        <time>2024-09-13T15:03:48.000Z</time>
      </trkpt>
      <trkpt lat="44.33801" lon="7.0766">
        <ele>1186.8000488281</ele>
        <time>2024-09-13T15:03:49.000Z</time>
      </trkpt>
      <trkpt lat="44.33802" lon="7.07658">
        <ele>1186.8000488281</ele>
        <time>2024-09-13T15:03:50.000Z</time>
      </trkpt>
      <trkpt lat="44.33804" lon="7.07656">
        <ele>1186.8000488281</ele>
        <time>2024-09-13T15:03:51.000Z</time>
      </trkpt>
      <trkpt lat="44.33805" lon="7.07654">
        <ele>1186.8000488281</ele>
        <time>2024-09-13T15:03:52.000Z</time>
      </trkpt>
      <trkpt lat="44.33806" lon="7.07651">
        <ele>1186.8000488281</ele>
        <time>2024-09-13T15:03:53.000Z</time>
      </trkpt>
      <trkpt lat="44.33809" lon="7.07647">
        <ele>1186.8000488281</ele>
        <time>2024-09-13T15:03:55.000Z</time>
      </trkpt>
      <trkpt lat="44.3381" lon="7.07646">
        <ele>1186.8000488281</ele>
        <time>2024-09-13T15:03:56.000Z</time>
      </trkpt>
      <trkpt lat="44.33811" lon="7.07644">
        <ele>1186.8000488281</ele>
        <time>2024-09-13T15:03:57.000Z</time>
      </trkpt>
      <trkpt lat="44.33811" lon="7.07642">
        <ele>1187</ele>
        <time>2024-09-13T15:03:58.000Z</time>
      </trkpt>
      <trkpt lat="44.33811" lon="7.07638">
        <ele>1187</ele>
        <time>2024-09-13T15:04:00.000Z</time>
      </trkpt>
      <trkpt lat="44.33811" lon="7.07635">
        <ele>1187.1999511719</ele>
        <time>2024-09-13T15:04:01.000Z</time>
      </trkpt>
      <trkpt lat="44.33811" lon="7.07633">
        <ele>1187.1999511719</ele>
        <time>2024-09-13T15:04:02.000Z</time>
      </trkpt>
      <trkpt lat="44.33812" lon="7.07631">
        <ele>1187.1999511719</ele>
        <time>2024-09-13T15:04:03.000Z</time>
      </trkpt>
      <trkpt lat="44.33813" lon="7.07631">
        <ele>1187.1999511719</ele>
        <time>2024-09-13T15:04:04.000Z</time>
      </trkpt>
      <trkpt lat="44.33814" lon="7.0763">
        <ele>1187.1999511719</ele>
        <time>2024-09-13T15:04:05.000Z</time>
      </trkpt>
      <trkpt lat="44.33814" lon="7.07629">
        <ele>1187.4000244141</ele>
        <time>2024-09-13T15:04:06.000Z</time>
      </trkpt>
      <trkpt lat="44.33814" lon="7.07629">
        <ele>1187.4000244141</ele>
        <time>2024-09-13T15:04:08.000Z</time>
        <extensions>
          <visugpx:TrkExtension xmlns:visugpx="https://www.visugpx.com/editgpx/">
            <visugpx:node>1</visugpx:node>
            </visugpx:TrkExtension>
        </extensions>
      </trkpt>
    </trkseg>
  </trk>
</gpx>